<?xml version="1.0" encoding="UTF-8" standalone="no" ?>
<gpx xmlns="http://www.topografix.com/GPX/1/1" xmlns:xsi="http://www.w3.org/2001/XMLSchema-instance" xsi:schemaLocation="http://www.topografix.com/GPX/1/1 http://www.topografix.com/GPX/1/1/gpx.xsd" version="1.1" creator="VisuGPX - https://www.visugpx.com">
  <metadata>
    <name>La trace des Caps</name>
    <desc><![CDATA[Circuit sur les plages de Sainte-Anne en Martinique]]></desc>
  </metadata>
  <trk>
    <name><![CDATA[Urban Biker – B-TWIN ROCKRIDER 500 – 5 juin 2016 07:38]]></name>
    <trkseg>
      <trkpt lat="14.43927" lon="-60.87884">
        <ele>7</ele>
        <time>2016-06-05T11:36:10.935Z</time>
      </trkpt>
      <trkpt lat="14.43927" lon="-60.87884">
        <ele>7</ele>
        <time>2016-06-05T11:38:21.285Z</time>
      </trkpt>
      <trkpt lat="14.43926" lon="-60.87886">
        <ele>9</ele>
        <time>2016-06-05T11:38:32.930Z</time>
      </trkpt>
      <trkpt lat="14.43926" lon="-60.87889">
        <ele>8</ele>
        <time>2016-06-05T11:38:34.929Z</time>
      </trkpt>
      <trkpt lat="14.43926" lon="-60.87892">
        <ele>8</ele>
        <time>2016-06-05T11:38:38.929Z</time>
      </trkpt>
      <trkpt lat="14.43925" lon="-60.87895">
        <ele>8</ele>
        <time>2016-06-05T11:38:41.929Z</time>
      </trkpt>
      <trkpt lat="14.43924" lon="-60.87897">
        <ele>9</ele>
        <time>2016-06-05T11:38:43.931Z</time>
      </trkpt>
      <trkpt lat="14.43924" lon="-60.87898">
        <ele>9</ele>
        <time>2016-06-05T11:38:44.929Z</time>
      </trkpt>
      <trkpt lat="14.43924" lon="-60.879">
        <ele>9</ele>
        <time>2016-06-05T11:38:46.928Z</time>
      </trkpt>
      <trkpt lat="14.43923" lon="-60.87902">
        <ele>9</ele>
        <time>2016-06-05T11:38:48.932Z</time>
      </trkpt>
      <trkpt lat="14.43923" lon="-60.87904">
        <ele>9</ele>
        <time>2016-06-05T11:38:50.927Z</time>
      </trkpt>
      <trkpt lat="14.43923" lon="-60.87906">
        <ele>9</ele>
        <time>2016-06-05T11:38:52.930Z</time>
      </trkpt>
      <trkpt lat="14.43922" lon="-60.87908">
        <ele>10</ele>
        <time>2016-06-05T11:38:54.929Z</time>
      </trkpt>
      <trkpt lat="14.43921" lon="-60.8791">
        <ele>10</ele>
        <time>2016-06-05T11:38:56.928Z</time>
      </trkpt>
      <trkpt lat="14.4392" lon="-60.87912">
        <ele>10</ele>
        <time>2016-06-05T11:38:58.930Z</time>
      </trkpt>
      <trkpt lat="14.43919" lon="-60.87914">
        <ele>10</ele>
        <time>2016-06-05T11:39:00.929Z</time>
      </trkpt>
      <trkpt lat="14.43918" lon="-60.87916">
        <ele>10</ele>
        <time>2016-06-05T11:39:02.928Z</time>
      </trkpt>
      <trkpt lat="14.43917" lon="-60.87917">
        <ele>10</ele>
        <time>2016-06-05T11:39:05.929Z</time>
      </trkpt>
      <trkpt lat="14.43917" lon="-60.87919">
        <ele>10</ele>
        <time>2016-06-05T11:39:07.932Z</time>
      </trkpt>
      <trkpt lat="14.43917" lon="-60.87921">
        <ele>10</ele>
        <time>2016-06-05T11:39:09.931Z</time>
      </trkpt>
      <trkpt lat="14.43917" lon="-60.87923">
        <ele>10</ele>
        <time>2016-06-05T11:39:11.930Z</time>
      </trkpt>
      <trkpt lat="14.43917" lon="-60.87925">
        <ele>10</ele>
        <time>2016-06-05T11:39:12.929Z</time>
      </trkpt>
      <trkpt lat="14.43916" lon="-60.87927">
        <ele>10</ele>
        <time>2016-06-05T11:39:13.930Z</time>
      </trkpt>
      <trkpt lat="14.43916" lon="-60.87928">
        <ele>11</ele>
        <time>2016-06-05T11:39:15.931Z</time>
      </trkpt>
      <trkpt lat="14.43915" lon="-60.8793">
        <ele>10</ele>
        <time>2016-06-05T11:39:17.931Z</time>
      </trkpt>
      <trkpt lat="14.43915" lon="-60.8793">
        <ele>10</ele>
        <time>2016-06-05T11:40:35.953Z</time>
      </trkpt>
      <trkpt lat="14.43913" lon="-60.87937">
        <ele>12</ele>
        <time>2016-06-05T11:41:07.930Z</time>
      </trkpt>
      <trkpt lat="14.43913" lon="-60.87941">
        <ele>13</ele>
        <time>2016-06-05T11:41:11.926Z</time>
      </trkpt>
      <trkpt lat="14.43913" lon="-60.87943">
        <ele>12</ele>
        <time>2016-06-05T11:41:12.929Z</time>
      </trkpt>
      <trkpt lat="14.43913" lon="-60.87944">
        <ele>12</ele>
        <time>2016-06-05T11:41:13.928Z</time>
      </trkpt>
      <trkpt lat="14.43914" lon="-60.87946">
        <ele>12</ele>
        <time>2016-06-05T11:41:14.929Z</time>
      </trkpt>
      <trkpt lat="14.43913" lon="-60.87948">
        <ele>11</ele>
        <time>2016-06-05T11:41:15.928Z</time>
      </trkpt>
      <trkpt lat="14.43913" lon="-60.87951">
        <ele>10</ele>
        <time>2016-06-05T11:41:17.930Z</time>
      </trkpt>
      <trkpt lat="14.43913" lon="-60.87953">
        <ele>10</ele>
        <time>2016-06-05T11:41:18.928Z</time>
      </trkpt>
      <trkpt lat="14.43913" lon="-60.87956">
        <ele>10</ele>
        <time>2016-06-05T11:41:20.932Z</time>
      </trkpt>
      <trkpt lat="14.43913" lon="-60.87958">
        <ele>10</ele>
        <time>2016-06-05T11:41:21.928Z</time>
      </trkpt>
      <trkpt lat="14.43913" lon="-60.8796">
        <ele>10</ele>
        <time>2016-06-05T11:41:22.930Z</time>
      </trkpt>
      <trkpt lat="14.43915" lon="-60.87963">
        <ele>9</ele>
        <time>2016-06-05T11:41:23.932Z</time>
      </trkpt>
      <trkpt lat="14.43916" lon="-60.87964">
        <ele>9</ele>
        <time>2016-06-05T11:41:24.932Z</time>
      </trkpt>
      <trkpt lat="14.43918" lon="-60.87965">
        <ele>9</ele>
        <time>2016-06-05T11:41:25.931Z</time>
      </trkpt>
      <trkpt lat="14.43921" lon="-60.87966">
        <ele>9</ele>
        <time>2016-06-05T11:41:26.932Z</time>
      </trkpt>
      <trkpt lat="14.43923" lon="-60.87968">
        <ele>9</ele>
        <time>2016-06-05T11:41:27.932Z</time>
      </trkpt>
      <trkpt lat="14.43926" lon="-60.87968">
        <ele>9</ele>
        <time>2016-06-05T11:41:28.931Z</time>
      </trkpt>
      <trkpt lat="14.43928" lon="-60.87969">
        <ele>8</ele>
        <time>2016-06-05T11:41:29.928Z</time>
      </trkpt>
      <trkpt lat="14.43931" lon="-60.8797">
        <ele>8</ele>
        <time>2016-06-05T11:41:30.929Z</time>
      </trkpt>
      <trkpt lat="14.43933" lon="-60.87972">
        <ele>7</ele>
        <time>2016-06-05T11:41:31.929Z</time>
      </trkpt>
      <trkpt lat="14.43935" lon="-60.87972">
        <ele>7</ele>
        <time>2016-06-05T11:41:32.930Z</time>
      </trkpt>
      <trkpt lat="14.43937" lon="-60.87973">
        <ele>8</ele>
        <time>2016-06-05T11:41:33.930Z</time>
      </trkpt>
      <trkpt lat="14.43939" lon="-60.87973">
        <ele>8</ele>
        <time>2016-06-05T11:41:34.930Z</time>
      </trkpt>
      <trkpt lat="14.43942" lon="-60.87974">
        <ele>8</ele>
        <time>2016-06-05T11:41:35.928Z</time>
      </trkpt>
      <trkpt lat="14.43945" lon="-60.87975">
        <ele>8</ele>
        <time>2016-06-05T11:41:36.931Z</time>
      </trkpt>
      <trkpt lat="14.43947" lon="-60.87976">
        <ele>8</ele>
        <time>2016-06-05T11:41:37.931Z</time>
      </trkpt>
      <trkpt lat="14.4395" lon="-60.87975">
        <ele>8</ele>
        <time>2016-06-05T11:41:38.929Z</time>
      </trkpt>
      <trkpt lat="14.43952" lon="-60.87975">
        <ele>8</ele>
        <time>2016-06-05T11:41:39.930Z</time>
      </trkpt>
      <trkpt lat="14.43954" lon="-60.87975">
        <ele>8</ele>
        <time>2016-06-05T11:41:40.932Z</time>
      </trkpt>
      <trkpt lat="14.43957" lon="-60.87976">
        <ele>8</ele>
        <time>2016-06-05T11:41:41.928Z</time>
      </trkpt>
      <trkpt lat="14.4396" lon="-60.87976">
        <ele>8</ele>
        <time>2016-06-05T11:41:42.928Z</time>
      </trkpt>
      <trkpt lat="14.43963" lon="-60.87976">
        <ele>8</ele>
        <time>2016-06-05T11:41:43.932Z</time>
      </trkpt>
      <trkpt lat="14.43966" lon="-60.87976">
        <ele>7</ele>
        <time>2016-06-05T11:41:44.933Z</time>
      </trkpt>
      <trkpt lat="14.43968" lon="-60.87976">
        <ele>8</ele>
        <time>2016-06-05T11:41:45.927Z</time>
      </trkpt>
      <trkpt lat="14.43971" lon="-60.87976">
        <ele>7</ele>
        <time>2016-06-05T11:41:46.931Z</time>
      </trkpt>
      <trkpt lat="14.43974" lon="-60.87977">
        <ele>6</ele>
        <time>2016-06-05T11:41:47.936Z</time>
      </trkpt>
      <trkpt lat="14.43976" lon="-60.87977">
        <ele>6</ele>
        <time>2016-06-05T11:41:48.930Z</time>
      </trkpt>
      <trkpt lat="14.43978" lon="-60.87977">
        <ele>5</ele>
        <time>2016-06-05T11:41:49.930Z</time>
      </trkpt>
      <trkpt lat="14.43981" lon="-60.87978">
        <ele>5</ele>
        <time>2016-06-05T11:41:50.931Z</time>
      </trkpt>
      <trkpt lat="14.43984" lon="-60.87978">
        <ele>5</ele>
        <time>2016-06-05T11:41:51.928Z</time>
      </trkpt>
      <trkpt lat="14.43986" lon="-60.87979">
        <ele>5</ele>
        <time>2016-06-05T11:41:52.929Z</time>
      </trkpt>
      <trkpt lat="14.43989" lon="-60.87979">
        <ele>5</ele>
        <time>2016-06-05T11:41:53.927Z</time>
      </trkpt>
      <trkpt lat="14.43992" lon="-60.87979">
        <ele>5</ele>
        <time>2016-06-05T11:41:54.929Z</time>
      </trkpt>
      <trkpt lat="14.43995" lon="-60.8798">
        <ele>5</ele>
        <time>2016-06-05T11:41:55.931Z</time>
      </trkpt>
      <trkpt lat="14.43997" lon="-60.8798">
        <ele>5</ele>
        <time>2016-06-05T11:41:56.928Z</time>
      </trkpt>
      <trkpt lat="14.44" lon="-60.8798">
        <ele>5</ele>
        <time>2016-06-05T11:41:57.929Z</time>
      </trkpt>
      <trkpt lat="14.44003" lon="-60.8798">
        <ele>5</ele>
        <time>2016-06-05T11:41:58.928Z</time>
      </trkpt>
      <trkpt lat="14.44005" lon="-60.8798">
        <ele>5</ele>
        <time>2016-06-05T11:41:59.927Z</time>
      </trkpt>
      <trkpt lat="14.44008" lon="-60.87981">
        <ele>5</ele>
        <time>2016-06-05T11:42:00.927Z</time>
      </trkpt>
      <trkpt lat="14.44011" lon="-60.87982">
        <ele>5</ele>
        <time>2016-06-05T11:42:01.928Z</time>
      </trkpt>
      <trkpt lat="14.44014" lon="-60.87982">
        <ele>5</ele>
        <time>2016-06-05T11:42:02.931Z</time>
      </trkpt>
      <trkpt lat="14.44016" lon="-60.87982">
        <ele>5</ele>
        <time>2016-06-05T11:42:03.924Z</time>
      </trkpt>
      <trkpt lat="14.44019" lon="-60.87982">
        <ele>6</ele>
        <time>2016-06-05T11:42:04.922Z</time>
      </trkpt>
      <trkpt lat="14.44022" lon="-60.87983">
        <ele>6</ele>
        <time>2016-06-05T11:42:05.922Z</time>
      </trkpt>
      <trkpt lat="14.44025" lon="-60.87982">
        <ele>6</ele>
        <time>2016-06-05T11:42:06.925Z</time>
      </trkpt>
      <trkpt lat="14.44028" lon="-60.87982">
        <ele>6</ele>
        <time>2016-06-05T11:42:07.923Z</time>
      </trkpt>
      <trkpt lat="14.44031" lon="-60.87983">
        <ele>6</ele>
        <time>2016-06-05T11:42:08.926Z</time>
      </trkpt>
      <trkpt lat="14.44033" lon="-60.87983">
        <ele>6</ele>
        <time>2016-06-05T11:42:09.928Z</time>
      </trkpt>
      <trkpt lat="14.44036" lon="-60.87982">
        <ele>6</ele>
        <time>2016-06-05T11:42:10.930Z</time>
      </trkpt>
      <trkpt lat="14.44039" lon="-60.87983">
        <ele>5</ele>
        <time>2016-06-05T11:42:11.932Z</time>
      </trkpt>
      <trkpt lat="14.44042" lon="-60.87984">
        <ele>6</ele>
        <time>2016-06-05T11:42:12.933Z</time>
      </trkpt>
      <trkpt lat="14.44044" lon="-60.87984">
        <ele>6</ele>
        <time>2016-06-05T11:42:13.932Z</time>
      </trkpt>
      <trkpt lat="14.44047" lon="-60.87984">
        <ele>7</ele>
        <time>2016-06-05T11:42:14.930Z</time>
      </trkpt>
      <trkpt lat="14.4405" lon="-60.87984">
        <ele>7</ele>
        <time>2016-06-05T11:42:15.931Z</time>
      </trkpt>
      <trkpt lat="14.44052" lon="-60.87985">
        <ele>7</ele>
        <time>2016-06-05T11:42:16.931Z</time>
      </trkpt>
      <trkpt lat="14.44054" lon="-60.87986">
        <ele>8</ele>
        <time>2016-06-05T11:42:17.930Z</time>
      </trkpt>
      <trkpt lat="14.44057" lon="-60.87987">
        <ele>8</ele>
        <time>2016-06-05T11:42:18.929Z</time>
      </trkpt>
      <trkpt lat="14.4406" lon="-60.87988">
        <ele>8</ele>
        <time>2016-06-05T11:42:19.929Z</time>
      </trkpt>
      <trkpt lat="14.44062" lon="-60.87988">
        <ele>7</ele>
        <time>2016-06-05T11:42:20.933Z</time>
      </trkpt>
      <trkpt lat="14.44065" lon="-60.87989">
        <ele>7</ele>
        <time>2016-06-05T11:42:21.932Z</time>
      </trkpt>
      <trkpt lat="14.44068" lon="-60.8799">
        <ele>7</ele>
        <time>2016-06-05T11:42:22.931Z</time>
      </trkpt>
      <trkpt lat="14.4407" lon="-60.87992">
        <ele>7</ele>
        <time>2016-06-05T11:42:23.930Z</time>
      </trkpt>
      <trkpt lat="14.44072" lon="-60.87993">
        <ele>7</ele>
        <time>2016-06-05T11:42:24.931Z</time>
      </trkpt>
      <trkpt lat="14.44074" lon="-60.87994">
        <ele>7</ele>
        <time>2016-06-05T11:42:25.930Z</time>
      </trkpt>
      <trkpt lat="14.44077" lon="-60.87995">
        <ele>7</ele>
        <time>2016-06-05T11:42:26.931Z</time>
      </trkpt>
      <trkpt lat="14.44079" lon="-60.87996">
        <ele>7</ele>
        <time>2016-06-05T11:42:27.931Z</time>
      </trkpt>
      <trkpt lat="14.44081" lon="-60.87997">
        <ele>8</ele>
        <time>2016-06-05T11:42:28.930Z</time>
      </trkpt>
      <trkpt lat="14.44084" lon="-60.87998">
        <ele>8</ele>
        <time>2016-06-05T11:42:29.928Z</time>
      </trkpt>
      <trkpt lat="14.44086" lon="-60.87999">
        <ele>7</ele>
        <time>2016-06-05T11:42:30.929Z</time>
      </trkpt>
      <trkpt lat="14.44088" lon="-60.88">
        <ele>8</ele>
        <time>2016-06-05T11:42:31.929Z</time>
      </trkpt>
      <trkpt lat="14.44091" lon="-60.88001">
        <ele>8</ele>
        <time>2016-06-05T11:42:32.928Z</time>
      </trkpt>
      <trkpt lat="14.44093" lon="-60.88002">
        <ele>7</ele>
        <time>2016-06-05T11:42:33.931Z</time>
      </trkpt>
      <trkpt lat="14.44095" lon="-60.88003">
        <ele>8</ele>
        <time>2016-06-05T11:42:34.929Z</time>
      </trkpt>
      <trkpt lat="14.44098" lon="-60.88004">
        <ele>7</ele>
        <time>2016-06-05T11:42:35.930Z</time>
      </trkpt>
      <trkpt lat="14.441" lon="-60.88005">
        <ele>7</ele>
        <time>2016-06-05T11:42:36.928Z</time>
      </trkpt>
      <trkpt lat="14.44103" lon="-60.88007">
        <ele>6</ele>
        <time>2016-06-05T11:42:37.930Z</time>
      </trkpt>
      <trkpt lat="14.44105" lon="-60.88008">
        <ele>7</ele>
        <time>2016-06-05T11:42:38.928Z</time>
      </trkpt>
      <trkpt lat="14.44107" lon="-60.88009">
        <ele>7</ele>
        <time>2016-06-05T11:42:39.929Z</time>
      </trkpt>
      <trkpt lat="14.4411" lon="-60.88011">
        <ele>6</ele>
        <time>2016-06-05T11:42:40.927Z</time>
      </trkpt>
      <trkpt lat="14.44112" lon="-60.88012">
        <ele>6</ele>
        <time>2016-06-05T11:42:41.929Z</time>
      </trkpt>
      <trkpt lat="14.44114" lon="-60.88013">
        <ele>6</ele>
        <time>2016-06-05T11:42:42.930Z</time>
      </trkpt>
      <trkpt lat="14.44117" lon="-60.88015">
        <ele>6</ele>
        <time>2016-06-05T11:42:43.929Z</time>
      </trkpt>
      <trkpt lat="14.4412" lon="-60.88016">
        <ele>6</ele>
        <time>2016-06-05T11:42:44.930Z</time>
      </trkpt>
      <trkpt lat="14.44122" lon="-60.88017">
        <ele>6</ele>
        <time>2016-06-05T11:42:45.930Z</time>
      </trkpt>
      <trkpt lat="14.44125" lon="-60.88018">
        <ele>7</ele>
        <time>2016-06-05T11:42:46.928Z</time>
      </trkpt>
      <trkpt lat="14.44128" lon="-60.88018">
        <ele>7</ele>
        <time>2016-06-05T11:42:47.929Z</time>
      </trkpt>
      <trkpt lat="14.4413" lon="-60.88019">
        <ele>7</ele>
        <time>2016-06-05T11:42:48.928Z</time>
      </trkpt>
      <trkpt lat="14.44133" lon="-60.8802">
        <ele>8</ele>
        <time>2016-06-05T11:42:49.928Z</time>
      </trkpt>
      <trkpt lat="14.44136" lon="-60.88021">
        <ele>8</ele>
        <time>2016-06-05T11:42:50.929Z</time>
      </trkpt>
      <trkpt lat="14.44139" lon="-60.88022">
        <ele>8</ele>
        <time>2016-06-05T11:42:51.929Z</time>
      </trkpt>
      <trkpt lat="14.44141" lon="-60.88022">
        <ele>8</ele>
        <time>2016-06-05T11:42:52.929Z</time>
      </trkpt>
      <trkpt lat="14.44144" lon="-60.88023">
        <ele>8</ele>
        <time>2016-06-05T11:42:53.929Z</time>
      </trkpt>
      <trkpt lat="14.44147" lon="-60.88024">
        <ele>9</ele>
        <time>2016-06-05T11:42:54.930Z</time>
      </trkpt>
      <trkpt lat="14.44149" lon="-60.88025">
        <ele>9</ele>
        <time>2016-06-05T11:42:55.928Z</time>
      </trkpt>
      <trkpt lat="14.44152" lon="-60.88026">
        <ele>8</ele>
        <time>2016-06-05T11:42:56.928Z</time>
      </trkpt>
      <trkpt lat="14.44154" lon="-60.88027">
        <ele>8</ele>
        <time>2016-06-05T11:42:57.931Z</time>
      </trkpt>
      <trkpt lat="14.44157" lon="-60.88027">
        <ele>8</ele>
        <time>2016-06-05T11:42:58.931Z</time>
      </trkpt>
      <trkpt lat="14.44159" lon="-60.88028">
        <ele>8</ele>
        <time>2016-06-05T11:42:59.930Z</time>
      </trkpt>
      <trkpt lat="14.44163" lon="-60.88029">
        <ele>7</ele>
        <time>2016-06-05T11:43:00.931Z</time>
      </trkpt>
      <trkpt lat="14.44165" lon="-60.8803">
        <ele>7</ele>
        <time>2016-06-05T11:43:01.931Z</time>
      </trkpt>
      <trkpt lat="14.44168" lon="-60.88031">
        <ele>6</ele>
        <time>2016-06-05T11:43:02.933Z</time>
      </trkpt>
      <trkpt lat="14.44171" lon="-60.88032">
        <ele>6</ele>
        <time>2016-06-05T11:43:03.931Z</time>
      </trkpt>
      <trkpt lat="14.44174" lon="-60.88032">
        <ele>6</ele>
        <time>2016-06-05T11:43:04.931Z</time>
      </trkpt>
      <trkpt lat="14.44176" lon="-60.88034">
        <ele>7</ele>
        <time>2016-06-05T11:43:05.931Z</time>
      </trkpt>
      <trkpt lat="14.44179" lon="-60.88035">
        <ele>8</ele>
        <time>2016-06-05T11:43:06.931Z</time>
      </trkpt>
      <trkpt lat="14.44182" lon="-60.88035">
        <ele>8</ele>
        <time>2016-06-05T11:43:07.930Z</time>
      </trkpt>
      <trkpt lat="14.44184" lon="-60.88036">
        <ele>8</ele>
        <time>2016-06-05T11:43:08.931Z</time>
      </trkpt>
      <trkpt lat="14.44187" lon="-60.88037">
        <ele>8</ele>
        <time>2016-06-05T11:43:09.928Z</time>
      </trkpt>
      <trkpt lat="14.4419" lon="-60.88037">
        <ele>8</ele>
        <time>2016-06-05T11:43:10.930Z</time>
      </trkpt>
      <trkpt lat="14.44192" lon="-60.88038">
        <ele>8</ele>
        <time>2016-06-05T11:43:11.930Z</time>
      </trkpt>
      <trkpt lat="14.44194" lon="-60.88038">
        <ele>7</ele>
        <time>2016-06-05T11:43:12.932Z</time>
      </trkpt>
      <trkpt lat="14.44197" lon="-60.88039">
        <ele>7</ele>
        <time>2016-06-05T11:43:13.930Z</time>
      </trkpt>
      <trkpt lat="14.44199" lon="-60.8804">
        <ele>6</ele>
        <time>2016-06-05T11:43:14.932Z</time>
      </trkpt>
      <trkpt lat="14.44202" lon="-60.88041">
        <ele>6</ele>
        <time>2016-06-05T11:43:15.934Z</time>
      </trkpt>
      <trkpt lat="14.44205" lon="-60.8804">
        <ele>6</ele>
        <time>2016-06-05T11:43:16.933Z</time>
      </trkpt>
      <trkpt lat="14.44208" lon="-60.88041">
        <ele>7</ele>
        <time>2016-06-05T11:43:17.930Z</time>
      </trkpt>
      <trkpt lat="14.4421" lon="-60.8804">
        <ele>8</ele>
        <time>2016-06-05T11:43:18.930Z</time>
      </trkpt>
      <trkpt lat="14.44213" lon="-60.8804">
        <ele>7</ele>
        <time>2016-06-05T11:43:19.929Z</time>
      </trkpt>
      <trkpt lat="14.44215" lon="-60.8804">
        <ele>8</ele>
        <time>2016-06-05T11:43:20.929Z</time>
      </trkpt>
      <trkpt lat="14.44218" lon="-60.8804">
        <ele>9</ele>
        <time>2016-06-05T11:43:21.929Z</time>
      </trkpt>
      <trkpt lat="14.44221" lon="-60.88041">
        <ele>9</ele>
        <time>2016-06-05T11:43:22.929Z</time>
      </trkpt>
      <trkpt lat="14.44223" lon="-60.88041">
        <ele>9</ele>
        <time>2016-06-05T11:43:23.933Z</time>
      </trkpt>
      <trkpt lat="14.44226" lon="-60.8804">
        <ele>8</ele>
        <time>2016-06-05T11:43:24.934Z</time>
      </trkpt>
      <trkpt lat="14.44229" lon="-60.8804">
        <ele>9</ele>
        <time>2016-06-05T11:43:25.931Z</time>
      </trkpt>
      <trkpt lat="14.44231" lon="-60.8804">
        <ele>9</ele>
        <time>2016-06-05T11:43:26.928Z</time>
      </trkpt>
      <trkpt lat="14.44234" lon="-60.8804">
        <ele>9</ele>
        <time>2016-06-05T11:43:27.928Z</time>
      </trkpt>
      <trkpt lat="14.44236" lon="-60.8804">
        <ele>9</ele>
        <time>2016-06-05T11:43:28.930Z</time>
      </trkpt>
      <trkpt lat="14.44239" lon="-60.88041">
        <ele>9</ele>
        <time>2016-06-05T11:43:29.929Z</time>
      </trkpt>
      <trkpt lat="14.44241" lon="-60.88041">
        <ele>8</ele>
        <time>2016-06-05T11:43:30.932Z</time>
      </trkpt>
      <trkpt lat="14.44244" lon="-60.88041">
        <ele>8</ele>
        <time>2016-06-05T11:43:31.930Z</time>
      </trkpt>
      <trkpt lat="14.44247" lon="-60.88042">
        <ele>7</ele>
        <time>2016-06-05T11:43:32.932Z</time>
      </trkpt>
      <trkpt lat="14.44249" lon="-60.88042">
        <ele>7</ele>
        <time>2016-06-05T11:43:33.930Z</time>
      </trkpt>
      <trkpt lat="14.44252" lon="-60.88042">
        <ele>7</ele>
        <time>2016-06-05T11:43:34.927Z</time>
      </trkpt>
      <trkpt lat="14.44255" lon="-60.88043">
        <ele>8</ele>
        <time>2016-06-05T11:43:35.927Z</time>
      </trkpt>
      <trkpt lat="14.44257" lon="-60.88043">
        <ele>8</ele>
        <time>2016-06-05T11:43:36.929Z</time>
      </trkpt>
      <trkpt lat="14.44259" lon="-60.88043">
        <ele>8</ele>
        <time>2016-06-05T11:43:37.930Z</time>
      </trkpt>
      <trkpt lat="14.44262" lon="-60.88043">
        <ele>9</ele>
        <time>2016-06-05T11:43:38.930Z</time>
      </trkpt>
      <trkpt lat="14.44265" lon="-60.88043">
        <ele>9</ele>
        <time>2016-06-05T11:43:39.928Z</time>
      </trkpt>
      <trkpt lat="14.44267" lon="-60.88043">
        <ele>8</ele>
        <time>2016-06-05T11:43:40.929Z</time>
      </trkpt>
      <trkpt lat="14.4427" lon="-60.88043">
        <ele>8</ele>
        <time>2016-06-05T11:43:41.928Z</time>
      </trkpt>
      <trkpt lat="14.44272" lon="-60.88044">
        <ele>9</ele>
        <time>2016-06-05T11:43:42.929Z</time>
      </trkpt>
      <trkpt lat="14.44274" lon="-60.88044">
        <ele>9</ele>
        <time>2016-06-05T11:43:43.930Z</time>
      </trkpt>
      <trkpt lat="14.44276" lon="-60.88044">
        <ele>9</ele>
        <time>2016-06-05T11:43:44.929Z</time>
      </trkpt>
      <trkpt lat="14.44278" lon="-60.88044">
        <ele>9</ele>
        <time>2016-06-05T11:43:45.928Z</time>
      </trkpt>
      <trkpt lat="14.44281" lon="-60.88044">
        <ele>9</ele>
        <time>2016-06-05T11:43:46.931Z</time>
      </trkpt>
      <trkpt lat="14.44284" lon="-60.88045">
        <ele>9</ele>
        <time>2016-06-05T11:43:47.928Z</time>
      </trkpt>
      <trkpt lat="14.44286" lon="-60.88044">
        <ele>9</ele>
        <time>2016-06-05T11:43:48.928Z</time>
      </trkpt>
      <trkpt lat="14.44288" lon="-60.88045">
        <ele>9</ele>
        <time>2016-06-05T11:43:49.928Z</time>
      </trkpt>
      <trkpt lat="14.44291" lon="-60.88045">
        <ele>9</ele>
        <time>2016-06-05T11:43:50.928Z</time>
      </trkpt>
      <trkpt lat="14.44293" lon="-60.88046">
        <ele>9</ele>
        <time>2016-06-05T11:43:51.927Z</time>
      </trkpt>
      <trkpt lat="14.44296" lon="-60.88046">
        <ele>10</ele>
        <time>2016-06-05T11:43:52.928Z</time>
      </trkpt>
      <trkpt lat="14.44298" lon="-60.88046">
        <ele>9</ele>
        <time>2016-06-05T11:43:53.928Z</time>
      </trkpt>
      <trkpt lat="14.443" lon="-60.88047">
        <ele>9</ele>
        <time>2016-06-05T11:43:54.928Z</time>
      </trkpt>
      <trkpt lat="14.44303" lon="-60.88047">
        <ele>9</ele>
        <time>2016-06-05T11:43:55.928Z</time>
      </trkpt>
      <trkpt lat="14.44305" lon="-60.88049">
        <ele>9</ele>
        <time>2016-06-05T11:43:56.926Z</time>
      </trkpt>
      <trkpt lat="14.44307" lon="-60.88049">
        <ele>9</ele>
        <time>2016-06-05T11:43:57.930Z</time>
      </trkpt>
      <trkpt lat="14.44309" lon="-60.8805">
        <ele>8</ele>
        <time>2016-06-05T11:43:58.931Z</time>
      </trkpt>
      <trkpt lat="14.44311" lon="-60.88051">
        <ele>8</ele>
        <time>2016-06-05T11:43:59.928Z</time>
      </trkpt>
      <trkpt lat="14.44314" lon="-60.88051">
        <ele>8</ele>
        <time>2016-06-05T11:44:00.928Z</time>
      </trkpt>
      <trkpt lat="14.44316" lon="-60.88052">
        <ele>8</ele>
        <time>2016-06-05T11:44:01.929Z</time>
      </trkpt>
      <trkpt lat="14.44319" lon="-60.88053">
        <ele>8</ele>
        <time>2016-06-05T11:44:02.930Z</time>
      </trkpt>
      <trkpt lat="14.44321" lon="-60.88054">
        <ele>8</ele>
        <time>2016-06-05T11:44:03.929Z</time>
      </trkpt>
      <trkpt lat="14.44324" lon="-60.88055">
        <ele>8</ele>
        <time>2016-06-05T11:44:04.929Z</time>
      </trkpt>
      <trkpt lat="14.44326" lon="-60.88055">
        <ele>8</ele>
        <time>2016-06-05T11:44:05.931Z</time>
      </trkpt>
      <trkpt lat="14.44328" lon="-60.88057">
        <ele>8</ele>
        <time>2016-06-05T11:44:06.930Z</time>
      </trkpt>
      <trkpt lat="14.4433" lon="-60.88057">
        <ele>8</ele>
        <time>2016-06-05T11:44:07.931Z</time>
      </trkpt>
      <trkpt lat="14.44332" lon="-60.88058">
        <ele>8</ele>
        <time>2016-06-05T11:44:08.929Z</time>
      </trkpt>
      <trkpt lat="14.44334" lon="-60.88059">
        <ele>8</ele>
        <time>2016-06-05T11:44:09.928Z</time>
      </trkpt>
      <trkpt lat="14.44336" lon="-60.8806">
        <ele>8</ele>
        <time>2016-06-05T11:44:10.930Z</time>
      </trkpt>
      <trkpt lat="14.44338" lon="-60.8806">
        <ele>8</ele>
        <time>2016-06-05T11:44:11.930Z</time>
      </trkpt>
      <trkpt lat="14.4434" lon="-60.88061">
        <ele>8</ele>
        <time>2016-06-05T11:44:12.931Z</time>
      </trkpt>
      <trkpt lat="14.44343" lon="-60.88063">
        <ele>8</ele>
        <time>2016-06-05T11:44:13.925Z</time>
      </trkpt>
      <trkpt lat="14.44345" lon="-60.88064">
        <ele>8</ele>
        <time>2016-06-05T11:44:14.925Z</time>
      </trkpt>
      <trkpt lat="14.44348" lon="-60.88065">
        <ele>7</ele>
        <time>2016-06-05T11:44:15.924Z</time>
      </trkpt>
      <trkpt lat="14.4435" lon="-60.88066">
        <ele>4</ele>
        <time>2016-06-05T11:44:16.927Z</time>
      </trkpt>
      <trkpt lat="14.44352" lon="-60.88066">
        <ele>4</ele>
        <time>2016-06-05T11:44:17.929Z</time>
      </trkpt>
      <trkpt lat="14.44353" lon="-60.88067">
        <ele>4</ele>
        <time>2016-06-05T11:44:18.930Z</time>
      </trkpt>
      <trkpt lat="14.44354" lon="-60.88067">
        <ele>5</ele>
        <time>2016-06-05T11:44:19.930Z</time>
      </trkpt>
      <trkpt lat="14.44356" lon="-60.88067">
        <ele>5</ele>
        <time>2016-06-05T11:44:20.931Z</time>
      </trkpt>
      <trkpt lat="14.44358" lon="-60.88068">
        <ele>5</ele>
        <time>2016-06-05T11:44:21.931Z</time>
      </trkpt>
      <trkpt lat="14.4436" lon="-60.88069">
        <ele>5</ele>
        <time>2016-06-05T11:44:22.932Z</time>
      </trkpt>
      <trkpt lat="14.44361" lon="-60.8807">
        <ele>5</ele>
        <time>2016-06-05T11:44:23.931Z</time>
      </trkpt>
      <trkpt lat="14.44364" lon="-60.8807">
        <ele>5</ele>
        <time>2016-06-05T11:44:25.928Z</time>
      </trkpt>
      <trkpt lat="14.44365" lon="-60.88071">
        <ele>5</ele>
        <time>2016-06-05T11:44:26.927Z</time>
      </trkpt>
      <trkpt lat="14.44367" lon="-60.88072">
        <ele>5</ele>
        <time>2016-06-05T11:44:27.929Z</time>
      </trkpt>
      <trkpt lat="14.44369" lon="-60.88074">
        <ele>6</ele>
        <time>2016-06-05T11:44:28.929Z</time>
      </trkpt>
      <trkpt lat="14.44371" lon="-60.88075">
        <ele>6</ele>
        <time>2016-06-05T11:44:29.932Z</time>
      </trkpt>
      <trkpt lat="14.44374" lon="-60.88076">
        <ele>5</ele>
        <time>2016-06-05T11:44:30.930Z</time>
      </trkpt>
      <trkpt lat="14.44376" lon="-60.88077">
        <ele>5</ele>
        <time>2016-06-05T11:44:31.931Z</time>
      </trkpt>
      <trkpt lat="14.44378" lon="-60.88079">
        <ele>5</ele>
        <time>2016-06-05T11:44:32.930Z</time>
      </trkpt>
      <trkpt lat="14.4438" lon="-60.8808">
        <ele>5</ele>
        <time>2016-06-05T11:44:33.930Z</time>
      </trkpt>
      <trkpt lat="14.44383" lon="-60.88082">
        <ele>5</ele>
        <time>2016-06-05T11:44:34.928Z</time>
      </trkpt>
      <trkpt lat="14.44385" lon="-60.88083">
        <ele>5</ele>
        <time>2016-06-05T11:44:35.927Z</time>
      </trkpt>
      <trkpt lat="14.44388" lon="-60.88084">
        <ele>5</ele>
        <time>2016-06-05T11:44:36.929Z</time>
      </trkpt>
      <trkpt lat="14.44391" lon="-60.88086">
        <ele>6</ele>
        <time>2016-06-05T11:44:37.928Z</time>
      </trkpt>
      <trkpt lat="14.44393" lon="-60.88088">
        <ele>6</ele>
        <time>2016-06-05T11:44:38.927Z</time>
      </trkpt>
      <trkpt lat="14.44396" lon="-60.8809">
        <ele>6</ele>
        <time>2016-06-05T11:44:39.928Z</time>
      </trkpt>
      <trkpt lat="14.44399" lon="-60.88091">
        <ele>6</ele>
        <time>2016-06-05T11:44:40.929Z</time>
      </trkpt>
      <trkpt lat="14.44401" lon="-60.88093">
        <ele>5</ele>
        <time>2016-06-05T11:44:41.930Z</time>
      </trkpt>
      <trkpt lat="14.44404" lon="-60.88094">
        <ele>5</ele>
        <time>2016-06-05T11:44:42.930Z</time>
      </trkpt>
      <trkpt lat="14.44406" lon="-60.88096">
        <ele>4</ele>
        <time>2016-06-05T11:44:43.930Z</time>
      </trkpt>
      <trkpt lat="14.44409" lon="-60.88097">
        <ele>4</ele>
        <time>2016-06-05T11:44:44.932Z</time>
      </trkpt>
      <trkpt lat="14.44413" lon="-60.88097">
        <ele>4</ele>
        <time>2016-06-05T11:44:45.929Z</time>
      </trkpt>
      <trkpt lat="14.44415" lon="-60.88096">
        <ele>3</ele>
        <time>2016-06-05T11:44:46.930Z</time>
      </trkpt>
      <trkpt lat="14.44417" lon="-60.88094">
        <ele>5</ele>
        <time>2016-06-05T11:44:47.932Z</time>
      </trkpt>
      <trkpt lat="14.44421" lon="-60.88093">
        <ele>4</ele>
        <time>2016-06-05T11:44:48.930Z</time>
      </trkpt>
      <trkpt lat="14.44424" lon="-60.88093">
        <ele>5</ele>
        <time>2016-06-05T11:44:49.930Z</time>
      </trkpt>
      <trkpt lat="14.44426" lon="-60.88092">
        <ele>4</ele>
        <time>2016-06-05T11:44:50.928Z</time>
      </trkpt>
      <trkpt lat="14.44429" lon="-60.88091">
        <ele>4</ele>
        <time>2016-06-05T11:44:51.928Z</time>
      </trkpt>
      <trkpt lat="14.44431" lon="-60.8809">
        <ele>4</ele>
        <time>2016-06-05T11:44:52.929Z</time>
      </trkpt>
      <trkpt lat="14.44434" lon="-60.88089">
        <ele>5</ele>
        <time>2016-06-05T11:44:53.929Z</time>
      </trkpt>
      <trkpt lat="14.44437" lon="-60.88087">
        <ele>5</ele>
        <time>2016-06-05T11:44:54.928Z</time>
      </trkpt>
      <trkpt lat="14.4444" lon="-60.88086">
        <ele>5</ele>
        <time>2016-06-05T11:44:55.928Z</time>
      </trkpt>
      <trkpt lat="14.44443" lon="-60.88084">
        <ele>5</ele>
        <time>2016-06-05T11:44:56.928Z</time>
      </trkpt>
      <trkpt lat="14.44445" lon="-60.88083">
        <ele>5</ele>
        <time>2016-06-05T11:44:57.930Z</time>
      </trkpt>
      <trkpt lat="14.44448" lon="-60.88081">
        <ele>5</ele>
        <time>2016-06-05T11:44:58.930Z</time>
      </trkpt>
      <trkpt lat="14.44452" lon="-60.88081">
        <ele>5</ele>
        <time>2016-06-05T11:44:59.937Z</time>
      </trkpt>
      <trkpt lat="14.44455" lon="-60.88081">
        <ele>6</ele>
        <time>2016-06-05T11:45:00.933Z</time>
      </trkpt>
      <trkpt lat="14.44458" lon="-60.8808">
        <ele>6</ele>
        <time>2016-06-05T11:45:01.929Z</time>
      </trkpt>
      <trkpt lat="14.44461" lon="-60.8808">
        <ele>6</ele>
        <time>2016-06-05T11:45:02.930Z</time>
      </trkpt>
      <trkpt lat="14.44464" lon="-60.8808">
        <ele>6</ele>
        <time>2016-06-05T11:45:03.927Z</time>
      </trkpt>
      <trkpt lat="14.44467" lon="-60.8808">
        <ele>6</ele>
        <time>2016-06-05T11:45:04.930Z</time>
      </trkpt>
      <trkpt lat="14.44471" lon="-60.8808">
        <ele>6</ele>
        <time>2016-06-05T11:45:05.929Z</time>
      </trkpt>
      <trkpt lat="14.44474" lon="-60.88079">
        <ele>6</ele>
        <time>2016-06-05T11:45:06.929Z</time>
      </trkpt>
      <trkpt lat="14.44477" lon="-60.88078">
        <ele>6</ele>
        <time>2016-06-05T11:45:07.927Z</time>
      </trkpt>
      <trkpt lat="14.4448" lon="-60.88077">
        <ele>6</ele>
        <time>2016-06-05T11:45:08.929Z</time>
      </trkpt>
      <trkpt lat="14.44482" lon="-60.88076">
        <ele>7</ele>
        <time>2016-06-05T11:45:09.931Z</time>
      </trkpt>
      <trkpt lat="14.44485" lon="-60.88075">
        <ele>7</ele>
        <time>2016-06-05T11:45:10.931Z</time>
      </trkpt>
      <trkpt lat="14.44488" lon="-60.88073">
        <ele>7</ele>
        <time>2016-06-05T11:45:11.928Z</time>
      </trkpt>
      <trkpt lat="14.4449" lon="-60.88071">
        <ele>7</ele>
        <time>2016-06-05T11:45:12.929Z</time>
      </trkpt>
      <trkpt lat="14.44492" lon="-60.8807">
        <ele>6</ele>
        <time>2016-06-05T11:45:13.930Z</time>
      </trkpt>
      <trkpt lat="14.44495" lon="-60.88069">
        <ele>6</ele>
        <time>2016-06-05T11:45:14.928Z</time>
      </trkpt>
      <trkpt lat="14.44496" lon="-60.88067">
        <ele>5</ele>
        <time>2016-06-05T11:45:15.931Z</time>
      </trkpt>
      <trkpt lat="14.44498" lon="-60.88065">
        <ele>6</ele>
        <time>2016-06-05T11:45:16.928Z</time>
      </trkpt>
      <trkpt lat="14.445" lon="-60.88063">
        <ele>6</ele>
        <time>2016-06-05T11:45:17.929Z</time>
      </trkpt>
      <trkpt lat="14.44501" lon="-60.88061">
        <ele>6</ele>
        <time>2016-06-05T11:45:18.932Z</time>
      </trkpt>
      <trkpt lat="14.44502" lon="-60.88059">
        <ele>6</ele>
        <time>2016-06-05T11:45:19.932Z</time>
      </trkpt>
      <trkpt lat="14.44504" lon="-60.88056">
        <ele>6</ele>
        <time>2016-06-05T11:45:20.929Z</time>
      </trkpt>
      <trkpt lat="14.44505" lon="-60.88054">
        <ele>6</ele>
        <time>2016-06-05T11:45:21.929Z</time>
      </trkpt>
      <trkpt lat="14.44506" lon="-60.88053">
        <ele>6</ele>
        <time>2016-06-05T11:45:22.933Z</time>
      </trkpt>
      <trkpt lat="14.44507" lon="-60.8805">
        <ele>6</ele>
        <time>2016-06-05T11:45:23.930Z</time>
      </trkpt>
      <trkpt lat="14.44508" lon="-60.88048">
        <ele>6</ele>
        <time>2016-06-05T11:45:24.930Z</time>
      </trkpt>
      <trkpt lat="14.44509" lon="-60.88046">
        <ele>6</ele>
        <time>2016-06-05T11:45:25.929Z</time>
      </trkpt>
      <trkpt lat="14.4451" lon="-60.88044">
        <ele>6</ele>
        <time>2016-06-05T11:45:26.929Z</time>
      </trkpt>
      <trkpt lat="14.44511" lon="-60.88042">
        <ele>6</ele>
        <time>2016-06-05T11:45:27.930Z</time>
      </trkpt>
      <trkpt lat="14.44511" lon="-60.8804">
        <ele>7</ele>
        <time>2016-06-05T11:45:28.926Z</time>
      </trkpt>
      <trkpt lat="14.44512" lon="-60.88038">
        <ele>7</ele>
        <time>2016-06-05T11:45:29.928Z</time>
      </trkpt>
      <trkpt lat="14.44512" lon="-60.88036">
        <ele>7</ele>
        <time>2016-06-05T11:45:30.929Z</time>
      </trkpt>
      <trkpt lat="14.44513" lon="-60.88033">
        <ele>8</ele>
        <time>2016-06-05T11:45:31.928Z</time>
      </trkpt>
      <trkpt lat="14.44514" lon="-60.88031">
        <ele>8</ele>
        <time>2016-06-05T11:45:32.930Z</time>
      </trkpt>
      <trkpt lat="14.44514" lon="-60.88028">
        <ele>9</ele>
        <time>2016-06-05T11:45:33.929Z</time>
      </trkpt>
      <trkpt lat="14.44514" lon="-60.88025">
        <ele>10</ele>
        <time>2016-06-05T11:45:34.928Z</time>
      </trkpt>
      <trkpt lat="14.44515" lon="-60.88022">
        <ele>10</ele>
        <time>2016-06-05T11:45:35.929Z</time>
      </trkpt>
      <trkpt lat="14.44515" lon="-60.8802">
        <ele>9</ele>
        <time>2016-06-05T11:45:36.929Z</time>
      </trkpt>
      <trkpt lat="14.44515" lon="-60.88017">
        <ele>9</ele>
        <time>2016-06-05T11:45:37.930Z</time>
      </trkpt>
      <trkpt lat="14.44515" lon="-60.88015">
        <ele>10</ele>
        <time>2016-06-05T11:45:38.929Z</time>
      </trkpt>
      <trkpt lat="14.44516" lon="-60.88012">
        <ele>9</ele>
        <time>2016-06-05T11:45:39.929Z</time>
      </trkpt>
      <trkpt lat="14.44516" lon="-60.88009">
        <ele>9</ele>
        <time>2016-06-05T11:45:40.931Z</time>
      </trkpt>
      <trkpt lat="14.44516" lon="-60.88007">
        <ele>9</ele>
        <time>2016-06-05T11:45:41.930Z</time>
      </trkpt>
      <trkpt lat="14.44516" lon="-60.88004">
        <ele>9</ele>
        <time>2016-06-05T11:45:42.929Z</time>
      </trkpt>
      <trkpt lat="14.44517" lon="-60.88002">
        <ele>9</ele>
        <time>2016-06-05T11:45:43.928Z</time>
      </trkpt>
      <trkpt lat="14.44517" lon="-60.87999">
        <ele>8</ele>
        <time>2016-06-05T11:45:44.931Z</time>
      </trkpt>
      <trkpt lat="14.44517" lon="-60.87997">
        <ele>8</ele>
        <time>2016-06-05T11:45:45.932Z</time>
      </trkpt>
      <trkpt lat="14.44516" lon="-60.87994">
        <ele>7</ele>
        <time>2016-06-05T11:45:46.930Z</time>
      </trkpt>
      <trkpt lat="14.44515" lon="-60.87991">
        <ele>8</ele>
        <time>2016-06-05T11:45:47.931Z</time>
      </trkpt>
      <trkpt lat="14.44513" lon="-60.87989">
        <ele>8</ele>
        <time>2016-06-05T11:45:48.928Z</time>
      </trkpt>
      <trkpt lat="14.44511" lon="-60.87987">
        <ele>8</ele>
        <time>2016-06-05T11:45:49.929Z</time>
      </trkpt>
      <trkpt lat="14.44509" lon="-60.87985">
        <ele>8</ele>
        <time>2016-06-05T11:45:50.928Z</time>
      </trkpt>
      <trkpt lat="14.44507" lon="-60.87983">
        <ele>7</ele>
        <time>2016-06-05T11:45:51.928Z</time>
      </trkpt>
      <trkpt lat="14.44505" lon="-60.87981">
        <ele>7</ele>
        <time>2016-06-05T11:45:52.925Z</time>
      </trkpt>
      <trkpt lat="14.44503" lon="-60.87979">
        <ele>7</ele>
        <time>2016-06-05T11:45:53.924Z</time>
      </trkpt>
      <trkpt lat="14.44501" lon="-60.87976">
        <ele>5</ele>
        <time>2016-06-05T11:45:54.925Z</time>
      </trkpt>
      <trkpt lat="14.44499" lon="-60.87974">
        <ele>5</ele>
        <time>2016-06-05T11:45:55.925Z</time>
      </trkpt>
      <trkpt lat="14.44497" lon="-60.87972">
        <ele>4</ele>
        <time>2016-06-05T11:45:56.922Z</time>
      </trkpt>
      <trkpt lat="14.44495" lon="-60.87969">
        <ele>4</ele>
        <time>2016-06-05T11:45:57.922Z</time>
      </trkpt>
      <trkpt lat="14.44494" lon="-60.87966">
        <ele>4</ele>
        <time>2016-06-05T11:45:58.923Z</time>
      </trkpt>
      <trkpt lat="14.44493" lon="-60.87962">
        <ele>4</ele>
        <time>2016-06-05T11:45:59.923Z</time>
      </trkpt>
      <trkpt lat="14.44493" lon="-60.87959">
        <ele>5</ele>
        <time>2016-06-05T11:46:00.925Z</time>
      </trkpt>
      <trkpt lat="14.44494" lon="-60.87956">
        <ele>6</ele>
        <time>2016-06-05T11:46:01.926Z</time>
      </trkpt>
      <trkpt lat="14.44496" lon="-60.87952">
        <ele>6</ele>
        <time>2016-06-05T11:46:02.925Z</time>
      </trkpt>
      <trkpt lat="14.44498" lon="-60.8795">
        <ele>5</ele>
        <time>2016-06-05T11:46:03.921Z</time>
      </trkpt>
      <trkpt lat="14.445" lon="-60.87947">
        <ele>6</ele>
        <time>2016-06-05T11:46:04.925Z</time>
      </trkpt>
      <trkpt lat="14.445" lon="-60.87945">
        <ele>5</ele>
        <time>2016-06-05T11:46:05.927Z</time>
      </trkpt>
      <trkpt lat="14.44502" lon="-60.87942">
        <ele>5</ele>
        <time>2016-06-05T11:46:06.928Z</time>
      </trkpt>
      <trkpt lat="14.44503" lon="-60.8794">
        <ele>5</ele>
        <time>2016-06-05T11:46:07.930Z</time>
      </trkpt>
      <trkpt lat="14.44504" lon="-60.87937">
        <ele>5</ele>
        <time>2016-06-05T11:46:08.929Z</time>
      </trkpt>
      <trkpt lat="14.44506" lon="-60.87935">
        <ele>5</ele>
        <time>2016-06-05T11:46:09.930Z</time>
      </trkpt>
      <trkpt lat="14.44507" lon="-60.87933">
        <ele>5</ele>
        <time>2016-06-05T11:46:10.931Z</time>
      </trkpt>
      <trkpt lat="14.44508" lon="-60.87931">
        <ele>5</ele>
        <time>2016-06-05T11:46:11.930Z</time>
      </trkpt>
      <trkpt lat="14.44509" lon="-60.87928">
        <ele>6</ele>
        <time>2016-06-05T11:46:12.928Z</time>
      </trkpt>
      <trkpt lat="14.4451" lon="-60.87926">
        <ele>6</ele>
        <time>2016-06-05T11:46:13.926Z</time>
      </trkpt>
      <trkpt lat="14.44511" lon="-60.87923">
        <ele>6</ele>
        <time>2016-06-05T11:46:14.932Z</time>
      </trkpt>
      <trkpt lat="14.44512" lon="-60.87921">
        <ele>6</ele>
        <time>2016-06-05T11:46:15.930Z</time>
      </trkpt>
      <trkpt lat="14.44513" lon="-60.87919">
        <ele>6</ele>
        <time>2016-06-05T11:46:16.929Z</time>
      </trkpt>
      <trkpt lat="14.44514" lon="-60.87917">
        <ele>6</ele>
        <time>2016-06-05T11:46:17.927Z</time>
      </trkpt>
      <trkpt lat="14.44515" lon="-60.87915">
        <ele>7</ele>
        <time>2016-06-05T11:46:18.929Z</time>
      </trkpt>
      <trkpt lat="14.44516" lon="-60.87913">
        <ele>6</ele>
        <time>2016-06-05T11:46:19.930Z</time>
      </trkpt>
      <trkpt lat="14.44516" lon="-60.8791">
        <ele>6</ele>
        <time>2016-06-05T11:46:20.928Z</time>
      </trkpt>
      <trkpt lat="14.44517" lon="-60.87908">
        <ele>5</ele>
        <time>2016-06-05T11:46:21.928Z</time>
      </trkpt>
      <trkpt lat="14.44519" lon="-60.87906">
        <ele>5</ele>
        <time>2016-06-05T11:46:22.928Z</time>
      </trkpt>
      <trkpt lat="14.4452" lon="-60.87904">
        <ele>5</ele>
        <time>2016-06-05T11:46:23.929Z</time>
      </trkpt>
      <trkpt lat="14.44521" lon="-60.87902">
        <ele>6</ele>
        <time>2016-06-05T11:46:24.928Z</time>
      </trkpt>
      <trkpt lat="14.44522" lon="-60.879">
        <ele>5</ele>
        <time>2016-06-05T11:46:25.927Z</time>
      </trkpt>
      <trkpt lat="14.44522" lon="-60.87897">
        <ele>5</ele>
        <time>2016-06-05T11:46:26.929Z</time>
      </trkpt>
      <trkpt lat="14.44523" lon="-60.87895">
        <ele>5</ele>
        <time>2016-06-05T11:46:27.929Z</time>
      </trkpt>
      <trkpt lat="14.44524" lon="-60.87893">
        <ele>5</ele>
        <time>2016-06-05T11:46:28.929Z</time>
      </trkpt>
      <trkpt lat="14.44525" lon="-60.87891">
        <ele>5</ele>
        <time>2016-06-05T11:46:29.929Z</time>
      </trkpt>
      <trkpt lat="14.44526" lon="-60.87889">
        <ele>5</ele>
        <time>2016-06-05T11:46:30.930Z</time>
      </trkpt>
      <trkpt lat="14.44527" lon="-60.87886">
        <ele>6</ele>
        <time>2016-06-05T11:46:31.931Z</time>
      </trkpt>
      <trkpt lat="14.44528" lon="-60.87884">
        <ele>6</ele>
        <time>2016-06-05T11:46:32.928Z</time>
      </trkpt>
      <trkpt lat="14.44529" lon="-60.87882">
        <ele>5</ele>
        <time>2016-06-05T11:46:33.929Z</time>
      </trkpt>
      <trkpt lat="14.4453" lon="-60.8788">
        <ele>5</ele>
        <time>2016-06-05T11:46:34.928Z</time>
      </trkpt>
      <trkpt lat="14.4453" lon="-60.87877">
        <ele>5</ele>
        <time>2016-06-05T11:46:35.929Z</time>
      </trkpt>
      <trkpt lat="14.44531" lon="-60.87875">
        <ele>5</ele>
        <time>2016-06-05T11:46:36.928Z</time>
      </trkpt>
      <trkpt lat="14.44531" lon="-60.87872">
        <ele>5</ele>
        <time>2016-06-05T11:46:37.927Z</time>
      </trkpt>
      <trkpt lat="14.44532" lon="-60.8787">
        <ele>5</ele>
        <time>2016-06-05T11:46:38.927Z</time>
      </trkpt>
      <trkpt lat="14.44533" lon="-60.87867">
        <ele>5</ele>
        <time>2016-06-05T11:46:39.929Z</time>
      </trkpt>
      <trkpt lat="14.44533" lon="-60.87865">
        <ele>5</ele>
        <time>2016-06-05T11:46:40.930Z</time>
      </trkpt>
      <trkpt lat="14.44533" lon="-60.87862">
        <ele>5</ele>
        <time>2016-06-05T11:46:41.929Z</time>
      </trkpt>
      <trkpt lat="14.44533" lon="-60.87859">
        <ele>5</ele>
        <time>2016-06-05T11:46:42.930Z</time>
      </trkpt>
      <trkpt lat="14.44533" lon="-60.87856">
        <ele>5</ele>
        <time>2016-06-05T11:46:43.930Z</time>
      </trkpt>
      <trkpt lat="14.44534" lon="-60.87854">
        <ele>5</ele>
        <time>2016-06-05T11:46:44.927Z</time>
      </trkpt>
      <trkpt lat="14.44534" lon="-60.87852">
        <ele>5</ele>
        <time>2016-06-05T11:46:45.928Z</time>
      </trkpt>
      <trkpt lat="14.44534" lon="-60.87848">
        <ele>5</ele>
        <time>2016-06-05T11:46:50.930Z</time>
      </trkpt>
      <trkpt lat="14.44534" lon="-60.87847">
        <ele>5</ele>
        <time>2016-06-05T11:46:51.928Z</time>
      </trkpt>
      <trkpt lat="14.44534" lon="-60.87845">
        <ele>5</ele>
        <time>2016-06-05T11:46:52.931Z</time>
      </trkpt>
      <trkpt lat="14.44533" lon="-60.87843">
        <ele>5</ele>
        <time>2016-06-05T11:46:53.930Z</time>
      </trkpt>
      <trkpt lat="14.44532" lon="-60.87841">
        <ele>4</ele>
        <time>2016-06-05T11:46:54.928Z</time>
      </trkpt>
      <trkpt lat="14.44532" lon="-60.87839">
        <ele>5</ele>
        <time>2016-06-05T11:46:55.928Z</time>
      </trkpt>
      <trkpt lat="14.44531" lon="-60.87837">
        <ele>5</ele>
        <time>2016-06-05T11:46:56.928Z</time>
      </trkpt>
      <trkpt lat="14.44531" lon="-60.87835">
        <ele>5</ele>
        <time>2016-06-05T11:46:57.927Z</time>
      </trkpt>
      <trkpt lat="14.44531" lon="-60.87833">
        <ele>5</ele>
        <time>2016-06-05T11:46:58.928Z</time>
      </trkpt>
      <trkpt lat="14.4453" lon="-60.87831">
        <ele>5</ele>
        <time>2016-06-05T11:46:59.928Z</time>
      </trkpt>
      <trkpt lat="14.4453" lon="-60.87829">
        <ele>5</ele>
        <time>2016-06-05T11:47:00.928Z</time>
      </trkpt>
      <trkpt lat="14.4453" lon="-60.87826">
        <ele>5</ele>
        <time>2016-06-05T11:47:01.927Z</time>
      </trkpt>
      <trkpt lat="14.4453" lon="-60.87825">
        <ele>5</ele>
        <time>2016-06-05T11:47:02.927Z</time>
      </trkpt>
      <trkpt lat="14.4453" lon="-60.87823">
        <ele>5</ele>
        <time>2016-06-05T11:47:03.931Z</time>
      </trkpt>
      <trkpt lat="14.44529" lon="-60.87821">
        <ele>6</ele>
        <time>2016-06-05T11:47:04.930Z</time>
      </trkpt>
      <trkpt lat="14.44529" lon="-60.87819">
        <ele>6</ele>
        <time>2016-06-05T11:47:05.929Z</time>
      </trkpt>
      <trkpt lat="14.4453" lon="-60.87817">
        <ele>7</ele>
        <time>2016-06-05T11:47:06.929Z</time>
      </trkpt>
      <trkpt lat="14.4453" lon="-60.87815">
        <ele>7</ele>
        <time>2016-06-05T11:47:07.929Z</time>
      </trkpt>
      <trkpt lat="14.4453" lon="-60.87813">
        <ele>7</ele>
        <time>2016-06-05T11:47:08.926Z</time>
      </trkpt>
      <trkpt lat="14.44531" lon="-60.87811">
        <ele>7</ele>
        <time>2016-06-05T11:47:09.927Z</time>
      </trkpt>
      <trkpt lat="14.44531" lon="-60.87809">
        <ele>7</ele>
        <time>2016-06-05T11:47:10.927Z</time>
      </trkpt>
      <trkpt lat="14.44531" lon="-60.87807">
        <ele>8</ele>
        <time>2016-06-05T11:47:11.927Z</time>
      </trkpt>
      <trkpt lat="14.44532" lon="-60.87804">
        <ele>7</ele>
        <time>2016-06-05T11:47:12.927Z</time>
      </trkpt>
      <trkpt lat="14.44533" lon="-60.87802">
        <ele>7</ele>
        <time>2016-06-05T11:47:13.926Z</time>
      </trkpt>
      <trkpt lat="14.44534" lon="-60.878">
        <ele>7</ele>
        <time>2016-06-05T11:47:14.930Z</time>
      </trkpt>
      <trkpt lat="14.44534" lon="-60.87798">
        <ele>7</ele>
        <time>2016-06-05T11:47:15.930Z</time>
      </trkpt>
      <trkpt lat="14.44534" lon="-60.87795">
        <ele>7</ele>
        <time>2016-06-05T11:47:16.928Z</time>
      </trkpt>
      <trkpt lat="14.44534" lon="-60.87793">
        <ele>7</ele>
        <time>2016-06-05T11:47:17.931Z</time>
      </trkpt>
      <trkpt lat="14.44535" lon="-60.87791">
        <ele>8</ele>
        <time>2016-06-05T11:47:18.928Z</time>
      </trkpt>
      <trkpt lat="14.44536" lon="-60.87788">
        <ele>8</ele>
        <time>2016-06-05T11:47:19.931Z</time>
      </trkpt>
      <trkpt lat="14.44536" lon="-60.87786">
        <ele>8</ele>
        <time>2016-06-05T11:47:20.929Z</time>
      </trkpt>
      <trkpt lat="14.44537" lon="-60.87783">
        <ele>8</ele>
        <time>2016-06-05T11:47:21.927Z</time>
      </trkpt>
      <trkpt lat="14.44537" lon="-60.87781">
        <ele>8</ele>
        <time>2016-06-05T11:47:22.927Z</time>
      </trkpt>
      <trkpt lat="14.44538" lon="-60.87779">
        <ele>8</ele>
        <time>2016-06-05T11:47:23.930Z</time>
      </trkpt>
      <trkpt lat="14.44538" lon="-60.87776">
        <ele>8</ele>
        <time>2016-06-05T11:47:24.930Z</time>
      </trkpt>
      <trkpt lat="14.44539" lon="-60.87774">
        <ele>9</ele>
        <time>2016-06-05T11:47:25.929Z</time>
      </trkpt>
      <trkpt lat="14.4454" lon="-60.87772">
        <ele>9</ele>
        <time>2016-06-05T11:47:26.929Z</time>
      </trkpt>
      <trkpt lat="14.4454" lon="-60.87769">
        <ele>9</ele>
        <time>2016-06-05T11:47:27.930Z</time>
      </trkpt>
      <trkpt lat="14.4454" lon="-60.87767">
        <ele>8</ele>
        <time>2016-06-05T11:47:28.930Z</time>
      </trkpt>
      <trkpt lat="14.4454" lon="-60.87765">
        <ele>7</ele>
        <time>2016-06-05T11:47:29.931Z</time>
      </trkpt>
      <trkpt lat="14.4454" lon="-60.87762">
        <ele>8</ele>
        <time>2016-06-05T11:47:30.927Z</time>
      </trkpt>
      <trkpt lat="14.4454" lon="-60.8776">
        <ele>7</ele>
        <time>2016-06-05T11:47:31.928Z</time>
      </trkpt>
      <trkpt lat="14.44541" lon="-60.87758">
        <ele>7</ele>
        <time>2016-06-05T11:47:32.928Z</time>
      </trkpt>
      <trkpt lat="14.44542" lon="-60.87756">
        <ele>7</ele>
        <time>2016-06-05T11:47:33.928Z</time>
      </trkpt>
      <trkpt lat="14.44542" lon="-60.87753">
        <ele>7</ele>
        <time>2016-06-05T11:47:34.929Z</time>
      </trkpt>
      <trkpt lat="14.44542" lon="-60.87752">
        <ele>7</ele>
        <time>2016-06-05T11:47:35.931Z</time>
      </trkpt>
      <trkpt lat="14.44542" lon="-60.87749">
        <ele>7</ele>
        <time>2016-06-05T11:47:36.930Z</time>
      </trkpt>
      <trkpt lat="14.44542" lon="-60.87747">
        <ele>7</ele>
        <time>2016-06-05T11:47:37.929Z</time>
      </trkpt>
      <trkpt lat="14.44542" lon="-60.87745">
        <ele>7</ele>
        <time>2016-06-05T11:47:38.930Z</time>
      </trkpt>
      <trkpt lat="14.44542" lon="-60.87743">
        <ele>7</ele>
        <time>2016-06-05T11:47:39.928Z</time>
      </trkpt>
      <trkpt lat="14.44542" lon="-60.87741">
        <ele>7</ele>
        <time>2016-06-05T11:47:40.928Z</time>
      </trkpt>
      <trkpt lat="14.44541" lon="-60.87739">
        <ele>7</ele>
        <time>2016-06-05T11:47:41.929Z</time>
      </trkpt>
      <trkpt lat="14.44541" lon="-60.87736">
        <ele>7</ele>
        <time>2016-06-05T11:47:42.929Z</time>
      </trkpt>
      <trkpt lat="14.44541" lon="-60.87734">
        <ele>7</ele>
        <time>2016-06-05T11:47:43.929Z</time>
      </trkpt>
      <trkpt lat="14.44541" lon="-60.87732">
        <ele>8</ele>
        <time>2016-06-05T11:47:44.930Z</time>
      </trkpt>
      <trkpt lat="14.44541" lon="-60.8773">
        <ele>8</ele>
        <time>2016-06-05T11:47:45.929Z</time>
      </trkpt>
      <trkpt lat="14.44541" lon="-60.87728">
        <ele>8</ele>
        <time>2016-06-05T11:47:46.928Z</time>
      </trkpt>
      <trkpt lat="14.44541" lon="-60.87726">
        <ele>8</ele>
        <time>2016-06-05T11:47:47.928Z</time>
      </trkpt>
      <trkpt lat="14.4454" lon="-60.87723">
        <ele>8</ele>
        <time>2016-06-05T11:47:48.935Z</time>
      </trkpt>
      <trkpt lat="14.4454" lon="-60.87721">
        <ele>8</ele>
        <time>2016-06-05T11:47:49.931Z</time>
      </trkpt>
      <trkpt lat="14.4454" lon="-60.87719">
        <ele>8</ele>
        <time>2016-06-05T11:47:50.929Z</time>
      </trkpt>
      <trkpt lat="14.4454" lon="-60.87717">
        <ele>9</ele>
        <time>2016-06-05T11:47:51.932Z</time>
      </trkpt>
      <trkpt lat="14.44539" lon="-60.87714">
        <ele>9</ele>
        <time>2016-06-05T11:47:52.936Z</time>
      </trkpt>
      <trkpt lat="14.44539" lon="-60.87712">
        <ele>9</ele>
        <time>2016-06-05T11:47:53.931Z</time>
      </trkpt>
      <trkpt lat="14.44539" lon="-60.87709">
        <ele>10</ele>
        <time>2016-06-05T11:47:54.929Z</time>
      </trkpt>
      <trkpt lat="14.44539" lon="-60.87707">
        <ele>10</ele>
        <time>2016-06-05T11:47:55.928Z</time>
      </trkpt>
      <trkpt lat="14.44539" lon="-60.87704">
        <ele>10</ele>
        <time>2016-06-05T11:47:56.928Z</time>
      </trkpt>
      <trkpt lat="14.44538" lon="-60.87702">
        <ele>9</ele>
        <time>2016-06-05T11:47:57.929Z</time>
      </trkpt>
      <trkpt lat="14.44538" lon="-60.87699">
        <ele>9</ele>
        <time>2016-06-05T11:47:58.928Z</time>
      </trkpt>
      <trkpt lat="14.44539" lon="-60.87697">
        <ele>9</ele>
        <time>2016-06-05T11:47:59.928Z</time>
      </trkpt>
      <trkpt lat="14.44539" lon="-60.87694">
        <ele>9</ele>
        <time>2016-06-05T11:48:00.932Z</time>
      </trkpt>
      <trkpt lat="14.44538" lon="-60.87692">
        <ele>9</ele>
        <time>2016-06-05T11:48:01.927Z</time>
      </trkpt>
      <trkpt lat="14.44538" lon="-60.87689">
        <ele>9</ele>
        <time>2016-06-05T11:48:02.928Z</time>
      </trkpt>
      <trkpt lat="14.44538" lon="-60.87686">
        <ele>9</ele>
        <time>2016-06-05T11:48:03.931Z</time>
      </trkpt>
      <trkpt lat="14.44538" lon="-60.87683">
        <ele>9</ele>
        <time>2016-06-05T11:48:04.930Z</time>
      </trkpt>
      <trkpt lat="14.44538" lon="-60.87681">
        <ele>9</ele>
        <time>2016-06-05T11:48:05.929Z</time>
      </trkpt>
      <trkpt lat="14.44537" lon="-60.87678">
        <ele>9</ele>
        <time>2016-06-05T11:48:06.928Z</time>
      </trkpt>
      <trkpt lat="14.44537" lon="-60.87675">
        <ele>9</ele>
        <time>2016-06-05T11:48:07.932Z</time>
      </trkpt>
      <trkpt lat="14.44536" lon="-60.87672">
        <ele>9</ele>
        <time>2016-06-05T11:48:08.930Z</time>
      </trkpt>
      <trkpt lat="14.44536" lon="-60.8767">
        <ele>9</ele>
        <time>2016-06-05T11:48:09.929Z</time>
      </trkpt>
      <trkpt lat="14.44536" lon="-60.87667">
        <ele>9</ele>
        <time>2016-06-05T11:48:10.928Z</time>
      </trkpt>
      <trkpt lat="14.44536" lon="-60.87664">
        <ele>9</ele>
        <time>2016-06-05T11:48:11.929Z</time>
      </trkpt>
      <trkpt lat="14.44536" lon="-60.87662">
        <ele>9</ele>
        <time>2016-06-05T11:48:12.929Z</time>
      </trkpt>
      <trkpt lat="14.44536" lon="-60.8766">
        <ele>8</ele>
        <time>2016-06-05T11:48:13.928Z</time>
      </trkpt>
      <trkpt lat="14.44535" lon="-60.87657">
        <ele>8</ele>
        <time>2016-06-05T11:48:14.927Z</time>
      </trkpt>
      <trkpt lat="14.44535" lon="-60.87655">
        <ele>8</ele>
        <time>2016-06-05T11:48:15.927Z</time>
      </trkpt>
      <trkpt lat="14.44535" lon="-60.87652">
        <ele>9</ele>
        <time>2016-06-05T11:48:16.928Z</time>
      </trkpt>
      <trkpt lat="14.44534" lon="-60.87649">
        <ele>9</ele>
        <time>2016-06-05T11:48:17.929Z</time>
      </trkpt>
      <trkpt lat="14.44534" lon="-60.87646">
        <ele>9</ele>
        <time>2016-06-05T11:48:18.930Z</time>
      </trkpt>
      <trkpt lat="14.44534" lon="-60.87643">
        <ele>9</ele>
        <time>2016-06-05T11:48:19.928Z</time>
      </trkpt>
      <trkpt lat="14.44533" lon="-60.87641">
        <ele>8</ele>
        <time>2016-06-05T11:48:20.928Z</time>
      </trkpt>
      <trkpt lat="14.44533" lon="-60.87639">
        <ele>8</ele>
        <time>2016-06-05T11:48:21.929Z</time>
      </trkpt>
      <trkpt lat="14.44533" lon="-60.87636">
        <ele>8</ele>
        <time>2016-06-05T11:48:22.929Z</time>
      </trkpt>
      <trkpt lat="14.44533" lon="-60.87633">
        <ele>8</ele>
        <time>2016-06-05T11:48:23.934Z</time>
      </trkpt>
      <trkpt lat="14.44533" lon="-60.87631">
        <ele>9</ele>
        <time>2016-06-05T11:48:24.932Z</time>
      </trkpt>
      <trkpt lat="14.44532" lon="-60.87629">
        <ele>8</ele>
        <time>2016-06-05T11:48:25.928Z</time>
      </trkpt>
      <trkpt lat="14.44532" lon="-60.87626">
        <ele>9</ele>
        <time>2016-06-05T11:48:26.928Z</time>
      </trkpt>
      <trkpt lat="14.44532" lon="-60.87624">
        <ele>9</ele>
        <time>2016-06-05T11:48:27.929Z</time>
      </trkpt>
      <trkpt lat="14.44532" lon="-60.87621">
        <ele>9</ele>
        <time>2016-06-05T11:48:28.927Z</time>
      </trkpt>
      <trkpt lat="14.44531" lon="-60.87619">
        <ele>9</ele>
        <time>2016-06-05T11:48:29.929Z</time>
      </trkpt>
      <trkpt lat="14.44531" lon="-60.87617">
        <ele>10</ele>
        <time>2016-06-05T11:48:30.927Z</time>
      </trkpt>
      <trkpt lat="14.44531" lon="-60.87614">
        <ele>10</ele>
        <time>2016-06-05T11:48:31.928Z</time>
      </trkpt>
      <trkpt lat="14.4453" lon="-60.87611">
        <ele>11</ele>
        <time>2016-06-05T11:48:32.930Z</time>
      </trkpt>
      <trkpt lat="14.4453" lon="-60.87609">
        <ele>11</ele>
        <time>2016-06-05T11:48:33.928Z</time>
      </trkpt>
      <trkpt lat="14.4453" lon="-60.87606">
        <ele>11</ele>
        <time>2016-06-05T11:48:34.928Z</time>
      </trkpt>
      <trkpt lat="14.4453" lon="-60.87604">
        <ele>11</ele>
        <time>2016-06-05T11:48:35.929Z</time>
      </trkpt>
      <trkpt lat="14.4453" lon="-60.87601">
        <ele>11</ele>
        <time>2016-06-05T11:48:36.929Z</time>
      </trkpt>
      <trkpt lat="14.4453" lon="-60.87598">
        <ele>10</ele>
        <time>2016-06-05T11:48:37.928Z</time>
      </trkpt>
      <trkpt lat="14.4453" lon="-60.87595">
        <ele>9</ele>
        <time>2016-06-05T11:48:38.931Z</time>
      </trkpt>
      <trkpt lat="14.44529" lon="-60.87593">
        <ele>10</ele>
        <time>2016-06-05T11:48:39.930Z</time>
      </trkpt>
      <trkpt lat="14.44529" lon="-60.8759">
        <ele>11</ele>
        <time>2016-06-05T11:48:40.933Z</time>
      </trkpt>
      <trkpt lat="14.44528" lon="-60.87588">
        <ele>11</ele>
        <time>2016-06-05T11:48:41.932Z</time>
      </trkpt>
      <trkpt lat="14.44529" lon="-60.87585">
        <ele>11</ele>
        <time>2016-06-05T11:48:42.931Z</time>
      </trkpt>
      <trkpt lat="14.44529" lon="-60.87582">
        <ele>11</ele>
        <time>2016-06-05T11:48:43.933Z</time>
      </trkpt>
      <trkpt lat="14.4453" lon="-60.87579">
        <ele>11</ele>
        <time>2016-06-05T11:48:44.928Z</time>
      </trkpt>
      <trkpt lat="14.4453" lon="-60.87577">
        <ele>12</ele>
        <time>2016-06-05T11:48:45.928Z</time>
      </trkpt>
      <trkpt lat="14.44531" lon="-60.87575">
        <ele>12</ele>
        <time>2016-06-05T11:48:46.928Z</time>
      </trkpt>
      <trkpt lat="14.44532" lon="-60.87572">
        <ele>11</ele>
        <time>2016-06-05T11:48:48.929Z</time>
      </trkpt>
      <trkpt lat="14.44532" lon="-60.8757">
        <ele>11</ele>
        <time>2016-06-05T11:48:49.928Z</time>
      </trkpt>
      <trkpt lat="14.44532" lon="-60.87567">
        <ele>11</ele>
        <time>2016-06-05T11:48:50.930Z</time>
      </trkpt>
      <trkpt lat="14.44532" lon="-60.87566">
        <ele>11</ele>
        <time>2016-06-05T11:48:51.929Z</time>
      </trkpt>
      <trkpt lat="14.44533" lon="-60.87563">
        <ele>11</ele>
        <time>2016-06-05T11:48:52.930Z</time>
      </trkpt>
      <trkpt lat="14.44533" lon="-60.8756">
        <ele>11</ele>
        <time>2016-06-05T11:48:53.931Z</time>
      </trkpt>
      <trkpt lat="14.44534" lon="-60.87558">
        <ele>11</ele>
        <time>2016-06-05T11:48:54.929Z</time>
      </trkpt>
      <trkpt lat="14.44534" lon="-60.87555">
        <ele>10</ele>
        <time>2016-06-05T11:48:55.932Z</time>
      </trkpt>
      <trkpt lat="14.44534" lon="-60.87552">
        <ele>10</ele>
        <time>2016-06-05T11:48:56.934Z</time>
      </trkpt>
      <trkpt lat="14.44536" lon="-60.87549">
        <ele>10</ele>
        <time>2016-06-05T11:48:57.928Z</time>
      </trkpt>
      <trkpt lat="14.44536" lon="-60.87547">
        <ele>9</ele>
        <time>2016-06-05T11:48:58.927Z</time>
      </trkpt>
      <trkpt lat="14.44537" lon="-60.87546">
        <ele>10</ele>
        <time>2016-06-05T11:48:59.928Z</time>
      </trkpt>
      <trkpt lat="14.44537" lon="-60.87544">
        <ele>10</ele>
        <time>2016-06-05T11:49:00.931Z</time>
      </trkpt>
      <trkpt lat="14.44538" lon="-60.87541">
        <ele>11</ele>
        <time>2016-06-05T11:49:01.930Z</time>
      </trkpt>
      <trkpt lat="14.44539" lon="-60.87539">
        <ele>11</ele>
        <time>2016-06-05T11:49:02.930Z</time>
      </trkpt>
      <trkpt lat="14.4454" lon="-60.87536">
        <ele>10</ele>
        <time>2016-06-05T11:49:03.929Z</time>
      </trkpt>
      <trkpt lat="14.4454" lon="-60.87534">
        <ele>11</ele>
        <time>2016-06-05T11:49:04.929Z</time>
      </trkpt>
      <trkpt lat="14.44541" lon="-60.87531">
        <ele>11</ele>
        <time>2016-06-05T11:49:05.934Z</time>
      </trkpt>
      <trkpt lat="14.44542" lon="-60.87529">
        <ele>12</ele>
        <time>2016-06-05T11:49:06.933Z</time>
      </trkpt>
      <trkpt lat="14.44544" lon="-60.87529">
        <ele>14</ele>
        <time>2016-06-05T11:49:07.929Z</time>
      </trkpt>
      <trkpt lat="14.44545" lon="-60.87527">
        <ele>14</ele>
        <time>2016-06-05T11:49:08.928Z</time>
      </trkpt>
      <trkpt lat="14.44547" lon="-60.87525">
        <ele>15</ele>
        <time>2016-06-05T11:49:09.930Z</time>
      </trkpt>
      <trkpt lat="14.44548" lon="-60.87523">
        <ele>15</ele>
        <time>2016-06-05T11:49:10.929Z</time>
      </trkpt>
      <trkpt lat="14.4455" lon="-60.87522">
        <ele>15</ele>
        <time>2016-06-05T11:49:11.929Z</time>
      </trkpt>
      <trkpt lat="14.44553" lon="-60.87521">
        <ele>15</ele>
        <time>2016-06-05T11:49:12.928Z</time>
      </trkpt>
      <trkpt lat="14.44554" lon="-60.8752">
        <ele>16</ele>
        <time>2016-06-05T11:49:13.931Z</time>
      </trkpt>
      <trkpt lat="14.44557" lon="-60.87519">
        <ele>17</ele>
        <time>2016-06-05T11:49:14.931Z</time>
      </trkpt>
      <trkpt lat="14.44559" lon="-60.87518">
        <ele>18</ele>
        <time>2016-06-05T11:49:15.928Z</time>
      </trkpt>
      <trkpt lat="14.44561" lon="-60.87518">
        <ele>18</ele>
        <time>2016-06-05T11:49:16.930Z</time>
      </trkpt>
      <trkpt lat="14.44563" lon="-60.87517">
        <ele>18</ele>
        <time>2016-06-05T11:49:17.931Z</time>
      </trkpt>
      <trkpt lat="14.44564" lon="-60.87515">
        <ele>18</ele>
        <time>2016-06-05T11:49:18.928Z</time>
      </trkpt>
      <trkpt lat="14.44566" lon="-60.87513">
        <ele>18</ele>
        <time>2016-06-05T11:49:19.928Z</time>
      </trkpt>
      <trkpt lat="14.44567" lon="-60.87511">
        <ele>19</ele>
        <time>2016-06-05T11:49:20.924Z</time>
      </trkpt>
      <trkpt lat="14.44569" lon="-60.87509">
        <ele>19</ele>
        <time>2016-06-05T11:49:21.926Z</time>
      </trkpt>
      <trkpt lat="14.44571" lon="-60.87507">
        <ele>19</ele>
        <time>2016-06-05T11:49:22.930Z</time>
      </trkpt>
      <trkpt lat="14.44572" lon="-60.87505">
        <ele>19</ele>
        <time>2016-06-05T11:49:23.930Z</time>
      </trkpt>
      <trkpt lat="14.44573" lon="-60.87504">
        <ele>20</ele>
        <time>2016-06-05T11:49:24.928Z</time>
      </trkpt>
      <trkpt lat="14.44575" lon="-60.87502">
        <ele>20</ele>
        <time>2016-06-05T11:49:25.929Z</time>
      </trkpt>
      <trkpt lat="14.44576" lon="-60.87501">
        <ele>20</ele>
        <time>2016-06-05T11:49:26.929Z</time>
      </trkpt>
      <trkpt lat="14.44578" lon="-60.87499">
        <ele>20</ele>
        <time>2016-06-05T11:49:27.934Z</time>
      </trkpt>
      <trkpt lat="14.44579" lon="-60.87497">
        <ele>20</ele>
        <time>2016-06-05T11:49:28.930Z</time>
      </trkpt>
      <trkpt lat="14.4458" lon="-60.87495">
        <ele>20</ele>
        <time>2016-06-05T11:49:29.931Z</time>
      </trkpt>
      <trkpt lat="14.44581" lon="-60.87493">
        <ele>20</ele>
        <time>2016-06-05T11:49:30.931Z</time>
      </trkpt>
      <trkpt lat="14.44583" lon="-60.87492">
        <ele>20</ele>
        <time>2016-06-05T11:49:31.927Z</time>
      </trkpt>
      <trkpt lat="14.44584" lon="-60.87489">
        <ele>20</ele>
        <time>2016-06-05T11:49:32.930Z</time>
      </trkpt>
      <trkpt lat="14.44585" lon="-60.87487">
        <ele>20</ele>
        <time>2016-06-05T11:49:33.929Z</time>
      </trkpt>
      <trkpt lat="14.44586" lon="-60.87485">
        <ele>21</ele>
        <time>2016-06-05T11:49:34.929Z</time>
      </trkpt>
      <trkpt lat="14.44588" lon="-60.87484">
        <ele>21</ele>
        <time>2016-06-05T11:49:35.929Z</time>
      </trkpt>
      <trkpt lat="14.44589" lon="-60.87482">
        <ele>22</ele>
        <time>2016-06-05T11:49:36.928Z</time>
      </trkpt>
      <trkpt lat="14.4459" lon="-60.87481">
        <ele>22</ele>
        <time>2016-06-05T11:49:37.929Z</time>
      </trkpt>
      <trkpt lat="14.44591" lon="-60.87478">
        <ele>22</ele>
        <time>2016-06-05T11:49:38.927Z</time>
      </trkpt>
      <trkpt lat="14.44591" lon="-60.87476">
        <ele>22</ele>
        <time>2016-06-05T11:49:39.927Z</time>
      </trkpt>
      <trkpt lat="14.44592" lon="-60.87474">
        <ele>22</ele>
        <time>2016-06-05T11:49:40.928Z</time>
      </trkpt>
      <trkpt lat="14.44593" lon="-60.87472">
        <ele>23</ele>
        <time>2016-06-05T11:49:41.927Z</time>
      </trkpt>
      <trkpt lat="14.44594" lon="-60.87469">
        <ele>22</ele>
        <time>2016-06-05T11:49:42.929Z</time>
      </trkpt>
      <trkpt lat="14.44595" lon="-60.87468">
        <ele>22</ele>
        <time>2016-06-05T11:49:43.930Z</time>
      </trkpt>
      <trkpt lat="14.44596" lon="-60.87466">
        <ele>22</ele>
        <time>2016-06-05T11:49:44.930Z</time>
      </trkpt>
      <trkpt lat="14.44597" lon="-60.87464">
        <ele>22</ele>
        <time>2016-06-05T11:49:45.927Z</time>
      </trkpt>
      <trkpt lat="14.44598" lon="-60.87462">
        <ele>22</ele>
        <time>2016-06-05T11:49:46.928Z</time>
      </trkpt>
      <trkpt lat="14.44599" lon="-60.87461">
        <ele>22</ele>
        <time>2016-06-05T11:49:47.929Z</time>
      </trkpt>
      <trkpt lat="14.44599" lon="-60.8746">
        <ele>22</ele>
        <time>2016-06-05T11:49:48.927Z</time>
      </trkpt>
      <trkpt lat="14.446" lon="-60.87458">
        <ele>22</ele>
        <time>2016-06-05T11:49:49.927Z</time>
      </trkpt>
      <trkpt lat="14.44601" lon="-60.87457">
        <ele>22</ele>
        <time>2016-06-05T11:49:50.930Z</time>
      </trkpt>
      <trkpt lat="14.44601" lon="-60.87455">
        <ele>22</ele>
        <time>2016-06-05T11:49:51.928Z</time>
      </trkpt>
      <trkpt lat="14.44602" lon="-60.87453">
        <ele>22</ele>
        <time>2016-06-05T11:49:53.928Z</time>
      </trkpt>
      <trkpt lat="14.44602" lon="-60.87452">
        <ele>22</ele>
        <time>2016-06-05T11:49:54.928Z</time>
      </trkpt>
      <trkpt lat="14.44602" lon="-60.8745">
        <ele>23</ele>
        <time>2016-06-05T11:49:55.929Z</time>
      </trkpt>
      <trkpt lat="14.44603" lon="-60.87448">
        <ele>23</ele>
        <time>2016-06-05T11:49:56.929Z</time>
      </trkpt>
      <trkpt lat="14.44604" lon="-60.87446">
        <ele>22</ele>
        <time>2016-06-05T11:49:57.929Z</time>
      </trkpt>
      <trkpt lat="14.44605" lon="-60.87445">
        <ele>23</ele>
        <time>2016-06-05T11:49:58.929Z</time>
      </trkpt>
      <trkpt lat="14.44607" lon="-60.87443">
        <ele>23</ele>
        <time>2016-06-05T11:49:59.934Z</time>
      </trkpt>
      <trkpt lat="14.44607" lon="-60.8744">
        <ele>21</ele>
        <time>2016-06-05T11:50:01.929Z</time>
      </trkpt>
      <trkpt lat="14.44606" lon="-60.87437">
        <ele>22</ele>
        <time>2016-06-05T11:50:02.929Z</time>
      </trkpt>
      <trkpt lat="14.44605" lon="-60.87435">
        <ele>21</ele>
        <time>2016-06-05T11:50:03.929Z</time>
      </trkpt>
      <trkpt lat="14.44605" lon="-60.87433">
        <ele>21</ele>
        <time>2016-06-05T11:50:04.929Z</time>
      </trkpt>
      <trkpt lat="14.44604" lon="-60.87431">
        <ele>20</ele>
        <time>2016-06-05T11:50:05.927Z</time>
      </trkpt>
      <trkpt lat="14.44604" lon="-60.87428">
        <ele>20</ele>
        <time>2016-06-05T11:50:06.931Z</time>
      </trkpt>
      <trkpt lat="14.44603" lon="-60.87426">
        <ele>21</ele>
        <time>2016-06-05T11:50:07.934Z</time>
      </trkpt>
      <trkpt lat="14.44603" lon="-60.87424">
        <ele>20</ele>
        <time>2016-06-05T11:50:08.930Z</time>
      </trkpt>
      <trkpt lat="14.44602" lon="-60.87422">
        <ele>20</ele>
        <time>2016-06-05T11:50:09.929Z</time>
      </trkpt>
      <trkpt lat="14.44601" lon="-60.8742">
        <ele>20</ele>
        <time>2016-06-05T11:50:10.929Z</time>
      </trkpt>
      <trkpt lat="14.446" lon="-60.87418">
        <ele>20</ele>
        <time>2016-06-05T11:50:11.928Z</time>
      </trkpt>
      <trkpt lat="14.44599" lon="-60.87415">
        <ele>19</ele>
        <time>2016-06-05T11:50:12.929Z</time>
      </trkpt>
      <trkpt lat="14.44599" lon="-60.87413">
        <ele>18</ele>
        <time>2016-06-05T11:50:13.929Z</time>
      </trkpt>
      <trkpt lat="14.44598" lon="-60.87411">
        <ele>18</ele>
        <time>2016-06-05T11:50:14.929Z</time>
      </trkpt>
      <trkpt lat="14.44597" lon="-60.87409">
        <ele>17</ele>
        <time>2016-06-05T11:50:15.929Z</time>
      </trkpt>
      <trkpt lat="14.44596" lon="-60.87407">
        <ele>17</ele>
        <time>2016-06-05T11:50:16.928Z</time>
      </trkpt>
      <trkpt lat="14.44595" lon="-60.87405">
        <ele>17</ele>
        <time>2016-06-05T11:50:17.928Z</time>
      </trkpt>
      <trkpt lat="14.44595" lon="-60.87403">
        <ele>17</ele>
        <time>2016-06-05T11:50:18.927Z</time>
      </trkpt>
      <trkpt lat="14.44594" lon="-60.87401">
        <ele>16</ele>
        <time>2016-06-05T11:50:19.927Z</time>
      </trkpt>
      <trkpt lat="14.44593" lon="-60.87398">
        <ele>16</ele>
        <time>2016-06-05T11:50:20.927Z</time>
      </trkpt>
      <trkpt lat="14.44592" lon="-60.87395">
        <ele>17</ele>
        <time>2016-06-05T11:50:21.928Z</time>
      </trkpt>
      <trkpt lat="14.44591" lon="-60.87392">
        <ele>18</ele>
        <time>2016-06-05T11:50:22.927Z</time>
      </trkpt>
      <trkpt lat="14.4459" lon="-60.8739">
        <ele>16</ele>
        <time>2016-06-05T11:50:23.927Z</time>
      </trkpt>
      <trkpt lat="14.4459" lon="-60.87387">
        <ele>17</ele>
        <time>2016-06-05T11:50:24.928Z</time>
      </trkpt>
      <trkpt lat="14.44588" lon="-60.87385">
        <ele>17</ele>
        <time>2016-06-05T11:50:25.929Z</time>
      </trkpt>
      <trkpt lat="14.44587" lon="-60.87384">
        <ele>17</ele>
        <time>2016-06-05T11:50:26.929Z</time>
      </trkpt>
      <trkpt lat="14.44585" lon="-60.87382">
        <ele>17</ele>
        <time>2016-06-05T11:50:27.929Z</time>
      </trkpt>
      <trkpt lat="14.44584" lon="-60.87381">
        <ele>16</ele>
        <time>2016-06-05T11:50:28.928Z</time>
      </trkpt>
      <trkpt lat="14.44583" lon="-60.8738">
        <ele>17</ele>
        <time>2016-06-05T11:50:29.930Z</time>
      </trkpt>
      <trkpt lat="14.44581" lon="-60.87378">
        <ele>17</ele>
        <time>2016-06-05T11:50:30.929Z</time>
      </trkpt>
      <trkpt lat="14.44579" lon="-60.87377">
        <ele>16</ele>
        <time>2016-06-05T11:50:31.927Z</time>
      </trkpt>
      <trkpt lat="14.44577" lon="-60.87376">
        <ele>16</ele>
        <time>2016-06-05T11:50:32.930Z</time>
      </trkpt>
      <trkpt lat="14.44575" lon="-60.87375">
        <ele>16</ele>
        <time>2016-06-05T11:50:33.928Z</time>
      </trkpt>
      <trkpt lat="14.44574" lon="-60.87374">
        <ele>16</ele>
        <time>2016-06-05T11:50:34.927Z</time>
      </trkpt>
      <trkpt lat="14.44572" lon="-60.87373">
        <ele>17</ele>
        <time>2016-06-05T11:50:35.928Z</time>
      </trkpt>
      <trkpt lat="14.4457" lon="-60.87372">
        <ele>18</ele>
        <time>2016-06-05T11:50:36.929Z</time>
      </trkpt>
      <trkpt lat="14.44569" lon="-60.87372">
        <ele>17</ele>
        <time>2016-06-05T11:50:37.933Z</time>
      </trkpt>
      <trkpt lat="14.44567" lon="-60.87371">
        <ele>17</ele>
        <time>2016-06-05T11:50:38.930Z</time>
      </trkpt>
      <trkpt lat="14.44566" lon="-60.87372">
        <ele>16</ele>
        <time>2016-06-05T11:50:39.929Z</time>
      </trkpt>
      <trkpt lat="14.44564" lon="-60.8737">
        <ele>15</ele>
        <time>2016-06-05T11:50:40.929Z</time>
      </trkpt>
      <trkpt lat="14.44562" lon="-60.87369">
        <ele>14</ele>
        <time>2016-06-05T11:50:42.931Z</time>
      </trkpt>
      <trkpt lat="14.4456" lon="-60.87368">
        <ele>14</ele>
        <time>2016-06-05T11:50:43.930Z</time>
      </trkpt>
      <trkpt lat="14.44558" lon="-60.87367">
        <ele>14</ele>
        <time>2016-06-05T11:50:44.932Z</time>
      </trkpt>
      <trkpt lat="14.44555" lon="-60.87367">
        <ele>13</ele>
        <time>2016-06-05T11:50:45.935Z</time>
      </trkpt>
      <trkpt lat="14.44552" lon="-60.87366">
        <ele>12</ele>
        <time>2016-06-05T11:50:46.928Z</time>
      </trkpt>
      <trkpt lat="14.44549" lon="-60.87365">
        <ele>13</ele>
        <time>2016-06-05T11:50:47.929Z</time>
      </trkpt>
      <trkpt lat="14.44545" lon="-60.87364">
        <ele>12</ele>
        <time>2016-06-05T11:50:48.930Z</time>
      </trkpt>
      <trkpt lat="14.4454" lon="-60.87364">
        <ele>11</ele>
        <time>2016-06-05T11:50:49.930Z</time>
      </trkpt>
      <trkpt lat="14.44537" lon="-60.87362">
        <ele>11</ele>
        <time>2016-06-05T11:50:50.930Z</time>
      </trkpt>
      <trkpt lat="14.44533" lon="-60.87361">
        <ele>11</ele>
        <time>2016-06-05T11:50:51.927Z</time>
      </trkpt>
      <trkpt lat="14.4453" lon="-60.87358">
        <ele>12</ele>
        <time>2016-06-05T11:50:52.928Z</time>
      </trkpt>
      <trkpt lat="14.44528" lon="-60.87357">
        <ele>12</ele>
        <time>2016-06-05T11:50:53.933Z</time>
      </trkpt>
      <trkpt lat="14.44525" lon="-60.87355">
        <ele>12</ele>
        <time>2016-06-05T11:50:54.930Z</time>
      </trkpt>
      <trkpt lat="14.44521" lon="-60.87354">
        <ele>11</ele>
        <time>2016-06-05T11:50:55.927Z</time>
      </trkpt>
      <trkpt lat="14.44519" lon="-60.87352">
        <ele>11</ele>
        <time>2016-06-05T11:50:56.929Z</time>
      </trkpt>
      <trkpt lat="14.44516" lon="-60.87351">
        <ele>10</ele>
        <time>2016-06-05T11:50:57.928Z</time>
      </trkpt>
      <trkpt lat="14.44513" lon="-60.87349">
        <ele>10</ele>
        <time>2016-06-05T11:50:58.930Z</time>
      </trkpt>
      <trkpt lat="14.4451" lon="-60.87348">
        <ele>10</ele>
        <time>2016-06-05T11:50:59.930Z</time>
      </trkpt>
      <trkpt lat="14.44507" lon="-60.87347">
        <ele>11</ele>
        <time>2016-06-05T11:51:00.930Z</time>
      </trkpt>
      <trkpt lat="14.44503" lon="-60.87347">
        <ele>11</ele>
        <time>2016-06-05T11:51:01.932Z</time>
      </trkpt>
      <trkpt lat="14.44501" lon="-60.87345">
        <ele>11</ele>
        <time>2016-06-05T11:51:02.927Z</time>
      </trkpt>
      <trkpt lat="14.44498" lon="-60.87345">
        <ele>11</ele>
        <time>2016-06-05T11:51:03.933Z</time>
      </trkpt>
      <trkpt lat="14.44496" lon="-60.87344">
        <ele>11</ele>
        <time>2016-06-05T11:51:04.934Z</time>
      </trkpt>
      <trkpt lat="14.44493" lon="-60.87342">
        <ele>12</ele>
        <time>2016-06-05T11:51:05.930Z</time>
      </trkpt>
      <trkpt lat="14.4449" lon="-60.87341">
        <ele>11</ele>
        <time>2016-06-05T11:51:06.927Z</time>
      </trkpt>
      <trkpt lat="14.44488" lon="-60.8734">
        <ele>11</ele>
        <time>2016-06-05T11:51:07.927Z</time>
      </trkpt>
      <trkpt lat="14.44485" lon="-60.87337">
        <ele>10</ele>
        <time>2016-06-05T11:51:08.928Z</time>
      </trkpt>
      <trkpt lat="14.44483" lon="-60.87335">
        <ele>10</ele>
        <time>2016-06-05T11:51:09.929Z</time>
      </trkpt>
      <trkpt lat="14.4448" lon="-60.87334">
        <ele>11</ele>
        <time>2016-06-05T11:51:10.929Z</time>
      </trkpt>
      <trkpt lat="14.44477" lon="-60.87333">
        <ele>11</ele>
        <time>2016-06-05T11:51:11.930Z</time>
      </trkpt>
      <trkpt lat="14.44474" lon="-60.87331">
        <ele>12</ele>
        <time>2016-06-05T11:51:12.928Z</time>
      </trkpt>
      <trkpt lat="14.44472" lon="-60.8733">
        <ele>12</ele>
        <time>2016-06-05T11:51:13.929Z</time>
      </trkpt>
      <trkpt lat="14.44469" lon="-60.87328">
        <ele>12</ele>
        <time>2016-06-05T11:51:14.927Z</time>
      </trkpt>
      <trkpt lat="14.44467" lon="-60.87327">
        <ele>12</ele>
        <time>2016-06-05T11:51:15.926Z</time>
      </trkpt>
      <trkpt lat="14.44465" lon="-60.87325">
        <ele>13</ele>
        <time>2016-06-05T11:51:16.928Z</time>
      </trkpt>
      <trkpt lat="14.44463" lon="-60.87324">
        <ele>13</ele>
        <time>2016-06-05T11:51:17.926Z</time>
      </trkpt>
      <trkpt lat="14.4446" lon="-60.87323">
        <ele>13</ele>
        <time>2016-06-05T11:51:18.925Z</time>
      </trkpt>
      <trkpt lat="14.44458" lon="-60.87321">
        <ele>12</ele>
        <time>2016-06-05T11:51:19.927Z</time>
      </trkpt>
      <trkpt lat="14.44456" lon="-60.8732">
        <ele>13</ele>
        <time>2016-06-05T11:51:20.929Z</time>
      </trkpt>
      <trkpt lat="14.44454" lon="-60.87319">
        <ele>13</ele>
        <time>2016-06-05T11:51:21.930Z</time>
      </trkpt>
      <trkpt lat="14.44452" lon="-60.87318">
        <ele>13</ele>
        <time>2016-06-05T11:51:22.929Z</time>
      </trkpt>
      <trkpt lat="14.4445" lon="-60.87317">
        <ele>12</ele>
        <time>2016-06-05T11:51:23.931Z</time>
      </trkpt>
      <trkpt lat="14.44447" lon="-60.87315">
        <ele>12</ele>
        <time>2016-06-05T11:51:24.932Z</time>
      </trkpt>
      <trkpt lat="14.44445" lon="-60.87313">
        <ele>12</ele>
        <time>2016-06-05T11:51:25.931Z</time>
      </trkpt>
      <trkpt lat="14.44442" lon="-60.87312">
        <ele>12</ele>
        <time>2016-06-05T11:51:26.930Z</time>
      </trkpt>
      <trkpt lat="14.4444" lon="-60.87311">
        <ele>12</ele>
        <time>2016-06-05T11:51:27.931Z</time>
      </trkpt>
      <trkpt lat="14.44437" lon="-60.87309">
        <ele>12</ele>
        <time>2016-06-05T11:51:28.928Z</time>
      </trkpt>
      <trkpt lat="14.44434" lon="-60.87308">
        <ele>13</ele>
        <time>2016-06-05T11:51:29.928Z</time>
      </trkpt>
      <trkpt lat="14.44432" lon="-60.87307">
        <ele>13</ele>
        <time>2016-06-05T11:51:30.929Z</time>
      </trkpt>
      <trkpt lat="14.4443" lon="-60.87306">
        <ele>13</ele>
        <time>2016-06-05T11:51:31.928Z</time>
      </trkpt>
      <trkpt lat="14.44428" lon="-60.87305">
        <ele>13</ele>
        <time>2016-06-05T11:51:32.930Z</time>
      </trkpt>
      <trkpt lat="14.44425" lon="-60.87304">
        <ele>13</ele>
        <time>2016-06-05T11:51:33.928Z</time>
      </trkpt>
      <trkpt lat="14.44423" lon="-60.87302">
        <ele>13</ele>
        <time>2016-06-05T11:51:34.928Z</time>
      </trkpt>
      <trkpt lat="14.44421" lon="-60.87301">
        <ele>13</ele>
        <time>2016-06-05T11:51:35.930Z</time>
      </trkpt>
      <trkpt lat="14.44419" lon="-60.873">
        <ele>14</ele>
        <time>2016-06-05T11:51:36.927Z</time>
      </trkpt>
      <trkpt lat="14.44417" lon="-60.87299">
        <ele>13</ele>
        <time>2016-06-05T11:51:37.929Z</time>
      </trkpt>
      <trkpt lat="14.44415" lon="-60.87297">
        <ele>13</ele>
        <time>2016-06-05T11:51:38.927Z</time>
      </trkpt>
      <trkpt lat="14.44413" lon="-60.87297">
        <ele>13</ele>
        <time>2016-06-05T11:51:39.927Z</time>
      </trkpt>
      <trkpt lat="14.44411" lon="-60.87297">
        <ele>13</ele>
        <time>2016-06-05T11:51:40.928Z</time>
      </trkpt>
      <trkpt lat="14.44408" lon="-60.87297">
        <ele>14</ele>
        <time>2016-06-05T11:51:41.929Z</time>
      </trkpt>
      <trkpt lat="14.44406" lon="-60.87295">
        <ele>14</ele>
        <time>2016-06-05T11:51:42.929Z</time>
      </trkpt>
      <trkpt lat="14.44404" lon="-60.87294">
        <ele>14</ele>
        <time>2016-06-05T11:51:43.928Z</time>
      </trkpt>
      <trkpt lat="14.44402" lon="-60.87292">
        <ele>14</ele>
        <time>2016-06-05T11:51:44.931Z</time>
      </trkpt>
      <trkpt lat="14.444" lon="-60.8729">
        <ele>14</ele>
        <time>2016-06-05T11:51:45.928Z</time>
      </trkpt>
      <trkpt lat="14.44397" lon="-60.87289">
        <ele>14</ele>
        <time>2016-06-05T11:51:46.929Z</time>
      </trkpt>
      <trkpt lat="14.44395" lon="-60.87287">
        <ele>14</ele>
        <time>2016-06-05T11:51:47.929Z</time>
      </trkpt>
      <trkpt lat="14.44393" lon="-60.87285">
        <ele>14</ele>
        <time>2016-06-05T11:51:48.927Z</time>
      </trkpt>
      <trkpt lat="14.4439" lon="-60.87283">
        <ele>14</ele>
        <time>2016-06-05T11:51:49.927Z</time>
      </trkpt>
      <trkpt lat="14.44388" lon="-60.87281">
        <ele>14</ele>
        <time>2016-06-05T11:51:50.930Z</time>
      </trkpt>
      <trkpt lat="14.44386" lon="-60.8728">
        <ele>14</ele>
        <time>2016-06-05T11:51:51.931Z</time>
      </trkpt>
      <trkpt lat="14.44384" lon="-60.87279">
        <ele>14</ele>
        <time>2016-06-05T11:51:52.931Z</time>
      </trkpt>
      <trkpt lat="14.44381" lon="-60.87278">
        <ele>14</ele>
        <time>2016-06-05T11:51:53.928Z</time>
      </trkpt>
      <trkpt lat="14.44379" lon="-60.87277">
        <ele>14</ele>
        <time>2016-06-05T11:51:54.928Z</time>
      </trkpt>
      <trkpt lat="14.44377" lon="-60.87276">
        <ele>13</ele>
        <time>2016-06-05T11:51:55.930Z</time>
      </trkpt>
      <trkpt lat="14.44375" lon="-60.87275">
        <ele>14</ele>
        <time>2016-06-05T11:51:56.929Z</time>
      </trkpt>
      <trkpt lat="14.44373" lon="-60.87274">
        <ele>14</ele>
        <time>2016-06-05T11:51:57.928Z</time>
      </trkpt>
      <trkpt lat="14.4437" lon="-60.87272">
        <ele>15</ele>
        <time>2016-06-05T11:51:58.927Z</time>
      </trkpt>
      <trkpt lat="14.44368" lon="-60.87271">
        <ele>15</ele>
        <time>2016-06-05T11:51:59.928Z</time>
      </trkpt>
      <trkpt lat="14.44366" lon="-60.8727">
        <ele>15</ele>
        <time>2016-06-05T11:52:00.928Z</time>
      </trkpt>
      <trkpt lat="14.44364" lon="-60.87269">
        <ele>16</ele>
        <time>2016-06-05T11:52:01.929Z</time>
      </trkpt>
      <trkpt lat="14.44362" lon="-60.87268">
        <ele>16</ele>
        <time>2016-06-05T11:52:02.931Z</time>
      </trkpt>
      <trkpt lat="14.4436" lon="-60.87267">
        <ele>16</ele>
        <time>2016-06-05T11:52:03.929Z</time>
      </trkpt>
      <trkpt lat="14.44358" lon="-60.87266">
        <ele>17</ele>
        <time>2016-06-05T11:52:04.926Z</time>
      </trkpt>
      <trkpt lat="14.44357" lon="-60.87265">
        <ele>17</ele>
        <time>2016-06-05T11:52:05.929Z</time>
      </trkpt>
      <trkpt lat="14.44355" lon="-60.87264">
        <ele>17</ele>
        <time>2016-06-05T11:52:06.930Z</time>
      </trkpt>
      <trkpt lat="14.44353" lon="-60.87263">
        <ele>17</ele>
        <time>2016-06-05T11:52:07.931Z</time>
      </trkpt>
      <trkpt lat="14.44352" lon="-60.87262">
        <ele>16</ele>
        <time>2016-06-05T11:52:08.931Z</time>
      </trkpt>
      <trkpt lat="14.4435" lon="-60.87261">
        <ele>17</ele>
        <time>2016-06-05T11:52:09.929Z</time>
      </trkpt>
      <trkpt lat="14.44348" lon="-60.87259">
        <ele>17</ele>
        <time>2016-06-05T11:52:10.929Z</time>
      </trkpt>
      <trkpt lat="14.44346" lon="-60.87258">
        <ele>16</ele>
        <time>2016-06-05T11:52:11.929Z</time>
      </trkpt>
      <trkpt lat="14.44344" lon="-60.87257">
        <ele>16</ele>
        <time>2016-06-05T11:52:12.929Z</time>
      </trkpt>
      <trkpt lat="14.44342" lon="-60.87256">
        <ele>16</ele>
        <time>2016-06-05T11:52:13.929Z</time>
      </trkpt>
      <trkpt lat="14.44341" lon="-60.87256">
        <ele>16</ele>
        <time>2016-06-05T11:52:14.928Z</time>
      </trkpt>
      <trkpt lat="14.44339" lon="-60.87255">
        <ele>16</ele>
        <time>2016-06-05T11:52:15.929Z</time>
      </trkpt>
      <trkpt lat="14.44338" lon="-60.87254">
        <ele>17</ele>
        <time>2016-06-05T11:52:16.929Z</time>
      </trkpt>
      <trkpt lat="14.44336" lon="-60.87253">
        <ele>17</ele>
        <time>2016-06-05T11:52:17.929Z</time>
      </trkpt>
      <trkpt lat="14.44335" lon="-60.87252">
        <ele>17</ele>
        <time>2016-06-05T11:52:18.927Z</time>
      </trkpt>
      <trkpt lat="14.44333" lon="-60.87251">
        <ele>17</ele>
        <time>2016-06-05T11:52:19.929Z</time>
      </trkpt>
      <trkpt lat="14.44332" lon="-60.87251">
        <ele>17</ele>
        <time>2016-06-05T11:52:20.929Z</time>
      </trkpt>
      <trkpt lat="14.4433" lon="-60.8725">
        <ele>17</ele>
        <time>2016-06-05T11:52:21.931Z</time>
      </trkpt>
      <trkpt lat="14.44328" lon="-60.87249">
        <ele>17</ele>
        <time>2016-06-05T11:52:22.929Z</time>
      </trkpt>
      <trkpt lat="14.44326" lon="-60.87248">
        <ele>17</ele>
        <time>2016-06-05T11:52:23.929Z</time>
      </trkpt>
      <trkpt lat="14.44324" lon="-60.87247">
        <ele>18</ele>
        <time>2016-06-05T11:52:24.929Z</time>
      </trkpt>
      <trkpt lat="14.44322" lon="-60.87246">
        <ele>18</ele>
        <time>2016-06-05T11:52:25.930Z</time>
      </trkpt>
      <trkpt lat="14.4432" lon="-60.87245">
        <ele>18</ele>
        <time>2016-06-05T11:52:26.932Z</time>
      </trkpt>
      <trkpt lat="14.44318" lon="-60.87243">
        <ele>18</ele>
        <time>2016-06-05T11:52:27.928Z</time>
      </trkpt>
      <trkpt lat="14.44316" lon="-60.87242">
        <ele>17</ele>
        <time>2016-06-05T11:52:28.928Z</time>
      </trkpt>
      <trkpt lat="14.44314" lon="-60.87241">
        <ele>17</ele>
        <time>2016-06-05T11:52:29.930Z</time>
      </trkpt>
      <trkpt lat="14.44312" lon="-60.8724">
        <ele>18</ele>
        <time>2016-06-05T11:52:30.928Z</time>
      </trkpt>
      <trkpt lat="14.4431" lon="-60.87238">
        <ele>17</ele>
        <time>2016-06-05T11:52:31.927Z</time>
      </trkpt>
      <trkpt lat="14.44308" lon="-60.87237">
        <ele>18</ele>
        <time>2016-06-05T11:52:32.928Z</time>
      </trkpt>
      <trkpt lat="14.44306" lon="-60.87236">
        <ele>17</ele>
        <time>2016-06-05T11:52:33.931Z</time>
      </trkpt>
      <trkpt lat="14.44304" lon="-60.87235">
        <ele>17</ele>
        <time>2016-06-05T11:52:34.932Z</time>
      </trkpt>
      <trkpt lat="14.44302" lon="-60.87233">
        <ele>17</ele>
        <time>2016-06-05T11:52:35.930Z</time>
      </trkpt>
      <trkpt lat="14.443" lon="-60.87232">
        <ele>17</ele>
        <time>2016-06-05T11:52:36.930Z</time>
      </trkpt>
      <trkpt lat="14.44299" lon="-60.87231">
        <ele>17</ele>
        <time>2016-06-05T11:52:37.928Z</time>
      </trkpt>
      <trkpt lat="14.44297" lon="-60.87229">
        <ele>17</ele>
        <time>2016-06-05T11:52:38.929Z</time>
      </trkpt>
      <trkpt lat="14.44295" lon="-60.87229">
        <ele>16</ele>
        <time>2016-06-05T11:52:39.932Z</time>
      </trkpt>
      <trkpt lat="14.44293" lon="-60.87229">
        <ele>17</ele>
        <time>2016-06-05T11:52:40.930Z</time>
      </trkpt>
      <trkpt lat="14.44291" lon="-60.87227">
        <ele>17</ele>
        <time>2016-06-05T11:52:41.928Z</time>
      </trkpt>
      <trkpt lat="14.44288" lon="-60.87226">
        <ele>17</ele>
        <time>2016-06-05T11:52:42.929Z</time>
      </trkpt>
      <trkpt lat="14.44285" lon="-60.87225">
        <ele>17</ele>
        <time>2016-06-05T11:52:43.929Z</time>
      </trkpt>
      <trkpt lat="14.44282" lon="-60.87223">
        <ele>17</ele>
        <time>2016-06-05T11:52:44.929Z</time>
      </trkpt>
      <trkpt lat="14.44278" lon="-60.87222">
        <ele>17</ele>
        <time>2016-06-05T11:52:45.929Z</time>
      </trkpt>
      <trkpt lat="14.44274" lon="-60.87219">
        <ele>17</ele>
        <time>2016-06-05T11:52:46.929Z</time>
      </trkpt>
      <trkpt lat="14.4427" lon="-60.87217">
        <ele>18</ele>
        <time>2016-06-05T11:52:47.930Z</time>
      </trkpt>
      <trkpt lat="14.44265" lon="-60.87215">
        <ele>18</ele>
        <time>2016-06-05T11:52:48.928Z</time>
      </trkpt>
      <trkpt lat="14.44261" lon="-60.87212">
        <ele>19</ele>
        <time>2016-06-05T11:52:49.929Z</time>
      </trkpt>
      <trkpt lat="14.44256" lon="-60.8721">
        <ele>18</ele>
        <time>2016-06-05T11:52:50.928Z</time>
      </trkpt>
      <trkpt lat="14.44252" lon="-60.87208">
        <ele>18</ele>
        <time>2016-06-05T11:52:51.929Z</time>
      </trkpt>
      <trkpt lat="14.44247" lon="-60.87206">
        <ele>18</ele>
        <time>2016-06-05T11:52:52.930Z</time>
      </trkpt>
      <trkpt lat="14.44243" lon="-60.87204">
        <ele>18</ele>
        <time>2016-06-05T11:52:53.931Z</time>
      </trkpt>
      <trkpt lat="14.44239" lon="-60.87202">
        <ele>17</ele>
        <time>2016-06-05T11:52:54.927Z</time>
      </trkpt>
      <trkpt lat="14.44235" lon="-60.872">
        <ele>17</ele>
        <time>2016-06-05T11:52:55.934Z</time>
      </trkpt>
      <trkpt lat="14.44231" lon="-60.87198">
        <ele>18</ele>
        <time>2016-06-05T11:52:56.934Z</time>
      </trkpt>
      <trkpt lat="14.44227" lon="-60.87196">
        <ele>17</ele>
        <time>2016-06-05T11:52:57.928Z</time>
      </trkpt>
      <trkpt lat="14.44223" lon="-60.87193">
        <ele>17</ele>
        <time>2016-06-05T11:52:58.927Z</time>
      </trkpt>
      <trkpt lat="14.44219" lon="-60.87191">
        <ele>18</ele>
        <time>2016-06-05T11:52:59.927Z</time>
      </trkpt>
      <trkpt lat="14.44215" lon="-60.87188">
        <ele>18</ele>
        <time>2016-06-05T11:53:00.928Z</time>
      </trkpt>
      <trkpt lat="14.44211" lon="-60.87186">
        <ele>18</ele>
        <time>2016-06-05T11:53:01.926Z</time>
      </trkpt>
      <trkpt lat="14.44207" lon="-60.87183">
        <ele>18</ele>
        <time>2016-06-05T11:53:02.927Z</time>
      </trkpt>
      <trkpt lat="14.44202" lon="-60.87181">
        <ele>19</ele>
        <time>2016-06-05T11:53:03.928Z</time>
      </trkpt>
      <trkpt lat="14.44198" lon="-60.87178">
        <ele>19</ele>
        <time>2016-06-05T11:53:04.928Z</time>
      </trkpt>
      <trkpt lat="14.44195" lon="-60.87176">
        <ele>19</ele>
        <time>2016-06-05T11:53:05.928Z</time>
      </trkpt>
      <trkpt lat="14.44191" lon="-60.87174">
        <ele>19</ele>
        <time>2016-06-05T11:53:06.929Z</time>
      </trkpt>
      <trkpt lat="14.44188" lon="-60.87171">
        <ele>20</ele>
        <time>2016-06-05T11:53:07.928Z</time>
      </trkpt>
      <trkpt lat="14.44185" lon="-60.87169">
        <ele>20</ele>
        <time>2016-06-05T11:53:08.927Z</time>
      </trkpt>
      <trkpt lat="14.44182" lon="-60.87167">
        <ele>20</ele>
        <time>2016-06-05T11:53:09.928Z</time>
      </trkpt>
      <trkpt lat="14.44179" lon="-60.87165">
        <ele>20</ele>
        <time>2016-06-05T11:53:10.929Z</time>
      </trkpt>
      <trkpt lat="14.44176" lon="-60.87164">
        <ele>20</ele>
        <time>2016-06-05T11:53:11.926Z</time>
      </trkpt>
      <trkpt lat="14.44174" lon="-60.87163">
        <ele>19</ele>
        <time>2016-06-05T11:53:12.930Z</time>
      </trkpt>
      <trkpt lat="14.44172" lon="-60.87161">
        <ele>19</ele>
        <time>2016-06-05T11:53:13.944Z</time>
      </trkpt>
      <trkpt lat="14.4417" lon="-60.8716">
        <ele>19</ele>
        <time>2016-06-05T11:53:14.947Z</time>
      </trkpt>
      <trkpt lat="14.44168" lon="-60.87159">
        <ele>19</ele>
        <time>2016-06-05T11:53:15.936Z</time>
      </trkpt>
      <trkpt lat="14.44166" lon="-60.87157">
        <ele>19</ele>
        <time>2016-06-05T11:53:16.936Z</time>
      </trkpt>
      <trkpt lat="14.44164" lon="-60.87156">
        <ele>19</ele>
        <time>2016-06-05T11:53:17.936Z</time>
      </trkpt>
      <trkpt lat="14.44163" lon="-60.87155">
        <ele>20</ele>
        <time>2016-06-05T11:53:18.933Z</time>
      </trkpt>
      <trkpt lat="14.44161" lon="-60.87154">
        <ele>20</ele>
        <time>2016-06-05T11:53:19.932Z</time>
      </trkpt>
      <trkpt lat="14.4416" lon="-60.87153">
        <ele>21</ele>
        <time>2016-06-05T11:53:20.931Z</time>
      </trkpt>
      <trkpt lat="14.44158" lon="-60.87152">
        <ele>21</ele>
        <time>2016-06-05T11:53:21.927Z</time>
      </trkpt>
      <trkpt lat="14.44157" lon="-60.87152">
        <ele>21</ele>
        <time>2016-06-05T11:53:22.928Z</time>
      </trkpt>
      <trkpt lat="14.44155" lon="-60.87151">
        <ele>21</ele>
        <time>2016-06-05T11:53:23.927Z</time>
      </trkpt>
      <trkpt lat="14.44154" lon="-60.87151">
        <ele>21</ele>
        <time>2016-06-05T11:53:24.928Z</time>
      </trkpt>
      <trkpt lat="14.44152" lon="-60.8715">
        <ele>22</ele>
        <time>2016-06-05T11:53:25.927Z</time>
      </trkpt>
      <trkpt lat="14.44151" lon="-60.87149">
        <ele>22</ele>
        <time>2016-06-05T11:53:26.929Z</time>
      </trkpt>
      <trkpt lat="14.44149" lon="-60.87148">
        <ele>22</ele>
        <time>2016-06-05T11:53:27.930Z</time>
      </trkpt>
      <trkpt lat="14.44147" lon="-60.87147">
        <ele>21</ele>
        <time>2016-06-05T11:53:28.928Z</time>
      </trkpt>
      <trkpt lat="14.44145" lon="-60.87146">
        <ele>21</ele>
        <time>2016-06-05T11:53:29.928Z</time>
      </trkpt>
      <trkpt lat="14.44143" lon="-60.87145">
        <ele>21</ele>
        <time>2016-06-05T11:53:30.932Z</time>
      </trkpt>
      <trkpt lat="14.44142" lon="-60.87145">
        <ele>22</ele>
        <time>2016-06-05T11:53:31.929Z</time>
      </trkpt>
      <trkpt lat="14.44141" lon="-60.87145">
        <ele>22</ele>
        <time>2016-06-05T11:53:32.928Z</time>
      </trkpt>
      <trkpt lat="14.44139" lon="-60.87143">
        <ele>23</ele>
        <time>2016-06-05T11:53:33.929Z</time>
      </trkpt>
      <trkpt lat="14.44137" lon="-60.87143">
        <ele>23</ele>
        <time>2016-06-05T11:53:34.928Z</time>
      </trkpt>
      <trkpt lat="14.44135" lon="-60.87142">
        <ele>23</ele>
        <time>2016-06-05T11:53:35.930Z</time>
      </trkpt>
      <trkpt lat="14.44133" lon="-60.8714">
        <ele>23</ele>
        <time>2016-06-05T11:53:36.929Z</time>
      </trkpt>
      <trkpt lat="14.44132" lon="-60.87139">
        <ele>23</ele>
        <time>2016-06-05T11:53:37.930Z</time>
      </trkpt>
      <trkpt lat="14.44129" lon="-60.87138">
        <ele>23</ele>
        <time>2016-06-05T11:53:38.930Z</time>
      </trkpt>
      <trkpt lat="14.44127" lon="-60.87137">
        <ele>24</ele>
        <time>2016-06-05T11:53:39.932Z</time>
      </trkpt>
      <trkpt lat="14.44125" lon="-60.87136">
        <ele>24</ele>
        <time>2016-06-05T11:53:40.927Z</time>
      </trkpt>
      <trkpt lat="14.44122" lon="-60.87135">
        <ele>23</ele>
        <time>2016-06-05T11:53:41.931Z</time>
      </trkpt>
      <trkpt lat="14.4412" lon="-60.87134">
        <ele>24</ele>
        <time>2016-06-05T11:53:42.928Z</time>
      </trkpt>
      <trkpt lat="14.44118" lon="-60.87132">
        <ele>24</ele>
        <time>2016-06-05T11:53:43.928Z</time>
      </trkpt>
      <trkpt lat="14.44116" lon="-60.87131">
        <ele>24</ele>
        <time>2016-06-05T11:53:44.930Z</time>
      </trkpt>
      <trkpt lat="14.44114" lon="-60.87129">
        <ele>24</ele>
        <time>2016-06-05T11:53:45.927Z</time>
      </trkpt>
      <trkpt lat="14.44112" lon="-60.87128">
        <ele>24</ele>
        <time>2016-06-05T11:53:46.928Z</time>
      </trkpt>
      <trkpt lat="14.44111" lon="-60.87126">
        <ele>24</ele>
        <time>2016-06-05T11:53:47.930Z</time>
      </trkpt>
      <trkpt lat="14.44109" lon="-60.87125">
        <ele>25</ele>
        <time>2016-06-05T11:53:48.927Z</time>
      </trkpt>
      <trkpt lat="14.44107" lon="-60.87124">
        <ele>25</ele>
        <time>2016-06-05T11:53:49.929Z</time>
      </trkpt>
      <trkpt lat="14.44105" lon="-60.87123">
        <ele>25</ele>
        <time>2016-06-05T11:53:50.927Z</time>
      </trkpt>
      <trkpt lat="14.44103" lon="-60.87122">
        <ele>25</ele>
        <time>2016-06-05T11:53:51.929Z</time>
      </trkpt>
      <trkpt lat="14.44101" lon="-60.87121">
        <ele>25</ele>
        <time>2016-06-05T11:53:52.927Z</time>
      </trkpt>
      <trkpt lat="14.44099" lon="-60.8712">
        <ele>25</ele>
        <time>2016-06-05T11:53:53.930Z</time>
      </trkpt>
      <trkpt lat="14.44097" lon="-60.87119">
        <ele>26</ele>
        <time>2016-06-05T11:53:54.927Z</time>
      </trkpt>
      <trkpt lat="14.44095" lon="-60.87118">
        <ele>25</ele>
        <time>2016-06-05T11:53:55.929Z</time>
      </trkpt>
      <trkpt lat="14.44094" lon="-60.87118">
        <ele>26</ele>
        <time>2016-06-05T11:53:56.929Z</time>
      </trkpt>
      <trkpt lat="14.44092" lon="-60.87117">
        <ele>25</ele>
        <time>2016-06-05T11:53:57.927Z</time>
      </trkpt>
      <trkpt lat="14.4409" lon="-60.87116">
        <ele>25</ele>
        <time>2016-06-05T11:53:58.929Z</time>
      </trkpt>
      <trkpt lat="14.44088" lon="-60.87115">
        <ele>25</ele>
        <time>2016-06-05T11:53:59.940Z</time>
      </trkpt>
      <trkpt lat="14.44086" lon="-60.87114">
        <ele>25</ele>
        <time>2016-06-05T11:54:00.936Z</time>
      </trkpt>
      <trkpt lat="14.44085" lon="-60.87113">
        <ele>26</ele>
        <time>2016-06-05T11:54:01.932Z</time>
      </trkpt>
      <trkpt lat="14.44083" lon="-60.87112">
        <ele>26</ele>
        <time>2016-06-05T11:54:02.936Z</time>
      </trkpt>
      <trkpt lat="14.44081" lon="-60.87112">
        <ele>26</ele>
        <time>2016-06-05T11:54:03.938Z</time>
      </trkpt>
      <trkpt lat="14.44079" lon="-60.87111">
        <ele>26</ele>
        <time>2016-06-05T11:54:04.937Z</time>
      </trkpt>
      <trkpt lat="14.44076" lon="-60.8711">
        <ele>26</ele>
        <time>2016-06-05T11:54:05.934Z</time>
      </trkpt>
      <trkpt lat="14.44074" lon="-60.87109">
        <ele>27</ele>
        <time>2016-06-05T11:54:06.937Z</time>
      </trkpt>
      <trkpt lat="14.44072" lon="-60.87108">
        <ele>27</ele>
        <time>2016-06-05T11:54:07.927Z</time>
      </trkpt>
      <trkpt lat="14.4407" lon="-60.87107">
        <ele>28</ele>
        <time>2016-06-05T11:54:08.926Z</time>
      </trkpt>
      <trkpt lat="14.44069" lon="-60.87106">
        <ele>28</ele>
        <time>2016-06-05T11:54:09.928Z</time>
      </trkpt>
      <trkpt lat="14.44067" lon="-60.87105">
        <ele>28</ele>
        <time>2016-06-05T11:54:10.934Z</time>
      </trkpt>
      <trkpt lat="14.44065" lon="-60.87103">
        <ele>28</ele>
        <time>2016-06-05T11:54:11.935Z</time>
      </trkpt>
      <trkpt lat="14.44063" lon="-60.87103">
        <ele>28</ele>
        <time>2016-06-05T11:54:12.933Z</time>
      </trkpt>
      <trkpt lat="14.44062" lon="-60.87102">
        <ele>28</ele>
        <time>2016-06-05T11:54:13.936Z</time>
      </trkpt>
      <trkpt lat="14.4406" lon="-60.87101">
        <ele>28</ele>
        <time>2016-06-05T11:54:14.935Z</time>
      </trkpt>
      <trkpt lat="14.44058" lon="-60.871">
        <ele>28</ele>
        <time>2016-06-05T11:54:15.929Z</time>
      </trkpt>
      <trkpt lat="14.44056" lon="-60.87099">
        <ele>28</ele>
        <time>2016-06-05T11:54:16.929Z</time>
      </trkpt>
      <trkpt lat="14.44054" lon="-60.87098">
        <ele>27</ele>
        <time>2016-06-05T11:54:17.926Z</time>
      </trkpt>
      <trkpt lat="14.44052" lon="-60.87097">
        <ele>27</ele>
        <time>2016-06-05T11:54:18.925Z</time>
      </trkpt>
      <trkpt lat="14.4405" lon="-60.87096">
        <ele>28</ele>
        <time>2016-06-05T11:54:19.927Z</time>
      </trkpt>
      <trkpt lat="14.44049" lon="-60.87095">
        <ele>27</ele>
        <time>2016-06-05T11:54:20.929Z</time>
      </trkpt>
      <trkpt lat="14.44047" lon="-60.87094">
        <ele>28</ele>
        <time>2016-06-05T11:54:21.927Z</time>
      </trkpt>
      <trkpt lat="14.44045" lon="-60.87093">
        <ele>27</ele>
        <time>2016-06-05T11:54:22.927Z</time>
      </trkpt>
      <trkpt lat="14.44043" lon="-60.87092">
        <ele>27</ele>
        <time>2016-06-05T11:54:23.927Z</time>
      </trkpt>
      <trkpt lat="14.44041" lon="-60.87091">
        <ele>27</ele>
        <time>2016-06-05T11:54:24.928Z</time>
      </trkpt>
      <trkpt lat="14.44039" lon="-60.8709">
        <ele>27</ele>
        <time>2016-06-05T11:54:25.926Z</time>
      </trkpt>
      <trkpt lat="14.44038" lon="-60.87089">
        <ele>27</ele>
        <time>2016-06-05T11:54:26.927Z</time>
      </trkpt>
      <trkpt lat="14.44037" lon="-60.87088">
        <ele>27</ele>
        <time>2016-06-05T11:54:27.928Z</time>
      </trkpt>
      <trkpt lat="14.44035" lon="-60.87088">
        <ele>28</ele>
        <time>2016-06-05T11:54:28.927Z</time>
      </trkpt>
      <trkpt lat="14.44033" lon="-60.87087">
        <ele>28</ele>
        <time>2016-06-05T11:54:29.927Z</time>
      </trkpt>
      <trkpt lat="14.44032" lon="-60.87086">
        <ele>28</ele>
        <time>2016-06-05T11:54:30.930Z</time>
      </trkpt>
      <trkpt lat="14.4403" lon="-60.87084">
        <ele>28</ele>
        <time>2016-06-05T11:54:31.927Z</time>
      </trkpt>
      <trkpt lat="14.44029" lon="-60.87083">
        <ele>28</ele>
        <time>2016-06-05T11:54:32.924Z</time>
      </trkpt>
      <trkpt lat="14.44027" lon="-60.87082">
        <ele>28</ele>
        <time>2016-06-05T11:54:33.924Z</time>
      </trkpt>
      <trkpt lat="14.44026" lon="-60.87081">
        <ele>28</ele>
        <time>2016-06-05T11:54:34.927Z</time>
      </trkpt>
      <trkpt lat="14.44024" lon="-60.8708">
        <ele>28</ele>
        <time>2016-06-05T11:54:35.929Z</time>
      </trkpt>
      <trkpt lat="14.44023" lon="-60.8708">
        <ele>28</ele>
        <time>2016-06-05T11:54:36.929Z</time>
      </trkpt>
      <trkpt lat="14.44021" lon="-60.87078">
        <ele>28</ele>
        <time>2016-06-05T11:54:37.927Z</time>
      </trkpt>
      <trkpt lat="14.44019" lon="-60.87077">
        <ele>28</ele>
        <time>2016-06-05T11:54:38.927Z</time>
      </trkpt>
      <trkpt lat="14.44017" lon="-60.87076">
        <ele>29</ele>
        <time>2016-06-05T11:54:39.927Z</time>
      </trkpt>
      <trkpt lat="14.44016" lon="-60.87075">
        <ele>29</ele>
        <time>2016-06-05T11:54:40.926Z</time>
      </trkpt>
      <trkpt lat="14.44014" lon="-60.87074">
        <ele>30</ele>
        <time>2016-06-05T11:54:41.927Z</time>
      </trkpt>
      <trkpt lat="14.44012" lon="-60.87073">
        <ele>30</ele>
        <time>2016-06-05T11:54:42.927Z</time>
      </trkpt>
      <trkpt lat="14.44011" lon="-60.87072">
        <ele>30</ele>
        <time>2016-06-05T11:54:43.927Z</time>
      </trkpt>
      <trkpt lat="14.44009" lon="-60.8707">
        <ele>30</ele>
        <time>2016-06-05T11:54:44.927Z</time>
      </trkpt>
      <trkpt lat="14.44007" lon="-60.87069">
        <ele>30</ele>
        <time>2016-06-05T11:54:45.927Z</time>
      </trkpt>
      <trkpt lat="14.44006" lon="-60.87068">
        <ele>31</ele>
        <time>2016-06-05T11:54:46.929Z</time>
      </trkpt>
      <trkpt lat="14.44004" lon="-60.87067">
        <ele>31</ele>
        <time>2016-06-05T11:54:47.928Z</time>
      </trkpt>
      <trkpt lat="14.44003" lon="-60.87067">
        <ele>32</ele>
        <time>2016-06-05T11:54:48.931Z</time>
      </trkpt>
      <trkpt lat="14.44001" lon="-60.87066">
        <ele>33</ele>
        <time>2016-06-05T11:54:49.930Z</time>
      </trkpt>
      <trkpt lat="14.43999" lon="-60.87066">
        <ele>33</ele>
        <time>2016-06-05T11:54:50.929Z</time>
      </trkpt>
      <trkpt lat="14.43998" lon="-60.87065">
        <ele>34</ele>
        <time>2016-06-05T11:54:51.929Z</time>
      </trkpt>
      <trkpt lat="14.43996" lon="-60.87064">
        <ele>34</ele>
        <time>2016-06-05T11:54:52.929Z</time>
      </trkpt>
      <trkpt lat="14.43995" lon="-60.87063">
        <ele>34</ele>
        <time>2016-06-05T11:54:53.926Z</time>
      </trkpt>
      <trkpt lat="14.43993" lon="-60.87062">
        <ele>34</ele>
        <time>2016-06-05T11:54:54.927Z</time>
      </trkpt>
      <trkpt lat="14.43991" lon="-60.87061">
        <ele>34</ele>
        <time>2016-06-05T11:54:55.931Z</time>
      </trkpt>
      <trkpt lat="14.4399" lon="-60.8706">
        <ele>34</ele>
        <time>2016-06-05T11:54:56.925Z</time>
      </trkpt>
      <trkpt lat="14.43989" lon="-60.87059">
        <ele>35</ele>
        <time>2016-06-05T11:54:57.927Z</time>
      </trkpt>
      <trkpt lat="14.43987" lon="-60.87058">
        <ele>34</ele>
        <time>2016-06-05T11:54:58.931Z</time>
      </trkpt>
      <trkpt lat="14.43986" lon="-60.87057">
        <ele>35</ele>
        <time>2016-06-05T11:54:59.929Z</time>
      </trkpt>
      <trkpt lat="14.43984" lon="-60.87057">
        <ele>35</ele>
        <time>2016-06-05T11:55:00.929Z</time>
      </trkpt>
      <trkpt lat="14.43982" lon="-60.87056">
        <ele>36</ele>
        <time>2016-06-05T11:55:01.927Z</time>
      </trkpt>
      <trkpt lat="14.4398" lon="-60.87056">
        <ele>36</ele>
        <time>2016-06-05T11:55:02.927Z</time>
      </trkpt>
      <trkpt lat="14.43979" lon="-60.87056">
        <ele>36</ele>
        <time>2016-06-05T11:55:03.927Z</time>
      </trkpt>
      <trkpt lat="14.43977" lon="-60.87055">
        <ele>35</ele>
        <time>2016-06-05T11:55:04.926Z</time>
      </trkpt>
      <trkpt lat="14.43976" lon="-60.87055">
        <ele>36</ele>
        <time>2016-06-05T11:55:05.927Z</time>
      </trkpt>
      <trkpt lat="14.43974" lon="-60.87054">
        <ele>36</ele>
        <time>2016-06-05T11:55:06.927Z</time>
      </trkpt>
      <trkpt lat="14.43973" lon="-60.87054">
        <ele>37</ele>
        <time>2016-06-05T11:55:07.928Z</time>
      </trkpt>
      <trkpt lat="14.43971" lon="-60.87053">
        <ele>36</ele>
        <time>2016-06-05T11:55:09.926Z</time>
      </trkpt>
      <trkpt lat="14.43969" lon="-60.87052">
        <ele>37</ele>
        <time>2016-06-05T11:55:10.928Z</time>
      </trkpt>
      <trkpt lat="14.43968" lon="-60.87051">
        <ele>37</ele>
        <time>2016-06-05T11:55:11.927Z</time>
      </trkpt>
      <trkpt lat="14.43966" lon="-60.87051">
        <ele>37</ele>
        <time>2016-06-05T11:55:12.927Z</time>
      </trkpt>
      <trkpt lat="14.43965" lon="-60.8705">
        <ele>37</ele>
        <time>2016-06-05T11:55:13.929Z</time>
      </trkpt>
      <trkpt lat="14.43963" lon="-60.87049">
        <ele>37</ele>
        <time>2016-06-05T11:55:14.931Z</time>
      </trkpt>
      <trkpt lat="14.43962" lon="-60.87049">
        <ele>37</ele>
        <time>2016-06-05T11:55:15.922Z</time>
      </trkpt>
      <trkpt lat="14.4396" lon="-60.87049">
        <ele>37</ele>
        <time>2016-06-05T11:55:16.921Z</time>
      </trkpt>
      <trkpt lat="14.43958" lon="-60.87048">
        <ele>38</ele>
        <time>2016-06-05T11:55:17.925Z</time>
      </trkpt>
      <trkpt lat="14.43957" lon="-60.87047">
        <ele>37</ele>
        <time>2016-06-05T11:55:18.923Z</time>
      </trkpt>
      <trkpt lat="14.43955" lon="-60.87046">
        <ele>38</ele>
        <time>2016-06-05T11:55:19.921Z</time>
      </trkpt>
      <trkpt lat="14.43954" lon="-60.87045">
        <ele>38</ele>
        <time>2016-06-05T11:55:20.922Z</time>
      </trkpt>
      <trkpt lat="14.43952" lon="-60.87045">
        <ele>38</ele>
        <time>2016-06-05T11:55:21.921Z</time>
      </trkpt>
      <trkpt lat="14.43951" lon="-60.87044">
        <ele>38</ele>
        <time>2016-06-05T11:55:22.925Z</time>
      </trkpt>
      <trkpt lat="14.43949" lon="-60.87042">
        <ele>38</ele>
        <time>2016-06-05T11:55:23.928Z</time>
      </trkpt>
      <trkpt lat="14.43948" lon="-60.87041">
        <ele>39</ele>
        <time>2016-06-05T11:55:24.931Z</time>
      </trkpt>
      <trkpt lat="14.43946" lon="-60.8704">
        <ele>39</ele>
        <time>2016-06-05T11:55:25.928Z</time>
      </trkpt>
      <trkpt lat="14.43945" lon="-60.87039">
        <ele>40</ele>
        <time>2016-06-05T11:55:26.930Z</time>
      </trkpt>
      <trkpt lat="14.43943" lon="-60.87039">
        <ele>40</ele>
        <time>2016-06-05T11:55:27.929Z</time>
      </trkpt>
      <trkpt lat="14.43941" lon="-60.87038">
        <ele>41</ele>
        <time>2016-06-05T11:55:28.927Z</time>
      </trkpt>
      <trkpt lat="14.4394" lon="-60.87037">
        <ele>41</ele>
        <time>2016-06-05T11:55:29.927Z</time>
      </trkpt>
      <trkpt lat="14.43938" lon="-60.87037">
        <ele>41</ele>
        <time>2016-06-05T11:55:30.926Z</time>
      </trkpt>
      <trkpt lat="14.43937" lon="-60.87036">
        <ele>42</ele>
        <time>2016-06-05T11:55:31.926Z</time>
      </trkpt>
      <trkpt lat="14.43935" lon="-60.87035">
        <ele>41</ele>
        <time>2016-06-05T11:55:32.928Z</time>
      </trkpt>
      <trkpt lat="14.43933" lon="-60.87034">
        <ele>41</ele>
        <time>2016-06-05T11:55:33.927Z</time>
      </trkpt>
      <trkpt lat="14.43932" lon="-60.87034">
        <ele>41</ele>
        <time>2016-06-05T11:55:34.928Z</time>
      </trkpt>
      <trkpt lat="14.4393" lon="-60.87033">
        <ele>41</ele>
        <time>2016-06-05T11:55:35.931Z</time>
      </trkpt>
      <trkpt lat="14.43929" lon="-60.87033">
        <ele>41</ele>
        <time>2016-06-05T11:55:36.935Z</time>
      </trkpt>
      <trkpt lat="14.43928" lon="-60.87032">
        <ele>41</ele>
        <time>2016-06-05T11:55:37.927Z</time>
      </trkpt>
      <trkpt lat="14.43926" lon="-60.87031">
        <ele>40</ele>
        <time>2016-06-05T11:55:38.927Z</time>
      </trkpt>
      <trkpt lat="14.43925" lon="-60.87031">
        <ele>41</ele>
        <time>2016-06-05T11:55:39.928Z</time>
      </trkpt>
      <trkpt lat="14.43924" lon="-60.8703">
        <ele>41</ele>
        <time>2016-06-05T11:55:40.928Z</time>
      </trkpt>
      <trkpt lat="14.43923" lon="-60.87029">
        <ele>41</ele>
        <time>2016-06-05T11:55:41.926Z</time>
      </trkpt>
      <trkpt lat="14.43921" lon="-60.87028">
        <ele>41</ele>
        <time>2016-06-05T11:55:42.929Z</time>
      </trkpt>
      <trkpt lat="14.43919" lon="-60.87026">
        <ele>42</ele>
        <time>2016-06-05T11:55:43.933Z</time>
      </trkpt>
      <trkpt lat="14.43918" lon="-60.87025">
        <ele>42</ele>
        <time>2016-06-05T11:55:44.929Z</time>
      </trkpt>
      <trkpt lat="14.43916" lon="-60.87024">
        <ele>42</ele>
        <time>2016-06-05T11:55:45.928Z</time>
      </trkpt>
      <trkpt lat="14.43914" lon="-60.87023">
        <ele>42</ele>
        <time>2016-06-05T11:55:46.929Z</time>
      </trkpt>
      <trkpt lat="14.43912" lon="-60.87021">
        <ele>42</ele>
        <time>2016-06-05T11:55:47.928Z</time>
      </trkpt>
      <trkpt lat="14.43909" lon="-60.8702">
        <ele>41</ele>
        <time>2016-06-05T11:55:48.931Z</time>
      </trkpt>
      <trkpt lat="14.43906" lon="-60.87018">
        <ele>41</ele>
        <time>2016-06-05T11:55:49.927Z</time>
      </trkpt>
      <trkpt lat="14.43902" lon="-60.87017">
        <ele>41</ele>
        <time>2016-06-05T11:55:50.927Z</time>
      </trkpt>
      <trkpt lat="14.43898" lon="-60.87015">
        <ele>41</ele>
        <time>2016-06-05T11:55:51.929Z</time>
      </trkpt>
      <trkpt lat="14.43893" lon="-60.87012">
        <ele>39</ele>
        <time>2016-06-05T11:55:52.929Z</time>
      </trkpt>
      <trkpt lat="14.43887" lon="-60.8701">
        <ele>38</ele>
        <time>2016-06-05T11:55:53.926Z</time>
      </trkpt>
      <trkpt lat="14.43881" lon="-60.87008">
        <ele>37</ele>
        <time>2016-06-05T11:55:54.928Z</time>
      </trkpt>
      <trkpt lat="14.43874" lon="-60.87006">
        <ele>36</ele>
        <time>2016-06-05T11:55:55.928Z</time>
      </trkpt>
      <trkpt lat="14.43866" lon="-60.87004">
        <ele>36</ele>
        <time>2016-06-05T11:55:56.927Z</time>
      </trkpt>
      <trkpt lat="14.43859" lon="-60.87001">
        <ele>34</ele>
        <time>2016-06-05T11:55:57.927Z</time>
      </trkpt>
      <trkpt lat="14.4385" lon="-60.87">
        <ele>33</ele>
        <time>2016-06-05T11:55:58.927Z</time>
      </trkpt>
      <trkpt lat="14.43843" lon="-60.86998">
        <ele>33</ele>
        <time>2016-06-05T11:55:59.925Z</time>
      </trkpt>
      <trkpt lat="14.43833" lon="-60.86998">
        <ele>32</ele>
        <time>2016-06-05T11:56:00.925Z</time>
      </trkpt>
      <trkpt lat="14.43824" lon="-60.86996">
        <ele>29</ele>
        <time>2016-06-05T11:56:01.928Z</time>
      </trkpt>
      <trkpt lat="14.43813" lon="-60.86993">
        <ele>27</ele>
        <time>2016-06-05T11:56:02.928Z</time>
      </trkpt>
      <trkpt lat="14.43804" lon="-60.86991">
        <ele>26</ele>
        <time>2016-06-05T11:56:03.928Z</time>
      </trkpt>
      <trkpt lat="14.43795" lon="-60.86988">
        <ele>26</ele>
        <time>2016-06-05T11:56:04.932Z</time>
      </trkpt>
      <trkpt lat="14.43786" lon="-60.86984">
        <ele>26</ele>
        <time>2016-06-05T11:56:05.935Z</time>
      </trkpt>
      <trkpt lat="14.43778" lon="-60.86982">
        <ele>25</ele>
        <time>2016-06-05T11:56:06.934Z</time>
      </trkpt>
      <trkpt lat="14.43769" lon="-60.86978">
        <ele>25</ele>
        <time>2016-06-05T11:56:07.932Z</time>
      </trkpt>
      <trkpt lat="14.43761" lon="-60.86974">
        <ele>25</ele>
        <time>2016-06-05T11:56:08.934Z</time>
      </trkpt>
      <trkpt lat="14.43755" lon="-60.86968">
        <ele>25</ele>
        <time>2016-06-05T11:56:09.935Z</time>
      </trkpt>
      <trkpt lat="14.43748" lon="-60.86962">
        <ele>25</ele>
        <time>2016-06-05T11:56:10.935Z</time>
      </trkpt>
      <trkpt lat="14.43745" lon="-60.86958">
        <ele>24</ele>
        <time>2016-06-05T11:56:11.935Z</time>
      </trkpt>
      <trkpt lat="14.43742" lon="-60.86951">
        <ele>24</ele>
        <time>2016-06-05T11:56:12.933Z</time>
      </trkpt>
      <trkpt lat="14.4374" lon="-60.86946">
        <ele>24</ele>
        <time>2016-06-05T11:56:13.929Z</time>
      </trkpt>
      <trkpt lat="14.43738" lon="-60.86943">
        <ele>24</ele>
        <time>2016-06-05T11:56:14.930Z</time>
      </trkpt>
      <trkpt lat="14.43737" lon="-60.86941">
        <ele>24</ele>
        <time>2016-06-05T11:56:15.928Z</time>
      </trkpt>
      <trkpt lat="14.43737" lon="-60.86939">
        <ele>23</ele>
        <time>2016-06-05T11:56:16.929Z</time>
      </trkpt>
      <trkpt lat="14.43738" lon="-60.86936">
        <ele>22</ele>
        <time>2016-06-05T11:56:17.928Z</time>
      </trkpt>
      <trkpt lat="14.43738" lon="-60.86935">
        <ele>22</ele>
        <time>2016-06-05T11:56:18.928Z</time>
      </trkpt>
      <trkpt lat="14.43738" lon="-60.86933">
        <ele>21</ele>
        <time>2016-06-05T11:56:19.930Z</time>
      </trkpt>
      <trkpt lat="14.43738" lon="-60.8693">
        <ele>22</ele>
        <time>2016-06-05T11:56:21.929Z</time>
      </trkpt>
      <trkpt lat="14.43737" lon="-60.86929">
        <ele>21</ele>
        <time>2016-06-05T11:56:22.927Z</time>
      </trkpt>
      <trkpt lat="14.43737" lon="-60.86927">
        <ele>22</ele>
        <time>2016-06-05T11:56:23.926Z</time>
      </trkpt>
      <trkpt lat="14.43736" lon="-60.86925">
        <ele>22</ele>
        <time>2016-06-05T11:56:24.929Z</time>
      </trkpt>
      <trkpt lat="14.43736" lon="-60.86923">
        <ele>22</ele>
        <time>2016-06-05T11:56:25.929Z</time>
      </trkpt>
      <trkpt lat="14.43735" lon="-60.86921">
        <ele>22</ele>
        <time>2016-06-05T11:56:26.928Z</time>
      </trkpt>
      <trkpt lat="14.43735" lon="-60.8692">
        <ele>22</ele>
        <time>2016-06-05T11:56:27.929Z</time>
      </trkpt>
      <trkpt lat="14.43735" lon="-60.86918">
        <ele>22</ele>
        <time>2016-06-05T11:56:28.926Z</time>
      </trkpt>
      <trkpt lat="14.43734" lon="-60.86916">
        <ele>22</ele>
        <time>2016-06-05T11:56:29.926Z</time>
      </trkpt>
      <trkpt lat="14.43734" lon="-60.86914">
        <ele>22</ele>
        <time>2016-06-05T11:56:30.927Z</time>
      </trkpt>
      <trkpt lat="14.43734" lon="-60.86912">
        <ele>22</ele>
        <time>2016-06-05T11:56:31.926Z</time>
      </trkpt>
      <trkpt lat="14.43736" lon="-60.8691">
        <ele>22</ele>
        <time>2016-06-05T11:56:33.928Z</time>
      </trkpt>
      <trkpt lat="14.43737" lon="-60.86909">
        <ele>22</ele>
        <time>2016-06-05T11:56:34.927Z</time>
      </trkpt>
      <trkpt lat="14.43737" lon="-60.86907">
        <ele>22</ele>
        <time>2016-06-05T11:56:35.928Z</time>
      </trkpt>
      <trkpt lat="14.43738" lon="-60.86906">
        <ele>22</ele>
        <time>2016-06-05T11:56:36.924Z</time>
      </trkpt>
      <trkpt lat="14.43738" lon="-60.86904">
        <ele>21</ele>
        <time>2016-06-05T11:56:37.924Z</time>
      </trkpt>
      <trkpt lat="14.43738" lon="-60.86902">
        <ele>20</ele>
        <time>2016-06-05T11:56:38.928Z</time>
      </trkpt>
      <trkpt lat="14.43739" lon="-60.86901">
        <ele>20</ele>
        <time>2016-06-05T11:56:39.931Z</time>
      </trkpt>
      <trkpt lat="14.43741" lon="-60.86901">
        <ele>21</ele>
        <time>2016-06-05T11:56:40.934Z</time>
      </trkpt>
      <trkpt lat="14.43741" lon="-60.86898">
        <ele>21</ele>
        <time>2016-06-05T11:56:41.928Z</time>
      </trkpt>
      <trkpt lat="14.43741" lon="-60.86897">
        <ele>22</ele>
        <time>2016-06-05T11:56:42.929Z</time>
      </trkpt>
      <trkpt lat="14.43743" lon="-60.86894">
        <ele>20</ele>
        <time>2016-06-05T11:56:44.927Z</time>
      </trkpt>
      <trkpt lat="14.43743" lon="-60.86893">
        <ele>21</ele>
        <time>2016-06-05T11:56:45.926Z</time>
      </trkpt>
      <trkpt lat="14.43744" lon="-60.86891">
        <ele>21</ele>
        <time>2016-06-05T11:56:46.927Z</time>
      </trkpt>
      <trkpt lat="14.43745" lon="-60.8689">
        <ele>22</ele>
        <time>2016-06-05T11:56:47.926Z</time>
      </trkpt>
      <trkpt lat="14.43745" lon="-60.86888">
        <ele>22</ele>
        <time>2016-06-05T11:56:48.926Z</time>
      </trkpt>
      <trkpt lat="14.43746" lon="-60.86886">
        <ele>22</ele>
        <time>2016-06-05T11:56:49.927Z</time>
      </trkpt>
      <trkpt lat="14.43747" lon="-60.86884">
        <ele>22</ele>
        <time>2016-06-05T11:56:50.930Z</time>
      </trkpt>
      <trkpt lat="14.43748" lon="-60.86882">
        <ele>22</ele>
        <time>2016-06-05T11:56:51.929Z</time>
      </trkpt>
      <trkpt lat="14.43748" lon="-60.8688">
        <ele>22</ele>
        <time>2016-06-05T11:56:52.927Z</time>
      </trkpt>
      <trkpt lat="14.43748" lon="-60.86879">
        <ele>23</ele>
        <time>2016-06-05T11:56:53.927Z</time>
      </trkpt>
      <trkpt lat="14.43749" lon="-60.86877">
        <ele>22</ele>
        <time>2016-06-05T11:56:54.926Z</time>
      </trkpt>
      <trkpt lat="14.43749" lon="-60.86874">
        <ele>23</ele>
        <time>2016-06-05T11:56:55.930Z</time>
      </trkpt>
      <trkpt lat="14.4375" lon="-60.86872">
        <ele>23</ele>
        <time>2016-06-05T11:56:56.927Z</time>
      </trkpt>
      <trkpt lat="14.43753" lon="-60.86869">
        <ele>24</ele>
        <time>2016-06-05T11:56:57.926Z</time>
      </trkpt>
      <trkpt lat="14.43753" lon="-60.86867">
        <ele>24</ele>
        <time>2016-06-05T11:56:58.927Z</time>
      </trkpt>
      <trkpt lat="14.43754" lon="-60.86864">
        <ele>26</ele>
        <time>2016-06-05T11:56:59.926Z</time>
      </trkpt>
      <trkpt lat="14.43755" lon="-60.86862">
        <ele>26</ele>
        <time>2016-06-05T11:57:00.927Z</time>
      </trkpt>
      <trkpt lat="14.43756" lon="-60.8686">
        <ele>26</ele>
        <time>2016-06-05T11:57:01.925Z</time>
      </trkpt>
      <trkpt lat="14.43757" lon="-60.86858">
        <ele>26</ele>
        <time>2016-06-05T11:57:02.926Z</time>
      </trkpt>
      <trkpt lat="14.43757" lon="-60.86856">
        <ele>25</ele>
        <time>2016-06-05T11:57:03.928Z</time>
      </trkpt>
      <trkpt lat="14.43757" lon="-60.86854">
        <ele>25</ele>
        <time>2016-06-05T11:57:04.926Z</time>
      </trkpt>
      <trkpt lat="14.43758" lon="-60.86852">
        <ele>25</ele>
        <time>2016-06-05T11:57:05.926Z</time>
      </trkpt>
      <trkpt lat="14.43759" lon="-60.8685">
        <ele>25</ele>
        <time>2016-06-05T11:57:06.926Z</time>
      </trkpt>
      <trkpt lat="14.4376" lon="-60.86848">
        <ele>25</ele>
        <time>2016-06-05T11:57:07.928Z</time>
      </trkpt>
      <trkpt lat="14.43761" lon="-60.86846">
        <ele>27</ele>
        <time>2016-06-05T11:57:08.926Z</time>
      </trkpt>
      <trkpt lat="14.43761" lon="-60.86844">
        <ele>27</ele>
        <time>2016-06-05T11:57:09.928Z</time>
      </trkpt>
      <trkpt lat="14.43762" lon="-60.86842">
        <ele>27</ele>
        <time>2016-06-05T11:57:10.926Z</time>
      </trkpt>
      <trkpt lat="14.43763" lon="-60.86839">
        <ele>28</ele>
        <time>2016-06-05T11:57:11.923Z</time>
      </trkpt>
      <trkpt lat="14.43764" lon="-60.86837">
        <ele>28</ele>
        <time>2016-06-05T11:57:12.925Z</time>
      </trkpt>
      <trkpt lat="14.43764" lon="-60.86835">
        <ele>28</ele>
        <time>2016-06-05T11:57:13.927Z</time>
      </trkpt>
      <trkpt lat="14.43765" lon="-60.86833">
        <ele>28</ele>
        <time>2016-06-05T11:57:14.927Z</time>
      </trkpt>
      <trkpt lat="14.43765" lon="-60.86831">
        <ele>27</ele>
        <time>2016-06-05T11:57:15.926Z</time>
      </trkpt>
      <trkpt lat="14.43765" lon="-60.86829">
        <ele>27</ele>
        <time>2016-06-05T11:57:16.926Z</time>
      </trkpt>
      <trkpt lat="14.43766" lon="-60.86827">
        <ele>27</ele>
        <time>2016-06-05T11:57:17.927Z</time>
      </trkpt>
      <trkpt lat="14.43767" lon="-60.86824">
        <ele>27</ele>
        <time>2016-06-05T11:57:18.926Z</time>
      </trkpt>
      <trkpt lat="14.43768" lon="-60.86822">
        <ele>28</ele>
        <time>2016-06-05T11:57:19.928Z</time>
      </trkpt>
      <trkpt lat="14.43769" lon="-60.8682">
        <ele>27</ele>
        <time>2016-06-05T11:57:20.927Z</time>
      </trkpt>
      <trkpt lat="14.43769" lon="-60.86818">
        <ele>27</ele>
        <time>2016-06-05T11:57:21.926Z</time>
      </trkpt>
      <trkpt lat="14.4377" lon="-60.86816">
        <ele>27</ele>
        <time>2016-06-05T11:57:22.927Z</time>
      </trkpt>
      <trkpt lat="14.4377" lon="-60.86814">
        <ele>27</ele>
        <time>2016-06-05T11:57:23.926Z</time>
      </trkpt>
      <trkpt lat="14.4377" lon="-60.86811">
        <ele>27</ele>
        <time>2016-06-05T11:57:24.927Z</time>
      </trkpt>
      <trkpt lat="14.43771" lon="-60.86809">
        <ele>28</ele>
        <time>2016-06-05T11:57:25.927Z</time>
      </trkpt>
      <trkpt lat="14.43772" lon="-60.86807">
        <ele>28</ele>
        <time>2016-06-05T11:57:26.926Z</time>
      </trkpt>
      <trkpt lat="14.43772" lon="-60.86805">
        <ele>28</ele>
        <time>2016-06-05T11:57:27.925Z</time>
      </trkpt>
      <trkpt lat="14.43773" lon="-60.86802">
        <ele>29</ele>
        <time>2016-06-05T11:57:28.923Z</time>
      </trkpt>
      <trkpt lat="14.43775" lon="-60.86801">
        <ele>30</ele>
        <time>2016-06-05T11:57:29.926Z</time>
      </trkpt>
      <trkpt lat="14.43776" lon="-60.86798">
        <ele>30</ele>
        <time>2016-06-05T11:57:30.928Z</time>
      </trkpt>
      <trkpt lat="14.43777" lon="-60.86796">
        <ele>30</ele>
        <time>2016-06-05T11:57:31.926Z</time>
      </trkpt>
      <trkpt lat="14.43777" lon="-60.86794">
        <ele>30</ele>
        <time>2016-06-05T11:57:32.928Z</time>
      </trkpt>
      <trkpt lat="14.43778" lon="-60.86792">
        <ele>30</ele>
        <time>2016-06-05T11:57:33.929Z</time>
      </trkpt>
      <trkpt lat="14.43778" lon="-60.8679">
        <ele>31</ele>
        <time>2016-06-05T11:57:34.926Z</time>
      </trkpt>
      <trkpt lat="14.43779" lon="-60.86788">
        <ele>32</ele>
        <time>2016-06-05T11:57:35.927Z</time>
      </trkpt>
      <trkpt lat="14.4378" lon="-60.86785">
        <ele>32</ele>
        <time>2016-06-05T11:57:36.927Z</time>
      </trkpt>
      <trkpt lat="14.43781" lon="-60.86783">
        <ele>32</ele>
        <time>2016-06-05T11:57:37.927Z</time>
      </trkpt>
      <trkpt lat="14.43782" lon="-60.86781">
        <ele>32</ele>
        <time>2016-06-05T11:57:38.928Z</time>
      </trkpt>
      <trkpt lat="14.43783" lon="-60.86779">
        <ele>32</ele>
        <time>2016-06-05T11:57:39.928Z</time>
      </trkpt>
      <trkpt lat="14.43784" lon="-60.86777">
        <ele>32</ele>
        <time>2016-06-05T11:57:40.927Z</time>
      </trkpt>
      <trkpt lat="14.43785" lon="-60.86775">
        <ele>34</ele>
        <time>2016-06-05T11:57:41.926Z</time>
      </trkpt>
      <trkpt lat="14.43786" lon="-60.86773">
        <ele>34</ele>
        <time>2016-06-05T11:57:42.926Z</time>
      </trkpt>
      <trkpt lat="14.43787" lon="-60.8677">
        <ele>33</ele>
        <time>2016-06-05T11:57:43.926Z</time>
      </trkpt>
      <trkpt lat="14.43787" lon="-60.86768">
        <ele>34</ele>
        <time>2016-06-05T11:57:44.926Z</time>
      </trkpt>
      <trkpt lat="14.43788" lon="-60.86765">
        <ele>34</ele>
        <time>2016-06-05T11:57:45.928Z</time>
      </trkpt>
      <trkpt lat="14.43789" lon="-60.86763">
        <ele>35</ele>
        <time>2016-06-05T11:57:46.930Z</time>
      </trkpt>
      <trkpt lat="14.4379" lon="-60.86761">
        <ele>35</ele>
        <time>2016-06-05T11:57:47.929Z</time>
      </trkpt>
      <trkpt lat="14.4379" lon="-60.86758">
        <ele>33</ele>
        <time>2016-06-05T11:57:48.931Z</time>
      </trkpt>
      <trkpt lat="14.43791" lon="-60.86757">
        <ele>33</ele>
        <time>2016-06-05T11:57:49.927Z</time>
      </trkpt>
      <trkpt lat="14.43792" lon="-60.86755">
        <ele>33</ele>
        <time>2016-06-05T11:57:50.928Z</time>
      </trkpt>
      <trkpt lat="14.43793" lon="-60.86752">
        <ele>34</ele>
        <time>2016-06-05T11:57:51.929Z</time>
      </trkpt>
      <trkpt lat="14.43793" lon="-60.86751">
        <ele>33</ele>
        <time>2016-06-05T11:57:52.928Z</time>
      </trkpt>
      <trkpt lat="14.43794" lon="-60.86749">
        <ele>35</ele>
        <time>2016-06-05T11:57:53.927Z</time>
      </trkpt>
      <trkpt lat="14.43795" lon="-60.86747">
        <ele>35</ele>
        <time>2016-06-05T11:57:54.927Z</time>
      </trkpt>
      <trkpt lat="14.43796" lon="-60.86745">
        <ele>35</ele>
        <time>2016-06-05T11:57:55.927Z</time>
      </trkpt>
      <trkpt lat="14.43797" lon="-60.86743">
        <ele>36</ele>
        <time>2016-06-05T11:57:56.929Z</time>
      </trkpt>
      <trkpt lat="14.43798" lon="-60.86742">
        <ele>36</ele>
        <time>2016-06-05T11:57:57.928Z</time>
      </trkpt>
      <trkpt lat="14.43799" lon="-60.8674">
        <ele>36</ele>
        <time>2016-06-05T11:57:58.928Z</time>
      </trkpt>
      <trkpt lat="14.43799" lon="-60.86738">
        <ele>36</ele>
        <time>2016-06-05T11:57:59.926Z</time>
      </trkpt>
      <trkpt lat="14.43801" lon="-60.86737">
        <ele>35</ele>
        <time>2016-06-05T11:58:00.926Z</time>
      </trkpt>
      <trkpt lat="14.43802" lon="-60.86735">
        <ele>35</ele>
        <time>2016-06-05T11:58:01.925Z</time>
      </trkpt>
      <trkpt lat="14.43803" lon="-60.86734">
        <ele>35</ele>
        <time>2016-06-05T11:58:02.926Z</time>
      </trkpt>
      <trkpt lat="14.43804" lon="-60.86732">
        <ele>35</ele>
        <time>2016-06-05T11:58:03.928Z</time>
      </trkpt>
      <trkpt lat="14.43805" lon="-60.8673">
        <ele>36</ele>
        <time>2016-06-05T11:58:04.928Z</time>
      </trkpt>
      <trkpt lat="14.43805" lon="-60.86729">
        <ele>36</ele>
        <time>2016-06-05T11:58:05.922Z</time>
      </trkpt>
      <trkpt lat="14.43806" lon="-60.86727">
        <ele>36</ele>
        <time>2016-06-05T11:58:06.923Z</time>
      </trkpt>
      <trkpt lat="14.43807" lon="-60.86726">
        <ele>36</ele>
        <time>2016-06-05T11:58:07.924Z</time>
      </trkpt>
      <trkpt lat="14.43808" lon="-60.86724">
        <ele>36</ele>
        <time>2016-06-05T11:58:08.921Z</time>
      </trkpt>
      <trkpt lat="14.4381" lon="-60.86722">
        <ele>35</ele>
        <time>2016-06-05T11:58:09.923Z</time>
      </trkpt>
      <trkpt lat="14.43811" lon="-60.86721">
        <ele>35</ele>
        <time>2016-06-05T11:58:10.927Z</time>
      </trkpt>
      <trkpt lat="14.43812" lon="-60.86719">
        <ele>35</ele>
        <time>2016-06-05T11:58:11.928Z</time>
      </trkpt>
      <trkpt lat="14.43813" lon="-60.86717">
        <ele>34</ele>
        <time>2016-06-05T11:58:12.927Z</time>
      </trkpt>
      <trkpt lat="14.43814" lon="-60.86716">
        <ele>35</ele>
        <time>2016-06-05T11:58:13.929Z</time>
      </trkpt>
      <trkpt lat="14.43814" lon="-60.86715">
        <ele>35</ele>
        <time>2016-06-05T11:58:14.929Z</time>
      </trkpt>
      <trkpt lat="14.43815" lon="-60.86713">
        <ele>35</ele>
        <time>2016-06-05T11:58:15.926Z</time>
      </trkpt>
      <trkpt lat="14.43817" lon="-60.86711">
        <ele>34</ele>
        <time>2016-06-05T11:58:16.925Z</time>
      </trkpt>
      <trkpt lat="14.43819" lon="-60.8671">
        <ele>34</ele>
        <time>2016-06-05T11:58:17.926Z</time>
      </trkpt>
      <trkpt lat="14.4382" lon="-60.86708">
        <ele>34</ele>
        <time>2016-06-05T11:58:18.926Z</time>
      </trkpt>
      <trkpt lat="14.43822" lon="-60.86707">
        <ele>34</ele>
        <time>2016-06-05T11:58:19.928Z</time>
      </trkpt>
      <trkpt lat="14.43823" lon="-60.86705">
        <ele>34</ele>
        <time>2016-06-05T11:58:20.925Z</time>
      </trkpt>
      <trkpt lat="14.43824" lon="-60.86704">
        <ele>34</ele>
        <time>2016-06-05T11:58:21.925Z</time>
      </trkpt>
      <trkpt lat="14.43826" lon="-60.86702">
        <ele>35</ele>
        <time>2016-06-05T11:58:22.928Z</time>
      </trkpt>
      <trkpt lat="14.43827" lon="-60.867">
        <ele>35</ele>
        <time>2016-06-05T11:58:23.927Z</time>
      </trkpt>
      <trkpt lat="14.43828" lon="-60.86698">
        <ele>36</ele>
        <time>2016-06-05T11:58:24.927Z</time>
      </trkpt>
      <trkpt lat="14.4383" lon="-60.86697">
        <ele>36</ele>
        <time>2016-06-05T11:58:25.926Z</time>
      </trkpt>
      <trkpt lat="14.43831" lon="-60.86695">
        <ele>37</ele>
        <time>2016-06-05T11:58:26.927Z</time>
      </trkpt>
      <trkpt lat="14.43832" lon="-60.86693">
        <ele>37</ele>
        <time>2016-06-05T11:58:27.922Z</time>
      </trkpt>
      <trkpt lat="14.43833" lon="-60.86692">
        <ele>37</ele>
        <time>2016-06-05T11:58:28.924Z</time>
      </trkpt>
      <trkpt lat="14.43834" lon="-60.8669">
        <ele>38</ele>
        <time>2016-06-05T11:58:29.927Z</time>
      </trkpt>
      <trkpt lat="14.43835" lon="-60.86688">
        <ele>38</ele>
        <time>2016-06-05T11:58:30.927Z</time>
      </trkpt>
      <trkpt lat="14.43835" lon="-60.86686">
        <ele>39</ele>
        <time>2016-06-05T11:58:31.927Z</time>
      </trkpt>
      <trkpt lat="14.43835" lon="-60.86684">
        <ele>39</ele>
        <time>2016-06-05T11:58:32.928Z</time>
      </trkpt>
      <trkpt lat="14.43834" lon="-60.86682">
        <ele>39</ele>
        <time>2016-06-05T11:58:33.928Z</time>
      </trkpt>
      <trkpt lat="14.43833" lon="-60.8668">
        <ele>39</ele>
        <time>2016-06-05T11:58:34.926Z</time>
      </trkpt>
      <trkpt lat="14.43832" lon="-60.86678">
        <ele>40</ele>
        <time>2016-06-05T11:58:35.926Z</time>
      </trkpt>
      <trkpt lat="14.4383" lon="-60.86677">
        <ele>41</ele>
        <time>2016-06-05T11:58:36.925Z</time>
      </trkpt>
      <trkpt lat="14.43828" lon="-60.86675">
        <ele>41</ele>
        <time>2016-06-05T11:58:37.926Z</time>
      </trkpt>
      <trkpt lat="14.43825" lon="-60.86673">
        <ele>43</ele>
        <time>2016-06-05T11:58:39.928Z</time>
      </trkpt>
      <trkpt lat="14.43824" lon="-60.86672">
        <ele>43</ele>
        <time>2016-06-05T11:58:40.927Z</time>
      </trkpt>
      <trkpt lat="14.43822" lon="-60.8667">
        <ele>43</ele>
        <time>2016-06-05T11:58:41.926Z</time>
      </trkpt>
      <trkpt lat="14.43819" lon="-60.86668">
        <ele>42</ele>
        <time>2016-06-05T11:58:43.927Z</time>
      </trkpt>
      <trkpt lat="14.43818" lon="-60.86667">
        <ele>42</ele>
        <time>2016-06-05T11:58:44.926Z</time>
      </trkpt>
      <trkpt lat="14.43816" lon="-60.86665">
        <ele>42</ele>
        <time>2016-06-05T11:58:45.928Z</time>
      </trkpt>
      <trkpt lat="14.43814" lon="-60.86663">
        <ele>42</ele>
        <time>2016-06-05T11:58:46.929Z</time>
      </trkpt>
      <trkpt lat="14.43812" lon="-60.86662">
        <ele>42</ele>
        <time>2016-06-05T11:58:47.928Z</time>
      </trkpt>
      <trkpt lat="14.4381" lon="-60.86659">
        <ele>41</ele>
        <time>2016-06-05T11:58:48.928Z</time>
      </trkpt>
      <trkpt lat="14.43809" lon="-60.86659">
        <ele>40</ele>
        <time>2016-06-05T11:58:49.928Z</time>
      </trkpt>
      <trkpt lat="14.43807" lon="-60.86658">
        <ele>40</ele>
        <time>2016-06-05T11:58:50.927Z</time>
      </trkpt>
      <trkpt lat="14.43806" lon="-60.86656">
        <ele>40</ele>
        <time>2016-06-05T11:58:51.927Z</time>
      </trkpt>
      <trkpt lat="14.43804" lon="-60.86655">
        <ele>40</ele>
        <time>2016-06-05T11:58:52.929Z</time>
      </trkpt>
      <trkpt lat="14.43802" lon="-60.86654">
        <ele>41</ele>
        <time>2016-06-05T11:58:53.926Z</time>
      </trkpt>
      <trkpt lat="14.43801" lon="-60.86652">
        <ele>40</ele>
        <time>2016-06-05T11:58:54.925Z</time>
      </trkpt>
      <trkpt lat="14.43799" lon="-60.86652">
        <ele>40</ele>
        <time>2016-06-05T11:58:55.926Z</time>
      </trkpt>
      <trkpt lat="14.43797" lon="-60.8665">
        <ele>41</ele>
        <time>2016-06-05T11:58:56.926Z</time>
      </trkpt>
      <trkpt lat="14.43796" lon="-60.86649">
        <ele>41</ele>
        <time>2016-06-05T11:58:57.926Z</time>
      </trkpt>
      <trkpt lat="14.43794" lon="-60.86649">
        <ele>41</ele>
        <time>2016-06-05T11:58:58.927Z</time>
      </trkpt>
      <trkpt lat="14.43793" lon="-60.86647">
        <ele>41</ele>
        <time>2016-06-05T11:58:59.925Z</time>
      </trkpt>
      <trkpt lat="14.43791" lon="-60.86647">
        <ele>41</ele>
        <time>2016-06-05T11:59:00.925Z</time>
      </trkpt>
      <trkpt lat="14.43789" lon="-60.86646">
        <ele>42</ele>
        <time>2016-06-05T11:59:01.923Z</time>
      </trkpt>
      <trkpt lat="14.43788" lon="-60.86645">
        <ele>42</ele>
        <time>2016-06-05T11:59:02.927Z</time>
      </trkpt>
      <trkpt lat="14.43787" lon="-60.86642">
        <ele>42</ele>
        <time>2016-06-05T11:59:03.937Z</time>
      </trkpt>
      <trkpt lat="14.43785" lon="-60.86642">
        <ele>41</ele>
        <time>2016-06-05T11:59:04.941Z</time>
      </trkpt>
      <trkpt lat="14.43784" lon="-60.8664">
        <ele>42</ele>
        <time>2016-06-05T11:59:05.929Z</time>
      </trkpt>
      <trkpt lat="14.43783" lon="-60.86638">
        <ele>42</ele>
        <time>2016-06-05T11:59:06.924Z</time>
      </trkpt>
      <trkpt lat="14.43781" lon="-60.86636">
        <ele>43</ele>
        <time>2016-06-05T11:59:07.925Z</time>
      </trkpt>
      <trkpt lat="14.4378" lon="-60.86633">
        <ele>44</ele>
        <time>2016-06-05T11:59:08.927Z</time>
      </trkpt>
      <trkpt lat="14.43777" lon="-60.86634">
        <ele>44</ele>
        <time>2016-06-05T11:59:09.926Z</time>
      </trkpt>
      <trkpt lat="14.43776" lon="-60.86633">
        <ele>44</ele>
        <time>2016-06-05T11:59:10.925Z</time>
      </trkpt>
      <trkpt lat="14.43774" lon="-60.86632">
        <ele>45</ele>
        <time>2016-06-05T11:59:11.925Z</time>
      </trkpt>
      <trkpt lat="14.43773" lon="-60.86631">
        <ele>44</ele>
        <time>2016-06-05T11:59:12.927Z</time>
      </trkpt>
      <trkpt lat="14.43771" lon="-60.86629">
        <ele>45</ele>
        <time>2016-06-05T11:59:13.927Z</time>
      </trkpt>
      <trkpt lat="14.4377" lon="-60.86628">
        <ele>45</ele>
        <time>2016-06-05T11:59:14.923Z</time>
      </trkpt>
      <trkpt lat="14.43769" lon="-60.86628">
        <ele>45</ele>
        <time>2016-06-05T11:59:15.923Z</time>
      </trkpt>
      <trkpt lat="14.43767" lon="-60.86626">
        <ele>44</ele>
        <time>2016-06-05T11:59:16.926Z</time>
      </trkpt>
      <trkpt lat="14.43766" lon="-60.86625">
        <ele>44</ele>
        <time>2016-06-05T11:59:17.927Z</time>
      </trkpt>
      <trkpt lat="14.43765" lon="-60.86624">
        <ele>43</ele>
        <time>2016-06-05T11:59:18.928Z</time>
      </trkpt>
      <trkpt lat="14.43763" lon="-60.86623">
        <ele>43</ele>
        <time>2016-06-05T11:59:19.926Z</time>
      </trkpt>
      <trkpt lat="14.43762" lon="-60.86622">
        <ele>42</ele>
        <time>2016-06-05T11:59:20.927Z</time>
      </trkpt>
      <trkpt lat="14.43761" lon="-60.86621">
        <ele>43</ele>
        <time>2016-06-05T11:59:21.923Z</time>
      </trkpt>
      <trkpt lat="14.4376" lon="-60.8662">
        <ele>44</ele>
        <time>2016-06-05T11:59:22.925Z</time>
      </trkpt>
      <trkpt lat="14.43758" lon="-60.8662">
        <ele>44</ele>
        <time>2016-06-05T11:59:23.926Z</time>
      </trkpt>
      <trkpt lat="14.43757" lon="-60.86619">
        <ele>43</ele>
        <time>2016-06-05T11:59:24.924Z</time>
      </trkpt>
      <trkpt lat="14.43755" lon="-60.86618">
        <ele>43</ele>
        <time>2016-06-05T11:59:25.926Z</time>
      </trkpt>
      <trkpt lat="14.43753" lon="-60.86618">
        <ele>45</ele>
        <time>2016-06-05T11:59:26.924Z</time>
      </trkpt>
      <trkpt lat="14.43751" lon="-60.86618">
        <ele>45</ele>
        <time>2016-06-05T11:59:27.920Z</time>
      </trkpt>
      <trkpt lat="14.43749" lon="-60.86619">
        <ele>45</ele>
        <time>2016-06-05T11:59:28.927Z</time>
      </trkpt>
      <trkpt lat="14.43748" lon="-60.86619">
        <ele>44</ele>
        <time>2016-06-05T11:59:29.929Z</time>
      </trkpt>
      <trkpt lat="14.43746" lon="-60.8662">
        <ele>43</ele>
        <time>2016-06-05T11:59:30.933Z</time>
      </trkpt>
      <trkpt lat="14.43744" lon="-60.8662">
        <ele>43</ele>
        <time>2016-06-05T11:59:31.929Z</time>
      </trkpt>
      <trkpt lat="14.43742" lon="-60.86621">
        <ele>42</ele>
        <time>2016-06-05T11:59:32.929Z</time>
      </trkpt>
      <trkpt lat="14.43741" lon="-60.86622">
        <ele>42</ele>
        <time>2016-06-05T11:59:33.928Z</time>
      </trkpt>
      <trkpt lat="14.43739" lon="-60.86622">
        <ele>42</ele>
        <time>2016-06-05T11:59:34.928Z</time>
      </trkpt>
      <trkpt lat="14.43736" lon="-60.86622">
        <ele>42</ele>
        <time>2016-06-05T11:59:35.928Z</time>
      </trkpt>
      <trkpt lat="14.43734" lon="-60.86623">
        <ele>42</ele>
        <time>2016-06-05T11:59:36.929Z</time>
      </trkpt>
      <trkpt lat="14.43732" lon="-60.86623">
        <ele>42</ele>
        <time>2016-06-05T11:59:37.929Z</time>
      </trkpt>
      <trkpt lat="14.4373" lon="-60.86624">
        <ele>41</ele>
        <time>2016-06-05T11:59:38.932Z</time>
      </trkpt>
      <trkpt lat="14.43727" lon="-60.86623">
        <ele>41</ele>
        <time>2016-06-05T11:59:39.931Z</time>
      </trkpt>
      <trkpt lat="14.43724" lon="-60.86622">
        <ele>41</ele>
        <time>2016-06-05T11:59:40.926Z</time>
      </trkpt>
      <trkpt lat="14.43722" lon="-60.86622">
        <ele>41</ele>
        <time>2016-06-05T11:59:41.928Z</time>
      </trkpt>
      <trkpt lat="14.4372" lon="-60.86622">
        <ele>41</ele>
        <time>2016-06-05T11:59:42.926Z</time>
      </trkpt>
      <trkpt lat="14.43718" lon="-60.86622">
        <ele>41</ele>
        <time>2016-06-05T11:59:43.927Z</time>
      </trkpt>
      <trkpt lat="14.43715" lon="-60.86621">
        <ele>41</ele>
        <time>2016-06-05T11:59:44.926Z</time>
      </trkpt>
      <trkpt lat="14.43712" lon="-60.86621">
        <ele>40</ele>
        <time>2016-06-05T11:59:45.926Z</time>
      </trkpt>
      <trkpt lat="14.4371" lon="-60.8662">
        <ele>40</ele>
        <time>2016-06-05T11:59:46.927Z</time>
      </trkpt>
      <trkpt lat="14.43707" lon="-60.86619">
        <ele>41</ele>
        <time>2016-06-05T11:59:47.926Z</time>
      </trkpt>
      <trkpt lat="14.43704" lon="-60.86617">
        <ele>41</ele>
        <time>2016-06-05T11:59:48.928Z</time>
      </trkpt>
      <trkpt lat="14.43702" lon="-60.86615">
        <ele>41</ele>
        <time>2016-06-05T11:59:49.929Z</time>
      </trkpt>
      <trkpt lat="14.43699" lon="-60.86614">
        <ele>41</ele>
        <time>2016-06-05T11:59:50.928Z</time>
      </trkpt>
      <trkpt lat="14.43697" lon="-60.86614">
        <ele>41</ele>
        <time>2016-06-05T11:59:51.936Z</time>
      </trkpt>
      <trkpt lat="14.43695" lon="-60.86612">
        <ele>41</ele>
        <time>2016-06-05T11:59:52.931Z</time>
      </trkpt>
      <trkpt lat="14.43693" lon="-60.8661">
        <ele>41</ele>
        <time>2016-06-05T11:59:53.927Z</time>
      </trkpt>
      <trkpt lat="14.43692" lon="-60.86608">
        <ele>41</ele>
        <time>2016-06-05T11:59:54.926Z</time>
      </trkpt>
      <trkpt lat="14.4369" lon="-60.86607">
        <ele>42</ele>
        <time>2016-06-05T11:59:55.926Z</time>
      </trkpt>
      <trkpt lat="14.43688" lon="-60.86606">
        <ele>41</ele>
        <time>2016-06-05T11:59:56.927Z</time>
      </trkpt>
      <trkpt lat="14.43686" lon="-60.86604">
        <ele>41</ele>
        <time>2016-06-05T11:59:57.927Z</time>
      </trkpt>
      <trkpt lat="14.43684" lon="-60.86603">
        <ele>41</ele>
        <time>2016-06-05T11:59:58.926Z</time>
      </trkpt>
      <trkpt lat="14.43682" lon="-60.86601">
        <ele>41</ele>
        <time>2016-06-05T11:59:59.926Z</time>
      </trkpt>
      <trkpt lat="14.4368" lon="-60.866">
        <ele>41</ele>
        <time>2016-06-05T12:00:00.927Z</time>
      </trkpt>
      <trkpt lat="14.43679" lon="-60.86597">
        <ele>42</ele>
        <time>2016-06-05T12:00:01.927Z</time>
      </trkpt>
      <trkpt lat="14.43677" lon="-60.86595">
        <ele>42</ele>
        <time>2016-06-05T12:00:02.928Z</time>
      </trkpt>
      <trkpt lat="14.43676" lon="-60.86593">
        <ele>43</ele>
        <time>2016-06-05T12:00:03.929Z</time>
      </trkpt>
      <trkpt lat="14.43676" lon="-60.86591">
        <ele>44</ele>
        <time>2016-06-05T12:00:04.927Z</time>
      </trkpt>
      <trkpt lat="14.43675" lon="-60.86588">
        <ele>45</ele>
        <time>2016-06-05T12:00:05.928Z</time>
      </trkpt>
      <trkpt lat="14.43675" lon="-60.86586">
        <ele>45</ele>
        <time>2016-06-05T12:00:06.927Z</time>
      </trkpt>
      <trkpt lat="14.43674" lon="-60.86584">
        <ele>47</ele>
        <time>2016-06-05T12:00:07.926Z</time>
      </trkpt>
      <trkpt lat="14.43674" lon="-60.86582">
        <ele>48</ele>
        <time>2016-06-05T12:00:08.927Z</time>
      </trkpt>
      <trkpt lat="14.43674" lon="-60.8658">
        <ele>48</ele>
        <time>2016-06-05T12:00:09.927Z</time>
      </trkpt>
      <trkpt lat="14.43675" lon="-60.86577">
        <ele>50</ele>
        <time>2016-06-05T12:00:11.930Z</time>
      </trkpt>
      <trkpt lat="14.43675" lon="-60.86576">
        <ele>50</ele>
        <time>2016-06-05T12:00:12.928Z</time>
      </trkpt>
      <trkpt lat="14.43675" lon="-60.86574">
        <ele>49</ele>
        <time>2016-06-05T12:00:13.927Z</time>
      </trkpt>
      <trkpt lat="14.43675" lon="-60.86572">
        <ele>50</ele>
        <time>2016-06-05T12:00:14.927Z</time>
      </trkpt>
      <trkpt lat="14.43675" lon="-60.8657">
        <ele>50</ele>
        <time>2016-06-05T12:00:15.927Z</time>
      </trkpt>
      <trkpt lat="14.43674" lon="-60.86569">
        <ele>51</ele>
        <time>2016-06-05T12:00:16.928Z</time>
      </trkpt>
      <trkpt lat="14.43675" lon="-60.86567">
        <ele>51</ele>
        <time>2016-06-05T12:00:17.926Z</time>
      </trkpt>
      <trkpt lat="14.43676" lon="-60.86565">
        <ele>51</ele>
        <time>2016-06-05T12:00:18.926Z</time>
      </trkpt>
      <trkpt lat="14.43676" lon="-60.86563">
        <ele>51</ele>
        <time>2016-06-05T12:00:19.927Z</time>
      </trkpt>
      <trkpt lat="14.43676" lon="-60.86561">
        <ele>51</ele>
        <time>2016-06-05T12:00:20.928Z</time>
      </trkpt>
      <trkpt lat="14.43677" lon="-60.8656">
        <ele>51</ele>
        <time>2016-06-05T12:00:21.926Z</time>
      </trkpt>
      <trkpt lat="14.43678" lon="-60.86558">
        <ele>51</ele>
        <time>2016-06-05T12:00:22.927Z</time>
      </trkpt>
      <trkpt lat="14.43678" lon="-60.86556">
        <ele>50</ele>
        <time>2016-06-05T12:00:23.927Z</time>
      </trkpt>
      <trkpt lat="14.43679" lon="-60.86554">
        <ele>50</ele>
        <time>2016-06-05T12:00:24.927Z</time>
      </trkpt>
      <trkpt lat="14.4368" lon="-60.86552">
        <ele>49</ele>
        <time>2016-06-05T12:00:25.928Z</time>
      </trkpt>
      <trkpt lat="14.4368" lon="-60.8655">
        <ele>50</ele>
        <time>2016-06-05T12:00:26.926Z</time>
      </trkpt>
      <trkpt lat="14.4368" lon="-60.86549">
        <ele>50</ele>
        <time>2016-06-05T12:00:27.928Z</time>
      </trkpt>
      <trkpt lat="14.43681" lon="-60.86546">
        <ele>51</ele>
        <time>2016-06-05T12:00:28.928Z</time>
      </trkpt>
      <trkpt lat="14.43681" lon="-60.86544">
        <ele>51</ele>
        <time>2016-06-05T12:00:29.931Z</time>
      </trkpt>
      <trkpt lat="14.43682" lon="-60.86542">
        <ele>51</ele>
        <time>2016-06-05T12:00:30.931Z</time>
      </trkpt>
      <trkpt lat="14.43683" lon="-60.86541">
        <ele>51</ele>
        <time>2016-06-05T12:00:31.930Z</time>
      </trkpt>
      <trkpt lat="14.43683" lon="-60.86539">
        <ele>51</ele>
        <time>2016-06-05T12:00:32.929Z</time>
      </trkpt>
      <trkpt lat="14.43684" lon="-60.86537">
        <ele>51</ele>
        <time>2016-06-05T12:00:33.928Z</time>
      </trkpt>
      <trkpt lat="14.43685" lon="-60.86534">
        <ele>52</ele>
        <time>2016-06-05T12:00:35.929Z</time>
      </trkpt>
      <trkpt lat="14.43685" lon="-60.86532">
        <ele>51</ele>
        <time>2016-06-05T12:00:36.930Z</time>
      </trkpt>
      <trkpt lat="14.43686" lon="-60.8653">
        <ele>51</ele>
        <time>2016-06-05T12:00:37.927Z</time>
      </trkpt>
      <trkpt lat="14.43687" lon="-60.86528">
        <ele>51</ele>
        <time>2016-06-05T12:00:38.928Z</time>
      </trkpt>
      <trkpt lat="14.43687" lon="-60.86526">
        <ele>50</ele>
        <time>2016-06-05T12:00:39.928Z</time>
      </trkpt>
      <trkpt lat="14.43687" lon="-60.86524">
        <ele>51</ele>
        <time>2016-06-05T12:00:40.930Z</time>
      </trkpt>
      <trkpt lat="14.43688" lon="-60.86522">
        <ele>50</ele>
        <time>2016-06-05T12:00:41.930Z</time>
      </trkpt>
      <trkpt lat="14.43687" lon="-60.8652">
        <ele>50</ele>
        <time>2016-06-05T12:00:42.926Z</time>
      </trkpt>
      <trkpt lat="14.43688" lon="-60.86517">
        <ele>50</ele>
        <time>2016-06-05T12:00:43.929Z</time>
      </trkpt>
      <trkpt lat="14.43688" lon="-60.86514">
        <ele>50</ele>
        <time>2016-06-05T12:00:44.927Z</time>
      </trkpt>
      <trkpt lat="14.43688" lon="-60.86512">
        <ele>50</ele>
        <time>2016-06-05T12:00:45.924Z</time>
      </trkpt>
      <trkpt lat="14.43688" lon="-60.86509">
        <ele>50</ele>
        <time>2016-06-05T12:00:46.926Z</time>
      </trkpt>
      <trkpt lat="14.43688" lon="-60.86506">
        <ele>50</ele>
        <time>2016-06-05T12:00:47.926Z</time>
      </trkpt>
      <trkpt lat="14.43688" lon="-60.86503">
        <ele>50</ele>
        <time>2016-06-05T12:00:48.926Z</time>
      </trkpt>
      <trkpt lat="14.43687" lon="-60.865">
        <ele>50</ele>
        <time>2016-06-05T12:00:49.927Z</time>
      </trkpt>
      <trkpt lat="14.43687" lon="-60.86497">
        <ele>50</ele>
        <time>2016-06-05T12:00:50.927Z</time>
      </trkpt>
      <trkpt lat="14.43686" lon="-60.86494">
        <ele>50</ele>
        <time>2016-06-05T12:00:51.927Z</time>
      </trkpt>
      <trkpt lat="14.43686" lon="-60.8649">
        <ele>50</ele>
        <time>2016-06-05T12:00:52.926Z</time>
      </trkpt>
      <trkpt lat="14.43686" lon="-60.86488">
        <ele>50</ele>
        <time>2016-06-05T12:00:53.926Z</time>
      </trkpt>
      <trkpt lat="14.43685" lon="-60.86484">
        <ele>51</ele>
        <time>2016-06-05T12:00:54.926Z</time>
      </trkpt>
      <trkpt lat="14.43685" lon="-60.86481">
        <ele>51</ele>
        <time>2016-06-05T12:00:55.926Z</time>
      </trkpt>
      <trkpt lat="14.43685" lon="-60.86478">
        <ele>50</ele>
        <time>2016-06-05T12:00:56.927Z</time>
      </trkpt>
      <trkpt lat="14.43685" lon="-60.86475">
        <ele>50</ele>
        <time>2016-06-05T12:00:57.927Z</time>
      </trkpt>
      <trkpt lat="14.43684" lon="-60.86472">
        <ele>51</ele>
        <time>2016-06-05T12:00:58.927Z</time>
      </trkpt>
      <trkpt lat="14.43685" lon="-60.8647">
        <ele>50</ele>
        <time>2016-06-05T12:00:59.928Z</time>
      </trkpt>
      <trkpt lat="14.43685" lon="-60.86467">
        <ele>50</ele>
        <time>2016-06-05T12:01:00.927Z</time>
      </trkpt>
      <trkpt lat="14.43685" lon="-60.86464">
        <ele>51</ele>
        <time>2016-06-05T12:01:01.924Z</time>
      </trkpt>
      <trkpt lat="14.43686" lon="-60.86461">
        <ele>52</ele>
        <time>2016-06-05T12:01:02.926Z</time>
      </trkpt>
      <trkpt lat="14.43687" lon="-60.86459">
        <ele>53</ele>
        <time>2016-06-05T12:01:03.927Z</time>
      </trkpt>
      <trkpt lat="14.43688" lon="-60.86456">
        <ele>52</ele>
        <time>2016-06-05T12:01:04.930Z</time>
      </trkpt>
      <trkpt lat="14.43688" lon="-60.86453">
        <ele>52</ele>
        <time>2016-06-05T12:01:05.927Z</time>
      </trkpt>
      <trkpt lat="14.43688" lon="-60.86451">
        <ele>52</ele>
        <time>2016-06-05T12:01:06.928Z</time>
      </trkpt>
      <trkpt lat="14.43689" lon="-60.86448">
        <ele>52</ele>
        <time>2016-06-05T12:01:07.928Z</time>
      </trkpt>
      <trkpt lat="14.43689" lon="-60.86446">
        <ele>52</ele>
        <time>2016-06-05T12:01:08.927Z</time>
      </trkpt>
      <trkpt lat="14.4369" lon="-60.86443">
        <ele>51</ele>
        <time>2016-06-05T12:01:09.925Z</time>
      </trkpt>
      <trkpt lat="14.4369" lon="-60.8644">
        <ele>51</ele>
        <time>2016-06-05T12:01:10.928Z</time>
      </trkpt>
      <trkpt lat="14.4369" lon="-60.86438">
        <ele>51</ele>
        <time>2016-06-05T12:01:11.930Z</time>
      </trkpt>
      <trkpt lat="14.4369" lon="-60.86435">
        <ele>51</ele>
        <time>2016-06-05T12:01:12.933Z</time>
      </trkpt>
      <trkpt lat="14.4369" lon="-60.86432">
        <ele>50</ele>
        <time>2016-06-05T12:01:13.928Z</time>
      </trkpt>
      <trkpt lat="14.43691" lon="-60.8643">
        <ele>51</ele>
        <time>2016-06-05T12:01:14.927Z</time>
      </trkpt>
      <trkpt lat="14.43691" lon="-60.86428">
        <ele>51</ele>
        <time>2016-06-05T12:01:15.926Z</time>
      </trkpt>
      <trkpt lat="14.43692" lon="-60.86426">
        <ele>51</ele>
        <time>2016-06-05T12:01:16.925Z</time>
      </trkpt>
      <trkpt lat="14.43691" lon="-60.86424">
        <ele>51</ele>
        <time>2016-06-05T12:01:17.926Z</time>
      </trkpt>
      <trkpt lat="14.43691" lon="-60.86422">
        <ele>52</ele>
        <time>2016-06-05T12:01:18.925Z</time>
      </trkpt>
      <trkpt lat="14.43691" lon="-60.86419">
        <ele>52</ele>
        <time>2016-06-05T12:01:19.928Z</time>
      </trkpt>
      <trkpt lat="14.43691" lon="-60.86417">
        <ele>53</ele>
        <time>2016-06-05T12:01:20.927Z</time>
      </trkpt>
      <trkpt lat="14.4369" lon="-60.86414">
        <ele>53</ele>
        <time>2016-06-05T12:01:21.927Z</time>
      </trkpt>
      <trkpt lat="14.4369" lon="-60.86412">
        <ele>53</ele>
        <time>2016-06-05T12:01:22.924Z</time>
      </trkpt>
      <trkpt lat="14.43689" lon="-60.8641">
        <ele>53</ele>
        <time>2016-06-05T12:01:23.925Z</time>
      </trkpt>
      <trkpt lat="14.43689" lon="-60.86407">
        <ele>53</ele>
        <time>2016-06-05T12:01:24.926Z</time>
      </trkpt>
      <trkpt lat="14.4369" lon="-60.86406">
        <ele>54</ele>
        <time>2016-06-05T12:01:25.926Z</time>
      </trkpt>
      <trkpt lat="14.4369" lon="-60.86402">
        <ele>54</ele>
        <time>2016-06-05T12:01:27.926Z</time>
      </trkpt>
      <trkpt lat="14.4369" lon="-60.864">
        <ele>55</ele>
        <time>2016-06-05T12:01:28.926Z</time>
      </trkpt>
      <trkpt lat="14.4369" lon="-60.86398">
        <ele>55</ele>
        <time>2016-06-05T12:01:29.925Z</time>
      </trkpt>
      <trkpt lat="14.43689" lon="-60.86396">
        <ele>55</ele>
        <time>2016-06-05T12:01:30.928Z</time>
      </trkpt>
      <trkpt lat="14.43689" lon="-60.86394">
        <ele>55</ele>
        <time>2016-06-05T12:01:31.926Z</time>
      </trkpt>
      <trkpt lat="14.43689" lon="-60.86391">
        <ele>57</ele>
        <time>2016-06-05T12:01:33.925Z</time>
      </trkpt>
      <trkpt lat="14.43689" lon="-60.86388">
        <ele>57</ele>
        <time>2016-06-05T12:01:34.926Z</time>
      </trkpt>
      <trkpt lat="14.43689" lon="-60.86385">
        <ele>57</ele>
        <time>2016-06-05T12:01:35.927Z</time>
      </trkpt>
      <trkpt lat="14.43689" lon="-60.86382">
        <ele>57</ele>
        <time>2016-06-05T12:01:36.928Z</time>
      </trkpt>
      <trkpt lat="14.43688" lon="-60.86379">
        <ele>56</ele>
        <time>2016-06-05T12:01:37.926Z</time>
      </trkpt>
      <trkpt lat="14.43689" lon="-60.86377">
        <ele>56</ele>
        <time>2016-06-05T12:01:38.927Z</time>
      </trkpt>
      <trkpt lat="14.43689" lon="-60.86375">
        <ele>56</ele>
        <time>2016-06-05T12:01:39.926Z</time>
      </trkpt>
      <trkpt lat="14.43688" lon="-60.86373">
        <ele>56</ele>
        <time>2016-06-05T12:01:40.926Z</time>
      </trkpt>
      <trkpt lat="14.43688" lon="-60.86371">
        <ele>57</ele>
        <time>2016-06-05T12:01:41.927Z</time>
      </trkpt>
      <trkpt lat="14.43689" lon="-60.86369">
        <ele>58</ele>
        <time>2016-06-05T12:01:42.926Z</time>
      </trkpt>
      <trkpt lat="14.43689" lon="-60.86367">
        <ele>57</ele>
        <time>2016-06-05T12:01:43.929Z</time>
      </trkpt>
      <trkpt lat="14.43689" lon="-60.86364">
        <ele>57</ele>
        <time>2016-06-05T12:01:44.933Z</time>
      </trkpt>
      <trkpt lat="14.43689" lon="-60.86362">
        <ele>56</ele>
        <time>2016-06-05T12:01:45.928Z</time>
      </trkpt>
      <trkpt lat="14.43689" lon="-60.86359">
        <ele>56</ele>
        <time>2016-06-05T12:01:46.931Z</time>
      </trkpt>
      <trkpt lat="14.43688" lon="-60.86357">
        <ele>56</ele>
        <time>2016-06-05T12:01:47.929Z</time>
      </trkpt>
      <trkpt lat="14.43688" lon="-60.86355">
        <ele>56</ele>
        <time>2016-06-05T12:01:48.931Z</time>
      </trkpt>
      <trkpt lat="14.43688" lon="-60.86354">
        <ele>55</ele>
        <time>2016-06-05T12:01:49.927Z</time>
      </trkpt>
      <trkpt lat="14.43688" lon="-60.86352">
        <ele>55</ele>
        <time>2016-06-05T12:01:50.925Z</time>
      </trkpt>
      <trkpt lat="14.43689" lon="-60.86349">
        <ele>56</ele>
        <time>2016-06-05T12:01:51.929Z</time>
      </trkpt>
      <trkpt lat="14.43689" lon="-60.86347">
        <ele>56</ele>
        <time>2016-06-05T12:01:52.927Z</time>
      </trkpt>
      <trkpt lat="14.43689" lon="-60.86346">
        <ele>56</ele>
        <time>2016-06-05T12:01:53.925Z</time>
      </trkpt>
      <trkpt lat="14.4369" lon="-60.86343">
        <ele>56</ele>
        <time>2016-06-05T12:01:54.926Z</time>
      </trkpt>
      <trkpt lat="14.43691" lon="-60.86341">
        <ele>56</ele>
        <time>2016-06-05T12:01:55.926Z</time>
      </trkpt>
      <trkpt lat="14.43691" lon="-60.86339">
        <ele>56</ele>
        <time>2016-06-05T12:01:56.926Z</time>
      </trkpt>
      <trkpt lat="14.43692" lon="-60.86338">
        <ele>56</ele>
        <time>2016-06-05T12:01:57.925Z</time>
      </trkpt>
      <trkpt lat="14.43693" lon="-60.86335">
        <ele>57</ele>
        <time>2016-06-05T12:01:58.928Z</time>
      </trkpt>
      <trkpt lat="14.43693" lon="-60.86332">
        <ele>56</ele>
        <time>2016-06-05T12:01:59.930Z</time>
      </trkpt>
      <trkpt lat="14.43693" lon="-60.8633">
        <ele>56</ele>
        <time>2016-06-05T12:02:00.929Z</time>
      </trkpt>
      <trkpt lat="14.43695" lon="-60.86328">
        <ele>56</ele>
        <time>2016-06-05T12:02:01.926Z</time>
      </trkpt>
      <trkpt lat="14.43695" lon="-60.86325">
        <ele>56</ele>
        <time>2016-06-05T12:02:02.927Z</time>
      </trkpt>
      <trkpt lat="14.43696" lon="-60.86323">
        <ele>56</ele>
        <time>2016-06-05T12:02:03.927Z</time>
      </trkpt>
      <trkpt lat="14.43697" lon="-60.86321">
        <ele>56</ele>
        <time>2016-06-05T12:02:04.925Z</time>
      </trkpt>
      <trkpt lat="14.43698" lon="-60.86319">
        <ele>55</ele>
        <time>2016-06-05T12:02:05.925Z</time>
      </trkpt>
      <trkpt lat="14.43699" lon="-60.86316">
        <ele>56</ele>
        <time>2016-06-05T12:02:06.927Z</time>
      </trkpt>
      <trkpt lat="14.43699" lon="-60.86313">
        <ele>56</ele>
        <time>2016-06-05T12:02:07.925Z</time>
      </trkpt>
      <trkpt lat="14.437" lon="-60.86311">
        <ele>56</ele>
        <time>2016-06-05T12:02:08.927Z</time>
      </trkpt>
      <trkpt lat="14.43701" lon="-60.86308">
        <ele>56</ele>
        <time>2016-06-05T12:02:09.926Z</time>
      </trkpt>
      <trkpt lat="14.43702" lon="-60.86305">
        <ele>56</ele>
        <time>2016-06-05T12:02:10.926Z</time>
      </trkpt>
      <trkpt lat="14.43702" lon="-60.86303">
        <ele>57</ele>
        <time>2016-06-05T12:02:11.926Z</time>
      </trkpt>
      <trkpt lat="14.43703" lon="-60.863">
        <ele>57</ele>
        <time>2016-06-05T12:02:12.926Z</time>
      </trkpt>
      <trkpt lat="14.43704" lon="-60.86297">
        <ele>57</ele>
        <time>2016-06-05T12:02:13.925Z</time>
      </trkpt>
      <trkpt lat="14.43706" lon="-60.86295">
        <ele>56</ele>
        <time>2016-06-05T12:02:14.926Z</time>
      </trkpt>
      <trkpt lat="14.43706" lon="-60.86291">
        <ele>57</ele>
        <time>2016-06-05T12:02:15.930Z</time>
      </trkpt>
      <trkpt lat="14.43707" lon="-60.86288">
        <ele>56</ele>
        <time>2016-06-05T12:02:16.932Z</time>
      </trkpt>
      <trkpt lat="14.43708" lon="-60.86285">
        <ele>56</ele>
        <time>2016-06-05T12:02:17.926Z</time>
      </trkpt>
      <trkpt lat="14.43709" lon="-60.86283">
        <ele>57</ele>
        <time>2016-06-05T12:02:18.925Z</time>
      </trkpt>
      <trkpt lat="14.4371" lon="-60.8628">
        <ele>56</ele>
        <time>2016-06-05T12:02:19.925Z</time>
      </trkpt>
      <trkpt lat="14.43711" lon="-60.86278">
        <ele>57</ele>
        <time>2016-06-05T12:02:20.927Z</time>
      </trkpt>
      <trkpt lat="14.43713" lon="-60.86276">
        <ele>55</ele>
        <time>2016-06-05T12:02:21.930Z</time>
      </trkpt>
      <trkpt lat="14.43713" lon="-60.86274">
        <ele>56</ele>
        <time>2016-06-05T12:02:22.930Z</time>
      </trkpt>
      <trkpt lat="14.43714" lon="-60.86272">
        <ele>55</ele>
        <time>2016-06-05T12:02:23.928Z</time>
      </trkpt>
      <trkpt lat="14.43715" lon="-60.8627">
        <ele>56</ele>
        <time>2016-06-05T12:02:24.928Z</time>
      </trkpt>
      <trkpt lat="14.43717" lon="-60.86267">
        <ele>56</ele>
        <time>2016-06-05T12:02:25.927Z</time>
      </trkpt>
      <trkpt lat="14.43718" lon="-60.86265">
        <ele>56</ele>
        <time>2016-06-05T12:02:26.926Z</time>
      </trkpt>
      <trkpt lat="14.4372" lon="-60.86263">
        <ele>56</ele>
        <time>2016-06-05T12:02:27.925Z</time>
      </trkpt>
      <trkpt lat="14.43722" lon="-60.86261">
        <ele>55</ele>
        <time>2016-06-05T12:02:28.926Z</time>
      </trkpt>
      <trkpt lat="14.43724" lon="-60.86259">
        <ele>56</ele>
        <time>2016-06-05T12:02:29.927Z</time>
      </trkpt>
      <trkpt lat="14.43727" lon="-60.86256">
        <ele>56</ele>
        <time>2016-06-05T12:02:30.926Z</time>
      </trkpt>
      <trkpt lat="14.43729" lon="-60.86253">
        <ele>56</ele>
        <time>2016-06-05T12:02:31.930Z</time>
      </trkpt>
      <trkpt lat="14.43731" lon="-60.8625">
        <ele>58</ele>
        <time>2016-06-05T12:02:32.928Z</time>
      </trkpt>
      <trkpt lat="14.43734" lon="-60.86248">
        <ele>57</ele>
        <time>2016-06-05T12:02:33.925Z</time>
      </trkpt>
      <trkpt lat="14.43737" lon="-60.86244">
        <ele>57</ele>
        <time>2016-06-05T12:02:34.926Z</time>
      </trkpt>
      <trkpt lat="14.4374" lon="-60.86241">
        <ele>57</ele>
        <time>2016-06-05T12:02:35.926Z</time>
      </trkpt>
      <trkpt lat="14.43743" lon="-60.86238">
        <ele>57</ele>
        <time>2016-06-05T12:02:36.925Z</time>
      </trkpt>
      <trkpt lat="14.43746" lon="-60.86234">
        <ele>57</ele>
        <time>2016-06-05T12:02:37.924Z</time>
      </trkpt>
      <trkpt lat="14.43748" lon="-60.86231">
        <ele>57</ele>
        <time>2016-06-05T12:02:38.925Z</time>
      </trkpt>
      <trkpt lat="14.43751" lon="-60.86227">
        <ele>57</ele>
        <time>2016-06-05T12:02:39.925Z</time>
      </trkpt>
      <trkpt lat="14.43753" lon="-60.86223">
        <ele>58</ele>
        <time>2016-06-05T12:02:40.929Z</time>
      </trkpt>
      <trkpt lat="14.43756" lon="-60.8622">
        <ele>58</ele>
        <time>2016-06-05T12:02:41.928Z</time>
      </trkpt>
      <trkpt lat="14.43758" lon="-60.86216">
        <ele>59</ele>
        <time>2016-06-05T12:02:42.929Z</time>
      </trkpt>
      <trkpt lat="14.4376" lon="-60.86213">
        <ele>59</ele>
        <time>2016-06-05T12:02:43.931Z</time>
      </trkpt>
      <trkpt lat="14.43763" lon="-60.8621">
        <ele>58</ele>
        <time>2016-06-05T12:02:44.932Z</time>
      </trkpt>
      <trkpt lat="14.43765" lon="-60.86207">
        <ele>59</ele>
        <time>2016-06-05T12:02:45.928Z</time>
      </trkpt>
      <trkpt lat="14.43768" lon="-60.86206">
        <ele>60</ele>
        <time>2016-06-05T12:02:46.929Z</time>
      </trkpt>
      <trkpt lat="14.43771" lon="-60.86203">
        <ele>59</ele>
        <time>2016-06-05T12:02:47.926Z</time>
      </trkpt>
      <trkpt lat="14.43773" lon="-60.86199">
        <ele>59</ele>
        <time>2016-06-05T12:02:48.931Z</time>
      </trkpt>
      <trkpt lat="14.43776" lon="-60.86197">
        <ele>60</ele>
        <time>2016-06-05T12:02:49.934Z</time>
      </trkpt>
      <trkpt lat="14.43778" lon="-60.86193">
        <ele>59</ele>
        <time>2016-06-05T12:02:50.933Z</time>
      </trkpt>
      <trkpt lat="14.43781" lon="-60.8619">
        <ele>59</ele>
        <time>2016-06-05T12:02:51.935Z</time>
      </trkpt>
      <trkpt lat="14.43783" lon="-60.86188">
        <ele>60</ele>
        <time>2016-06-05T12:02:52.934Z</time>
      </trkpt>
      <trkpt lat="14.43786" lon="-60.86184">
        <ele>60</ele>
        <time>2016-06-05T12:02:53.935Z</time>
      </trkpt>
      <trkpt lat="14.43788" lon="-60.8618">
        <ele>60</ele>
        <time>2016-06-05T12:02:54.929Z</time>
      </trkpt>
      <trkpt lat="14.4379" lon="-60.86176">
        <ele>58</ele>
        <time>2016-06-05T12:02:55.926Z</time>
      </trkpt>
      <trkpt lat="14.43791" lon="-60.86172">
        <ele>59</ele>
        <time>2016-06-05T12:02:56.930Z</time>
      </trkpt>
      <trkpt lat="14.43793" lon="-60.86168">
        <ele>59</ele>
        <time>2016-06-05T12:02:57.933Z</time>
      </trkpt>
      <trkpt lat="14.43794" lon="-60.86165">
        <ele>60</ele>
        <time>2016-06-05T12:02:58.932Z</time>
      </trkpt>
      <trkpt lat="14.43796" lon="-60.86162">
        <ele>59</ele>
        <time>2016-06-05T12:02:59.927Z</time>
      </trkpt>
      <trkpt lat="14.43797" lon="-60.86159">
        <ele>58</ele>
        <time>2016-06-05T12:03:00.927Z</time>
      </trkpt>
      <trkpt lat="14.43798" lon="-60.86154">
        <ele>58</ele>
        <time>2016-06-05T12:03:01.933Z</time>
      </trkpt>
      <trkpt lat="14.43799" lon="-60.86148">
        <ele>56</ele>
        <time>2016-06-05T12:03:02.928Z</time>
      </trkpt>
      <trkpt lat="14.43801" lon="-60.86143">
        <ele>56</ele>
        <time>2016-06-05T12:03:03.930Z</time>
      </trkpt>
      <trkpt lat="14.43802" lon="-60.86138">
        <ele>56</ele>
        <time>2016-06-05T12:03:04.925Z</time>
      </trkpt>
      <trkpt lat="14.43803" lon="-60.86133">
        <ele>56</ele>
        <time>2016-06-05T12:03:05.925Z</time>
      </trkpt>
      <trkpt lat="14.43804" lon="-60.86129">
        <ele>56</ele>
        <time>2016-06-05T12:03:06.927Z</time>
      </trkpt>
      <trkpt lat="14.43805" lon="-60.86124">
        <ele>55</ele>
        <time>2016-06-05T12:03:07.926Z</time>
      </trkpt>
      <trkpt lat="14.43807" lon="-60.86119">
        <ele>55</ele>
        <time>2016-06-05T12:03:08.926Z</time>
      </trkpt>
      <trkpt lat="14.43809" lon="-60.86113">
        <ele>55</ele>
        <time>2016-06-05T12:03:09.925Z</time>
      </trkpt>
      <trkpt lat="14.43811" lon="-60.86108">
        <ele>54</ele>
        <time>2016-06-05T12:03:10.926Z</time>
      </trkpt>
      <trkpt lat="14.43813" lon="-60.86104">
        <ele>54</ele>
        <time>2016-06-05T12:03:11.926Z</time>
      </trkpt>
      <trkpt lat="14.43814" lon="-60.86099">
        <ele>53</ele>
        <time>2016-06-05T12:03:12.926Z</time>
      </trkpt>
      <trkpt lat="14.43814" lon="-60.86094">
        <ele>53</ele>
        <time>2016-06-05T12:03:13.927Z</time>
      </trkpt>
      <trkpt lat="14.43816" lon="-60.86089">
        <ele>54</ele>
        <time>2016-06-05T12:03:14.925Z</time>
      </trkpt>
      <trkpt lat="14.43817" lon="-60.86085">
        <ele>54</ele>
        <time>2016-06-05T12:03:15.925Z</time>
      </trkpt>
      <trkpt lat="14.43818" lon="-60.86081">
        <ele>54</ele>
        <time>2016-06-05T12:03:16.925Z</time>
      </trkpt>
      <trkpt lat="14.43819" lon="-60.86076">
        <ele>54</ele>
        <time>2016-06-05T12:03:17.925Z</time>
      </trkpt>
      <trkpt lat="14.4382" lon="-60.86072">
        <ele>53</ele>
        <time>2016-06-05T12:03:18.927Z</time>
      </trkpt>
      <trkpt lat="14.43821" lon="-60.86067">
        <ele>54</ele>
        <time>2016-06-05T12:03:19.929Z</time>
      </trkpt>
      <trkpt lat="14.43822" lon="-60.86063">
        <ele>54</ele>
        <time>2016-06-05T12:03:20.928Z</time>
      </trkpt>
      <trkpt lat="14.43823" lon="-60.8606">
        <ele>54</ele>
        <time>2016-06-05T12:03:21.926Z</time>
      </trkpt>
      <trkpt lat="14.43824" lon="-60.86057">
        <ele>54</ele>
        <time>2016-06-05T12:03:22.925Z</time>
      </trkpt>
      <trkpt lat="14.43825" lon="-60.86054">
        <ele>54</ele>
        <time>2016-06-05T12:03:23.925Z</time>
      </trkpt>
      <trkpt lat="14.43826" lon="-60.86051">
        <ele>54</ele>
        <time>2016-06-05T12:03:24.928Z</time>
      </trkpt>
      <trkpt lat="14.43827" lon="-60.86049">
        <ele>54</ele>
        <time>2016-06-05T12:03:25.928Z</time>
      </trkpt>
      <trkpt lat="14.43829" lon="-60.86045">
        <ele>54</ele>
        <time>2016-06-05T12:03:26.927Z</time>
      </trkpt>
      <trkpt lat="14.43829" lon="-60.86043">
        <ele>54</ele>
        <time>2016-06-05T12:03:27.927Z</time>
      </trkpt>
      <trkpt lat="14.43831" lon="-60.8604">
        <ele>54</ele>
        <time>2016-06-05T12:03:28.926Z</time>
      </trkpt>
      <trkpt lat="14.43833" lon="-60.86037">
        <ele>53</ele>
        <time>2016-06-05T12:03:29.926Z</time>
      </trkpt>
      <trkpt lat="14.43835" lon="-60.86034">
        <ele>53</ele>
        <time>2016-06-05T12:03:30.927Z</time>
      </trkpt>
      <trkpt lat="14.43837" lon="-60.8603">
        <ele>52</ele>
        <time>2016-06-05T12:03:31.928Z</time>
      </trkpt>
      <trkpt lat="14.43838" lon="-60.86027">
        <ele>52</ele>
        <time>2016-06-05T12:03:32.927Z</time>
      </trkpt>
      <trkpt lat="14.43839" lon="-60.86023">
        <ele>52</ele>
        <time>2016-06-05T12:03:33.925Z</time>
      </trkpt>
      <trkpt lat="14.4384" lon="-60.86019">
        <ele>52</ele>
        <time>2016-06-05T12:03:34.928Z</time>
      </trkpt>
      <trkpt lat="14.43841" lon="-60.86016">
        <ele>52</ele>
        <time>2016-06-05T12:03:35.931Z</time>
      </trkpt>
      <trkpt lat="14.43842" lon="-60.86012">
        <ele>51</ele>
        <time>2016-06-05T12:03:36.930Z</time>
      </trkpt>
      <trkpt lat="14.43842" lon="-60.86009">
        <ele>51</ele>
        <time>2016-06-05T12:03:37.926Z</time>
      </trkpt>
      <trkpt lat="14.43842" lon="-60.86005">
        <ele>52</ele>
        <time>2016-06-05T12:03:38.926Z</time>
      </trkpt>
      <trkpt lat="14.43842" lon="-60.86002">
        <ele>51</ele>
        <time>2016-06-05T12:03:39.927Z</time>
      </trkpt>
      <trkpt lat="14.43841" lon="-60.85998">
        <ele>51</ele>
        <time>2016-06-05T12:03:40.927Z</time>
      </trkpt>
      <trkpt lat="14.4384" lon="-60.85994">
        <ele>52</ele>
        <time>2016-06-05T12:03:41.926Z</time>
      </trkpt>
      <trkpt lat="14.43839" lon="-60.85991">
        <ele>52</ele>
        <time>2016-06-05T12:03:42.926Z</time>
      </trkpt>
      <trkpt lat="14.43838" lon="-60.85987">
        <ele>52</ele>
        <time>2016-06-05T12:03:43.926Z</time>
      </trkpt>
      <trkpt lat="14.43837" lon="-60.85984">
        <ele>51</ele>
        <time>2016-06-05T12:03:44.927Z</time>
      </trkpt>
      <trkpt lat="14.43834" lon="-60.8598">
        <ele>50</ele>
        <time>2016-06-05T12:03:45.929Z</time>
      </trkpt>
      <trkpt lat="14.43832" lon="-60.85976">
        <ele>51</ele>
        <time>2016-06-05T12:03:46.925Z</time>
      </trkpt>
      <trkpt lat="14.4383" lon="-60.85973">
        <ele>51</ele>
        <time>2016-06-05T12:03:47.925Z</time>
      </trkpt>
      <trkpt lat="14.43827" lon="-60.85971">
        <ele>50</ele>
        <time>2016-06-05T12:03:48.926Z</time>
      </trkpt>
      <trkpt lat="14.43825" lon="-60.85969">
        <ele>50</ele>
        <time>2016-06-05T12:03:49.926Z</time>
      </trkpt>
      <trkpt lat="14.43822" lon="-60.85967">
        <ele>50</ele>
        <time>2016-06-05T12:03:50.926Z</time>
      </trkpt>
      <trkpt lat="14.4382" lon="-60.85965">
        <ele>50</ele>
        <time>2016-06-05T12:03:51.929Z</time>
      </trkpt>
      <trkpt lat="14.43817" lon="-60.85963">
        <ele>49</ele>
        <time>2016-06-05T12:03:52.927Z</time>
      </trkpt>
      <trkpt lat="14.43814" lon="-60.85961">
        <ele>50</ele>
        <time>2016-06-05T12:03:53.925Z</time>
      </trkpt>
      <trkpt lat="14.43812" lon="-60.8596">
        <ele>50</ele>
        <time>2016-06-05T12:03:54.925Z</time>
      </trkpt>
      <trkpt lat="14.43809" lon="-60.85958">
        <ele>50</ele>
        <time>2016-06-05T12:03:55.927Z</time>
      </trkpt>
      <trkpt lat="14.43807" lon="-60.85957">
        <ele>48</ele>
        <time>2016-06-05T12:03:56.927Z</time>
      </trkpt>
      <trkpt lat="14.43804" lon="-60.85956">
        <ele>48</ele>
        <time>2016-06-05T12:03:57.933Z</time>
      </trkpt>
      <trkpt lat="14.43803" lon="-60.85954">
        <ele>48</ele>
        <time>2016-06-05T12:03:58.929Z</time>
      </trkpt>
      <trkpt lat="14.43801" lon="-60.85954">
        <ele>48</ele>
        <time>2016-06-05T12:03:59.926Z</time>
      </trkpt>
      <trkpt lat="14.43799" lon="-60.85953">
        <ele>48</ele>
        <time>2016-06-05T12:04:00.927Z</time>
      </trkpt>
      <trkpt lat="14.43797" lon="-60.85951">
        <ele>48</ele>
        <time>2016-06-05T12:04:01.926Z</time>
      </trkpt>
      <trkpt lat="14.43796" lon="-60.8595">
        <ele>49</ele>
        <time>2016-06-05T12:04:02.926Z</time>
      </trkpt>
      <trkpt lat="14.43794" lon="-60.85949">
        <ele>49</ele>
        <time>2016-06-05T12:04:03.927Z</time>
      </trkpt>
      <trkpt lat="14.43792" lon="-60.85948">
        <ele>50</ele>
        <time>2016-06-05T12:04:04.926Z</time>
      </trkpt>
      <trkpt lat="14.4379" lon="-60.85947">
        <ele>50</ele>
        <time>2016-06-05T12:04:05.925Z</time>
      </trkpt>
      <trkpt lat="14.43788" lon="-60.85946">
        <ele>50</ele>
        <time>2016-06-05T12:04:06.924Z</time>
      </trkpt>
      <trkpt lat="14.43786" lon="-60.85945">
        <ele>50</ele>
        <time>2016-06-05T12:04:07.924Z</time>
      </trkpt>
      <trkpt lat="14.43784" lon="-60.85944">
        <ele>50</ele>
        <time>2016-06-05T12:04:08.925Z</time>
      </trkpt>
      <trkpt lat="14.43782" lon="-60.85942">
        <ele>49</ele>
        <time>2016-06-05T12:04:09.926Z</time>
      </trkpt>
      <trkpt lat="14.4378" lon="-60.85941">
        <ele>49</ele>
        <time>2016-06-05T12:04:10.928Z</time>
      </trkpt>
      <trkpt lat="14.43778" lon="-60.85939">
        <ele>49</ele>
        <time>2016-06-05T12:04:11.926Z</time>
      </trkpt>
      <trkpt lat="14.43776" lon="-60.85938">
        <ele>50</ele>
        <time>2016-06-05T12:04:12.926Z</time>
      </trkpt>
      <trkpt lat="14.43774" lon="-60.85936">
        <ele>50</ele>
        <time>2016-06-05T12:04:13.926Z</time>
      </trkpt>
      <trkpt lat="14.43772" lon="-60.85936">
        <ele>50</ele>
        <time>2016-06-05T12:04:14.925Z</time>
      </trkpt>
      <trkpt lat="14.4377" lon="-60.85935">
        <ele>50</ele>
        <time>2016-06-05T12:04:15.926Z</time>
      </trkpt>
      <trkpt lat="14.43768" lon="-60.85934">
        <ele>50</ele>
        <time>2016-06-05T12:04:16.926Z</time>
      </trkpt>
      <trkpt lat="14.43767" lon="-60.85932">
        <ele>50</ele>
        <time>2016-06-05T12:04:17.926Z</time>
      </trkpt>
      <trkpt lat="14.43765" lon="-60.85931">
        <ele>50</ele>
        <time>2016-06-05T12:04:18.927Z</time>
      </trkpt>
      <trkpt lat="14.43763" lon="-60.85929">
        <ele>51</ele>
        <time>2016-06-05T12:04:19.927Z</time>
      </trkpt>
      <trkpt lat="14.43761" lon="-60.85927">
        <ele>51</ele>
        <time>2016-06-05T12:04:20.927Z</time>
      </trkpt>
      <trkpt lat="14.43758" lon="-60.85924">
        <ele>51</ele>
        <time>2016-06-05T12:04:21.925Z</time>
      </trkpt>
      <trkpt lat="14.43754" lon="-60.85923">
        <ele>50</ele>
        <time>2016-06-05T12:04:22.925Z</time>
      </trkpt>
      <trkpt lat="14.43751" lon="-60.8592">
        <ele>50</ele>
        <time>2016-06-05T12:04:23.929Z</time>
      </trkpt>
      <trkpt lat="14.43748" lon="-60.85919">
        <ele>50</ele>
        <time>2016-06-05T12:04:24.927Z</time>
      </trkpt>
      <trkpt lat="14.43744" lon="-60.85917">
        <ele>50</ele>
        <time>2016-06-05T12:04:25.929Z</time>
      </trkpt>
      <trkpt lat="14.43741" lon="-60.85915">
        <ele>50</ele>
        <time>2016-06-05T12:04:26.927Z</time>
      </trkpt>
      <trkpt lat="14.43738" lon="-60.85913">
        <ele>50</ele>
        <time>2016-06-05T12:04:27.928Z</time>
      </trkpt>
      <trkpt lat="14.43734" lon="-60.85911">
        <ele>50</ele>
        <time>2016-06-05T12:04:28.926Z</time>
      </trkpt>
      <trkpt lat="14.43731" lon="-60.85909">
        <ele>50</ele>
        <time>2016-06-05T12:04:29.926Z</time>
      </trkpt>
      <trkpt lat="14.43727" lon="-60.85908">
        <ele>49</ele>
        <time>2016-06-05T12:04:30.927Z</time>
      </trkpt>
      <trkpt lat="14.43724" lon="-60.85908">
        <ele>50</ele>
        <time>2016-06-05T12:04:31.927Z</time>
      </trkpt>
      <trkpt lat="14.43719" lon="-60.85907">
        <ele>50</ele>
        <time>2016-06-05T12:04:32.927Z</time>
      </trkpt>
      <trkpt lat="14.43715" lon="-60.85906">
        <ele>50</ele>
        <time>2016-06-05T12:04:33.928Z</time>
      </trkpt>
      <trkpt lat="14.4371" lon="-60.85904">
        <ele>50</ele>
        <time>2016-06-05T12:04:34.926Z</time>
      </trkpt>
      <trkpt lat="14.43705" lon="-60.85902">
        <ele>49</ele>
        <time>2016-06-05T12:04:35.926Z</time>
      </trkpt>
      <trkpt lat="14.437" lon="-60.85901">
        <ele>49</ele>
        <time>2016-06-05T12:04:36.925Z</time>
      </trkpt>
      <trkpt lat="14.43695" lon="-60.85898">
        <ele>49</ele>
        <time>2016-06-05T12:04:37.925Z</time>
      </trkpt>
      <trkpt lat="14.4369" lon="-60.85896">
        <ele>49</ele>
        <time>2016-06-05T12:04:38.925Z</time>
      </trkpt>
      <trkpt lat="14.43685" lon="-60.85894">
        <ele>49</ele>
        <time>2016-06-05T12:04:39.924Z</time>
      </trkpt>
      <trkpt lat="14.43681" lon="-60.85891">
        <ele>50</ele>
        <time>2016-06-05T12:04:40.925Z</time>
      </trkpt>
      <trkpt lat="14.43677" lon="-60.85889">
        <ele>50</ele>
        <time>2016-06-05T12:04:41.926Z</time>
      </trkpt>
      <trkpt lat="14.43673" lon="-60.85887">
        <ele>50</ele>
        <time>2016-06-05T12:04:42.927Z</time>
      </trkpt>
      <trkpt lat="14.4367" lon="-60.85885">
        <ele>50</ele>
        <time>2016-06-05T12:04:43.920Z</time>
      </trkpt>
      <trkpt lat="14.43668" lon="-60.85883">
        <ele>51</ele>
        <time>2016-06-05T12:04:44.920Z</time>
      </trkpt>
      <trkpt lat="14.43666" lon="-60.85882">
        <ele>50</ele>
        <time>2016-06-05T12:04:45.919Z</time>
      </trkpt>
      <trkpt lat="14.43664" lon="-60.8588">
        <ele>50</ele>
        <time>2016-06-05T12:04:46.919Z</time>
      </trkpt>
      <trkpt lat="14.43663" lon="-60.85878">
        <ele>50</ele>
        <time>2016-06-05T12:04:47.922Z</time>
      </trkpt>
      <trkpt lat="14.43663" lon="-60.85876">
        <ele>50</ele>
        <time>2016-06-05T12:04:48.924Z</time>
      </trkpt>
      <trkpt lat="14.43662" lon="-60.85873">
        <ele>51</ele>
        <time>2016-06-05T12:04:49.925Z</time>
      </trkpt>
      <trkpt lat="14.43662" lon="-60.8587">
        <ele>50</ele>
        <time>2016-06-05T12:04:50.928Z</time>
      </trkpt>
      <trkpt lat="14.43662" lon="-60.85868">
        <ele>52</ele>
        <time>2016-06-05T12:04:51.928Z</time>
      </trkpt>
      <trkpt lat="14.43663" lon="-60.85864">
        <ele>52</ele>
        <time>2016-06-05T12:04:52.931Z</time>
      </trkpt>
      <trkpt lat="14.43665" lon="-60.8586">
        <ele>51</ele>
        <time>2016-06-05T12:04:53.925Z</time>
      </trkpt>
      <trkpt lat="14.43666" lon="-60.85858">
        <ele>51</ele>
        <time>2016-06-05T12:04:54.927Z</time>
      </trkpt>
      <trkpt lat="14.43668" lon="-60.85855">
        <ele>52</ele>
        <time>2016-06-05T12:04:55.925Z</time>
      </trkpt>
      <trkpt lat="14.4367" lon="-60.85853">
        <ele>51</ele>
        <time>2016-06-05T12:04:56.925Z</time>
      </trkpt>
      <trkpt lat="14.43672" lon="-60.85851">
        <ele>52</ele>
        <time>2016-06-05T12:04:57.927Z</time>
      </trkpt>
      <trkpt lat="14.43674" lon="-60.85848">
        <ele>51</ele>
        <time>2016-06-05T12:04:58.926Z</time>
      </trkpt>
      <trkpt lat="14.43675" lon="-60.85846">
        <ele>51</ele>
        <time>2016-06-05T12:04:59.928Z</time>
      </trkpt>
      <trkpt lat="14.43678" lon="-60.85844">
        <ele>51</ele>
        <time>2016-06-05T12:05:00.928Z</time>
      </trkpt>
      <trkpt lat="14.4368" lon="-60.85842">
        <ele>51</ele>
        <time>2016-06-05T12:05:01.928Z</time>
      </trkpt>
      <trkpt lat="14.43682" lon="-60.8584">
        <ele>51</ele>
        <time>2016-06-05T12:05:02.927Z</time>
      </trkpt>
      <trkpt lat="14.43684" lon="-60.85837">
        <ele>51</ele>
        <time>2016-06-05T12:05:03.923Z</time>
      </trkpt>
      <trkpt lat="14.43687" lon="-60.85835">
        <ele>51</ele>
        <time>2016-06-05T12:05:04.927Z</time>
      </trkpt>
      <trkpt lat="14.43689" lon="-60.85832">
        <ele>51</ele>
        <time>2016-06-05T12:05:05.927Z</time>
      </trkpt>
      <trkpt lat="14.43691" lon="-60.8583">
        <ele>51</ele>
        <time>2016-06-05T12:05:06.926Z</time>
      </trkpt>
      <trkpt lat="14.43694" lon="-60.85828">
        <ele>50</ele>
        <time>2016-06-05T12:05:07.926Z</time>
      </trkpt>
      <trkpt lat="14.43695" lon="-60.85825">
        <ele>51</ele>
        <time>2016-06-05T12:05:08.928Z</time>
      </trkpt>
      <trkpt lat="14.43697" lon="-60.85822">
        <ele>51</ele>
        <time>2016-06-05T12:05:09.927Z</time>
      </trkpt>
      <trkpt lat="14.43699" lon="-60.8582">
        <ele>51</ele>
        <time>2016-06-05T12:05:10.925Z</time>
      </trkpt>
      <trkpt lat="14.43701" lon="-60.85817">
        <ele>51</ele>
        <time>2016-06-05T12:05:11.928Z</time>
      </trkpt>
      <trkpt lat="14.43703" lon="-60.85814">
        <ele>51</ele>
        <time>2016-06-05T12:05:12.930Z</time>
      </trkpt>
      <trkpt lat="14.43705" lon="-60.85811">
        <ele>51</ele>
        <time>2016-06-05T12:05:13.926Z</time>
      </trkpt>
      <trkpt lat="14.43707" lon="-60.85808">
        <ele>52</ele>
        <time>2016-06-05T12:05:14.925Z</time>
      </trkpt>
      <trkpt lat="14.43709" lon="-60.85805">
        <ele>52</ele>
        <time>2016-06-05T12:05:15.925Z</time>
      </trkpt>
      <trkpt lat="14.4371" lon="-60.85801">
        <ele>52</ele>
        <time>2016-06-05T12:05:16.926Z</time>
      </trkpt>
      <trkpt lat="14.43712" lon="-60.85798">
        <ele>52</ele>
        <time>2016-06-05T12:05:17.926Z</time>
      </trkpt>
      <trkpt lat="14.43713" lon="-60.85795">
        <ele>51</ele>
        <time>2016-06-05T12:05:18.925Z</time>
      </trkpt>
      <trkpt lat="14.43714" lon="-60.85791">
        <ele>51</ele>
        <time>2016-06-05T12:05:19.925Z</time>
      </trkpt>
      <trkpt lat="14.43716" lon="-60.85788">
        <ele>51</ele>
        <time>2016-06-05T12:05:20.925Z</time>
      </trkpt>
      <trkpt lat="14.43717" lon="-60.85784">
        <ele>50</ele>
        <time>2016-06-05T12:05:21.926Z</time>
      </trkpt>
      <trkpt lat="14.43718" lon="-60.85781">
        <ele>50</ele>
        <time>2016-06-05T12:05:22.925Z</time>
      </trkpt>
      <trkpt lat="14.4372" lon="-60.85777">
        <ele>51</ele>
        <time>2016-06-05T12:05:23.926Z</time>
      </trkpt>
      <trkpt lat="14.43721" lon="-60.85773">
        <ele>51</ele>
        <time>2016-06-05T12:05:24.928Z</time>
      </trkpt>
      <trkpt lat="14.43722" lon="-60.85769">
        <ele>51</ele>
        <time>2016-06-05T12:05:25.926Z</time>
      </trkpt>
      <trkpt lat="14.43723" lon="-60.85765">
        <ele>50</ele>
        <time>2016-06-05T12:05:26.926Z</time>
      </trkpt>
      <trkpt lat="14.43724" lon="-60.85761">
        <ele>50</ele>
        <time>2016-06-05T12:05:27.934Z</time>
      </trkpt>
      <trkpt lat="14.43725" lon="-60.85757">
        <ele>50</ele>
        <time>2016-06-05T12:05:28.933Z</time>
      </trkpt>
      <trkpt lat="14.43727" lon="-60.85752">
        <ele>50</ele>
        <time>2016-06-05T12:05:29.928Z</time>
      </trkpt>
      <trkpt lat="14.43728" lon="-60.85748">
        <ele>49</ele>
        <time>2016-06-05T12:05:30.929Z</time>
      </trkpt>
      <trkpt lat="14.43729" lon="-60.85743">
        <ele>49</ele>
        <time>2016-06-05T12:05:31.928Z</time>
      </trkpt>
      <trkpt lat="14.43731" lon="-60.85738">
        <ele>49</ele>
        <time>2016-06-05T12:05:32.929Z</time>
      </trkpt>
      <trkpt lat="14.43733" lon="-60.85733">
        <ele>49</ele>
        <time>2016-06-05T12:05:33.926Z</time>
      </trkpt>
      <trkpt lat="14.43734" lon="-60.85729">
        <ele>49</ele>
        <time>2016-06-05T12:05:34.926Z</time>
      </trkpt>
      <trkpt lat="14.43734" lon="-60.85723">
        <ele>49</ele>
        <time>2016-06-05T12:05:35.925Z</time>
      </trkpt>
      <trkpt lat="14.43735" lon="-60.85718">
        <ele>48</ele>
        <time>2016-06-05T12:05:36.924Z</time>
      </trkpt>
      <trkpt lat="14.43735" lon="-60.85712">
        <ele>47</ele>
        <time>2016-06-05T12:05:37.925Z</time>
      </trkpt>
      <trkpt lat="14.43736" lon="-60.85706">
        <ele>46</ele>
        <time>2016-06-05T12:05:38.926Z</time>
      </trkpt>
      <trkpt lat="14.43737" lon="-60.857">
        <ele>46</ele>
        <time>2016-06-05T12:05:39.925Z</time>
      </trkpt>
      <trkpt lat="14.43737" lon="-60.85694">
        <ele>45</ele>
        <time>2016-06-05T12:05:40.926Z</time>
      </trkpt>
      <trkpt lat="14.43738" lon="-60.85687">
        <ele>44</ele>
        <time>2016-06-05T12:05:41.925Z</time>
      </trkpt>
      <trkpt lat="14.43739" lon="-60.85681">
        <ele>43</ele>
        <time>2016-06-05T12:05:42.926Z</time>
      </trkpt>
      <trkpt lat="14.43738" lon="-60.85675">
        <ele>44</ele>
        <time>2016-06-05T12:05:43.927Z</time>
      </trkpt>
      <trkpt lat="14.43739" lon="-60.85669">
        <ele>44</ele>
        <time>2016-06-05T12:05:44.925Z</time>
      </trkpt>
      <trkpt lat="14.43739" lon="-60.85663">
        <ele>43</ele>
        <time>2016-06-05T12:05:45.925Z</time>
      </trkpt>
      <trkpt lat="14.43739" lon="-60.85656">
        <ele>42</ele>
        <time>2016-06-05T12:05:46.927Z</time>
      </trkpt>
      <trkpt lat="14.4374" lon="-60.85649">
        <ele>42</ele>
        <time>2016-06-05T12:05:47.927Z</time>
      </trkpt>
      <trkpt lat="14.43739" lon="-60.85642">
        <ele>41</ele>
        <time>2016-06-05T12:05:48.927Z</time>
      </trkpt>
      <trkpt lat="14.43739" lon="-60.85635">
        <ele>41</ele>
        <time>2016-06-05T12:05:49.926Z</time>
      </trkpt>
      <trkpt lat="14.43739" lon="-60.85629">
        <ele>40</ele>
        <time>2016-06-05T12:05:50.926Z</time>
      </trkpt>
      <trkpt lat="14.43738" lon="-60.85623">
        <ele>40</ele>
        <time>2016-06-05T12:05:51.925Z</time>
      </trkpt>
      <trkpt lat="14.43737" lon="-60.85618">
        <ele>40</ele>
        <time>2016-06-05T12:05:52.927Z</time>
      </trkpt>
      <trkpt lat="14.43735" lon="-60.85613">
        <ele>39</ele>
        <time>2016-06-05T12:05:53.926Z</time>
      </trkpt>
      <trkpt lat="14.43734" lon="-60.85608">
        <ele>39</ele>
        <time>2016-06-05T12:05:54.927Z</time>
      </trkpt>
      <trkpt lat="14.43733" lon="-60.85603">
        <ele>39</ele>
        <time>2016-06-05T12:05:55.932Z</time>
      </trkpt>
      <trkpt lat="14.43732" lon="-60.85597">
        <ele>39</ele>
        <time>2016-06-05T12:05:56.928Z</time>
      </trkpt>
      <trkpt lat="14.43731" lon="-60.85591">
        <ele>38</ele>
        <time>2016-06-05T12:05:57.929Z</time>
      </trkpt>
      <trkpt lat="14.4373" lon="-60.85586">
        <ele>38</ele>
        <time>2016-06-05T12:05:58.926Z</time>
      </trkpt>
      <trkpt lat="14.43729" lon="-60.85579">
        <ele>36</ele>
        <time>2016-06-05T12:05:59.931Z</time>
      </trkpt>
      <trkpt lat="14.43727" lon="-60.85573">
        <ele>37</ele>
        <time>2016-06-05T12:06:00.929Z</time>
      </trkpt>
      <trkpt lat="14.43726" lon="-60.85566">
        <ele>37</ele>
        <time>2016-06-05T12:06:01.930Z</time>
      </trkpt>
      <trkpt lat="14.43723" lon="-60.8556">
        <ele>37</ele>
        <time>2016-06-05T12:06:02.929Z</time>
      </trkpt>
      <trkpt lat="14.43721" lon="-60.85554">
        <ele>37</ele>
        <time>2016-06-05T12:06:03.928Z</time>
      </trkpt>
      <trkpt lat="14.43718" lon="-60.85548">
        <ele>36</ele>
        <time>2016-06-05T12:06:04.927Z</time>
      </trkpt>
      <trkpt lat="14.43714" lon="-60.85542">
        <ele>36</ele>
        <time>2016-06-05T12:06:05.927Z</time>
      </trkpt>
      <trkpt lat="14.43709" lon="-60.85536">
        <ele>35</ele>
        <time>2016-06-05T12:06:06.926Z</time>
      </trkpt>
      <trkpt lat="14.43705" lon="-60.8553">
        <ele>36</ele>
        <time>2016-06-05T12:06:07.927Z</time>
      </trkpt>
      <trkpt lat="14.437" lon="-60.85525">
        <ele>36</ele>
        <time>2016-06-05T12:06:08.927Z</time>
      </trkpt>
      <trkpt lat="14.43696" lon="-60.85519">
        <ele>36</ele>
        <time>2016-06-05T12:06:09.926Z</time>
      </trkpt>
      <trkpt lat="14.43691" lon="-60.85514">
        <ele>36</ele>
        <time>2016-06-05T12:06:10.926Z</time>
      </trkpt>
      <trkpt lat="14.43688" lon="-60.8551">
        <ele>36</ele>
        <time>2016-06-05T12:06:11.927Z</time>
      </trkpt>
      <trkpt lat="14.43685" lon="-60.85506">
        <ele>36</ele>
        <time>2016-06-05T12:06:12.929Z</time>
      </trkpt>
      <trkpt lat="14.4368" lon="-60.85502">
        <ele>37</ele>
        <time>2016-06-05T12:06:13.928Z</time>
      </trkpt>
      <trkpt lat="14.43678" lon="-60.85498">
        <ele>37</ele>
        <time>2016-06-05T12:06:14.929Z</time>
      </trkpt>
      <trkpt lat="14.43675" lon="-60.85493">
        <ele>37</ele>
        <time>2016-06-05T12:06:15.934Z</time>
      </trkpt>
      <trkpt lat="14.43674" lon="-60.85487">
        <ele>37</ele>
        <time>2016-06-05T12:06:16.935Z</time>
      </trkpt>
      <trkpt lat="14.43674" lon="-60.85481">
        <ele>36</ele>
        <time>2016-06-05T12:06:17.932Z</time>
      </trkpt>
      <trkpt lat="14.43673" lon="-60.85474">
        <ele>36</ele>
        <time>2016-06-05T12:06:18.930Z</time>
      </trkpt>
      <trkpt lat="14.43674" lon="-60.85469">
        <ele>35</ele>
        <time>2016-06-05T12:06:19.934Z</time>
      </trkpt>
      <trkpt lat="14.43674" lon="-60.85463">
        <ele>33</ele>
        <time>2016-06-05T12:06:20.937Z</time>
      </trkpt>
      <trkpt lat="14.43675" lon="-60.85457">
        <ele>32</ele>
        <time>2016-06-05T12:06:21.930Z</time>
      </trkpt>
      <trkpt lat="14.43674" lon="-60.85451">
        <ele>31</ele>
        <time>2016-06-05T12:06:22.926Z</time>
      </trkpt>
      <trkpt lat="14.43673" lon="-60.85446">
        <ele>31</ele>
        <time>2016-06-05T12:06:23.927Z</time>
      </trkpt>
      <trkpt lat="14.43671" lon="-60.85441">
        <ele>32</ele>
        <time>2016-06-05T12:06:24.932Z</time>
      </trkpt>
      <trkpt lat="14.43669" lon="-60.85437">
        <ele>32</ele>
        <time>2016-06-05T12:06:25.929Z</time>
      </trkpt>
      <trkpt lat="14.43667" lon="-60.85432">
        <ele>30</ele>
        <time>2016-06-05T12:06:26.925Z</time>
      </trkpt>
      <trkpt lat="14.43666" lon="-60.85429">
        <ele>30</ele>
        <time>2016-06-05T12:06:27.925Z</time>
      </trkpt>
      <trkpt lat="14.43664" lon="-60.85424">
        <ele>29</ele>
        <time>2016-06-05T12:06:28.926Z</time>
      </trkpt>
      <trkpt lat="14.43663" lon="-60.8542">
        <ele>27</ele>
        <time>2016-06-05T12:06:29.926Z</time>
      </trkpt>
      <trkpt lat="14.43662" lon="-60.85414">
        <ele>26</ele>
        <time>2016-06-05T12:06:30.926Z</time>
      </trkpt>
      <trkpt lat="14.43662" lon="-60.85408">
        <ele>25</ele>
        <time>2016-06-05T12:06:31.926Z</time>
      </trkpt>
      <trkpt lat="14.43661" lon="-60.85402">
        <ele>25</ele>
        <time>2016-06-05T12:06:32.930Z</time>
      </trkpt>
      <trkpt lat="14.43661" lon="-60.85395">
        <ele>26</ele>
        <time>2016-06-05T12:06:33.924Z</time>
      </trkpt>
      <trkpt lat="14.43661" lon="-60.85387">
        <ele>24</ele>
        <time>2016-06-05T12:06:34.926Z</time>
      </trkpt>
      <trkpt lat="14.43661" lon="-60.85379">
        <ele>23</ele>
        <time>2016-06-05T12:06:35.928Z</time>
      </trkpt>
      <trkpt lat="14.4366" lon="-60.85372">
        <ele>22</ele>
        <time>2016-06-05T12:06:36.927Z</time>
      </trkpt>
      <trkpt lat="14.43659" lon="-60.85364">
        <ele>21</ele>
        <time>2016-06-05T12:06:37.926Z</time>
      </trkpt>
      <trkpt lat="14.43658" lon="-60.85357">
        <ele>21</ele>
        <time>2016-06-05T12:06:38.927Z</time>
      </trkpt>
      <trkpt lat="14.43657" lon="-60.8535">
        <ele>20</ele>
        <time>2016-06-05T12:06:39.930Z</time>
      </trkpt>
      <trkpt lat="14.43655" lon="-60.85343">
        <ele>20</ele>
        <time>2016-06-05T12:06:40.927Z</time>
      </trkpt>
      <trkpt lat="14.43654" lon="-60.85337">
        <ele>20</ele>
        <time>2016-06-05T12:06:41.925Z</time>
      </trkpt>
      <trkpt lat="14.43653" lon="-60.85331">
        <ele>19</ele>
        <time>2016-06-05T12:06:42.927Z</time>
      </trkpt>
      <trkpt lat="14.43652" lon="-60.85325">
        <ele>18</ele>
        <time>2016-06-05T12:06:43.924Z</time>
      </trkpt>
      <trkpt lat="14.43651" lon="-60.85318">
        <ele>18</ele>
        <time>2016-06-05T12:06:44.925Z</time>
      </trkpt>
      <trkpt lat="14.43652" lon="-60.85313">
        <ele>18</ele>
        <time>2016-06-05T12:06:45.921Z</time>
      </trkpt>
      <trkpt lat="14.43653" lon="-60.85307">
        <ele>18</ele>
        <time>2016-06-05T12:06:46.922Z</time>
      </trkpt>
      <trkpt lat="14.43655" lon="-60.85302">
        <ele>18</ele>
        <time>2016-06-05T12:06:47.922Z</time>
      </trkpt>
      <trkpt lat="14.43657" lon="-60.85297">
        <ele>18</ele>
        <time>2016-06-05T12:06:48.922Z</time>
      </trkpt>
      <trkpt lat="14.43659" lon="-60.85292">
        <ele>18</ele>
        <time>2016-06-05T12:06:49.924Z</time>
      </trkpt>
      <trkpt lat="14.43663" lon="-60.85287">
        <ele>18</ele>
        <time>2016-06-05T12:06:50.923Z</time>
      </trkpt>
      <trkpt lat="14.43666" lon="-60.85282">
        <ele>17</ele>
        <time>2016-06-05T12:06:51.927Z</time>
      </trkpt>
      <trkpt lat="14.43668" lon="-60.85277">
        <ele>16</ele>
        <time>2016-06-05T12:06:52.926Z</time>
      </trkpt>
      <trkpt lat="14.43671" lon="-60.85272">
        <ele>16</ele>
        <time>2016-06-05T12:06:53.932Z</time>
      </trkpt>
      <trkpt lat="14.43672" lon="-60.85268">
        <ele>14</ele>
        <time>2016-06-05T12:06:54.930Z</time>
      </trkpt>
      <trkpt lat="14.43676" lon="-60.85263">
        <ele>15</ele>
        <time>2016-06-05T12:06:55.924Z</time>
      </trkpt>
      <trkpt lat="14.43677" lon="-60.85258">
        <ele>15</ele>
        <time>2016-06-05T12:06:56.927Z</time>
      </trkpt>
      <trkpt lat="14.43679" lon="-60.85253">
        <ele>13</ele>
        <time>2016-06-05T12:06:57.928Z</time>
      </trkpt>
      <trkpt lat="14.43681" lon="-60.85249">
        <ele>12</ele>
        <time>2016-06-05T12:06:58.925Z</time>
      </trkpt>
      <trkpt lat="14.43684" lon="-60.85244">
        <ele>12</ele>
        <time>2016-06-05T12:06:59.927Z</time>
      </trkpt>
      <trkpt lat="14.43686" lon="-60.8524">
        <ele>11</ele>
        <time>2016-06-05T12:07:00.925Z</time>
      </trkpt>
      <trkpt lat="14.43688" lon="-60.85234">
        <ele>11</ele>
        <time>2016-06-05T12:07:01.924Z</time>
      </trkpt>
      <trkpt lat="14.4369" lon="-60.8523">
        <ele>11</ele>
        <time>2016-06-05T12:07:02.927Z</time>
      </trkpt>
      <trkpt lat="14.43693" lon="-60.85225">
        <ele>10</ele>
        <time>2016-06-05T12:07:03.926Z</time>
      </trkpt>
      <trkpt lat="14.43694" lon="-60.8522">
        <ele>10</ele>
        <time>2016-06-05T12:07:04.925Z</time>
      </trkpt>
      <trkpt lat="14.43697" lon="-60.85215">
        <ele>11</ele>
        <time>2016-06-05T12:07:05.926Z</time>
      </trkpt>
      <trkpt lat="14.437" lon="-60.85211">
        <ele>10</ele>
        <time>2016-06-05T12:07:06.929Z</time>
      </trkpt>
      <trkpt lat="14.43702" lon="-60.85207">
        <ele>10</ele>
        <time>2016-06-05T12:07:07.929Z</time>
      </trkpt>
      <trkpt lat="14.43704" lon="-60.85202">
        <ele>10</ele>
        <time>2016-06-05T12:07:08.929Z</time>
      </trkpt>
      <trkpt lat="14.43706" lon="-60.85198">
        <ele>10</ele>
        <time>2016-06-05T12:07:09.930Z</time>
      </trkpt>
      <trkpt lat="14.43709" lon="-60.85193">
        <ele>9</ele>
        <time>2016-06-05T12:07:10.928Z</time>
      </trkpt>
      <trkpt lat="14.43711" lon="-60.85189">
        <ele>8</ele>
        <time>2016-06-05T12:07:11.926Z</time>
      </trkpt>
      <trkpt lat="14.43713" lon="-60.85184">
        <ele>9</ele>
        <time>2016-06-05T12:07:12.926Z</time>
      </trkpt>
      <trkpt lat="14.43715" lon="-60.85178">
        <ele>9</ele>
        <time>2016-06-05T12:07:13.927Z</time>
      </trkpt>
      <trkpt lat="14.43718" lon="-60.85173">
        <ele>8</ele>
        <time>2016-06-05T12:07:14.928Z</time>
      </trkpt>
      <trkpt lat="14.4372" lon="-60.85168">
        <ele>8</ele>
        <time>2016-06-05T12:07:15.929Z</time>
      </trkpt>
      <trkpt lat="14.43723" lon="-60.85163">
        <ele>9</ele>
        <time>2016-06-05T12:07:16.929Z</time>
      </trkpt>
      <trkpt lat="14.43726" lon="-60.85158">
        <ele>9</ele>
        <time>2016-06-05T12:07:17.927Z</time>
      </trkpt>
      <trkpt lat="14.43728" lon="-60.85152">
        <ele>9</ele>
        <time>2016-06-05T12:07:18.925Z</time>
      </trkpt>
      <trkpt lat="14.43731" lon="-60.85147">
        <ele>9</ele>
        <time>2016-06-05T12:07:19.923Z</time>
      </trkpt>
      <trkpt lat="14.43734" lon="-60.85141">
        <ele>8</ele>
        <time>2016-06-05T12:07:20.923Z</time>
      </trkpt>
      <trkpt lat="14.43736" lon="-60.85135">
        <ele>7</ele>
        <time>2016-06-05T12:07:21.927Z</time>
      </trkpt>
      <trkpt lat="14.43738" lon="-60.8513">
        <ele>8</ele>
        <time>2016-06-05T12:07:22.926Z</time>
      </trkpt>
      <trkpt lat="14.4374" lon="-60.85124">
        <ele>8</ele>
        <time>2016-06-05T12:07:23.928Z</time>
      </trkpt>
      <trkpt lat="14.43743" lon="-60.85119">
        <ele>8</ele>
        <time>2016-06-05T12:07:24.927Z</time>
      </trkpt>
      <trkpt lat="14.43746" lon="-60.85113">
        <ele>9</ele>
        <time>2016-06-05T12:07:25.926Z</time>
      </trkpt>
      <trkpt lat="14.43748" lon="-60.85108">
        <ele>8</ele>
        <time>2016-06-05T12:07:26.925Z</time>
      </trkpt>
      <trkpt lat="14.4375" lon="-60.85102">
        <ele>9</ele>
        <time>2016-06-05T12:07:27.924Z</time>
      </trkpt>
      <trkpt lat="14.43752" lon="-60.85098">
        <ele>9</ele>
        <time>2016-06-05T12:07:28.925Z</time>
      </trkpt>
      <trkpt lat="14.43754" lon="-60.85093">
        <ele>9</ele>
        <time>2016-06-05T12:07:29.924Z</time>
      </trkpt>
      <trkpt lat="14.43756" lon="-60.8509">
        <ele>8</ele>
        <time>2016-06-05T12:07:30.925Z</time>
      </trkpt>
      <trkpt lat="14.43758" lon="-60.85086">
        <ele>8</ele>
        <time>2016-06-05T12:07:31.925Z</time>
      </trkpt>
      <trkpt lat="14.43759" lon="-60.85082">
        <ele>8</ele>
        <time>2016-06-05T12:07:32.925Z</time>
      </trkpt>
      <trkpt lat="14.43761" lon="-60.85078">
        <ele>8</ele>
        <time>2016-06-05T12:07:33.923Z</time>
      </trkpt>
      <trkpt lat="14.43763" lon="-60.85074">
        <ele>8</ele>
        <time>2016-06-05T12:07:34.925Z</time>
      </trkpt>
      <trkpt lat="14.43765" lon="-60.85071">
        <ele>9</ele>
        <time>2016-06-05T12:07:35.923Z</time>
      </trkpt>
      <trkpt lat="14.43767" lon="-60.85068">
        <ele>10</ele>
        <time>2016-06-05T12:07:36.923Z</time>
      </trkpt>
      <trkpt lat="14.43769" lon="-60.85063">
        <ele>9</ele>
        <time>2016-06-05T12:07:37.924Z</time>
      </trkpt>
      <trkpt lat="14.43771" lon="-60.85059">
        <ele>9</ele>
        <time>2016-06-05T12:07:38.926Z</time>
      </trkpt>
      <trkpt lat="14.43773" lon="-60.85056">
        <ele>10</ele>
        <time>2016-06-05T12:07:39.927Z</time>
      </trkpt>
      <trkpt lat="14.43776" lon="-60.85051">
        <ele>10</ele>
        <time>2016-06-05T12:07:40.925Z</time>
      </trkpt>
      <trkpt lat="14.43777" lon="-60.85047">
        <ele>10</ele>
        <time>2016-06-05T12:07:41.924Z</time>
      </trkpt>
      <trkpt lat="14.43779" lon="-60.85042">
        <ele>10</ele>
        <time>2016-06-05T12:07:42.924Z</time>
      </trkpt>
      <trkpt lat="14.43781" lon="-60.85037">
        <ele>10</ele>
        <time>2016-06-05T12:07:43.926Z</time>
      </trkpt>
      <trkpt lat="14.43783" lon="-60.85033">
        <ele>10</ele>
        <time>2016-06-05T12:07:44.925Z</time>
      </trkpt>
      <trkpt lat="14.43784" lon="-60.85029">
        <ele>10</ele>
        <time>2016-06-05T12:07:45.928Z</time>
      </trkpt>
      <trkpt lat="14.43786" lon="-60.85024">
        <ele>9</ele>
        <time>2016-06-05T12:07:46.926Z</time>
      </trkpt>
      <trkpt lat="14.43788" lon="-60.8502">
        <ele>9</ele>
        <time>2016-06-05T12:07:47.926Z</time>
      </trkpt>
      <trkpt lat="14.43789" lon="-60.85017">
        <ele>9</ele>
        <time>2016-06-05T12:07:48.925Z</time>
      </trkpt>
      <trkpt lat="14.43791" lon="-60.85014">
        <ele>9</ele>
        <time>2016-06-05T12:07:49.927Z</time>
      </trkpt>
      <trkpt lat="14.43791" lon="-60.85012">
        <ele>9</ele>
        <time>2016-06-05T12:07:50.925Z</time>
      </trkpt>
      <trkpt lat="14.43792" lon="-60.85009">
        <ele>9</ele>
        <time>2016-06-05T12:07:51.922Z</time>
      </trkpt>
      <trkpt lat="14.43792" lon="-60.85007">
        <ele>9</ele>
        <time>2016-06-05T12:07:52.924Z</time>
      </trkpt>
      <trkpt lat="14.43792" lon="-60.85006">
        <ele>9</ele>
        <time>2016-06-05T12:07:53.926Z</time>
      </trkpt>
      <trkpt lat="14.43791" lon="-60.85004">
        <ele>9</ele>
        <time>2016-06-05T12:07:54.927Z</time>
      </trkpt>
      <trkpt lat="14.43791" lon="-60.85003">
        <ele>9</ele>
        <time>2016-06-05T12:07:55.926Z</time>
      </trkpt>
      <trkpt lat="14.43791" lon="-60.85001">
        <ele>9</ele>
        <time>2016-06-05T12:07:56.927Z</time>
      </trkpt>
      <trkpt lat="14.43791" lon="-60.84998">
        <ele>9</ele>
        <time>2016-06-05T12:07:58.923Z</time>
      </trkpt>
      <trkpt lat="14.43791" lon="-60.84996">
        <ele>9</ele>
        <time>2016-06-05T12:08:00.928Z</time>
      </trkpt>
      <trkpt lat="14.43789" lon="-60.84995">
        <ele>9</ele>
        <time>2016-06-05T12:08:02.925Z</time>
      </trkpt>
      <trkpt lat="14.43785" lon="-60.84992">
        <ele>8</ele>
        <time>2016-06-05T12:08:19.918Z</time>
      </trkpt>
      <trkpt lat="14.43783" lon="-60.84992">
        <ele>8</ele>
        <time>2016-06-05T12:08:20.923Z</time>
      </trkpt>
      <trkpt lat="14.43782" lon="-60.84991">
        <ele>8</ele>
        <time>2016-06-05T12:08:21.924Z</time>
      </trkpt>
      <trkpt lat="14.43781" lon="-60.84989">
        <ele>7</ele>
        <time>2016-06-05T12:08:22.922Z</time>
      </trkpt>
      <trkpt lat="14.4378" lon="-60.84988">
        <ele>7</ele>
        <time>2016-06-05T12:08:23.926Z</time>
      </trkpt>
      <trkpt lat="14.43779" lon="-60.84987">
        <ele>7</ele>
        <time>2016-06-05T12:08:25.925Z</time>
      </trkpt>
      <trkpt lat="14.43776" lon="-60.84984">
        <ele>6</ele>
        <time>2016-06-05T12:08:30.928Z</time>
      </trkpt>
      <trkpt lat="14.43774" lon="-60.84983">
        <ele>5</ele>
        <time>2016-06-05T12:08:32.924Z</time>
      </trkpt>
      <trkpt lat="14.43773" lon="-60.84981">
        <ele>3</ele>
        <time>2016-06-05T12:08:34.926Z</time>
      </trkpt>
      <trkpt lat="14.43772" lon="-60.8498">
        <ele>4</ele>
        <time>2016-06-05T12:08:35.928Z</time>
      </trkpt>
      <trkpt lat="14.43771" lon="-60.84978">
        <ele>3</ele>
        <time>2016-06-05T12:08:36.926Z</time>
      </trkpt>
      <trkpt lat="14.4377" lon="-60.84977">
        <ele>3</ele>
        <time>2016-06-05T12:08:37.925Z</time>
      </trkpt>
      <trkpt lat="14.43768" lon="-60.84976">
        <ele>2</ele>
        <time>2016-06-05T12:08:38.925Z</time>
      </trkpt>
      <trkpt lat="14.43767" lon="-60.84975">
        <ele>2</ele>
        <time>2016-06-05T12:08:39.929Z</time>
      </trkpt>
      <trkpt lat="14.43766" lon="-60.84974">
        <ele>3</ele>
        <time>2016-06-05T12:08:40.928Z</time>
      </trkpt>
      <trkpt lat="14.43765" lon="-60.84972">
        <ele>3</ele>
        <time>2016-06-05T12:08:41.924Z</time>
      </trkpt>
      <trkpt lat="14.43764" lon="-60.84971">
        <ele>2</ele>
        <time>2016-06-05T12:08:42.926Z</time>
      </trkpt>
      <trkpt lat="14.43762" lon="-60.8497">
        <ele>2</ele>
        <time>2016-06-05T12:08:43.925Z</time>
      </trkpt>
      <trkpt lat="14.4376" lon="-60.84968">
        <ele>3</ele>
        <time>2016-06-05T12:08:44.926Z</time>
      </trkpt>
      <trkpt lat="14.43758" lon="-60.84966">
        <ele>3</ele>
        <time>2016-06-05T12:08:45.927Z</time>
      </trkpt>
      <trkpt lat="14.43755" lon="-60.84963">
        <ele>3</ele>
        <time>2016-06-05T12:08:46.925Z</time>
      </trkpt>
      <trkpt lat="14.43752" lon="-60.8496">
        <ele>3</ele>
        <time>2016-06-05T12:08:47.926Z</time>
      </trkpt>
      <trkpt lat="14.4375" lon="-60.84957">
        <ele>4</ele>
        <time>2016-06-05T12:08:48.927Z</time>
      </trkpt>
      <trkpt lat="14.43747" lon="-60.84954">
        <ele>4</ele>
        <time>2016-06-05T12:08:49.927Z</time>
      </trkpt>
      <trkpt lat="14.43745" lon="-60.84952">
        <ele>4</ele>
        <time>2016-06-05T12:08:50.924Z</time>
      </trkpt>
      <trkpt lat="14.43742" lon="-60.8495">
        <ele>4</ele>
        <time>2016-06-05T12:08:51.925Z</time>
      </trkpt>
      <trkpt lat="14.4374" lon="-60.84947">
        <ele>5</ele>
        <time>2016-06-05T12:08:52.925Z</time>
      </trkpt>
      <trkpt lat="14.43738" lon="-60.84945">
        <ele>5</ele>
        <time>2016-06-05T12:08:53.925Z</time>
      </trkpt>
      <trkpt lat="14.43737" lon="-60.84943">
        <ele>5</ele>
        <time>2016-06-05T12:08:54.924Z</time>
      </trkpt>
      <trkpt lat="14.43735" lon="-60.84941">
        <ele>5</ele>
        <time>2016-06-05T12:08:55.928Z</time>
      </trkpt>
      <trkpt lat="14.43734" lon="-60.84939">
        <ele>5</ele>
        <time>2016-06-05T12:08:56.927Z</time>
      </trkpt>
      <trkpt lat="14.43733" lon="-60.84937">
        <ele>4</ele>
        <time>2016-06-05T12:08:57.930Z</time>
      </trkpt>
      <trkpt lat="14.43732" lon="-60.84935">
        <ele>4</ele>
        <time>2016-06-05T12:08:58.927Z</time>
      </trkpt>
      <trkpt lat="14.4373" lon="-60.84932">
        <ele>5</ele>
        <time>2016-06-05T12:08:59.927Z</time>
      </trkpt>
      <trkpt lat="14.43729" lon="-60.8493">
        <ele>5</ele>
        <time>2016-06-05T12:09:00.929Z</time>
      </trkpt>
      <trkpt lat="14.43728" lon="-60.84928">
        <ele>6</ele>
        <time>2016-06-05T12:09:01.925Z</time>
      </trkpt>
      <trkpt lat="14.43727" lon="-60.84926">
        <ele>6</ele>
        <time>2016-06-05T12:09:02.925Z</time>
      </trkpt>
      <trkpt lat="14.43726" lon="-60.84924">
        <ele>6</ele>
        <time>2016-06-05T12:09:03.925Z</time>
      </trkpt>
      <trkpt lat="14.43725" lon="-60.84921">
        <ele>6</ele>
        <time>2016-06-05T12:09:04.926Z</time>
      </trkpt>
      <trkpt lat="14.43724" lon="-60.84919">
        <ele>6</ele>
        <time>2016-06-05T12:09:05.924Z</time>
      </trkpt>
      <trkpt lat="14.43722" lon="-60.84917">
        <ele>6</ele>
        <time>2016-06-05T12:09:06.927Z</time>
      </trkpt>
      <trkpt lat="14.43722" lon="-60.84915">
        <ele>6</ele>
        <time>2016-06-05T12:09:07.928Z</time>
      </trkpt>
      <trkpt lat="14.43721" lon="-60.84913">
        <ele>7</ele>
        <time>2016-06-05T12:09:08.925Z</time>
      </trkpt>
      <trkpt lat="14.43719" lon="-60.84911">
        <ele>7</ele>
        <time>2016-06-05T12:09:09.925Z</time>
      </trkpt>
      <trkpt lat="14.43718" lon="-60.84909">
        <ele>7</ele>
        <time>2016-06-05T12:09:10.925Z</time>
      </trkpt>
      <trkpt lat="14.43718" lon="-60.84907">
        <ele>7</ele>
        <time>2016-06-05T12:09:11.930Z</time>
      </trkpt>
      <trkpt lat="14.43716" lon="-60.84904">
        <ele>7</ele>
        <time>2016-06-05T12:09:12.930Z</time>
      </trkpt>
      <trkpt lat="14.43715" lon="-60.84901">
        <ele>7</ele>
        <time>2016-06-05T12:09:13.926Z</time>
      </trkpt>
      <trkpt lat="14.43715" lon="-60.84899">
        <ele>6</ele>
        <time>2016-06-05T12:09:14.929Z</time>
      </trkpt>
      <trkpt lat="14.43713" lon="-60.84896">
        <ele>6</ele>
        <time>2016-06-05T12:09:15.927Z</time>
      </trkpt>
      <trkpt lat="14.43711" lon="-60.84894">
        <ele>6</ele>
        <time>2016-06-05T12:09:16.926Z</time>
      </trkpt>
      <trkpt lat="14.4371" lon="-60.84892">
        <ele>6</ele>
        <time>2016-06-05T12:09:17.927Z</time>
      </trkpt>
      <trkpt lat="14.43708" lon="-60.84889">
        <ele>7</ele>
        <time>2016-06-05T12:09:18.926Z</time>
      </trkpt>
      <trkpt lat="14.43707" lon="-60.84886">
        <ele>7</ele>
        <time>2016-06-05T12:09:19.925Z</time>
      </trkpt>
      <trkpt lat="14.43705" lon="-60.84884">
        <ele>8</ele>
        <time>2016-06-05T12:09:20.927Z</time>
      </trkpt>
      <trkpt lat="14.43703" lon="-60.84881">
        <ele>8</ele>
        <time>2016-06-05T12:09:21.925Z</time>
      </trkpt>
      <trkpt lat="14.43702" lon="-60.84879">
        <ele>8</ele>
        <time>2016-06-05T12:09:22.925Z</time>
      </trkpt>
      <trkpt lat="14.437" lon="-60.84877">
        <ele>8</ele>
        <time>2016-06-05T12:09:23.926Z</time>
      </trkpt>
      <trkpt lat="14.43698" lon="-60.84874">
        <ele>9</ele>
        <time>2016-06-05T12:09:24.924Z</time>
      </trkpt>
      <trkpt lat="14.43697" lon="-60.84873">
        <ele>9</ele>
        <time>2016-06-05T12:09:25.924Z</time>
      </trkpt>
      <trkpt lat="14.43696" lon="-60.84871">
        <ele>9</ele>
        <time>2016-06-05T12:09:26.926Z</time>
      </trkpt>
      <trkpt lat="14.43694" lon="-60.84869">
        <ele>9</ele>
        <time>2016-06-05T12:09:27.927Z</time>
      </trkpt>
      <trkpt lat="14.43693" lon="-60.84867">
        <ele>9</ele>
        <time>2016-06-05T12:09:28.924Z</time>
      </trkpt>
      <trkpt lat="14.43691" lon="-60.84865">
        <ele>8</ele>
        <time>2016-06-05T12:09:29.926Z</time>
      </trkpt>
      <trkpt lat="14.43689" lon="-60.84862">
        <ele>8</ele>
        <time>2016-06-05T12:09:30.927Z</time>
      </trkpt>
      <trkpt lat="14.43686" lon="-60.8486">
        <ele>8</ele>
        <time>2016-06-05T12:09:31.926Z</time>
      </trkpt>
      <trkpt lat="14.43684" lon="-60.84858">
        <ele>8</ele>
        <time>2016-06-05T12:09:32.926Z</time>
      </trkpt>
      <trkpt lat="14.43683" lon="-60.84856">
        <ele>8</ele>
        <time>2016-06-05T12:09:33.926Z</time>
      </trkpt>
      <trkpt lat="14.43681" lon="-60.84853">
        <ele>8</ele>
        <time>2016-06-05T12:09:34.927Z</time>
      </trkpt>
      <trkpt lat="14.43678" lon="-60.84852">
        <ele>9</ele>
        <time>2016-06-05T12:09:35.926Z</time>
      </trkpt>
      <trkpt lat="14.43677" lon="-60.84848">
        <ele>9</ele>
        <time>2016-06-05T12:09:36.926Z</time>
      </trkpt>
      <trkpt lat="14.43676" lon="-60.84845">
        <ele>9</ele>
        <time>2016-06-05T12:09:37.925Z</time>
      </trkpt>
      <trkpt lat="14.43674" lon="-60.84843">
        <ele>9</ele>
        <time>2016-06-05T12:09:38.925Z</time>
      </trkpt>
      <trkpt lat="14.43671" lon="-60.8484">
        <ele>10</ele>
        <time>2016-06-05T12:09:39.928Z</time>
      </trkpt>
      <trkpt lat="14.43669" lon="-60.84837">
        <ele>10</ele>
        <time>2016-06-05T12:09:40.929Z</time>
      </trkpt>
      <trkpt lat="14.43667" lon="-60.84835">
        <ele>10</ele>
        <time>2016-06-05T12:09:41.927Z</time>
      </trkpt>
      <trkpt lat="14.43664" lon="-60.84832">
        <ele>11</ele>
        <time>2016-06-05T12:09:42.927Z</time>
      </trkpt>
      <trkpt lat="14.43662" lon="-60.8483">
        <ele>10</ele>
        <time>2016-06-05T12:09:43.930Z</time>
      </trkpt>
      <trkpt lat="14.4366" lon="-60.84828">
        <ele>10</ele>
        <time>2016-06-05T12:09:44.928Z</time>
      </trkpt>
      <trkpt lat="14.43658" lon="-60.84825">
        <ele>10</ele>
        <time>2016-06-05T12:09:45.926Z</time>
      </trkpt>
      <trkpt lat="14.43657" lon="-60.84823">
        <ele>10</ele>
        <time>2016-06-05T12:09:46.927Z</time>
      </trkpt>
      <trkpt lat="14.43654" lon="-60.84821">
        <ele>10</ele>
        <time>2016-06-05T12:09:47.927Z</time>
      </trkpt>
      <trkpt lat="14.43651" lon="-60.84818">
        <ele>11</ele>
        <time>2016-06-05T12:09:48.925Z</time>
      </trkpt>
      <trkpt lat="14.43648" lon="-60.84815">
        <ele>11</ele>
        <time>2016-06-05T12:09:49.926Z</time>
      </trkpt>
      <trkpt lat="14.43646" lon="-60.84812">
        <ele>12</ele>
        <time>2016-06-05T12:09:50.926Z</time>
      </trkpt>
      <trkpt lat="14.43643" lon="-60.84809">
        <ele>11</ele>
        <time>2016-06-05T12:09:51.927Z</time>
      </trkpt>
      <trkpt lat="14.43641" lon="-60.84806">
        <ele>10</ele>
        <time>2016-06-05T12:09:52.925Z</time>
      </trkpt>
      <trkpt lat="14.43638" lon="-60.84804">
        <ele>10</ele>
        <time>2016-06-05T12:09:53.925Z</time>
      </trkpt>
      <trkpt lat="14.43635" lon="-60.84803">
        <ele>11</ele>
        <time>2016-06-05T12:09:54.928Z</time>
      </trkpt>
      <trkpt lat="14.43633" lon="-60.848">
        <ele>11</ele>
        <time>2016-06-05T12:09:55.924Z</time>
      </trkpt>
      <trkpt lat="14.43629" lon="-60.84798">
        <ele>11</ele>
        <time>2016-06-05T12:09:56.928Z</time>
      </trkpt>
      <trkpt lat="14.43626" lon="-60.84796">
        <ele>11</ele>
        <time>2016-06-05T12:09:57.925Z</time>
      </trkpt>
      <trkpt lat="14.43622" lon="-60.84796">
        <ele>10</ele>
        <time>2016-06-05T12:09:58.925Z</time>
      </trkpt>
      <trkpt lat="14.43619" lon="-60.84794">
        <ele>9</ele>
        <time>2016-06-05T12:09:59.927Z</time>
      </trkpt>
      <trkpt lat="14.43617" lon="-60.84794">
        <ele>7</ele>
        <time>2016-06-05T12:10:00.932Z</time>
      </trkpt>
      <trkpt lat="14.43614" lon="-60.84794">
        <ele>7</ele>
        <time>2016-06-05T12:10:01.925Z</time>
      </trkpt>
      <trkpt lat="14.43612" lon="-60.84793">
        <ele>6</ele>
        <time>2016-06-05T12:10:02.926Z</time>
      </trkpt>
      <trkpt lat="14.4361" lon="-60.84794">
        <ele>6</ele>
        <time>2016-06-05T12:10:03.925Z</time>
      </trkpt>
      <trkpt lat="14.43608" lon="-60.84793">
        <ele>6</ele>
        <time>2016-06-05T12:10:04.925Z</time>
      </trkpt>
      <trkpt lat="14.43605" lon="-60.84792">
        <ele>7</ele>
        <time>2016-06-05T12:10:05.927Z</time>
      </trkpt>
      <trkpt lat="14.43603" lon="-60.84791">
        <ele>7</ele>
        <time>2016-06-05T12:10:06.926Z</time>
      </trkpt>
      <trkpt lat="14.43601" lon="-60.8479">
        <ele>6</ele>
        <time>2016-06-05T12:10:07.923Z</time>
      </trkpt>
      <trkpt lat="14.43598" lon="-60.84788">
        <ele>6</ele>
        <time>2016-06-05T12:10:08.925Z</time>
      </trkpt>
      <trkpt lat="14.43596" lon="-60.84785">
        <ele>6</ele>
        <time>2016-06-05T12:10:09.926Z</time>
      </trkpt>
      <trkpt lat="14.43594" lon="-60.84784">
        <ele>6</ele>
        <time>2016-06-05T12:10:10.926Z</time>
      </trkpt>
      <trkpt lat="14.43592" lon="-60.84783">
        <ele>6</ele>
        <time>2016-06-05T12:10:11.924Z</time>
      </trkpt>
      <trkpt lat="14.43591" lon="-60.84782">
        <ele>6</ele>
        <time>2016-06-05T12:10:12.923Z</time>
      </trkpt>
      <trkpt lat="14.43587" lon="-60.84782">
        <ele>6</ele>
        <time>2016-06-05T12:10:14.927Z</time>
      </trkpt>
      <trkpt lat="14.43586" lon="-60.84783">
        <ele>6</ele>
        <time>2016-06-05T12:10:15.923Z</time>
      </trkpt>
      <trkpt lat="14.43585" lon="-60.84784">
        <ele>5</ele>
        <time>2016-06-05T12:10:16.924Z</time>
      </trkpt>
      <trkpt lat="14.43584" lon="-60.84786">
        <ele>6</ele>
        <time>2016-06-05T12:10:17.927Z</time>
      </trkpt>
      <trkpt lat="14.43582" lon="-60.84789">
        <ele>6</ele>
        <time>2016-06-05T12:10:18.926Z</time>
      </trkpt>
      <trkpt lat="14.43581" lon="-60.84791">
        <ele>6</ele>
        <time>2016-06-05T12:10:19.925Z</time>
      </trkpt>
      <trkpt lat="14.4358" lon="-60.84792">
        <ele>6</ele>
        <time>2016-06-05T12:10:20.924Z</time>
      </trkpt>
      <trkpt lat="14.43579" lon="-60.84794">
        <ele>6</ele>
        <time>2016-06-05T12:10:21.924Z</time>
      </trkpt>
      <trkpt lat="14.43577" lon="-60.84797">
        <ele>6</ele>
        <time>2016-06-05T12:10:23.925Z</time>
      </trkpt>
      <trkpt lat="14.43576" lon="-60.848">
        <ele>7</ele>
        <time>2016-06-05T12:10:24.922Z</time>
      </trkpt>
      <trkpt lat="14.43574" lon="-60.84802">
        <ele>7</ele>
        <time>2016-06-05T12:10:25.923Z</time>
      </trkpt>
      <trkpt lat="14.43573" lon="-60.84805">
        <ele>7</ele>
        <time>2016-06-05T12:10:26.926Z</time>
      </trkpt>
      <trkpt lat="14.43572" lon="-60.84808">
        <ele>8</ele>
        <time>2016-06-05T12:10:27.926Z</time>
      </trkpt>
      <trkpt lat="14.4357" lon="-60.8481">
        <ele>7</ele>
        <time>2016-06-05T12:10:28.920Z</time>
      </trkpt>
      <trkpt lat="14.43568" lon="-60.84813">
        <ele>6</ele>
        <time>2016-06-05T12:10:29.921Z</time>
      </trkpt>
      <trkpt lat="14.43566" lon="-60.84815">
        <ele>6</ele>
        <time>2016-06-05T12:10:30.922Z</time>
      </trkpt>
      <trkpt lat="14.43564" lon="-60.84817">
        <ele>6</ele>
        <time>2016-06-05T12:10:31.922Z</time>
      </trkpt>
      <trkpt lat="14.43562" lon="-60.8482">
        <ele>6</ele>
        <time>2016-06-05T12:10:32.926Z</time>
      </trkpt>
      <trkpt lat="14.43559" lon="-60.84821">
        <ele>6</ele>
        <time>2016-06-05T12:10:33.924Z</time>
      </trkpt>
      <trkpt lat="14.43556" lon="-60.84822">
        <ele>6</ele>
        <time>2016-06-05T12:10:34.923Z</time>
      </trkpt>
      <trkpt lat="14.43553" lon="-60.84823">
        <ele>6</ele>
        <time>2016-06-05T12:10:35.924Z</time>
      </trkpt>
      <trkpt lat="14.4355" lon="-60.84823">
        <ele>6</ele>
        <time>2016-06-05T12:10:36.926Z</time>
      </trkpt>
      <trkpt lat="14.43547" lon="-60.84824">
        <ele>6</ele>
        <time>2016-06-05T12:10:37.925Z</time>
      </trkpt>
      <trkpt lat="14.43545" lon="-60.84825">
        <ele>6</ele>
        <time>2016-06-05T12:10:38.925Z</time>
      </trkpt>
      <trkpt lat="14.43543" lon="-60.84826">
        <ele>7</ele>
        <time>2016-06-05T12:10:39.925Z</time>
      </trkpt>
      <trkpt lat="14.43541" lon="-60.84828">
        <ele>6</ele>
        <time>2016-06-05T12:10:40.925Z</time>
      </trkpt>
      <trkpt lat="14.43538" lon="-60.84829">
        <ele>6</ele>
        <time>2016-06-05T12:10:41.924Z</time>
      </trkpt>
      <trkpt lat="14.43535" lon="-60.8483">
        <ele>5</ele>
        <time>2016-06-05T12:10:42.925Z</time>
      </trkpt>
      <trkpt lat="14.43532" lon="-60.84831">
        <ele>6</ele>
        <time>2016-06-05T12:10:43.924Z</time>
      </trkpt>
      <trkpt lat="14.43529" lon="-60.84832">
        <ele>5</ele>
        <time>2016-06-05T12:10:44.923Z</time>
      </trkpt>
      <trkpt lat="14.43526" lon="-60.84833">
        <ele>5</ele>
        <time>2016-06-05T12:10:45.923Z</time>
      </trkpt>
      <trkpt lat="14.43523" lon="-60.84835">
        <ele>6</ele>
        <time>2016-06-05T12:10:46.925Z</time>
      </trkpt>
      <trkpt lat="14.43521" lon="-60.84836">
        <ele>6</ele>
        <time>2016-06-05T12:10:47.924Z</time>
      </trkpt>
      <trkpt lat="14.43517" lon="-60.84834">
        <ele>5</ele>
        <time>2016-06-05T12:10:48.924Z</time>
      </trkpt>
      <trkpt lat="14.43514" lon="-60.84835">
        <ele>5</ele>
        <time>2016-06-05T12:10:49.926Z</time>
      </trkpt>
      <trkpt lat="14.43512" lon="-60.84835">
        <ele>4</ele>
        <time>2016-06-05T12:10:50.924Z</time>
      </trkpt>
      <trkpt lat="14.43508" lon="-60.84836">
        <ele>3</ele>
        <time>2016-06-05T12:10:51.924Z</time>
      </trkpt>
      <trkpt lat="14.43505" lon="-60.84837">
        <ele>3</ele>
        <time>2016-06-05T12:10:52.925Z</time>
      </trkpt>
      <trkpt lat="14.43502" lon="-60.84839">
        <ele>4</ele>
        <time>2016-06-05T12:10:53.924Z</time>
      </trkpt>
      <trkpt lat="14.43499" lon="-60.84841">
        <ele>5</ele>
        <time>2016-06-05T12:10:54.924Z</time>
      </trkpt>
      <trkpt lat="14.43498" lon="-60.84843">
        <ele>6</ele>
        <time>2016-06-05T12:10:55.924Z</time>
      </trkpt>
      <trkpt lat="14.43496" lon="-60.84846">
        <ele>7</ele>
        <time>2016-06-05T12:10:56.927Z</time>
      </trkpt>
      <trkpt lat="14.43493" lon="-60.84848">
        <ele>6</ele>
        <time>2016-06-05T12:10:57.925Z</time>
      </trkpt>
      <trkpt lat="14.4349" lon="-60.8485">
        <ele>5</ele>
        <time>2016-06-05T12:10:58.924Z</time>
      </trkpt>
      <trkpt lat="14.43487" lon="-60.84852">
        <ele>5</ele>
        <time>2016-06-05T12:10:59.924Z</time>
      </trkpt>
      <trkpt lat="14.43484" lon="-60.84854">
        <ele>6</ele>
        <time>2016-06-05T12:11:00.925Z</time>
      </trkpt>
      <trkpt lat="14.43479" lon="-60.84854">
        <ele>7</ele>
        <time>2016-06-05T12:11:01.926Z</time>
      </trkpt>
      <trkpt lat="14.43475" lon="-60.84855">
        <ele>7</ele>
        <time>2016-06-05T12:11:02.927Z</time>
      </trkpt>
      <trkpt lat="14.43473" lon="-60.84859">
        <ele>7</ele>
        <time>2016-06-05T12:11:03.924Z</time>
      </trkpt>
      <trkpt lat="14.43472" lon="-60.84862">
        <ele>7</ele>
        <time>2016-06-05T12:11:04.925Z</time>
      </trkpt>
      <trkpt lat="14.43471" lon="-60.84866">
        <ele>7</ele>
        <time>2016-06-05T12:11:05.926Z</time>
      </trkpt>
      <trkpt lat="14.43469" lon="-60.84869">
        <ele>7</ele>
        <time>2016-06-05T12:11:06.927Z</time>
      </trkpt>
      <trkpt lat="14.43467" lon="-60.84872">
        <ele>7</ele>
        <time>2016-06-05T12:11:07.925Z</time>
      </trkpt>
      <trkpt lat="14.43466" lon="-60.84875">
        <ele>7</ele>
        <time>2016-06-05T12:11:08.927Z</time>
      </trkpt>
      <trkpt lat="14.43465" lon="-60.84879">
        <ele>6</ele>
        <time>2016-06-05T12:11:09.926Z</time>
      </trkpt>
      <trkpt lat="14.43463" lon="-60.84882">
        <ele>7</ele>
        <time>2016-06-05T12:11:10.928Z</time>
      </trkpt>
      <trkpt lat="14.43462" lon="-60.84886">
        <ele>7</ele>
        <time>2016-06-05T12:11:11.930Z</time>
      </trkpt>
      <trkpt lat="14.4346" lon="-60.84889">
        <ele>7</ele>
        <time>2016-06-05T12:11:12.928Z</time>
      </trkpt>
      <trkpt lat="14.43459" lon="-60.84892">
        <ele>7</ele>
        <time>2016-06-05T12:11:13.925Z</time>
      </trkpt>
      <trkpt lat="14.43457" lon="-60.84896">
        <ele>7</ele>
        <time>2016-06-05T12:11:14.928Z</time>
      </trkpt>
      <trkpt lat="14.43455" lon="-60.84899">
        <ele>8</ele>
        <time>2016-06-05T12:11:15.922Z</time>
      </trkpt>
      <trkpt lat="14.43453" lon="-60.84902">
        <ele>7</ele>
        <time>2016-06-05T12:11:16.922Z</time>
      </trkpt>
      <trkpt lat="14.43451" lon="-60.84905">
        <ele>7</ele>
        <time>2016-06-05T12:11:17.921Z</time>
      </trkpt>
      <trkpt lat="14.43449" lon="-60.84909">
        <ele>6</ele>
        <time>2016-06-05T12:11:18.920Z</time>
      </trkpt>
      <trkpt lat="14.43447" lon="-60.84912">
        <ele>6</ele>
        <time>2016-06-05T12:11:19.920Z</time>
      </trkpt>
      <trkpt lat="14.43446" lon="-60.84916">
        <ele>5</ele>
        <time>2016-06-05T12:11:20.919Z</time>
      </trkpt>
      <trkpt lat="14.43444" lon="-60.84919">
        <ele>5</ele>
        <time>2016-06-05T12:11:21.919Z</time>
      </trkpt>
      <trkpt lat="14.43442" lon="-60.84922">
        <ele>6</ele>
        <time>2016-06-05T12:11:22.922Z</time>
      </trkpt>
      <trkpt lat="14.4344" lon="-60.84925">
        <ele>5</ele>
        <time>2016-06-05T12:11:23.924Z</time>
      </trkpt>
      <trkpt lat="14.43437" lon="-60.84927">
        <ele>5</ele>
        <time>2016-06-05T12:11:24.924Z</time>
      </trkpt>
      <trkpt lat="14.43434" lon="-60.84929">
        <ele>6</ele>
        <time>2016-06-05T12:11:25.926Z</time>
      </trkpt>
      <trkpt lat="14.43431" lon="-60.84928">
        <ele>6</ele>
        <time>2016-06-05T12:11:26.925Z</time>
      </trkpt>
      <trkpt lat="14.43429" lon="-60.84928">
        <ele>6</ele>
        <time>2016-06-05T12:11:27.926Z</time>
      </trkpt>
      <trkpt lat="14.43426" lon="-60.84928">
        <ele>6</ele>
        <time>2016-06-05T12:11:28.924Z</time>
      </trkpt>
      <trkpt lat="14.43423" lon="-60.84927">
        <ele>6</ele>
        <time>2016-06-05T12:11:29.925Z</time>
      </trkpt>
      <trkpt lat="14.43421" lon="-60.84927">
        <ele>6</ele>
        <time>2016-06-05T12:11:30.931Z</time>
      </trkpt>
      <trkpt lat="14.43418" lon="-60.84927">
        <ele>6</ele>
        <time>2016-06-05T12:11:31.925Z</time>
      </trkpt>
      <trkpt lat="14.43415" lon="-60.84926">
        <ele>6</ele>
        <time>2016-06-05T12:11:32.923Z</time>
      </trkpt>
      <trkpt lat="14.43412" lon="-60.84925">
        <ele>7</ele>
        <time>2016-06-05T12:11:33.926Z</time>
      </trkpt>
      <trkpt lat="14.43409" lon="-60.84925">
        <ele>6</ele>
        <time>2016-06-05T12:11:34.926Z</time>
      </trkpt>
      <trkpt lat="14.43407" lon="-60.84924">
        <ele>7</ele>
        <time>2016-06-05T12:11:35.927Z</time>
      </trkpt>
      <trkpt lat="14.43404" lon="-60.84924">
        <ele>6</ele>
        <time>2016-06-05T12:11:36.925Z</time>
      </trkpt>
      <trkpt lat="14.43401" lon="-60.84923">
        <ele>7</ele>
        <time>2016-06-05T12:11:37.924Z</time>
      </trkpt>
      <trkpt lat="14.43399" lon="-60.84922">
        <ele>7</ele>
        <time>2016-06-05T12:11:38.924Z</time>
      </trkpt>
      <trkpt lat="14.43397" lon="-60.84921">
        <ele>7</ele>
        <time>2016-06-05T12:11:39.925Z</time>
      </trkpt>
      <trkpt lat="14.43396" lon="-60.8492">
        <ele>7</ele>
        <time>2016-06-05T12:11:40.925Z</time>
      </trkpt>
      <trkpt lat="14.43394" lon="-60.8492">
        <ele>7</ele>
        <time>2016-06-05T12:11:41.926Z</time>
      </trkpt>
      <trkpt lat="14.43392" lon="-60.8492">
        <ele>7</ele>
        <time>2016-06-05T12:11:42.924Z</time>
      </trkpt>
      <trkpt lat="14.43391" lon="-60.84919">
        <ele>7</ele>
        <time>2016-06-05T12:11:43.925Z</time>
      </trkpt>
      <trkpt lat="14.43389" lon="-60.84918">
        <ele>6</ele>
        <time>2016-06-05T12:11:45.926Z</time>
      </trkpt>
      <trkpt lat="14.43387" lon="-60.84917">
        <ele>6</ele>
        <time>2016-06-05T12:11:46.925Z</time>
      </trkpt>
      <trkpt lat="14.43386" lon="-60.84917">
        <ele>6</ele>
        <time>2016-06-05T12:11:47.927Z</time>
      </trkpt>
      <trkpt lat="14.43383" lon="-60.84917">
        <ele>5</ele>
        <time>2016-06-05T12:11:48.924Z</time>
      </trkpt>
      <trkpt lat="14.43381" lon="-60.84917">
        <ele>6</ele>
        <time>2016-06-05T12:11:49.928Z</time>
      </trkpt>
      <trkpt lat="14.43379" lon="-60.84916">
        <ele>6</ele>
        <time>2016-06-05T12:11:50.926Z</time>
      </trkpt>
      <trkpt lat="14.43377" lon="-60.84916">
        <ele>6</ele>
        <time>2016-06-05T12:11:51.925Z</time>
      </trkpt>
      <trkpt lat="14.43374" lon="-60.84915">
        <ele>5</ele>
        <time>2016-06-05T12:11:52.925Z</time>
      </trkpt>
      <trkpt lat="14.43372" lon="-60.84915">
        <ele>5</ele>
        <time>2016-06-05T12:11:53.925Z</time>
      </trkpt>
      <trkpt lat="14.43369" lon="-60.84915">
        <ele>5</ele>
        <time>2016-06-05T12:11:54.927Z</time>
      </trkpt>
      <trkpt lat="14.43366" lon="-60.84916">
        <ele>5</ele>
        <time>2016-06-05T12:11:55.925Z</time>
      </trkpt>
      <trkpt lat="14.43365" lon="-60.84918">
        <ele>5</ele>
        <time>2016-06-05T12:11:56.926Z</time>
      </trkpt>
      <trkpt lat="14.43362" lon="-60.8492">
        <ele>5</ele>
        <time>2016-06-05T12:11:57.927Z</time>
      </trkpt>
      <trkpt lat="14.43361" lon="-60.84921">
        <ele>5</ele>
        <time>2016-06-05T12:11:58.927Z</time>
      </trkpt>
      <trkpt lat="14.43359" lon="-60.84922">
        <ele>6</ele>
        <time>2016-06-05T12:11:59.926Z</time>
      </trkpt>
      <trkpt lat="14.43356" lon="-60.84921">
        <ele>6</ele>
        <time>2016-06-05T12:12:01.924Z</time>
      </trkpt>
      <trkpt lat="14.43355" lon="-60.84921">
        <ele>6</ele>
        <time>2016-06-05T12:12:02.927Z</time>
      </trkpt>
      <trkpt lat="14.43352" lon="-60.8492">
        <ele>7</ele>
        <time>2016-06-05T12:12:04.930Z</time>
      </trkpt>
      <trkpt lat="14.4335" lon="-60.84919">
        <ele>6</ele>
        <time>2016-06-05T12:12:05.928Z</time>
      </trkpt>
      <trkpt lat="14.43348" lon="-60.84919">
        <ele>6</ele>
        <time>2016-06-05T12:12:06.927Z</time>
      </trkpt>
      <trkpt lat="14.43346" lon="-60.8492">
        <ele>7</ele>
        <time>2016-06-05T12:12:07.927Z</time>
      </trkpt>
      <trkpt lat="14.43344" lon="-60.8492">
        <ele>7</ele>
        <time>2016-06-05T12:12:08.927Z</time>
      </trkpt>
      <trkpt lat="14.43343" lon="-60.84921">
        <ele>6</ele>
        <time>2016-06-05T12:12:09.928Z</time>
      </trkpt>
      <trkpt lat="14.43342" lon="-60.84924">
        <ele>7</ele>
        <time>2016-06-05T12:12:10.928Z</time>
      </trkpt>
      <trkpt lat="14.4334" lon="-60.84926">
        <ele>6</ele>
        <time>2016-06-05T12:12:11.926Z</time>
      </trkpt>
      <trkpt lat="14.43338" lon="-60.84928">
        <ele>7</ele>
        <time>2016-06-05T12:12:12.925Z</time>
      </trkpt>
      <trkpt lat="14.43335" lon="-60.84929">
        <ele>6</ele>
        <time>2016-06-05T12:12:13.925Z</time>
      </trkpt>
      <trkpt lat="14.43332" lon="-60.84929">
        <ele>7</ele>
        <time>2016-06-05T12:12:14.927Z</time>
      </trkpt>
      <trkpt lat="14.43329" lon="-60.84929">
        <ele>8</ele>
        <time>2016-06-05T12:12:15.925Z</time>
      </trkpt>
      <trkpt lat="14.43327" lon="-60.84929">
        <ele>8</ele>
        <time>2016-06-05T12:12:16.924Z</time>
      </trkpt>
      <trkpt lat="14.43325" lon="-60.84929">
        <ele>8</ele>
        <time>2016-06-05T12:12:17.926Z</time>
      </trkpt>
      <trkpt lat="14.43324" lon="-60.84929">
        <ele>8</ele>
        <time>2016-06-05T12:12:18.925Z</time>
      </trkpt>
      <trkpt lat="14.43322" lon="-60.84928">
        <ele>9</ele>
        <time>2016-06-05T12:12:19.926Z</time>
      </trkpt>
      <trkpt lat="14.43321" lon="-60.84927">
        <ele>8</ele>
        <time>2016-06-05T12:12:21.926Z</time>
      </trkpt>
      <trkpt lat="14.43318" lon="-60.84926">
        <ele>8</ele>
        <time>2016-06-05T12:12:23.925Z</time>
      </trkpt>
      <trkpt lat="14.43315" lon="-60.84925">
        <ele>7</ele>
        <time>2016-06-05T12:12:24.927Z</time>
      </trkpt>
      <trkpt lat="14.43311" lon="-60.84923">
        <ele>8</ele>
        <time>2016-06-05T12:12:25.926Z</time>
      </trkpt>
      <trkpt lat="14.43309" lon="-60.84922">
        <ele>8</ele>
        <time>2016-06-05T12:12:26.925Z</time>
      </trkpt>
      <trkpt lat="14.43308" lon="-60.8492">
        <ele>8</ele>
        <time>2016-06-05T12:12:27.926Z</time>
      </trkpt>
      <trkpt lat="14.43307" lon="-60.84918">
        <ele>8</ele>
        <time>2016-06-05T12:12:28.925Z</time>
      </trkpt>
      <trkpt lat="14.43306" lon="-60.84917">
        <ele>7</ele>
        <time>2016-06-05T12:12:29.921Z</time>
      </trkpt>
      <trkpt lat="14.43305" lon="-60.84915">
        <ele>8</ele>
        <time>2016-06-05T12:12:30.920Z</time>
      </trkpt>
      <trkpt lat="14.43306" lon="-60.84912">
        <ele>7</ele>
        <time>2016-06-05T12:12:31.920Z</time>
      </trkpt>
      <trkpt lat="14.43307" lon="-60.8491">
        <ele>6</ele>
        <time>2016-06-05T12:12:32.921Z</time>
      </trkpt>
      <trkpt lat="14.43308" lon="-60.84907">
        <ele>6</ele>
        <time>2016-06-05T12:12:33.922Z</time>
      </trkpt>
      <trkpt lat="14.43308" lon="-60.84905">
        <ele>7</ele>
        <time>2016-06-05T12:12:34.924Z</time>
      </trkpt>
      <trkpt lat="14.43309" lon="-60.84902">
        <ele>7</ele>
        <time>2016-06-05T12:12:35.924Z</time>
      </trkpt>
      <trkpt lat="14.4331" lon="-60.849">
        <ele>7</ele>
        <time>2016-06-05T12:12:36.926Z</time>
      </trkpt>
      <trkpt lat="14.43311" lon="-60.84898">
        <ele>7</ele>
        <time>2016-06-05T12:12:37.927Z</time>
      </trkpt>
      <trkpt lat="14.43311" lon="-60.84896">
        <ele>6</ele>
        <time>2016-06-05T12:12:38.927Z</time>
      </trkpt>
      <trkpt lat="14.43311" lon="-60.84893">
        <ele>6</ele>
        <time>2016-06-05T12:12:39.925Z</time>
      </trkpt>
      <trkpt lat="14.43311" lon="-60.84891">
        <ele>7</ele>
        <time>2016-06-05T12:12:40.926Z</time>
      </trkpt>
      <trkpt lat="14.4331" lon="-60.84888">
        <ele>8</ele>
        <time>2016-06-05T12:12:41.926Z</time>
      </trkpt>
      <trkpt lat="14.43309" lon="-60.84886">
        <ele>8</ele>
        <time>2016-06-05T12:12:42.926Z</time>
      </trkpt>
      <trkpt lat="14.43308" lon="-60.84884">
        <ele>8</ele>
        <time>2016-06-05T12:12:43.924Z</time>
      </trkpt>
      <trkpt lat="14.43306" lon="-60.84882">
        <ele>8</ele>
        <time>2016-06-05T12:12:44.925Z</time>
      </trkpt>
      <trkpt lat="14.43304" lon="-60.8488">
        <ele>8</ele>
        <time>2016-06-05T12:12:45.924Z</time>
      </trkpt>
      <trkpt lat="14.43301" lon="-60.84879">
        <ele>9</ele>
        <time>2016-06-05T12:12:46.926Z</time>
      </trkpt>
      <trkpt lat="14.43299" lon="-60.84878">
        <ele>9</ele>
        <time>2016-06-05T12:12:47.925Z</time>
      </trkpt>
      <trkpt lat="14.43296" lon="-60.84877">
        <ele>9</ele>
        <time>2016-06-05T12:12:48.924Z</time>
      </trkpt>
      <trkpt lat="14.43294" lon="-60.84876">
        <ele>9</ele>
        <time>2016-06-05T12:12:49.926Z</time>
      </trkpt>
      <trkpt lat="14.43291" lon="-60.84875">
        <ele>9</ele>
        <time>2016-06-05T12:12:50.926Z</time>
      </trkpt>
      <trkpt lat="14.43289" lon="-60.84873">
        <ele>9</ele>
        <time>2016-06-05T12:12:51.927Z</time>
      </trkpt>
      <trkpt lat="14.43286" lon="-60.84873">
        <ele>9</ele>
        <time>2016-06-05T12:12:52.927Z</time>
      </trkpt>
      <trkpt lat="14.43284" lon="-60.84872">
        <ele>9</ele>
        <time>2016-06-05T12:12:53.928Z</time>
      </trkpt>
      <trkpt lat="14.43281" lon="-60.84871">
        <ele>9</ele>
        <time>2016-06-05T12:12:54.928Z</time>
      </trkpt>
      <trkpt lat="14.43279" lon="-60.8487">
        <ele>8</ele>
        <time>2016-06-05T12:12:55.925Z</time>
      </trkpt>
      <trkpt lat="14.43276" lon="-60.84869">
        <ele>8</ele>
        <time>2016-06-05T12:12:56.924Z</time>
      </trkpt>
      <trkpt lat="14.43273" lon="-60.8487">
        <ele>8</ele>
        <time>2016-06-05T12:12:57.925Z</time>
      </trkpt>
      <trkpt lat="14.4327" lon="-60.8487">
        <ele>9</ele>
        <time>2016-06-05T12:12:58.929Z</time>
      </trkpt>
      <trkpt lat="14.43267" lon="-60.84871">
        <ele>8</ele>
        <time>2016-06-05T12:12:59.926Z</time>
      </trkpt>
      <trkpt lat="14.43265" lon="-60.84872">
        <ele>8</ele>
        <time>2016-06-05T12:13:00.925Z</time>
      </trkpt>
      <trkpt lat="14.43262" lon="-60.84871">
        <ele>7</ele>
        <time>2016-06-05T12:13:01.925Z</time>
      </trkpt>
      <trkpt lat="14.43259" lon="-60.8487">
        <ele>8</ele>
        <time>2016-06-05T12:13:02.924Z</time>
      </trkpt>
      <trkpt lat="14.43257" lon="-60.84869">
        <ele>8</ele>
        <time>2016-06-05T12:13:03.925Z</time>
      </trkpt>
      <trkpt lat="14.43255" lon="-60.84867">
        <ele>8</ele>
        <time>2016-06-05T12:13:04.924Z</time>
      </trkpt>
      <trkpt lat="14.43253" lon="-60.84866">
        <ele>7</ele>
        <time>2016-06-05T12:13:05.925Z</time>
      </trkpt>
      <trkpt lat="14.43252" lon="-60.84864">
        <ele>7</ele>
        <time>2016-06-05T12:13:06.926Z</time>
      </trkpt>
      <trkpt lat="14.4325" lon="-60.84863">
        <ele>7</ele>
        <time>2016-06-05T12:13:07.926Z</time>
      </trkpt>
      <trkpt lat="14.43247" lon="-60.84862">
        <ele>8</ele>
        <time>2016-06-05T12:13:08.925Z</time>
      </trkpt>
      <trkpt lat="14.43245" lon="-60.8486">
        <ele>8</ele>
        <time>2016-06-05T12:13:09.925Z</time>
      </trkpt>
      <trkpt lat="14.43243" lon="-60.84858">
        <ele>8</ele>
        <time>2016-06-05T12:13:10.928Z</time>
      </trkpt>
      <trkpt lat="14.43242" lon="-60.84856">
        <ele>9</ele>
        <time>2016-06-05T12:13:11.929Z</time>
      </trkpt>
      <trkpt lat="14.43241" lon="-60.84853">
        <ele>8</ele>
        <time>2016-06-05T12:13:12.927Z</time>
      </trkpt>
      <trkpt lat="14.43239" lon="-60.8485">
        <ele>8</ele>
        <time>2016-06-05T12:13:13.926Z</time>
      </trkpt>
      <trkpt lat="14.43236" lon="-60.84849">
        <ele>8</ele>
        <time>2016-06-05T12:13:14.927Z</time>
      </trkpt>
      <trkpt lat="14.43233" lon="-60.84848">
        <ele>9</ele>
        <time>2016-06-05T12:13:15.928Z</time>
      </trkpt>
      <trkpt lat="14.4323" lon="-60.84847">
        <ele>9</ele>
        <time>2016-06-05T12:13:16.925Z</time>
      </trkpt>
      <trkpt lat="14.43226" lon="-60.84845">
        <ele>9</ele>
        <time>2016-06-05T12:13:17.925Z</time>
      </trkpt>
      <trkpt lat="14.43224" lon="-60.84844">
        <ele>9</ele>
        <time>2016-06-05T12:13:18.926Z</time>
      </trkpt>
      <trkpt lat="14.43221" lon="-60.84843">
        <ele>9</ele>
        <time>2016-06-05T12:13:19.927Z</time>
      </trkpt>
      <trkpt lat="14.43218" lon="-60.84842">
        <ele>9</ele>
        <time>2016-06-05T12:13:20.927Z</time>
      </trkpt>
      <trkpt lat="14.43216" lon="-60.84841">
        <ele>9</ele>
        <time>2016-06-05T12:13:21.926Z</time>
      </trkpt>
      <trkpt lat="14.43213" lon="-60.84839">
        <ele>8</ele>
        <time>2016-06-05T12:13:22.924Z</time>
      </trkpt>
      <trkpt lat="14.43211" lon="-60.84838">
        <ele>8</ele>
        <time>2016-06-05T12:13:23.924Z</time>
      </trkpt>
      <trkpt lat="14.4321" lon="-60.84836">
        <ele>8</ele>
        <time>2016-06-05T12:13:24.922Z</time>
      </trkpt>
      <trkpt lat="14.43207" lon="-60.84835">
        <ele>7</ele>
        <time>2016-06-05T12:13:25.922Z</time>
      </trkpt>
      <trkpt lat="14.43205" lon="-60.84834">
        <ele>7</ele>
        <time>2016-06-05T12:13:26.919Z</time>
      </trkpt>
      <trkpt lat="14.43204" lon="-60.84832">
        <ele>7</ele>
        <time>2016-06-05T12:13:27.921Z</time>
      </trkpt>
      <trkpt lat="14.43201" lon="-60.84831">
        <ele>8</ele>
        <time>2016-06-05T12:13:28.927Z</time>
      </trkpt>
      <trkpt lat="14.43198" lon="-60.84829">
        <ele>8</ele>
        <time>2016-06-05T12:13:29.922Z</time>
      </trkpt>
      <trkpt lat="14.43196" lon="-60.84828">
        <ele>7</ele>
        <time>2016-06-05T12:13:30.924Z</time>
      </trkpt>
      <trkpt lat="14.43193" lon="-60.84828">
        <ele>6</ele>
        <time>2016-06-05T12:13:31.925Z</time>
      </trkpt>
      <trkpt lat="14.43191" lon="-60.84828">
        <ele>6</ele>
        <time>2016-06-05T12:13:32.925Z</time>
      </trkpt>
      <trkpt lat="14.43188" lon="-60.84827">
        <ele>6</ele>
        <time>2016-06-05T12:13:33.925Z</time>
      </trkpt>
      <trkpt lat="14.43186" lon="-60.84826">
        <ele>6</ele>
        <time>2016-06-05T12:13:34.925Z</time>
      </trkpt>
      <trkpt lat="14.43184" lon="-60.84824">
        <ele>6</ele>
        <time>2016-06-05T12:13:35.919Z</time>
      </trkpt>
      <trkpt lat="14.4318" lon="-60.84821">
        <ele>6</ele>
        <time>2016-06-05T12:13:36.924Z</time>
      </trkpt>
      <trkpt lat="14.43176" lon="-60.84819">
        <ele>6</ele>
        <time>2016-06-05T12:13:37.924Z</time>
      </trkpt>
      <trkpt lat="14.43174" lon="-60.84818">
        <ele>7</ele>
        <time>2016-06-05T12:13:38.925Z</time>
      </trkpt>
      <trkpt lat="14.43172" lon="-60.84817">
        <ele>7</ele>
        <time>2016-06-05T12:13:39.948Z</time>
      </trkpt>
      <trkpt lat="14.4317" lon="-60.84817">
        <ele>7</ele>
        <time>2016-06-05T12:13:40.947Z</time>
      </trkpt>
      <trkpt lat="14.43167" lon="-60.84816">
        <ele>7</ele>
        <time>2016-06-05T12:13:41.933Z</time>
      </trkpt>
      <trkpt lat="14.43164" lon="-60.84816">
        <ele>6</ele>
        <time>2016-06-05T12:13:42.925Z</time>
      </trkpt>
      <trkpt lat="14.43161" lon="-60.84816">
        <ele>5</ele>
        <time>2016-06-05T12:13:43.928Z</time>
      </trkpt>
      <trkpt lat="14.43159" lon="-60.84816">
        <ele>5</ele>
        <time>2016-06-05T12:13:44.924Z</time>
      </trkpt>
      <trkpt lat="14.43155" lon="-60.84817">
        <ele>5</ele>
        <time>2016-06-05T12:13:45.928Z</time>
      </trkpt>
      <trkpt lat="14.43153" lon="-60.84817">
        <ele>5</ele>
        <time>2016-06-05T12:13:46.923Z</time>
      </trkpt>
      <trkpt lat="14.43151" lon="-60.84818">
        <ele>5</ele>
        <time>2016-06-05T12:13:47.924Z</time>
      </trkpt>
      <trkpt lat="14.43147" lon="-60.84819">
        <ele>5</ele>
        <time>2016-06-05T12:13:48.926Z</time>
      </trkpt>
      <trkpt lat="14.43144" lon="-60.84821">
        <ele>5</ele>
        <time>2016-06-05T12:13:49.934Z</time>
      </trkpt>
      <trkpt lat="14.43141" lon="-60.84821">
        <ele>5</ele>
        <time>2016-06-05T12:13:50.935Z</time>
      </trkpt>
      <trkpt lat="14.43138" lon="-60.84822">
        <ele>5</ele>
        <time>2016-06-05T12:13:51.925Z</time>
      </trkpt>
      <trkpt lat="14.43136" lon="-60.84822">
        <ele>5</ele>
        <time>2016-06-05T12:13:52.929Z</time>
      </trkpt>
      <trkpt lat="14.43133" lon="-60.84824">
        <ele>6</ele>
        <time>2016-06-05T12:13:53.925Z</time>
      </trkpt>
      <trkpt lat="14.43131" lon="-60.84825">
        <ele>6</ele>
        <time>2016-06-05T12:13:54.925Z</time>
      </trkpt>
      <trkpt lat="14.43128" lon="-60.84825">
        <ele>6</ele>
        <time>2016-06-05T12:13:55.923Z</time>
      </trkpt>
      <trkpt lat="14.43126" lon="-60.84826">
        <ele>6</ele>
        <time>2016-06-05T12:13:56.923Z</time>
      </trkpt>
      <trkpt lat="14.43123" lon="-60.84827">
        <ele>6</ele>
        <time>2016-06-05T12:13:57.925Z</time>
      </trkpt>
      <trkpt lat="14.4312" lon="-60.84827">
        <ele>6</ele>
        <time>2016-06-05T12:13:58.924Z</time>
      </trkpt>
      <trkpt lat="14.43117" lon="-60.84827">
        <ele>6</ele>
        <time>2016-06-05T12:13:59.924Z</time>
      </trkpt>
      <trkpt lat="14.43114" lon="-60.84828">
        <ele>6</ele>
        <time>2016-06-05T12:14:00.924Z</time>
      </trkpt>
      <trkpt lat="14.43111" lon="-60.84829">
        <ele>5</ele>
        <time>2016-06-05T12:14:01.925Z</time>
      </trkpt>
      <trkpt lat="14.43108" lon="-60.84829">
        <ele>5</ele>
        <time>2016-06-05T12:14:02.924Z</time>
      </trkpt>
      <trkpt lat="14.43105" lon="-60.84829">
        <ele>6</ele>
        <time>2016-06-05T12:14:03.923Z</time>
      </trkpt>
      <trkpt lat="14.43104" lon="-60.84829">
        <ele>5</ele>
        <time>2016-06-05T12:14:04.927Z</time>
      </trkpt>
      <trkpt lat="14.43102" lon="-60.84828">
        <ele>7</ele>
        <time>2016-06-05T12:14:05.927Z</time>
      </trkpt>
      <trkpt lat="14.431" lon="-60.84827">
        <ele>8</ele>
        <time>2016-06-05T12:14:06.931Z</time>
      </trkpt>
      <trkpt lat="14.43098" lon="-60.84826">
        <ele>8</ele>
        <time>2016-06-05T12:14:07.925Z</time>
      </trkpt>
      <trkpt lat="14.43096" lon="-60.84825">
        <ele>8</ele>
        <time>2016-06-05T12:14:08.927Z</time>
      </trkpt>
      <trkpt lat="14.43094" lon="-60.84823">
        <ele>7</ele>
        <time>2016-06-05T12:14:09.927Z</time>
      </trkpt>
      <trkpt lat="14.43092" lon="-60.84822">
        <ele>8</ele>
        <time>2016-06-05T12:14:10.921Z</time>
      </trkpt>
      <trkpt lat="14.43091" lon="-60.84821">
        <ele>7</ele>
        <time>2016-06-05T12:14:11.923Z</time>
      </trkpt>
      <trkpt lat="14.43089" lon="-60.84819">
        <ele>8</ele>
        <time>2016-06-05T12:14:12.927Z</time>
      </trkpt>
      <trkpt lat="14.43086" lon="-60.84819">
        <ele>7</ele>
        <time>2016-06-05T12:14:13.927Z</time>
      </trkpt>
      <trkpt lat="14.43084" lon="-60.84819">
        <ele>7</ele>
        <time>2016-06-05T12:14:14.926Z</time>
      </trkpt>
      <trkpt lat="14.43082" lon="-60.84818">
        <ele>7</ele>
        <time>2016-06-05T12:14:15.925Z</time>
      </trkpt>
      <trkpt lat="14.43079" lon="-60.84817">
        <ele>7</ele>
        <time>2016-06-05T12:14:16.925Z</time>
      </trkpt>
      <trkpt lat="14.43077" lon="-60.84816">
        <ele>8</ele>
        <time>2016-06-05T12:14:17.924Z</time>
      </trkpt>
      <trkpt lat="14.43075" lon="-60.84815">
        <ele>7</ele>
        <time>2016-06-05T12:14:18.924Z</time>
      </trkpt>
      <trkpt lat="14.43074" lon="-60.84814">
        <ele>7</ele>
        <time>2016-06-05T12:14:19.924Z</time>
      </trkpt>
      <trkpt lat="14.43072" lon="-60.84813">
        <ele>7</ele>
        <time>2016-06-05T12:14:20.925Z</time>
      </trkpt>
      <trkpt lat="14.43071" lon="-60.84812">
        <ele>7</ele>
        <time>2016-06-05T12:14:21.928Z</time>
      </trkpt>
      <trkpt lat="14.43068" lon="-60.8481">
        <ele>6</ele>
        <time>2016-06-05T12:14:29.925Z</time>
      </trkpt>
      <trkpt lat="14.43066" lon="-60.84809">
        <ele>6</ele>
        <time>2016-06-05T12:14:31.923Z</time>
      </trkpt>
      <trkpt lat="14.43064" lon="-60.84807">
        <ele>6</ele>
        <time>2016-06-05T12:14:33.928Z</time>
      </trkpt>
      <trkpt lat="14.43062" lon="-60.84806">
        <ele>7</ele>
        <time>2016-06-05T12:14:35.923Z</time>
      </trkpt>
      <trkpt lat="14.4306" lon="-60.84804">
        <ele>7</ele>
        <time>2016-06-05T12:14:37.925Z</time>
      </trkpt>
      <trkpt lat="14.43059" lon="-60.84802">
        <ele>7</ele>
        <time>2016-06-05T12:14:40.926Z</time>
      </trkpt>
      <trkpt lat="14.43058" lon="-60.848">
        <ele>8</ele>
        <time>2016-06-05T12:14:42.926Z</time>
      </trkpt>
      <trkpt lat="14.43058" lon="-60.84798">
        <ele>9</ele>
        <time>2016-06-05T12:14:44.928Z</time>
      </trkpt>
      <trkpt lat="14.43059" lon="-60.84795">
        <ele>9</ele>
        <time>2016-06-05T12:14:46.928Z</time>
      </trkpt>
      <trkpt lat="14.43057" lon="-60.84791">
        <ele>10</ele>
        <time>2016-06-05T12:14:54.925Z</time>
      </trkpt>
      <trkpt lat="14.43055" lon="-60.84789">
        <ele>10</ele>
        <time>2016-06-05T12:14:56.925Z</time>
      </trkpt>
      <trkpt lat="14.43054" lon="-60.84786">
        <ele>9</ele>
        <time>2016-06-05T12:14:58.926Z</time>
      </trkpt>
      <trkpt lat="14.43054" lon="-60.84783">
        <ele>9</ele>
        <time>2016-06-05T12:15:02.930Z</time>
      </trkpt>
      <trkpt lat="14.43052" lon="-60.84781">
        <ele>9</ele>
        <time>2016-06-05T12:15:05.925Z</time>
      </trkpt>
      <trkpt lat="14.43051" lon="-60.84779">
        <ele>9</ele>
        <time>2016-06-05T12:15:07.926Z</time>
      </trkpt>
      <trkpt lat="14.43047" lon="-60.84774">
        <ele>10</ele>
        <time>2016-06-05T12:15:29.920Z</time>
      </trkpt>
      <trkpt lat="14.43045" lon="-60.84772">
        <ele>10</ele>
        <time>2016-06-05T12:15:31.924Z</time>
      </trkpt>
      <trkpt lat="14.43044" lon="-60.84771">
        <ele>10</ele>
        <time>2016-06-05T12:15:33.925Z</time>
      </trkpt>
      <trkpt lat="14.43043" lon="-60.84766">
        <ele>10</ele>
        <time>2016-06-05T12:15:37.924Z</time>
      </trkpt>
      <trkpt lat="14.43043" lon="-60.84765">
        <ele>10</ele>
        <time>2016-06-05T12:15:38.924Z</time>
      </trkpt>
      <trkpt lat="14.43043" lon="-60.84764">
        <ele>10</ele>
        <time>2016-06-05T12:15:39.923Z</time>
      </trkpt>
      <trkpt lat="14.43043" lon="-60.84762">
        <ele>9</ele>
        <time>2016-06-05T12:15:40.926Z</time>
      </trkpt>
      <trkpt lat="14.43044" lon="-60.84759">
        <ele>9</ele>
        <time>2016-06-05T12:15:42.924Z</time>
      </trkpt>
      <trkpt lat="14.43043" lon="-60.84757">
        <ele>9</ele>
        <time>2016-06-05T12:15:43.924Z</time>
      </trkpt>
      <trkpt lat="14.43042" lon="-60.84754">
        <ele>9</ele>
        <time>2016-06-05T12:15:44.925Z</time>
      </trkpt>
      <trkpt lat="14.43041" lon="-60.84752">
        <ele>9</ele>
        <time>2016-06-05T12:15:45.924Z</time>
      </trkpt>
      <trkpt lat="14.43038" lon="-60.8475">
        <ele>9</ele>
        <time>2016-06-05T12:15:46.924Z</time>
      </trkpt>
      <trkpt lat="14.43037" lon="-60.84748">
        <ele>8</ele>
        <time>2016-06-05T12:15:47.926Z</time>
      </trkpt>
      <trkpt lat="14.43034" lon="-60.84747">
        <ele>8</ele>
        <time>2016-06-05T12:15:48.925Z</time>
      </trkpt>
      <trkpt lat="14.43031" lon="-60.84746">
        <ele>8</ele>
        <time>2016-06-05T12:15:49.923Z</time>
      </trkpt>
      <trkpt lat="14.43028" lon="-60.84745">
        <ele>8</ele>
        <time>2016-06-05T12:15:50.924Z</time>
      </trkpt>
      <trkpt lat="14.43025" lon="-60.84744">
        <ele>8</ele>
        <time>2016-06-05T12:15:51.925Z</time>
      </trkpt>
      <trkpt lat="14.43022" lon="-60.84744">
        <ele>8</ele>
        <time>2016-06-05T12:15:52.923Z</time>
      </trkpt>
      <trkpt lat="14.43019" lon="-60.84744">
        <ele>8</ele>
        <time>2016-06-05T12:15:53.924Z</time>
      </trkpt>
      <trkpt lat="14.43016" lon="-60.84743">
        <ele>8</ele>
        <time>2016-06-05T12:15:54.926Z</time>
      </trkpt>
      <trkpt lat="14.43014" lon="-60.84743">
        <ele>7</ele>
        <time>2016-06-05T12:15:55.925Z</time>
      </trkpt>
      <trkpt lat="14.43011" lon="-60.84744">
        <ele>6</ele>
        <time>2016-06-05T12:15:56.926Z</time>
      </trkpt>
      <trkpt lat="14.43008" lon="-60.84744">
        <ele>6</ele>
        <time>2016-06-05T12:15:57.923Z</time>
      </trkpt>
      <trkpt lat="14.43006" lon="-60.84743">
        <ele>6</ele>
        <time>2016-06-05T12:15:58.925Z</time>
      </trkpt>
      <trkpt lat="14.43003" lon="-60.84742">
        <ele>7</ele>
        <time>2016-06-05T12:15:59.926Z</time>
      </trkpt>
      <trkpt lat="14.43001" lon="-60.84741">
        <ele>7</ele>
        <time>2016-06-05T12:16:00.925Z</time>
      </trkpt>
      <trkpt lat="14.42999" lon="-60.8474">
        <ele>7</ele>
        <time>2016-06-05T12:16:01.926Z</time>
      </trkpt>
      <trkpt lat="14.42997" lon="-60.84739">
        <ele>7</ele>
        <time>2016-06-05T12:16:02.924Z</time>
      </trkpt>
      <trkpt lat="14.42994" lon="-60.84739">
        <ele>7</ele>
        <time>2016-06-05T12:16:03.925Z</time>
      </trkpt>
      <trkpt lat="14.42992" lon="-60.8474">
        <ele>7</ele>
        <time>2016-06-05T12:16:04.926Z</time>
      </trkpt>
      <trkpt lat="14.42989" lon="-60.84743">
        <ele>6</ele>
        <time>2016-06-05T12:16:05.927Z</time>
      </trkpt>
      <trkpt lat="14.42988" lon="-60.84746">
        <ele>7</ele>
        <time>2016-06-05T12:16:06.926Z</time>
      </trkpt>
      <trkpt lat="14.42987" lon="-60.84748">
        <ele>7</ele>
        <time>2016-06-05T12:16:07.924Z</time>
      </trkpt>
      <trkpt lat="14.42986" lon="-60.84751">
        <ele>8</ele>
        <time>2016-06-05T12:16:08.924Z</time>
      </trkpt>
      <trkpt lat="14.42985" lon="-60.84754">
        <ele>8</ele>
        <time>2016-06-05T12:16:09.926Z</time>
      </trkpt>
      <trkpt lat="14.42985" lon="-60.84757">
        <ele>8</ele>
        <time>2016-06-05T12:16:10.925Z</time>
      </trkpt>
      <trkpt lat="14.42984" lon="-60.84759">
        <ele>8</ele>
        <time>2016-06-05T12:16:11.926Z</time>
      </trkpt>
      <trkpt lat="14.42984" lon="-60.84762">
        <ele>8</ele>
        <time>2016-06-05T12:16:12.926Z</time>
      </trkpt>
      <trkpt lat="14.42983" lon="-60.84765">
        <ele>8</ele>
        <time>2016-06-05T12:16:13.925Z</time>
      </trkpt>
      <trkpt lat="14.42983" lon="-60.84767">
        <ele>7</ele>
        <time>2016-06-05T12:16:14.926Z</time>
      </trkpt>
      <trkpt lat="14.42982" lon="-60.8477">
        <ele>7</ele>
        <time>2016-06-05T12:16:15.921Z</time>
      </trkpt>
      <trkpt lat="14.42982" lon="-60.84773">
        <ele>8</ele>
        <time>2016-06-05T12:16:16.924Z</time>
      </trkpt>
      <trkpt lat="14.42981" lon="-60.84776">
        <ele>8</ele>
        <time>2016-06-05T12:16:17.921Z</time>
      </trkpt>
      <trkpt lat="14.4298" lon="-60.84779">
        <ele>7</ele>
        <time>2016-06-05T12:16:18.925Z</time>
      </trkpt>
      <trkpt lat="14.4298" lon="-60.84782">
        <ele>8</ele>
        <time>2016-06-05T12:16:19.921Z</time>
      </trkpt>
      <trkpt lat="14.4298" lon="-60.84785">
        <ele>8</ele>
        <time>2016-06-05T12:16:20.922Z</time>
      </trkpt>
      <trkpt lat="14.4298" lon="-60.84787">
        <ele>8</ele>
        <time>2016-06-05T12:16:21.921Z</time>
      </trkpt>
      <trkpt lat="14.4298" lon="-60.8479">
        <ele>8</ele>
        <time>2016-06-05T12:16:22.925Z</time>
      </trkpt>
      <trkpt lat="14.4298" lon="-60.84793">
        <ele>8</ele>
        <time>2016-06-05T12:16:23.921Z</time>
      </trkpt>
      <trkpt lat="14.4298" lon="-60.84796">
        <ele>8</ele>
        <time>2016-06-05T12:16:24.920Z</time>
      </trkpt>
      <trkpt lat="14.42981" lon="-60.84798">
        <ele>8</ele>
        <time>2016-06-05T12:16:25.919Z</time>
      </trkpt>
      <trkpt lat="14.42982" lon="-60.84801">
        <ele>8</ele>
        <time>2016-06-05T12:16:26.918Z</time>
      </trkpt>
      <trkpt lat="14.42983" lon="-60.84803">
        <ele>8</ele>
        <time>2016-06-05T12:16:27.926Z</time>
      </trkpt>
      <trkpt lat="14.42983" lon="-60.84805">
        <ele>7</ele>
        <time>2016-06-05T12:16:29.920Z</time>
      </trkpt>
      <trkpt lat="14.42981" lon="-60.84807">
        <ele>7</ele>
        <time>2016-06-05T12:16:31.925Z</time>
      </trkpt>
      <trkpt lat="14.42978" lon="-60.8481">
        <ele>7</ele>
        <time>2016-06-05T12:16:33.927Z</time>
      </trkpt>
      <trkpt lat="14.42977" lon="-60.84811">
        <ele>7</ele>
        <time>2016-06-05T12:16:34.922Z</time>
      </trkpt>
      <trkpt lat="14.42975" lon="-60.84812">
        <ele>7</ele>
        <time>2016-06-05T12:16:35.924Z</time>
      </trkpt>
      <trkpt lat="14.42973" lon="-60.84814">
        <ele>7</ele>
        <time>2016-06-05T12:16:36.926Z</time>
      </trkpt>
      <trkpt lat="14.42971" lon="-60.84815">
        <ele>7</ele>
        <time>2016-06-05T12:16:37.927Z</time>
      </trkpt>
      <trkpt lat="14.42969" lon="-60.84816">
        <ele>7</ele>
        <time>2016-06-05T12:16:38.929Z</time>
      </trkpt>
      <trkpt lat="14.42966" lon="-60.84815">
        <ele>6</ele>
        <time>2016-06-05T12:16:39.925Z</time>
      </trkpt>
      <trkpt lat="14.42964" lon="-60.84815">
        <ele>7</ele>
        <time>2016-06-05T12:16:40.922Z</time>
      </trkpt>
      <trkpt lat="14.42963" lon="-60.84813">
        <ele>7</ele>
        <time>2016-06-05T12:16:41.920Z</time>
      </trkpt>
      <trkpt lat="14.42961" lon="-60.84812">
        <ele>7</ele>
        <time>2016-06-05T12:16:42.923Z</time>
      </trkpt>
      <trkpt lat="14.4296" lon="-60.8481">
        <ele>7</ele>
        <time>2016-06-05T12:16:43.921Z</time>
      </trkpt>
      <trkpt lat="14.42959" lon="-60.84808">
        <ele>7</ele>
        <time>2016-06-05T12:16:44.922Z</time>
      </trkpt>
      <trkpt lat="14.42958" lon="-60.84806">
        <ele>5</ele>
        <time>2016-06-05T12:16:45.921Z</time>
      </trkpt>
      <trkpt lat="14.42957" lon="-60.84804">
        <ele>5</ele>
        <time>2016-06-05T12:16:46.921Z</time>
      </trkpt>
      <trkpt lat="14.42955" lon="-60.84802">
        <ele>5</ele>
        <time>2016-06-05T12:16:47.922Z</time>
      </trkpt>
      <trkpt lat="14.42953" lon="-60.848">
        <ele>4</ele>
        <time>2016-06-05T12:16:48.921Z</time>
      </trkpt>
      <trkpt lat="14.4295" lon="-60.84798">
        <ele>5</ele>
        <time>2016-06-05T12:16:49.920Z</time>
      </trkpt>
      <trkpt lat="14.42948" lon="-60.84796">
        <ele>5</ele>
        <time>2016-06-05T12:16:50.922Z</time>
      </trkpt>
      <trkpt lat="14.42945" lon="-60.84795">
        <ele>5</ele>
        <time>2016-06-05T12:16:51.927Z</time>
      </trkpt>
      <trkpt lat="14.42943" lon="-60.84794">
        <ele>5</ele>
        <time>2016-06-05T12:16:52.932Z</time>
      </trkpt>
      <trkpt lat="14.4294" lon="-60.84794">
        <ele>5</ele>
        <time>2016-06-05T12:16:53.932Z</time>
      </trkpt>
      <trkpt lat="14.42938" lon="-60.84794">
        <ele>5</ele>
        <time>2016-06-05T12:16:54.929Z</time>
      </trkpt>
      <trkpt lat="14.42936" lon="-60.84794">
        <ele>5</ele>
        <time>2016-06-05T12:16:55.923Z</time>
      </trkpt>
      <trkpt lat="14.42933" lon="-60.84794">
        <ele>5</ele>
        <time>2016-06-05T12:16:56.923Z</time>
      </trkpt>
      <trkpt lat="14.42929" lon="-60.84795">
        <ele>5</ele>
        <time>2016-06-05T12:16:57.921Z</time>
      </trkpt>
      <trkpt lat="14.42926" lon="-60.84794">
        <ele>4</ele>
        <time>2016-06-05T12:16:58.925Z</time>
      </trkpt>
      <trkpt lat="14.42924" lon="-60.84797">
        <ele>5</ele>
        <time>2016-06-05T12:16:59.925Z</time>
      </trkpt>
      <trkpt lat="14.42921" lon="-60.84798">
        <ele>5</ele>
        <time>2016-06-05T12:17:00.924Z</time>
      </trkpt>
      <trkpt lat="14.42918" lon="-60.848">
        <ele>5</ele>
        <time>2016-06-05T12:17:01.924Z</time>
      </trkpt>
      <trkpt lat="14.42915" lon="-60.84802">
        <ele>6</ele>
        <time>2016-06-05T12:17:02.923Z</time>
      </trkpt>
      <trkpt lat="14.42913" lon="-60.84804">
        <ele>6</ele>
        <time>2016-06-05T12:17:03.921Z</time>
      </trkpt>
      <trkpt lat="14.4291" lon="-60.84807">
        <ele>5</ele>
        <time>2016-06-05T12:17:04.921Z</time>
      </trkpt>
      <trkpt lat="14.42907" lon="-60.84808">
        <ele>4</ele>
        <time>2016-06-05T12:17:05.926Z</time>
      </trkpt>
      <trkpt lat="14.42904" lon="-60.84809">
        <ele>5</ele>
        <time>2016-06-05T12:17:06.924Z</time>
      </trkpt>
      <trkpt lat="14.42902" lon="-60.8481">
        <ele>5</ele>
        <time>2016-06-05T12:17:07.926Z</time>
      </trkpt>
      <trkpt lat="14.42899" lon="-60.84812">
        <ele>5</ele>
        <time>2016-06-05T12:17:08.925Z</time>
      </trkpt>
      <trkpt lat="14.42896" lon="-60.84814">
        <ele>5</ele>
        <time>2016-06-05T12:17:09.928Z</time>
      </trkpt>
      <trkpt lat="14.42892" lon="-60.84816">
        <ele>5</ele>
        <time>2016-06-05T12:17:10.926Z</time>
      </trkpt>
      <trkpt lat="14.42887" lon="-60.84817">
        <ele>6</ele>
        <time>2016-06-05T12:17:11.926Z</time>
      </trkpt>
      <trkpt lat="14.42885" lon="-60.8482">
        <ele>7</ele>
        <time>2016-06-05T12:17:12.928Z</time>
      </trkpt>
      <trkpt lat="14.42884" lon="-60.84824">
        <ele>7</ele>
        <time>2016-06-05T12:17:13.925Z</time>
      </trkpt>
      <trkpt lat="14.42887" lon="-60.84828">
        <ele>5</ele>
        <time>2016-06-05T12:17:14.928Z</time>
      </trkpt>
      <trkpt lat="14.42886" lon="-60.8483">
        <ele>4</ele>
        <time>2016-06-05T12:17:15.928Z</time>
      </trkpt>
      <trkpt lat="14.42885" lon="-60.84832">
        <ele>5</ele>
        <time>2016-06-05T12:17:16.923Z</time>
      </trkpt>
      <trkpt lat="14.42883" lon="-60.84834">
        <ele>4</ele>
        <time>2016-06-05T12:17:17.924Z</time>
      </trkpt>
      <trkpt lat="14.42882" lon="-60.84838">
        <ele>4</ele>
        <time>2016-06-05T12:17:18.923Z</time>
      </trkpt>
      <trkpt lat="14.42881" lon="-60.84841">
        <ele>4</ele>
        <time>2016-06-05T12:17:19.927Z</time>
      </trkpt>
      <trkpt lat="14.42879" lon="-60.84844">
        <ele>4</ele>
        <time>2016-06-05T12:17:20.920Z</time>
      </trkpt>
      <trkpt lat="14.42879" lon="-60.84847">
        <ele>5</ele>
        <time>2016-06-05T12:17:21.920Z</time>
      </trkpt>
      <trkpt lat="14.42879" lon="-60.8485">
        <ele>5</ele>
        <time>2016-06-05T12:17:22.921Z</time>
      </trkpt>
      <trkpt lat="14.4288" lon="-60.84853">
        <ele>5</ele>
        <time>2016-06-05T12:17:23.922Z</time>
      </trkpt>
      <trkpt lat="14.42881" lon="-60.84856">
        <ele>5</ele>
        <time>2016-06-05T12:17:24.922Z</time>
      </trkpt>
      <trkpt lat="14.42881" lon="-60.84857">
        <ele>5</ele>
        <time>2016-06-05T12:17:25.926Z</time>
      </trkpt>
      <trkpt lat="14.42881" lon="-60.84859">
        <ele>6</ele>
        <time>2016-06-05T12:17:26.926Z</time>
      </trkpt>
      <trkpt lat="14.42881" lon="-60.84861">
        <ele>5</ele>
        <time>2016-06-05T12:17:27.924Z</time>
      </trkpt>
      <trkpt lat="14.4288" lon="-60.84863">
        <ele>4</ele>
        <time>2016-06-05T12:17:28.925Z</time>
      </trkpt>
      <trkpt lat="14.4288" lon="-60.84866">
        <ele>4</ele>
        <time>2016-06-05T12:17:29.927Z</time>
      </trkpt>
      <trkpt lat="14.42879" lon="-60.84868">
        <ele>5</ele>
        <time>2016-06-05T12:17:30.928Z</time>
      </trkpt>
      <trkpt lat="14.42876" lon="-60.84869">
        <ele>5</ele>
        <time>2016-06-05T12:17:31.925Z</time>
      </trkpt>
      <trkpt lat="14.42875" lon="-60.84871">
        <ele>6</ele>
        <time>2016-06-05T12:17:32.925Z</time>
      </trkpt>
      <trkpt lat="14.42874" lon="-60.84873">
        <ele>4</ele>
        <time>2016-06-05T12:17:33.923Z</time>
      </trkpt>
      <trkpt lat="14.42872" lon="-60.84874">
        <ele>3</ele>
        <time>2016-06-05T12:17:34.927Z</time>
      </trkpt>
      <trkpt lat="14.4287" lon="-60.84876">
        <ele>4</ele>
        <time>2016-06-05T12:17:35.929Z</time>
      </trkpt>
      <trkpt lat="14.4287" lon="-60.84878">
        <ele>5</ele>
        <time>2016-06-05T12:17:36.932Z</time>
      </trkpt>
      <trkpt lat="14.4287" lon="-60.84879">
        <ele>4</ele>
        <time>2016-06-05T12:17:37.929Z</time>
      </trkpt>
      <trkpt lat="14.42868" lon="-60.8488">
        <ele>6</ele>
        <time>2016-06-05T12:17:38.925Z</time>
      </trkpt>
      <trkpt lat="14.42867" lon="-60.84881">
        <ele>6</ele>
        <time>2016-06-05T12:17:39.925Z</time>
      </trkpt>
      <trkpt lat="14.42866" lon="-60.84882">
        <ele>7</ele>
        <time>2016-06-05T12:17:40.925Z</time>
      </trkpt>
      <trkpt lat="14.42864" lon="-60.84883">
        <ele>8</ele>
        <time>2016-06-05T12:17:41.926Z</time>
      </trkpt>
      <trkpt lat="14.42861" lon="-60.84884">
        <ele>8</ele>
        <time>2016-06-05T12:17:42.927Z</time>
      </trkpt>
      <trkpt lat="14.4286" lon="-60.84885">
        <ele>8</ele>
        <time>2016-06-05T12:17:43.927Z</time>
      </trkpt>
      <trkpt lat="14.42856" lon="-60.84888">
        <ele>8</ele>
        <time>2016-06-05T12:17:45.926Z</time>
      </trkpt>
      <trkpt lat="14.42854" lon="-60.84888">
        <ele>8</ele>
        <time>2016-06-05T12:17:46.926Z</time>
      </trkpt>
      <trkpt lat="14.42852" lon="-60.84888">
        <ele>8</ele>
        <time>2016-06-05T12:17:47.931Z</time>
      </trkpt>
      <trkpt lat="14.42849" lon="-60.84889">
        <ele>7</ele>
        <time>2016-06-05T12:17:48.928Z</time>
      </trkpt>
      <trkpt lat="14.42847" lon="-60.84889">
        <ele>7</ele>
        <time>2016-06-05T12:17:49.927Z</time>
      </trkpt>
      <trkpt lat="14.42843" lon="-60.84888">
        <ele>8</ele>
        <time>2016-06-05T12:17:50.931Z</time>
      </trkpt>
      <trkpt lat="14.42841" lon="-60.84887">
        <ele>9</ele>
        <time>2016-06-05T12:17:51.931Z</time>
      </trkpt>
      <trkpt lat="14.42839" lon="-60.84887">
        <ele>8</ele>
        <time>2016-06-05T12:17:52.935Z</time>
      </trkpt>
      <trkpt lat="14.42837" lon="-60.84887">
        <ele>9</ele>
        <time>2016-06-05T12:17:53.935Z</time>
      </trkpt>
      <trkpt lat="14.42834" lon="-60.84886">
        <ele>10</ele>
        <time>2016-06-05T12:17:54.936Z</time>
      </trkpt>
      <trkpt lat="14.42832" lon="-60.84885">
        <ele>9</ele>
        <time>2016-06-05T12:17:55.931Z</time>
      </trkpt>
      <trkpt lat="14.4283" lon="-60.84883">
        <ele>10</ele>
        <time>2016-06-05T12:17:56.923Z</time>
      </trkpt>
      <trkpt lat="14.42827" lon="-60.84882">
        <ele>9</ele>
        <time>2016-06-05T12:17:57.927Z</time>
      </trkpt>
      <trkpt lat="14.42824" lon="-60.8488">
        <ele>10</ele>
        <time>2016-06-05T12:17:58.925Z</time>
      </trkpt>
      <trkpt lat="14.42822" lon="-60.84878">
        <ele>10</ele>
        <time>2016-06-05T12:17:59.923Z</time>
      </trkpt>
      <trkpt lat="14.42819" lon="-60.84876">
        <ele>9</ele>
        <time>2016-06-05T12:18:00.923Z</time>
      </trkpt>
      <trkpt lat="14.42817" lon="-60.84875">
        <ele>10</ele>
        <time>2016-06-05T12:18:01.920Z</time>
      </trkpt>
      <trkpt lat="14.42814" lon="-60.84873">
        <ele>8</ele>
        <time>2016-06-05T12:18:02.922Z</time>
      </trkpt>
      <trkpt lat="14.42812" lon="-60.84873">
        <ele>9</ele>
        <time>2016-06-05T12:18:03.919Z</time>
      </trkpt>
      <trkpt lat="14.42809" lon="-60.84872">
        <ele>9</ele>
        <time>2016-06-05T12:18:04.922Z</time>
      </trkpt>
      <trkpt lat="14.42806" lon="-60.84872">
        <ele>9</ele>
        <time>2016-06-05T12:18:05.919Z</time>
      </trkpt>
      <trkpt lat="14.42803" lon="-60.84872">
        <ele>9</ele>
        <time>2016-06-05T12:18:06.922Z</time>
      </trkpt>
      <trkpt lat="14.428" lon="-60.84873">
        <ele>7</ele>
        <time>2016-06-05T12:18:07.923Z</time>
      </trkpt>
      <trkpt lat="14.42798" lon="-60.84874">
        <ele>7</ele>
        <time>2016-06-05T12:18:08.921Z</time>
      </trkpt>
      <trkpt lat="14.42796" lon="-60.84876">
        <ele>7</ele>
        <time>2016-06-05T12:18:09.919Z</time>
      </trkpt>
      <trkpt lat="14.42794" lon="-60.84877">
        <ele>7</ele>
        <time>2016-06-05T12:18:10.920Z</time>
      </trkpt>
      <trkpt lat="14.42792" lon="-60.84878">
        <ele>6</ele>
        <time>2016-06-05T12:18:11.918Z</time>
      </trkpt>
      <trkpt lat="14.42791" lon="-60.8488">
        <ele>7</ele>
        <time>2016-06-05T12:18:12.920Z</time>
      </trkpt>
      <trkpt lat="14.4279" lon="-60.84881">
        <ele>7</ele>
        <time>2016-06-05T12:18:13.920Z</time>
      </trkpt>
      <trkpt lat="14.42787" lon="-60.84882">
        <ele>8</ele>
        <time>2016-06-05T12:18:14.920Z</time>
      </trkpt>
      <trkpt lat="14.42785" lon="-60.84883">
        <ele>9</ele>
        <time>2016-06-05T12:18:15.922Z</time>
      </trkpt>
      <trkpt lat="14.42783" lon="-60.84883">
        <ele>9</ele>
        <time>2016-06-05T12:18:16.920Z</time>
      </trkpt>
      <trkpt lat="14.42781" lon="-60.84885">
        <ele>9</ele>
        <time>2016-06-05T12:18:17.923Z</time>
      </trkpt>
      <trkpt lat="14.4278" lon="-60.84886">
        <ele>9</ele>
        <time>2016-06-05T12:18:18.924Z</time>
      </trkpt>
      <trkpt lat="14.42778" lon="-60.84887">
        <ele>9</ele>
        <time>2016-06-05T12:18:19.924Z</time>
      </trkpt>
      <trkpt lat="14.42777" lon="-60.84889">
        <ele>10</ele>
        <time>2016-06-05T12:18:20.923Z</time>
      </trkpt>
      <trkpt lat="14.42775" lon="-60.84888">
        <ele>8</ele>
        <time>2016-06-05T12:18:21.921Z</time>
      </trkpt>
      <trkpt lat="14.42774" lon="-60.84889">
        <ele>8</ele>
        <time>2016-06-05T12:18:22.922Z</time>
      </trkpt>
      <trkpt lat="14.42772" lon="-60.84891">
        <ele>8</ele>
        <time>2016-06-05T12:18:23.924Z</time>
      </trkpt>
      <trkpt lat="14.42771" lon="-60.84892">
        <ele>8</ele>
        <time>2016-06-05T12:18:24.924Z</time>
      </trkpt>
      <trkpt lat="14.4277" lon="-60.84894">
        <ele>8</ele>
        <time>2016-06-05T12:18:25.933Z</time>
      </trkpt>
      <trkpt lat="14.42768" lon="-60.84896">
        <ele>8</ele>
        <time>2016-06-05T12:18:26.940Z</time>
      </trkpt>
      <trkpt lat="14.42768" lon="-60.84899">
        <ele>8</ele>
        <time>2016-06-05T12:18:27.927Z</time>
      </trkpt>
      <trkpt lat="14.42765" lon="-60.849">
        <ele>8</ele>
        <time>2016-06-05T12:18:28.923Z</time>
      </trkpt>
      <trkpt lat="14.42764" lon="-60.84903">
        <ele>8</ele>
        <time>2016-06-05T12:18:29.923Z</time>
      </trkpt>
      <trkpt lat="14.42762" lon="-60.84904">
        <ele>9</ele>
        <time>2016-06-05T12:18:30.925Z</time>
      </trkpt>
      <trkpt lat="14.4276" lon="-60.84908">
        <ele>9</ele>
        <time>2016-06-05T12:18:31.923Z</time>
      </trkpt>
      <trkpt lat="14.42758" lon="-60.8491">
        <ele>9</ele>
        <time>2016-06-05T12:18:32.922Z</time>
      </trkpt>
      <trkpt lat="14.42755" lon="-60.84913">
        <ele>10</ele>
        <time>2016-06-05T12:18:33.923Z</time>
      </trkpt>
      <trkpt lat="14.4275" lon="-60.84913">
        <ele>10</ele>
        <time>2016-06-05T12:18:35.925Z</time>
      </trkpt>
      <trkpt lat="14.42748" lon="-60.84914">
        <ele>9</ele>
        <time>2016-06-05T12:18:36.926Z</time>
      </trkpt>
      <trkpt lat="14.42745" lon="-60.84913">
        <ele>7</ele>
        <time>2016-06-05T12:18:37.924Z</time>
      </trkpt>
      <trkpt lat="14.42742" lon="-60.84913">
        <ele>7</ele>
        <time>2016-06-05T12:18:38.927Z</time>
      </trkpt>
      <trkpt lat="14.42739" lon="-60.84912">
        <ele>7</ele>
        <time>2016-06-05T12:18:39.924Z</time>
      </trkpt>
      <trkpt lat="14.42736" lon="-60.84911">
        <ele>6</ele>
        <time>2016-06-05T12:18:40.922Z</time>
      </trkpt>
      <trkpt lat="14.42735" lon="-60.84911">
        <ele>5</ele>
        <time>2016-06-05T12:18:41.918Z</time>
      </trkpt>
      <trkpt lat="14.42732" lon="-60.84911">
        <ele>5</ele>
        <time>2016-06-05T12:18:42.923Z</time>
      </trkpt>
      <trkpt lat="14.4273" lon="-60.84914">
        <ele>3</ele>
        <time>2016-06-05T12:18:43.927Z</time>
      </trkpt>
      <trkpt lat="14.4273" lon="-60.84916">
        <ele>2</ele>
        <time>2016-06-05T12:18:44.923Z</time>
      </trkpt>
      <trkpt lat="14.42727" lon="-60.84918">
        <time>2016-06-05T12:18:45.926Z</time>
      </trkpt>
      <trkpt lat="14.42724" lon="-60.84918">
        <ele>2</ele>
        <time>2016-06-05T12:18:46.931Z</time>
      </trkpt>
      <trkpt lat="14.42721" lon="-60.84919">
        <ele>3</ele>
        <time>2016-06-05T12:18:47.930Z</time>
      </trkpt>
      <trkpt lat="14.42719" lon="-60.84918">
        <ele>4</ele>
        <time>2016-06-05T12:18:48.924Z</time>
      </trkpt>
      <trkpt lat="14.42716" lon="-60.84918">
        <ele>4</ele>
        <time>2016-06-05T12:18:49.922Z</time>
      </trkpt>
      <trkpt lat="14.42713" lon="-60.84916">
        <ele>3</ele>
        <time>2016-06-05T12:18:50.924Z</time>
      </trkpt>
      <trkpt lat="14.4271" lon="-60.84915">
        <ele>4</ele>
        <time>2016-06-05T12:18:51.925Z</time>
      </trkpt>
      <trkpt lat="14.42707" lon="-60.84915">
        <ele>4</ele>
        <time>2016-06-05T12:18:52.922Z</time>
      </trkpt>
      <trkpt lat="14.42705" lon="-60.84915">
        <ele>3</ele>
        <time>2016-06-05T12:18:53.925Z</time>
      </trkpt>
      <trkpt lat="14.42702" lon="-60.84916">
        <ele>3</ele>
        <time>2016-06-05T12:18:54.923Z</time>
      </trkpt>
      <trkpt lat="14.427" lon="-60.84916">
        <ele>3</ele>
        <time>2016-06-05T12:18:55.924Z</time>
      </trkpt>
      <trkpt lat="14.42697" lon="-60.84917">
        <ele>3</ele>
        <time>2016-06-05T12:18:56.920Z</time>
      </trkpt>
      <trkpt lat="14.42695" lon="-60.84917">
        <ele>3</ele>
        <time>2016-06-05T12:18:57.919Z</time>
      </trkpt>
      <trkpt lat="14.42693" lon="-60.8492">
        <ele>3</ele>
        <time>2016-06-05T12:18:58.923Z</time>
      </trkpt>
      <trkpt lat="14.42691" lon="-60.84921">
        <ele>4</ele>
        <time>2016-06-05T12:18:59.927Z</time>
      </trkpt>
      <trkpt lat="14.42688" lon="-60.84923">
        <ele>5</ele>
        <time>2016-06-05T12:19:00.922Z</time>
      </trkpt>
      <trkpt lat="14.42685" lon="-60.84923">
        <ele>4</ele>
        <time>2016-06-05T12:19:01.921Z</time>
      </trkpt>
      <trkpt lat="14.42682" lon="-60.84924">
        <ele>4</ele>
        <time>2016-06-05T12:19:02.925Z</time>
      </trkpt>
      <trkpt lat="14.42679" lon="-60.84926">
        <ele>4</ele>
        <time>2016-06-05T12:19:03.927Z</time>
      </trkpt>
      <trkpt lat="14.42676" lon="-60.84925">
        <ele>5</ele>
        <time>2016-06-05T12:19:04.926Z</time>
      </trkpt>
      <trkpt lat="14.42673" lon="-60.84925">
        <ele>5</ele>
        <time>2016-06-05T12:19:05.928Z</time>
      </trkpt>
      <trkpt lat="14.4267" lon="-60.84925">
        <ele>5</ele>
        <time>2016-06-05T12:19:06.930Z</time>
      </trkpt>
      <trkpt lat="14.42667" lon="-60.84924">
        <ele>4</ele>
        <time>2016-06-05T12:19:07.927Z</time>
      </trkpt>
      <trkpt lat="14.42664" lon="-60.84925">
        <ele>2</ele>
        <time>2016-06-05T12:19:08.924Z</time>
      </trkpt>
      <trkpt lat="14.42662" lon="-60.84926">
        <ele>2</ele>
        <time>2016-06-05T12:19:09.923Z</time>
      </trkpt>
      <trkpt lat="14.4266" lon="-60.84926">
        <ele>2</ele>
        <time>2016-06-05T12:19:10.922Z</time>
      </trkpt>
      <trkpt lat="14.42658" lon="-60.84927">
        <ele>2</ele>
        <time>2016-06-05T12:19:11.925Z</time>
      </trkpt>
      <trkpt lat="14.42656" lon="-60.84928">
        <ele>2</ele>
        <time>2016-06-05T12:19:12.920Z</time>
      </trkpt>
      <trkpt lat="14.42652" lon="-60.84927">
        <ele>2</ele>
        <time>2016-06-05T12:19:13.921Z</time>
      </trkpt>
      <trkpt lat="14.42649" lon="-60.84927">
        <ele>3</ele>
        <time>2016-06-05T12:19:14.939Z</time>
      </trkpt>
      <trkpt lat="14.42646" lon="-60.84927">
        <ele>3</ele>
        <time>2016-06-05T12:19:15.922Z</time>
      </trkpt>
      <trkpt lat="14.42644" lon="-60.84927">
        <ele>2</ele>
        <time>2016-06-05T12:19:16.922Z</time>
      </trkpt>
      <trkpt lat="14.42643" lon="-60.84928">
        <ele>3</ele>
        <time>2016-06-05T12:19:17.924Z</time>
      </trkpt>
      <trkpt lat="14.4264" lon="-60.84928">
        <ele>4</ele>
        <time>2016-06-05T12:19:18.924Z</time>
      </trkpt>
      <trkpt lat="14.42637" lon="-60.84928">
        <ele>4</ele>
        <time>2016-06-05T12:19:19.927Z</time>
      </trkpt>
      <trkpt lat="14.42634" lon="-60.84928">
        <ele>5</ele>
        <time>2016-06-05T12:19:20.924Z</time>
      </trkpt>
      <trkpt lat="14.42631" lon="-60.84926">
        <ele>5</ele>
        <time>2016-06-05T12:19:21.926Z</time>
      </trkpt>
      <trkpt lat="14.42628" lon="-60.84926">
        <ele>5</ele>
        <time>2016-06-05T12:19:22.923Z</time>
      </trkpt>
      <trkpt lat="14.42626" lon="-60.84926">
        <ele>4</ele>
        <time>2016-06-05T12:19:23.923Z</time>
      </trkpt>
      <trkpt lat="14.42623" lon="-60.84927">
        <ele>5</ele>
        <time>2016-06-05T12:19:24.924Z</time>
      </trkpt>
      <trkpt lat="14.4262" lon="-60.84927">
        <ele>6</ele>
        <time>2016-06-05T12:19:25.925Z</time>
      </trkpt>
      <trkpt lat="14.42617" lon="-60.84928">
        <ele>6</ele>
        <time>2016-06-05T12:19:26.924Z</time>
      </trkpt>
      <trkpt lat="14.42617" lon="-60.8493">
        <ele>5</ele>
        <time>2016-06-05T12:19:27.923Z</time>
      </trkpt>
      <trkpt lat="14.42615" lon="-60.8493">
        <ele>5</ele>
        <time>2016-06-05T12:19:28.925Z</time>
      </trkpt>
      <trkpt lat="14.42612" lon="-60.84931">
        <ele>5</ele>
        <time>2016-06-05T12:19:29.932Z</time>
      </trkpt>
      <trkpt lat="14.4261" lon="-60.84931">
        <ele>5</ele>
        <time>2016-06-05T12:19:30.930Z</time>
      </trkpt>
      <trkpt lat="14.42608" lon="-60.84931">
        <ele>6</ele>
        <time>2016-06-05T12:19:31.925Z</time>
      </trkpt>
      <trkpt lat="14.42606" lon="-60.84933">
        <ele>6</ele>
        <time>2016-06-05T12:19:32.922Z</time>
      </trkpt>
      <trkpt lat="14.42604" lon="-60.84935">
        <ele>6</ele>
        <time>2016-06-05T12:19:33.923Z</time>
      </trkpt>
      <trkpt lat="14.42599" lon="-60.84936">
        <ele>6</ele>
        <time>2016-06-05T12:19:34.927Z</time>
      </trkpt>
      <trkpt lat="14.42597" lon="-60.84937">
        <ele>6</ele>
        <time>2016-06-05T12:19:35.928Z</time>
      </trkpt>
      <trkpt lat="14.42595" lon="-60.8494">
        <ele>5</ele>
        <time>2016-06-05T12:19:36.932Z</time>
      </trkpt>
      <trkpt lat="14.42592" lon="-60.84942">
        <ele>5</ele>
        <time>2016-06-05T12:19:37.927Z</time>
      </trkpt>
      <trkpt lat="14.4259" lon="-60.84943">
        <ele>4</ele>
        <time>2016-06-05T12:19:38.923Z</time>
      </trkpt>
      <trkpt lat="14.42588" lon="-60.84946">
        <ele>4</ele>
        <time>2016-06-05T12:19:39.918Z</time>
      </trkpt>
      <trkpt lat="14.42587" lon="-60.84948">
        <ele>4</ele>
        <time>2016-06-05T12:19:40.921Z</time>
      </trkpt>
      <trkpt lat="14.42584" lon="-60.8495">
        <ele>3</ele>
        <time>2016-06-05T12:19:41.921Z</time>
      </trkpt>
      <trkpt lat="14.42583" lon="-60.84953">
        <ele>2</ele>
        <time>2016-06-05T12:19:42.920Z</time>
      </trkpt>
      <trkpt lat="14.42582" lon="-60.84955">
        <ele>3</ele>
        <time>2016-06-05T12:19:43.923Z</time>
      </trkpt>
      <trkpt lat="14.42578" lon="-60.84953">
        <ele>3</ele>
        <time>2016-06-05T12:19:44.924Z</time>
      </trkpt>
      <trkpt lat="14.42575" lon="-60.84952">
        <ele>2</ele>
        <time>2016-06-05T12:19:45.918Z</time>
      </trkpt>
      <trkpt lat="14.42572" lon="-60.84951">
        <ele>2</ele>
        <time>2016-06-05T12:19:46.920Z</time>
      </trkpt>
      <trkpt lat="14.42568" lon="-60.84949">
        <ele>2</ele>
        <time>2016-06-05T12:19:47.922Z</time>
      </trkpt>
      <trkpt lat="14.42566" lon="-60.84948">
        <ele>3</ele>
        <time>2016-06-05T12:19:48.920Z</time>
      </trkpt>
      <trkpt lat="14.42563" lon="-60.8495">
        <ele>4</ele>
        <time>2016-06-05T12:19:49.917Z</time>
      </trkpt>
      <trkpt lat="14.4256" lon="-60.8495">
        <ele>3</ele>
        <time>2016-06-05T12:19:50.918Z</time>
      </trkpt>
      <trkpt lat="14.42557" lon="-60.8495">
        <ele>4</ele>
        <time>2016-06-05T12:19:51.916Z</time>
      </trkpt>
      <trkpt lat="14.42554" lon="-60.8495">
        <ele>4</ele>
        <time>2016-06-05T12:19:52.924Z</time>
      </trkpt>
      <trkpt lat="14.42552" lon="-60.84949">
        <ele>5</ele>
        <time>2016-06-05T12:19:53.918Z</time>
      </trkpt>
      <trkpt lat="14.4255" lon="-60.8495">
        <ele>5</ele>
        <time>2016-06-05T12:19:54.918Z</time>
      </trkpt>
      <trkpt lat="14.42548" lon="-60.84949">
        <ele>5</ele>
        <time>2016-06-05T12:19:55.918Z</time>
      </trkpt>
      <trkpt lat="14.42546" lon="-60.84947">
        <ele>6</ele>
        <time>2016-06-05T12:19:56.922Z</time>
      </trkpt>
      <trkpt lat="14.42544" lon="-60.84947">
        <ele>5</ele>
        <time>2016-06-05T12:19:57.921Z</time>
      </trkpt>
      <trkpt lat="14.42542" lon="-60.84947">
        <ele>5</ele>
        <time>2016-06-05T12:19:58.922Z</time>
      </trkpt>
      <trkpt lat="14.42541" lon="-60.84945">
        <ele>4</ele>
        <time>2016-06-05T12:19:59.925Z</time>
      </trkpt>
      <trkpt lat="14.42538" lon="-60.84944">
        <ele>4</ele>
        <time>2016-06-05T12:20:00.923Z</time>
      </trkpt>
      <trkpt lat="14.42535" lon="-60.84945">
        <ele>4</ele>
        <time>2016-06-05T12:20:01.927Z</time>
      </trkpt>
      <trkpt lat="14.42532" lon="-60.84943">
        <ele>5</ele>
        <time>2016-06-05T12:20:02.927Z</time>
      </trkpt>
      <trkpt lat="14.42528" lon="-60.84943">
        <ele>6</ele>
        <time>2016-06-05T12:20:03.923Z</time>
      </trkpt>
      <trkpt lat="14.42526" lon="-60.84942">
        <ele>5</ele>
        <time>2016-06-05T12:20:04.921Z</time>
      </trkpt>
      <trkpt lat="14.42524" lon="-60.84941">
        <ele>5</ele>
        <time>2016-06-05T12:20:05.923Z</time>
      </trkpt>
      <trkpt lat="14.42523" lon="-60.84939">
        <ele>4</ele>
        <time>2016-06-05T12:20:06.923Z</time>
      </trkpt>
      <trkpt lat="14.42519" lon="-60.84937">
        <ele>3</ele>
        <time>2016-06-05T12:20:08.921Z</time>
      </trkpt>
      <trkpt lat="14.42518" lon="-60.84936">
        <ele>3</ele>
        <time>2016-06-05T12:20:09.923Z</time>
      </trkpt>
      <trkpt lat="14.42517" lon="-60.84935">
        <ele>3</ele>
        <time>2016-06-05T12:20:10.920Z</time>
      </trkpt>
      <trkpt lat="14.42516" lon="-60.84934">
        <ele>4</ele>
        <time>2016-06-05T12:20:11.920Z</time>
      </trkpt>
      <trkpt lat="14.42515" lon="-60.84933">
        <ele>5</ele>
        <time>2016-06-05T12:20:12.923Z</time>
      </trkpt>
      <trkpt lat="14.42513" lon="-60.8493">
        <ele>6</ele>
        <time>2016-06-05T12:20:13.924Z</time>
      </trkpt>
      <trkpt lat="14.42511" lon="-60.84929">
        <ele>7</ele>
        <time>2016-06-05T12:20:14.922Z</time>
      </trkpt>
      <trkpt lat="14.42508" lon="-60.84929">
        <ele>8</ele>
        <time>2016-06-05T12:20:15.923Z</time>
      </trkpt>
      <trkpt lat="14.42504" lon="-60.84927">
        <ele>8</ele>
        <time>2016-06-05T12:20:17.924Z</time>
      </trkpt>
      <trkpt lat="14.42501" lon="-60.84927">
        <ele>8</ele>
        <time>2016-06-05T12:20:18.926Z</time>
      </trkpt>
      <trkpt lat="14.42499" lon="-60.84926">
        <ele>8</ele>
        <time>2016-06-05T12:20:19.922Z</time>
      </trkpt>
      <trkpt lat="14.42497" lon="-60.84925">
        <ele>8</ele>
        <time>2016-06-05T12:20:20.924Z</time>
      </trkpt>
      <trkpt lat="14.42496" lon="-60.84924">
        <ele>9</ele>
        <time>2016-06-05T12:20:21.923Z</time>
      </trkpt>
      <trkpt lat="14.42493" lon="-60.84922">
        <ele>9</ele>
        <time>2016-06-05T12:20:22.928Z</time>
      </trkpt>
      <trkpt lat="14.42492" lon="-60.84921">
        <ele>9</ele>
        <time>2016-06-05T12:20:23.923Z</time>
      </trkpt>
      <trkpt lat="14.42489" lon="-60.84919">
        <ele>9</ele>
        <time>2016-06-05T12:20:24.920Z</time>
      </trkpt>
      <trkpt lat="14.42487" lon="-60.84919">
        <ele>9</ele>
        <time>2016-06-05T12:20:25.923Z</time>
      </trkpt>
      <trkpt lat="14.42483" lon="-60.84919">
        <ele>10</ele>
        <time>2016-06-05T12:20:26.920Z</time>
      </trkpt>
      <trkpt lat="14.42481" lon="-60.84919">
        <ele>10</ele>
        <time>2016-06-05T12:20:27.924Z</time>
      </trkpt>
      <trkpt lat="14.42478" lon="-60.84918">
        <ele>10</ele>
        <time>2016-06-05T12:20:28.921Z</time>
      </trkpt>
      <trkpt lat="14.42476" lon="-60.84917">
        <ele>8</ele>
        <time>2016-06-05T12:20:29.924Z</time>
      </trkpt>
      <trkpt lat="14.42474" lon="-60.84917">
        <ele>8</ele>
        <time>2016-06-05T12:20:30.922Z</time>
      </trkpt>
      <trkpt lat="14.42471" lon="-60.84917">
        <ele>7</ele>
        <time>2016-06-05T12:20:31.924Z</time>
      </trkpt>
      <trkpt lat="14.42468" lon="-60.84916">
        <ele>9</ele>
        <time>2016-06-05T12:20:32.926Z</time>
      </trkpt>
      <trkpt lat="14.42465" lon="-60.84916">
        <ele>10</ele>
        <time>2016-06-05T12:20:33.923Z</time>
      </trkpt>
      <trkpt lat="14.42462" lon="-60.84916">
        <ele>10</ele>
        <time>2016-06-05T12:20:34.927Z</time>
      </trkpt>
      <trkpt lat="14.42461" lon="-60.84916">
        <ele>10</ele>
        <time>2016-06-05T12:20:35.923Z</time>
      </trkpt>
      <trkpt lat="14.42458" lon="-60.84919">
        <ele>10</ele>
        <time>2016-06-05T12:20:43.924Z</time>
      </trkpt>
      <trkpt lat="14.42456" lon="-60.84919">
        <ele>10</ele>
        <time>2016-06-05T12:20:46.927Z</time>
      </trkpt>
      <trkpt lat="14.42455" lon="-60.84918">
        <ele>10</ele>
        <time>2016-06-05T12:20:53.925Z</time>
      </trkpt>
      <trkpt lat="14.42453" lon="-60.84919">
        <ele>10</ele>
        <time>2016-06-05T12:20:55.922Z</time>
      </trkpt>
      <trkpt lat="14.42453" lon="-60.84919">
        <ele>10</ele>
        <time>2016-06-05T12:20:56.134Z</time>
      </trkpt>
      <trkpt lat="14.42451" lon="-60.8492">
        <ele>11</ele>
        <time>2016-06-05T12:21:02.923Z</time>
      </trkpt>
      <trkpt lat="14.42451" lon="-60.8492">
        <ele>11</ele>
        <time>2016-06-05T12:21:22.111Z</time>
      </trkpt>
      <trkpt lat="14.42447" lon="-60.84922">
        <ele>12</ele>
        <time>2016-06-05T12:21:38.924Z</time>
      </trkpt>
      <trkpt lat="14.42445" lon="-60.84923">
        <ele>12</ele>
        <time>2016-06-05T12:21:40.922Z</time>
      </trkpt>
      <trkpt lat="14.42444" lon="-60.84924">
        <ele>13</ele>
        <time>2016-06-05T12:21:41.920Z</time>
      </trkpt>
      <trkpt lat="14.42443" lon="-60.84925">
        <ele>13</ele>
        <time>2016-06-05T12:21:42.918Z</time>
      </trkpt>
      <trkpt lat="14.42441" lon="-60.84925">
        <ele>13</ele>
        <time>2016-06-05T12:21:43.922Z</time>
      </trkpt>
      <trkpt lat="14.42439" lon="-60.84928">
        <ele>10</ele>
        <time>2016-06-05T12:21:45.918Z</time>
      </trkpt>
      <trkpt lat="14.42438" lon="-60.84928">
        <ele>10</ele>
        <time>2016-06-05T12:21:46.920Z</time>
      </trkpt>
      <trkpt lat="14.42435" lon="-60.84928">
        <ele>9</ele>
        <time>2016-06-05T12:21:48.921Z</time>
      </trkpt>
      <trkpt lat="14.42434" lon="-60.84929">
        <ele>9</ele>
        <time>2016-06-05T12:21:49.920Z</time>
      </trkpt>
      <trkpt lat="14.42432" lon="-60.8493">
        <ele>8</ele>
        <time>2016-06-05T12:21:51.917Z</time>
      </trkpt>
      <trkpt lat="14.4243" lon="-60.84931">
        <ele>9</ele>
        <time>2016-06-05T12:21:53.920Z</time>
      </trkpt>
      <trkpt lat="14.42428" lon="-60.84932">
        <ele>9</ele>
        <time>2016-06-05T12:21:56.923Z</time>
      </trkpt>
      <trkpt lat="14.42425" lon="-60.84935">
        <ele>11</ele>
        <time>2016-06-05T12:22:06.925Z</time>
      </trkpt>
      <trkpt lat="14.42423" lon="-60.84936">
        <ele>12</ele>
        <time>2016-06-05T12:22:08.926Z</time>
      </trkpt>
      <trkpt lat="14.42422" lon="-60.84937">
        <ele>13</ele>
        <time>2016-06-05T12:22:10.919Z</time>
      </trkpt>
      <trkpt lat="14.42421" lon="-60.84938">
        <ele>13</ele>
        <time>2016-06-05T12:22:11.919Z</time>
      </trkpt>
      <trkpt lat="14.4242" lon="-60.84939">
        <ele>13</ele>
        <time>2016-06-05T12:22:12.922Z</time>
      </trkpt>
      <trkpt lat="14.42418" lon="-60.84939">
        <ele>13</ele>
        <time>2016-06-05T12:22:13.923Z</time>
      </trkpt>
      <trkpt lat="14.42416" lon="-60.8494">
        <ele>13</ele>
        <time>2016-06-05T12:22:14.925Z</time>
      </trkpt>
      <trkpt lat="14.42415" lon="-60.8494">
        <ele>13</ele>
        <time>2016-06-05T12:22:15.922Z</time>
      </trkpt>
      <trkpt lat="14.42413" lon="-60.8494">
        <ele>13</ele>
        <time>2016-06-05T12:22:17.921Z</time>
      </trkpt>
      <trkpt lat="14.42411" lon="-60.8494">
        <ele>13</ele>
        <time>2016-06-05T12:22:19.919Z</time>
      </trkpt>
      <trkpt lat="14.42409" lon="-60.8494">
        <ele>13</ele>
        <time>2016-06-05T12:22:20.918Z</time>
      </trkpt>
      <trkpt lat="14.42407" lon="-60.8494">
        <ele>13</ele>
        <time>2016-06-05T12:22:22.920Z</time>
      </trkpt>
      <trkpt lat="14.42405" lon="-60.8494">
        <ele>13</ele>
        <time>2016-06-05T12:22:24.921Z</time>
      </trkpt>
      <trkpt lat="14.42403" lon="-60.8494">
        <ele>13</ele>
        <time>2016-06-05T12:22:26.920Z</time>
      </trkpt>
      <trkpt lat="14.42401" lon="-60.8494">
        <ele>13</ele>
        <time>2016-06-05T12:22:27.922Z</time>
      </trkpt>
      <trkpt lat="14.424" lon="-60.84942">
        <ele>11</ele>
        <time>2016-06-05T12:22:29.924Z</time>
      </trkpt>
      <trkpt lat="14.42398" lon="-60.84943">
        <ele>11</ele>
        <time>2016-06-05T12:22:31.919Z</time>
      </trkpt>
      <trkpt lat="14.42397" lon="-60.84943">
        <ele>12</ele>
        <time>2016-06-05T12:22:33.919Z</time>
      </trkpt>
      <trkpt lat="14.42394" lon="-60.84944">
        <ele>13</ele>
        <time>2016-06-05T12:22:35.921Z</time>
      </trkpt>
      <trkpt lat="14.42393" lon="-60.84945">
        <ele>13</ele>
        <time>2016-06-05T12:22:37.923Z</time>
      </trkpt>
      <trkpt lat="14.42391" lon="-60.84947">
        <ele>14</ele>
        <time>2016-06-05T12:22:39.925Z</time>
      </trkpt>
      <trkpt lat="14.42389" lon="-60.84949">
        <ele>14</ele>
        <time>2016-06-05T12:22:41.921Z</time>
      </trkpt>
      <trkpt lat="14.42389" lon="-60.8495">
        <ele>15</ele>
        <time>2016-06-05T12:22:43.925Z</time>
      </trkpt>
      <trkpt lat="14.42387" lon="-60.84951">
        <ele>15</ele>
        <time>2016-06-05T12:22:45.919Z</time>
      </trkpt>
      <trkpt lat="14.42387" lon="-60.84951">
        <ele>15</ele>
        <time>2016-06-05T12:22:47.049Z</time>
      </trkpt>
      <trkpt lat="14.42384" lon="-60.84951">
        <ele>16</ele>
        <time>2016-06-05T12:23:01.920Z</time>
      </trkpt>
      <trkpt lat="14.42375" lon="-60.84951">
        <ele>10</ele>
        <time>2016-06-05T12:23:15.921Z</time>
      </trkpt>
      <trkpt lat="14.42373" lon="-60.84951">
        <ele>10</ele>
        <time>2016-06-05T12:23:17.920Z</time>
      </trkpt>
      <trkpt lat="14.42372" lon="-60.84952">
        <ele>11</ele>
        <time>2016-06-05T12:23:18.921Z</time>
      </trkpt>
      <trkpt lat="14.4237" lon="-60.84951">
        <ele>12</ele>
        <time>2016-06-05T12:23:20.923Z</time>
      </trkpt>
      <trkpt lat="14.42366" lon="-60.84952">
        <ele>12</ele>
        <time>2016-06-05T12:23:36.919Z</time>
      </trkpt>
      <trkpt lat="14.42364" lon="-60.84952">
        <ele>12</ele>
        <time>2016-06-05T12:23:38.922Z</time>
      </trkpt>
      <trkpt lat="14.42362" lon="-60.84953">
        <ele>13</ele>
        <time>2016-06-05T12:23:39.921Z</time>
      </trkpt>
      <trkpt lat="14.4236" lon="-60.84952">
        <ele>12</ele>
        <time>2016-06-05T12:23:41.922Z</time>
      </trkpt>
      <trkpt lat="14.42358" lon="-60.84952">
        <ele>11</ele>
        <time>2016-06-05T12:23:42.921Z</time>
      </trkpt>
      <trkpt lat="14.42356" lon="-60.84952">
        <ele>11</ele>
        <time>2016-06-05T12:23:44.924Z</time>
      </trkpt>
      <trkpt lat="14.42353" lon="-60.84951">
        <ele>12</ele>
        <time>2016-06-05T12:23:46.917Z</time>
      </trkpt>
      <trkpt lat="14.42351" lon="-60.84952">
        <ele>12</ele>
        <time>2016-06-05T12:23:48.919Z</time>
      </trkpt>
      <trkpt lat="14.42349" lon="-60.84952">
        <ele>12</ele>
        <time>2016-06-05T12:23:49.924Z</time>
      </trkpt>
      <trkpt lat="14.42344" lon="-60.84953">
        <ele>13</ele>
        <time>2016-06-05T12:24:05.926Z</time>
      </trkpt>
      <trkpt lat="14.42342" lon="-60.84953">
        <ele>13</ele>
        <time>2016-06-05T12:24:06.924Z</time>
      </trkpt>
      <trkpt lat="14.4234" lon="-60.84954">
        <ele>13</ele>
        <time>2016-06-05T12:24:08.920Z</time>
      </trkpt>
      <trkpt lat="14.42339" lon="-60.84954">
        <ele>14</ele>
        <time>2016-06-05T12:24:10.921Z</time>
      </trkpt>
      <trkpt lat="14.42337" lon="-60.84954">
        <ele>14</ele>
        <time>2016-06-05T12:24:12.923Z</time>
      </trkpt>
      <trkpt lat="14.42335" lon="-60.84955">
        <ele>12</ele>
        <time>2016-06-05T12:24:14.922Z</time>
      </trkpt>
      <trkpt lat="14.42333" lon="-60.84956">
        <ele>12</ele>
        <time>2016-06-05T12:24:16.921Z</time>
      </trkpt>
      <trkpt lat="14.42331" lon="-60.84957">
        <ele>12</ele>
        <time>2016-06-05T12:24:19.920Z</time>
      </trkpt>
      <trkpt lat="14.42328" lon="-60.84958">
        <ele>12</ele>
        <time>2016-06-05T12:24:21.921Z</time>
      </trkpt>
      <trkpt lat="14.42323" lon="-60.8496">
        <ele>11</ele>
        <time>2016-06-05T12:24:27.922Z</time>
      </trkpt>
      <trkpt lat="14.42321" lon="-60.8496">
        <ele>12</ele>
        <time>2016-06-05T12:24:29.922Z</time>
      </trkpt>
      <trkpt lat="14.4232" lon="-60.84961">
        <ele>11</ele>
        <time>2016-06-05T12:24:30.920Z</time>
      </trkpt>
      <trkpt lat="14.42317" lon="-60.84962">
        <ele>11</ele>
        <time>2016-06-05T12:24:32.922Z</time>
      </trkpt>
      <trkpt lat="14.42316" lon="-60.84962">
        <ele>11</ele>
        <time>2016-06-05T12:24:33.925Z</time>
      </trkpt>
      <trkpt lat="14.42314" lon="-60.84964">
        <ele>11</ele>
        <time>2016-06-05T12:24:35.923Z</time>
      </trkpt>
      <trkpt lat="14.42309" lon="-60.84968">
        <ele>13</ele>
        <time>2016-06-05T12:24:57.921Z</time>
      </trkpt>
      <trkpt lat="14.42307" lon="-60.84969">
        <ele>12</ele>
        <time>2016-06-05T12:24:59.922Z</time>
      </trkpt>
      <trkpt lat="14.42307" lon="-60.8497">
        <ele>12</ele>
        <time>2016-06-05T12:25:00.921Z</time>
      </trkpt>
      <trkpt lat="14.42305" lon="-60.84971">
        <ele>12</ele>
        <time>2016-06-05T12:25:02.922Z</time>
      </trkpt>
      <trkpt lat="14.42306" lon="-60.84975">
        <ele>11</ele>
        <time>2016-06-05T12:25:08.921Z</time>
      </trkpt>
      <trkpt lat="14.42307" lon="-60.84976">
        <ele>11</ele>
        <time>2016-06-05T12:25:11.924Z</time>
      </trkpt>
      <trkpt lat="14.42305" lon="-60.84975">
        <ele>11</ele>
        <time>2016-06-05T12:25:13.924Z</time>
      </trkpt>
      <trkpt lat="14.42303" lon="-60.8498">
        <ele>12</ele>
        <time>2016-06-05T12:25:26.920Z</time>
      </trkpt>
      <trkpt lat="14.42302" lon="-60.84981">
        <ele>12</ele>
        <time>2016-06-05T12:25:27.927Z</time>
      </trkpt>
      <trkpt lat="14.42301" lon="-60.84982">
        <ele>14</ele>
        <time>2016-06-05T12:25:29.920Z</time>
      </trkpt>
      <trkpt lat="14.42301" lon="-60.84982">
        <ele>14</ele>
        <time>2016-06-05T12:25:30.489Z</time>
      </trkpt>
      <trkpt lat="14.42294" lon="-60.8498">
        <ele>12</ele>
        <time>2016-06-05T12:26:07.921Z</time>
      </trkpt>
      <trkpt lat="14.42292" lon="-60.84982">
        <ele>12</ele>
        <time>2016-06-05T12:26:09.919Z</time>
      </trkpt>
      <trkpt lat="14.42291" lon="-60.84984">
        <ele>12</ele>
        <time>2016-06-05T12:26:11.921Z</time>
      </trkpt>
      <trkpt lat="14.4229" lon="-60.84986">
        <ele>13</ele>
        <time>2016-06-05T12:26:13.925Z</time>
      </trkpt>
      <trkpt lat="14.4229" lon="-60.84987">
        <ele>13</ele>
        <time>2016-06-05T12:26:14.927Z</time>
      </trkpt>
      <trkpt lat="14.42288" lon="-60.84988">
        <ele>12</ele>
        <time>2016-06-05T12:26:16.923Z</time>
      </trkpt>
      <trkpt lat="14.42286" lon="-60.8499">
        <ele>12</ele>
        <time>2016-06-05T12:26:18.925Z</time>
      </trkpt>
      <trkpt lat="14.42283" lon="-60.84992">
        <ele>12</ele>
        <time>2016-06-05T12:26:31.923Z</time>
      </trkpt>
      <trkpt lat="14.42283" lon="-60.84994">
        <ele>12</ele>
        <time>2016-06-05T12:26:36.917Z</time>
      </trkpt>
      <trkpt lat="14.42283" lon="-60.84994">
        <ele>12</ele>
        <time>2016-06-05T12:26:40.569Z</time>
      </trkpt>
      <trkpt lat="14.4228" lon="-60.84995">
        <ele>10</ele>
        <time>2016-06-05T12:26:48.925Z</time>
      </trkpt>
      <trkpt lat="14.42278" lon="-60.84996">
        <ele>10</ele>
        <time>2016-06-05T12:26:49.922Z</time>
      </trkpt>
      <trkpt lat="14.42276" lon="-60.84998">
        <ele>11</ele>
        <time>2016-06-05T12:26:51.921Z</time>
      </trkpt>
      <trkpt lat="14.42275" lon="-60.85001">
        <ele>10</ele>
        <time>2016-06-05T12:26:53.929Z</time>
      </trkpt>
      <trkpt lat="14.42274" lon="-60.85002">
        <ele>10</ele>
        <time>2016-06-05T12:26:54.925Z</time>
      </trkpt>
      <trkpt lat="14.42273" lon="-60.85003">
        <ele>9</ele>
        <time>2016-06-05T12:26:55.921Z</time>
      </trkpt>
      <trkpt lat="14.42272" lon="-60.85004">
        <ele>9</ele>
        <time>2016-06-05T12:26:56.922Z</time>
      </trkpt>
      <trkpt lat="14.4227" lon="-60.85005">
        <ele>10</ele>
        <time>2016-06-05T12:26:58.928Z</time>
      </trkpt>
      <trkpt lat="14.42268" lon="-60.85006">
        <ele>10</ele>
        <time>2016-06-05T12:27:00.923Z</time>
      </trkpt>
      <trkpt lat="14.42267" lon="-60.85007">
        <ele>10</ele>
        <time>2016-06-05T12:27:01.925Z</time>
      </trkpt>
      <trkpt lat="14.42267" lon="-60.85007">
        <ele>10</ele>
        <time>2016-06-05T12:27:04.696Z</time>
      </trkpt>
      <trkpt lat="14.42264" lon="-60.85009">
        <ele>9</ele>
        <time>2016-06-05T12:27:13.917Z</time>
      </trkpt>
      <trkpt lat="14.42264" lon="-60.85011">
        <ele>8</ele>
        <time>2016-06-05T12:27:14.920Z</time>
      </trkpt>
      <trkpt lat="14.42258" lon="-60.85014">
        <ele>6</ele>
        <time>2016-06-05T12:27:34.921Z</time>
      </trkpt>
      <trkpt lat="14.42255" lon="-60.85016">
        <ele>8</ele>
        <time>2016-06-05T12:27:38.918Z</time>
      </trkpt>
      <trkpt lat="14.42253" lon="-60.85016">
        <ele>8</ele>
        <time>2016-06-05T12:27:40.915Z</time>
      </trkpt>
      <trkpt lat="14.42251" lon="-60.85018">
        <ele>7</ele>
        <time>2016-06-05T12:27:45.919Z</time>
      </trkpt>
      <trkpt lat="14.42249" lon="-60.85019">
        <ele>7</ele>
        <time>2016-06-05T12:27:47.923Z</time>
      </trkpt>
      <trkpt lat="14.42248" lon="-60.8502">
        <ele>7</ele>
        <time>2016-06-05T12:27:49.918Z</time>
      </trkpt>
      <trkpt lat="14.42246" lon="-60.85021">
        <ele>6</ele>
        <time>2016-06-05T12:27:51.925Z</time>
      </trkpt>
      <trkpt lat="14.42244" lon="-60.85022">
        <ele>6</ele>
        <time>2016-06-05T12:27:53.918Z</time>
      </trkpt>
      <trkpt lat="14.4224" lon="-60.85024">
        <ele>6</ele>
        <time>2016-06-05T12:28:03.918Z</time>
      </trkpt>
      <trkpt lat="14.42239" lon="-60.85025">
        <ele>7</ele>
        <time>2016-06-05T12:28:05.921Z</time>
      </trkpt>
      <trkpt lat="14.42236" lon="-60.85026">
        <ele>7</ele>
        <time>2016-06-05T12:28:20.922Z</time>
      </trkpt>
      <trkpt lat="14.42234" lon="-60.85027">
        <ele>7</ele>
        <time>2016-06-05T12:28:22.922Z</time>
      </trkpt>
      <trkpt lat="14.42231" lon="-60.85028">
        <ele>7</ele>
        <time>2016-06-05T12:28:26.930Z</time>
      </trkpt>
      <trkpt lat="14.42229" lon="-60.8503">
        <ele>7</ele>
        <time>2016-06-05T12:28:28.919Z</time>
      </trkpt>
      <trkpt lat="14.42227" lon="-60.85032">
        <ele>7</ele>
        <time>2016-06-05T12:28:39.923Z</time>
      </trkpt>
      <trkpt lat="14.42225" lon="-60.85033">
        <ele>8</ele>
        <time>2016-06-05T12:28:41.923Z</time>
      </trkpt>
      <trkpt lat="14.42224" lon="-60.85038">
        <ele>8</ele>
        <time>2016-06-05T12:28:44.923Z</time>
      </trkpt>
      <trkpt lat="14.42224" lon="-60.8504">
        <ele>9</ele>
        <time>2016-06-05T12:28:46.921Z</time>
      </trkpt>
      <trkpt lat="14.42223" lon="-60.85042">
        <ele>8</ele>
        <time>2016-06-05T12:28:48.916Z</time>
      </trkpt>
      <trkpt lat="14.42221" lon="-60.85042">
        <ele>8</ele>
        <time>2016-06-05T12:28:50.916Z</time>
      </trkpt>
      <trkpt lat="14.42221" lon="-60.85042">
        <ele>8</ele>
        <time>2016-06-05T12:28:52.721Z</time>
      </trkpt>
      <trkpt lat="14.42217" lon="-60.85042">
        <ele>7</ele>
        <time>2016-06-05T12:29:06.928Z</time>
      </trkpt>
      <trkpt lat="14.42216" lon="-60.85043">
        <ele>7</ele>
        <time>2016-06-05T12:29:07.921Z</time>
      </trkpt>
      <trkpt lat="14.42214" lon="-60.85046">
        <ele>8</ele>
        <time>2016-06-05T12:29:13.922Z</time>
      </trkpt>
      <trkpt lat="14.42214" lon="-60.85046">
        <ele>8</ele>
        <time>2016-06-05T12:31:01.895Z</time>
      </trkpt>
      <trkpt lat="14.4221" lon="-60.85047">
        <ele>9</ele>
        <time>2016-06-05T12:31:21.919Z</time>
      </trkpt>
      <trkpt lat="14.42208" lon="-60.85047">
        <ele>10</ele>
        <time>2016-06-05T12:31:23.919Z</time>
      </trkpt>
      <trkpt lat="14.42208" lon="-60.85047">
        <ele>10</ele>
        <time>2016-06-05T12:31:25.086Z</time>
      </trkpt>
      <trkpt lat="14.42206" lon="-60.85047">
        <ele>9</ele>
        <time>2016-06-05T12:31:31.927Z</time>
      </trkpt>
      <trkpt lat="14.42205" lon="-60.85046">
        <ele>10</ele>
        <time>2016-06-05T12:31:33.924Z</time>
      </trkpt>
      <trkpt lat="14.42203" lon="-60.85045">
        <ele>10</ele>
        <time>2016-06-05T12:31:35.922Z</time>
      </trkpt>
      <trkpt lat="14.42202" lon="-60.85044">
        <ele>10</ele>
        <time>2016-06-05T12:31:37.923Z</time>
      </trkpt>
      <trkpt lat="14.42199" lon="-60.85044">
        <ele>10</ele>
        <time>2016-06-05T12:31:39.923Z</time>
      </trkpt>
      <trkpt lat="14.42198" lon="-60.85043">
        <ele>11</ele>
        <time>2016-06-05T12:31:41.924Z</time>
      </trkpt>
      <trkpt lat="14.42196" lon="-60.85042">
        <ele>11</ele>
        <time>2016-06-05T12:31:43.923Z</time>
      </trkpt>
      <trkpt lat="14.42194" lon="-60.85041">
        <ele>12</ele>
        <time>2016-06-05T12:31:45.921Z</time>
      </trkpt>
      <trkpt lat="14.42192" lon="-60.8504">
        <ele>12</ele>
        <time>2016-06-05T12:31:47.924Z</time>
      </trkpt>
      <trkpt lat="14.4219" lon="-60.85039">
        <ele>12</ele>
        <time>2016-06-05T12:31:49.922Z</time>
      </trkpt>
      <trkpt lat="14.42188" lon="-60.85038">
        <ele>11</ele>
        <time>2016-06-05T12:31:51.925Z</time>
      </trkpt>
      <trkpt lat="14.42186" lon="-60.85037">
        <ele>11</ele>
        <time>2016-06-05T12:31:53.924Z</time>
      </trkpt>
      <trkpt lat="14.42184" lon="-60.85036">
        <ele>11</ele>
        <time>2016-06-05T12:31:55.924Z</time>
      </trkpt>
      <trkpt lat="14.42182" lon="-60.85035">
        <ele>11</ele>
        <time>2016-06-05T12:31:57.919Z</time>
      </trkpt>
      <trkpt lat="14.4218" lon="-60.85034">
        <ele>10</ele>
        <time>2016-06-05T12:31:59.919Z</time>
      </trkpt>
      <trkpt lat="14.42178" lon="-60.85032">
        <ele>10</ele>
        <time>2016-06-05T12:32:01.925Z</time>
      </trkpt>
      <trkpt lat="14.42176" lon="-60.85031">
        <ele>10</ele>
        <time>2016-06-05T12:32:03.923Z</time>
      </trkpt>
      <trkpt lat="14.42172" lon="-60.85028">
        <ele>9</ele>
        <time>2016-06-05T12:32:15.926Z</time>
      </trkpt>
      <trkpt lat="14.4217" lon="-60.85025">
        <ele>8</ele>
        <time>2016-06-05T12:32:17.921Z</time>
      </trkpt>
      <trkpt lat="14.42169" lon="-60.85024">
        <ele>9</ele>
        <time>2016-06-05T12:32:19.920Z</time>
      </trkpt>
      <trkpt lat="14.42168" lon="-60.85022">
        <ele>9</ele>
        <time>2016-06-05T12:32:21.917Z</time>
      </trkpt>
      <trkpt lat="14.42165" lon="-60.8502">
        <ele>10</ele>
        <time>2016-06-05T12:32:31.924Z</time>
      </trkpt>
      <trkpt lat="14.42164" lon="-60.85018">
        <ele>10</ele>
        <time>2016-06-05T12:32:33.920Z</time>
      </trkpt>
      <trkpt lat="14.42163" lon="-60.85015">
        <ele>9</ele>
        <time>2016-06-05T12:32:44.919Z</time>
      </trkpt>
      <trkpt lat="14.42161" lon="-60.85013">
        <ele>8</ele>
        <time>2016-06-05T12:32:45.918Z</time>
      </trkpt>
      <trkpt lat="14.42161" lon="-60.85011">
        <ele>8</ele>
        <time>2016-06-05T12:32:47.919Z</time>
      </trkpt>
      <trkpt lat="14.4216" lon="-60.8501">
        <ele>8</ele>
        <time>2016-06-05T12:32:48.917Z</time>
      </trkpt>
      <trkpt lat="14.4216" lon="-60.85008">
        <ele>8</ele>
        <time>2016-06-05T12:32:49.916Z</time>
      </trkpt>
      <trkpt lat="14.4216" lon="-60.85006">
        <ele>8</ele>
        <time>2016-06-05T12:32:50.917Z</time>
      </trkpt>
      <trkpt lat="14.4216" lon="-60.85005">
        <ele>8</ele>
        <time>2016-06-05T12:32:51.918Z</time>
      </trkpt>
      <trkpt lat="14.42159" lon="-60.85004">
        <ele>7</ele>
        <time>2016-06-05T12:32:52.916Z</time>
      </trkpt>
      <trkpt lat="14.42159" lon="-60.85002">
        <ele>7</ele>
        <time>2016-06-05T12:32:53.920Z</time>
      </trkpt>
      <trkpt lat="14.42157" lon="-60.85">
        <ele>8</ele>
        <time>2016-06-05T12:32:55.919Z</time>
      </trkpt>
      <trkpt lat="14.42155" lon="-60.84999">
        <ele>7</ele>
        <time>2016-06-05T12:32:57.919Z</time>
      </trkpt>
      <trkpt lat="14.42153" lon="-60.85">
        <ele>8</ele>
        <time>2016-06-05T12:32:59.925Z</time>
      </trkpt>
      <trkpt lat="14.42151" lon="-60.85001">
        <ele>8</ele>
        <time>2016-06-05T12:33:00.925Z</time>
      </trkpt>
      <trkpt lat="14.42148" lon="-60.85">
        <ele>8</ele>
        <time>2016-06-05T12:33:02.925Z</time>
      </trkpt>
      <trkpt lat="14.42147" lon="-60.85001">
        <ele>8</ele>
        <time>2016-06-05T12:33:03.926Z</time>
      </trkpt>
      <trkpt lat="14.42145" lon="-60.85">
        <ele>8</ele>
        <time>2016-06-05T12:33:05.928Z</time>
      </trkpt>
      <trkpt lat="14.42143" lon="-60.85">
        <ele>9</ele>
        <time>2016-06-05T12:33:07.925Z</time>
      </trkpt>
      <trkpt lat="14.42138" lon="-60.84999">
        <ele>10</ele>
        <time>2016-06-05T12:33:22.920Z</time>
      </trkpt>
      <trkpt lat="14.42135" lon="-60.84998">
        <ele>9</ele>
        <time>2016-06-05T12:33:24.922Z</time>
      </trkpt>
      <trkpt lat="14.42134" lon="-60.84997">
        <ele>9</ele>
        <time>2016-06-05T12:33:25.921Z</time>
      </trkpt>
      <trkpt lat="14.42131" lon="-60.84997">
        <ele>8</ele>
        <time>2016-06-05T12:33:27.924Z</time>
      </trkpt>
      <trkpt lat="14.42129" lon="-60.84996">
        <ele>9</ele>
        <time>2016-06-05T12:33:28.920Z</time>
      </trkpt>
      <trkpt lat="14.42127" lon="-60.84995">
        <ele>9</ele>
        <time>2016-06-05T12:33:29.921Z</time>
      </trkpt>
      <trkpt lat="14.42126" lon="-60.84994">
        <ele>9</ele>
        <time>2016-06-05T12:33:30.919Z</time>
      </trkpt>
      <trkpt lat="14.42123" lon="-60.84994">
        <ele>8</ele>
        <time>2016-06-05T12:33:31.920Z</time>
      </trkpt>
      <trkpt lat="14.42121" lon="-60.84994">
        <ele>8</ele>
        <time>2016-06-05T12:33:32.923Z</time>
      </trkpt>
      <trkpt lat="14.42118" lon="-60.84993">
        <ele>8</ele>
        <time>2016-06-05T12:33:33.921Z</time>
      </trkpt>
      <trkpt lat="14.42115" lon="-60.84992">
        <ele>8</ele>
        <time>2016-06-05T12:33:34.921Z</time>
      </trkpt>
      <trkpt lat="14.42111" lon="-60.84991">
        <ele>7</ele>
        <time>2016-06-05T12:33:35.920Z</time>
      </trkpt>
      <trkpt lat="14.42108" lon="-60.8499">
        <ele>7</ele>
        <time>2016-06-05T12:33:36.917Z</time>
      </trkpt>
      <trkpt lat="14.42105" lon="-60.84989">
        <ele>7</ele>
        <time>2016-06-05T12:33:37.920Z</time>
      </trkpt>
      <trkpt lat="14.42102" lon="-60.84988">
        <ele>6</ele>
        <time>2016-06-05T12:33:38.917Z</time>
      </trkpt>
      <trkpt lat="14.42101" lon="-60.84987">
        <ele>5</ele>
        <time>2016-06-05T12:33:39.916Z</time>
      </trkpt>
      <trkpt lat="14.421" lon="-60.84987">
        <ele>5</ele>
        <time>2016-06-05T12:33:40.917Z</time>
      </trkpt>
      <trkpt lat="14.42098" lon="-60.84987">
        <ele>5</ele>
        <time>2016-06-05T12:33:41.917Z</time>
      </trkpt>
      <trkpt lat="14.42095" lon="-60.84989">
        <ele>5</ele>
        <time>2016-06-05T12:33:42.920Z</time>
      </trkpt>
      <trkpt lat="14.42093" lon="-60.8499">
        <ele>6</ele>
        <time>2016-06-05T12:33:43.920Z</time>
      </trkpt>
      <trkpt lat="14.4209" lon="-60.8499">
        <ele>6</ele>
        <time>2016-06-05T12:33:44.920Z</time>
      </trkpt>
      <trkpt lat="14.42088" lon="-60.84989">
        <ele>6</ele>
        <time>2016-06-05T12:33:45.921Z</time>
      </trkpt>
      <trkpt lat="14.42085" lon="-60.84989">
        <ele>6</ele>
        <time>2016-06-05T12:33:46.920Z</time>
      </trkpt>
      <trkpt lat="14.42083" lon="-60.84989">
        <ele>6</ele>
        <time>2016-06-05T12:33:47.921Z</time>
      </trkpt>
      <trkpt lat="14.42082" lon="-60.84989">
        <ele>6</ele>
        <time>2016-06-05T12:33:48.920Z</time>
      </trkpt>
      <trkpt lat="14.4208" lon="-60.84989">
        <ele>6</ele>
        <time>2016-06-05T12:33:49.920Z</time>
      </trkpt>
      <trkpt lat="14.42077" lon="-60.84989">
        <ele>7</ele>
        <time>2016-06-05T12:33:59.918Z</time>
      </trkpt>
      <trkpt lat="14.42075" lon="-60.84989">
        <ele>6</ele>
        <time>2016-06-05T12:34:01.922Z</time>
      </trkpt>
      <trkpt lat="14.42073" lon="-60.8499">
        <ele>6</ele>
        <time>2016-06-05T12:34:04.928Z</time>
      </trkpt>
      <trkpt lat="14.42071" lon="-60.8499">
        <ele>6</ele>
        <time>2016-06-05T12:34:06.927Z</time>
      </trkpt>
      <trkpt lat="14.42066" lon="-60.8499">
        <ele>5</ele>
        <time>2016-06-05T12:34:11.921Z</time>
      </trkpt>
      <trkpt lat="14.42065" lon="-60.8499">
        <ele>6</ele>
        <time>2016-06-05T12:34:12.929Z</time>
      </trkpt>
      <trkpt lat="14.42063" lon="-60.84989">
        <ele>6</ele>
        <time>2016-06-05T12:34:13.925Z</time>
      </trkpt>
      <trkpt lat="14.42061" lon="-60.8499">
        <ele>6</ele>
        <time>2016-06-05T12:34:15.927Z</time>
      </trkpt>
      <trkpt lat="14.42059" lon="-60.8499">
        <ele>6</ele>
        <time>2016-06-05T12:34:17.929Z</time>
      </trkpt>
      <trkpt lat="14.42058" lon="-60.84989">
        <ele>6</ele>
        <time>2016-06-05T12:34:18.923Z</time>
      </trkpt>
      <trkpt lat="14.42053" lon="-60.84988">
        <ele>7</ele>
        <time>2016-06-05T12:34:22.930Z</time>
      </trkpt>
      <trkpt lat="14.42051" lon="-60.84988">
        <ele>8</ele>
        <time>2016-06-05T12:34:23.930Z</time>
      </trkpt>
      <trkpt lat="14.42047" lon="-60.84989">
        <ele>8</ele>
        <time>2016-06-05T12:34:24.929Z</time>
      </trkpt>
      <trkpt lat="14.42045" lon="-60.84989">
        <ele>8</ele>
        <time>2016-06-05T12:34:25.928Z</time>
      </trkpt>
      <trkpt lat="14.42042" lon="-60.84989">
        <ele>8</ele>
        <time>2016-06-05T12:34:26.926Z</time>
      </trkpt>
      <trkpt lat="14.42039" lon="-60.84989">
        <ele>9</ele>
        <time>2016-06-05T12:34:27.931Z</time>
      </trkpt>
      <trkpt lat="14.42036" lon="-60.84989">
        <ele>9</ele>
        <time>2016-06-05T12:34:28.931Z</time>
      </trkpt>
      <trkpt lat="14.42034" lon="-60.8499">
        <ele>9</ele>
        <time>2016-06-05T12:34:29.926Z</time>
      </trkpt>
      <trkpt lat="14.42032" lon="-60.8499">
        <ele>8</ele>
        <time>2016-06-05T12:34:30.921Z</time>
      </trkpt>
      <trkpt lat="14.4203" lon="-60.84991">
        <ele>8</ele>
        <time>2016-06-05T12:34:31.920Z</time>
      </trkpt>
      <trkpt lat="14.42028" lon="-60.84992">
        <ele>7</ele>
        <time>2016-06-05T12:34:32.920Z</time>
      </trkpt>
      <trkpt lat="14.42026" lon="-60.84994">
        <ele>8</ele>
        <time>2016-06-05T12:34:33.922Z</time>
      </trkpt>
      <trkpt lat="14.42024" lon="-60.84995">
        <ele>8</ele>
        <time>2016-06-05T12:34:34.922Z</time>
      </trkpt>
      <trkpt lat="14.42023" lon="-60.84997">
        <ele>7</ele>
        <time>2016-06-05T12:34:35.923Z</time>
      </trkpt>
      <trkpt lat="14.42023" lon="-60.84999">
        <ele>7</ele>
        <time>2016-06-05T12:34:36.930Z</time>
      </trkpt>
      <trkpt lat="14.42023" lon="-60.85002">
        <ele>7</ele>
        <time>2016-06-05T12:34:37.925Z</time>
      </trkpt>
      <trkpt lat="14.42024" lon="-60.85005">
        <ele>8</ele>
        <time>2016-06-05T12:34:38.929Z</time>
      </trkpt>
      <trkpt lat="14.42025" lon="-60.85008">
        <ele>9</ele>
        <time>2016-06-05T12:34:39.922Z</time>
      </trkpt>
      <trkpt lat="14.42025" lon="-60.8501">
        <ele>9</ele>
        <time>2016-06-05T12:34:40.921Z</time>
      </trkpt>
      <trkpt lat="14.42025" lon="-60.85012">
        <ele>9</ele>
        <time>2016-06-05T12:34:41.920Z</time>
      </trkpt>
      <trkpt lat="14.42026" lon="-60.85014">
        <ele>9</ele>
        <time>2016-06-05T12:34:42.923Z</time>
      </trkpt>
      <trkpt lat="14.42023" lon="-60.85016">
        <ele>8</ele>
        <time>2016-06-05T12:34:47.922Z</time>
      </trkpt>
      <trkpt lat="14.4202" lon="-60.85016">
        <ele>8</ele>
        <time>2016-06-05T12:34:49.927Z</time>
      </trkpt>
      <trkpt lat="14.42018" lon="-60.85016">
        <ele>9</ele>
        <time>2016-06-05T12:34:50.922Z</time>
      </trkpt>
      <trkpt lat="14.4202" lon="-60.85018">
        <ele>9</ele>
        <time>2016-06-05T12:34:51.923Z</time>
      </trkpt>
      <trkpt lat="14.42016" lon="-60.85023">
        <ele>8</ele>
        <time>2016-06-05T12:34:59.919Z</time>
      </trkpt>
      <trkpt lat="14.42013" lon="-60.85023">
        <ele>5</ele>
        <time>2016-06-05T12:35:01.922Z</time>
      </trkpt>
      <trkpt lat="14.42012" lon="-60.85023">
        <ele>6</ele>
        <time>2016-06-05T12:35:03.919Z</time>
      </trkpt>
      <trkpt lat="14.42009" lon="-60.85023">
        <ele>6</ele>
        <time>2016-06-05T12:35:05.919Z</time>
      </trkpt>
      <trkpt lat="14.42008" lon="-60.85022">
        <ele>4</ele>
        <time>2016-06-05T12:35:09.918Z</time>
      </trkpt>
      <trkpt lat="14.42002" lon="-60.85022">
        <ele>2</ele>
        <time>2016-06-05T12:35:15.917Z</time>
      </trkpt>
      <trkpt lat="14.42" lon="-60.85021">
        <ele>2</ele>
        <time>2016-06-05T12:35:17.924Z</time>
      </trkpt>
      <trkpt lat="14.41996" lon="-60.8502">
        <ele>2</ele>
        <time>2016-06-05T12:35:22.919Z</time>
      </trkpt>
      <trkpt lat="14.41994" lon="-60.8502">
        <ele>2</ele>
        <time>2016-06-05T12:35:23.919Z</time>
      </trkpt>
      <trkpt lat="14.41992" lon="-60.8502">
        <ele>1</ele>
        <time>2016-06-05T12:35:24.919Z</time>
      </trkpt>
      <trkpt lat="14.4199" lon="-60.85021">
        <time>2016-06-05T12:35:25.920Z</time>
      </trkpt>
      <trkpt lat="14.41987" lon="-60.85021">
        <ele>1</ele>
        <time>2016-06-05T12:35:26.920Z</time>
      </trkpt>
      <trkpt lat="14.41985" lon="-60.8502">
        <ele>1</ele>
        <time>2016-06-05T12:35:27.918Z</time>
      </trkpt>
      <trkpt lat="14.41983" lon="-60.8502">
        <ele>1</ele>
        <time>2016-06-05T12:35:28.916Z</time>
      </trkpt>
      <trkpt lat="14.4198" lon="-60.8502">
        <ele>2</ele>
        <time>2016-06-05T12:35:29.926Z</time>
      </trkpt>
      <trkpt lat="14.41977" lon="-60.8502">
        <ele>2</ele>
        <time>2016-06-05T12:35:30.927Z</time>
      </trkpt>
      <trkpt lat="14.41974" lon="-60.8502">
        <ele>2</ele>
        <time>2016-06-05T12:35:31.929Z</time>
      </trkpt>
      <trkpt lat="14.41972" lon="-60.8502">
        <ele>2</ele>
        <time>2016-06-05T12:35:32.925Z</time>
      </trkpt>
      <trkpt lat="14.41969" lon="-60.8502">
        <ele>2</ele>
        <time>2016-06-05T12:35:33.919Z</time>
      </trkpt>
      <trkpt lat="14.41967" lon="-60.85019">
        <ele>2</ele>
        <time>2016-06-05T12:35:34.917Z</time>
      </trkpt>
      <trkpt lat="14.41965" lon="-60.85018">
        <ele>3</ele>
        <time>2016-06-05T12:35:35.921Z</time>
      </trkpt>
      <trkpt lat="14.41962" lon="-60.85017">
        <ele>4</ele>
        <time>2016-06-05T12:35:36.923Z</time>
      </trkpt>
      <trkpt lat="14.41961" lon="-60.85016">
        <ele>5</ele>
        <time>2016-06-05T12:35:37.922Z</time>
      </trkpt>
      <trkpt lat="14.4196" lon="-60.85015">
        <ele>6</ele>
        <time>2016-06-05T12:35:38.919Z</time>
      </trkpt>
      <trkpt lat="14.41958" lon="-60.85013">
        <ele>6</ele>
        <time>2016-06-05T12:35:39.924Z</time>
      </trkpt>
      <trkpt lat="14.41956" lon="-60.85011">
        <ele>7</ele>
        <time>2016-06-05T12:35:40.924Z</time>
      </trkpt>
      <trkpt lat="14.41954" lon="-60.85008">
        <ele>7</ele>
        <time>2016-06-05T12:35:41.922Z</time>
      </trkpt>
      <trkpt lat="14.41952" lon="-60.85005">
        <ele>7</ele>
        <time>2016-06-05T12:35:42.920Z</time>
      </trkpt>
      <trkpt lat="14.4195" lon="-60.85003">
        <ele>7</ele>
        <time>2016-06-05T12:35:43.918Z</time>
      </trkpt>
      <trkpt lat="14.41948" lon="-60.85001">
        <ele>8</ele>
        <time>2016-06-05T12:35:44.919Z</time>
      </trkpt>
      <trkpt lat="14.41946" lon="-60.84999">
        <ele>8</ele>
        <time>2016-06-05T12:35:45.921Z</time>
      </trkpt>
      <trkpt lat="14.41946" lon="-60.84998">
        <ele>8</ele>
        <time>2016-06-05T12:35:46.921Z</time>
      </trkpt>
      <trkpt lat="14.41945" lon="-60.84996">
        <ele>9</ele>
        <time>2016-06-05T12:35:48.924Z</time>
      </trkpt>
      <trkpt lat="14.41943" lon="-60.84994">
        <ele>9</ele>
        <time>2016-06-05T12:35:50.925Z</time>
      </trkpt>
      <trkpt lat="14.4194" lon="-60.84993">
        <ele>10</ele>
        <time>2016-06-05T12:35:52.950Z</time>
      </trkpt>
      <trkpt lat="14.41938" lon="-60.84994">
        <ele>11</ele>
        <time>2016-06-05T12:35:53.947Z</time>
      </trkpt>
      <trkpt lat="14.41935" lon="-60.84992">
        <ele>11</ele>
        <time>2016-06-05T12:35:54.922Z</time>
      </trkpt>
      <trkpt lat="14.41932" lon="-60.84991">
        <ele>11</ele>
        <time>2016-06-05T12:35:55.925Z</time>
      </trkpt>
      <trkpt lat="14.41929" lon="-60.84989">
        <ele>11</ele>
        <time>2016-06-05T12:35:56.921Z</time>
      </trkpt>
      <trkpt lat="14.41926" lon="-60.84988">
        <ele>11</ele>
        <time>2016-06-05T12:35:57.927Z</time>
      </trkpt>
      <trkpt lat="14.41924" lon="-60.84987">
        <ele>10</ele>
        <time>2016-06-05T12:35:58.920Z</time>
      </trkpt>
      <trkpt lat="14.41922" lon="-60.84986">
        <ele>10</ele>
        <time>2016-06-05T12:35:59.919Z</time>
      </trkpt>
      <trkpt lat="14.41919" lon="-60.84986">
        <ele>9</ele>
        <time>2016-06-05T12:36:00.927Z</time>
      </trkpt>
      <trkpt lat="14.41916" lon="-60.84985">
        <ele>9</ele>
        <time>2016-06-05T12:36:01.921Z</time>
      </trkpt>
      <trkpt lat="14.41913" lon="-60.84985">
        <ele>9</ele>
        <time>2016-06-05T12:36:02.920Z</time>
      </trkpt>
      <trkpt lat="14.41912" lon="-60.84984">
        <ele>9</ele>
        <time>2016-06-05T12:36:03.930Z</time>
      </trkpt>
      <trkpt lat="14.4191" lon="-60.84984">
        <ele>8</ele>
        <time>2016-06-05T12:36:04.927Z</time>
      </trkpt>
      <trkpt lat="14.41906" lon="-60.84982">
        <ele>8</ele>
        <time>2016-06-05T12:36:05.922Z</time>
      </trkpt>
      <trkpt lat="14.41903" lon="-60.84981">
        <ele>8</ele>
        <time>2016-06-05T12:36:06.920Z</time>
      </trkpt>
      <trkpt lat="14.41899" lon="-60.84979">
        <ele>8</ele>
        <time>2016-06-05T12:36:07.921Z</time>
      </trkpt>
      <trkpt lat="14.41895" lon="-60.84979">
        <ele>9</ele>
        <time>2016-06-05T12:36:08.921Z</time>
      </trkpt>
      <trkpt lat="14.41893" lon="-60.84977">
        <ele>9</ele>
        <time>2016-06-05T12:36:09.924Z</time>
      </trkpt>
      <trkpt lat="14.4189" lon="-60.84975">
        <ele>9</ele>
        <time>2016-06-05T12:36:10.921Z</time>
      </trkpt>
      <trkpt lat="14.41888" lon="-60.84974">
        <ele>10</ele>
        <time>2016-06-05T12:36:11.925Z</time>
      </trkpt>
      <trkpt lat="14.41886" lon="-60.84971">
        <ele>11</ele>
        <time>2016-06-05T12:36:12.930Z</time>
      </trkpt>
      <trkpt lat="14.41885" lon="-60.8497">
        <ele>10</ele>
        <time>2016-06-05T12:36:13.921Z</time>
      </trkpt>
      <trkpt lat="14.41884" lon="-60.84968">
        <ele>11</ele>
        <time>2016-06-05T12:36:15.924Z</time>
      </trkpt>
      <trkpt lat="14.41884" lon="-60.84966">
        <ele>11</ele>
        <time>2016-06-05T12:36:16.924Z</time>
      </trkpt>
      <trkpt lat="14.41884" lon="-60.84964">
        <ele>12</ele>
        <time>2016-06-05T12:36:17.924Z</time>
      </trkpt>
      <trkpt lat="14.41886" lon="-60.84961">
        <ele>11</ele>
        <time>2016-06-05T12:36:18.923Z</time>
      </trkpt>
      <trkpt lat="14.41887" lon="-60.84958">
        <ele>10</ele>
        <time>2016-06-05T12:36:19.920Z</time>
      </trkpt>
      <trkpt lat="14.41888" lon="-60.84956">
        <ele>10</ele>
        <time>2016-06-05T12:36:20.918Z</time>
      </trkpt>
      <trkpt lat="14.41888" lon="-60.84954">
        <ele>10</ele>
        <time>2016-06-05T12:36:21.919Z</time>
      </trkpt>
      <trkpt lat="14.41889" lon="-60.84952">
        <ele>9</ele>
        <time>2016-06-05T12:36:22.919Z</time>
      </trkpt>
      <trkpt lat="14.41889" lon="-60.8495">
        <ele>9</ele>
        <time>2016-06-05T12:36:23.918Z</time>
      </trkpt>
      <trkpt lat="14.4189" lon="-60.84948">
        <ele>9</ele>
        <time>2016-06-05T12:36:24.919Z</time>
      </trkpt>
      <trkpt lat="14.41891" lon="-60.84945">
        <ele>9</ele>
        <time>2016-06-05T12:36:25.917Z</time>
      </trkpt>
      <trkpt lat="14.41891" lon="-60.84943">
        <ele>8</ele>
        <time>2016-06-05T12:36:26.915Z</time>
      </trkpt>
      <trkpt lat="14.41894" lon="-60.84941">
        <ele>8</ele>
        <time>2016-06-05T12:36:27.917Z</time>
      </trkpt>
      <trkpt lat="14.41896" lon="-60.84939">
        <ele>8</ele>
        <time>2016-06-05T12:36:28.920Z</time>
      </trkpt>
      <trkpt lat="14.41896" lon="-60.84936">
        <ele>7</ele>
        <time>2016-06-05T12:36:29.917Z</time>
      </trkpt>
      <trkpt lat="14.41896" lon="-60.84933">
        <ele>8</ele>
        <time>2016-06-05T12:36:30.919Z</time>
      </trkpt>
      <trkpt lat="14.41896" lon="-60.84931">
        <ele>9</ele>
        <time>2016-06-05T12:36:31.918Z</time>
      </trkpt>
      <trkpt lat="14.41898" lon="-60.8493">
        <ele>9</ele>
        <time>2016-06-05T12:36:32.921Z</time>
      </trkpt>
      <trkpt lat="14.41898" lon="-60.84928">
        <ele>9</ele>
        <time>2016-06-05T12:36:33.920Z</time>
      </trkpt>
      <trkpt lat="14.41899" lon="-60.84926">
        <ele>9</ele>
        <time>2016-06-05T12:36:34.918Z</time>
      </trkpt>
      <trkpt lat="14.419" lon="-60.84924">
        <ele>9</ele>
        <time>2016-06-05T12:36:35.917Z</time>
      </trkpt>
      <trkpt lat="14.419" lon="-60.84923">
        <ele>9</ele>
        <time>2016-06-05T12:36:36.918Z</time>
      </trkpt>
      <trkpt lat="14.419" lon="-60.84921">
        <ele>10</ele>
        <time>2016-06-05T12:36:37.917Z</time>
      </trkpt>
      <trkpt lat="14.41901" lon="-60.8492">
        <ele>10</ele>
        <time>2016-06-05T12:36:38.914Z</time>
      </trkpt>
      <trkpt lat="14.41902" lon="-60.84918">
        <ele>10</ele>
        <time>2016-06-05T12:36:39.921Z</time>
      </trkpt>
      <trkpt lat="14.41902" lon="-60.84917">
        <ele>10</ele>
        <time>2016-06-05T12:36:40.919Z</time>
      </trkpt>
      <trkpt lat="14.41903" lon="-60.84915">
        <ele>10</ele>
        <time>2016-06-05T12:36:41.918Z</time>
      </trkpt>
      <trkpt lat="14.41903" lon="-60.84913">
        <ele>10</ele>
        <time>2016-06-05T12:36:42.918Z</time>
      </trkpt>
      <trkpt lat="14.41904" lon="-60.84912">
        <ele>10</ele>
        <time>2016-06-05T12:36:43.918Z</time>
      </trkpt>
      <trkpt lat="14.41904" lon="-60.84909">
        <ele>10</ele>
        <time>2016-06-05T12:36:44.917Z</time>
      </trkpt>
      <trkpt lat="14.41905" lon="-60.84907">
        <ele>9</ele>
        <time>2016-06-05T12:36:45.920Z</time>
      </trkpt>
      <trkpt lat="14.41905" lon="-60.84907">
        <ele>9</ele>
        <time>2016-06-05T12:36:50.412Z</time>
      </trkpt>
      <trkpt lat="14.41906" lon="-60.84903">
        <ele>10</ele>
        <time>2016-06-05T12:37:06.918Z</time>
      </trkpt>
      <trkpt lat="14.41907" lon="-60.849">
        <ele>11</ele>
        <time>2016-06-05T12:37:08.918Z</time>
      </trkpt>
      <trkpt lat="14.41908" lon="-60.84896">
        <ele>11</ele>
        <time>2016-06-05T12:37:09.918Z</time>
      </trkpt>
      <trkpt lat="14.41909" lon="-60.84892">
        <ele>11</ele>
        <time>2016-06-05T12:37:10.919Z</time>
      </trkpt>
      <trkpt lat="14.41911" lon="-60.8489">
        <ele>11</ele>
        <time>2016-06-05T12:37:11.921Z</time>
      </trkpt>
      <trkpt lat="14.41913" lon="-60.84887">
        <ele>9</ele>
        <time>2016-06-05T12:37:12.919Z</time>
      </trkpt>
      <trkpt lat="14.41915" lon="-60.84883">
        <ele>9</ele>
        <time>2016-06-05T12:37:13.918Z</time>
      </trkpt>
      <trkpt lat="14.41917" lon="-60.8488">
        <ele>9</ele>
        <time>2016-06-05T12:37:14.920Z</time>
      </trkpt>
      <trkpt lat="14.41916" lon="-60.84876">
        <ele>8</ele>
        <time>2016-06-05T12:37:15.921Z</time>
      </trkpt>
      <trkpt lat="14.41915" lon="-60.84872">
        <ele>8</ele>
        <time>2016-06-05T12:37:16.919Z</time>
      </trkpt>
      <trkpt lat="14.41913" lon="-60.84868">
        <ele>8</ele>
        <time>2016-06-05T12:37:17.919Z</time>
      </trkpt>
      <trkpt lat="14.4191" lon="-60.84864">
        <ele>8</ele>
        <time>2016-06-05T12:37:18.920Z</time>
      </trkpt>
      <trkpt lat="14.41908" lon="-60.84861">
        <ele>8</ele>
        <time>2016-06-05T12:37:19.919Z</time>
      </trkpt>
      <trkpt lat="14.41907" lon="-60.84857">
        <ele>8</ele>
        <time>2016-06-05T12:37:20.921Z</time>
      </trkpt>
      <trkpt lat="14.41905" lon="-60.84853">
        <ele>9</ele>
        <time>2016-06-05T12:37:21.919Z</time>
      </trkpt>
      <trkpt lat="14.41904" lon="-60.84849">
        <ele>8</ele>
        <time>2016-06-05T12:37:22.920Z</time>
      </trkpt>
      <trkpt lat="14.41902" lon="-60.84846">
        <ele>9</ele>
        <time>2016-06-05T12:37:23.920Z</time>
      </trkpt>
      <trkpt lat="14.419" lon="-60.84842">
        <ele>8</ele>
        <time>2016-06-05T12:37:24.919Z</time>
      </trkpt>
      <trkpt lat="14.41898" lon="-60.84838">
        <ele>8</ele>
        <time>2016-06-05T12:37:25.920Z</time>
      </trkpt>
      <trkpt lat="14.41896" lon="-60.84834">
        <ele>7</ele>
        <time>2016-06-05T12:37:26.919Z</time>
      </trkpt>
      <trkpt lat="14.41894" lon="-60.8483">
        <ele>7</ele>
        <time>2016-06-05T12:37:27.920Z</time>
      </trkpt>
      <trkpt lat="14.41892" lon="-60.84825">
        <ele>8</ele>
        <time>2016-06-05T12:37:28.920Z</time>
      </trkpt>
      <trkpt lat="14.41891" lon="-60.84821">
        <ele>7</ele>
        <time>2016-06-05T12:37:29.919Z</time>
      </trkpt>
      <trkpt lat="14.41891" lon="-60.84817">
        <ele>8</ele>
        <time>2016-06-05T12:37:30.917Z</time>
      </trkpt>
      <trkpt lat="14.4189" lon="-60.84814">
        <ele>9</ele>
        <time>2016-06-05T12:37:31.918Z</time>
      </trkpt>
      <trkpt lat="14.4189" lon="-60.8481">
        <ele>8</ele>
        <time>2016-06-05T12:37:32.920Z</time>
      </trkpt>
      <trkpt lat="14.41889" lon="-60.84808">
        <ele>8</ele>
        <time>2016-06-05T12:37:33.926Z</time>
      </trkpt>
      <trkpt lat="14.41889" lon="-60.84805">
        <ele>8</ele>
        <time>2016-06-05T12:37:34.924Z</time>
      </trkpt>
      <trkpt lat="14.41887" lon="-60.84803">
        <ele>7</ele>
        <time>2016-06-05T12:37:35.921Z</time>
      </trkpt>
      <trkpt lat="14.41886" lon="-60.84802">
        <ele>7</ele>
        <time>2016-06-05T12:37:36.920Z</time>
      </trkpt>
      <trkpt lat="14.41884" lon="-60.84801">
        <ele>7</ele>
        <time>2016-06-05T12:37:37.923Z</time>
      </trkpt>
      <trkpt lat="14.41883" lon="-60.84797">
        <ele>5</ele>
        <time>2016-06-05T12:37:38.924Z</time>
      </trkpt>
      <trkpt lat="14.41883" lon="-60.84794">
        <ele>4</ele>
        <time>2016-06-05T12:37:39.929Z</time>
      </trkpt>
      <trkpt lat="14.41882" lon="-60.8479">
        <ele>3</ele>
        <time>2016-06-05T12:37:40.929Z</time>
      </trkpt>
      <trkpt lat="14.41882" lon="-60.84786">
        <ele>4</ele>
        <time>2016-06-05T12:37:41.932Z</time>
      </trkpt>
      <trkpt lat="14.41881" lon="-60.84784">
        <ele>4</ele>
        <time>2016-06-05T12:37:42.926Z</time>
      </trkpt>
      <trkpt lat="14.4188" lon="-60.84781">
        <ele>4</ele>
        <time>2016-06-05T12:37:43.922Z</time>
      </trkpt>
      <trkpt lat="14.41878" lon="-60.84777">
        <ele>4</ele>
        <time>2016-06-05T12:37:45.925Z</time>
      </trkpt>
      <trkpt lat="14.41878" lon="-60.84774">
        <ele>4</ele>
        <time>2016-06-05T12:37:46.926Z</time>
      </trkpt>
      <trkpt lat="14.41878" lon="-60.8477">
        <ele>4</ele>
        <time>2016-06-05T12:37:47.926Z</time>
      </trkpt>
      <trkpt lat="14.41877" lon="-60.84768">
        <ele>5</ele>
        <time>2016-06-05T12:37:48.927Z</time>
      </trkpt>
      <trkpt lat="14.41877" lon="-60.84764">
        <ele>2</ele>
        <time>2016-06-05T12:37:49.919Z</time>
      </trkpt>
      <trkpt lat="14.41876" lon="-60.84761">
        <ele>2</ele>
        <time>2016-06-05T12:37:50.916Z</time>
      </trkpt>
      <trkpt lat="14.41877" lon="-60.84758">
        <ele>2</ele>
        <time>2016-06-05T12:37:51.920Z</time>
      </trkpt>
      <trkpt lat="14.41876" lon="-60.84755">
        <ele>2</ele>
        <time>2016-06-05T12:37:52.918Z</time>
      </trkpt>
      <trkpt lat="14.41875" lon="-60.84753">
        <ele>2</ele>
        <time>2016-06-05T12:37:53.918Z</time>
      </trkpt>
      <trkpt lat="14.41874" lon="-60.8475">
        <ele>2</ele>
        <time>2016-06-05T12:37:54.914Z</time>
      </trkpt>
      <trkpt lat="14.41874" lon="-60.84748">
        <ele>4</ele>
        <time>2016-06-05T12:37:55.914Z</time>
      </trkpt>
      <trkpt lat="14.41873" lon="-60.84745">
        <ele>4</ele>
        <time>2016-06-05T12:37:56.915Z</time>
      </trkpt>
      <trkpt lat="14.41874" lon="-60.84742">
        <ele>4</ele>
        <time>2016-06-05T12:37:57.918Z</time>
      </trkpt>
      <trkpt lat="14.41873" lon="-60.8474">
        <ele>4</ele>
        <time>2016-06-05T12:37:58.919Z</time>
      </trkpt>
      <trkpt lat="14.41874" lon="-60.84738">
        <ele>5</ele>
        <time>2016-06-05T12:37:59.916Z</time>
      </trkpt>
      <trkpt lat="14.41874" lon="-60.84736">
        <ele>5</ele>
        <time>2016-06-05T12:38:00.915Z</time>
      </trkpt>
      <trkpt lat="14.41874" lon="-60.84734">
        <ele>4</ele>
        <time>2016-06-05T12:38:01.914Z</time>
      </trkpt>
      <trkpt lat="14.41875" lon="-60.84732">
        <ele>5</ele>
        <time>2016-06-05T12:38:02.919Z</time>
      </trkpt>
      <trkpt lat="14.41875" lon="-60.8473">
        <ele>5</ele>
        <time>2016-06-05T12:38:03.919Z</time>
      </trkpt>
      <trkpt lat="14.41875" lon="-60.84728">
        <ele>5</ele>
        <time>2016-06-05T12:38:04.923Z</time>
      </trkpt>
      <trkpt lat="14.41875" lon="-60.84725">
        <ele>5</ele>
        <time>2016-06-05T12:38:05.918Z</time>
      </trkpt>
      <trkpt lat="14.41876" lon="-60.84723">
        <ele>5</ele>
        <time>2016-06-05T12:38:06.917Z</time>
      </trkpt>
      <trkpt lat="14.41878" lon="-60.84721">
        <ele>5</ele>
        <time>2016-06-05T12:38:07.915Z</time>
      </trkpt>
      <trkpt lat="14.4188" lon="-60.84717">
        <ele>5</ele>
        <time>2016-06-05T12:38:08.914Z</time>
      </trkpt>
      <trkpt lat="14.41887" lon="-60.84714">
        <ele>4</ele>
        <time>2016-06-05T12:38:09.917Z</time>
      </trkpt>
      <trkpt lat="14.41889" lon="-60.84709">
        <ele>3</ele>
        <time>2016-06-05T12:38:10.919Z</time>
      </trkpt>
      <trkpt lat="14.41892" lon="-60.84705">
        <ele>3</ele>
        <time>2016-06-05T12:38:11.921Z</time>
      </trkpt>
      <trkpt lat="14.41896" lon="-60.84701">
        <ele>4</ele>
        <time>2016-06-05T12:38:12.920Z</time>
      </trkpt>
      <trkpt lat="14.41897" lon="-60.84697">
        <ele>4</ele>
        <time>2016-06-05T12:38:13.922Z</time>
      </trkpt>
      <trkpt lat="14.41897" lon="-60.84692">
        <ele>5</ele>
        <time>2016-06-05T12:38:14.922Z</time>
      </trkpt>
      <trkpt lat="14.41897" lon="-60.84689">
        <ele>6</ele>
        <time>2016-06-05T12:38:15.921Z</time>
      </trkpt>
      <trkpt lat="14.41897" lon="-60.84686">
        <ele>6</ele>
        <time>2016-06-05T12:38:16.921Z</time>
      </trkpt>
      <trkpt lat="14.41897" lon="-60.84682">
        <ele>6</ele>
        <time>2016-06-05T12:38:17.920Z</time>
      </trkpt>
      <trkpt lat="14.41897" lon="-60.84679">
        <ele>6</ele>
        <time>2016-06-05T12:38:18.920Z</time>
      </trkpt>
      <trkpt lat="14.41897" lon="-60.84676">
        <ele>6</ele>
        <time>2016-06-05T12:38:19.923Z</time>
      </trkpt>
      <trkpt lat="14.41896" lon="-60.84673">
        <ele>6</ele>
        <time>2016-06-05T12:38:20.925Z</time>
      </trkpt>
      <trkpt lat="14.41896" lon="-60.8467">
        <ele>6</ele>
        <time>2016-06-05T12:38:21.919Z</time>
      </trkpt>
      <trkpt lat="14.41897" lon="-60.84666">
        <ele>6</ele>
        <time>2016-06-05T12:38:22.917Z</time>
      </trkpt>
      <trkpt lat="14.41897" lon="-60.84663">
        <ele>6</ele>
        <time>2016-06-05T12:38:23.916Z</time>
      </trkpt>
      <trkpt lat="14.41898" lon="-60.84659">
        <ele>6</ele>
        <time>2016-06-05T12:38:24.916Z</time>
      </trkpt>
      <trkpt lat="14.41899" lon="-60.84655">
        <ele>6</ele>
        <time>2016-06-05T12:38:25.918Z</time>
      </trkpt>
      <trkpt lat="14.419" lon="-60.84651">
        <ele>6</ele>
        <time>2016-06-05T12:38:26.917Z</time>
      </trkpt>
      <trkpt lat="14.41901" lon="-60.84648">
        <ele>6</ele>
        <time>2016-06-05T12:38:27.920Z</time>
      </trkpt>
      <trkpt lat="14.41902" lon="-60.84644">
        <ele>6</ele>
        <time>2016-06-05T12:38:28.918Z</time>
      </trkpt>
      <trkpt lat="14.41902" lon="-60.8464">
        <ele>6</ele>
        <time>2016-06-05T12:38:29.919Z</time>
      </trkpt>
      <trkpt lat="14.41903" lon="-60.84636">
        <ele>6</ele>
        <time>2016-06-05T12:38:30.919Z</time>
      </trkpt>
      <trkpt lat="14.41904" lon="-60.84632">
        <ele>7</ele>
        <time>2016-06-05T12:38:31.920Z</time>
      </trkpt>
      <trkpt lat="14.41905" lon="-60.84629">
        <ele>8</ele>
        <time>2016-06-05T12:38:32.920Z</time>
      </trkpt>
      <trkpt lat="14.41906" lon="-60.84625">
        <ele>7</ele>
        <time>2016-06-05T12:38:33.920Z</time>
      </trkpt>
      <trkpt lat="14.41907" lon="-60.84621">
        <ele>8</ele>
        <time>2016-06-05T12:38:34.919Z</time>
      </trkpt>
      <trkpt lat="14.41908" lon="-60.84618">
        <ele>8</ele>
        <time>2016-06-05T12:38:35.915Z</time>
      </trkpt>
      <trkpt lat="14.41908" lon="-60.84614">
        <ele>8</ele>
        <time>2016-06-05T12:38:36.914Z</time>
      </trkpt>
      <trkpt lat="14.41909" lon="-60.84611">
        <ele>7</ele>
        <time>2016-06-05T12:38:37.916Z</time>
      </trkpt>
      <trkpt lat="14.4191" lon="-60.84608">
        <ele>8</ele>
        <time>2016-06-05T12:38:38.915Z</time>
      </trkpt>
      <trkpt lat="14.41912" lon="-60.84605">
        <ele>8</ele>
        <time>2016-06-05T12:38:39.918Z</time>
      </trkpt>
      <trkpt lat="14.41914" lon="-60.84602">
        <ele>7</ele>
        <time>2016-06-05T12:38:40.917Z</time>
      </trkpt>
      <trkpt lat="14.41917" lon="-60.84599">
        <ele>7</ele>
        <time>2016-06-05T12:38:41.916Z</time>
      </trkpt>
      <trkpt lat="14.41918" lon="-60.84595">
        <ele>8</ele>
        <time>2016-06-05T12:38:42.916Z</time>
      </trkpt>
      <trkpt lat="14.4192" lon="-60.84592">
        <ele>8</ele>
        <time>2016-06-05T12:38:43.918Z</time>
      </trkpt>
      <trkpt lat="14.41922" lon="-60.84588">
        <ele>7</ele>
        <time>2016-06-05T12:38:44.921Z</time>
      </trkpt>
      <trkpt lat="14.41925" lon="-60.84587">
        <ele>6</ele>
        <time>2016-06-05T12:38:45.915Z</time>
      </trkpt>
      <trkpt lat="14.41926" lon="-60.84585">
        <ele>5</ele>
        <time>2016-06-05T12:38:46.915Z</time>
      </trkpt>
      <trkpt lat="14.41928" lon="-60.84583">
        <ele>5</ele>
        <time>2016-06-05T12:38:47.917Z</time>
      </trkpt>
      <trkpt lat="14.41932" lon="-60.8458">
        <ele>6</ele>
        <time>2016-06-05T12:38:48.922Z</time>
      </trkpt>
      <trkpt lat="14.41934" lon="-60.84578">
        <ele>6</ele>
        <time>2016-06-05T12:38:49.921Z</time>
      </trkpt>
      <trkpt lat="14.41937" lon="-60.84576">
        <ele>5</ele>
        <time>2016-06-05T12:38:50.918Z</time>
      </trkpt>
      <trkpt lat="14.41939" lon="-60.84573">
        <ele>5</ele>
        <time>2016-06-05T12:38:51.916Z</time>
      </trkpt>
      <trkpt lat="14.41941" lon="-60.84571">
        <ele>5</ele>
        <time>2016-06-05T12:38:52.916Z</time>
      </trkpt>
      <trkpt lat="14.41943" lon="-60.84569">
        <ele>5</ele>
        <time>2016-06-05T12:38:53.916Z</time>
      </trkpt>
      <trkpt lat="14.41945" lon="-60.84566">
        <ele>6</ele>
        <time>2016-06-05T12:38:54.916Z</time>
      </trkpt>
      <trkpt lat="14.41946" lon="-60.84563">
        <ele>6</ele>
        <time>2016-06-05T12:38:55.918Z</time>
      </trkpt>
      <trkpt lat="14.41948" lon="-60.8456">
        <ele>6</ele>
        <time>2016-06-05T12:38:56.919Z</time>
      </trkpt>
      <trkpt lat="14.41951" lon="-60.84558">
        <ele>6</ele>
        <time>2016-06-05T12:38:57.921Z</time>
      </trkpt>
      <trkpt lat="14.41952" lon="-60.84556">
        <ele>6</ele>
        <time>2016-06-05T12:38:58.919Z</time>
      </trkpt>
      <trkpt lat="14.41953" lon="-60.84554">
        <ele>6</ele>
        <time>2016-06-05T12:38:59.922Z</time>
      </trkpt>
      <trkpt lat="14.41955" lon="-60.84552">
        <ele>6</ele>
        <time>2016-06-05T12:39:00.920Z</time>
      </trkpt>
      <trkpt lat="14.41957" lon="-60.8455">
        <ele>8</ele>
        <time>2016-06-05T12:39:01.919Z</time>
      </trkpt>
      <trkpt lat="14.41959" lon="-60.84548">
        <ele>8</ele>
        <time>2016-06-05T12:39:02.919Z</time>
      </trkpt>
      <trkpt lat="14.41961" lon="-60.84546">
        <ele>9</ele>
        <time>2016-06-05T12:39:03.921Z</time>
      </trkpt>
      <trkpt lat="14.41962" lon="-60.84544">
        <ele>9</ele>
        <time>2016-06-05T12:39:04.922Z</time>
      </trkpt>
      <trkpt lat="14.41963" lon="-60.84542">
        <ele>9</ele>
        <time>2016-06-05T12:39:05.921Z</time>
      </trkpt>
      <trkpt lat="14.41964" lon="-60.8454">
        <ele>10</ele>
        <time>2016-06-05T12:39:06.922Z</time>
      </trkpt>
      <trkpt lat="14.41966" lon="-60.84537">
        <ele>10</ele>
        <time>2016-06-05T12:39:07.921Z</time>
      </trkpt>
      <trkpt lat="14.41967" lon="-60.84535">
        <ele>10</ele>
        <time>2016-06-05T12:39:08.919Z</time>
      </trkpt>
      <trkpt lat="14.41969" lon="-60.84533">
        <ele>11</ele>
        <time>2016-06-05T12:39:09.919Z</time>
      </trkpt>
      <trkpt lat="14.41971" lon="-60.84531">
        <ele>11</ele>
        <time>2016-06-05T12:39:10.922Z</time>
      </trkpt>
      <trkpt lat="14.41972" lon="-60.84529">
        <ele>11</ele>
        <time>2016-06-05T12:39:11.919Z</time>
      </trkpt>
      <trkpt lat="14.41972" lon="-60.84527">
        <ele>11</ele>
        <time>2016-06-05T12:39:12.918Z</time>
      </trkpt>
      <trkpt lat="14.41973" lon="-60.84526">
        <ele>11</ele>
        <time>2016-06-05T12:39:13.922Z</time>
      </trkpt>
      <trkpt lat="14.41973" lon="-60.84524">
        <ele>11</ele>
        <time>2016-06-05T12:39:14.920Z</time>
      </trkpt>
      <trkpt lat="14.41974" lon="-60.84522">
        <ele>11</ele>
        <time>2016-06-05T12:39:15.916Z</time>
      </trkpt>
      <trkpt lat="14.41975" lon="-60.84519">
        <ele>10</ele>
        <time>2016-06-05T12:39:16.915Z</time>
      </trkpt>
      <trkpt lat="14.41977" lon="-60.84517">
        <ele>10</ele>
        <time>2016-06-05T12:39:17.913Z</time>
      </trkpt>
      <trkpt lat="14.41981" lon="-60.84514">
        <ele>11</ele>
        <time>2016-06-05T12:39:18.917Z</time>
      </trkpt>
      <trkpt lat="14.41983" lon="-60.84513">
        <ele>12</ele>
        <time>2016-06-05T12:39:19.918Z</time>
      </trkpt>
      <trkpt lat="14.41986" lon="-60.84512">
        <ele>12</ele>
        <time>2016-06-05T12:39:20.922Z</time>
      </trkpt>
      <trkpt lat="14.41988" lon="-60.84512">
        <ele>11</ele>
        <time>2016-06-05T12:39:21.923Z</time>
      </trkpt>
      <trkpt lat="14.4199" lon="-60.84512">
        <ele>11</ele>
        <time>2016-06-05T12:39:22.920Z</time>
      </trkpt>
      <trkpt lat="14.41992" lon="-60.84511">
        <ele>11</ele>
        <time>2016-06-05T12:39:23.919Z</time>
      </trkpt>
      <trkpt lat="14.41995" lon="-60.84511">
        <ele>11</ele>
        <time>2016-06-05T12:39:24.922Z</time>
      </trkpt>
      <trkpt lat="14.41997" lon="-60.84511">
        <ele>12</ele>
        <time>2016-06-05T12:39:25.919Z</time>
      </trkpt>
      <trkpt lat="14.42" lon="-60.8451">
        <ele>12</ele>
        <time>2016-06-05T12:39:26.918Z</time>
      </trkpt>
      <trkpt lat="14.42002" lon="-60.8451">
        <ele>12</ele>
        <time>2016-06-05T12:39:27.919Z</time>
      </trkpt>
      <trkpt lat="14.42004" lon="-60.8451">
        <ele>12</ele>
        <time>2016-06-05T12:39:28.920Z</time>
      </trkpt>
      <trkpt lat="14.42007" lon="-60.8451">
        <ele>12</ele>
        <time>2016-06-05T12:39:29.919Z</time>
      </trkpt>
      <trkpt lat="14.4201" lon="-60.84509">
        <ele>11</ele>
        <time>2016-06-05T12:39:30.919Z</time>
      </trkpt>
      <trkpt lat="14.42012" lon="-60.84508">
        <ele>11</ele>
        <time>2016-06-05T12:39:31.919Z</time>
      </trkpt>
      <trkpt lat="14.42015" lon="-60.84506">
        <ele>12</ele>
        <time>2016-06-05T12:39:32.921Z</time>
      </trkpt>
      <trkpt lat="14.42017" lon="-60.84505">
        <ele>12</ele>
        <time>2016-06-05T12:39:33.921Z</time>
      </trkpt>
      <trkpt lat="14.42019" lon="-60.84503">
        <ele>12</ele>
        <time>2016-06-05T12:39:34.922Z</time>
      </trkpt>
      <trkpt lat="14.42021" lon="-60.84501">
        <ele>11</ele>
        <time>2016-06-05T12:39:35.923Z</time>
      </trkpt>
      <trkpt lat="14.42023" lon="-60.845">
        <ele>12</ele>
        <time>2016-06-05T12:39:36.920Z</time>
      </trkpt>
      <trkpt lat="14.42024" lon="-60.84499">
        <ele>13</ele>
        <time>2016-06-05T12:39:37.919Z</time>
      </trkpt>
      <trkpt lat="14.42024" lon="-60.84495">
        <ele>14</ele>
        <time>2016-06-05T12:39:42.921Z</time>
      </trkpt>
      <trkpt lat="14.42025" lon="-60.84494">
        <ele>14</ele>
        <time>2016-06-05T12:39:43.920Z</time>
      </trkpt>
      <trkpt lat="14.42024" lon="-60.84493">
        <ele>13</ele>
        <time>2016-06-05T12:39:44.918Z</time>
      </trkpt>
      <trkpt lat="14.42025" lon="-60.8449">
        <ele>12</ele>
        <time>2016-06-05T12:39:46.916Z</time>
      </trkpt>
      <trkpt lat="14.42026" lon="-60.8449">
        <ele>13</ele>
        <time>2016-06-05T12:39:47.914Z</time>
      </trkpt>
      <trkpt lat="14.42026" lon="-60.84487">
        <ele>13</ele>
        <time>2016-06-05T12:39:49.921Z</time>
      </trkpt>
      <trkpt lat="14.42027" lon="-60.84485">
        <ele>14</ele>
        <time>2016-06-05T12:39:51.918Z</time>
      </trkpt>
      <trkpt lat="14.42028" lon="-60.84483">
        <ele>14</ele>
        <time>2016-06-05T12:39:53.923Z</time>
      </trkpt>
      <trkpt lat="14.42028" lon="-60.84481">
        <ele>16</ele>
        <time>2016-06-05T12:39:55.919Z</time>
      </trkpt>
      <trkpt lat="14.42029" lon="-60.84479">
        <ele>16</ele>
        <time>2016-06-05T12:39:57.918Z</time>
      </trkpt>
      <trkpt lat="14.4203" lon="-60.84478">
        <ele>16</ele>
        <time>2016-06-05T12:39:58.918Z</time>
      </trkpt>
      <trkpt lat="14.4203" lon="-60.84476">
        <ele>17</ele>
        <time>2016-06-05T12:39:59.926Z</time>
      </trkpt>
      <trkpt lat="14.42031" lon="-60.84474">
        <ele>17</ele>
        <time>2016-06-05T12:40:01.920Z</time>
      </trkpt>
      <trkpt lat="14.42031" lon="-60.84472">
        <ele>17</ele>
        <time>2016-06-05T12:40:03.921Z</time>
      </trkpt>
      <trkpt lat="14.42032" lon="-60.8447">
        <ele>18</ele>
        <time>2016-06-05T12:40:05.919Z</time>
      </trkpt>
      <trkpt lat="14.42033" lon="-60.84468">
        <ele>18</ele>
        <time>2016-06-05T12:40:07.921Z</time>
      </trkpt>
      <trkpt lat="14.42033" lon="-60.84465">
        <ele>18</ele>
        <time>2016-06-05T12:40:09.918Z</time>
      </trkpt>
      <trkpt lat="14.42034" lon="-60.84462">
        <ele>19</ele>
        <time>2016-06-05T12:40:11.914Z</time>
      </trkpt>
      <trkpt lat="14.42035" lon="-60.8446">
        <ele>19</ele>
        <time>2016-06-05T12:40:13.916Z</time>
      </trkpt>
      <trkpt lat="14.42036" lon="-60.84458">
        <ele>20</ele>
        <time>2016-06-05T12:40:15.914Z</time>
      </trkpt>
      <trkpt lat="14.42036" lon="-60.84456">
        <ele>20</ele>
        <time>2016-06-05T12:40:17.917Z</time>
      </trkpt>
      <trkpt lat="14.42036" lon="-60.84453">
        <ele>19</ele>
        <time>2016-06-05T12:40:19.913Z</time>
      </trkpt>
      <trkpt lat="14.42037" lon="-60.84451">
        <ele>21</ele>
        <time>2016-06-05T12:40:21.920Z</time>
      </trkpt>
      <trkpt lat="14.42037" lon="-60.84449">
        <ele>20</ele>
        <time>2016-06-05T12:40:23.919Z</time>
      </trkpt>
      <trkpt lat="14.42037" lon="-60.84446">
        <ele>20</ele>
        <time>2016-06-05T12:40:25.913Z</time>
      </trkpt>
      <trkpt lat="14.42037" lon="-60.84444">
        <ele>21</ele>
        <time>2016-06-05T12:40:27.916Z</time>
      </trkpt>
      <trkpt lat="14.42037" lon="-60.84443">
        <ele>21</ele>
        <time>2016-06-05T12:40:29.917Z</time>
      </trkpt>
      <trkpt lat="14.42037" lon="-60.8444">
        <ele>22</ele>
        <time>2016-06-05T12:40:32.921Z</time>
      </trkpt>
      <trkpt lat="14.42037" lon="-60.84438">
        <ele>23</ele>
        <time>2016-06-05T12:40:34.920Z</time>
      </trkpt>
      <trkpt lat="14.42037" lon="-60.84436">
        <ele>23</ele>
        <time>2016-06-05T12:40:36.920Z</time>
      </trkpt>
      <trkpt lat="14.42037" lon="-60.84434">
        <ele>24</ele>
        <time>2016-06-05T12:40:38.921Z</time>
      </trkpt>
      <trkpt lat="14.42038" lon="-60.84432">
        <ele>25</ele>
        <time>2016-06-05T12:40:40.919Z</time>
      </trkpt>
      <trkpt lat="14.42038" lon="-60.8443">
        <ele>25</ele>
        <time>2016-06-05T12:40:42.919Z</time>
      </trkpt>
      <trkpt lat="14.42038" lon="-60.84428">
        <ele>26</ele>
        <time>2016-06-05T12:40:44.920Z</time>
      </trkpt>
      <trkpt lat="14.42038" lon="-60.84426">
        <ele>26</ele>
        <time>2016-06-05T12:40:46.920Z</time>
      </trkpt>
      <trkpt lat="14.42038" lon="-60.84424">
        <ele>27</ele>
        <time>2016-06-05T12:40:48.919Z</time>
      </trkpt>
      <trkpt lat="14.42038" lon="-60.84422">
        <ele>27</ele>
        <time>2016-06-05T12:40:50.921Z</time>
      </trkpt>
      <trkpt lat="14.42038" lon="-60.8442">
        <ele>27</ele>
        <time>2016-06-05T12:40:52.919Z</time>
      </trkpt>
      <trkpt lat="14.42036" lon="-60.84419">
        <ele>27</ele>
        <time>2016-06-05T12:40:54.913Z</time>
      </trkpt>
      <trkpt lat="14.42035" lon="-60.84418">
        <ele>27</ele>
        <time>2016-06-05T12:40:56.913Z</time>
      </trkpt>
      <trkpt lat="14.42034" lon="-60.84417">
        <ele>27</ele>
        <time>2016-06-05T12:40:58.916Z</time>
      </trkpt>
      <trkpt lat="14.42031" lon="-60.84415">
        <ele>27</ele>
        <time>2016-06-05T12:41:02.920Z</time>
      </trkpt>
      <trkpt lat="14.42026" lon="-60.84414">
        <ele>26</ele>
        <time>2016-06-05T12:41:10.915Z</time>
      </trkpt>
      <trkpt lat="14.42026" lon="-60.84414">
        <ele>26</ele>
        <time>2016-06-05T12:41:20.275Z</time>
      </trkpt>
      <trkpt lat="14.42019" lon="-60.84414">
        <ele>28</ele>
        <time>2016-06-05T12:41:46.913Z</time>
      </trkpt>
      <trkpt lat="14.42017" lon="-60.84415">
        <ele>28</ele>
        <time>2016-06-05T12:41:48.915Z</time>
      </trkpt>
      <trkpt lat="14.42014" lon="-60.84415">
        <ele>28</ele>
        <time>2016-06-05T12:41:50.917Z</time>
      </trkpt>
      <trkpt lat="14.42011" lon="-60.84415">
        <ele>28</ele>
        <time>2016-06-05T12:41:52.920Z</time>
      </trkpt>
      <trkpt lat="14.42009" lon="-60.84416">
        <ele>28</ele>
        <time>2016-06-05T12:41:53.920Z</time>
      </trkpt>
      <trkpt lat="14.42008" lon="-60.84417">
        <ele>28</ele>
        <time>2016-06-05T12:41:54.920Z</time>
      </trkpt>
      <trkpt lat="14.42005" lon="-60.84417">
        <ele>28</ele>
        <time>2016-06-05T12:41:56.921Z</time>
      </trkpt>
      <trkpt lat="14.42003" lon="-60.84418">
        <ele>29</ele>
        <time>2016-06-05T12:41:57.923Z</time>
      </trkpt>
      <trkpt lat="14.42002" lon="-60.84418">
        <ele>29</ele>
        <time>2016-06-05T12:41:58.921Z</time>
      </trkpt>
      <trkpt lat="14.42" lon="-60.84418">
        <ele>29</ele>
        <time>2016-06-05T12:41:59.920Z</time>
      </trkpt>
      <trkpt lat="14.41999" lon="-60.84419">
        <ele>29</ele>
        <time>2016-06-05T12:42:00.921Z</time>
      </trkpt>
      <trkpt lat="14.41997" lon="-60.8442">
        <ele>29</ele>
        <time>2016-06-05T12:42:01.922Z</time>
      </trkpt>
      <trkpt lat="14.41995" lon="-60.84421">
        <ele>29</ele>
        <time>2016-06-05T12:42:02.921Z</time>
      </trkpt>
      <trkpt lat="14.41994" lon="-60.84421">
        <ele>29</ele>
        <time>2016-06-05T12:42:03.921Z</time>
      </trkpt>
      <trkpt lat="14.41993" lon="-60.84422">
        <ele>29</ele>
        <time>2016-06-05T12:42:04.920Z</time>
      </trkpt>
      <trkpt lat="14.41991" lon="-60.84422">
        <ele>29</ele>
        <time>2016-06-05T12:42:05.921Z</time>
      </trkpt>
      <trkpt lat="14.4199" lon="-60.84423">
        <ele>29</ele>
        <time>2016-06-05T12:42:06.920Z</time>
      </trkpt>
      <trkpt lat="14.41987" lon="-60.84423">
        <ele>29</ele>
        <time>2016-06-05T12:42:07.919Z</time>
      </trkpt>
      <trkpt lat="14.41985" lon="-60.84424">
        <ele>29</ele>
        <time>2016-06-05T12:42:08.920Z</time>
      </trkpt>
      <trkpt lat="14.41982" lon="-60.84426">
        <ele>28</ele>
        <time>2016-06-05T12:42:09.920Z</time>
      </trkpt>
      <trkpt lat="14.41979" lon="-60.84427">
        <ele>28</ele>
        <time>2016-06-05T12:42:10.920Z</time>
      </trkpt>
      <trkpt lat="14.41975" lon="-60.84429">
        <ele>27</ele>
        <time>2016-06-05T12:42:11.921Z</time>
      </trkpt>
      <trkpt lat="14.4197" lon="-60.84431">
        <ele>27</ele>
        <time>2016-06-05T12:42:12.922Z</time>
      </trkpt>
      <trkpt lat="14.41966" lon="-60.84432">
        <ele>26</ele>
        <time>2016-06-05T12:42:13.920Z</time>
      </trkpt>
      <trkpt lat="14.41962" lon="-60.84434">
        <ele>26</ele>
        <time>2016-06-05T12:42:14.921Z</time>
      </trkpt>
      <trkpt lat="14.41959" lon="-60.84436">
        <ele>26</ele>
        <time>2016-06-05T12:42:15.922Z</time>
      </trkpt>
      <trkpt lat="14.41956" lon="-60.84436">
        <ele>25</ele>
        <time>2016-06-05T12:42:16.921Z</time>
      </trkpt>
      <trkpt lat="14.41952" lon="-60.84435">
        <ele>24</ele>
        <time>2016-06-05T12:42:17.919Z</time>
      </trkpt>
      <trkpt lat="14.41947" lon="-60.84435">
        <ele>23</ele>
        <time>2016-06-05T12:42:18.919Z</time>
      </trkpt>
      <trkpt lat="14.41942" lon="-60.84437">
        <ele>22</ele>
        <time>2016-06-05T12:42:19.920Z</time>
      </trkpt>
      <trkpt lat="14.41936" lon="-60.8444">
        <ele>22</ele>
        <time>2016-06-05T12:42:20.920Z</time>
      </trkpt>
      <trkpt lat="14.41931" lon="-60.84442">
        <ele>22</ele>
        <time>2016-06-05T12:42:21.920Z</time>
      </trkpt>
      <trkpt lat="14.41926" lon="-60.84443">
        <ele>22</ele>
        <time>2016-06-05T12:42:22.917Z</time>
      </trkpt>
      <trkpt lat="14.41921" lon="-60.84444">
        <ele>21</ele>
        <time>2016-06-05T12:42:23.920Z</time>
      </trkpt>
      <trkpt lat="14.41917" lon="-60.84447">
        <ele>20</ele>
        <time>2016-06-05T12:42:24.922Z</time>
      </trkpt>
      <trkpt lat="14.41914" lon="-60.84451">
        <ele>18</ele>
        <time>2016-06-05T12:42:25.917Z</time>
      </trkpt>
      <trkpt lat="14.4191" lon="-60.84454">
        <ele>17</ele>
        <time>2016-06-05T12:42:26.919Z</time>
      </trkpt>
      <trkpt lat="14.41907" lon="-60.84457">
        <ele>16</ele>
        <time>2016-06-05T12:42:27.919Z</time>
      </trkpt>
      <trkpt lat="14.41903" lon="-60.84459">
        <ele>15</ele>
        <time>2016-06-05T12:42:28.920Z</time>
      </trkpt>
      <trkpt lat="14.419" lon="-60.84463">
        <ele>14</ele>
        <time>2016-06-05T12:42:29.919Z</time>
      </trkpt>
      <trkpt lat="14.41897" lon="-60.84467">
        <ele>14</ele>
        <time>2016-06-05T12:42:30.919Z</time>
      </trkpt>
      <trkpt lat="14.41893" lon="-60.84469">
        <ele>14</ele>
        <time>2016-06-05T12:42:31.921Z</time>
      </trkpt>
      <trkpt lat="14.41888" lon="-60.8447">
        <ele>15</ele>
        <time>2016-06-05T12:42:32.918Z</time>
      </trkpt>
      <trkpt lat="14.41884" lon="-60.84469">
        <ele>15</ele>
        <time>2016-06-05T12:42:33.920Z</time>
      </trkpt>
      <trkpt lat="14.41879" lon="-60.84468">
        <ele>15</ele>
        <time>2016-06-05T12:42:34.922Z</time>
      </trkpt>
      <trkpt lat="14.41874" lon="-60.84467">
        <ele>15</ele>
        <time>2016-06-05T12:42:35.920Z</time>
      </trkpt>
      <trkpt lat="14.41869" lon="-60.84468">
        <ele>15</ele>
        <time>2016-06-05T12:42:36.918Z</time>
      </trkpt>
      <trkpt lat="14.41866" lon="-60.8447">
        <ele>15</ele>
        <time>2016-06-05T12:42:37.918Z</time>
      </trkpt>
      <trkpt lat="14.41863" lon="-60.84471">
        <ele>15</ele>
        <time>2016-06-05T12:42:38.919Z</time>
      </trkpt>
      <trkpt lat="14.41861" lon="-60.84472">
        <ele>16</ele>
        <time>2016-06-05T12:42:39.922Z</time>
      </trkpt>
      <trkpt lat="14.41859" lon="-60.84472">
        <ele>16</ele>
        <time>2016-06-05T12:42:40.920Z</time>
      </trkpt>
      <trkpt lat="14.41857" lon="-60.84472">
        <ele>15</ele>
        <time>2016-06-05T12:42:41.919Z</time>
      </trkpt>
      <trkpt lat="14.41855" lon="-60.84471">
        <ele>16</ele>
        <time>2016-06-05T12:42:42.920Z</time>
      </trkpt>
      <trkpt lat="14.41852" lon="-60.84472">
        <ele>16</ele>
        <time>2016-06-05T12:42:43.920Z</time>
      </trkpt>
      <trkpt lat="14.41849" lon="-60.84472">
        <ele>17</ele>
        <time>2016-06-05T12:42:44.921Z</time>
      </trkpt>
      <trkpt lat="14.41846" lon="-60.84472">
        <ele>18</ele>
        <time>2016-06-05T12:42:45.921Z</time>
      </trkpt>
      <trkpt lat="14.41843" lon="-60.84472">
        <ele>18</ele>
        <time>2016-06-05T12:42:46.918Z</time>
      </trkpt>
      <trkpt lat="14.41841" lon="-60.84472">
        <ele>18</ele>
        <time>2016-06-05T12:42:47.921Z</time>
      </trkpt>
      <trkpt lat="14.41838" lon="-60.84472">
        <ele>18</ele>
        <time>2016-06-05T12:42:48.921Z</time>
      </trkpt>
      <trkpt lat="14.41836" lon="-60.84472">
        <ele>18</ele>
        <time>2016-06-05T12:42:49.917Z</time>
      </trkpt>
      <trkpt lat="14.41834" lon="-60.84472">
        <ele>18</ele>
        <time>2016-06-05T12:42:50.918Z</time>
      </trkpt>
      <trkpt lat="14.41832" lon="-60.84472">
        <ele>18</ele>
        <time>2016-06-05T12:42:51.921Z</time>
      </trkpt>
      <trkpt lat="14.41831" lon="-60.84471">
        <ele>18</ele>
        <time>2016-06-05T12:42:52.919Z</time>
      </trkpt>
      <trkpt lat="14.41829" lon="-60.84471">
        <ele>18</ele>
        <time>2016-06-05T12:42:53.921Z</time>
      </trkpt>
      <trkpt lat="14.41827" lon="-60.84471">
        <ele>18</ele>
        <time>2016-06-05T12:42:54.918Z</time>
      </trkpt>
      <trkpt lat="14.41826" lon="-60.84471">
        <ele>18</ele>
        <time>2016-06-05T12:42:55.920Z</time>
      </trkpt>
      <trkpt lat="14.41824" lon="-60.84471">
        <ele>19</ele>
        <time>2016-06-05T12:42:57.918Z</time>
      </trkpt>
      <trkpt lat="14.41822" lon="-60.84471">
        <ele>19</ele>
        <time>2016-06-05T12:42:59.918Z</time>
      </trkpt>
      <trkpt lat="14.41819" lon="-60.84471">
        <ele>19</ele>
        <time>2016-06-05T12:43:01.919Z</time>
      </trkpt>
      <trkpt lat="14.41817" lon="-60.84471">
        <ele>20</ele>
        <time>2016-06-05T12:43:03.919Z</time>
      </trkpt>
      <trkpt lat="14.41816" lon="-60.84472">
        <ele>21</ele>
        <time>2016-06-05T12:43:04.916Z</time>
      </trkpt>
      <trkpt lat="14.41813" lon="-60.84473">
        <ele>22</ele>
        <time>2016-06-05T12:43:09.918Z</time>
      </trkpt>
      <trkpt lat="14.41812" lon="-60.84474">
        <ele>23</ele>
        <time>2016-06-05T12:43:11.920Z</time>
      </trkpt>
      <trkpt lat="14.4181" lon="-60.84474">
        <ele>23</ele>
        <time>2016-06-05T12:43:13.916Z</time>
      </trkpt>
      <trkpt lat="14.41808" lon="-60.84475">
        <ele>24</ele>
        <time>2016-06-05T12:43:15.921Z</time>
      </trkpt>
      <trkpt lat="14.41806" lon="-60.84476">
        <ele>24</ele>
        <time>2016-06-05T12:43:17.918Z</time>
      </trkpt>
      <trkpt lat="14.41805" lon="-60.84477">
        <ele>25</ele>
        <time>2016-06-05T12:43:19.920Z</time>
      </trkpt>
      <trkpt lat="14.41804" lon="-60.84478">
        <ele>25</ele>
        <time>2016-06-05T12:43:21.922Z</time>
      </trkpt>
      <trkpt lat="14.41802" lon="-60.84479">
        <ele>25</ele>
        <time>2016-06-05T12:43:23.918Z</time>
      </trkpt>
      <trkpt lat="14.418" lon="-60.8448">
        <ele>25</ele>
        <time>2016-06-05T12:43:25.919Z</time>
      </trkpt>
      <trkpt lat="14.41797" lon="-60.8448">
        <ele>26</ele>
        <time>2016-06-05T12:43:27.919Z</time>
      </trkpt>
      <trkpt lat="14.41795" lon="-60.84481">
        <ele>26</ele>
        <time>2016-06-05T12:43:29.918Z</time>
      </trkpt>
      <trkpt lat="14.41793" lon="-60.84482">
        <ele>28</ele>
        <time>2016-06-05T12:43:31.920Z</time>
      </trkpt>
      <trkpt lat="14.41792" lon="-60.84482">
        <ele>28</ele>
        <time>2016-06-05T12:43:33.920Z</time>
      </trkpt>
      <trkpt lat="14.4179" lon="-60.84483">
        <ele>28</ele>
        <time>2016-06-05T12:43:39.920Z</time>
      </trkpt>
      <trkpt lat="14.41787" lon="-60.84483">
        <ele>28</ele>
        <time>2016-06-05T12:43:41.920Z</time>
      </trkpt>
      <trkpt lat="14.41784" lon="-60.84484">
        <ele>29</ele>
        <time>2016-06-05T12:43:43.919Z</time>
      </trkpt>
      <trkpt lat="14.41782" lon="-60.84484">
        <ele>28</ele>
        <time>2016-06-05T12:43:45.920Z</time>
      </trkpt>
      <trkpt lat="14.4178" lon="-60.84484">
        <ele>28</ele>
        <time>2016-06-05T12:43:47.921Z</time>
      </trkpt>
      <trkpt lat="14.41778" lon="-60.84484">
        <ele>29</ele>
        <time>2016-06-05T12:43:48.920Z</time>
      </trkpt>
      <trkpt lat="14.41777" lon="-60.84484">
        <ele>28</ele>
        <time>2016-06-05T12:43:49.918Z</time>
      </trkpt>
      <trkpt lat="14.41774" lon="-60.84483">
        <ele>28</ele>
        <time>2016-06-05T12:43:50.919Z</time>
      </trkpt>
      <trkpt lat="14.4177" lon="-60.84483">
        <ele>27</ele>
        <time>2016-06-05T12:43:51.924Z</time>
      </trkpt>
      <trkpt lat="14.41766" lon="-60.84483">
        <ele>27</ele>
        <time>2016-06-05T12:43:52.923Z</time>
      </trkpt>
      <trkpt lat="14.41762" lon="-60.84485">
        <ele>27</ele>
        <time>2016-06-05T12:43:53.921Z</time>
      </trkpt>
      <trkpt lat="14.41759" lon="-60.84486">
        <ele>28</ele>
        <time>2016-06-05T12:43:54.921Z</time>
      </trkpt>
      <trkpt lat="14.41756" lon="-60.84486">
        <ele>28</ele>
        <time>2016-06-05T12:43:55.921Z</time>
      </trkpt>
      <trkpt lat="14.41753" lon="-60.84487">
        <ele>28</ele>
        <time>2016-06-05T12:43:56.924Z</time>
      </trkpt>
      <trkpt lat="14.41751" lon="-60.84487">
        <ele>27</ele>
        <time>2016-06-05T12:43:57.923Z</time>
      </trkpt>
      <trkpt lat="14.41749" lon="-60.84488">
        <ele>27</ele>
        <time>2016-06-05T12:43:58.917Z</time>
      </trkpt>
      <trkpt lat="14.41747" lon="-60.84489">
        <ele>26</ele>
        <time>2016-06-05T12:43:59.920Z</time>
      </trkpt>
      <trkpt lat="14.41745" lon="-60.84489">
        <ele>26</ele>
        <time>2016-06-05T12:44:00.921Z</time>
      </trkpt>
      <trkpt lat="14.41742" lon="-60.84489">
        <ele>25</ele>
        <time>2016-06-05T12:44:01.921Z</time>
      </trkpt>
      <trkpt lat="14.41739" lon="-60.84489">
        <ele>25</ele>
        <time>2016-06-05T12:44:02.919Z</time>
      </trkpt>
      <trkpt lat="14.41738" lon="-60.84489">
        <ele>25</ele>
        <time>2016-06-05T12:44:03.920Z</time>
      </trkpt>
      <trkpt lat="14.41735" lon="-60.84489">
        <ele>24</ele>
        <time>2016-06-05T12:44:04.920Z</time>
      </trkpt>
      <trkpt lat="14.41732" lon="-60.84489">
        <ele>24</ele>
        <time>2016-06-05T12:44:05.920Z</time>
      </trkpt>
      <trkpt lat="14.41729" lon="-60.84489">
        <ele>23</ele>
        <time>2016-06-05T12:44:06.921Z</time>
      </trkpt>
      <trkpt lat="14.41726" lon="-60.84489">
        <ele>23</ele>
        <time>2016-06-05T12:44:07.919Z</time>
      </trkpt>
      <trkpt lat="14.41722" lon="-60.8449">
        <ele>22</ele>
        <time>2016-06-05T12:44:08.920Z</time>
      </trkpt>
      <trkpt lat="14.41718" lon="-60.84491">
        <ele>22</ele>
        <time>2016-06-05T12:44:09.920Z</time>
      </trkpt>
      <trkpt lat="14.41715" lon="-60.84493">
        <ele>21</ele>
        <time>2016-06-05T12:44:10.920Z</time>
      </trkpt>
      <trkpt lat="14.41712" lon="-60.84496">
        <ele>21</ele>
        <time>2016-06-05T12:44:11.918Z</time>
      </trkpt>
      <trkpt lat="14.41709" lon="-60.84499">
        <ele>20</ele>
        <time>2016-06-05T12:44:12.920Z</time>
      </trkpt>
      <trkpt lat="14.41704" lon="-60.845">
        <ele>19</ele>
        <time>2016-06-05T12:44:13.917Z</time>
      </trkpt>
      <trkpt lat="14.41701" lon="-60.84502">
        <ele>18</ele>
        <time>2016-06-05T12:44:14.919Z</time>
      </trkpt>
      <trkpt lat="14.41697" lon="-60.84504">
        <ele>18</ele>
        <time>2016-06-05T12:44:15.918Z</time>
      </trkpt>
      <trkpt lat="14.41694" lon="-60.84506">
        <ele>17</ele>
        <time>2016-06-05T12:44:16.919Z</time>
      </trkpt>
      <trkpt lat="14.41691" lon="-60.84507">
        <ele>16</ele>
        <time>2016-06-05T12:44:17.918Z</time>
      </trkpt>
      <trkpt lat="14.41688" lon="-60.84508">
        <ele>15</ele>
        <time>2016-06-05T12:44:18.918Z</time>
      </trkpt>
      <trkpt lat="14.41684" lon="-60.84509">
        <ele>14</ele>
        <time>2016-06-05T12:44:19.917Z</time>
      </trkpt>
      <trkpt lat="14.41681" lon="-60.84512">
        <ele>14</ele>
        <time>2016-06-05T12:44:20.919Z</time>
      </trkpt>
      <trkpt lat="14.41678" lon="-60.84515">
        <ele>14</ele>
        <time>2016-06-05T12:44:21.918Z</time>
      </trkpt>
      <trkpt lat="14.41676" lon="-60.84519">
        <ele>13</ele>
        <time>2016-06-05T12:44:22.918Z</time>
      </trkpt>
      <trkpt lat="14.41674" lon="-60.84522">
        <ele>14</ele>
        <time>2016-06-05T12:44:23.916Z</time>
      </trkpt>
      <trkpt lat="14.41671" lon="-60.84525">
        <ele>14</ele>
        <time>2016-06-05T12:44:24.918Z</time>
      </trkpt>
      <trkpt lat="14.41668" lon="-60.84528">
        <ele>14</ele>
        <time>2016-06-05T12:44:25.918Z</time>
      </trkpt>
      <trkpt lat="14.41664" lon="-60.84531">
        <ele>14</ele>
        <time>2016-06-05T12:44:26.918Z</time>
      </trkpt>
      <trkpt lat="14.41665" lon="-60.84534">
        <ele>13</ele>
        <time>2016-06-05T12:44:27.919Z</time>
      </trkpt>
      <trkpt lat="14.41664" lon="-60.84537">
        <ele>15</ele>
        <time>2016-06-05T12:44:28.916Z</time>
      </trkpt>
      <trkpt lat="14.41663" lon="-60.8454">
        <ele>15</ele>
        <time>2016-06-05T12:44:29.917Z</time>
      </trkpt>
      <trkpt lat="14.4166" lon="-60.84542">
        <ele>15</ele>
        <time>2016-06-05T12:44:30.918Z</time>
      </trkpt>
      <trkpt lat="14.41657" lon="-60.84544">
        <ele>15</ele>
        <time>2016-06-05T12:44:31.918Z</time>
      </trkpt>
      <trkpt lat="14.41654" lon="-60.84547">
        <ele>15</ele>
        <time>2016-06-05T12:44:32.917Z</time>
      </trkpt>
      <trkpt lat="14.4165" lon="-60.84551">
        <ele>15</ele>
        <time>2016-06-05T12:44:33.917Z</time>
      </trkpt>
      <trkpt lat="14.41646" lon="-60.84554">
        <ele>14</ele>
        <time>2016-06-05T12:44:34.919Z</time>
      </trkpt>
      <trkpt lat="14.41643" lon="-60.84558">
        <ele>14</ele>
        <time>2016-06-05T12:44:35.919Z</time>
      </trkpt>
      <trkpt lat="14.41641" lon="-60.84561">
        <ele>14</ele>
        <time>2016-06-05T12:44:36.918Z</time>
      </trkpt>
      <trkpt lat="14.41638" lon="-60.84562">
        <ele>13</ele>
        <time>2016-06-05T12:44:37.919Z</time>
      </trkpt>
      <trkpt lat="14.41635" lon="-60.84563">
        <ele>13</ele>
        <time>2016-06-05T12:44:38.917Z</time>
      </trkpt>
      <trkpt lat="14.41633" lon="-60.84563">
        <ele>12</ele>
        <time>2016-06-05T12:44:39.921Z</time>
      </trkpt>
      <trkpt lat="14.4163" lon="-60.84565">
        <ele>10</ele>
        <time>2016-06-05T12:44:40.917Z</time>
      </trkpt>
      <trkpt lat="14.41628" lon="-60.84568">
        <ele>10</ele>
        <time>2016-06-05T12:44:41.917Z</time>
      </trkpt>
      <trkpt lat="14.41626" lon="-60.84571">
        <ele>10</ele>
        <time>2016-06-05T12:44:42.919Z</time>
      </trkpt>
      <trkpt lat="14.41622" lon="-60.84571">
        <ele>11</ele>
        <time>2016-06-05T12:44:43.919Z</time>
      </trkpt>
      <trkpt lat="14.41619" lon="-60.84572">
        <ele>11</ele>
        <time>2016-06-05T12:44:44.922Z</time>
      </trkpt>
      <trkpt lat="14.41617" lon="-60.84572">
        <ele>11</ele>
        <time>2016-06-05T12:44:45.920Z</time>
      </trkpt>
      <trkpt lat="14.41613" lon="-60.84572">
        <ele>11</ele>
        <time>2016-06-05T12:44:46.920Z</time>
      </trkpt>
      <trkpt lat="14.4161" lon="-60.84573">
        <ele>11</ele>
        <time>2016-06-05T12:44:47.920Z</time>
      </trkpt>
      <trkpt lat="14.41607" lon="-60.84573">
        <ele>11</ele>
        <time>2016-06-05T12:44:48.918Z</time>
      </trkpt>
      <trkpt lat="14.41604" lon="-60.84574">
        <ele>11</ele>
        <time>2016-06-05T12:44:49.925Z</time>
      </trkpt>
      <trkpt lat="14.41601" lon="-60.84574">
        <ele>11</ele>
        <time>2016-06-05T12:44:50.921Z</time>
      </trkpt>
      <trkpt lat="14.41598" lon="-60.84575">
        <ele>10</ele>
        <time>2016-06-05T12:44:51.918Z</time>
      </trkpt>
      <trkpt lat="14.41594" lon="-60.84575">
        <ele>11</ele>
        <time>2016-06-05T12:44:52.919Z</time>
      </trkpt>
      <trkpt lat="14.4159" lon="-60.84574">
        <ele>11</ele>
        <time>2016-06-05T12:44:53.921Z</time>
      </trkpt>
      <trkpt lat="14.41586" lon="-60.84574">
        <ele>10</ele>
        <time>2016-06-05T12:44:54.920Z</time>
      </trkpt>
      <trkpt lat="14.41582" lon="-60.84574">
        <ele>10</ele>
        <time>2016-06-05T12:44:55.919Z</time>
      </trkpt>
      <trkpt lat="14.41578" lon="-60.84575">
        <ele>9</ele>
        <time>2016-06-05T12:44:56.921Z</time>
      </trkpt>
      <trkpt lat="14.41575" lon="-60.84577">
        <ele>9</ele>
        <time>2016-06-05T12:44:57.921Z</time>
      </trkpt>
      <trkpt lat="14.41572" lon="-60.84579">
        <ele>9</ele>
        <time>2016-06-05T12:44:58.920Z</time>
      </trkpt>
      <trkpt lat="14.41568" lon="-60.84582">
        <ele>9</ele>
        <time>2016-06-05T12:44:59.919Z</time>
      </trkpt>
      <trkpt lat="14.41566" lon="-60.84584">
        <ele>9</ele>
        <time>2016-06-05T12:45:00.922Z</time>
      </trkpt>
      <trkpt lat="14.41563" lon="-60.84587">
        <ele>9</ele>
        <time>2016-06-05T12:45:01.920Z</time>
      </trkpt>
      <trkpt lat="14.41561" lon="-60.84591">
        <ele>9</ele>
        <time>2016-06-05T12:45:02.920Z</time>
      </trkpt>
      <trkpt lat="14.41559" lon="-60.84593">
        <ele>9</ele>
        <time>2016-06-05T12:45:03.920Z</time>
      </trkpt>
      <trkpt lat="14.41557" lon="-60.84595">
        <ele>9</ele>
        <time>2016-06-05T12:45:04.921Z</time>
      </trkpt>
      <trkpt lat="14.41556" lon="-60.84599">
        <ele>8</ele>
        <time>2016-06-05T12:45:05.920Z</time>
      </trkpt>
      <trkpt lat="14.41556" lon="-60.84602">
        <ele>9</ele>
        <time>2016-06-05T12:45:06.920Z</time>
      </trkpt>
      <trkpt lat="14.41556" lon="-60.84606">
        <ele>9</ele>
        <time>2016-06-05T12:45:07.918Z</time>
      </trkpt>
      <trkpt lat="14.41557" lon="-60.84609">
        <ele>9</ele>
        <time>2016-06-05T12:45:08.918Z</time>
      </trkpt>
      <trkpt lat="14.41557" lon="-60.84612">
        <ele>9</ele>
        <time>2016-06-05T12:45:09.919Z</time>
      </trkpt>
      <trkpt lat="14.41557" lon="-60.84615">
        <ele>10</ele>
        <time>2016-06-05T12:45:10.919Z</time>
      </trkpt>
      <trkpt lat="14.41558" lon="-60.84617">
        <ele>10</ele>
        <time>2016-06-05T12:45:11.919Z</time>
      </trkpt>
      <trkpt lat="14.41559" lon="-60.8462">
        <ele>11</ele>
        <time>2016-06-05T12:45:12.919Z</time>
      </trkpt>
      <trkpt lat="14.4156" lon="-60.84624">
        <ele>10</ele>
        <time>2016-06-05T12:45:13.920Z</time>
      </trkpt>
      <trkpt lat="14.41562" lon="-60.84628">
        <ele>10</ele>
        <time>2016-06-05T12:45:14.920Z</time>
      </trkpt>
      <trkpt lat="14.41561" lon="-60.84631">
        <ele>10</ele>
        <time>2016-06-05T12:45:15.919Z</time>
      </trkpt>
      <trkpt lat="14.41559" lon="-60.84633">
        <ele>8</ele>
        <time>2016-06-05T12:45:16.918Z</time>
      </trkpt>
      <trkpt lat="14.41556" lon="-60.84635">
        <ele>8</ele>
        <time>2016-06-05T12:45:17.919Z</time>
      </trkpt>
      <trkpt lat="14.41554" lon="-60.84637">
        <ele>8</ele>
        <time>2016-06-05T12:45:18.920Z</time>
      </trkpt>
      <trkpt lat="14.4155" lon="-60.84636">
        <ele>8</ele>
        <time>2016-06-05T12:45:19.917Z</time>
      </trkpt>
      <trkpt lat="14.41548" lon="-60.84635">
        <ele>8</ele>
        <time>2016-06-05T12:45:20.918Z</time>
      </trkpt>
      <trkpt lat="14.41545" lon="-60.84633">
        <ele>8</ele>
        <time>2016-06-05T12:45:21.920Z</time>
      </trkpt>
      <trkpt lat="14.41544" lon="-60.84631">
        <ele>8</ele>
        <time>2016-06-05T12:45:22.916Z</time>
      </trkpt>
      <trkpt lat="14.41541" lon="-60.84629">
        <ele>9</ele>
        <time>2016-06-05T12:45:23.916Z</time>
      </trkpt>
      <trkpt lat="14.41537" lon="-60.84627">
        <ele>8</ele>
        <time>2016-06-05T12:45:24.912Z</time>
      </trkpt>
      <trkpt lat="14.41534" lon="-60.84626">
        <ele>9</ele>
        <time>2016-06-05T12:45:25.917Z</time>
      </trkpt>
      <trkpt lat="14.41529" lon="-60.84626">
        <ele>10</ele>
        <time>2016-06-05T12:45:26.916Z</time>
      </trkpt>
      <trkpt lat="14.41526" lon="-60.84627">
        <ele>9</ele>
        <time>2016-06-05T12:45:27.915Z</time>
      </trkpt>
      <trkpt lat="14.41523" lon="-60.84628">
        <ele>9</ele>
        <time>2016-06-05T12:45:28.914Z</time>
      </trkpt>
      <trkpt lat="14.41521" lon="-60.84631">
        <ele>8</ele>
        <time>2016-06-05T12:45:29.919Z</time>
      </trkpt>
      <trkpt lat="14.41517" lon="-60.84633">
        <ele>8</ele>
        <time>2016-06-05T12:45:30.916Z</time>
      </trkpt>
      <trkpt lat="14.41514" lon="-60.84636">
        <ele>9</ele>
        <time>2016-06-05T12:45:31.914Z</time>
      </trkpt>
      <trkpt lat="14.41512" lon="-60.84638">
        <ele>8</ele>
        <time>2016-06-05T12:45:32.915Z</time>
      </trkpt>
      <trkpt lat="14.4151" lon="-60.84641">
        <ele>8</ele>
        <time>2016-06-05T12:45:33.915Z</time>
      </trkpt>
      <trkpt lat="14.41508" lon="-60.84644">
        <ele>8</ele>
        <time>2016-06-05T12:45:34.912Z</time>
      </trkpt>
      <trkpt lat="14.41505" lon="-60.84646">
        <ele>8</ele>
        <time>2016-06-05T12:45:35.915Z</time>
      </trkpt>
      <trkpt lat="14.41503" lon="-60.84649">
        <ele>7</ele>
        <time>2016-06-05T12:45:36.917Z</time>
      </trkpt>
      <trkpt lat="14.415" lon="-60.84651">
        <ele>7</ele>
        <time>2016-06-05T12:45:37.916Z</time>
      </trkpt>
      <trkpt lat="14.41498" lon="-60.84654">
        <ele>8</ele>
        <time>2016-06-05T12:45:38.913Z</time>
      </trkpt>
      <trkpt lat="14.41495" lon="-60.84657">
        <ele>7</ele>
        <time>2016-06-05T12:45:39.913Z</time>
      </trkpt>
      <trkpt lat="14.41493" lon="-60.8466">
        <ele>7</ele>
        <time>2016-06-05T12:45:40.916Z</time>
      </trkpt>
      <trkpt lat="14.4149" lon="-60.84662">
        <ele>7</ele>
        <time>2016-06-05T12:45:41.913Z</time>
      </trkpt>
      <trkpt lat="14.41488" lon="-60.84665">
        <ele>8</ele>
        <time>2016-06-05T12:45:42.913Z</time>
      </trkpt>
      <trkpt lat="14.41484" lon="-60.84667">
        <ele>8</ele>
        <time>2016-06-05T12:45:43.918Z</time>
      </trkpt>
      <trkpt lat="14.41482" lon="-60.84669">
        <ele>8</ele>
        <time>2016-06-05T12:45:44.918Z</time>
      </trkpt>
      <trkpt lat="14.4148" lon="-60.84671">
        <ele>9</ele>
        <time>2016-06-05T12:45:45.918Z</time>
      </trkpt>
      <trkpt lat="14.41477" lon="-60.84673">
        <ele>9</ele>
        <time>2016-06-05T12:45:46.916Z</time>
      </trkpt>
      <trkpt lat="14.41475" lon="-60.84676">
        <ele>9</ele>
        <time>2016-06-05T12:45:47.919Z</time>
      </trkpt>
      <trkpt lat="14.41474" lon="-60.84679">
        <ele>9</ele>
        <time>2016-06-05T12:45:48.920Z</time>
      </trkpt>
      <trkpt lat="14.41472" lon="-60.84682">
        <ele>10</ele>
        <time>2016-06-05T12:45:49.920Z</time>
      </trkpt>
      <trkpt lat="14.41469" lon="-60.84685">
        <ele>10</ele>
        <time>2016-06-05T12:45:50.921Z</time>
      </trkpt>
      <trkpt lat="14.41467" lon="-60.84687">
        <ele>10</ele>
        <time>2016-06-05T12:45:51.922Z</time>
      </trkpt>
      <trkpt lat="14.41465" lon="-60.84691">
        <ele>10</ele>
        <time>2016-06-05T12:45:52.920Z</time>
      </trkpt>
      <trkpt lat="14.41464" lon="-60.84694">
        <ele>11</ele>
        <time>2016-06-05T12:45:53.919Z</time>
      </trkpt>
      <trkpt lat="14.41462" lon="-60.84697">
        <ele>12</ele>
        <time>2016-06-05T12:45:54.919Z</time>
      </trkpt>
      <trkpt lat="14.4146" lon="-60.847">
        <ele>12</ele>
        <time>2016-06-05T12:45:55.921Z</time>
      </trkpt>
      <trkpt lat="14.41457" lon="-60.84702">
        <ele>11</ele>
        <time>2016-06-05T12:45:56.919Z</time>
      </trkpt>
      <trkpt lat="14.41456" lon="-60.84705">
        <ele>11</ele>
        <time>2016-06-05T12:45:57.920Z</time>
      </trkpt>
      <trkpt lat="14.41455" lon="-60.84708">
        <ele>10</ele>
        <time>2016-06-05T12:45:58.923Z</time>
      </trkpt>
      <trkpt lat="14.41454" lon="-60.84711">
        <ele>10</ele>
        <time>2016-06-05T12:45:59.920Z</time>
      </trkpt>
      <trkpt lat="14.41452" lon="-60.84714">
        <ele>10</ele>
        <time>2016-06-05T12:46:00.914Z</time>
      </trkpt>
      <trkpt lat="14.41451" lon="-60.84718">
        <ele>11</ele>
        <time>2016-06-05T12:46:01.912Z</time>
      </trkpt>
      <trkpt lat="14.4145" lon="-60.84721">
        <ele>11</ele>
        <time>2016-06-05T12:46:02.913Z</time>
      </trkpt>
      <trkpt lat="14.4145" lon="-60.84724">
        <ele>11</ele>
        <time>2016-06-05T12:46:03.915Z</time>
      </trkpt>
      <trkpt lat="14.41452" lon="-60.84728">
        <ele>12</ele>
        <time>2016-06-05T12:46:04.916Z</time>
      </trkpt>
      <trkpt lat="14.41453" lon="-60.8473">
        <ele>11</ele>
        <time>2016-06-05T12:46:05.914Z</time>
      </trkpt>
      <trkpt lat="14.41456" lon="-60.84731">
        <ele>11</ele>
        <time>2016-06-05T12:46:06.919Z</time>
      </trkpt>
      <trkpt lat="14.41458" lon="-60.84732">
        <ele>11</ele>
        <time>2016-06-05T12:46:07.913Z</time>
      </trkpt>
      <trkpt lat="14.41461" lon="-60.84734">
        <ele>11</ele>
        <time>2016-06-05T12:46:08.912Z</time>
      </trkpt>
      <trkpt lat="14.41462" lon="-60.84735">
        <ele>10</ele>
        <time>2016-06-05T12:46:09.917Z</time>
      </trkpt>
      <trkpt lat="14.41464" lon="-60.84737">
        <ele>11</ele>
        <time>2016-06-05T12:46:10.915Z</time>
      </trkpt>
      <trkpt lat="14.41465" lon="-60.84739">
        <ele>11</ele>
        <time>2016-06-05T12:46:11.913Z</time>
      </trkpt>
      <trkpt lat="14.41467" lon="-60.84741">
        <ele>11</ele>
        <time>2016-06-05T12:46:12.917Z</time>
      </trkpt>
      <trkpt lat="14.41468" lon="-60.84742">
        <ele>11</ele>
        <time>2016-06-05T12:46:13.915Z</time>
      </trkpt>
      <trkpt lat="14.41469" lon="-60.84744">
        <ele>10</ele>
        <time>2016-06-05T12:46:14.917Z</time>
      </trkpt>
      <trkpt lat="14.4147" lon="-60.84745">
        <ele>10</ele>
        <time>2016-06-05T12:46:15.925Z</time>
      </trkpt>
      <trkpt lat="14.4147" lon="-60.84747">
        <ele>11</ele>
        <time>2016-06-05T12:46:16.924Z</time>
      </trkpt>
      <trkpt lat="14.4147" lon="-60.84749">
        <ele>11</ele>
        <time>2016-06-05T12:46:17.921Z</time>
      </trkpt>
      <trkpt lat="14.41469" lon="-60.84751">
        <ele>11</ele>
        <time>2016-06-05T12:46:18.921Z</time>
      </trkpt>
      <trkpt lat="14.41467" lon="-60.84752">
        <ele>11</ele>
        <time>2016-06-05T12:46:19.920Z</time>
      </trkpt>
      <trkpt lat="14.41467" lon="-60.84752">
        <ele>11</ele>
        <time>2016-06-05T12:59:05.153Z</time>
      </trkpt>
      <trkpt lat="14.41467" lon="-60.84755">
        <ele>8</ele>
        <time>2016-06-05T12:59:13.916Z</time>
      </trkpt>
      <trkpt lat="14.41466" lon="-60.8476">
        <ele>9</ele>
        <time>2016-06-05T12:59:37.913Z</time>
      </trkpt>
      <trkpt lat="14.41464" lon="-60.84763">
        <ele>8</ele>
        <time>2016-06-05T12:59:42.914Z</time>
      </trkpt>
      <trkpt lat="14.41463" lon="-60.84765">
        <ele>7</ele>
        <time>2016-06-05T12:59:44.915Z</time>
      </trkpt>
      <trkpt lat="14.41462" lon="-60.84767">
        <ele>8</ele>
        <time>2016-06-05T12:59:46.916Z</time>
      </trkpt>
      <trkpt lat="14.41462" lon="-60.84769">
        <ele>7</ele>
        <time>2016-06-05T12:59:47.917Z</time>
      </trkpt>
      <trkpt lat="14.41462" lon="-60.8477">
        <ele>7</ele>
        <time>2016-06-05T12:59:48.916Z</time>
      </trkpt>
      <trkpt lat="14.41462" lon="-60.84772">
        <ele>7</ele>
        <time>2016-06-05T12:59:49.917Z</time>
      </trkpt>
      <trkpt lat="14.41461" lon="-60.84773">
        <ele>8</ele>
        <time>2016-06-05T12:59:50.916Z</time>
      </trkpt>
      <trkpt lat="14.4146" lon="-60.84774">
        <ele>8</ele>
        <time>2016-06-05T12:59:51.911Z</time>
      </trkpt>
      <trkpt lat="14.41459" lon="-60.84775">
        <ele>8</ele>
        <time>2016-06-05T12:59:52.914Z</time>
      </trkpt>
      <trkpt lat="14.41457" lon="-60.84774">
        <ele>8</ele>
        <time>2016-06-05T12:59:53.921Z</time>
      </trkpt>
      <trkpt lat="14.41455" lon="-60.84773">
        <ele>8</ele>
        <time>2016-06-05T12:59:54.921Z</time>
      </trkpt>
      <trkpt lat="14.41453" lon="-60.84772">
        <ele>8</ele>
        <time>2016-06-05T12:59:55.921Z</time>
      </trkpt>
      <trkpt lat="14.41451" lon="-60.84771">
        <ele>8</ele>
        <time>2016-06-05T12:59:56.925Z</time>
      </trkpt>
      <trkpt lat="14.41449" lon="-60.84769">
        <ele>8</ele>
        <time>2016-06-05T12:59:57.927Z</time>
      </trkpt>
      <trkpt lat="14.41448" lon="-60.84768">
        <ele>8</ele>
        <time>2016-06-05T12:59:58.923Z</time>
      </trkpt>
      <trkpt lat="14.41447" lon="-60.84767">
        <ele>8</ele>
        <time>2016-06-05T12:59:59.920Z</time>
      </trkpt>
      <trkpt lat="14.41445" lon="-60.84765">
        <ele>8</ele>
        <time>2016-06-05T13:00:00.918Z</time>
      </trkpt>
      <trkpt lat="14.41443" lon="-60.84763">
        <ele>8</ele>
        <time>2016-06-05T13:00:01.917Z</time>
      </trkpt>
      <trkpt lat="14.41442" lon="-60.84762">
        <ele>8</ele>
        <time>2016-06-05T13:00:02.915Z</time>
      </trkpt>
      <trkpt lat="14.41439" lon="-60.84761">
        <ele>8</ele>
        <time>2016-06-05T13:00:04.914Z</time>
      </trkpt>
      <trkpt lat="14.41438" lon="-60.8476">
        <ele>9</ele>
        <time>2016-06-05T13:00:05.917Z</time>
      </trkpt>
      <trkpt lat="14.41437" lon="-60.84758">
        <ele>9</ele>
        <time>2016-06-05T13:00:06.919Z</time>
      </trkpt>
      <trkpt lat="14.41435" lon="-60.84757">
        <ele>9</ele>
        <time>2016-06-05T13:00:07.916Z</time>
      </trkpt>
      <trkpt lat="14.41433" lon="-60.84756">
        <ele>9</ele>
        <time>2016-06-05T13:00:08.915Z</time>
      </trkpt>
      <trkpt lat="14.41432" lon="-60.84755">
        <ele>8</ele>
        <time>2016-06-05T13:00:09.916Z</time>
      </trkpt>
      <trkpt lat="14.4143" lon="-60.84755">
        <ele>9</ele>
        <time>2016-06-05T13:00:10.917Z</time>
      </trkpt>
      <trkpt lat="14.41428" lon="-60.84754">
        <ele>9</ele>
        <time>2016-06-05T13:00:11.918Z</time>
      </trkpt>
      <trkpt lat="14.41427" lon="-60.84753">
        <ele>9</ele>
        <time>2016-06-05T13:00:12.918Z</time>
      </trkpt>
      <trkpt lat="14.41425" lon="-60.84751">
        <ele>8</ele>
        <time>2016-06-05T13:00:13.916Z</time>
      </trkpt>
      <trkpt lat="14.41424" lon="-60.84751">
        <ele>9</ele>
        <time>2016-06-05T13:00:14.916Z</time>
      </trkpt>
      <trkpt lat="14.41422" lon="-60.8475">
        <ele>9</ele>
        <time>2016-06-05T13:00:15.918Z</time>
      </trkpt>
      <trkpt lat="14.4142" lon="-60.8475">
        <ele>9</ele>
        <time>2016-06-05T13:00:16.917Z</time>
      </trkpt>
      <trkpt lat="14.41417" lon="-60.84749">
        <ele>9</ele>
        <time>2016-06-05T13:00:17.922Z</time>
      </trkpt>
      <trkpt lat="14.41417" lon="-60.84747">
        <ele>8</ele>
        <time>2016-06-05T13:00:18.918Z</time>
      </trkpt>
      <trkpt lat="14.41415" lon="-60.84745">
        <ele>8</ele>
        <time>2016-06-05T13:00:19.916Z</time>
      </trkpt>
      <trkpt lat="14.41414" lon="-60.84743">
        <ele>8</ele>
        <time>2016-06-05T13:00:20.918Z</time>
      </trkpt>
      <trkpt lat="14.41412" lon="-60.84742">
        <ele>8</ele>
        <time>2016-06-05T13:00:21.917Z</time>
      </trkpt>
      <trkpt lat="14.4141" lon="-60.8474">
        <ele>8</ele>
        <time>2016-06-05T13:00:22.917Z</time>
      </trkpt>
      <trkpt lat="14.41408" lon="-60.84739">
        <ele>8</ele>
        <time>2016-06-05T13:00:23.915Z</time>
      </trkpt>
      <trkpt lat="14.41406" lon="-60.84738">
        <ele>8</ele>
        <time>2016-06-05T13:00:24.916Z</time>
      </trkpt>
      <trkpt lat="14.41404" lon="-60.84737">
        <ele>8</ele>
        <time>2016-06-05T13:00:25.915Z</time>
      </trkpt>
      <trkpt lat="14.41401" lon="-60.84736">
        <ele>8</ele>
        <time>2016-06-05T13:00:26.913Z</time>
      </trkpt>
      <trkpt lat="14.414" lon="-60.84735">
        <ele>8</ele>
        <time>2016-06-05T13:00:27.916Z</time>
      </trkpt>
      <trkpt lat="14.41398" lon="-60.84734">
        <ele>8</ele>
        <time>2016-06-05T13:00:28.917Z</time>
      </trkpt>
      <trkpt lat="14.41396" lon="-60.84733">
        <ele>7</ele>
        <time>2016-06-05T13:00:29.915Z</time>
      </trkpt>
      <trkpt lat="14.41394" lon="-60.84732">
        <ele>7</ele>
        <time>2016-06-05T13:00:30.912Z</time>
      </trkpt>
      <trkpt lat="14.41392" lon="-60.84731">
        <ele>7</ele>
        <time>2016-06-05T13:00:31.913Z</time>
      </trkpt>
      <trkpt lat="14.4139" lon="-60.84729">
        <ele>8</ele>
        <time>2016-06-05T13:00:32.911Z</time>
      </trkpt>
      <trkpt lat="14.41388" lon="-60.84727">
        <ele>8</ele>
        <time>2016-06-05T13:00:33.912Z</time>
      </trkpt>
      <trkpt lat="14.41386" lon="-60.84724">
        <ele>8</ele>
        <time>2016-06-05T13:00:34.916Z</time>
      </trkpt>
      <trkpt lat="14.41384" lon="-60.84722">
        <ele>8</ele>
        <time>2016-06-05T13:00:35.918Z</time>
      </trkpt>
      <trkpt lat="14.41382" lon="-60.84721">
        <ele>7</ele>
        <time>2016-06-05T13:00:36.915Z</time>
      </trkpt>
      <trkpt lat="14.4138" lon="-60.84721">
        <ele>7</ele>
        <time>2016-06-05T13:00:37.917Z</time>
      </trkpt>
      <trkpt lat="14.41377" lon="-60.8472">
        <ele>7</ele>
        <time>2016-06-05T13:00:38.914Z</time>
      </trkpt>
      <trkpt lat="14.41375" lon="-60.8472">
        <ele>6</ele>
        <time>2016-06-05T13:00:39.914Z</time>
      </trkpt>
      <trkpt lat="14.41372" lon="-60.8472">
        <ele>6</ele>
        <time>2016-06-05T13:00:40.915Z</time>
      </trkpt>
      <trkpt lat="14.4137" lon="-60.8472">
        <ele>6</ele>
        <time>2016-06-05T13:00:41.918Z</time>
      </trkpt>
      <trkpt lat="14.41368" lon="-60.84719">
        <ele>6</ele>
        <time>2016-06-05T13:00:42.914Z</time>
      </trkpt>
      <trkpt lat="14.41366" lon="-60.84718">
        <ele>7</ele>
        <time>2016-06-05T13:00:43.916Z</time>
      </trkpt>
      <trkpt lat="14.41364" lon="-60.84717">
        <ele>7</ele>
        <time>2016-06-05T13:00:44.915Z</time>
      </trkpt>
      <trkpt lat="14.41362" lon="-60.84717">
        <ele>7</ele>
        <time>2016-06-05T13:00:45.916Z</time>
      </trkpt>
      <trkpt lat="14.41361" lon="-60.84716">
        <ele>8</ele>
        <time>2016-06-05T13:00:46.916Z</time>
      </trkpt>
      <trkpt lat="14.41359" lon="-60.84716">
        <ele>8</ele>
        <time>2016-06-05T13:00:47.917Z</time>
      </trkpt>
      <trkpt lat="14.41356" lon="-60.84716">
        <ele>8</ele>
        <time>2016-06-05T13:00:49.917Z</time>
      </trkpt>
      <trkpt lat="14.41354" lon="-60.84715">
        <ele>8</ele>
        <time>2016-06-05T13:00:51.915Z</time>
      </trkpt>
      <trkpt lat="14.41353" lon="-60.84714">
        <ele>8</ele>
        <time>2016-06-05T13:00:54.917Z</time>
      </trkpt>
      <trkpt lat="14.41352" lon="-60.84713">
        <ele>7</ele>
        <time>2016-06-05T13:00:55.915Z</time>
      </trkpt>
      <trkpt lat="14.41351" lon="-60.84712">
        <ele>7</ele>
        <time>2016-06-05T13:00:56.913Z</time>
      </trkpt>
      <trkpt lat="14.41349" lon="-60.84712">
        <ele>7</ele>
        <time>2016-06-05T13:00:57.916Z</time>
      </trkpt>
      <trkpt lat="14.41348" lon="-60.84711">
        <ele>6</ele>
        <time>2016-06-05T13:00:58.915Z</time>
      </trkpt>
      <trkpt lat="14.41346" lon="-60.84709">
        <ele>6</ele>
        <time>2016-06-05T13:01:00.918Z</time>
      </trkpt>
      <trkpt lat="14.41344" lon="-60.84707">
        <ele>6</ele>
        <time>2016-06-05T13:01:02.915Z</time>
      </trkpt>
      <trkpt lat="14.41343" lon="-60.84706">
        <ele>6</ele>
        <time>2016-06-05T13:01:03.918Z</time>
      </trkpt>
      <trkpt lat="14.41341" lon="-60.84705">
        <ele>6</ele>
        <time>2016-06-05T13:01:04.918Z</time>
      </trkpt>
      <trkpt lat="14.4134" lon="-60.84704">
        <ele>7</ele>
        <time>2016-06-05T13:01:05.913Z</time>
      </trkpt>
      <trkpt lat="14.41338" lon="-60.84703">
        <ele>7</ele>
        <time>2016-06-05T13:01:06.914Z</time>
      </trkpt>
      <trkpt lat="14.41336" lon="-60.84701">
        <ele>7</ele>
        <time>2016-06-05T13:01:08.916Z</time>
      </trkpt>
      <trkpt lat="14.41335" lon="-60.847">
        <ele>7</ele>
        <time>2016-06-05T13:01:09.916Z</time>
      </trkpt>
      <trkpt lat="14.41333" lon="-60.84699">
        <ele>7</ele>
        <time>2016-06-05T13:01:11.915Z</time>
      </trkpt>
      <trkpt lat="14.4133" lon="-60.84698">
        <ele>8</ele>
        <time>2016-06-05T13:01:13.918Z</time>
      </trkpt>
      <trkpt lat="14.41328" lon="-60.84698">
        <ele>8</ele>
        <time>2016-06-05T13:01:15.916Z</time>
      </trkpt>
      <trkpt lat="14.41325" lon="-60.84696">
        <ele>7</ele>
        <time>2016-06-05T13:01:18.918Z</time>
      </trkpt>
      <trkpt lat="14.41323" lon="-60.84696">
        <ele>7</ele>
        <time>2016-06-05T13:01:19.916Z</time>
      </trkpt>
      <trkpt lat="14.41322" lon="-60.84696">
        <ele>7</ele>
        <time>2016-06-05T13:01:20.917Z</time>
      </trkpt>
      <trkpt lat="14.41319" lon="-60.84697">
        <ele>6</ele>
        <time>2016-06-05T13:01:21.919Z</time>
      </trkpt>
      <trkpt lat="14.41317" lon="-60.84698">
        <ele>6</ele>
        <time>2016-06-05T13:01:22.918Z</time>
      </trkpt>
      <trkpt lat="14.41316" lon="-60.847">
        <ele>6</ele>
        <time>2016-06-05T13:01:23.917Z</time>
      </trkpt>
      <trkpt lat="14.41314" lon="-60.84702">
        <ele>7</ele>
        <time>2016-06-05T13:01:24.918Z</time>
      </trkpt>
      <trkpt lat="14.41313" lon="-60.84704">
        <ele>7</ele>
        <time>2016-06-05T13:01:25.917Z</time>
      </trkpt>
      <trkpt lat="14.41312" lon="-60.84706">
        <ele>7</ele>
        <time>2016-06-05T13:01:26.916Z</time>
      </trkpt>
      <trkpt lat="14.4131" lon="-60.84708">
        <ele>7</ele>
        <time>2016-06-05T13:01:27.918Z</time>
      </trkpt>
      <trkpt lat="14.41308" lon="-60.84711">
        <ele>7</ele>
        <time>2016-06-05T13:01:28.919Z</time>
      </trkpt>
      <trkpt lat="14.41307" lon="-60.84714">
        <ele>7</ele>
        <time>2016-06-05T13:01:29.916Z</time>
      </trkpt>
      <trkpt lat="14.41305" lon="-60.84716">
        <ele>7</ele>
        <time>2016-06-05T13:01:30.917Z</time>
      </trkpt>
      <trkpt lat="14.41303" lon="-60.84719">
        <ele>7</ele>
        <time>2016-06-05T13:01:31.914Z</time>
      </trkpt>
      <trkpt lat="14.41301" lon="-60.84721">
        <ele>7</ele>
        <time>2016-06-05T13:01:32.917Z</time>
      </trkpt>
      <trkpt lat="14.41299" lon="-60.84724">
        <ele>7</ele>
        <time>2016-06-05T13:01:33.917Z</time>
      </trkpt>
      <trkpt lat="14.41298" lon="-60.84726">
        <ele>7</ele>
        <time>2016-06-05T13:01:34.916Z</time>
      </trkpt>
      <trkpt lat="14.41296" lon="-60.84729">
        <ele>7</ele>
        <time>2016-06-05T13:01:35.917Z</time>
      </trkpt>
      <trkpt lat="14.41293" lon="-60.84731">
        <ele>7</ele>
        <time>2016-06-05T13:01:36.914Z</time>
      </trkpt>
      <trkpt lat="14.41292" lon="-60.84733">
        <ele>7</ele>
        <time>2016-06-05T13:01:37.913Z</time>
      </trkpt>
      <trkpt lat="14.41291" lon="-60.84735">
        <ele>8</ele>
        <time>2016-06-05T13:01:38.914Z</time>
      </trkpt>
      <trkpt lat="14.41289" lon="-60.84737">
        <ele>8</ele>
        <time>2016-06-05T13:01:39.917Z</time>
      </trkpt>
      <trkpt lat="14.41288" lon="-60.84739">
        <ele>7</ele>
        <time>2016-06-05T13:01:40.921Z</time>
      </trkpt>
      <trkpt lat="14.41286" lon="-60.84741">
        <ele>8</ele>
        <time>2016-06-05T13:01:41.918Z</time>
      </trkpt>
      <trkpt lat="14.41284" lon="-60.84744">
        <ele>8</ele>
        <time>2016-06-05T13:01:42.917Z</time>
      </trkpt>
      <trkpt lat="14.41282" lon="-60.84746">
        <ele>8</ele>
        <time>2016-06-05T13:01:43.918Z</time>
      </trkpt>
      <trkpt lat="14.4128" lon="-60.84749">
        <ele>8</ele>
        <time>2016-06-05T13:01:44.917Z</time>
      </trkpt>
      <trkpt lat="14.41278" lon="-60.84751">
        <ele>8</ele>
        <time>2016-06-05T13:01:45.915Z</time>
      </trkpt>
      <trkpt lat="14.41277" lon="-60.84754">
        <ele>7</ele>
        <time>2016-06-05T13:01:46.916Z</time>
      </trkpt>
      <trkpt lat="14.41275" lon="-60.84757">
        <ele>7</ele>
        <time>2016-06-05T13:01:47.915Z</time>
      </trkpt>
      <trkpt lat="14.41274" lon="-60.84759">
        <ele>8</ele>
        <time>2016-06-05T13:01:48.917Z</time>
      </trkpt>
      <trkpt lat="14.41272" lon="-60.84761">
        <ele>8</ele>
        <time>2016-06-05T13:01:49.918Z</time>
      </trkpt>
      <trkpt lat="14.4127" lon="-60.84764">
        <ele>8</ele>
        <time>2016-06-05T13:01:50.918Z</time>
      </trkpt>
      <trkpt lat="14.41268" lon="-60.84766">
        <ele>8</ele>
        <time>2016-06-05T13:01:51.917Z</time>
      </trkpt>
      <trkpt lat="14.41266" lon="-60.84768">
        <ele>8</ele>
        <time>2016-06-05T13:01:52.914Z</time>
      </trkpt>
      <trkpt lat="14.41264" lon="-60.8477">
        <ele>8</ele>
        <time>2016-06-05T13:01:53.914Z</time>
      </trkpt>
      <trkpt lat="14.41263" lon="-60.84773">
        <ele>8</ele>
        <time>2016-06-05T13:01:54.915Z</time>
      </trkpt>
      <trkpt lat="14.41261" lon="-60.84775">
        <ele>8</ele>
        <time>2016-06-05T13:01:55.916Z</time>
      </trkpt>
      <trkpt lat="14.41259" lon="-60.84777">
        <ele>8</ele>
        <time>2016-06-05T13:01:56.916Z</time>
      </trkpt>
      <trkpt lat="14.41256" lon="-60.84779">
        <ele>8</ele>
        <time>2016-06-05T13:01:57.915Z</time>
      </trkpt>
      <trkpt lat="14.41254" lon="-60.84782">
        <ele>8</ele>
        <time>2016-06-05T13:01:58.914Z</time>
      </trkpt>
      <trkpt lat="14.41252" lon="-60.84784">
        <ele>8</ele>
        <time>2016-06-05T13:01:59.917Z</time>
      </trkpt>
      <trkpt lat="14.4125" lon="-60.84786">
        <ele>8</ele>
        <time>2016-06-05T13:02:00.917Z</time>
      </trkpt>
      <trkpt lat="14.41248" lon="-60.84789">
        <ele>8</ele>
        <time>2016-06-05T13:02:01.914Z</time>
      </trkpt>
      <trkpt lat="14.41246" lon="-60.84791">
        <ele>8</ele>
        <time>2016-06-05T13:02:02.915Z</time>
      </trkpt>
      <trkpt lat="14.41243" lon="-60.84794">
        <ele>8</ele>
        <time>2016-06-05T13:02:03.914Z</time>
      </trkpt>
      <trkpt lat="14.41241" lon="-60.84796">
        <ele>8</ele>
        <time>2016-06-05T13:02:04.916Z</time>
      </trkpt>
      <trkpt lat="14.41239" lon="-60.84799">
        <ele>8</ele>
        <time>2016-06-05T13:02:05.916Z</time>
      </trkpt>
      <trkpt lat="14.41236" lon="-60.84802">
        <ele>8</ele>
        <time>2016-06-05T13:02:06.917Z</time>
      </trkpt>
      <trkpt lat="14.41233" lon="-60.84804">
        <ele>9</ele>
        <time>2016-06-05T13:02:07.917Z</time>
      </trkpt>
      <trkpt lat="14.41231" lon="-60.84807">
        <ele>9</ele>
        <time>2016-06-05T13:02:08.918Z</time>
      </trkpt>
      <trkpt lat="14.41228" lon="-60.8481">
        <ele>8</ele>
        <time>2016-06-05T13:02:09.915Z</time>
      </trkpt>
      <trkpt lat="14.41226" lon="-60.84812">
        <ele>8</ele>
        <time>2016-06-05T13:02:10.918Z</time>
      </trkpt>
      <trkpt lat="14.41224" lon="-60.84815">
        <ele>8</ele>
        <time>2016-06-05T13:02:11.917Z</time>
      </trkpt>
      <trkpt lat="14.41221" lon="-60.84817">
        <ele>8</ele>
        <time>2016-06-05T13:02:12.918Z</time>
      </trkpt>
      <trkpt lat="14.41219" lon="-60.8482">
        <ele>8</ele>
        <time>2016-06-05T13:02:13.920Z</time>
      </trkpt>
      <trkpt lat="14.41217" lon="-60.84822">
        <ele>7</ele>
        <time>2016-06-05T13:02:14.917Z</time>
      </trkpt>
      <trkpt lat="14.41214" lon="-60.84824">
        <ele>7</ele>
        <time>2016-06-05T13:02:15.917Z</time>
      </trkpt>
      <trkpt lat="14.41211" lon="-60.84827">
        <ele>7</ele>
        <time>2016-06-05T13:02:16.919Z</time>
      </trkpt>
      <trkpt lat="14.41209" lon="-60.8483">
        <ele>7</ele>
        <time>2016-06-05T13:02:17.919Z</time>
      </trkpt>
      <trkpt lat="14.41207" lon="-60.84833">
        <ele>8</ele>
        <time>2016-06-05T13:02:18.918Z</time>
      </trkpt>
      <trkpt lat="14.41204" lon="-60.84836">
        <ele>8</ele>
        <time>2016-06-05T13:02:19.917Z</time>
      </trkpt>
      <trkpt lat="14.41203" lon="-60.84839">
        <ele>8</ele>
        <time>2016-06-05T13:02:20.921Z</time>
      </trkpt>
      <trkpt lat="14.412" lon="-60.84842">
        <ele>8</ele>
        <time>2016-06-05T13:02:21.918Z</time>
      </trkpt>
      <trkpt lat="14.41198" lon="-60.84844">
        <ele>8</ele>
        <time>2016-06-05T13:02:22.917Z</time>
      </trkpt>
      <trkpt lat="14.41196" lon="-60.84848">
        <ele>8</ele>
        <time>2016-06-05T13:02:23.918Z</time>
      </trkpt>
      <trkpt lat="14.41193" lon="-60.8485">
        <ele>8</ele>
        <time>2016-06-05T13:02:24.915Z</time>
      </trkpt>
      <trkpt lat="14.4119" lon="-60.84852">
        <ele>8</ele>
        <time>2016-06-05T13:02:25.917Z</time>
      </trkpt>
      <trkpt lat="14.41188" lon="-60.84855">
        <ele>7</ele>
        <time>2016-06-05T13:02:26.912Z</time>
      </trkpt>
      <trkpt lat="14.41185" lon="-60.84858">
        <ele>7</ele>
        <time>2016-06-05T13:02:27.916Z</time>
      </trkpt>
      <trkpt lat="14.41183" lon="-60.84861">
        <ele>8</ele>
        <time>2016-06-05T13:02:28.917Z</time>
      </trkpt>
      <trkpt lat="14.4118" lon="-60.84863">
        <ele>8</ele>
        <time>2016-06-05T13:02:29.916Z</time>
      </trkpt>
      <trkpt lat="14.41178" lon="-60.84866">
        <ele>8</ele>
        <time>2016-06-05T13:02:30.918Z</time>
      </trkpt>
      <trkpt lat="14.41176" lon="-60.84869">
        <ele>8</ele>
        <time>2016-06-05T13:02:31.918Z</time>
      </trkpt>
      <trkpt lat="14.41174" lon="-60.84871">
        <ele>8</ele>
        <time>2016-06-05T13:02:32.916Z</time>
      </trkpt>
      <trkpt lat="14.41172" lon="-60.84874">
        <ele>8</ele>
        <time>2016-06-05T13:02:33.918Z</time>
      </trkpt>
      <trkpt lat="14.4117" lon="-60.84877">
        <ele>8</ele>
        <time>2016-06-05T13:02:34.919Z</time>
      </trkpt>
      <trkpt lat="14.41168" lon="-60.8488">
        <ele>9</ele>
        <time>2016-06-05T13:02:35.920Z</time>
      </trkpt>
      <trkpt lat="14.41166" lon="-60.84882">
        <ele>9</ele>
        <time>2016-06-05T13:02:36.918Z</time>
      </trkpt>
      <trkpt lat="14.41164" lon="-60.84885">
        <ele>8</ele>
        <time>2016-06-05T13:02:37.916Z</time>
      </trkpt>
      <trkpt lat="14.41161" lon="-60.84888">
        <ele>8</ele>
        <time>2016-06-05T13:02:38.917Z</time>
      </trkpt>
      <trkpt lat="14.41159" lon="-60.84891">
        <ele>8</ele>
        <time>2016-06-05T13:02:39.917Z</time>
      </trkpt>
      <trkpt lat="14.41156" lon="-60.84893">
        <ele>8</ele>
        <time>2016-06-05T13:02:40.917Z</time>
      </trkpt>
      <trkpt lat="14.41154" lon="-60.84895">
        <ele>8</ele>
        <time>2016-06-05T13:02:41.915Z</time>
      </trkpt>
      <trkpt lat="14.41151" lon="-60.84898">
        <ele>8</ele>
        <time>2016-06-05T13:02:42.915Z</time>
      </trkpt>
      <trkpt lat="14.41148" lon="-60.849">
        <ele>8</ele>
        <time>2016-06-05T13:02:43.917Z</time>
      </trkpt>
      <trkpt lat="14.41145" lon="-60.84902">
        <ele>9</ele>
        <time>2016-06-05T13:02:44.916Z</time>
      </trkpt>
      <trkpt lat="14.41142" lon="-60.84904">
        <ele>8</ele>
        <time>2016-06-05T13:02:45.917Z</time>
      </trkpt>
      <trkpt lat="14.41139" lon="-60.84906">
        <ele>8</ele>
        <time>2016-06-05T13:02:46.918Z</time>
      </trkpt>
      <trkpt lat="14.41136" lon="-60.84908">
        <ele>8</ele>
        <time>2016-06-05T13:02:47.914Z</time>
      </trkpt>
      <trkpt lat="14.41133" lon="-60.84911">
        <ele>8</ele>
        <time>2016-06-05T13:02:48.912Z</time>
      </trkpt>
      <trkpt lat="14.41131" lon="-60.84914">
        <ele>9</ele>
        <time>2016-06-05T13:02:49.914Z</time>
      </trkpt>
      <trkpt lat="14.41129" lon="-60.84916">
        <ele>9</ele>
        <time>2016-06-05T13:02:50.919Z</time>
      </trkpt>
      <trkpt lat="14.41126" lon="-60.84919">
        <ele>9</ele>
        <time>2016-06-05T13:02:51.915Z</time>
      </trkpt>
      <trkpt lat="14.41124" lon="-60.84921">
        <ele>9</ele>
        <time>2016-06-05T13:02:52.917Z</time>
      </trkpt>
      <trkpt lat="14.41121" lon="-60.84924">
        <ele>9</ele>
        <time>2016-06-05T13:02:53.921Z</time>
      </trkpt>
      <trkpt lat="14.41119" lon="-60.84926">
        <ele>9</ele>
        <time>2016-06-05T13:02:54.918Z</time>
      </trkpt>
      <trkpt lat="14.41117" lon="-60.84928">
        <ele>9</ele>
        <time>2016-06-05T13:02:55.915Z</time>
      </trkpt>
      <trkpt lat="14.41114" lon="-60.8493">
        <ele>9</ele>
        <time>2016-06-05T13:02:56.912Z</time>
      </trkpt>
      <trkpt lat="14.41111" lon="-60.84933">
        <ele>9</ele>
        <time>2016-06-05T13:02:57.915Z</time>
      </trkpt>
      <trkpt lat="14.41109" lon="-60.84935">
        <ele>9</ele>
        <time>2016-06-05T13:02:58.916Z</time>
      </trkpt>
      <trkpt lat="14.41106" lon="-60.84937">
        <ele>9</ele>
        <time>2016-06-05T13:02:59.912Z</time>
      </trkpt>
      <trkpt lat="14.41103" lon="-60.84939">
        <ele>9</ele>
        <time>2016-06-05T13:03:00.914Z</time>
      </trkpt>
      <trkpt lat="14.411" lon="-60.84942">
        <ele>9</ele>
        <time>2016-06-05T13:03:01.917Z</time>
      </trkpt>
      <trkpt lat="14.41097" lon="-60.84944">
        <ele>9</ele>
        <time>2016-06-05T13:03:02.916Z</time>
      </trkpt>
      <trkpt lat="14.41095" lon="-60.84946">
        <ele>9</ele>
        <time>2016-06-05T13:03:03.914Z</time>
      </trkpt>
      <trkpt lat="14.41092" lon="-60.84948">
        <ele>10</ele>
        <time>2016-06-05T13:03:04.917Z</time>
      </trkpt>
      <trkpt lat="14.41089" lon="-60.8495">
        <ele>10</ele>
        <time>2016-06-05T13:03:05.917Z</time>
      </trkpt>
      <trkpt lat="14.41086" lon="-60.84952">
        <ele>9</ele>
        <time>2016-06-05T13:03:06.915Z</time>
      </trkpt>
      <trkpt lat="14.41083" lon="-60.84954">
        <ele>9</ele>
        <time>2016-06-05T13:03:07.915Z</time>
      </trkpt>
      <trkpt lat="14.4108" lon="-60.84956">
        <ele>9</ele>
        <time>2016-06-05T13:03:08.916Z</time>
      </trkpt>
      <trkpt lat="14.41076" lon="-60.84957">
        <ele>9</ele>
        <time>2016-06-05T13:03:09.918Z</time>
      </trkpt>
      <trkpt lat="14.41073" lon="-60.84959">
        <ele>9</ele>
        <time>2016-06-05T13:03:10.918Z</time>
      </trkpt>
      <trkpt lat="14.4107" lon="-60.8496">
        <ele>9</ele>
        <time>2016-06-05T13:03:11.915Z</time>
      </trkpt>
      <trkpt lat="14.41067" lon="-60.84961">
        <ele>9</ele>
        <time>2016-06-05T13:03:12.914Z</time>
      </trkpt>
      <trkpt lat="14.41064" lon="-60.84963">
        <ele>8</ele>
        <time>2016-06-05T13:03:13.914Z</time>
      </trkpt>
      <trkpt lat="14.41061" lon="-60.84964">
        <ele>8</ele>
        <time>2016-06-05T13:03:14.913Z</time>
      </trkpt>
      <trkpt lat="14.41057" lon="-60.84965">
        <ele>8</ele>
        <time>2016-06-05T13:03:15.914Z</time>
      </trkpt>
      <trkpt lat="14.41054" lon="-60.84966">
        <ele>8</ele>
        <time>2016-06-05T13:03:16.915Z</time>
      </trkpt>
      <trkpt lat="14.41051" lon="-60.84967">
        <ele>8</ele>
        <time>2016-06-05T13:03:17.915Z</time>
      </trkpt>
      <trkpt lat="14.41048" lon="-60.84968">
        <ele>8</ele>
        <time>2016-06-05T13:03:18.915Z</time>
      </trkpt>
      <trkpt lat="14.41045" lon="-60.84969">
        <ele>8</ele>
        <time>2016-06-05T13:03:19.911Z</time>
      </trkpt>
      <trkpt lat="14.41041" lon="-60.8497">
        <ele>8</ele>
        <time>2016-06-05T13:03:20.914Z</time>
      </trkpt>
      <trkpt lat="14.41038" lon="-60.84972">
        <ele>8</ele>
        <time>2016-06-05T13:03:21.914Z</time>
      </trkpt>
      <trkpt lat="14.41035" lon="-60.84972">
        <ele>8</ele>
        <time>2016-06-05T13:03:22.912Z</time>
      </trkpt>
      <trkpt lat="14.41032" lon="-60.84974">
        <ele>7</ele>
        <time>2016-06-05T13:03:23.920Z</time>
      </trkpt>
      <trkpt lat="14.41028" lon="-60.84974">
        <ele>7</ele>
        <time>2016-06-05T13:03:24.914Z</time>
      </trkpt>
      <trkpt lat="14.41025" lon="-60.84975">
        <ele>7</ele>
        <time>2016-06-05T13:03:25.915Z</time>
      </trkpt>
      <trkpt lat="14.41022" lon="-60.84976">
        <ele>8</ele>
        <time>2016-06-05T13:03:26.914Z</time>
      </trkpt>
      <trkpt lat="14.41019" lon="-60.84976">
        <ele>8</ele>
        <time>2016-06-05T13:03:27.911Z</time>
      </trkpt>
      <trkpt lat="14.41016" lon="-60.84977">
        <ele>8</ele>
        <time>2016-06-05T13:03:28.916Z</time>
      </trkpt>
      <trkpt lat="14.41013" lon="-60.84978">
        <ele>8</ele>
        <time>2016-06-05T13:03:29.912Z</time>
      </trkpt>
      <trkpt lat="14.4101" lon="-60.84978">
        <ele>8</ele>
        <time>2016-06-05T13:03:30.911Z</time>
      </trkpt>
      <trkpt lat="14.41007" lon="-60.84979">
        <ele>8</ele>
        <time>2016-06-05T13:03:31.914Z</time>
      </trkpt>
      <trkpt lat="14.41004" lon="-60.84979">
        <ele>8</ele>
        <time>2016-06-05T13:03:32.915Z</time>
      </trkpt>
      <trkpt lat="14.41001" lon="-60.8498">
        <ele>8</ele>
        <time>2016-06-05T13:03:33.915Z</time>
      </trkpt>
      <trkpt lat="14.40998" lon="-60.84981">
        <ele>8</ele>
        <time>2016-06-05T13:03:34.916Z</time>
      </trkpt>
      <trkpt lat="14.40995" lon="-60.84982">
        <ele>8</ele>
        <time>2016-06-05T13:03:35.914Z</time>
      </trkpt>
      <trkpt lat="14.40992" lon="-60.84982">
        <ele>7</ele>
        <time>2016-06-05T13:03:36.911Z</time>
      </trkpt>
      <trkpt lat="14.40988" lon="-60.84983">
        <ele>7</ele>
        <time>2016-06-05T13:03:37.915Z</time>
      </trkpt>
      <trkpt lat="14.40985" lon="-60.84984">
        <ele>7</ele>
        <time>2016-06-05T13:03:38.915Z</time>
      </trkpt>
      <trkpt lat="14.40982" lon="-60.84984">
        <ele>7</ele>
        <time>2016-06-05T13:03:39.915Z</time>
      </trkpt>
      <trkpt lat="14.40979" lon="-60.84985">
        <ele>7</ele>
        <time>2016-06-05T13:03:40.916Z</time>
      </trkpt>
      <trkpt lat="14.40976" lon="-60.84985">
        <ele>7</ele>
        <time>2016-06-05T13:03:41.915Z</time>
      </trkpt>
      <trkpt lat="14.40973" lon="-60.84986">
        <ele>7</ele>
        <time>2016-06-05T13:03:42.915Z</time>
      </trkpt>
      <trkpt lat="14.4097" lon="-60.84987">
        <ele>7</ele>
        <time>2016-06-05T13:03:43.915Z</time>
      </trkpt>
      <trkpt lat="14.40967" lon="-60.84988">
        <ele>7</ele>
        <time>2016-06-05T13:03:44.915Z</time>
      </trkpt>
      <trkpt lat="14.40963" lon="-60.84989">
        <ele>7</ele>
        <time>2016-06-05T13:03:45.914Z</time>
      </trkpt>
      <trkpt lat="14.40961" lon="-60.84989">
        <ele>7</ele>
        <time>2016-06-05T13:03:46.916Z</time>
      </trkpt>
      <trkpt lat="14.40957" lon="-60.84989">
        <ele>7</ele>
        <time>2016-06-05T13:03:47.915Z</time>
      </trkpt>
      <trkpt lat="14.40954" lon="-60.84989">
        <ele>7</ele>
        <time>2016-06-05T13:03:48.917Z</time>
      </trkpt>
      <trkpt lat="14.40951" lon="-60.8499">
        <ele>7</ele>
        <time>2016-06-05T13:03:49.916Z</time>
      </trkpt>
      <trkpt lat="14.40948" lon="-60.84991">
        <ele>7</ele>
        <time>2016-06-05T13:03:50.912Z</time>
      </trkpt>
      <trkpt lat="14.40946" lon="-60.84992">
        <ele>7</ele>
        <time>2016-06-05T13:03:51.910Z</time>
      </trkpt>
      <trkpt lat="14.40943" lon="-60.84992">
        <ele>7</ele>
        <time>2016-06-05T13:03:52.909Z</time>
      </trkpt>
      <trkpt lat="14.4094" lon="-60.84993">
        <ele>7</ele>
        <time>2016-06-05T13:03:53.913Z</time>
      </trkpt>
      <trkpt lat="14.40937" lon="-60.84994">
        <ele>7</ele>
        <time>2016-06-05T13:03:54.913Z</time>
      </trkpt>
      <trkpt lat="14.40934" lon="-60.84995">
        <ele>7</ele>
        <time>2016-06-05T13:03:55.915Z</time>
      </trkpt>
      <trkpt lat="14.40931" lon="-60.84996">
        <ele>7</ele>
        <time>2016-06-05T13:03:56.916Z</time>
      </trkpt>
      <trkpt lat="14.40928" lon="-60.84997">
        <ele>7</ele>
        <time>2016-06-05T13:03:57.913Z</time>
      </trkpt>
      <trkpt lat="14.40926" lon="-60.84998">
        <ele>7</ele>
        <time>2016-06-05T13:03:58.915Z</time>
      </trkpt>
      <trkpt lat="14.40923" lon="-60.84998">
        <ele>8</ele>
        <time>2016-06-05T13:03:59.915Z</time>
      </trkpt>
      <trkpt lat="14.4092" lon="-60.84999">
        <ele>8</ele>
        <time>2016-06-05T13:04:00.912Z</time>
      </trkpt>
      <trkpt lat="14.40917" lon="-60.85">
        <ele>8</ele>
        <time>2016-06-05T13:04:01.916Z</time>
      </trkpt>
      <trkpt lat="14.40914" lon="-60.85001">
        <ele>8</ele>
        <time>2016-06-05T13:04:02.915Z</time>
      </trkpt>
      <trkpt lat="14.40912" lon="-60.85002">
        <ele>8</ele>
        <time>2016-06-05T13:04:03.914Z</time>
      </trkpt>
      <trkpt lat="14.40909" lon="-60.85002">
        <ele>8</ele>
        <time>2016-06-05T13:04:04.914Z</time>
      </trkpt>
      <trkpt lat="14.40906" lon="-60.85003">
        <ele>8</ele>
        <time>2016-06-05T13:04:05.915Z</time>
      </trkpt>
      <trkpt lat="14.40904" lon="-60.85003">
        <ele>8</ele>
        <time>2016-06-05T13:04:06.916Z</time>
      </trkpt>
      <trkpt lat="14.40901" lon="-60.85004">
        <ele>8</ele>
        <time>2016-06-05T13:04:07.914Z</time>
      </trkpt>
      <trkpt lat="14.40898" lon="-60.85005">
        <ele>8</ele>
        <time>2016-06-05T13:04:08.914Z</time>
      </trkpt>
      <trkpt lat="14.40895" lon="-60.85006">
        <ele>9</ele>
        <time>2016-06-05T13:04:09.917Z</time>
      </trkpt>
      <trkpt lat="14.40893" lon="-60.85007">
        <ele>8</ele>
        <time>2016-06-05T13:04:10.912Z</time>
      </trkpt>
      <trkpt lat="14.4089" lon="-60.85007">
        <ele>9</ele>
        <time>2016-06-05T13:04:11.910Z</time>
      </trkpt>
      <trkpt lat="14.40887" lon="-60.85008">
        <ele>8</ele>
        <time>2016-06-05T13:04:12.913Z</time>
      </trkpt>
      <trkpt lat="14.40885" lon="-60.85009">
        <ele>8</ele>
        <time>2016-06-05T13:04:13.917Z</time>
      </trkpt>
      <trkpt lat="14.40882" lon="-60.8501">
        <ele>9</ele>
        <time>2016-06-05T13:04:14.914Z</time>
      </trkpt>
      <trkpt lat="14.4088" lon="-60.85011">
        <ele>9</ele>
        <time>2016-06-05T13:04:15.917Z</time>
      </trkpt>
      <trkpt lat="14.40877" lon="-60.85012">
        <ele>8</ele>
        <time>2016-06-05T13:04:16.914Z</time>
      </trkpt>
      <trkpt lat="14.40875" lon="-60.85013">
        <ele>8</ele>
        <time>2016-06-05T13:04:17.911Z</time>
      </trkpt>
      <trkpt lat="14.40872" lon="-60.85014">
        <ele>8</ele>
        <time>2016-06-05T13:04:18.913Z</time>
      </trkpt>
      <trkpt lat="14.4087" lon="-60.85015">
        <ele>8</ele>
        <time>2016-06-05T13:04:19.915Z</time>
      </trkpt>
      <trkpt lat="14.40867" lon="-60.85016">
        <ele>8</ele>
        <time>2016-06-05T13:04:20.911Z</time>
      </trkpt>
      <trkpt lat="14.40864" lon="-60.85017">
        <ele>8</ele>
        <time>2016-06-05T13:04:21.918Z</time>
      </trkpt>
      <trkpt lat="14.40861" lon="-60.85019">
        <ele>8</ele>
        <time>2016-06-05T13:04:22.917Z</time>
      </trkpt>
      <trkpt lat="14.40858" lon="-60.8502">
        <ele>8</ele>
        <time>2016-06-05T13:04:23.919Z</time>
      </trkpt>
      <trkpt lat="14.40856" lon="-60.85021">
        <ele>8</ele>
        <time>2016-06-05T13:04:24.916Z</time>
      </trkpt>
      <trkpt lat="14.40853" lon="-60.85022">
        <ele>8</ele>
        <time>2016-06-05T13:04:25.913Z</time>
      </trkpt>
      <trkpt lat="14.4085" lon="-60.85024">
        <ele>8</ele>
        <time>2016-06-05T13:04:26.918Z</time>
      </trkpt>
      <trkpt lat="14.40847" lon="-60.85025">
        <ele>8</ele>
        <time>2016-06-05T13:04:27.918Z</time>
      </trkpt>
      <trkpt lat="14.40844" lon="-60.85026">
        <ele>8</ele>
        <time>2016-06-05T13:04:28.918Z</time>
      </trkpt>
      <trkpt lat="14.40842" lon="-60.85028">
        <ele>8</ele>
        <time>2016-06-05T13:04:29.915Z</time>
      </trkpt>
      <trkpt lat="14.40839" lon="-60.85029">
        <ele>8</ele>
        <time>2016-06-05T13:04:30.918Z</time>
      </trkpt>
      <trkpt lat="14.40836" lon="-60.8503">
        <ele>8</ele>
        <time>2016-06-05T13:04:31.914Z</time>
      </trkpt>
      <trkpt lat="14.40833" lon="-60.85032">
        <ele>8</ele>
        <time>2016-06-05T13:04:32.912Z</time>
      </trkpt>
      <trkpt lat="14.4083" lon="-60.85033">
        <ele>8</ele>
        <time>2016-06-05T13:04:33.915Z</time>
      </trkpt>
      <trkpt lat="14.40828" lon="-60.85035">
        <ele>8</ele>
        <time>2016-06-05T13:04:34.914Z</time>
      </trkpt>
      <trkpt lat="14.40825" lon="-60.85036">
        <ele>8</ele>
        <time>2016-06-05T13:04:35.916Z</time>
      </trkpt>
      <trkpt lat="14.40823" lon="-60.85038">
        <ele>8</ele>
        <time>2016-06-05T13:04:36.916Z</time>
      </trkpt>
      <trkpt lat="14.4082" lon="-60.85039">
        <ele>8</ele>
        <time>2016-06-05T13:04:37.912Z</time>
      </trkpt>
      <trkpt lat="14.40818" lon="-60.85041">
        <ele>8</ele>
        <time>2016-06-05T13:04:38.914Z</time>
      </trkpt>
      <trkpt lat="14.40816" lon="-60.85042">
        <ele>8</ele>
        <time>2016-06-05T13:04:39.914Z</time>
      </trkpt>
      <trkpt lat="14.40814" lon="-60.85044">
        <ele>8</ele>
        <time>2016-06-05T13:04:40.914Z</time>
      </trkpt>
      <trkpt lat="14.40812" lon="-60.85046">
        <ele>8</ele>
        <time>2016-06-05T13:04:41.913Z</time>
      </trkpt>
      <trkpt lat="14.4081" lon="-60.85048">
        <ele>7</ele>
        <time>2016-06-05T13:04:42.915Z</time>
      </trkpt>
      <trkpt lat="14.40808" lon="-60.85051">
        <ele>7</ele>
        <time>2016-06-05T13:04:43.918Z</time>
      </trkpt>
      <trkpt lat="14.40806" lon="-60.85053">
        <ele>7</ele>
        <time>2016-06-05T13:04:44.916Z</time>
      </trkpt>
      <trkpt lat="14.40804" lon="-60.85054">
        <ele>7</ele>
        <time>2016-06-05T13:04:45.917Z</time>
      </trkpt>
      <trkpt lat="14.40802" lon="-60.85056">
        <ele>8</ele>
        <time>2016-06-05T13:04:46.919Z</time>
      </trkpt>
      <trkpt lat="14.408" lon="-60.85059">
        <ele>8</ele>
        <time>2016-06-05T13:04:47.916Z</time>
      </trkpt>
      <trkpt lat="14.40798" lon="-60.85061">
        <ele>8</ele>
        <time>2016-06-05T13:04:48.918Z</time>
      </trkpt>
      <trkpt lat="14.40796" lon="-60.85064">
        <ele>8</ele>
        <time>2016-06-05T13:04:49.915Z</time>
      </trkpt>
      <trkpt lat="14.40795" lon="-60.85066">
        <ele>8</ele>
        <time>2016-06-05T13:04:50.916Z</time>
      </trkpt>
      <trkpt lat="14.40793" lon="-60.85069">
        <ele>8</ele>
        <time>2016-06-05T13:04:51.917Z</time>
      </trkpt>
      <trkpt lat="14.40791" lon="-60.85071">
        <ele>8</ele>
        <time>2016-06-05T13:04:52.917Z</time>
      </trkpt>
      <trkpt lat="14.4079" lon="-60.85074">
        <ele>8</ele>
        <time>2016-06-05T13:04:53.914Z</time>
      </trkpt>
      <trkpt lat="14.40789" lon="-60.85076">
        <ele>8</ele>
        <time>2016-06-05T13:04:54.910Z</time>
      </trkpt>
      <trkpt lat="14.40788" lon="-60.85079">
        <ele>8</ele>
        <time>2016-06-05T13:04:55.915Z</time>
      </trkpt>
      <trkpt lat="14.40786" lon="-60.85082">
        <ele>8</ele>
        <time>2016-06-05T13:04:56.918Z</time>
      </trkpt>
      <trkpt lat="14.40785" lon="-60.85084">
        <ele>8</ele>
        <time>2016-06-05T13:04:57.917Z</time>
      </trkpt>
      <trkpt lat="14.40784" lon="-60.85086">
        <ele>8</ele>
        <time>2016-06-05T13:04:58.918Z</time>
      </trkpt>
      <trkpt lat="14.40782" lon="-60.85088">
        <ele>8</ele>
        <time>2016-06-05T13:04:59.918Z</time>
      </trkpt>
      <trkpt lat="14.4078" lon="-60.85091">
        <ele>8</ele>
        <time>2016-06-05T13:05:00.918Z</time>
      </trkpt>
      <trkpt lat="14.40779" lon="-60.85093">
        <ele>8</ele>
        <time>2016-06-05T13:05:01.912Z</time>
      </trkpt>
      <trkpt lat="14.40777" lon="-60.85096">
        <ele>8</ele>
        <time>2016-06-05T13:05:02.914Z</time>
      </trkpt>
      <trkpt lat="14.40776" lon="-60.85098">
        <ele>8</ele>
        <time>2016-06-05T13:05:03.912Z</time>
      </trkpt>
      <trkpt lat="14.40775" lon="-60.85101">
        <ele>7</ele>
        <time>2016-06-05T13:05:04.914Z</time>
      </trkpt>
      <trkpt lat="14.40774" lon="-60.85103">
        <ele>7</ele>
        <time>2016-06-05T13:05:05.913Z</time>
      </trkpt>
      <trkpt lat="14.40772" lon="-60.85106">
        <ele>8</ele>
        <time>2016-06-05T13:05:06.912Z</time>
      </trkpt>
      <trkpt lat="14.40771" lon="-60.85108">
        <ele>8</ele>
        <time>2016-06-05T13:05:07.913Z</time>
      </trkpt>
      <trkpt lat="14.4077" lon="-60.85111">
        <ele>8</ele>
        <time>2016-06-05T13:05:08.915Z</time>
      </trkpt>
      <trkpt lat="14.4077" lon="-60.85114">
        <ele>7</ele>
        <time>2016-06-05T13:05:09.915Z</time>
      </trkpt>
      <trkpt lat="14.40768" lon="-60.85116">
        <ele>7</ele>
        <time>2016-06-05T13:05:10.912Z</time>
      </trkpt>
      <trkpt lat="14.40767" lon="-60.85119">
        <ele>7</ele>
        <time>2016-06-05T13:05:11.916Z</time>
      </trkpt>
      <trkpt lat="14.40767" lon="-60.85121">
        <ele>7</ele>
        <time>2016-06-05T13:05:12.916Z</time>
      </trkpt>
      <trkpt lat="14.40766" lon="-60.85124">
        <ele>6</ele>
        <time>2016-06-05T13:05:13.916Z</time>
      </trkpt>
      <trkpt lat="14.40765" lon="-60.85126">
        <ele>6</ele>
        <time>2016-06-05T13:05:14.915Z</time>
      </trkpt>
      <trkpt lat="14.40764" lon="-60.85129">
        <ele>6</ele>
        <time>2016-06-05T13:05:15.917Z</time>
      </trkpt>
      <trkpt lat="14.40762" lon="-60.85132">
        <ele>6</ele>
        <time>2016-06-05T13:05:16.915Z</time>
      </trkpt>
      <trkpt lat="14.40762" lon="-60.85135">
        <ele>6</ele>
        <time>2016-06-05T13:05:17.913Z</time>
      </trkpt>
      <trkpt lat="14.40761" lon="-60.85138">
        <ele>6</ele>
        <time>2016-06-05T13:05:18.912Z</time>
      </trkpt>
      <trkpt lat="14.4076" lon="-60.8514">
        <ele>6</ele>
        <time>2016-06-05T13:05:19.914Z</time>
      </trkpt>
      <trkpt lat="14.40759" lon="-60.85143">
        <ele>6</ele>
        <time>2016-06-05T13:05:20.914Z</time>
      </trkpt>
      <trkpt lat="14.40759" lon="-60.85146">
        <ele>6</ele>
        <time>2016-06-05T13:05:21.915Z</time>
      </trkpt>
      <trkpt lat="14.40758" lon="-60.85149">
        <ele>7</ele>
        <time>2016-06-05T13:05:22.913Z</time>
      </trkpt>
      <trkpt lat="14.40757" lon="-60.85152">
        <ele>7</ele>
        <time>2016-06-05T13:05:23.915Z</time>
      </trkpt>
      <trkpt lat="14.40756" lon="-60.85156">
        <ele>7</ele>
        <time>2016-06-05T13:05:24.913Z</time>
      </trkpt>
      <trkpt lat="14.40755" lon="-60.85159">
        <ele>7</ele>
        <time>2016-06-05T13:05:25.911Z</time>
      </trkpt>
      <trkpt lat="14.40754" lon="-60.85162">
        <ele>8</ele>
        <time>2016-06-05T13:05:26.912Z</time>
      </trkpt>
      <trkpt lat="14.40753" lon="-60.85165">
        <ele>8</ele>
        <time>2016-06-05T13:05:27.911Z</time>
      </trkpt>
      <trkpt lat="14.40752" lon="-60.85168">
        <ele>8</ele>
        <time>2016-06-05T13:05:28.916Z</time>
      </trkpt>
      <trkpt lat="14.40752" lon="-60.85172">
        <ele>8</ele>
        <time>2016-06-05T13:05:29.913Z</time>
      </trkpt>
      <trkpt lat="14.40751" lon="-60.85175">
        <ele>8</ele>
        <time>2016-06-05T13:05:30.913Z</time>
      </trkpt>
      <trkpt lat="14.40749" lon="-60.85178">
        <ele>8</ele>
        <time>2016-06-05T13:05:31.913Z</time>
      </trkpt>
      <trkpt lat="14.40748" lon="-60.85181">
        <ele>8</ele>
        <time>2016-06-05T13:05:32.913Z</time>
      </trkpt>
      <trkpt lat="14.40747" lon="-60.85184">
        <ele>8</ele>
        <time>2016-06-05T13:05:33.913Z</time>
      </trkpt>
      <trkpt lat="14.40745" lon="-60.85188">
        <ele>8</ele>
        <time>2016-06-05T13:05:34.914Z</time>
      </trkpt>
      <trkpt lat="14.40744" lon="-60.85191">
        <ele>8</ele>
        <time>2016-06-05T13:05:35.917Z</time>
      </trkpt>
      <trkpt lat="14.40743" lon="-60.85194">
        <ele>8</ele>
        <time>2016-06-05T13:05:36.913Z</time>
      </trkpt>
      <trkpt lat="14.40742" lon="-60.85197">
        <ele>8</ele>
        <time>2016-06-05T13:05:37.914Z</time>
      </trkpt>
      <trkpt lat="14.40741" lon="-60.852">
        <ele>8</ele>
        <time>2016-06-05T13:05:38.915Z</time>
      </trkpt>
      <trkpt lat="14.4074" lon="-60.85203">
        <ele>8</ele>
        <time>2016-06-05T13:05:39.914Z</time>
      </trkpt>
      <trkpt lat="14.40739" lon="-60.85207">
        <ele>9</ele>
        <time>2016-06-05T13:05:40.916Z</time>
      </trkpt>
      <trkpt lat="14.40737" lon="-60.8521">
        <ele>9</ele>
        <time>2016-06-05T13:05:41.917Z</time>
      </trkpt>
      <trkpt lat="14.40736" lon="-60.85213">
        <ele>9</ele>
        <time>2016-06-05T13:05:42.915Z</time>
      </trkpt>
      <trkpt lat="14.40734" lon="-60.85216">
        <ele>9</ele>
        <time>2016-06-05T13:05:43.916Z</time>
      </trkpt>
      <trkpt lat="14.40733" lon="-60.85219">
        <ele>9</ele>
        <time>2016-06-05T13:05:44.915Z</time>
      </trkpt>
      <trkpt lat="14.40731" lon="-60.85222">
        <ele>9</ele>
        <time>2016-06-05T13:05:45.915Z</time>
      </trkpt>
      <trkpt lat="14.4073" lon="-60.85225">
        <ele>9</ele>
        <time>2016-06-05T13:05:46.915Z</time>
      </trkpt>
      <trkpt lat="14.40728" lon="-60.85228">
        <ele>9</ele>
        <time>2016-06-05T13:05:47.917Z</time>
      </trkpt>
      <trkpt lat="14.40726" lon="-60.85231">
        <ele>9</ele>
        <time>2016-06-05T13:05:48.919Z</time>
      </trkpt>
      <trkpt lat="14.40724" lon="-60.85234">
        <ele>9</ele>
        <time>2016-06-05T13:05:49.915Z</time>
      </trkpt>
      <trkpt lat="14.40722" lon="-60.85237">
        <ele>9</ele>
        <time>2016-06-05T13:05:50.912Z</time>
      </trkpt>
      <trkpt lat="14.40721" lon="-60.8524">
        <ele>9</ele>
        <time>2016-06-05T13:05:51.909Z</time>
      </trkpt>
      <trkpt lat="14.40719" lon="-60.85243">
        <ele>9</ele>
        <time>2016-06-05T13:05:52.909Z</time>
      </trkpt>
      <trkpt lat="14.40717" lon="-60.85246">
        <ele>10</ele>
        <time>2016-06-05T13:05:53.909Z</time>
      </trkpt>
      <trkpt lat="14.40717" lon="-60.8525">
        <ele>9</ele>
        <time>2016-06-05T13:05:54.910Z</time>
      </trkpt>
      <trkpt lat="14.40716" lon="-60.85253">
        <ele>9</ele>
        <time>2016-06-05T13:05:55.932Z</time>
      </trkpt>
      <trkpt lat="14.40714" lon="-60.85256">
        <ele>9</ele>
        <time>2016-06-05T13:05:56.927Z</time>
      </trkpt>
      <trkpt lat="14.40712" lon="-60.85259">
        <ele>9</ele>
        <time>2016-06-05T13:05:57.922Z</time>
      </trkpt>
      <trkpt lat="14.4071" lon="-60.85262">
        <ele>9</ele>
        <time>2016-06-05T13:05:58.916Z</time>
      </trkpt>
      <trkpt lat="14.40708" lon="-60.85265">
        <ele>9</ele>
        <time>2016-06-05T13:05:59.934Z</time>
      </trkpt>
      <trkpt lat="14.40707" lon="-60.85268">
        <ele>9</ele>
        <time>2016-06-05T13:06:00.931Z</time>
      </trkpt>
      <trkpt lat="14.40705" lon="-60.8527">
        <ele>9</ele>
        <time>2016-06-05T13:06:01.913Z</time>
      </trkpt>
      <trkpt lat="14.40703" lon="-60.85273">
        <ele>9</ele>
        <time>2016-06-05T13:06:02.913Z</time>
      </trkpt>
      <trkpt lat="14.40701" lon="-60.85275">
        <ele>9</ele>
        <time>2016-06-05T13:06:03.914Z</time>
      </trkpt>
      <trkpt lat="14.40699" lon="-60.85278">
        <ele>9</ele>
        <time>2016-06-05T13:06:04.911Z</time>
      </trkpt>
      <trkpt lat="14.40696" lon="-60.8528">
        <ele>9</ele>
        <time>2016-06-05T13:06:05.912Z</time>
      </trkpt>
      <trkpt lat="14.40694" lon="-60.85283">
        <ele>8</ele>
        <time>2016-06-05T13:06:06.915Z</time>
      </trkpt>
      <trkpt lat="14.40692" lon="-60.85287">
        <ele>8</ele>
        <time>2016-06-05T13:06:07.911Z</time>
      </trkpt>
      <trkpt lat="14.4069" lon="-60.85289">
        <ele>8</ele>
        <time>2016-06-05T13:06:08.914Z</time>
      </trkpt>
      <trkpt lat="14.40688" lon="-60.85291">
        <ele>8</ele>
        <time>2016-06-05T13:06:09.914Z</time>
      </trkpt>
      <trkpt lat="14.40686" lon="-60.85293">
        <ele>8</ele>
        <time>2016-06-05T13:06:10.914Z</time>
      </trkpt>
      <trkpt lat="14.40683" lon="-60.85295">
        <ele>8</ele>
        <time>2016-06-05T13:06:11.917Z</time>
      </trkpt>
      <trkpt lat="14.40681" lon="-60.85298">
        <ele>8</ele>
        <time>2016-06-05T13:06:12.921Z</time>
      </trkpt>
      <trkpt lat="14.40679" lon="-60.853">
        <ele>8</ele>
        <time>2016-06-05T13:06:13.917Z</time>
      </trkpt>
      <trkpt lat="14.40678" lon="-60.85303">
        <ele>8</ele>
        <time>2016-06-05T13:06:14.910Z</time>
      </trkpt>
      <trkpt lat="14.40676" lon="-60.85305">
        <ele>8</ele>
        <time>2016-06-05T13:06:15.910Z</time>
      </trkpt>
      <trkpt lat="14.40674" lon="-60.85307">
        <ele>8</ele>
        <time>2016-06-05T13:06:16.909Z</time>
      </trkpt>
      <trkpt lat="14.40672" lon="-60.8531">
        <ele>8</ele>
        <time>2016-06-05T13:06:17.910Z</time>
      </trkpt>
      <trkpt lat="14.40669" lon="-60.85312">
        <ele>8</ele>
        <time>2016-06-05T13:06:18.910Z</time>
      </trkpt>
      <trkpt lat="14.40667" lon="-60.85314">
        <ele>8</ele>
        <time>2016-06-05T13:06:19.911Z</time>
      </trkpt>
      <trkpt lat="14.40664" lon="-60.85317">
        <ele>8</ele>
        <time>2016-06-05T13:06:20.912Z</time>
      </trkpt>
      <trkpt lat="14.40663" lon="-60.8532">
        <ele>8</ele>
        <time>2016-06-05T13:06:21.913Z</time>
      </trkpt>
      <trkpt lat="14.40663" lon="-60.85323">
        <ele>8</ele>
        <time>2016-06-05T13:06:22.910Z</time>
      </trkpt>
      <trkpt lat="14.40663" lon="-60.85326">
        <ele>9</ele>
        <time>2016-06-05T13:06:23.910Z</time>
      </trkpt>
      <trkpt lat="14.40662" lon="-60.85329">
        <ele>9</ele>
        <time>2016-06-05T13:06:27.923Z</time>
      </trkpt>
      <trkpt lat="14.40663" lon="-60.8533">
        <ele>10</ele>
        <time>2016-06-05T13:06:28.924Z</time>
      </trkpt>
      <trkpt lat="14.40663" lon="-60.85331">
        <ele>10</ele>
        <time>2016-06-05T13:06:29.916Z</time>
      </trkpt>
      <trkpt lat="14.40665" lon="-60.85333">
        <ele>9</ele>
        <time>2016-06-05T13:06:31.910Z</time>
      </trkpt>
      <trkpt lat="14.40666" lon="-60.85335">
        <ele>10</ele>
        <time>2016-06-05T13:06:32.911Z</time>
      </trkpt>
      <trkpt lat="14.40666" lon="-60.85337">
        <ele>10</ele>
        <time>2016-06-05T13:06:34.909Z</time>
      </trkpt>
      <trkpt lat="14.40666" lon="-60.85339">
        <ele>10</ele>
        <time>2016-06-05T13:06:36.916Z</time>
      </trkpt>
      <trkpt lat="14.40664" lon="-60.85342">
        <ele>10</ele>
        <time>2016-06-05T13:06:40.910Z</time>
      </trkpt>
      <trkpt lat="14.40662" lon="-60.85343">
        <ele>10</ele>
        <time>2016-06-05T13:06:43.911Z</time>
      </trkpt>
      <trkpt lat="14.40661" lon="-60.85343">
        <ele>11</ele>
        <time>2016-06-05T13:06:44.911Z</time>
      </trkpt>
      <trkpt lat="14.40658" lon="-60.85345">
        <ele>10</ele>
        <time>2016-06-05T13:06:48.921Z</time>
      </trkpt>
      <trkpt lat="14.40656" lon="-60.85345">
        <ele>10</ele>
        <time>2016-06-05T13:06:49.919Z</time>
      </trkpt>
      <trkpt lat="14.40655" lon="-60.85345">
        <ele>10</ele>
        <time>2016-06-05T13:06:50.910Z</time>
      </trkpt>
      <trkpt lat="14.40653" lon="-60.85345">
        <ele>11</ele>
        <time>2016-06-05T13:06:51.910Z</time>
      </trkpt>
      <trkpt lat="14.4065" lon="-60.85347">
        <ele>11</ele>
        <time>2016-06-05T13:06:53.912Z</time>
      </trkpt>
      <trkpt lat="14.40648" lon="-60.85347">
        <ele>10</ele>
        <time>2016-06-05T13:06:54.911Z</time>
      </trkpt>
      <trkpt lat="14.40647" lon="-60.85348">
        <ele>10</ele>
        <time>2016-06-05T13:06:55.912Z</time>
      </trkpt>
      <trkpt lat="14.40645" lon="-60.85349">
        <ele>11</ele>
        <time>2016-06-05T13:06:56.912Z</time>
      </trkpt>
      <trkpt lat="14.40643" lon="-60.8535">
        <ele>10</ele>
        <time>2016-06-05T13:06:57.915Z</time>
      </trkpt>
      <trkpt lat="14.40641" lon="-60.85351">
        <ele>10</ele>
        <time>2016-06-05T13:06:58.922Z</time>
      </trkpt>
      <trkpt lat="14.40639" lon="-60.85352">
        <ele>10</ele>
        <time>2016-06-05T13:06:59.918Z</time>
      </trkpt>
      <trkpt lat="14.40636" lon="-60.85353">
        <ele>10</ele>
        <time>2016-06-05T13:07:00.912Z</time>
      </trkpt>
      <trkpt lat="14.40635" lon="-60.85354">
        <ele>10</ele>
        <time>2016-06-05T13:07:01.911Z</time>
      </trkpt>
      <trkpt lat="14.40633" lon="-60.85355">
        <ele>10</ele>
        <time>2016-06-05T13:07:02.912Z</time>
      </trkpt>
      <trkpt lat="14.40631" lon="-60.85356">
        <ele>10</ele>
        <time>2016-06-05T13:07:03.910Z</time>
      </trkpt>
      <trkpt lat="14.4063" lon="-60.85359">
        <ele>10</ele>
        <time>2016-06-05T13:07:04.912Z</time>
      </trkpt>
      <trkpt lat="14.40629" lon="-60.8536">
        <ele>9</ele>
        <time>2016-06-05T13:07:05.910Z</time>
      </trkpt>
      <trkpt lat="14.40627" lon="-60.85363">
        <ele>9</ele>
        <time>2016-06-05T13:07:06.910Z</time>
      </trkpt>
      <trkpt lat="14.40625" lon="-60.85364">
        <ele>9</ele>
        <time>2016-06-05T13:07:07.913Z</time>
      </trkpt>
      <trkpt lat="14.40624" lon="-60.85366">
        <ele>9</ele>
        <time>2016-06-05T13:07:08.918Z</time>
      </trkpt>
      <trkpt lat="14.40622" lon="-60.85368">
        <ele>10</ele>
        <time>2016-06-05T13:07:09.920Z</time>
      </trkpt>
      <trkpt lat="14.4062" lon="-60.85369">
        <ele>9</ele>
        <time>2016-06-05T13:07:10.913Z</time>
      </trkpt>
      <trkpt lat="14.40618" lon="-60.8537">
        <ele>10</ele>
        <time>2016-06-05T13:07:11.913Z</time>
      </trkpt>
      <trkpt lat="14.40616" lon="-60.85372">
        <ele>10</ele>
        <time>2016-06-05T13:07:12.912Z</time>
      </trkpt>
      <trkpt lat="14.40614" lon="-60.85373">
        <ele>10</ele>
        <time>2016-06-05T13:07:13.912Z</time>
      </trkpt>
      <trkpt lat="14.40611" lon="-60.85374">
        <ele>11</ele>
        <time>2016-06-05T13:07:14.912Z</time>
      </trkpt>
      <trkpt lat="14.40609" lon="-60.85375">
        <ele>11</ele>
        <time>2016-06-05T13:07:15.912Z</time>
      </trkpt>
      <trkpt lat="14.40607" lon="-60.85376">
        <ele>11</ele>
        <time>2016-06-05T13:07:16.910Z</time>
      </trkpt>
      <trkpt lat="14.40605" lon="-60.85378">
        <ele>11</ele>
        <time>2016-06-05T13:07:17.912Z</time>
      </trkpt>
      <trkpt lat="14.40604" lon="-60.8538">
        <ele>11</ele>
        <time>2016-06-05T13:07:18.913Z</time>
      </trkpt>
      <trkpt lat="14.40602" lon="-60.85381">
        <ele>11</ele>
        <time>2016-06-05T13:07:19.916Z</time>
      </trkpt>
      <trkpt lat="14.40599" lon="-60.85383">
        <ele>10</ele>
        <time>2016-06-05T13:07:20.917Z</time>
      </trkpt>
      <trkpt lat="14.40597" lon="-60.85384">
        <ele>11</ele>
        <time>2016-06-05T13:07:21.919Z</time>
      </trkpt>
      <trkpt lat="14.40595" lon="-60.85385">
        <ele>11</ele>
        <time>2016-06-05T13:07:22.917Z</time>
      </trkpt>
      <trkpt lat="14.40594" lon="-60.85387">
        <ele>12</ele>
        <time>2016-06-05T13:07:23.923Z</time>
      </trkpt>
      <trkpt lat="14.40593" lon="-60.85388">
        <ele>12</ele>
        <time>2016-06-05T13:07:24.924Z</time>
      </trkpt>
      <trkpt lat="14.40592" lon="-60.85388">
        <ele>12</ele>
        <time>2016-06-05T13:07:25.920Z</time>
      </trkpt>
      <trkpt lat="14.40589" lon="-60.85389">
        <ele>12</ele>
        <time>2016-06-05T13:07:26.916Z</time>
      </trkpt>
      <trkpt lat="14.40587" lon="-60.8539">
        <ele>12</ele>
        <time>2016-06-05T13:07:27.916Z</time>
      </trkpt>
      <trkpt lat="14.40584" lon="-60.8539">
        <ele>12</ele>
        <time>2016-06-05T13:07:28.919Z</time>
      </trkpt>
      <trkpt lat="14.40582" lon="-60.8539">
        <ele>13</ele>
        <time>2016-06-05T13:07:29.921Z</time>
      </trkpt>
      <trkpt lat="14.40581" lon="-60.85391">
        <ele>13</ele>
        <time>2016-06-05T13:07:30.917Z</time>
      </trkpt>
      <trkpt lat="14.40579" lon="-60.85392">
        <ele>13</ele>
        <time>2016-06-05T13:07:31.915Z</time>
      </trkpt>
      <trkpt lat="14.40578" lon="-60.85393">
        <ele>13</ele>
        <time>2016-06-05T13:07:32.916Z</time>
      </trkpt>
      <trkpt lat="14.40576" lon="-60.85395">
        <ele>13</ele>
        <time>2016-06-05T13:07:33.922Z</time>
      </trkpt>
      <trkpt lat="14.40574" lon="-60.85397">
        <ele>13</ele>
        <time>2016-06-05T13:07:34.915Z</time>
      </trkpt>
      <trkpt lat="14.40572" lon="-60.85398">
        <ele>13</ele>
        <time>2016-06-05T13:07:35.913Z</time>
      </trkpt>
      <trkpt lat="14.40571" lon="-60.85399">
        <ele>13</ele>
        <time>2016-06-05T13:07:36.913Z</time>
      </trkpt>
      <trkpt lat="14.40569" lon="-60.85401">
        <ele>12</ele>
        <time>2016-06-05T13:07:37.911Z</time>
      </trkpt>
      <trkpt lat="14.40567" lon="-60.85401">
        <ele>12</ele>
        <time>2016-06-05T13:07:38.912Z</time>
      </trkpt>
      <trkpt lat="14.40565" lon="-60.85402">
        <ele>12</ele>
        <time>2016-06-05T13:07:39.912Z</time>
      </trkpt>
      <trkpt lat="14.40563" lon="-60.85403">
        <ele>12</ele>
        <time>2016-06-05T13:07:40.910Z</time>
      </trkpt>
      <trkpt lat="14.40562" lon="-60.85405">
        <ele>11</ele>
        <time>2016-06-05T13:07:41.910Z</time>
      </trkpt>
      <trkpt lat="14.4056" lon="-60.85406">
        <ele>11</ele>
        <time>2016-06-05T13:07:42.912Z</time>
      </trkpt>
      <trkpt lat="14.40557" lon="-60.85407">
        <ele>11</ele>
        <time>2016-06-05T13:07:43.912Z</time>
      </trkpt>
      <trkpt lat="14.40555" lon="-60.85409">
        <ele>11</ele>
        <time>2016-06-05T13:07:44.911Z</time>
      </trkpt>
      <trkpt lat="14.40553" lon="-60.85411">
        <ele>11</ele>
        <time>2016-06-05T13:07:45.914Z</time>
      </trkpt>
      <trkpt lat="14.40551" lon="-60.85413">
        <ele>11</ele>
        <time>2016-06-05T13:07:46.915Z</time>
      </trkpt>
      <trkpt lat="14.40549" lon="-60.85414">
        <ele>11</ele>
        <time>2016-06-05T13:07:47.914Z</time>
      </trkpt>
      <trkpt lat="14.40546" lon="-60.85414">
        <ele>11</ele>
        <time>2016-06-05T13:07:48.911Z</time>
      </trkpt>
      <trkpt lat="14.40543" lon="-60.85415">
        <ele>11</ele>
        <time>2016-06-05T13:07:49.912Z</time>
      </trkpt>
      <trkpt lat="14.4054" lon="-60.85415">
        <ele>11</ele>
        <time>2016-06-05T13:07:50.912Z</time>
      </trkpt>
      <trkpt lat="14.40537" lon="-60.85416">
        <ele>11</ele>
        <time>2016-06-05T13:07:51.912Z</time>
      </trkpt>
      <trkpt lat="14.40533" lon="-60.85418">
        <ele>11</ele>
        <time>2016-06-05T13:07:52.913Z</time>
      </trkpt>
      <trkpt lat="14.4053" lon="-60.8542">
        <ele>11</ele>
        <time>2016-06-05T13:07:53.912Z</time>
      </trkpt>
      <trkpt lat="14.40526" lon="-60.85421">
        <ele>11</ele>
        <time>2016-06-05T13:07:54.910Z</time>
      </trkpt>
      <trkpt lat="14.40522" lon="-60.85423">
        <ele>10</ele>
        <time>2016-06-05T13:07:55.909Z</time>
      </trkpt>
      <trkpt lat="14.40519" lon="-60.85425">
        <ele>10</ele>
        <time>2016-06-05T13:07:56.912Z</time>
      </trkpt>
      <trkpt lat="14.40515" lon="-60.85427">
        <ele>11</ele>
        <time>2016-06-05T13:07:57.910Z</time>
      </trkpt>
      <trkpt lat="14.40512" lon="-60.8543">
        <ele>11</ele>
        <time>2016-06-05T13:07:58.909Z</time>
      </trkpt>
      <trkpt lat="14.4051" lon="-60.85433">
        <ele>11</ele>
        <time>2016-06-05T13:07:59.911Z</time>
      </trkpt>
      <trkpt lat="14.40507" lon="-60.85436">
        <ele>11</ele>
        <time>2016-06-05T13:08:00.911Z</time>
      </trkpt>
      <trkpt lat="14.40505" lon="-60.85439">
        <ele>11</ele>
        <time>2016-06-05T13:08:01.909Z</time>
      </trkpt>
      <trkpt lat="14.40504" lon="-60.85443">
        <ele>11</ele>
        <time>2016-06-05T13:08:02.911Z</time>
      </trkpt>
      <trkpt lat="14.40505" lon="-60.85447">
        <ele>11</ele>
        <time>2016-06-05T13:08:03.911Z</time>
      </trkpt>
      <trkpt lat="14.40505" lon="-60.8545">
        <ele>11</ele>
        <time>2016-06-05T13:08:04.910Z</time>
      </trkpt>
      <trkpt lat="14.40503" lon="-60.85454">
        <ele>11</ele>
        <time>2016-06-05T13:08:05.913Z</time>
      </trkpt>
      <trkpt lat="14.40501" lon="-60.85456">
        <ele>12</ele>
        <time>2016-06-05T13:08:06.910Z</time>
      </trkpt>
      <trkpt lat="14.405" lon="-60.85459">
        <ele>11</ele>
        <time>2016-06-05T13:08:07.914Z</time>
      </trkpt>
      <trkpt lat="14.40498" lon="-60.85463">
        <ele>11</ele>
        <time>2016-06-05T13:08:08.916Z</time>
      </trkpt>
      <trkpt lat="14.40495" lon="-60.85466">
        <ele>11</ele>
        <time>2016-06-05T13:08:09.915Z</time>
      </trkpt>
      <trkpt lat="14.40492" lon="-60.85469">
        <ele>11</ele>
        <time>2016-06-05T13:08:10.913Z</time>
      </trkpt>
      <trkpt lat="14.40488" lon="-60.85473">
        <ele>11</ele>
        <time>2016-06-05T13:08:11.915Z</time>
      </trkpt>
      <trkpt lat="14.40484" lon="-60.85476">
        <ele>11</ele>
        <time>2016-06-05T13:08:12.912Z</time>
      </trkpt>
      <trkpt lat="14.40481" lon="-60.85479">
        <ele>11</ele>
        <time>2016-06-05T13:08:13.912Z</time>
      </trkpt>
      <trkpt lat="14.40478" lon="-60.85481">
        <ele>11</ele>
        <time>2016-06-05T13:08:14.917Z</time>
      </trkpt>
      <trkpt lat="14.40476" lon="-60.85482">
        <ele>11</ele>
        <time>2016-06-05T13:08:15.911Z</time>
      </trkpt>
      <trkpt lat="14.40474" lon="-60.85483">
        <ele>10</ele>
        <time>2016-06-05T13:08:16.913Z</time>
      </trkpt>
      <trkpt lat="14.40472" lon="-60.85484">
        <ele>10</ele>
        <time>2016-06-05T13:08:17.910Z</time>
      </trkpt>
      <trkpt lat="14.40469" lon="-60.85485">
        <ele>9</ele>
        <time>2016-06-05T13:08:19.913Z</time>
      </trkpt>
      <trkpt lat="14.40468" lon="-60.85488">
        <ele>9</ele>
        <time>2016-06-05T13:08:20.918Z</time>
      </trkpt>
      <trkpt lat="14.40466" lon="-60.8549">
        <ele>8</ele>
        <time>2016-06-05T13:08:21.923Z</time>
      </trkpt>
      <trkpt lat="14.40462" lon="-60.85491">
        <ele>8</ele>
        <time>2016-06-05T13:08:22.924Z</time>
      </trkpt>
      <trkpt lat="14.4046" lon="-60.85491">
        <ele>7</ele>
        <time>2016-06-05T13:08:23.913Z</time>
      </trkpt>
      <trkpt lat="14.40459" lon="-60.8549">
        <ele>7</ele>
        <time>2016-06-05T13:08:24.915Z</time>
      </trkpt>
      <trkpt lat="14.40457" lon="-60.85491">
        <ele>6</ele>
        <time>2016-06-05T13:08:25.913Z</time>
      </trkpt>
      <trkpt lat="14.40455" lon="-60.85493">
        <ele>7</ele>
        <time>2016-06-05T13:08:26.910Z</time>
      </trkpt>
      <trkpt lat="14.40452" lon="-60.85494">
        <ele>7</ele>
        <time>2016-06-05T13:08:27.910Z</time>
      </trkpt>
      <trkpt lat="14.4045" lon="-60.85495">
        <ele>7</ele>
        <time>2016-06-05T13:08:28.913Z</time>
      </trkpt>
      <trkpt lat="14.40448" lon="-60.85496">
        <ele>7</ele>
        <time>2016-06-05T13:08:29.913Z</time>
      </trkpt>
      <trkpt lat="14.40447" lon="-60.85498">
        <ele>8</ele>
        <time>2016-06-05T13:08:30.910Z</time>
      </trkpt>
      <trkpt lat="14.40445" lon="-60.855">
        <ele>8</ele>
        <time>2016-06-05T13:08:31.910Z</time>
      </trkpt>
      <trkpt lat="14.40443" lon="-60.85502">
        <ele>8</ele>
        <time>2016-06-05T13:08:33.917Z</time>
      </trkpt>
      <trkpt lat="14.40443" lon="-60.85504">
        <ele>8</ele>
        <time>2016-06-05T13:08:34.909Z</time>
      </trkpt>
      <trkpt lat="14.40442" lon="-60.85506">
        <ele>9</ele>
        <time>2016-06-05T13:08:35.914Z</time>
      </trkpt>
      <trkpt lat="14.40441" lon="-60.85509">
        <ele>9</ele>
        <time>2016-06-05T13:08:36.917Z</time>
      </trkpt>
      <trkpt lat="14.4044" lon="-60.85511">
        <ele>9</ele>
        <time>2016-06-05T13:08:37.917Z</time>
      </trkpt>
      <trkpt lat="14.40439" lon="-60.85513">
        <ele>9</ele>
        <time>2016-06-05T13:08:38.919Z</time>
      </trkpt>
      <trkpt lat="14.40438" lon="-60.85515">
        <ele>10</ele>
        <time>2016-06-05T13:08:39.920Z</time>
      </trkpt>
      <trkpt lat="14.40436" lon="-60.85517">
        <ele>10</ele>
        <time>2016-06-05T13:08:40.922Z</time>
      </trkpt>
      <trkpt lat="14.40435" lon="-60.8552">
        <ele>10</ele>
        <time>2016-06-05T13:08:41.918Z</time>
      </trkpt>
      <trkpt lat="14.40434" lon="-60.85522">
        <ele>10</ele>
        <time>2016-06-05T13:08:42.918Z</time>
      </trkpt>
      <trkpt lat="14.40433" lon="-60.85525">
        <ele>10</ele>
        <time>2016-06-05T13:08:43.915Z</time>
      </trkpt>
      <trkpt lat="14.40432" lon="-60.85527">
        <ele>10</ele>
        <time>2016-06-05T13:08:44.915Z</time>
      </trkpt>
      <trkpt lat="14.40432" lon="-60.8553">
        <ele>11</ele>
        <time>2016-06-05T13:08:45.917Z</time>
      </trkpt>
      <trkpt lat="14.40432" lon="-60.85533">
        <ele>11</ele>
        <time>2016-06-05T13:08:46.915Z</time>
      </trkpt>
      <trkpt lat="14.40431" lon="-60.85536">
        <ele>11</ele>
        <time>2016-06-05T13:08:47.916Z</time>
      </trkpt>
      <trkpt lat="14.40431" lon="-60.85539">
        <ele>11</ele>
        <time>2016-06-05T13:08:48.913Z</time>
      </trkpt>
      <trkpt lat="14.40429" lon="-60.85541">
        <ele>11</ele>
        <time>2016-06-05T13:08:49.911Z</time>
      </trkpt>
      <trkpt lat="14.40427" lon="-60.85544">
        <ele>11</ele>
        <time>2016-06-05T13:08:50.913Z</time>
      </trkpt>
      <trkpt lat="14.40423" lon="-60.85545">
        <ele>11</ele>
        <time>2016-06-05T13:08:51.915Z</time>
      </trkpt>
      <trkpt lat="14.4042" lon="-60.85545">
        <ele>11</ele>
        <time>2016-06-05T13:08:52.914Z</time>
      </trkpt>
      <trkpt lat="14.40418" lon="-60.85544">
        <ele>11</ele>
        <time>2016-06-05T13:08:53.916Z</time>
      </trkpt>
      <trkpt lat="14.40416" lon="-60.85542">
        <ele>10</ele>
        <time>2016-06-05T13:08:54.926Z</time>
      </trkpt>
      <trkpt lat="14.40414" lon="-60.85541">
        <ele>10</ele>
        <time>2016-06-05T13:08:55.918Z</time>
      </trkpt>
      <trkpt lat="14.40412" lon="-60.85542">
        <ele>11</ele>
        <time>2016-06-05T13:08:56.916Z</time>
      </trkpt>
      <trkpt lat="14.4041" lon="-60.85542">
        <ele>11</ele>
        <time>2016-06-05T13:08:57.916Z</time>
      </trkpt>
      <trkpt lat="14.40408" lon="-60.85543">
        <ele>11</ele>
        <time>2016-06-05T13:08:58.917Z</time>
      </trkpt>
      <trkpt lat="14.40406" lon="-60.85543">
        <ele>11</ele>
        <time>2016-06-05T13:08:59.917Z</time>
      </trkpt>
      <trkpt lat="14.40404" lon="-60.85543">
        <ele>12</ele>
        <time>2016-06-05T13:09:00.920Z</time>
      </trkpt>
      <trkpt lat="14.40403" lon="-60.85544">
        <ele>12</ele>
        <time>2016-06-05T13:09:01.920Z</time>
      </trkpt>
      <trkpt lat="14.40401" lon="-60.85547">
        <ele>11</ele>
        <time>2016-06-05T13:09:03.918Z</time>
      </trkpt>
      <trkpt lat="14.40399" lon="-60.85549">
        <ele>12</ele>
        <time>2016-06-05T13:09:04.918Z</time>
      </trkpt>
      <trkpt lat="14.40397" lon="-60.8555">
        <ele>12</ele>
        <time>2016-06-05T13:09:05.919Z</time>
      </trkpt>
      <trkpt lat="14.40394" lon="-60.85551">
        <ele>12</ele>
        <time>2016-06-05T13:09:06.921Z</time>
      </trkpt>
      <trkpt lat="14.40392" lon="-60.85552">
        <ele>13</ele>
        <time>2016-06-05T13:09:07.922Z</time>
      </trkpt>
      <trkpt lat="14.40392" lon="-60.85555">
        <ele>13</ele>
        <time>2016-06-05T13:09:08.914Z</time>
      </trkpt>
      <trkpt lat="14.4039" lon="-60.85557">
        <ele>13</ele>
        <time>2016-06-05T13:09:09.915Z</time>
      </trkpt>
      <trkpt lat="14.40389" lon="-60.85558">
        <ele>13</ele>
        <time>2016-06-05T13:09:10.915Z</time>
      </trkpt>
      <trkpt lat="14.40387" lon="-60.85559">
        <ele>13</ele>
        <time>2016-06-05T13:09:11.914Z</time>
      </trkpt>
      <trkpt lat="14.40385" lon="-60.85561">
        <ele>13</ele>
        <time>2016-06-05T13:09:12.912Z</time>
      </trkpt>
      <trkpt lat="14.40383" lon="-60.85561">
        <ele>13</ele>
        <time>2016-06-05T13:09:13.914Z</time>
      </trkpt>
      <trkpt lat="14.40382" lon="-60.85562">
        <ele>13</ele>
        <time>2016-06-05T13:09:14.912Z</time>
      </trkpt>
      <trkpt lat="14.40378" lon="-60.85563">
        <ele>12</ele>
        <time>2016-06-05T13:09:16.912Z</time>
      </trkpt>
      <trkpt lat="14.40375" lon="-60.85563">
        <ele>11</ele>
        <time>2016-06-05T13:09:17.910Z</time>
      </trkpt>
      <trkpt lat="14.40372" lon="-60.85565">
        <ele>12</ele>
        <time>2016-06-05T13:09:18.915Z</time>
      </trkpt>
      <trkpt lat="14.4037" lon="-60.85568">
        <ele>11</ele>
        <time>2016-06-05T13:09:19.914Z</time>
      </trkpt>
      <trkpt lat="14.40367" lon="-60.8557">
        <ele>12</ele>
        <time>2016-06-05T13:09:20.912Z</time>
      </trkpt>
      <trkpt lat="14.40364" lon="-60.85572">
        <ele>12</ele>
        <time>2016-06-05T13:09:21.913Z</time>
      </trkpt>
      <trkpt lat="14.40363" lon="-60.85573">
        <ele>12</ele>
        <time>2016-06-05T13:09:22.916Z</time>
      </trkpt>
      <trkpt lat="14.40361" lon="-60.85574">
        <ele>12</ele>
        <time>2016-06-05T13:09:23.918Z</time>
      </trkpt>
      <trkpt lat="14.40359" lon="-60.85574">
        <ele>12</ele>
        <time>2016-06-05T13:09:24.919Z</time>
      </trkpt>
      <trkpt lat="14.40356" lon="-60.85573">
        <ele>12</ele>
        <time>2016-06-05T13:09:25.928Z</time>
      </trkpt>
      <trkpt lat="14.40355" lon="-60.85572">
        <ele>12</ele>
        <time>2016-06-05T13:09:26.923Z</time>
      </trkpt>
      <trkpt lat="14.40353" lon="-60.85571">
        <ele>12</ele>
        <time>2016-06-05T13:09:28.914Z</time>
      </trkpt>
      <trkpt lat="14.40351" lon="-60.8557">
        <ele>12</ele>
        <time>2016-06-05T13:09:29.912Z</time>
      </trkpt>
      <trkpt lat="14.40349" lon="-60.85568">
        <ele>11</ele>
        <time>2016-06-05T13:09:30.915Z</time>
      </trkpt>
      <trkpt lat="14.40346" lon="-60.85566">
        <ele>11</ele>
        <time>2016-06-05T13:09:31.913Z</time>
      </trkpt>
      <trkpt lat="14.40343" lon="-60.85564">
        <ele>10</ele>
        <time>2016-06-05T13:09:32.913Z</time>
      </trkpt>
      <trkpt lat="14.40341" lon="-60.85561">
        <ele>10</ele>
        <time>2016-06-05T13:09:33.914Z</time>
      </trkpt>
      <trkpt lat="14.40339" lon="-60.85558">
        <ele>11</ele>
        <time>2016-06-05T13:09:34.917Z</time>
      </trkpt>
      <trkpt lat="14.40337" lon="-60.85556">
        <ele>11</ele>
        <time>2016-06-05T13:09:35.916Z</time>
      </trkpt>
      <trkpt lat="14.40336" lon="-60.85554">
        <ele>12</ele>
        <time>2016-06-05T13:09:36.914Z</time>
      </trkpt>
      <trkpt lat="14.40334" lon="-60.85552">
        <ele>13</ele>
        <time>2016-06-05T13:09:37.914Z</time>
      </trkpt>
      <trkpt lat="14.40332" lon="-60.85549">
        <ele>14</ele>
        <time>2016-06-05T13:09:38.914Z</time>
      </trkpt>
      <trkpt lat="14.4033" lon="-60.85547">
        <ele>14</ele>
        <time>2016-06-05T13:09:39.913Z</time>
      </trkpt>
      <trkpt lat="14.40327" lon="-60.85546">
        <ele>14</ele>
        <time>2016-06-05T13:09:40.911Z</time>
      </trkpt>
      <trkpt lat="14.40325" lon="-60.85545">
        <ele>15</ele>
        <time>2016-06-05T13:09:41.912Z</time>
      </trkpt>
      <trkpt lat="14.40322" lon="-60.85544">
        <ele>15</ele>
        <time>2016-06-05T13:09:42.915Z</time>
      </trkpt>
      <trkpt lat="14.40319" lon="-60.85543">
        <ele>14</ele>
        <time>2016-06-05T13:09:43.912Z</time>
      </trkpt>
      <trkpt lat="14.40316" lon="-60.85542">
        <ele>14</ele>
        <time>2016-06-05T13:09:44.912Z</time>
      </trkpt>
      <trkpt lat="14.40313" lon="-60.85541">
        <ele>14</ele>
        <time>2016-06-05T13:09:45.911Z</time>
      </trkpt>
      <trkpt lat="14.4031" lon="-60.85542">
        <ele>13</ele>
        <time>2016-06-05T13:09:46.912Z</time>
      </trkpt>
      <trkpt lat="14.40307" lon="-60.85542">
        <ele>13</ele>
        <time>2016-06-05T13:09:47.914Z</time>
      </trkpt>
      <trkpt lat="14.40304" lon="-60.85542">
        <ele>14</ele>
        <time>2016-06-05T13:09:48.914Z</time>
      </trkpt>
      <trkpt lat="14.40302" lon="-60.85542">
        <ele>14</ele>
        <time>2016-06-05T13:09:49.914Z</time>
      </trkpt>
      <trkpt lat="14.40299" lon="-60.85542">
        <ele>14</ele>
        <time>2016-06-05T13:09:50.917Z</time>
      </trkpt>
      <trkpt lat="14.40297" lon="-60.85543">
        <ele>14</ele>
        <time>2016-06-05T13:09:51.915Z</time>
      </trkpt>
      <trkpt lat="14.40295" lon="-60.85543">
        <ele>15</ele>
        <time>2016-06-05T13:09:52.916Z</time>
      </trkpt>
      <trkpt lat="14.40293" lon="-60.85543">
        <ele>15</ele>
        <time>2016-06-05T13:09:53.915Z</time>
      </trkpt>
      <trkpt lat="14.40291" lon="-60.85544">
        <ele>15</ele>
        <time>2016-06-05T13:09:54.914Z</time>
      </trkpt>
      <trkpt lat="14.40289" lon="-60.85544">
        <ele>15</ele>
        <time>2016-06-05T13:09:55.915Z</time>
      </trkpt>
      <trkpt lat="14.40287" lon="-60.85544">
        <ele>15</ele>
        <time>2016-06-05T13:09:56.914Z</time>
      </trkpt>
      <trkpt lat="14.40284" lon="-60.85545">
        <ele>15</ele>
        <time>2016-06-05T13:09:57.915Z</time>
      </trkpt>
      <trkpt lat="14.40282" lon="-60.85545">
        <ele>15</ele>
        <time>2016-06-05T13:09:58.914Z</time>
      </trkpt>
      <trkpt lat="14.4028" lon="-60.85545">
        <ele>15</ele>
        <time>2016-06-05T13:09:59.914Z</time>
      </trkpt>
      <trkpt lat="14.40278" lon="-60.85545">
        <ele>16</ele>
        <time>2016-06-05T13:10:00.914Z</time>
      </trkpt>
      <trkpt lat="14.40276" lon="-60.85546">
        <ele>16</ele>
        <time>2016-06-05T13:10:01.916Z</time>
      </trkpt>
      <trkpt lat="14.40274" lon="-60.85546">
        <ele>16</ele>
        <time>2016-06-05T13:10:02.915Z</time>
      </trkpt>
      <trkpt lat="14.40272" lon="-60.85547">
        <ele>16</ele>
        <time>2016-06-05T13:10:03.914Z</time>
      </trkpt>
      <trkpt lat="14.4027" lon="-60.85548">
        <ele>16</ele>
        <time>2016-06-05T13:10:04.916Z</time>
      </trkpt>
      <trkpt lat="14.40268" lon="-60.85548">
        <ele>16</ele>
        <time>2016-06-05T13:10:05.916Z</time>
      </trkpt>
      <trkpt lat="14.40265" lon="-60.85549">
        <ele>16</ele>
        <time>2016-06-05T13:10:06.914Z</time>
      </trkpt>
      <trkpt lat="14.40263" lon="-60.8555">
        <ele>16</ele>
        <time>2016-06-05T13:10:07.916Z</time>
      </trkpt>
      <trkpt lat="14.40261" lon="-60.85551">
        <ele>16</ele>
        <time>2016-06-05T13:10:08.915Z</time>
      </trkpt>
      <trkpt lat="14.40258" lon="-60.85551">
        <ele>16</ele>
        <time>2016-06-05T13:10:09.911Z</time>
      </trkpt>
      <trkpt lat="14.40255" lon="-60.85552">
        <ele>16</ele>
        <time>2016-06-05T13:10:10.913Z</time>
      </trkpt>
      <trkpt lat="14.40252" lon="-60.85553">
        <ele>16</ele>
        <time>2016-06-05T13:10:11.915Z</time>
      </trkpt>
      <trkpt lat="14.4025" lon="-60.85554">
        <ele>15</ele>
        <time>2016-06-05T13:10:12.912Z</time>
      </trkpt>
      <trkpt lat="14.40248" lon="-60.85556">
        <ele>16</ele>
        <time>2016-06-05T13:10:13.913Z</time>
      </trkpt>
      <trkpt lat="14.40246" lon="-60.85558">
        <ele>16</ele>
        <time>2016-06-05T13:10:14.912Z</time>
      </trkpt>
      <trkpt lat="14.40243" lon="-60.8556">
        <ele>16</ele>
        <time>2016-06-05T13:10:15.914Z</time>
      </trkpt>
      <trkpt lat="14.40241" lon="-60.85562">
        <ele>15</ele>
        <time>2016-06-05T13:10:16.917Z</time>
      </trkpt>
      <trkpt lat="14.40239" lon="-60.85564">
        <ele>15</ele>
        <time>2016-06-05T13:10:17.915Z</time>
      </trkpt>
      <trkpt lat="14.40236" lon="-60.85566">
        <ele>15</ele>
        <time>2016-06-05T13:10:18.918Z</time>
      </trkpt>
      <trkpt lat="14.40234" lon="-60.85568">
        <ele>15</ele>
        <time>2016-06-05T13:10:19.916Z</time>
      </trkpt>
      <trkpt lat="14.40232" lon="-60.85571">
        <ele>15</ele>
        <time>2016-06-05T13:10:20.916Z</time>
      </trkpt>
      <trkpt lat="14.4023" lon="-60.85574">
        <ele>15</ele>
        <time>2016-06-05T13:10:21.915Z</time>
      </trkpt>
      <trkpt lat="14.40229" lon="-60.85577">
        <ele>15</ele>
        <time>2016-06-05T13:10:22.918Z</time>
      </trkpt>
      <trkpt lat="14.40228" lon="-60.85581">
        <ele>14</ele>
        <time>2016-06-05T13:10:23.915Z</time>
      </trkpt>
      <trkpt lat="14.40226" lon="-60.85584">
        <ele>14</ele>
        <time>2016-06-05T13:10:24.917Z</time>
      </trkpt>
      <trkpt lat="14.40225" lon="-60.85587">
        <ele>15</ele>
        <time>2016-06-05T13:10:25.922Z</time>
      </trkpt>
      <trkpt lat="14.40224" lon="-60.85589">
        <ele>14</ele>
        <time>2016-06-05T13:10:26.919Z</time>
      </trkpt>
      <trkpt lat="14.40223" lon="-60.85593">
        <ele>15</ele>
        <time>2016-06-05T13:10:27.920Z</time>
      </trkpt>
      <trkpt lat="14.40221" lon="-60.85596">
        <ele>15</ele>
        <time>2016-06-05T13:10:28.922Z</time>
      </trkpt>
      <trkpt lat="14.4022" lon="-60.85599">
        <ele>15</ele>
        <time>2016-06-05T13:10:29.921Z</time>
      </trkpt>
      <trkpt lat="14.40219" lon="-60.85601">
        <ele>15</ele>
        <time>2016-06-05T13:10:30.923Z</time>
      </trkpt>
      <trkpt lat="14.40217" lon="-60.85604">
        <ele>15</ele>
        <time>2016-06-05T13:10:31.919Z</time>
      </trkpt>
      <trkpt lat="14.40216" lon="-60.85607">
        <ele>15</ele>
        <time>2016-06-05T13:10:32.920Z</time>
      </trkpt>
      <trkpt lat="14.40214" lon="-60.8561">
        <ele>14</ele>
        <time>2016-06-05T13:10:33.925Z</time>
      </trkpt>
      <trkpt lat="14.40213" lon="-60.85613">
        <ele>15</ele>
        <time>2016-06-05T13:10:34.917Z</time>
      </trkpt>
      <trkpt lat="14.40212" lon="-60.85615">
        <ele>15</ele>
        <time>2016-06-05T13:10:35.916Z</time>
      </trkpt>
      <trkpt lat="14.40211" lon="-60.85618">
        <ele>14</ele>
        <time>2016-06-05T13:10:36.915Z</time>
      </trkpt>
      <trkpt lat="14.4021" lon="-60.85621">
        <ele>14</ele>
        <time>2016-06-05T13:10:37.915Z</time>
      </trkpt>
      <trkpt lat="14.4021" lon="-60.85625">
        <ele>14</ele>
        <time>2016-06-05T13:10:38.918Z</time>
      </trkpt>
      <trkpt lat="14.4021" lon="-60.85628">
        <ele>14</ele>
        <time>2016-06-05T13:10:39.917Z</time>
      </trkpt>
      <trkpt lat="14.40208" lon="-60.85631">
        <ele>14</ele>
        <time>2016-06-05T13:10:40.919Z</time>
      </trkpt>
      <trkpt lat="14.40206" lon="-60.85634">
        <ele>15</ele>
        <time>2016-06-05T13:10:41.916Z</time>
      </trkpt>
      <trkpt lat="14.40205" lon="-60.85636">
        <ele>15</ele>
        <time>2016-06-05T13:10:42.915Z</time>
      </trkpt>
      <trkpt lat="14.40203" lon="-60.85639">
        <ele>15</ele>
        <time>2016-06-05T13:10:43.916Z</time>
      </trkpt>
      <trkpt lat="14.40201" lon="-60.8564">
        <ele>15</ele>
        <time>2016-06-05T13:10:44.915Z</time>
      </trkpt>
      <trkpt lat="14.40198" lon="-60.85642">
        <ele>15</ele>
        <time>2016-06-05T13:10:45.917Z</time>
      </trkpt>
      <trkpt lat="14.40195" lon="-60.85644">
        <ele>15</ele>
        <time>2016-06-05T13:10:46.916Z</time>
      </trkpt>
      <trkpt lat="14.40192" lon="-60.85645">
        <ele>15</ele>
        <time>2016-06-05T13:10:47.914Z</time>
      </trkpt>
      <trkpt lat="14.40189" lon="-60.85646">
        <ele>15</ele>
        <time>2016-06-05T13:10:48.917Z</time>
      </trkpt>
      <trkpt lat="14.40187" lon="-60.85648">
        <ele>15</ele>
        <time>2016-06-05T13:10:49.917Z</time>
      </trkpt>
      <trkpt lat="14.40184" lon="-60.8565">
        <ele>15</ele>
        <time>2016-06-05T13:10:50.917Z</time>
      </trkpt>
      <trkpt lat="14.40181" lon="-60.85651">
        <ele>15</ele>
        <time>2016-06-05T13:10:51.916Z</time>
      </trkpt>
      <trkpt lat="14.40178" lon="-60.85652">
        <ele>14</ele>
        <time>2016-06-05T13:10:52.916Z</time>
      </trkpt>
      <trkpt lat="14.40174" lon="-60.85654">
        <ele>14</ele>
        <time>2016-06-05T13:10:53.916Z</time>
      </trkpt>
      <trkpt lat="14.40171" lon="-60.85656">
        <ele>14</ele>
        <time>2016-06-05T13:10:54.911Z</time>
      </trkpt>
      <trkpt lat="14.40168" lon="-60.85657">
        <ele>14</ele>
        <time>2016-06-05T13:10:55.911Z</time>
      </trkpt>
      <trkpt lat="14.40165" lon="-60.85659">
        <ele>14</ele>
        <time>2016-06-05T13:10:56.909Z</time>
      </trkpt>
      <trkpt lat="14.40161" lon="-60.85661">
        <ele>14</ele>
        <time>2016-06-05T13:10:57.908Z</time>
      </trkpt>
      <trkpt lat="14.40158" lon="-60.85662">
        <ele>14</ele>
        <time>2016-06-05T13:10:58.913Z</time>
      </trkpt>
      <trkpt lat="14.40154" lon="-60.85663">
        <ele>14</ele>
        <time>2016-06-05T13:10:59.910Z</time>
      </trkpt>
      <trkpt lat="14.40151" lon="-60.85664">
        <ele>14</ele>
        <time>2016-06-05T13:11:00.909Z</time>
      </trkpt>
      <trkpt lat="14.40147" lon="-60.85665">
        <ele>13</ele>
        <time>2016-06-05T13:11:01.908Z</time>
      </trkpt>
      <trkpt lat="14.40143" lon="-60.85664">
        <ele>14</ele>
        <time>2016-06-05T13:11:02.910Z</time>
      </trkpt>
      <trkpt lat="14.4014" lon="-60.85664">
        <ele>13</ele>
        <time>2016-06-05T13:11:03.913Z</time>
      </trkpt>
      <trkpt lat="14.40136" lon="-60.85664">
        <ele>14</ele>
        <time>2016-06-05T13:11:04.911Z</time>
      </trkpt>
      <trkpt lat="14.40132" lon="-60.85665">
        <ele>14</ele>
        <time>2016-06-05T13:11:05.910Z</time>
      </trkpt>
      <trkpt lat="14.40129" lon="-60.85666">
        <ele>14</ele>
        <time>2016-06-05T13:11:06.910Z</time>
      </trkpt>
      <trkpt lat="14.40126" lon="-60.85667">
        <ele>14</ele>
        <time>2016-06-05T13:11:07.908Z</time>
      </trkpt>
      <trkpt lat="14.40122" lon="-60.85667">
        <ele>14</ele>
        <time>2016-06-05T13:11:08.912Z</time>
      </trkpt>
      <trkpt lat="14.4012" lon="-60.85668">
        <ele>15</ele>
        <time>2016-06-05T13:11:09.911Z</time>
      </trkpt>
      <trkpt lat="14.40117" lon="-60.85669">
        <ele>15</ele>
        <time>2016-06-05T13:11:10.911Z</time>
      </trkpt>
      <trkpt lat="14.40114" lon="-60.8567">
        <ele>14</ele>
        <time>2016-06-05T13:11:11.910Z</time>
      </trkpt>
      <trkpt lat="14.40111" lon="-60.85671">
        <ele>14</ele>
        <time>2016-06-05T13:11:12.909Z</time>
      </trkpt>
      <trkpt lat="14.40108" lon="-60.85673">
        <ele>14</ele>
        <time>2016-06-05T13:11:13.912Z</time>
      </trkpt>
      <trkpt lat="14.40105" lon="-60.85673">
        <ele>14</ele>
        <time>2016-06-05T13:11:14.909Z</time>
      </trkpt>
      <trkpt lat="14.40102" lon="-60.85674">
        <ele>14</ele>
        <time>2016-06-05T13:11:15.909Z</time>
      </trkpt>
      <trkpt lat="14.40099" lon="-60.85675">
        <ele>14</ele>
        <time>2016-06-05T13:11:16.908Z</time>
      </trkpt>
      <trkpt lat="14.40095" lon="-60.85675">
        <ele>14</ele>
        <time>2016-06-05T13:11:17.908Z</time>
      </trkpt>
      <trkpt lat="14.40092" lon="-60.85674">
        <ele>14</ele>
        <time>2016-06-05T13:11:18.910Z</time>
      </trkpt>
      <trkpt lat="14.40088" lon="-60.85674">
        <ele>14</ele>
        <time>2016-06-05T13:11:19.914Z</time>
      </trkpt>
      <trkpt lat="14.40085" lon="-60.85674">
        <ele>14</ele>
        <time>2016-06-05T13:11:20.910Z</time>
      </trkpt>
      <trkpt lat="14.40082" lon="-60.85674">
        <ele>14</ele>
        <time>2016-06-05T13:11:21.911Z</time>
      </trkpt>
      <trkpt lat="14.40078" lon="-60.85675">
        <ele>14</ele>
        <time>2016-06-05T13:11:22.911Z</time>
      </trkpt>
      <trkpt lat="14.40075" lon="-60.85676">
        <ele>14</ele>
        <time>2016-06-05T13:11:23.915Z</time>
      </trkpt>
      <trkpt lat="14.40072" lon="-60.85677">
        <ele>14</ele>
        <time>2016-06-05T13:11:24.915Z</time>
      </trkpt>
      <trkpt lat="14.40069" lon="-60.85678">
        <ele>14</ele>
        <time>2016-06-05T13:11:25.910Z</time>
      </trkpt>
      <trkpt lat="14.40067" lon="-60.85678">
        <ele>14</ele>
        <time>2016-06-05T13:11:26.909Z</time>
      </trkpt>
      <trkpt lat="14.40064" lon="-60.85678">
        <ele>14</ele>
        <time>2016-06-05T13:11:27.908Z</time>
      </trkpt>
      <trkpt lat="14.40061" lon="-60.85677">
        <ele>14</ele>
        <time>2016-06-05T13:11:28.909Z</time>
      </trkpt>
      <trkpt lat="14.40057" lon="-60.85677">
        <ele>14</ele>
        <time>2016-06-05T13:11:29.911Z</time>
      </trkpt>
      <trkpt lat="14.40054" lon="-60.85677">
        <ele>14</ele>
        <time>2016-06-05T13:11:30.911Z</time>
      </trkpt>
      <trkpt lat="14.40051" lon="-60.85676">
        <ele>14</ele>
        <time>2016-06-05T13:11:31.910Z</time>
      </trkpt>
      <trkpt lat="14.40048" lon="-60.85676">
        <ele>15</ele>
        <time>2016-06-05T13:11:32.909Z</time>
      </trkpt>
      <trkpt lat="14.40046" lon="-60.85674">
        <ele>15</ele>
        <time>2016-06-05T13:11:33.911Z</time>
      </trkpt>
      <trkpt lat="14.40043" lon="-60.85673">
        <ele>15</ele>
        <time>2016-06-05T13:11:34.913Z</time>
      </trkpt>
      <trkpt lat="14.4004" lon="-60.85672">
        <ele>15</ele>
        <time>2016-06-05T13:11:35.915Z</time>
      </trkpt>
      <trkpt lat="14.40036" lon="-60.85671">
        <ele>15</ele>
        <time>2016-06-05T13:11:36.916Z</time>
      </trkpt>
      <trkpt lat="14.40033" lon="-60.8567">
        <ele>15</ele>
        <time>2016-06-05T13:11:37.917Z</time>
      </trkpt>
      <trkpt lat="14.4003" lon="-60.85669">
        <ele>15</ele>
        <time>2016-06-05T13:11:38.916Z</time>
      </trkpt>
      <trkpt lat="14.40026" lon="-60.85666">
        <ele>15</ele>
        <time>2016-06-05T13:11:39.918Z</time>
      </trkpt>
      <trkpt lat="14.40023" lon="-60.85664">
        <ele>15</ele>
        <time>2016-06-05T13:11:40.920Z</time>
      </trkpt>
      <trkpt lat="14.4002" lon="-60.85661">
        <ele>15</ele>
        <time>2016-06-05T13:11:41.914Z</time>
      </trkpt>
      <trkpt lat="14.40017" lon="-60.85659">
        <ele>15</ele>
        <time>2016-06-05T13:11:42.913Z</time>
      </trkpt>
      <trkpt lat="14.40016" lon="-60.85656">
        <ele>15</ele>
        <time>2016-06-05T13:11:43.913Z</time>
      </trkpt>
      <trkpt lat="14.40015" lon="-60.85652">
        <ele>15</ele>
        <time>2016-06-05T13:11:44.915Z</time>
      </trkpt>
      <trkpt lat="14.40013" lon="-60.8565">
        <ele>16</ele>
        <time>2016-06-05T13:11:45.915Z</time>
      </trkpt>
      <trkpt lat="14.40011" lon="-60.85647">
        <ele>16</ele>
        <time>2016-06-05T13:11:46.916Z</time>
      </trkpt>
      <trkpt lat="14.40009" lon="-60.85644">
        <ele>16</ele>
        <time>2016-06-05T13:11:47.915Z</time>
      </trkpt>
      <trkpt lat="14.40006" lon="-60.85642">
        <ele>16</ele>
        <time>2016-06-05T13:11:48.915Z</time>
      </trkpt>
      <trkpt lat="14.40004" lon="-60.8564">
        <ele>16</ele>
        <time>2016-06-05T13:11:49.915Z</time>
      </trkpt>
      <trkpt lat="14.40001" lon="-60.85639">
        <ele>16</ele>
        <time>2016-06-05T13:11:50.916Z</time>
      </trkpt>
      <trkpt lat="14.39997" lon="-60.85638">
        <ele>15</ele>
        <time>2016-06-05T13:11:51.917Z</time>
      </trkpt>
      <trkpt lat="14.39994" lon="-60.85637">
        <ele>16</ele>
        <time>2016-06-05T13:11:52.917Z</time>
      </trkpt>
      <trkpt lat="14.39991" lon="-60.85637">
        <ele>16</ele>
        <time>2016-06-05T13:11:53.915Z</time>
      </trkpt>
      <trkpt lat="14.39989" lon="-60.85637">
        <ele>16</ele>
        <time>2016-06-05T13:11:54.911Z</time>
      </trkpt>
      <trkpt lat="14.39986" lon="-60.85636">
        <ele>16</ele>
        <time>2016-06-05T13:11:55.910Z</time>
      </trkpt>
      <trkpt lat="14.39984" lon="-60.85635">
        <ele>16</ele>
        <time>2016-06-05T13:11:56.909Z</time>
      </trkpt>
      <trkpt lat="14.39983" lon="-60.85634">
        <ele>17</ele>
        <time>2016-06-05T13:11:57.910Z</time>
      </trkpt>
      <trkpt lat="14.39981" lon="-60.85633">
        <ele>17</ele>
        <time>2016-06-05T13:11:58.912Z</time>
      </trkpt>
      <trkpt lat="14.39978" lon="-60.85632">
        <ele>17</ele>
        <time>2016-06-05T13:11:59.910Z</time>
      </trkpt>
      <trkpt lat="14.39977" lon="-60.85631">
        <ele>17</ele>
        <time>2016-06-05T13:12:00.914Z</time>
      </trkpt>
      <trkpt lat="14.39975" lon="-60.8563">
        <ele>17</ele>
        <time>2016-06-05T13:12:01.914Z</time>
      </trkpt>
      <trkpt lat="14.39974" lon="-60.85628">
        <ele>17</ele>
        <time>2016-06-05T13:12:02.916Z</time>
      </trkpt>
      <trkpt lat="14.39972" lon="-60.85627">
        <ele>17</ele>
        <time>2016-06-05T13:12:03.916Z</time>
      </trkpt>
      <trkpt lat="14.39971" lon="-60.85626">
        <ele>18</ele>
        <time>2016-06-05T13:12:04.916Z</time>
      </trkpt>
      <trkpt lat="14.39968" lon="-60.85625">
        <ele>18</ele>
        <time>2016-06-05T13:12:05.917Z</time>
      </trkpt>
      <trkpt lat="14.39966" lon="-60.85624">
        <ele>18</ele>
        <time>2016-06-05T13:12:06.915Z</time>
      </trkpt>
      <trkpt lat="14.39964" lon="-60.85623">
        <ele>18</ele>
        <time>2016-06-05T13:12:07.920Z</time>
      </trkpt>
      <trkpt lat="14.39962" lon="-60.85623">
        <ele>18</ele>
        <time>2016-06-05T13:12:08.923Z</time>
      </trkpt>
      <trkpt lat="14.3996" lon="-60.85623">
        <ele>18</ele>
        <time>2016-06-05T13:12:09.915Z</time>
      </trkpt>
      <trkpt lat="14.39958" lon="-60.85622">
        <ele>19</ele>
        <time>2016-06-05T13:12:10.916Z</time>
      </trkpt>
      <trkpt lat="14.39956" lon="-60.85622">
        <ele>19</ele>
        <time>2016-06-05T13:12:11.915Z</time>
      </trkpt>
      <trkpt lat="14.39953" lon="-60.85622">
        <ele>19</ele>
        <time>2016-06-05T13:12:12.913Z</time>
      </trkpt>
      <trkpt lat="14.39951" lon="-60.85621">
        <ele>20</ele>
        <time>2016-06-05T13:12:13.916Z</time>
      </trkpt>
      <trkpt lat="14.39949" lon="-60.8562">
        <ele>20</ele>
        <time>2016-06-05T13:12:14.917Z</time>
      </trkpt>
      <trkpt lat="14.39947" lon="-60.8562">
        <ele>21</ele>
        <time>2016-06-05T13:12:15.922Z</time>
      </trkpt>
      <trkpt lat="14.39945" lon="-60.85618">
        <ele>20</ele>
        <time>2016-06-05T13:12:16.923Z</time>
      </trkpt>
      <trkpt lat="14.39942" lon="-60.85617">
        <ele>21</ele>
        <time>2016-06-05T13:12:17.924Z</time>
      </trkpt>
      <trkpt lat="14.3994" lon="-60.85617">
        <ele>21</ele>
        <time>2016-06-05T13:12:18.921Z</time>
      </trkpt>
      <trkpt lat="14.39939" lon="-60.85616">
        <ele>21</ele>
        <time>2016-06-05T13:12:19.917Z</time>
      </trkpt>
      <trkpt lat="14.39937" lon="-60.85615">
        <ele>22</ele>
        <time>2016-06-05T13:12:20.919Z</time>
      </trkpt>
      <trkpt lat="14.39935" lon="-60.85615">
        <ele>21</ele>
        <time>2016-06-05T13:12:21.923Z</time>
      </trkpt>
      <trkpt lat="14.39933" lon="-60.85614">
        <ele>21</ele>
        <time>2016-06-05T13:12:22.920Z</time>
      </trkpt>
      <trkpt lat="14.39931" lon="-60.85613">
        <ele>21</ele>
        <time>2016-06-05T13:12:23.925Z</time>
      </trkpt>
      <trkpt lat="14.39929" lon="-60.85613">
        <ele>21</ele>
        <time>2016-06-05T13:12:24.918Z</time>
      </trkpt>
      <trkpt lat="14.39927" lon="-60.85612">
        <ele>21</ele>
        <time>2016-06-05T13:12:25.943Z</time>
      </trkpt>
      <trkpt lat="14.39926" lon="-60.85612">
        <ele>21</ele>
        <time>2016-06-05T13:12:26.932Z</time>
      </trkpt>
      <trkpt lat="14.39924" lon="-60.85611">
        <ele>21</ele>
        <time>2016-06-05T13:12:27.921Z</time>
      </trkpt>
      <trkpt lat="14.39922" lon="-60.8561">
        <ele>21</ele>
        <time>2016-06-05T13:12:28.923Z</time>
      </trkpt>
      <trkpt lat="14.39921" lon="-60.8561">
        <ele>21</ele>
        <time>2016-06-05T13:12:29.919Z</time>
      </trkpt>
      <trkpt lat="14.39919" lon="-60.85609">
        <ele>21</ele>
        <time>2016-06-05T13:12:30.920Z</time>
      </trkpt>
      <trkpt lat="14.39917" lon="-60.85608">
        <ele>21</ele>
        <time>2016-06-05T13:12:31.924Z</time>
      </trkpt>
      <trkpt lat="14.39915" lon="-60.85607">
        <ele>22</ele>
        <time>2016-06-05T13:12:33.921Z</time>
      </trkpt>
      <trkpt lat="14.39913" lon="-60.85607">
        <ele>22</ele>
        <time>2016-06-05T13:12:34.923Z</time>
      </trkpt>
      <trkpt lat="14.39912" lon="-60.85605">
        <ele>22</ele>
        <time>2016-06-05T13:12:35.924Z</time>
      </trkpt>
      <trkpt lat="14.39911" lon="-60.85605">
        <ele>22</ele>
        <time>2016-06-05T13:12:36.920Z</time>
      </trkpt>
      <trkpt lat="14.39909" lon="-60.85604">
        <ele>22</ele>
        <time>2016-06-05T13:12:37.921Z</time>
      </trkpt>
      <trkpt lat="14.39908" lon="-60.85602">
        <ele>23</ele>
        <time>2016-06-05T13:12:38.921Z</time>
      </trkpt>
      <trkpt lat="14.39907" lon="-60.85601">
        <ele>22</ele>
        <time>2016-06-05T13:12:39.919Z</time>
      </trkpt>
      <trkpt lat="14.39906" lon="-60.856">
        <ele>22</ele>
        <time>2016-06-05T13:12:40.917Z</time>
      </trkpt>
      <trkpt lat="14.39904" lon="-60.85598">
        <ele>22</ele>
        <time>2016-06-05T13:12:42.921Z</time>
      </trkpt>
      <trkpt lat="14.39903" lon="-60.85597">
        <ele>22</ele>
        <time>2016-06-05T13:12:43.923Z</time>
      </trkpt>
      <trkpt lat="14.39901" lon="-60.85597">
        <ele>22</ele>
        <time>2016-06-05T13:12:44.919Z</time>
      </trkpt>
      <trkpt lat="14.399" lon="-60.85596">
        <ele>22</ele>
        <time>2016-06-05T13:12:45.914Z</time>
      </trkpt>
      <trkpt lat="14.39897" lon="-60.85595">
        <ele>21</ele>
        <time>2016-06-05T13:12:46.913Z</time>
      </trkpt>
      <trkpt lat="14.39894" lon="-60.85596">
        <ele>21</ele>
        <time>2016-06-05T13:12:47.913Z</time>
      </trkpt>
      <trkpt lat="14.39891" lon="-60.85599">
        <ele>20</ele>
        <time>2016-06-05T13:12:48.914Z</time>
      </trkpt>
      <trkpt lat="14.3989" lon="-60.85602">
        <ele>20</ele>
        <time>2016-06-05T13:12:49.914Z</time>
      </trkpt>
      <trkpt lat="14.39887" lon="-60.85605">
        <ele>20</ele>
        <time>2016-06-05T13:12:50.915Z</time>
      </trkpt>
      <trkpt lat="14.39885" lon="-60.85609">
        <ele>21</ele>
        <time>2016-06-05T13:12:51.915Z</time>
      </trkpt>
      <trkpt lat="14.39883" lon="-60.85612">
        <ele>21</ele>
        <time>2016-06-05T13:12:52.913Z</time>
      </trkpt>
      <trkpt lat="14.39882" lon="-60.85615">
        <ele>21</ele>
        <time>2016-06-05T13:12:53.909Z</time>
      </trkpt>
      <trkpt lat="14.39879" lon="-60.85618">
        <ele>21</ele>
        <time>2016-06-05T13:12:54.908Z</time>
      </trkpt>
      <trkpt lat="14.39877" lon="-60.85621">
        <ele>21</ele>
        <time>2016-06-05T13:12:55.909Z</time>
      </trkpt>
      <trkpt lat="14.39875" lon="-60.85624">
        <ele>21</ele>
        <time>2016-06-05T13:12:56.908Z</time>
      </trkpt>
      <trkpt lat="14.39872" lon="-60.85628">
        <ele>21</ele>
        <time>2016-06-05T13:12:57.913Z</time>
      </trkpt>
      <trkpt lat="14.39869" lon="-60.85631">
        <ele>20</ele>
        <time>2016-06-05T13:12:58.910Z</time>
      </trkpt>
      <trkpt lat="14.39866" lon="-60.85634">
        <ele>20</ele>
        <time>2016-06-05T13:12:59.909Z</time>
      </trkpt>
      <trkpt lat="14.39862" lon="-60.85637">
        <ele>20</ele>
        <time>2016-06-05T13:13:00.909Z</time>
      </trkpt>
      <trkpt lat="14.39858" lon="-60.85639">
        <ele>20</ele>
        <time>2016-06-05T13:13:01.907Z</time>
      </trkpt>
      <trkpt lat="14.39855" lon="-60.85641">
        <ele>20</ele>
        <time>2016-06-05T13:13:02.910Z</time>
      </trkpt>
      <trkpt lat="14.39851" lon="-60.85643">
        <ele>20</ele>
        <time>2016-06-05T13:13:03.909Z</time>
      </trkpt>
      <trkpt lat="14.39847" lon="-60.85645">
        <ele>20</ele>
        <time>2016-06-05T13:13:04.914Z</time>
      </trkpt>
      <trkpt lat="14.39844" lon="-60.85646">
        <ele>20</ele>
        <time>2016-06-05T13:13:05.916Z</time>
      </trkpt>
      <trkpt lat="14.39841" lon="-60.85647">
        <ele>21</ele>
        <time>2016-06-05T13:13:06.916Z</time>
      </trkpt>
      <trkpt lat="14.39838" lon="-60.85648">
        <ele>21</ele>
        <time>2016-06-05T13:13:07.914Z</time>
      </trkpt>
      <trkpt lat="14.39835" lon="-60.8565">
        <ele>21</ele>
        <time>2016-06-05T13:13:08.911Z</time>
      </trkpt>
      <trkpt lat="14.39833" lon="-60.85652">
        <ele>21</ele>
        <time>2016-06-05T13:13:09.907Z</time>
      </trkpt>
      <trkpt lat="14.39832" lon="-60.85654">
        <ele>21</ele>
        <time>2016-06-05T13:13:10.911Z</time>
      </trkpt>
      <trkpt lat="14.39831" lon="-60.85655">
        <ele>22</ele>
        <time>2016-06-05T13:13:11.909Z</time>
      </trkpt>
      <trkpt lat="14.3983" lon="-60.85656">
        <ele>22</ele>
        <time>2016-06-05T13:13:12.912Z</time>
      </trkpt>
      <trkpt lat="14.39829" lon="-60.85658">
        <ele>22</ele>
        <time>2016-06-05T13:13:13.916Z</time>
      </trkpt>
      <trkpt lat="14.39827" lon="-60.8566">
        <ele>22</ele>
        <time>2016-06-05T13:13:14.916Z</time>
      </trkpt>
      <trkpt lat="14.39826" lon="-60.85662">
        <ele>21</ele>
        <time>2016-06-05T13:13:15.917Z</time>
      </trkpt>
      <trkpt lat="14.39824" lon="-60.85663">
        <ele>21</ele>
        <time>2016-06-05T13:13:16.916Z</time>
      </trkpt>
      <trkpt lat="14.39823" lon="-60.85665">
        <ele>21</ele>
        <time>2016-06-05T13:13:17.918Z</time>
      </trkpt>
      <trkpt lat="14.39822" lon="-60.85665">
        <ele>20</ele>
        <time>2016-06-05T13:13:18.916Z</time>
      </trkpt>
      <trkpt lat="14.39819" lon="-60.85666">
        <ele>20</ele>
        <time>2016-06-05T13:13:20.915Z</time>
      </trkpt>
      <trkpt lat="14.39817" lon="-60.85667">
        <ele>19</ele>
        <time>2016-06-05T13:13:21.917Z</time>
      </trkpt>
      <trkpt lat="14.39815" lon="-60.85668">
        <ele>19</ele>
        <time>2016-06-05T13:13:23.911Z</time>
      </trkpt>
      <trkpt lat="14.39811" lon="-60.85669">
        <ele>19</ele>
        <time>2016-06-05T13:13:25.908Z</time>
      </trkpt>
      <trkpt lat="14.3981" lon="-60.8567">
        <ele>18</ele>
        <time>2016-06-05T13:13:26.910Z</time>
      </trkpt>
      <trkpt lat="14.39808" lon="-60.85671">
        <ele>17</ele>
        <time>2016-06-05T13:13:27.908Z</time>
      </trkpt>
      <trkpt lat="14.39806" lon="-60.85672">
        <ele>17</ele>
        <time>2016-06-05T13:13:28.910Z</time>
      </trkpt>
      <trkpt lat="14.39805" lon="-60.85674">
        <ele>17</ele>
        <time>2016-06-05T13:13:29.913Z</time>
      </trkpt>
      <trkpt lat="14.39804" lon="-60.85677">
        <ele>17</ele>
        <time>2016-06-05T13:13:30.915Z</time>
      </trkpt>
      <trkpt lat="14.39804" lon="-60.85679">
        <ele>16</ele>
        <time>2016-06-05T13:13:31.917Z</time>
      </trkpt>
      <trkpt lat="14.39804" lon="-60.85682">
        <ele>16</ele>
        <time>2016-06-05T13:13:32.916Z</time>
      </trkpt>
      <trkpt lat="14.39804" lon="-60.85684">
        <ele>15</ele>
        <time>2016-06-05T13:13:33.917Z</time>
      </trkpt>
      <trkpt lat="14.39803" lon="-60.85686">
        <ele>15</ele>
        <time>2016-06-05T13:13:34.916Z</time>
      </trkpt>
      <trkpt lat="14.39803" lon="-60.85688">
        <ele>15</ele>
        <time>2016-06-05T13:13:35.915Z</time>
      </trkpt>
      <trkpt lat="14.39804" lon="-60.85689">
        <ele>15</ele>
        <time>2016-06-05T13:13:36.916Z</time>
      </trkpt>
      <trkpt lat="14.39805" lon="-60.85691">
        <ele>14</ele>
        <time>2016-06-05T13:13:37.915Z</time>
      </trkpt>
      <trkpt lat="14.39806" lon="-60.85693">
        <ele>13</ele>
        <time>2016-06-05T13:13:38.916Z</time>
      </trkpt>
      <trkpt lat="14.39807" lon="-60.85694">
        <ele>13</ele>
        <time>2016-06-05T13:13:39.915Z</time>
      </trkpt>
      <trkpt lat="14.39808" lon="-60.85696">
        <ele>13</ele>
        <time>2016-06-05T13:13:40.914Z</time>
      </trkpt>
      <trkpt lat="14.39809" lon="-60.85698">
        <ele>12</ele>
        <time>2016-06-05T13:13:41.913Z</time>
      </trkpt>
      <trkpt lat="14.3981" lon="-60.857">
        <ele>12</ele>
        <time>2016-06-05T13:13:42.916Z</time>
      </trkpt>
      <trkpt lat="14.3981" lon="-60.85703">
        <ele>11</ele>
        <time>2016-06-05T13:13:43.919Z</time>
      </trkpt>
      <trkpt lat="14.39811" lon="-60.85705">
        <ele>11</ele>
        <time>2016-06-05T13:13:44.923Z</time>
      </trkpt>
      <trkpt lat="14.39812" lon="-60.85706">
        <ele>11</ele>
        <time>2016-06-05T13:13:45.916Z</time>
      </trkpt>
      <trkpt lat="14.39812" lon="-60.85708">
        <ele>11</ele>
        <time>2016-06-05T13:13:46.916Z</time>
      </trkpt>
      <trkpt lat="14.39812" lon="-60.8571">
        <ele>11</ele>
        <time>2016-06-05T13:13:47.915Z</time>
      </trkpt>
      <trkpt lat="14.39813" lon="-60.85713">
        <ele>9</ele>
        <time>2016-06-05T13:13:49.913Z</time>
      </trkpt>
      <trkpt lat="14.39813" lon="-60.85715">
        <ele>8</ele>
        <time>2016-06-05T13:13:50.915Z</time>
      </trkpt>
      <trkpt lat="14.39813" lon="-60.85717">
        <ele>9</ele>
        <time>2016-06-05T13:13:51.915Z</time>
      </trkpt>
      <trkpt lat="14.39814" lon="-60.85719">
        <ele>8</ele>
        <time>2016-06-05T13:13:52.914Z</time>
      </trkpt>
      <trkpt lat="14.39815" lon="-60.85721">
        <ele>8</ele>
        <time>2016-06-05T13:13:54.909Z</time>
      </trkpt>
      <trkpt lat="14.39815" lon="-60.85723">
        <ele>8</ele>
        <time>2016-06-05T13:13:55.908Z</time>
      </trkpt>
      <trkpt lat="14.39816" lon="-60.85726">
        <ele>8</ele>
        <time>2016-06-05T13:13:56.908Z</time>
      </trkpt>
      <trkpt lat="14.39815" lon="-60.85729">
        <ele>9</ele>
        <time>2016-06-05T13:13:57.909Z</time>
      </trkpt>
      <trkpt lat="14.39814" lon="-60.85731">
        <ele>9</ele>
        <time>2016-06-05T13:13:58.909Z</time>
      </trkpt>
      <trkpt lat="14.39814" lon="-60.85733">
        <ele>9</ele>
        <time>2016-06-05T13:13:59.910Z</time>
      </trkpt>
      <trkpt lat="14.39816" lon="-60.85735">
        <ele>9</ele>
        <time>2016-06-05T13:14:00.915Z</time>
      </trkpt>
      <trkpt lat="14.39815" lon="-60.85737">
        <ele>9</ele>
        <time>2016-06-05T13:14:01.914Z</time>
      </trkpt>
      <trkpt lat="14.39816" lon="-60.85739">
        <ele>9</ele>
        <time>2016-06-05T13:14:02.914Z</time>
      </trkpt>
      <trkpt lat="14.39817" lon="-60.85741">
        <ele>8</ele>
        <time>2016-06-05T13:14:03.917Z</time>
      </trkpt>
      <trkpt lat="14.39817" lon="-60.85743">
        <ele>8</ele>
        <time>2016-06-05T13:14:04.914Z</time>
      </trkpt>
      <trkpt lat="14.39817" lon="-60.85745">
        <ele>8</ele>
        <time>2016-06-05T13:14:05.914Z</time>
      </trkpt>
      <trkpt lat="14.39817" lon="-60.85747">
        <ele>8</ele>
        <time>2016-06-05T13:14:06.914Z</time>
      </trkpt>
      <trkpt lat="14.39818" lon="-60.85749">
        <ele>8</ele>
        <time>2016-06-05T13:14:07.916Z</time>
      </trkpt>
      <trkpt lat="14.39819" lon="-60.85751">
        <ele>8</ele>
        <time>2016-06-05T13:14:08.914Z</time>
      </trkpt>
      <trkpt lat="14.3982" lon="-60.85754">
        <ele>8</ele>
        <time>2016-06-05T13:14:09.914Z</time>
      </trkpt>
      <trkpt lat="14.39821" lon="-60.85756">
        <ele>8</ele>
        <time>2016-06-05T13:14:10.916Z</time>
      </trkpt>
      <trkpt lat="14.39821" lon="-60.85759">
        <ele>8</ele>
        <time>2016-06-05T13:14:11.915Z</time>
      </trkpt>
      <trkpt lat="14.39821" lon="-60.85762">
        <ele>8</ele>
        <time>2016-06-05T13:14:12.914Z</time>
      </trkpt>
      <trkpt lat="14.3982" lon="-60.85764">
        <ele>8</ele>
        <time>2016-06-05T13:14:13.913Z</time>
      </trkpt>
      <trkpt lat="14.3982" lon="-60.85766">
        <ele>8</ele>
        <time>2016-06-05T13:14:14.913Z</time>
      </trkpt>
      <trkpt lat="14.39819" lon="-60.85768">
        <ele>7</ele>
        <time>2016-06-05T13:14:15.909Z</time>
      </trkpt>
      <trkpt lat="14.39818" lon="-60.85771">
        <ele>6</ele>
        <time>2016-06-05T13:14:17.909Z</time>
      </trkpt>
      <trkpt lat="14.39819" lon="-60.85775">
        <ele>7</ele>
        <time>2016-06-05T13:14:22.915Z</time>
      </trkpt>
      <trkpt lat="14.3982" lon="-60.85777">
        <ele>7</ele>
        <time>2016-06-05T13:14:24.917Z</time>
      </trkpt>
      <trkpt lat="14.3982" lon="-60.85779">
        <ele>8</ele>
        <time>2016-06-05T13:14:25.915Z</time>
      </trkpt>
      <trkpt lat="14.3982" lon="-60.8578">
        <ele>7</ele>
        <time>2016-06-05T13:14:27.915Z</time>
      </trkpt>
      <trkpt lat="14.3982" lon="-60.85782">
        <ele>8</ele>
        <time>2016-06-05T13:14:28.914Z</time>
      </trkpt>
      <trkpt lat="14.3982" lon="-60.85783">
        <ele>8</ele>
        <time>2016-06-05T13:14:29.914Z</time>
      </trkpt>
      <trkpt lat="14.39821" lon="-60.85786">
        <ele>9</ele>
        <time>2016-06-05T13:14:31.912Z</time>
      </trkpt>
      <trkpt lat="14.39821" lon="-60.85788">
        <ele>9</ele>
        <time>2016-06-05T13:14:33.911Z</time>
      </trkpt>
      <trkpt lat="14.39823" lon="-60.8579">
        <ele>9</ele>
        <time>2016-06-05T13:14:35.914Z</time>
      </trkpt>
      <trkpt lat="14.39822" lon="-60.85793">
        <ele>9</ele>
        <time>2016-06-05T13:14:40.911Z</time>
      </trkpt>
      <trkpt lat="14.39822" lon="-60.85795">
        <ele>9</ele>
        <time>2016-06-05T13:14:41.910Z</time>
      </trkpt>
      <trkpt lat="14.39822" lon="-60.85798">
        <ele>9</ele>
        <time>2016-06-05T13:14:42.908Z</time>
      </trkpt>
      <trkpt lat="14.39822" lon="-60.85799">
        <ele>9</ele>
        <time>2016-06-05T13:14:43.909Z</time>
      </trkpt>
      <trkpt lat="14.3982" lon="-60.85801">
        <ele>9</ele>
        <time>2016-06-05T13:14:44.909Z</time>
      </trkpt>
      <trkpt lat="14.39818" lon="-60.85804">
        <ele>10</ele>
        <time>2016-06-05T13:14:46.911Z</time>
      </trkpt>
      <trkpt lat="14.39818" lon="-60.85806">
        <ele>10</ele>
        <time>2016-06-05T13:14:47.913Z</time>
      </trkpt>
      <trkpt lat="14.39815" lon="-60.85807">
        <ele>11</ele>
        <time>2016-06-05T13:14:50.915Z</time>
      </trkpt>
      <trkpt lat="14.39814" lon="-60.85809">
        <ele>12</ele>
        <time>2016-06-05T13:14:52.914Z</time>
      </trkpt>
      <trkpt lat="14.39814" lon="-60.85811">
        <ele>10</ele>
        <time>2016-06-05T13:14:54.916Z</time>
      </trkpt>
      <trkpt lat="14.39813" lon="-60.85813">
        <ele>11</ele>
        <time>2016-06-05T13:14:56.912Z</time>
      </trkpt>
      <trkpt lat="14.39812" lon="-60.85815">
        <ele>10</ele>
        <time>2016-06-05T13:14:58.914Z</time>
      </trkpt>
      <trkpt lat="14.3981" lon="-60.85817">
        <ele>11</ele>
        <time>2016-06-05T13:15:00.912Z</time>
      </trkpt>
      <trkpt lat="14.39808" lon="-60.85819">
        <ele>11</ele>
        <time>2016-06-05T13:15:02.912Z</time>
      </trkpt>
      <trkpt lat="14.39807" lon="-60.8582">
        <ele>12</ele>
        <time>2016-06-05T13:15:04.913Z</time>
      </trkpt>
      <trkpt lat="14.39806" lon="-60.85822">
        <ele>12</ele>
        <time>2016-06-05T13:15:06.911Z</time>
      </trkpt>
      <trkpt lat="14.39805" lon="-60.85824">
        <ele>11</ele>
        <time>2016-06-05T13:15:08.913Z</time>
      </trkpt>
      <trkpt lat="14.39804" lon="-60.85827">
        <ele>12</ele>
        <time>2016-06-05T13:15:10.911Z</time>
      </trkpt>
      <trkpt lat="14.39802" lon="-60.85828">
        <ele>12</ele>
        <time>2016-06-05T13:15:12.916Z</time>
      </trkpt>
      <trkpt lat="14.39802" lon="-60.8583">
        <ele>13</ele>
        <time>2016-06-05T13:15:14.910Z</time>
      </trkpt>
      <trkpt lat="14.39801" lon="-60.85831">
        <ele>13</ele>
        <time>2016-06-05T13:15:16.913Z</time>
      </trkpt>
      <trkpt lat="14.398" lon="-60.85833">
        <ele>13</ele>
        <time>2016-06-05T13:15:18.913Z</time>
      </trkpt>
      <trkpt lat="14.39799" lon="-60.85835">
        <ele>14</ele>
        <time>2016-06-05T13:15:20.914Z</time>
      </trkpt>
      <trkpt lat="14.39798" lon="-60.85836">
        <ele>14</ele>
        <time>2016-06-05T13:15:22.915Z</time>
      </trkpt>
      <trkpt lat="14.39797" lon="-60.85837">
        <ele>15</ele>
        <time>2016-06-05T13:15:24.911Z</time>
      </trkpt>
      <trkpt lat="14.39795" lon="-60.85838">
        <ele>15</ele>
        <time>2016-06-05T13:15:26.913Z</time>
      </trkpt>
      <trkpt lat="14.39793" lon="-60.85841">
        <ele>15</ele>
        <time>2016-06-05T13:15:30.916Z</time>
      </trkpt>
      <trkpt lat="14.39792" lon="-60.85842">
        <ele>15</ele>
        <time>2016-06-05T13:15:32.911Z</time>
      </trkpt>
      <trkpt lat="14.39793" lon="-60.85844">
        <ele>16</ele>
        <time>2016-06-05T13:15:35.912Z</time>
      </trkpt>
      <trkpt lat="14.39794" lon="-60.85845">
        <ele>16</ele>
        <time>2016-06-05T13:15:36.910Z</time>
      </trkpt>
      <trkpt lat="14.39794" lon="-60.85847">
        <ele>16</ele>
        <time>2016-06-05T13:15:37.915Z</time>
      </trkpt>
      <trkpt lat="14.39795" lon="-60.85848">
        <ele>16</ele>
        <time>2016-06-05T13:15:38.915Z</time>
      </trkpt>
      <trkpt lat="14.39795" lon="-60.8585">
        <ele>14</ele>
        <time>2016-06-05T13:15:40.911Z</time>
      </trkpt>
      <trkpt lat="14.39796" lon="-60.85852">
        <ele>15</ele>
        <time>2016-06-05T13:15:41.911Z</time>
      </trkpt>
      <trkpt lat="14.39797" lon="-60.85855">
        <ele>14</ele>
        <time>2016-06-05T13:15:42.908Z</time>
      </trkpt>
      <trkpt lat="14.39798" lon="-60.85859">
        <ele>15</ele>
        <time>2016-06-05T13:15:43.913Z</time>
      </trkpt>
      <trkpt lat="14.39799" lon="-60.85862">
        <ele>15</ele>
        <time>2016-06-05T13:15:44.917Z</time>
      </trkpt>
      <trkpt lat="14.39801" lon="-60.85863">
        <ele>14</ele>
        <time>2016-06-05T13:15:45.914Z</time>
      </trkpt>
      <trkpt lat="14.39802" lon="-60.85865">
        <ele>14</ele>
        <time>2016-06-05T13:15:46.915Z</time>
      </trkpt>
      <trkpt lat="14.39805" lon="-60.85867">
        <ele>15</ele>
        <time>2016-06-05T13:15:47.911Z</time>
      </trkpt>
      <trkpt lat="14.39806" lon="-60.8587">
        <ele>15</ele>
        <time>2016-06-05T13:15:48.913Z</time>
      </trkpt>
      <trkpt lat="14.39807" lon="-60.85872">
        <ele>14</ele>
        <time>2016-06-05T13:15:49.914Z</time>
      </trkpt>
      <trkpt lat="14.39806" lon="-60.85874">
        <ele>14</ele>
        <time>2016-06-05T13:15:50.915Z</time>
      </trkpt>
      <trkpt lat="14.39805" lon="-60.85876">
        <ele>14</ele>
        <time>2016-06-05T13:15:51.915Z</time>
      </trkpt>
      <trkpt lat="14.39804" lon="-60.85879">
        <ele>13</ele>
        <time>2016-06-05T13:15:52.919Z</time>
      </trkpt>
      <trkpt lat="14.39802" lon="-60.85881">
        <ele>13</ele>
        <time>2016-06-05T13:15:53.912Z</time>
      </trkpt>
      <trkpt lat="14.398" lon="-60.85884">
        <ele>13</ele>
        <time>2016-06-05T13:15:54.915Z</time>
      </trkpt>
      <trkpt lat="14.39798" lon="-60.85885">
        <ele>13</ele>
        <time>2016-06-05T13:15:55.917Z</time>
      </trkpt>
      <trkpt lat="14.39796" lon="-60.85887">
        <ele>13</ele>
        <time>2016-06-05T13:15:56.916Z</time>
      </trkpt>
      <trkpt lat="14.39795" lon="-60.85889">
        <ele>13</ele>
        <time>2016-06-05T13:15:57.918Z</time>
      </trkpt>
      <trkpt lat="14.39792" lon="-60.85891">
        <ele>13</ele>
        <time>2016-06-05T13:15:58.920Z</time>
      </trkpt>
      <trkpt lat="14.3979" lon="-60.85893">
        <ele>13</ele>
        <time>2016-06-05T13:15:59.919Z</time>
      </trkpt>
      <trkpt lat="14.39789" lon="-60.85897">
        <ele>12</ele>
        <time>2016-06-05T13:16:00.920Z</time>
      </trkpt>
      <trkpt lat="14.39788" lon="-60.859">
        <ele>12</ele>
        <time>2016-06-05T13:16:01.922Z</time>
      </trkpt>
      <trkpt lat="14.39787" lon="-60.85903">
        <ele>12</ele>
        <time>2016-06-05T13:16:02.923Z</time>
      </trkpt>
      <trkpt lat="14.39787" lon="-60.85907">
        <ele>12</ele>
        <time>2016-06-05T13:16:03.924Z</time>
      </trkpt>
      <trkpt lat="14.39787" lon="-60.8591">
        <ele>12</ele>
        <time>2016-06-05T13:16:04.926Z</time>
      </trkpt>
      <trkpt lat="14.39786" lon="-60.85914">
        <ele>12</ele>
        <time>2016-06-05T13:16:05.917Z</time>
      </trkpt>
      <trkpt lat="14.39784" lon="-60.85917">
        <ele>12</ele>
        <time>2016-06-05T13:16:06.911Z</time>
      </trkpt>
      <trkpt lat="14.39782" lon="-60.85919">
        <ele>13</ele>
        <time>2016-06-05T13:16:07.908Z</time>
      </trkpt>
      <trkpt lat="14.39779" lon="-60.85921">
        <ele>13</ele>
        <time>2016-06-05T13:16:08.911Z</time>
      </trkpt>
      <trkpt lat="14.39777" lon="-60.85923">
        <ele>12</ele>
        <time>2016-06-05T13:16:09.910Z</time>
      </trkpt>
      <trkpt lat="14.39775" lon="-60.85926">
        <ele>12</ele>
        <time>2016-06-05T13:16:10.908Z</time>
      </trkpt>
      <trkpt lat="14.39775" lon="-60.8593">
        <ele>12</ele>
        <time>2016-06-05T13:16:11.910Z</time>
      </trkpt>
      <trkpt lat="14.39773" lon="-60.85934">
        <ele>12</ele>
        <time>2016-06-05T13:16:12.909Z</time>
      </trkpt>
      <trkpt lat="14.39774" lon="-60.85939">
        <ele>12</ele>
        <time>2016-06-05T13:16:13.910Z</time>
      </trkpt>
      <trkpt lat="14.39772" lon="-60.85943">
        <ele>11</ele>
        <time>2016-06-05T13:16:14.912Z</time>
      </trkpt>
      <trkpt lat="14.3977" lon="-60.85948">
        <ele>11</ele>
        <time>2016-06-05T13:16:15.911Z</time>
      </trkpt>
      <trkpt lat="14.39769" lon="-60.85951">
        <ele>11</ele>
        <time>2016-06-05T13:16:16.910Z</time>
      </trkpt>
      <trkpt lat="14.39768" lon="-60.85955">
        <ele>10</ele>
        <time>2016-06-05T13:16:17.912Z</time>
      </trkpt>
      <trkpt lat="14.39767" lon="-60.85958">
        <ele>10</ele>
        <time>2016-06-05T13:16:18.911Z</time>
      </trkpt>
      <trkpt lat="14.39766" lon="-60.85963">
        <ele>10</ele>
        <time>2016-06-05T13:16:19.917Z</time>
      </trkpt>
      <trkpt lat="14.39764" lon="-60.85967">
        <ele>10</ele>
        <time>2016-06-05T13:16:20.917Z</time>
      </trkpt>
      <trkpt lat="14.39763" lon="-60.85972">
        <ele>10</ele>
        <time>2016-06-05T13:16:21.913Z</time>
      </trkpt>
      <trkpt lat="14.39762" lon="-60.85978">
        <ele>9</ele>
        <time>2016-06-05T13:16:22.914Z</time>
      </trkpt>
      <trkpt lat="14.39763" lon="-60.85983">
        <ele>8</ele>
        <time>2016-06-05T13:16:23.913Z</time>
      </trkpt>
      <trkpt lat="14.39763" lon="-60.85989">
        <ele>8</ele>
        <time>2016-06-05T13:16:24.913Z</time>
      </trkpt>
      <trkpt lat="14.39762" lon="-60.85994">
        <ele>8</ele>
        <time>2016-06-05T13:16:25.911Z</time>
      </trkpt>
      <trkpt lat="14.39762" lon="-60.85999">
        <ele>8</ele>
        <time>2016-06-05T13:16:26.908Z</time>
      </trkpt>
      <trkpt lat="14.39761" lon="-60.86004">
        <ele>8</ele>
        <time>2016-06-05T13:16:27.908Z</time>
      </trkpt>
      <trkpt lat="14.39759" lon="-60.86009">
        <ele>8</ele>
        <time>2016-06-05T13:16:28.910Z</time>
      </trkpt>
      <trkpt lat="14.39756" lon="-60.86013">
        <ele>8</ele>
        <time>2016-06-05T13:16:29.909Z</time>
      </trkpt>
      <trkpt lat="14.39754" lon="-60.86018">
        <ele>8</ele>
        <time>2016-06-05T13:16:30.911Z</time>
      </trkpt>
      <trkpt lat="14.39752" lon="-60.86023">
        <ele>8</ele>
        <time>2016-06-05T13:16:31.911Z</time>
      </trkpt>
      <trkpt lat="14.3975" lon="-60.86027">
        <ele>9</ele>
        <time>2016-06-05T13:16:32.910Z</time>
      </trkpt>
      <trkpt lat="14.39748" lon="-60.86031">
        <ele>9</ele>
        <time>2016-06-05T13:16:33.911Z</time>
      </trkpt>
      <trkpt lat="14.39747" lon="-60.86036">
        <ele>9</ele>
        <time>2016-06-05T13:16:34.908Z</time>
      </trkpt>
      <trkpt lat="14.39746" lon="-60.8604">
        <ele>9</ele>
        <time>2016-06-05T13:16:35.908Z</time>
      </trkpt>
      <trkpt lat="14.39744" lon="-60.86045">
        <ele>9</ele>
        <time>2016-06-05T13:16:36.912Z</time>
      </trkpt>
      <trkpt lat="14.39742" lon="-60.86048">
        <ele>9</ele>
        <time>2016-06-05T13:16:37.913Z</time>
      </trkpt>
      <trkpt lat="14.39739" lon="-60.86051">
        <ele>9</ele>
        <time>2016-06-05T13:16:38.915Z</time>
      </trkpt>
      <trkpt lat="14.39738" lon="-60.86055">
        <ele>8</ele>
        <time>2016-06-05T13:16:39.911Z</time>
      </trkpt>
      <trkpt lat="14.39737" lon="-60.86057">
        <ele>8</ele>
        <time>2016-06-05T13:16:40.914Z</time>
      </trkpt>
      <trkpt lat="14.39736" lon="-60.86059">
        <ele>8</ele>
        <time>2016-06-05T13:16:41.914Z</time>
      </trkpt>
      <trkpt lat="14.39735" lon="-60.86061">
        <ele>7</ele>
        <time>2016-06-05T13:16:42.912Z</time>
      </trkpt>
      <trkpt lat="14.39733" lon="-60.86062">
        <ele>7</ele>
        <time>2016-06-05T13:16:43.920Z</time>
      </trkpt>
      <trkpt lat="14.39732" lon="-60.86064">
        <ele>7</ele>
        <time>2016-06-05T13:16:44.912Z</time>
      </trkpt>
      <trkpt lat="14.3973" lon="-60.86064">
        <ele>7</ele>
        <time>2016-06-05T13:16:45.911Z</time>
      </trkpt>
      <trkpt lat="14.39727" lon="-60.86064">
        <ele>6</ele>
        <time>2016-06-05T13:16:46.922Z</time>
      </trkpt>
      <trkpt lat="14.39725" lon="-60.86065">
        <ele>7</ele>
        <time>2016-06-05T13:16:47.914Z</time>
      </trkpt>
      <trkpt lat="14.39722" lon="-60.86065">
        <ele>7</ele>
        <time>2016-06-05T13:16:48.914Z</time>
      </trkpt>
      <trkpt lat="14.39719" lon="-60.86065">
        <ele>6</ele>
        <time>2016-06-05T13:16:49.914Z</time>
      </trkpt>
      <trkpt lat="14.39717" lon="-60.86066">
        <ele>6</ele>
        <time>2016-06-05T13:16:50.914Z</time>
      </trkpt>
      <trkpt lat="14.39715" lon="-60.86067">
        <ele>6</ele>
        <time>2016-06-05T13:16:51.911Z</time>
      </trkpt>
      <trkpt lat="14.39713" lon="-60.86068">
        <ele>6</ele>
        <time>2016-06-05T13:16:52.912Z</time>
      </trkpt>
      <trkpt lat="14.39712" lon="-60.86069">
        <ele>6</ele>
        <time>2016-06-05T13:16:53.912Z</time>
      </trkpt>
      <trkpt lat="14.39711" lon="-60.86071">
        <ele>6</ele>
        <time>2016-06-05T13:16:54.911Z</time>
      </trkpt>
      <trkpt lat="14.39711" lon="-60.86072">
        <ele>7</ele>
        <time>2016-06-05T13:16:57.907Z</time>
      </trkpt>
      <trkpt lat="14.39711" lon="-60.86075">
        <ele>7</ele>
        <time>2016-06-05T13:16:59.909Z</time>
      </trkpt>
      <trkpt lat="14.39711" lon="-60.86077">
        <ele>6</ele>
        <time>2016-06-05T13:17:01.909Z</time>
      </trkpt>
      <trkpt lat="14.39712" lon="-60.86078">
        <ele>7</ele>
        <time>2016-06-05T13:17:02.914Z</time>
      </trkpt>
      <trkpt lat="14.39713" lon="-60.86081">
        <ele>7</ele>
        <time>2016-06-05T13:17:04.913Z</time>
      </trkpt>
      <trkpt lat="14.39713" lon="-60.86083">
        <ele>8</ele>
        <time>2016-06-05T13:17:06.911Z</time>
      </trkpt>
      <trkpt lat="14.39715" lon="-60.86085">
        <ele>8</ele>
        <time>2016-06-05T13:17:08.910Z</time>
      </trkpt>
      <trkpt lat="14.39716" lon="-60.86086">
        <ele>9</ele>
        <time>2016-06-05T13:17:10.910Z</time>
      </trkpt>
      <trkpt lat="14.39718" lon="-60.86088">
        <ele>10</ele>
        <time>2016-06-05T13:17:14.907Z</time>
      </trkpt>
      <trkpt lat="14.39719" lon="-60.86089">
        <ele>9</ele>
        <time>2016-06-05T13:17:15.912Z</time>
      </trkpt>
      <trkpt lat="14.3972" lon="-60.86091">
        <ele>8</ele>
        <time>2016-06-05T13:17:16.910Z</time>
      </trkpt>
      <trkpt lat="14.39722" lon="-60.86093">
        <ele>9</ele>
        <time>2016-06-05T13:17:18.908Z</time>
      </trkpt>
      <trkpt lat="14.39722" lon="-60.86094">
        <ele>9</ele>
        <time>2016-06-05T13:17:19.907Z</time>
      </trkpt>
      <trkpt lat="14.39722" lon="-60.86098">
        <ele>9</ele>
        <time>2016-06-05T13:17:21.910Z</time>
      </trkpt>
      <trkpt lat="14.39722" lon="-60.861">
        <ele>8</ele>
        <time>2016-06-05T13:17:22.911Z</time>
      </trkpt>
      <trkpt lat="14.39723" lon="-60.86102">
        <ele>8</ele>
        <time>2016-06-05T13:17:23.913Z</time>
      </trkpt>
      <trkpt lat="14.39723" lon="-60.86104">
        <ele>9</ele>
        <time>2016-06-05T13:17:24.915Z</time>
      </trkpt>
      <trkpt lat="14.39722" lon="-60.86107">
        <ele>9</ele>
        <time>2016-06-05T13:17:25.909Z</time>
      </trkpt>
      <trkpt lat="14.39722" lon="-60.86109">
        <ele>9</ele>
        <time>2016-06-05T13:17:26.910Z</time>
      </trkpt>
      <trkpt lat="14.39723" lon="-60.86111">
        <ele>8</ele>
        <time>2016-06-05T13:17:27.909Z</time>
      </trkpt>
      <trkpt lat="14.39723" lon="-60.86114">
        <ele>9</ele>
        <time>2016-06-05T13:17:28.910Z</time>
      </trkpt>
      <trkpt lat="14.39725" lon="-60.86117">
        <ele>9</ele>
        <time>2016-06-05T13:17:29.912Z</time>
      </trkpt>
      <trkpt lat="14.39726" lon="-60.8612">
        <ele>9</ele>
        <time>2016-06-05T13:17:30.909Z</time>
      </trkpt>
      <trkpt lat="14.39727" lon="-60.86122">
        <ele>9</ele>
        <time>2016-06-05T13:17:31.910Z</time>
      </trkpt>
      <trkpt lat="14.39728" lon="-60.86124">
        <ele>9</ele>
        <time>2016-06-05T13:17:32.912Z</time>
      </trkpt>
      <trkpt lat="14.39729" lon="-60.86127">
        <ele>8</ele>
        <time>2016-06-05T13:17:33.909Z</time>
      </trkpt>
      <trkpt lat="14.39731" lon="-60.8613">
        <ele>8</ele>
        <time>2016-06-05T13:17:34.909Z</time>
      </trkpt>
      <trkpt lat="14.39732" lon="-60.86133">
        <ele>7</ele>
        <time>2016-06-05T13:17:35.909Z</time>
      </trkpt>
      <trkpt lat="14.39732" lon="-60.86136">
        <ele>7</ele>
        <time>2016-06-05T13:17:36.908Z</time>
      </trkpt>
      <trkpt lat="14.39733" lon="-60.86138">
        <ele>8</ele>
        <time>2016-06-05T13:17:37.909Z</time>
      </trkpt>
      <trkpt lat="14.39733" lon="-60.86141">
        <ele>8</ele>
        <time>2016-06-05T13:17:38.909Z</time>
      </trkpt>
      <trkpt lat="14.39733" lon="-60.86143">
        <ele>7</ele>
        <time>2016-06-05T13:17:39.908Z</time>
      </trkpt>
      <trkpt lat="14.39733" lon="-60.86146">
        <ele>7</ele>
        <time>2016-06-05T13:17:40.909Z</time>
      </trkpt>
      <trkpt lat="14.39734" lon="-60.86149">
        <ele>8</ele>
        <time>2016-06-05T13:17:41.910Z</time>
      </trkpt>
      <trkpt lat="14.39734" lon="-60.86152">
        <ele>8</ele>
        <time>2016-06-05T13:17:42.910Z</time>
      </trkpt>
      <trkpt lat="14.39733" lon="-60.86154">
        <ele>8</ele>
        <time>2016-06-05T13:17:43.912Z</time>
      </trkpt>
      <trkpt lat="14.39732" lon="-60.86157">
        <ele>8</ele>
        <time>2016-06-05T13:17:44.909Z</time>
      </trkpt>
      <trkpt lat="14.39731" lon="-60.8616">
        <ele>8</ele>
        <time>2016-06-05T13:17:45.911Z</time>
      </trkpt>
      <trkpt lat="14.3973" lon="-60.86163">
        <ele>8</ele>
        <time>2016-06-05T13:17:46.914Z</time>
      </trkpt>
      <trkpt lat="14.39729" lon="-60.86165">
        <ele>8</ele>
        <time>2016-06-05T13:17:47.913Z</time>
      </trkpt>
      <trkpt lat="14.39727" lon="-60.86167">
        <ele>8</ele>
        <time>2016-06-05T13:17:48.916Z</time>
      </trkpt>
      <trkpt lat="14.39725" lon="-60.86169">
        <ele>8</ele>
        <time>2016-06-05T13:17:49.913Z</time>
      </trkpt>
      <trkpt lat="14.39722" lon="-60.86169">
        <ele>8</ele>
        <time>2016-06-05T13:17:50.914Z</time>
      </trkpt>
      <trkpt lat="14.3972" lon="-60.8617">
        <ele>8</ele>
        <time>2016-06-05T13:17:51.914Z</time>
      </trkpt>
      <trkpt lat="14.39717" lon="-60.86171">
        <ele>8</ele>
        <time>2016-06-05T13:17:52.914Z</time>
      </trkpt>
      <trkpt lat="14.39715" lon="-60.86172">
        <ele>8</ele>
        <time>2016-06-05T13:17:53.915Z</time>
      </trkpt>
      <trkpt lat="14.39713" lon="-60.86174">
        <ele>8</ele>
        <time>2016-06-05T13:17:54.914Z</time>
      </trkpt>
      <trkpt lat="14.39711" lon="-60.86176">
        <ele>8</ele>
        <time>2016-06-05T13:17:55.919Z</time>
      </trkpt>
      <trkpt lat="14.39709" lon="-60.86178">
        <ele>8</ele>
        <time>2016-06-05T13:17:56.922Z</time>
      </trkpt>
      <trkpt lat="14.39706" lon="-60.8618">
        <ele>8</ele>
        <time>2016-06-05T13:17:57.921Z</time>
      </trkpt>
      <trkpt lat="14.39704" lon="-60.86181">
        <ele>8</ele>
        <time>2016-06-05T13:17:58.928Z</time>
      </trkpt>
      <trkpt lat="14.39701" lon="-60.86181">
        <ele>8</ele>
        <time>2016-06-05T13:17:59.916Z</time>
      </trkpt>
      <trkpt lat="14.39697" lon="-60.86182">
        <ele>6</ele>
        <time>2016-06-05T13:18:01.912Z</time>
      </trkpt>
      <trkpt lat="14.39695" lon="-60.86183">
        <ele>6</ele>
        <time>2016-06-05T13:18:02.912Z</time>
      </trkpt>
      <trkpt lat="14.39691" lon="-60.86185">
        <ele>6</ele>
        <time>2016-06-05T13:18:03.914Z</time>
      </trkpt>
      <trkpt lat="14.39688" lon="-60.86187">
        <ele>6</ele>
        <time>2016-06-05T13:18:04.911Z</time>
      </trkpt>
      <trkpt lat="14.39684" lon="-60.86189">
        <ele>5</ele>
        <time>2016-06-05T13:18:05.910Z</time>
      </trkpt>
      <trkpt lat="14.39681" lon="-60.8619">
        <ele>3</ele>
        <time>2016-06-05T13:18:07.909Z</time>
      </trkpt>
      <trkpt lat="14.39679" lon="-60.86191">
        <ele>3</ele>
        <time>2016-06-05T13:18:08.911Z</time>
      </trkpt>
      <trkpt lat="14.39676" lon="-60.86193">
        <ele>3</ele>
        <time>2016-06-05T13:18:09.910Z</time>
      </trkpt>
      <trkpt lat="14.39674" lon="-60.86194">
        <ele>3</ele>
        <time>2016-06-05T13:18:10.911Z</time>
      </trkpt>
      <trkpt lat="14.39672" lon="-60.86195">
        <ele>4</ele>
        <time>2016-06-05T13:18:11.912Z</time>
      </trkpt>
      <trkpt lat="14.3967" lon="-60.86196">
        <ele>3</ele>
        <time>2016-06-05T13:18:12.913Z</time>
      </trkpt>
      <trkpt lat="14.39667" lon="-60.86197">
        <ele>3</ele>
        <time>2016-06-05T13:18:13.909Z</time>
      </trkpt>
      <trkpt lat="14.39665" lon="-60.86198">
        <ele>3</ele>
        <time>2016-06-05T13:18:14.907Z</time>
      </trkpt>
      <trkpt lat="14.39662" lon="-60.86199">
        <ele>2</ele>
        <time>2016-06-05T13:18:15.910Z</time>
      </trkpt>
      <trkpt lat="14.3966" lon="-60.862">
        <ele>2</ele>
        <time>2016-06-05T13:18:16.913Z</time>
      </trkpt>
      <trkpt lat="14.39658" lon="-60.86203">
        <ele>3</ele>
        <time>2016-06-05T13:18:17.909Z</time>
      </trkpt>
      <trkpt lat="14.39656" lon="-60.86207">
        <ele>2</ele>
        <time>2016-06-05T13:18:18.910Z</time>
      </trkpt>
      <trkpt lat="14.39654" lon="-60.8621">
        <ele>2</ele>
        <time>2016-06-05T13:18:19.911Z</time>
      </trkpt>
      <trkpt lat="14.39652" lon="-60.86213">
        <ele>3</ele>
        <time>2016-06-05T13:18:20.911Z</time>
      </trkpt>
      <trkpt lat="14.3965" lon="-60.86217">
        <ele>3</ele>
        <time>2016-06-05T13:18:21.912Z</time>
      </trkpt>
      <trkpt lat="14.39649" lon="-60.86221">
        <ele>3</ele>
        <time>2016-06-05T13:18:22.912Z</time>
      </trkpt>
      <trkpt lat="14.39648" lon="-60.86225">
        <ele>4</ele>
        <time>2016-06-05T13:18:23.913Z</time>
      </trkpt>
      <trkpt lat="14.39646" lon="-60.8623">
        <ele>5</ele>
        <time>2016-06-05T13:18:24.912Z</time>
      </trkpt>
      <trkpt lat="14.39646" lon="-60.86234">
        <ele>5</ele>
        <time>2016-06-05T13:18:25.912Z</time>
      </trkpt>
      <trkpt lat="14.39644" lon="-60.86238">
        <ele>5</ele>
        <time>2016-06-05T13:18:26.915Z</time>
      </trkpt>
      <trkpt lat="14.39643" lon="-60.86242">
        <ele>5</ele>
        <time>2016-06-05T13:18:27.914Z</time>
      </trkpt>
      <trkpt lat="14.39642" lon="-60.86247">
        <ele>6</ele>
        <time>2016-06-05T13:18:28.909Z</time>
      </trkpt>
      <trkpt lat="14.39641" lon="-60.86251">
        <ele>6</ele>
        <time>2016-06-05T13:18:29.911Z</time>
      </trkpt>
      <trkpt lat="14.39641" lon="-60.86255">
        <ele>6</ele>
        <time>2016-06-05T13:18:30.911Z</time>
      </trkpt>
      <trkpt lat="14.39642" lon="-60.86259">
        <ele>6</ele>
        <time>2016-06-05T13:18:31.911Z</time>
      </trkpt>
      <trkpt lat="14.39643" lon="-60.86263">
        <ele>6</ele>
        <time>2016-06-05T13:18:32.911Z</time>
      </trkpt>
      <trkpt lat="14.39644" lon="-60.86267">
        <ele>6</ele>
        <time>2016-06-05T13:18:33.913Z</time>
      </trkpt>
      <trkpt lat="14.39646" lon="-60.86271">
        <ele>6</ele>
        <time>2016-06-05T13:18:34.914Z</time>
      </trkpt>
      <trkpt lat="14.39647" lon="-60.86275">
        <ele>7</ele>
        <time>2016-06-05T13:18:35.911Z</time>
      </trkpt>
      <trkpt lat="14.39648" lon="-60.86279">
        <ele>6</ele>
        <time>2016-06-05T13:18:36.908Z</time>
      </trkpt>
      <trkpt lat="14.3965" lon="-60.86283">
        <ele>6</ele>
        <time>2016-06-05T13:18:37.909Z</time>
      </trkpt>
      <trkpt lat="14.39653" lon="-60.86285">
        <ele>6</ele>
        <time>2016-06-05T13:18:38.915Z</time>
      </trkpt>
      <trkpt lat="14.39655" lon="-60.86287">
        <ele>6</ele>
        <time>2016-06-05T13:18:39.909Z</time>
      </trkpt>
      <trkpt lat="14.39658" lon="-60.86289">
        <ele>6</ele>
        <time>2016-06-05T13:18:40.908Z</time>
      </trkpt>
      <trkpt lat="14.39661" lon="-60.86291">
        <ele>5</ele>
        <time>2016-06-05T13:18:41.913Z</time>
      </trkpt>
      <trkpt lat="14.39665" lon="-60.86292">
        <ele>5</ele>
        <time>2016-06-05T13:18:42.911Z</time>
      </trkpt>
      <trkpt lat="14.39668" lon="-60.86294">
        <ele>4</ele>
        <time>2016-06-05T13:18:43.913Z</time>
      </trkpt>
      <trkpt lat="14.3967" lon="-60.86297">
        <ele>5</ele>
        <time>2016-06-05T13:18:44.911Z</time>
      </trkpt>
      <trkpt lat="14.39672" lon="-60.863">
        <ele>5</ele>
        <time>2016-06-05T13:18:45.910Z</time>
      </trkpt>
      <trkpt lat="14.39675" lon="-60.86303">
        <ele>5</ele>
        <time>2016-06-05T13:18:46.911Z</time>
      </trkpt>
      <trkpt lat="14.39678" lon="-60.86305">
        <ele>5</ele>
        <time>2016-06-05T13:18:47.911Z</time>
      </trkpt>
      <trkpt lat="14.39681" lon="-60.86307">
        <ele>5</ele>
        <time>2016-06-05T13:18:48.910Z</time>
      </trkpt>
      <trkpt lat="14.39685" lon="-60.86309">
        <ele>5</ele>
        <time>2016-06-05T13:18:49.912Z</time>
      </trkpt>
      <trkpt lat="14.39688" lon="-60.86311">
        <ele>5</ele>
        <time>2016-06-05T13:18:50.912Z</time>
      </trkpt>
      <trkpt lat="14.39691" lon="-60.86312">
        <ele>6</ele>
        <time>2016-06-05T13:18:51.912Z</time>
      </trkpt>
      <trkpt lat="14.39694" lon="-60.86314">
        <ele>6</ele>
        <time>2016-06-05T13:18:52.912Z</time>
      </trkpt>
      <trkpt lat="14.39697" lon="-60.86317">
        <ele>6</ele>
        <time>2016-06-05T13:18:53.909Z</time>
      </trkpt>
      <trkpt lat="14.397" lon="-60.86319">
        <ele>6</ele>
        <time>2016-06-05T13:18:54.910Z</time>
      </trkpt>
      <trkpt lat="14.39703" lon="-60.86321">
        <ele>6</ele>
        <time>2016-06-05T13:18:55.911Z</time>
      </trkpt>
      <trkpt lat="14.39706" lon="-60.86323">
        <ele>5</ele>
        <time>2016-06-05T13:18:56.913Z</time>
      </trkpt>
      <trkpt lat="14.39708" lon="-60.86326">
        <ele>6</ele>
        <time>2016-06-05T13:18:57.915Z</time>
      </trkpt>
      <trkpt lat="14.39711" lon="-60.86329">
        <ele>5</ele>
        <time>2016-06-05T13:18:58.909Z</time>
      </trkpt>
      <trkpt lat="14.39713" lon="-60.86331">
        <ele>5</ele>
        <time>2016-06-05T13:18:59.908Z</time>
      </trkpt>
      <trkpt lat="14.39716" lon="-60.86333">
        <ele>5</ele>
        <time>2016-06-05T13:19:00.909Z</time>
      </trkpt>
      <trkpt lat="14.39718" lon="-60.86336">
        <ele>5</ele>
        <time>2016-06-05T13:19:01.910Z</time>
      </trkpt>
      <trkpt lat="14.3972" lon="-60.86339">
        <ele>5</ele>
        <time>2016-06-05T13:19:02.915Z</time>
      </trkpt>
      <trkpt lat="14.39721" lon="-60.86342">
        <ele>6</ele>
        <time>2016-06-05T13:19:03.911Z</time>
      </trkpt>
      <trkpt lat="14.39723" lon="-60.86344">
        <ele>6</ele>
        <time>2016-06-05T13:19:04.913Z</time>
      </trkpt>
      <trkpt lat="14.39724" lon="-60.86348">
        <ele>6</ele>
        <time>2016-06-05T13:19:05.915Z</time>
      </trkpt>
      <trkpt lat="14.39725" lon="-60.8635">
        <ele>5</ele>
        <time>2016-06-05T13:19:06.913Z</time>
      </trkpt>
      <trkpt lat="14.39727" lon="-60.86354">
        <ele>5</ele>
        <time>2016-06-05T13:19:07.913Z</time>
      </trkpt>
      <trkpt lat="14.39727" lon="-60.86357">
        <ele>5</ele>
        <time>2016-06-05T13:19:08.916Z</time>
      </trkpt>
      <trkpt lat="14.39727" lon="-60.8636">
        <ele>5</ele>
        <time>2016-06-05T13:19:09.913Z</time>
      </trkpt>
      <trkpt lat="14.39726" lon="-60.86363">
        <ele>6</ele>
        <time>2016-06-05T13:19:10.914Z</time>
      </trkpt>
      <trkpt lat="14.39726" lon="-60.86366">
        <ele>6</ele>
        <time>2016-06-05T13:19:11.916Z</time>
      </trkpt>
      <trkpt lat="14.39725" lon="-60.86369">
        <ele>6</ele>
        <time>2016-06-05T13:19:12.915Z</time>
      </trkpt>
      <trkpt lat="14.39724" lon="-60.86372">
        <ele>5</ele>
        <time>2016-06-05T13:19:13.917Z</time>
      </trkpt>
      <trkpt lat="14.39723" lon="-60.86375">
        <ele>5</ele>
        <time>2016-06-05T13:19:14.920Z</time>
      </trkpt>
      <trkpt lat="14.39722" lon="-60.86377">
        <ele>5</ele>
        <time>2016-06-05T13:19:15.921Z</time>
      </trkpt>
      <trkpt lat="14.3972" lon="-60.8638">
        <ele>6</ele>
        <time>2016-06-05T13:19:16.915Z</time>
      </trkpt>
      <trkpt lat="14.39719" lon="-60.86382">
        <ele>6</ele>
        <time>2016-06-05T13:19:17.917Z</time>
      </trkpt>
      <trkpt lat="14.39715" lon="-60.86384">
        <ele>6</ele>
        <time>2016-06-05T13:19:18.913Z</time>
      </trkpt>
      <trkpt lat="14.39713" lon="-60.86386">
        <ele>6</ele>
        <time>2016-06-05T13:19:19.916Z</time>
      </trkpt>
      <trkpt lat="14.3971" lon="-60.86386">
        <ele>5</ele>
        <time>2016-06-05T13:19:20.919Z</time>
      </trkpt>
      <trkpt lat="14.39709" lon="-60.86385">
        <ele>6</ele>
        <time>2016-06-05T13:19:26.911Z</time>
      </trkpt>
      <trkpt lat="14.39708" lon="-60.86384">
        <ele>6</ele>
        <time>2016-06-05T13:19:27.912Z</time>
      </trkpt>
      <trkpt lat="14.39707" lon="-60.86384">
        <ele>6</ele>
        <time>2016-06-05T13:19:29.919Z</time>
      </trkpt>
      <trkpt lat="14.39705" lon="-60.86385">
        <ele>7</ele>
        <time>2016-06-05T13:19:31.917Z</time>
      </trkpt>
      <trkpt lat="14.39703" lon="-60.86386">
        <ele>7</ele>
        <time>2016-06-05T13:19:33.914Z</time>
      </trkpt>
      <trkpt lat="14.39699" lon="-60.86388">
        <ele>8</ele>
        <time>2016-06-05T13:19:42.907Z</time>
      </trkpt>
      <trkpt lat="14.39698" lon="-60.86389">
        <ele>8</ele>
        <time>2016-06-05T13:19:44.911Z</time>
      </trkpt>
      <trkpt lat="14.39695" lon="-60.864">
        <ele>10</ele>
        <time>2016-06-05T13:20:01.907Z</time>
      </trkpt>
      <trkpt lat="14.39696" lon="-60.86401">
        <ele>10</ele>
        <time>2016-06-05T13:20:04.914Z</time>
      </trkpt>
      <trkpt lat="14.39696" lon="-60.86401">
        <ele>10</ele>
        <time>2016-06-05T13:21:40.004Z</time>
      </trkpt>
      <trkpt lat="14.39699" lon="-60.86411">
        <ele>9</ele>
        <time>2016-06-05T13:22:27.912Z</time>
      </trkpt>
      <trkpt lat="14.39701" lon="-60.86416">
        <ele>10</ele>
        <time>2016-06-05T13:22:31.917Z</time>
      </trkpt>
      <trkpt lat="14.39701" lon="-60.86417">
        <ele>10</ele>
        <time>2016-06-05T13:22:32.919Z</time>
      </trkpt>
      <trkpt lat="14.39702" lon="-60.86419">
        <ele>10</ele>
        <time>2016-06-05T13:22:33.912Z</time>
      </trkpt>
      <trkpt lat="14.39703" lon="-60.8642">
        <ele>10</ele>
        <time>2016-06-05T13:22:34.912Z</time>
      </trkpt>
      <trkpt lat="14.39704" lon="-60.86422">
        <ele>10</ele>
        <time>2016-06-05T13:22:35.914Z</time>
      </trkpt>
      <trkpt lat="14.39705" lon="-60.86424">
        <ele>10</ele>
        <time>2016-06-05T13:22:37.912Z</time>
      </trkpt>
      <trkpt lat="14.39706" lon="-60.86426">
        <ele>10</ele>
        <time>2016-06-05T13:22:38.914Z</time>
      </trkpt>
      <trkpt lat="14.39706" lon="-60.86428">
        <ele>9</ele>
        <time>2016-06-05T13:22:39.912Z</time>
      </trkpt>
      <trkpt lat="14.39707" lon="-60.8643">
        <ele>10</ele>
        <time>2016-06-05T13:22:40.914Z</time>
      </trkpt>
      <trkpt lat="14.39707" lon="-60.86432">
        <ele>10</ele>
        <time>2016-06-05T13:22:41.914Z</time>
      </trkpt>
      <trkpt lat="14.39707" lon="-60.86433">
        <ele>9</ele>
        <time>2016-06-05T13:22:42.914Z</time>
      </trkpt>
      <trkpt lat="14.39707" lon="-60.86435">
        <ele>9</ele>
        <time>2016-06-05T13:22:43.914Z</time>
      </trkpt>
      <trkpt lat="14.39707" lon="-60.86437">
        <ele>9</ele>
        <time>2016-06-05T13:22:44.910Z</time>
      </trkpt>
      <trkpt lat="14.39706" lon="-60.8644">
        <ele>9</ele>
        <time>2016-06-05T13:22:45.910Z</time>
      </trkpt>
      <trkpt lat="14.39706" lon="-60.86442">
        <ele>8</ele>
        <time>2016-06-05T13:22:46.911Z</time>
      </trkpt>
      <trkpt lat="14.39706" lon="-60.86445">
        <ele>8</ele>
        <time>2016-06-05T13:22:47.909Z</time>
      </trkpt>
      <trkpt lat="14.39705" lon="-60.86448">
        <ele>8</ele>
        <time>2016-06-05T13:22:48.910Z</time>
      </trkpt>
      <trkpt lat="14.39704" lon="-60.86451">
        <ele>8</ele>
        <time>2016-06-05T13:22:49.912Z</time>
      </trkpt>
      <trkpt lat="14.39704" lon="-60.86454">
        <ele>8</ele>
        <time>2016-06-05T13:22:50.912Z</time>
      </trkpt>
      <trkpt lat="14.39705" lon="-60.86457">
        <ele>8</ele>
        <time>2016-06-05T13:22:51.913Z</time>
      </trkpt>
      <trkpt lat="14.39706" lon="-60.8646">
        <ele>8</ele>
        <time>2016-06-05T13:22:52.911Z</time>
      </trkpt>
      <trkpt lat="14.39708" lon="-60.86462">
        <ele>9</ele>
        <time>2016-06-05T13:22:53.912Z</time>
      </trkpt>
      <trkpt lat="14.3971" lon="-60.86464">
        <ele>9</ele>
        <time>2016-06-05T13:22:54.912Z</time>
      </trkpt>
      <trkpt lat="14.39712" lon="-60.86467">
        <ele>8</ele>
        <time>2016-06-05T13:22:55.913Z</time>
      </trkpt>
      <trkpt lat="14.39713" lon="-60.8647">
        <ele>8</ele>
        <time>2016-06-05T13:22:56.914Z</time>
      </trkpt>
      <trkpt lat="14.39714" lon="-60.86473">
        <ele>9</ele>
        <time>2016-06-05T13:22:57.914Z</time>
      </trkpt>
      <trkpt lat="14.39714" lon="-60.86476">
        <ele>9</ele>
        <time>2016-06-05T13:22:58.912Z</time>
      </trkpt>
      <trkpt lat="14.39715" lon="-60.86479">
        <ele>9</ele>
        <time>2016-06-05T13:22:59.911Z</time>
      </trkpt>
      <trkpt lat="14.39716" lon="-60.86482">
        <ele>8</ele>
        <time>2016-06-05T13:23:00.914Z</time>
      </trkpt>
      <trkpt lat="14.39717" lon="-60.86485">
        <ele>8</ele>
        <time>2016-06-05T13:23:01.913Z</time>
      </trkpt>
      <trkpt lat="14.39719" lon="-60.86488">
        <ele>8</ele>
        <time>2016-06-05T13:23:02.913Z</time>
      </trkpt>
      <trkpt lat="14.39721" lon="-60.86491">
        <ele>8</ele>
        <time>2016-06-05T13:23:03.913Z</time>
      </trkpt>
      <trkpt lat="14.39722" lon="-60.86494">
        <ele>8</ele>
        <time>2016-06-05T13:23:04.915Z</time>
      </trkpt>
      <trkpt lat="14.39724" lon="-60.86497">
        <ele>8</ele>
        <time>2016-06-05T13:23:05.912Z</time>
      </trkpt>
      <trkpt lat="14.39725" lon="-60.865">
        <ele>8</ele>
        <time>2016-06-05T13:23:06.912Z</time>
      </trkpt>
      <trkpt lat="14.39726" lon="-60.86503">
        <ele>8</ele>
        <time>2016-06-05T13:23:07.914Z</time>
      </trkpt>
      <trkpt lat="14.39728" lon="-60.86507">
        <ele>8</ele>
        <time>2016-06-05T13:23:08.914Z</time>
      </trkpt>
      <trkpt lat="14.39729" lon="-60.8651">
        <ele>9</ele>
        <time>2016-06-05T13:23:09.913Z</time>
      </trkpt>
      <trkpt lat="14.39731" lon="-60.86514">
        <ele>9</ele>
        <time>2016-06-05T13:23:10.913Z</time>
      </trkpt>
      <trkpt lat="14.39732" lon="-60.86517">
        <ele>8</ele>
        <time>2016-06-05T13:23:11.912Z</time>
      </trkpt>
      <trkpt lat="14.39733" lon="-60.8652">
        <ele>8</ele>
        <time>2016-06-05T13:23:12.912Z</time>
      </trkpt>
      <trkpt lat="14.39733" lon="-60.86524">
        <ele>8</ele>
        <time>2016-06-05T13:23:13.911Z</time>
      </trkpt>
      <trkpt lat="14.39734" lon="-60.86527">
        <ele>9</ele>
        <time>2016-06-05T13:23:14.911Z</time>
      </trkpt>
      <trkpt lat="14.39733" lon="-60.86531">
        <ele>9</ele>
        <time>2016-06-05T13:23:15.910Z</time>
      </trkpt>
      <trkpt lat="14.39732" lon="-60.86534">
        <ele>9</ele>
        <time>2016-06-05T13:23:16.913Z</time>
      </trkpt>
      <trkpt lat="14.39732" lon="-60.86537">
        <ele>9</ele>
        <time>2016-06-05T13:23:17.914Z</time>
      </trkpt>
      <trkpt lat="14.39732" lon="-60.8654">
        <ele>10</ele>
        <time>2016-06-05T13:23:18.914Z</time>
      </trkpt>
      <trkpt lat="14.39731" lon="-60.86543">
        <ele>9</ele>
        <time>2016-06-05T13:23:19.910Z</time>
      </trkpt>
      <trkpt lat="14.39731" lon="-60.86546">
        <ele>10</ele>
        <time>2016-06-05T13:23:20.915Z</time>
      </trkpt>
      <trkpt lat="14.39731" lon="-60.86548">
        <ele>10</ele>
        <time>2016-06-05T13:23:21.912Z</time>
      </trkpt>
      <trkpt lat="14.3973" lon="-60.86552">
        <ele>11</ele>
        <time>2016-06-05T13:23:22.911Z</time>
      </trkpt>
      <trkpt lat="14.3973" lon="-60.86555">
        <ele>11</ele>
        <time>2016-06-05T13:23:23.912Z</time>
      </trkpt>
      <trkpt lat="14.39729" lon="-60.86558">
        <ele>12</ele>
        <time>2016-06-05T13:23:24.911Z</time>
      </trkpt>
      <trkpt lat="14.39728" lon="-60.86561">
        <ele>12</ele>
        <time>2016-06-05T13:23:25.911Z</time>
      </trkpt>
      <trkpt lat="14.39728" lon="-60.86564">
        <ele>13</ele>
        <time>2016-06-05T13:23:26.909Z</time>
      </trkpt>
      <trkpt lat="14.39727" lon="-60.86568">
        <ele>13</ele>
        <time>2016-06-05T13:23:27.909Z</time>
      </trkpt>
      <trkpt lat="14.39727" lon="-60.8657">
        <ele>13</ele>
        <time>2016-06-05T13:23:28.911Z</time>
      </trkpt>
      <trkpt lat="14.39727" lon="-60.86573">
        <ele>13</ele>
        <time>2016-06-05T13:23:29.914Z</time>
      </trkpt>
      <trkpt lat="14.39726" lon="-60.86576">
        <ele>12</ele>
        <time>2016-06-05T13:23:30.913Z</time>
      </trkpt>
      <trkpt lat="14.39726" lon="-60.86579">
        <ele>12</ele>
        <time>2016-06-05T13:23:31.914Z</time>
      </trkpt>
      <trkpt lat="14.39726" lon="-60.86582">
        <ele>13</ele>
        <time>2016-06-05T13:23:32.911Z</time>
      </trkpt>
      <trkpt lat="14.39727" lon="-60.86585">
        <ele>12</ele>
        <time>2016-06-05T13:23:33.911Z</time>
      </trkpt>
      <trkpt lat="14.39728" lon="-60.86588">
        <ele>12</ele>
        <time>2016-06-05T13:23:34.911Z</time>
      </trkpt>
      <trkpt lat="14.39727" lon="-60.8659">
        <ele>11</ele>
        <time>2016-06-05T13:23:35.916Z</time>
      </trkpt>
      <trkpt lat="14.39726" lon="-60.86591">
        <ele>11</ele>
        <time>2016-06-05T13:23:36.914Z</time>
      </trkpt>
      <trkpt lat="14.39724" lon="-60.86595">
        <ele>12</ele>
        <time>2016-06-05T13:23:37.913Z</time>
      </trkpt>
      <trkpt lat="14.39722" lon="-60.86598">
        <ele>12</ele>
        <time>2016-06-05T13:23:38.913Z</time>
      </trkpt>
      <trkpt lat="14.39721" lon="-60.86601">
        <ele>12</ele>
        <time>2016-06-05T13:23:39.912Z</time>
      </trkpt>
      <trkpt lat="14.3972" lon="-60.86603">
        <ele>12</ele>
        <time>2016-06-05T13:23:40.912Z</time>
      </trkpt>
      <trkpt lat="14.39719" lon="-60.86606">
        <ele>12</ele>
        <time>2016-06-05T13:23:41.912Z</time>
      </trkpt>
      <trkpt lat="14.39721" lon="-60.86608">
        <ele>11</ele>
        <time>2016-06-05T13:23:42.916Z</time>
      </trkpt>
      <trkpt lat="14.39721" lon="-60.86611">
        <ele>10</ele>
        <time>2016-06-05T13:23:43.915Z</time>
      </trkpt>
      <trkpt lat="14.39719" lon="-60.86613">
        <ele>7</ele>
        <time>2016-06-05T13:23:44.913Z</time>
      </trkpt>
      <trkpt lat="14.39718" lon="-60.86616">
        <ele>8</ele>
        <time>2016-06-05T13:23:45.910Z</time>
      </trkpt>
      <trkpt lat="14.39717" lon="-60.86618">
        <ele>8</ele>
        <time>2016-06-05T13:23:46.910Z</time>
      </trkpt>
      <trkpt lat="14.39717" lon="-60.8662">
        <ele>7</ele>
        <time>2016-06-05T13:23:47.911Z</time>
      </trkpt>
      <trkpt lat="14.39716" lon="-60.86623">
        <ele>8</ele>
        <time>2016-06-05T13:23:48.909Z</time>
      </trkpt>
      <trkpt lat="14.39715" lon="-60.86625">
        <ele>8</ele>
        <time>2016-06-05T13:23:49.909Z</time>
      </trkpt>
      <trkpt lat="14.39714" lon="-60.86628">
        <ele>8</ele>
        <time>2016-06-05T13:23:50.909Z</time>
      </trkpt>
      <trkpt lat="14.39712" lon="-60.8663">
        <ele>8</ele>
        <time>2016-06-05T13:23:51.911Z</time>
      </trkpt>
      <trkpt lat="14.39712" lon="-60.86632">
        <ele>9</ele>
        <time>2016-06-05T13:23:52.908Z</time>
      </trkpt>
      <trkpt lat="14.39709" lon="-60.86636">
        <ele>7</ele>
        <time>2016-06-05T13:23:53.910Z</time>
      </trkpt>
      <trkpt lat="14.39708" lon="-60.86641">
        <ele>8</ele>
        <time>2016-06-05T13:23:54.912Z</time>
      </trkpt>
      <trkpt lat="14.39707" lon="-60.86645">
        <ele>8</ele>
        <time>2016-06-05T13:23:55.912Z</time>
      </trkpt>
      <trkpt lat="14.39706" lon="-60.86648">
        <ele>8</ele>
        <time>2016-06-05T13:23:56.911Z</time>
      </trkpt>
      <trkpt lat="14.39707" lon="-60.86653">
        <ele>8</ele>
        <time>2016-06-05T13:23:57.911Z</time>
      </trkpt>
      <trkpt lat="14.39706" lon="-60.86656">
        <ele>8</ele>
        <time>2016-06-05T13:23:58.911Z</time>
      </trkpt>
      <trkpt lat="14.39706" lon="-60.8666">
        <ele>8</ele>
        <time>2016-06-05T13:23:59.912Z</time>
      </trkpt>
      <trkpt lat="14.39704" lon="-60.86664">
        <ele>9</ele>
        <time>2016-06-05T13:24:00.914Z</time>
      </trkpt>
      <trkpt lat="14.39703" lon="-60.86667">
        <ele>8</ele>
        <time>2016-06-05T13:24:01.912Z</time>
      </trkpt>
      <trkpt lat="14.39704" lon="-60.8667">
        <ele>9</ele>
        <time>2016-06-05T13:24:02.912Z</time>
      </trkpt>
      <trkpt lat="14.39704" lon="-60.86674">
        <ele>9</ele>
        <time>2016-06-05T13:24:03.918Z</time>
      </trkpt>
      <trkpt lat="14.39705" lon="-60.86675">
        <ele>9</ele>
        <time>2016-06-05T13:24:04.914Z</time>
      </trkpt>
      <trkpt lat="14.39706" lon="-60.86678">
        <ele>9</ele>
        <time>2016-06-05T13:24:05.909Z</time>
      </trkpt>
      <trkpt lat="14.39707" lon="-60.86683">
        <ele>10</ele>
        <time>2016-06-05T13:24:06.915Z</time>
      </trkpt>
      <trkpt lat="14.39705" lon="-60.86687">
        <ele>10</ele>
        <time>2016-06-05T13:24:07.909Z</time>
      </trkpt>
      <trkpt lat="14.39704" lon="-60.86689">
        <ele>10</ele>
        <time>2016-06-05T13:24:08.911Z</time>
      </trkpt>
      <trkpt lat="14.39704" lon="-60.86693">
        <ele>11</ele>
        <time>2016-06-05T13:24:09.908Z</time>
      </trkpt>
      <trkpt lat="14.39702" lon="-60.86696">
        <ele>10</ele>
        <time>2016-06-05T13:24:10.907Z</time>
      </trkpt>
      <trkpt lat="14.39702" lon="-60.86699">
        <ele>9</ele>
        <time>2016-06-05T13:24:11.908Z</time>
      </trkpt>
      <trkpt lat="14.39701" lon="-60.86703">
        <ele>8</ele>
        <time>2016-06-05T13:24:12.908Z</time>
      </trkpt>
      <trkpt lat="14.39697" lon="-60.86706">
        <ele>7</ele>
        <time>2016-06-05T13:24:13.910Z</time>
      </trkpt>
      <trkpt lat="14.39699" lon="-60.86709">
        <ele>7</ele>
        <time>2016-06-05T13:24:14.913Z</time>
      </trkpt>
      <trkpt lat="14.39698" lon="-60.86714">
        <ele>6</ele>
        <time>2016-06-05T13:24:15.911Z</time>
      </trkpt>
      <trkpt lat="14.39697" lon="-60.86718">
        <ele>6</ele>
        <time>2016-06-05T13:24:16.911Z</time>
      </trkpt>
      <trkpt lat="14.39697" lon="-60.86722">
        <ele>4</ele>
        <time>2016-06-05T13:24:17.911Z</time>
      </trkpt>
      <trkpt lat="14.39696" lon="-60.86725">
        <ele>4</ele>
        <time>2016-06-05T13:24:18.919Z</time>
      </trkpt>
      <trkpt lat="14.39691" lon="-60.86729">
        <ele>5</ele>
        <time>2016-06-05T13:24:19.910Z</time>
      </trkpt>
      <trkpt lat="14.39689" lon="-60.8673">
        <ele>5</ele>
        <time>2016-06-05T13:24:20.908Z</time>
      </trkpt>
      <trkpt lat="14.39686" lon="-60.86734">
        <ele>5</ele>
        <time>2016-06-05T13:24:21.909Z</time>
      </trkpt>
      <trkpt lat="14.39681" lon="-60.86741">
        <ele>6</ele>
        <time>2016-06-05T13:24:22.911Z</time>
      </trkpt>
      <trkpt lat="14.39678" lon="-60.86745">
        <ele>8</ele>
        <time>2016-06-05T13:24:23.912Z</time>
      </trkpt>
      <trkpt lat="14.39675" lon="-60.86749">
        <ele>7</ele>
        <time>2016-06-05T13:24:25.912Z</time>
      </trkpt>
      <trkpt lat="14.39672" lon="-60.8675">
        <ele>8</ele>
        <time>2016-06-05T13:24:26.909Z</time>
      </trkpt>
      <trkpt lat="14.39669" lon="-60.8675">
        <ele>7</ele>
        <time>2016-06-05T13:24:27.909Z</time>
      </trkpt>
      <trkpt lat="14.39667" lon="-60.86752">
        <ele>6</ele>
        <time>2016-06-05T13:24:28.914Z</time>
      </trkpt>
      <trkpt lat="14.39665" lon="-60.86754">
        <ele>6</ele>
        <time>2016-06-05T13:24:29.909Z</time>
      </trkpt>
      <trkpt lat="14.39662" lon="-60.86757">
        <ele>6</ele>
        <time>2016-06-05T13:24:30.910Z</time>
      </trkpt>
      <trkpt lat="14.39659" lon="-60.86761">
        <ele>6</ele>
        <time>2016-06-05T13:24:31.908Z</time>
      </trkpt>
      <trkpt lat="14.39657" lon="-60.86765">
        <ele>7</ele>
        <time>2016-06-05T13:24:32.907Z</time>
      </trkpt>
      <trkpt lat="14.39653" lon="-60.86766">
        <ele>5</ele>
        <time>2016-06-05T13:24:33.911Z</time>
      </trkpt>
      <trkpt lat="14.39649" lon="-60.8677">
        <ele>5</ele>
        <time>2016-06-05T13:24:34.911Z</time>
      </trkpt>
      <trkpt lat="14.39646" lon="-60.86774">
        <ele>7</ele>
        <time>2016-06-05T13:24:35.911Z</time>
      </trkpt>
      <trkpt lat="14.39642" lon="-60.86778">
        <ele>6</ele>
        <time>2016-06-05T13:24:36.908Z</time>
      </trkpt>
      <trkpt lat="14.39639" lon="-60.86781">
        <ele>7</ele>
        <time>2016-06-05T13:24:37.909Z</time>
      </trkpt>
      <trkpt lat="14.39636" lon="-60.86784">
        <ele>7</ele>
        <time>2016-06-05T13:24:38.910Z</time>
      </trkpt>
      <trkpt lat="14.39631" lon="-60.86786">
        <ele>9</ele>
        <time>2016-06-05T13:24:39.912Z</time>
      </trkpt>
      <trkpt lat="14.39628" lon="-60.86788">
        <ele>9</ele>
        <time>2016-06-05T13:24:40.911Z</time>
      </trkpt>
      <trkpt lat="14.39624" lon="-60.86789">
        <ele>8</ele>
        <time>2016-06-05T13:24:41.912Z</time>
      </trkpt>
      <trkpt lat="14.39622" lon="-60.8679">
        <ele>7</ele>
        <time>2016-06-05T13:24:42.913Z</time>
      </trkpt>
      <trkpt lat="14.3962" lon="-60.86792">
        <ele>6</ele>
        <time>2016-06-05T13:24:43.919Z</time>
      </trkpt>
      <trkpt lat="14.39615" lon="-60.86795">
        <ele>5</ele>
        <time>2016-06-05T13:24:44.916Z</time>
      </trkpt>
      <trkpt lat="14.39612" lon="-60.86797">
        <ele>4</ele>
        <time>2016-06-05T13:24:45.916Z</time>
      </trkpt>
      <trkpt lat="14.39608" lon="-60.868">
        <ele>3</ele>
        <time>2016-06-05T13:24:46.918Z</time>
      </trkpt>
      <trkpt lat="14.39606" lon="-60.86802">
        <ele>4</ele>
        <time>2016-06-05T13:24:47.914Z</time>
      </trkpt>
      <trkpt lat="14.39603" lon="-60.86805">
        <ele>3</ele>
        <time>2016-06-05T13:24:48.913Z</time>
      </trkpt>
      <trkpt lat="14.39599" lon="-60.86811">
        <ele>3</ele>
        <time>2016-06-05T13:24:49.912Z</time>
      </trkpt>
      <trkpt lat="14.39596" lon="-60.86815">
        <ele>4</ele>
        <time>2016-06-05T13:24:50.917Z</time>
      </trkpt>
      <trkpt lat="14.39593" lon="-60.86817">
        <ele>3</ele>
        <time>2016-06-05T13:24:51.921Z</time>
      </trkpt>
      <trkpt lat="14.39591" lon="-60.86819">
        <ele>3</ele>
        <time>2016-06-05T13:24:52.922Z</time>
      </trkpt>
      <trkpt lat="14.39587" lon="-60.86823">
        <ele>4</ele>
        <time>2016-06-05T13:24:53.919Z</time>
      </trkpt>
      <trkpt lat="14.39584" lon="-60.86826">
        <ele>3</ele>
        <time>2016-06-05T13:24:54.916Z</time>
      </trkpt>
      <trkpt lat="14.39581" lon="-60.86828">
        <ele>4</ele>
        <time>2016-06-05T13:24:55.911Z</time>
      </trkpt>
      <trkpt lat="14.39577" lon="-60.86832">
        <ele>6</ele>
        <time>2016-06-05T13:24:56.911Z</time>
      </trkpt>
      <trkpt lat="14.39574" lon="-60.86835">
        <ele>7</ele>
        <time>2016-06-05T13:24:57.913Z</time>
      </trkpt>
      <trkpt lat="14.39571" lon="-60.86836">
        <ele>6</ele>
        <time>2016-06-05T13:24:58.911Z</time>
      </trkpt>
      <trkpt lat="14.39569" lon="-60.86839">
        <ele>7</ele>
        <time>2016-06-05T13:24:59.906Z</time>
      </trkpt>
      <trkpt lat="14.39567" lon="-60.86842">
        <ele>5</ele>
        <time>2016-06-05T13:25:00.906Z</time>
      </trkpt>
      <trkpt lat="14.39565" lon="-60.86845">
        <ele>5</ele>
        <time>2016-06-05T13:25:01.905Z</time>
      </trkpt>
      <trkpt lat="14.39563" lon="-60.86851">
        <ele>3</ele>
        <time>2016-06-05T13:25:02.905Z</time>
      </trkpt>
      <trkpt lat="14.39564" lon="-60.86859">
        <ele>3</ele>
        <time>2016-06-05T13:25:03.911Z</time>
      </trkpt>
      <trkpt lat="14.39565" lon="-60.86863">
        <ele>4</ele>
        <time>2016-06-05T13:25:04.907Z</time>
      </trkpt>
      <trkpt lat="14.39566" lon="-60.86866">
        <ele>4</ele>
        <time>2016-06-05T13:25:05.904Z</time>
      </trkpt>
      <trkpt lat="14.39568" lon="-60.86872">
        <ele>6</ele>
        <time>2016-06-05T13:25:06.905Z</time>
      </trkpt>
      <trkpt lat="14.39569" lon="-60.86876">
        <ele>5</ele>
        <time>2016-06-05T13:25:07.908Z</time>
      </trkpt>
      <trkpt lat="14.39569" lon="-60.8688">
        <ele>5</ele>
        <time>2016-06-05T13:25:08.908Z</time>
      </trkpt>
      <trkpt lat="14.39571" lon="-60.86884">
        <ele>5</ele>
        <time>2016-06-05T13:25:09.906Z</time>
      </trkpt>
      <trkpt lat="14.39572" lon="-60.86887">
        <ele>6</ele>
        <time>2016-06-05T13:25:10.908Z</time>
      </trkpt>
      <trkpt lat="14.39574" lon="-60.86891">
        <ele>7</ele>
        <time>2016-06-05T13:25:11.905Z</time>
      </trkpt>
      <trkpt lat="14.39575" lon="-60.86894">
        <ele>7</ele>
        <time>2016-06-05T13:25:12.909Z</time>
      </trkpt>
      <trkpt lat="14.39577" lon="-60.86896">
        <ele>7</ele>
        <time>2016-06-05T13:25:13.911Z</time>
      </trkpt>
      <trkpt lat="14.3958" lon="-60.869">
        <ele>8</ele>
        <time>2016-06-05T13:25:14.909Z</time>
      </trkpt>
      <trkpt lat="14.39581" lon="-60.86904">
        <ele>7</ele>
        <time>2016-06-05T13:25:15.905Z</time>
      </trkpt>
      <trkpt lat="14.39583" lon="-60.86909">
        <ele>8</ele>
        <time>2016-06-05T13:25:16.905Z</time>
      </trkpt>
      <trkpt lat="14.39585" lon="-60.86913">
        <ele>8</ele>
        <time>2016-06-05T13:25:17.907Z</time>
      </trkpt>
      <trkpt lat="14.39587" lon="-60.86917">
        <ele>8</ele>
        <time>2016-06-05T13:25:18.908Z</time>
      </trkpt>
      <trkpt lat="14.39589" lon="-60.86921">
        <ele>8</ele>
        <time>2016-06-05T13:25:19.909Z</time>
      </trkpt>
      <trkpt lat="14.39588" lon="-60.86926">
        <ele>8</ele>
        <time>2016-06-05T13:25:20.913Z</time>
      </trkpt>
      <trkpt lat="14.39587" lon="-60.86932">
        <ele>9</ele>
        <time>2016-06-05T13:25:21.911Z</time>
      </trkpt>
      <trkpt lat="14.39588" lon="-60.86937">
        <ele>10</ele>
        <time>2016-06-05T13:25:22.912Z</time>
      </trkpt>
      <trkpt lat="14.39589" lon="-60.86941">
        <ele>10</ele>
        <time>2016-06-05T13:25:23.911Z</time>
      </trkpt>
      <trkpt lat="14.39591" lon="-60.86944">
        <ele>9</ele>
        <time>2016-06-05T13:25:24.911Z</time>
      </trkpt>
      <trkpt lat="14.39595" lon="-60.86946">
        <ele>10</ele>
        <time>2016-06-05T13:25:25.910Z</time>
      </trkpt>
      <trkpt lat="14.39597" lon="-60.86947">
        <ele>9</ele>
        <time>2016-06-05T13:25:26.909Z</time>
      </trkpt>
      <trkpt lat="14.39599" lon="-60.8695">
        <ele>9</ele>
        <time>2016-06-05T13:25:27.912Z</time>
      </trkpt>
      <trkpt lat="14.39601" lon="-60.86952">
        <ele>9</ele>
        <time>2016-06-05T13:25:28.913Z</time>
      </trkpt>
      <trkpt lat="14.39603" lon="-60.86955">
        <ele>8</ele>
        <time>2016-06-05T13:25:29.912Z</time>
      </trkpt>
      <trkpt lat="14.39605" lon="-60.86956">
        <ele>6</ele>
        <time>2016-06-05T13:25:30.912Z</time>
      </trkpt>
      <trkpt lat="14.39607" lon="-60.86959">
        <ele>6</ele>
        <time>2016-06-05T13:25:31.913Z</time>
      </trkpt>
      <trkpt lat="14.39608" lon="-60.86962">
        <ele>5</ele>
        <time>2016-06-05T13:25:32.916Z</time>
      </trkpt>
      <trkpt lat="14.39608" lon="-60.86965">
        <ele>5</ele>
        <time>2016-06-05T13:25:33.911Z</time>
      </trkpt>
      <trkpt lat="14.39611" lon="-60.86967">
        <ele>6</ele>
        <time>2016-06-05T13:25:34.912Z</time>
      </trkpt>
      <trkpt lat="14.39613" lon="-60.86969">
        <ele>5</ele>
        <time>2016-06-05T13:25:35.909Z</time>
      </trkpt>
      <trkpt lat="14.39613" lon="-60.86973">
        <ele>5</ele>
        <time>2016-06-05T13:25:36.904Z</time>
      </trkpt>
      <trkpt lat="14.39615" lon="-60.86976">
        <ele>5</ele>
        <time>2016-06-05T13:25:37.904Z</time>
      </trkpt>
      <trkpt lat="14.39615" lon="-60.86979">
        <ele>6</ele>
        <time>2016-06-05T13:25:38.907Z</time>
      </trkpt>
      <trkpt lat="14.39615" lon="-60.86983">
        <ele>6</ele>
        <time>2016-06-05T13:25:39.905Z</time>
      </trkpt>
      <trkpt lat="14.39616" lon="-60.86986">
        <ele>6</ele>
        <time>2016-06-05T13:25:40.904Z</time>
      </trkpt>
      <trkpt lat="14.39617" lon="-60.86989">
        <ele>7</ele>
        <time>2016-06-05T13:25:41.904Z</time>
      </trkpt>
      <trkpt lat="14.39618" lon="-60.86993">
        <ele>8</ele>
        <time>2016-06-05T13:25:42.908Z</time>
      </trkpt>
      <trkpt lat="14.39618" lon="-60.86996">
        <ele>9</ele>
        <time>2016-06-05T13:25:43.905Z</time>
      </trkpt>
      <trkpt lat="14.39619" lon="-60.87">
        <ele>9</ele>
        <time>2016-06-05T13:25:44.903Z</time>
      </trkpt>
      <trkpt lat="14.39621" lon="-60.87003">
        <ele>8</ele>
        <time>2016-06-05T13:25:45.906Z</time>
      </trkpt>
      <trkpt lat="14.39622" lon="-60.87005">
        <ele>8</ele>
        <time>2016-06-05T13:25:46.906Z</time>
      </trkpt>
      <trkpt lat="14.39622" lon="-60.87008">
        <ele>8</ele>
        <time>2016-06-05T13:25:47.907Z</time>
      </trkpt>
      <trkpt lat="14.39623" lon="-60.87012">
        <ele>8</ele>
        <time>2016-06-05T13:25:48.906Z</time>
      </trkpt>
      <trkpt lat="14.39623" lon="-60.87015">
        <ele>8</ele>
        <time>2016-06-05T13:25:49.909Z</time>
      </trkpt>
      <trkpt lat="14.39623" lon="-60.87018">
        <ele>8</ele>
        <time>2016-06-05T13:25:50.906Z</time>
      </trkpt>
      <trkpt lat="14.39624" lon="-60.87022">
        <ele>8</ele>
        <time>2016-06-05T13:25:51.906Z</time>
      </trkpt>
      <trkpt lat="14.39625" lon="-60.87025">
        <ele>8</ele>
        <time>2016-06-05T13:25:52.905Z</time>
      </trkpt>
      <trkpt lat="14.39626" lon="-60.87028">
        <ele>9</ele>
        <time>2016-06-05T13:25:53.906Z</time>
      </trkpt>
      <trkpt lat="14.39627" lon="-60.87032">
        <ele>9</ele>
        <time>2016-06-05T13:25:54.905Z</time>
      </trkpt>
      <trkpt lat="14.39627" lon="-60.87036">
        <ele>8</ele>
        <time>2016-06-05T13:25:55.907Z</time>
      </trkpt>
      <trkpt lat="14.39628" lon="-60.87041">
        <ele>9</ele>
        <time>2016-06-05T13:25:56.905Z</time>
      </trkpt>
      <trkpt lat="14.39628" lon="-60.87045">
        <ele>10</ele>
        <time>2016-06-05T13:25:57.906Z</time>
      </trkpt>
      <trkpt lat="14.39629" lon="-60.87049">
        <ele>10</ele>
        <time>2016-06-05T13:25:58.904Z</time>
      </trkpt>
      <trkpt lat="14.39631" lon="-60.87053">
        <ele>10</ele>
        <time>2016-06-05T13:25:59.904Z</time>
      </trkpt>
      <trkpt lat="14.39632" lon="-60.87057">
        <ele>10</ele>
        <time>2016-06-05T13:26:00.908Z</time>
      </trkpt>
      <trkpt lat="14.39634" lon="-60.87061">
        <ele>10</ele>
        <time>2016-06-05T13:26:01.904Z</time>
      </trkpt>
      <trkpt lat="14.39634" lon="-60.87065">
        <ele>10</ele>
        <time>2016-06-05T13:26:02.904Z</time>
      </trkpt>
      <trkpt lat="14.39635" lon="-60.8707">
        <ele>11</ele>
        <time>2016-06-05T13:26:03.908Z</time>
      </trkpt>
      <trkpt lat="14.39636" lon="-60.87074">
        <ele>11</ele>
        <time>2016-06-05T13:26:04.908Z</time>
      </trkpt>
      <trkpt lat="14.39637" lon="-60.87079">
        <ele>11</ele>
        <time>2016-06-05T13:26:05.908Z</time>
      </trkpt>
      <trkpt lat="14.39638" lon="-60.87083">
        <ele>8</ele>
        <time>2016-06-05T13:26:06.911Z</time>
      </trkpt>
      <trkpt lat="14.39639" lon="-60.87087">
        <ele>7</ele>
        <time>2016-06-05T13:26:07.910Z</time>
      </trkpt>
      <trkpt lat="14.39641" lon="-60.87091">
        <ele>8</ele>
        <time>2016-06-05T13:26:08.909Z</time>
      </trkpt>
      <trkpt lat="14.39641" lon="-60.87095">
        <ele>8</ele>
        <time>2016-06-05T13:26:09.905Z</time>
      </trkpt>
      <trkpt lat="14.39642" lon="-60.87098">
        <ele>9</ele>
        <time>2016-06-05T13:26:10.908Z</time>
      </trkpt>
      <trkpt lat="14.39642" lon="-60.87102">
        <ele>9</ele>
        <time>2016-06-05T13:26:11.907Z</time>
      </trkpt>
      <trkpt lat="14.39644" lon="-60.87106">
        <ele>10</ele>
        <time>2016-06-05T13:26:12.906Z</time>
      </trkpt>
      <trkpt lat="14.39644" lon="-60.87111">
        <ele>11</ele>
        <time>2016-06-05T13:26:13.907Z</time>
      </trkpt>
      <trkpt lat="14.39644" lon="-60.87114">
        <ele>10</ele>
        <time>2016-06-05T13:26:14.909Z</time>
      </trkpt>
      <trkpt lat="14.39644" lon="-60.87118">
        <ele>11</ele>
        <time>2016-06-05T13:26:15.910Z</time>
      </trkpt>
      <trkpt lat="14.39643" lon="-60.87122">
        <ele>11</ele>
        <time>2016-06-05T13:26:16.911Z</time>
      </trkpt>
      <trkpt lat="14.39643" lon="-60.87126">
        <ele>12</ele>
        <time>2016-06-05T13:26:17.914Z</time>
      </trkpt>
      <trkpt lat="14.39644" lon="-60.87129">
        <ele>10</ele>
        <time>2016-06-05T13:26:18.911Z</time>
      </trkpt>
      <trkpt lat="14.39644" lon="-60.87133">
        <ele>10</ele>
        <time>2016-06-05T13:26:19.910Z</time>
      </trkpt>
      <trkpt lat="14.39644" lon="-60.87137">
        <ele>10</ele>
        <time>2016-06-05T13:26:20.911Z</time>
      </trkpt>
      <trkpt lat="14.39645" lon="-60.8714">
        <ele>10</ele>
        <time>2016-06-05T13:26:21.911Z</time>
      </trkpt>
      <trkpt lat="14.39647" lon="-60.87144">
        <ele>11</ele>
        <time>2016-06-05T13:26:22.912Z</time>
      </trkpt>
      <trkpt lat="14.39648" lon="-60.87148">
        <ele>12</ele>
        <time>2016-06-05T13:26:23.908Z</time>
      </trkpt>
      <trkpt lat="14.39648" lon="-60.87152">
        <ele>13</ele>
        <time>2016-06-05T13:26:24.909Z</time>
      </trkpt>
      <trkpt lat="14.3965" lon="-60.87156">
        <ele>14</ele>
        <time>2016-06-05T13:26:25.908Z</time>
      </trkpt>
      <trkpt lat="14.39651" lon="-60.87159">
        <ele>13</ele>
        <time>2016-06-05T13:26:26.907Z</time>
      </trkpt>
      <trkpt lat="14.39653" lon="-60.87162">
        <ele>11</ele>
        <time>2016-06-05T13:26:27.905Z</time>
      </trkpt>
      <trkpt lat="14.39654" lon="-60.87165">
        <ele>10</ele>
        <time>2016-06-05T13:26:28.910Z</time>
      </trkpt>
      <trkpt lat="14.39654" lon="-60.87168">
        <ele>9</ele>
        <time>2016-06-05T13:26:29.909Z</time>
      </trkpt>
      <trkpt lat="14.39655" lon="-60.87172">
        <ele>9</ele>
        <time>2016-06-05T13:26:30.906Z</time>
      </trkpt>
      <trkpt lat="14.39657" lon="-60.87175">
        <ele>9</ele>
        <time>2016-06-05T13:26:31.905Z</time>
      </trkpt>
      <trkpt lat="14.39659" lon="-60.87178">
        <ele>10</ele>
        <time>2016-06-05T13:26:32.906Z</time>
      </trkpt>
      <trkpt lat="14.3966" lon="-60.87182">
        <ele>10</ele>
        <time>2016-06-05T13:26:33.907Z</time>
      </trkpt>
      <trkpt lat="14.39663" lon="-60.87185">
        <ele>11</ele>
        <time>2016-06-05T13:26:34.905Z</time>
      </trkpt>
      <trkpt lat="14.39664" lon="-60.87189">
        <ele>11</ele>
        <time>2016-06-05T13:26:35.904Z</time>
      </trkpt>
      <trkpt lat="14.39665" lon="-60.87192">
        <ele>12</ele>
        <time>2016-06-05T13:26:36.907Z</time>
      </trkpt>
      <trkpt lat="14.39665" lon="-60.87196">
        <ele>11</ele>
        <time>2016-06-05T13:26:37.905Z</time>
      </trkpt>
      <trkpt lat="14.39666" lon="-60.87199">
        <ele>12</ele>
        <time>2016-06-05T13:26:38.907Z</time>
      </trkpt>
      <trkpt lat="14.39666" lon="-60.87203">
        <ele>13</ele>
        <time>2016-06-05T13:26:39.906Z</time>
      </trkpt>
      <trkpt lat="14.39668" lon="-60.87206">
        <ele>13</ele>
        <time>2016-06-05T13:26:40.905Z</time>
      </trkpt>
      <trkpt lat="14.39668" lon="-60.8721">
        <ele>13</ele>
        <time>2016-06-05T13:26:41.905Z</time>
      </trkpt>
      <trkpt lat="14.3967" lon="-60.87213">
        <ele>13</ele>
        <time>2016-06-05T13:26:42.904Z</time>
      </trkpt>
      <trkpt lat="14.39671" lon="-60.87216">
        <ele>12</ele>
        <time>2016-06-05T13:26:43.905Z</time>
      </trkpt>
      <trkpt lat="14.39673" lon="-60.87219">
        <ele>10</ele>
        <time>2016-06-05T13:26:44.907Z</time>
      </trkpt>
      <trkpt lat="14.39675" lon="-60.87222">
        <ele>10</ele>
        <time>2016-06-05T13:26:45.907Z</time>
      </trkpt>
      <trkpt lat="14.39677" lon="-60.87225">
        <ele>10</ele>
        <time>2016-06-05T13:26:46.906Z</time>
      </trkpt>
      <trkpt lat="14.39679" lon="-60.87227">
        <ele>9</ele>
        <time>2016-06-05T13:26:47.906Z</time>
      </trkpt>
      <trkpt lat="14.39681" lon="-60.87231">
        <ele>9</ele>
        <time>2016-06-05T13:26:48.907Z</time>
      </trkpt>
      <trkpt lat="14.39682" lon="-60.87234">
        <ele>9</ele>
        <time>2016-06-05T13:26:49.907Z</time>
      </trkpt>
      <trkpt lat="14.39683" lon="-60.87237">
        <ele>10</ele>
        <time>2016-06-05T13:26:50.908Z</time>
      </trkpt>
      <trkpt lat="14.39684" lon="-60.87241">
        <ele>9</ele>
        <time>2016-06-05T13:26:51.907Z</time>
      </trkpt>
      <trkpt lat="14.39686" lon="-60.87244">
        <ele>8</ele>
        <time>2016-06-05T13:26:52.908Z</time>
      </trkpt>
      <trkpt lat="14.39688" lon="-60.87246">
        <ele>9</ele>
        <time>2016-06-05T13:26:53.908Z</time>
      </trkpt>
      <trkpt lat="14.39689" lon="-60.87248">
        <ele>9</ele>
        <time>2016-06-05T13:26:54.909Z</time>
      </trkpt>
      <trkpt lat="14.3969" lon="-60.87251">
        <ele>10</ele>
        <time>2016-06-05T13:26:55.910Z</time>
      </trkpt>
      <trkpt lat="14.39691" lon="-60.87254">
        <ele>10</ele>
        <time>2016-06-05T13:26:56.913Z</time>
      </trkpt>
      <trkpt lat="14.39692" lon="-60.87256">
        <ele>9</ele>
        <time>2016-06-05T13:26:57.909Z</time>
      </trkpt>
      <trkpt lat="14.39694" lon="-60.87259">
        <ele>8</ele>
        <time>2016-06-05T13:26:58.907Z</time>
      </trkpt>
      <trkpt lat="14.39694" lon="-60.87262">
        <ele>8</ele>
        <time>2016-06-05T13:26:59.906Z</time>
      </trkpt>
      <trkpt lat="14.39695" lon="-60.87264">
        <ele>8</ele>
        <time>2016-06-05T13:27:00.906Z</time>
      </trkpt>
      <trkpt lat="14.39696" lon="-60.87267">
        <ele>9</ele>
        <time>2016-06-05T13:27:01.906Z</time>
      </trkpt>
      <trkpt lat="14.39697" lon="-60.8727">
        <ele>8</ele>
        <time>2016-06-05T13:27:02.906Z</time>
      </trkpt>
      <trkpt lat="14.39698" lon="-60.87274">
        <ele>10</ele>
        <time>2016-06-05T13:27:03.906Z</time>
      </trkpt>
      <trkpt lat="14.39699" lon="-60.87277">
        <ele>9</ele>
        <time>2016-06-05T13:27:04.908Z</time>
      </trkpt>
      <trkpt lat="14.397" lon="-60.8728">
        <ele>10</ele>
        <time>2016-06-05T13:27:05.906Z</time>
      </trkpt>
      <trkpt lat="14.39701" lon="-60.87284">
        <ele>10</ele>
        <time>2016-06-05T13:27:06.907Z</time>
      </trkpt>
      <trkpt lat="14.39703" lon="-60.87287">
        <ele>10</ele>
        <time>2016-06-05T13:27:07.904Z</time>
      </trkpt>
      <trkpt lat="14.39703" lon="-60.87291">
        <ele>9</ele>
        <time>2016-06-05T13:27:08.910Z</time>
      </trkpt>
      <trkpt lat="14.39703" lon="-60.87294">
        <ele>9</ele>
        <time>2016-06-05T13:27:09.911Z</time>
      </trkpt>
      <trkpt lat="14.39704" lon="-60.87298">
        <ele>10</ele>
        <time>2016-06-05T13:27:10.912Z</time>
      </trkpt>
      <trkpt lat="14.39704" lon="-60.87301">
        <ele>11</ele>
        <time>2016-06-05T13:27:11.916Z</time>
      </trkpt>
      <trkpt lat="14.39705" lon="-60.87304">
        <ele>11</ele>
        <time>2016-06-05T13:27:12.911Z</time>
      </trkpt>
      <trkpt lat="14.39704" lon="-60.87307">
        <ele>11</ele>
        <time>2016-06-05T13:27:13.907Z</time>
      </trkpt>
      <trkpt lat="14.39707" lon="-60.8731">
        <ele>10</ele>
        <time>2016-06-05T13:27:14.906Z</time>
      </trkpt>
      <trkpt lat="14.39707" lon="-60.87313">
        <ele>10</ele>
        <time>2016-06-05T13:27:15.905Z</time>
      </trkpt>
      <trkpt lat="14.39707" lon="-60.87316">
        <ele>10</ele>
        <time>2016-06-05T13:27:16.906Z</time>
      </trkpt>
      <trkpt lat="14.39708" lon="-60.87319">
        <ele>10</ele>
        <time>2016-06-05T13:27:17.908Z</time>
      </trkpt>
      <trkpt lat="14.39709" lon="-60.87321">
        <ele>11</ele>
        <time>2016-06-05T13:27:18.910Z</time>
      </trkpt>
      <trkpt lat="14.39709" lon="-60.87323">
        <ele>11</ele>
        <time>2016-06-05T13:27:19.909Z</time>
      </trkpt>
      <trkpt lat="14.39711" lon="-60.87326">
        <ele>11</ele>
        <time>2016-06-05T13:27:20.911Z</time>
      </trkpt>
      <trkpt lat="14.39712" lon="-60.87328">
        <ele>11</ele>
        <time>2016-06-05T13:27:21.911Z</time>
      </trkpt>
      <trkpt lat="14.39713" lon="-60.87331">
        <ele>12</ele>
        <time>2016-06-05T13:27:22.909Z</time>
      </trkpt>
      <trkpt lat="14.39713" lon="-60.87334">
        <ele>12</ele>
        <time>2016-06-05T13:27:23.910Z</time>
      </trkpt>
      <trkpt lat="14.39714" lon="-60.87336">
        <ele>12</ele>
        <time>2016-06-05T13:27:24.910Z</time>
      </trkpt>
      <trkpt lat="14.39715" lon="-60.87339">
        <ele>12</ele>
        <time>2016-06-05T13:27:25.910Z</time>
      </trkpt>
      <trkpt lat="14.39715" lon="-60.87342">
        <ele>12</ele>
        <time>2016-06-05T13:27:26.910Z</time>
      </trkpt>
      <trkpt lat="14.39716" lon="-60.87344">
        <ele>13</ele>
        <time>2016-06-05T13:27:27.905Z</time>
      </trkpt>
      <trkpt lat="14.39716" lon="-60.87347">
        <ele>13</ele>
        <time>2016-06-05T13:27:28.907Z</time>
      </trkpt>
      <trkpt lat="14.39716" lon="-60.8735">
        <ele>13</ele>
        <time>2016-06-05T13:27:29.906Z</time>
      </trkpt>
      <trkpt lat="14.39716" lon="-60.87352">
        <ele>13</ele>
        <time>2016-06-05T13:27:30.909Z</time>
      </trkpt>
      <trkpt lat="14.39716" lon="-60.87354">
        <ele>13</ele>
        <time>2016-06-05T13:27:31.905Z</time>
      </trkpt>
      <trkpt lat="14.39715" lon="-60.87357">
        <ele>14</ele>
        <time>2016-06-05T13:27:32.907Z</time>
      </trkpt>
      <trkpt lat="14.39714" lon="-60.87359">
        <ele>14</ele>
        <time>2016-06-05T13:27:33.910Z</time>
      </trkpt>
      <trkpt lat="14.39713" lon="-60.87361">
        <ele>15</ele>
        <time>2016-06-05T13:27:34.911Z</time>
      </trkpt>
      <trkpt lat="14.39711" lon="-60.87363">
        <ele>15</ele>
        <time>2016-06-05T13:27:35.907Z</time>
      </trkpt>
      <trkpt lat="14.3971" lon="-60.87365">
        <ele>15</ele>
        <time>2016-06-05T13:27:36.908Z</time>
      </trkpt>
      <trkpt lat="14.39708" lon="-60.87367">
        <ele>16</ele>
        <time>2016-06-05T13:27:37.911Z</time>
      </trkpt>
      <trkpt lat="14.39706" lon="-60.87369">
        <ele>17</ele>
        <time>2016-06-05T13:27:38.909Z</time>
      </trkpt>
      <trkpt lat="14.39705" lon="-60.87371">
        <ele>17</ele>
        <time>2016-06-05T13:27:39.913Z</time>
      </trkpt>
      <trkpt lat="14.39704" lon="-60.87373">
        <ele>17</ele>
        <time>2016-06-05T13:27:40.912Z</time>
      </trkpt>
      <trkpt lat="14.39703" lon="-60.87375">
        <ele>18</ele>
        <time>2016-06-05T13:27:41.909Z</time>
      </trkpt>
      <trkpt lat="14.39702" lon="-60.87378">
        <ele>18</ele>
        <time>2016-06-05T13:27:42.910Z</time>
      </trkpt>
      <trkpt lat="14.39701" lon="-60.8738">
        <ele>18</ele>
        <time>2016-06-05T13:27:43.911Z</time>
      </trkpt>
      <trkpt lat="14.397" lon="-60.87383">
        <ele>20</ele>
        <time>2016-06-05T13:27:44.910Z</time>
      </trkpt>
      <trkpt lat="14.39699" lon="-60.87385">
        <ele>20</ele>
        <time>2016-06-05T13:27:45.911Z</time>
      </trkpt>
      <trkpt lat="14.39698" lon="-60.87388">
        <ele>20</ele>
        <time>2016-06-05T13:27:46.913Z</time>
      </trkpt>
      <trkpt lat="14.39697" lon="-60.87391">
        <ele>21</ele>
        <time>2016-06-05T13:27:47.912Z</time>
      </trkpt>
      <trkpt lat="14.39696" lon="-60.87394">
        <ele>22</ele>
        <time>2016-06-05T13:27:48.914Z</time>
      </trkpt>
      <trkpt lat="14.39697" lon="-60.87396">
        <ele>22</ele>
        <time>2016-06-05T13:27:49.911Z</time>
      </trkpt>
      <trkpt lat="14.39696" lon="-60.87398">
        <ele>21</ele>
        <time>2016-06-05T13:27:50.911Z</time>
      </trkpt>
      <trkpt lat="14.39697" lon="-60.87401">
        <ele>21</ele>
        <time>2016-06-05T13:27:51.913Z</time>
      </trkpt>
      <trkpt lat="14.39697" lon="-60.87403">
        <ele>21</ele>
        <time>2016-06-05T13:27:52.911Z</time>
      </trkpt>
      <trkpt lat="14.39696" lon="-60.87406">
        <ele>21</ele>
        <time>2016-06-05T13:27:53.912Z</time>
      </trkpt>
      <trkpt lat="14.39696" lon="-60.87409">
        <ele>21</ele>
        <time>2016-06-05T13:27:54.913Z</time>
      </trkpt>
      <trkpt lat="14.39695" lon="-60.87411">
        <ele>21</ele>
        <time>2016-06-05T13:27:55.914Z</time>
      </trkpt>
      <trkpt lat="14.39694" lon="-60.87414">
        <ele>21</ele>
        <time>2016-06-05T13:27:56.910Z</time>
      </trkpt>
      <trkpt lat="14.39694" lon="-60.87416">
        <ele>21</ele>
        <time>2016-06-05T13:27:57.909Z</time>
      </trkpt>
      <trkpt lat="14.39693" lon="-60.87419">
        <ele>21</ele>
        <time>2016-06-05T13:27:58.907Z</time>
      </trkpt>
      <trkpt lat="14.39692" lon="-60.87422">
        <ele>21</ele>
        <time>2016-06-05T13:27:59.906Z</time>
      </trkpt>
      <trkpt lat="14.3969" lon="-60.87424">
        <ele>20</ele>
        <time>2016-06-05T13:28:00.906Z</time>
      </trkpt>
      <trkpt lat="14.39688" lon="-60.87427">
        <ele>20</ele>
        <time>2016-06-05T13:28:01.908Z</time>
      </trkpt>
      <trkpt lat="14.39687" lon="-60.87431">
        <ele>20</ele>
        <time>2016-06-05T13:28:02.907Z</time>
      </trkpt>
      <trkpt lat="14.39686" lon="-60.87435">
        <ele>20</ele>
        <time>2016-06-05T13:28:03.907Z</time>
      </trkpt>
      <trkpt lat="14.39685" lon="-60.8744">
        <ele>20</ele>
        <time>2016-06-05T13:28:04.906Z</time>
      </trkpt>
      <trkpt lat="14.39684" lon="-60.87446">
        <ele>19</ele>
        <time>2016-06-05T13:28:05.908Z</time>
      </trkpt>
      <trkpt lat="14.39684" lon="-60.87451">
        <ele>19</ele>
        <time>2016-06-05T13:28:06.905Z</time>
      </trkpt>
      <trkpt lat="14.39685" lon="-60.87456">
        <ele>18</ele>
        <time>2016-06-05T13:28:07.904Z</time>
      </trkpt>
      <trkpt lat="14.39687" lon="-60.87463">
        <ele>18</ele>
        <time>2016-06-05T13:28:08.908Z</time>
      </trkpt>
      <trkpt lat="14.39687" lon="-60.87469">
        <ele>18</ele>
        <time>2016-06-05T13:28:09.910Z</time>
      </trkpt>
      <trkpt lat="14.39689" lon="-60.87475">
        <ele>18</ele>
        <time>2016-06-05T13:28:10.910Z</time>
      </trkpt>
      <trkpt lat="14.39688" lon="-60.87481">
        <ele>18</ele>
        <time>2016-06-05T13:28:11.911Z</time>
      </trkpt>
      <trkpt lat="14.39689" lon="-60.87488">
        <ele>18</ele>
        <time>2016-06-05T13:28:12.909Z</time>
      </trkpt>
      <trkpt lat="14.3969" lon="-60.87494">
        <ele>18</ele>
        <time>2016-06-05T13:28:13.906Z</time>
      </trkpt>
      <trkpt lat="14.3969" lon="-60.87501">
        <ele>17</ele>
        <time>2016-06-05T13:28:14.907Z</time>
      </trkpt>
      <trkpt lat="14.3969" lon="-60.87506">
        <ele>16</ele>
        <time>2016-06-05T13:28:15.908Z</time>
      </trkpt>
      <trkpt lat="14.39691" lon="-60.87512">
        <ele>16</ele>
        <time>2016-06-05T13:28:16.905Z</time>
      </trkpt>
      <trkpt lat="14.39692" lon="-60.87517">
        <ele>15</ele>
        <time>2016-06-05T13:28:17.907Z</time>
      </trkpt>
      <trkpt lat="14.39694" lon="-60.87522">
        <ele>14</ele>
        <time>2016-06-05T13:28:18.906Z</time>
      </trkpt>
      <trkpt lat="14.39693" lon="-60.87529">
        <ele>14</ele>
        <time>2016-06-05T13:28:19.906Z</time>
      </trkpt>
      <trkpt lat="14.39695" lon="-60.87535">
        <ele>13</ele>
        <time>2016-06-05T13:28:20.905Z</time>
      </trkpt>
      <trkpt lat="14.39697" lon="-60.87542">
        <ele>13</ele>
        <time>2016-06-05T13:28:21.905Z</time>
      </trkpt>
      <trkpt lat="14.39699" lon="-60.87549">
        <ele>13</ele>
        <time>2016-06-05T13:28:22.907Z</time>
      </trkpt>
      <trkpt lat="14.39701" lon="-60.87556">
        <ele>12</ele>
        <time>2016-06-05T13:28:23.907Z</time>
      </trkpt>
      <trkpt lat="14.39703" lon="-60.87563">
        <ele>13</ele>
        <time>2016-06-05T13:28:24.905Z</time>
      </trkpt>
      <trkpt lat="14.39705" lon="-60.87571">
        <ele>13</ele>
        <time>2016-06-05T13:28:25.905Z</time>
      </trkpt>
      <trkpt lat="14.39708" lon="-60.87577">
        <ele>12</ele>
        <time>2016-06-05T13:28:26.907Z</time>
      </trkpt>
      <trkpt lat="14.39709" lon="-60.87583">
        <ele>11</ele>
        <time>2016-06-05T13:28:27.910Z</time>
      </trkpt>
      <trkpt lat="14.39711" lon="-60.87589">
        <ele>11</ele>
        <time>2016-06-05T13:28:28.905Z</time>
      </trkpt>
      <trkpt lat="14.39714" lon="-60.87596">
        <ele>11</ele>
        <time>2016-06-05T13:28:29.909Z</time>
      </trkpt>
      <trkpt lat="14.39718" lon="-60.87601">
        <ele>11</ele>
        <time>2016-06-05T13:28:30.910Z</time>
      </trkpt>
      <trkpt lat="14.39721" lon="-60.87608">
        <ele>12</ele>
        <time>2016-06-05T13:28:31.913Z</time>
      </trkpt>
      <trkpt lat="14.39723" lon="-60.87613">
        <ele>12</ele>
        <time>2016-06-05T13:28:32.913Z</time>
      </trkpt>
      <trkpt lat="14.39725" lon="-60.87619">
        <ele>12</ele>
        <time>2016-06-05T13:28:33.907Z</time>
      </trkpt>
      <trkpt lat="14.39728" lon="-60.87625">
        <ele>12</ele>
        <time>2016-06-05T13:28:34.909Z</time>
      </trkpt>
      <trkpt lat="14.39729" lon="-60.87631">
        <ele>11</ele>
        <time>2016-06-05T13:28:35.908Z</time>
      </trkpt>
      <trkpt lat="14.39731" lon="-60.87636">
        <ele>12</ele>
        <time>2016-06-05T13:28:36.909Z</time>
      </trkpt>
      <trkpt lat="14.39734" lon="-60.87641">
        <ele>12</ele>
        <time>2016-06-05T13:28:37.912Z</time>
      </trkpt>
      <trkpt lat="14.39736" lon="-60.87646">
        <ele>12</ele>
        <time>2016-06-05T13:28:38.910Z</time>
      </trkpt>
      <trkpt lat="14.39739" lon="-60.8765">
        <ele>12</ele>
        <time>2016-06-05T13:28:39.913Z</time>
      </trkpt>
      <trkpt lat="14.39743" lon="-60.87654">
        <ele>12</ele>
        <time>2016-06-05T13:28:40.910Z</time>
      </trkpt>
      <trkpt lat="14.39747" lon="-60.87655">
        <ele>12</ele>
        <time>2016-06-05T13:28:41.911Z</time>
      </trkpt>
      <trkpt lat="14.3975" lon="-60.87655">
        <ele>13</ele>
        <time>2016-06-05T13:28:42.910Z</time>
      </trkpt>
      <trkpt lat="14.39754" lon="-60.87654">
        <ele>13</ele>
        <time>2016-06-05T13:28:43.912Z</time>
      </trkpt>
      <trkpt lat="14.39757" lon="-60.87654">
        <ele>14</ele>
        <time>2016-06-05T13:28:44.913Z</time>
      </trkpt>
      <trkpt lat="14.39761" lon="-60.87652">
        <ele>14</ele>
        <time>2016-06-05T13:28:45.912Z</time>
      </trkpt>
      <trkpt lat="14.39765" lon="-60.8765">
        <ele>13</ele>
        <time>2016-06-05T13:28:46.911Z</time>
      </trkpt>
      <trkpt lat="14.39772" lon="-60.87648">
        <ele>11</ele>
        <time>2016-06-05T13:28:47.910Z</time>
      </trkpt>
      <trkpt lat="14.39777" lon="-60.87647">
        <ele>11</ele>
        <time>2016-06-05T13:28:48.911Z</time>
      </trkpt>
      <trkpt lat="14.39784" lon="-60.87644">
        <ele>9</ele>
        <time>2016-06-05T13:28:49.908Z</time>
      </trkpt>
      <trkpt lat="14.39789" lon="-60.87642">
        <ele>9</ele>
        <time>2016-06-05T13:28:50.908Z</time>
      </trkpt>
      <trkpt lat="14.39795" lon="-60.87638">
        <ele>9</ele>
        <time>2016-06-05T13:28:51.906Z</time>
      </trkpt>
      <trkpt lat="14.398" lon="-60.87636">
        <ele>9</ele>
        <time>2016-06-05T13:28:52.907Z</time>
      </trkpt>
      <trkpt lat="14.39806" lon="-60.87633">
        <ele>9</ele>
        <time>2016-06-05T13:28:53.908Z</time>
      </trkpt>
      <trkpt lat="14.39812" lon="-60.87631">
        <ele>9</ele>
        <time>2016-06-05T13:28:54.911Z</time>
      </trkpt>
      <trkpt lat="14.39817" lon="-60.87627">
        <ele>9</ele>
        <time>2016-06-05T13:28:55.914Z</time>
      </trkpt>
      <trkpt lat="14.39823" lon="-60.87625">
        <ele>9</ele>
        <time>2016-06-05T13:28:56.905Z</time>
      </trkpt>
      <trkpt lat="14.39828" lon="-60.87622">
        <ele>9</ele>
        <time>2016-06-05T13:28:57.904Z</time>
      </trkpt>
      <trkpt lat="14.39834" lon="-60.8762">
        <ele>9</ele>
        <time>2016-06-05T13:28:58.907Z</time>
      </trkpt>
      <trkpt lat="14.39838" lon="-60.87616">
        <ele>9</ele>
        <time>2016-06-05T13:28:59.906Z</time>
      </trkpt>
      <trkpt lat="14.39843" lon="-60.87612">
        <ele>9</ele>
        <time>2016-06-05T13:29:00.903Z</time>
      </trkpt>
      <trkpt lat="14.39847" lon="-60.87608">
        <ele>9</ele>
        <time>2016-06-05T13:29:01.907Z</time>
      </trkpt>
      <trkpt lat="14.39851" lon="-60.87604">
        <ele>9</ele>
        <time>2016-06-05T13:29:02.906Z</time>
      </trkpt>
      <trkpt lat="14.39856" lon="-60.87601">
        <ele>9</ele>
        <time>2016-06-05T13:29:03.908Z</time>
      </trkpt>
      <trkpt lat="14.39859" lon="-60.87597">
        <ele>10</ele>
        <time>2016-06-05T13:29:04.907Z</time>
      </trkpt>
      <trkpt lat="14.39863" lon="-60.87594">
        <ele>10</ele>
        <time>2016-06-05T13:29:05.906Z</time>
      </trkpt>
      <trkpt lat="14.39867" lon="-60.87591">
        <ele>11</ele>
        <time>2016-06-05T13:29:06.908Z</time>
      </trkpt>
      <trkpt lat="14.39871" lon="-60.87589">
        <ele>11</ele>
        <time>2016-06-05T13:29:07.911Z</time>
      </trkpt>
      <trkpt lat="14.39875" lon="-60.87586">
        <ele>10</ele>
        <time>2016-06-05T13:29:08.910Z</time>
      </trkpt>
      <trkpt lat="14.39879" lon="-60.87584">
        <ele>10</ele>
        <time>2016-06-05T13:29:09.909Z</time>
      </trkpt>
      <trkpt lat="14.39883" lon="-60.87581">
        <ele>10</ele>
        <time>2016-06-05T13:29:10.909Z</time>
      </trkpt>
      <trkpt lat="14.39886" lon="-60.87579">
        <ele>10</ele>
        <time>2016-06-05T13:29:11.906Z</time>
      </trkpt>
      <trkpt lat="14.39889" lon="-60.87576">
        <ele>11</ele>
        <time>2016-06-05T13:29:12.904Z</time>
      </trkpt>
      <trkpt lat="14.39893" lon="-60.87574">
        <ele>11</ele>
        <time>2016-06-05T13:29:13.907Z</time>
      </trkpt>
      <trkpt lat="14.39896" lon="-60.87572">
        <ele>11</ele>
        <time>2016-06-05T13:29:14.906Z</time>
      </trkpt>
      <trkpt lat="14.39899" lon="-60.87569">
        <ele>11</ele>
        <time>2016-06-05T13:29:15.907Z</time>
      </trkpt>
      <trkpt lat="14.39903" lon="-60.87568">
        <ele>10</ele>
        <time>2016-06-05T13:29:16.910Z</time>
      </trkpt>
      <trkpt lat="14.39907" lon="-60.87567">
        <ele>10</ele>
        <time>2016-06-05T13:29:17.911Z</time>
      </trkpt>
      <trkpt lat="14.39911" lon="-60.87567">
        <ele>9</ele>
        <time>2016-06-05T13:29:18.910Z</time>
      </trkpt>
      <trkpt lat="14.39915" lon="-60.87567">
        <ele>8</ele>
        <time>2016-06-05T13:29:19.910Z</time>
      </trkpt>
      <trkpt lat="14.39919" lon="-60.87566">
        <ele>8</ele>
        <time>2016-06-05T13:29:20.909Z</time>
      </trkpt>
      <trkpt lat="14.39923" lon="-60.87566">
        <ele>7</ele>
        <time>2016-06-05T13:29:21.909Z</time>
      </trkpt>
      <trkpt lat="14.39927" lon="-60.87566">
        <ele>6</ele>
        <time>2016-06-05T13:29:22.911Z</time>
      </trkpt>
      <trkpt lat="14.39931" lon="-60.87566">
        <ele>7</ele>
        <time>2016-06-05T13:29:23.909Z</time>
      </trkpt>
      <trkpt lat="14.39935" lon="-60.87566">
        <ele>7</ele>
        <time>2016-06-05T13:29:24.910Z</time>
      </trkpt>
      <trkpt lat="14.39939" lon="-60.87567">
        <ele>7</ele>
        <time>2016-06-05T13:29:25.909Z</time>
      </trkpt>
      <trkpt lat="14.39942" lon="-60.87567">
        <ele>7</ele>
        <time>2016-06-05T13:29:26.908Z</time>
      </trkpt>
      <trkpt lat="14.39945" lon="-60.87569">
        <ele>7</ele>
        <time>2016-06-05T13:29:27.906Z</time>
      </trkpt>
      <trkpt lat="14.39949" lon="-60.87571">
        <ele>7</ele>
        <time>2016-06-05T13:29:28.905Z</time>
      </trkpt>
      <trkpt lat="14.39954" lon="-60.87572">
        <ele>6</ele>
        <time>2016-06-05T13:29:29.904Z</time>
      </trkpt>
      <trkpt lat="14.39957" lon="-60.87572">
        <ele>5</ele>
        <time>2016-06-05T13:29:30.907Z</time>
      </trkpt>
      <trkpt lat="14.39962" lon="-60.87572">
        <ele>5</ele>
        <time>2016-06-05T13:29:31.909Z</time>
      </trkpt>
      <trkpt lat="14.39965" lon="-60.87571">
        <ele>6</ele>
        <time>2016-06-05T13:29:32.909Z</time>
      </trkpt>
      <trkpt lat="14.39969" lon="-60.87572">
        <ele>6</ele>
        <time>2016-06-05T13:29:33.908Z</time>
      </trkpt>
      <trkpt lat="14.39972" lon="-60.8757">
        <ele>7</ele>
        <time>2016-06-05T13:29:34.911Z</time>
      </trkpt>
      <trkpt lat="14.39976" lon="-60.87569">
        <ele>7</ele>
        <time>2016-06-05T13:29:35.911Z</time>
      </trkpt>
      <trkpt lat="14.39979" lon="-60.87568">
        <ele>7</ele>
        <time>2016-06-05T13:29:36.909Z</time>
      </trkpt>
      <trkpt lat="14.39983" lon="-60.87567">
        <ele>8</ele>
        <time>2016-06-05T13:29:37.908Z</time>
      </trkpt>
      <trkpt lat="14.39986" lon="-60.87568">
        <ele>8</ele>
        <time>2016-06-05T13:29:38.908Z</time>
      </trkpt>
      <trkpt lat="14.3999" lon="-60.87569">
        <ele>9</ele>
        <time>2016-06-05T13:29:39.907Z</time>
      </trkpt>
      <trkpt lat="14.39993" lon="-60.87571">
        <ele>9</ele>
        <time>2016-06-05T13:29:40.912Z</time>
      </trkpt>
      <trkpt lat="14.39997" lon="-60.87573">
        <ele>9</ele>
        <time>2016-06-05T13:29:41.911Z</time>
      </trkpt>
      <trkpt lat="14.4" lon="-60.87575">
        <ele>8</ele>
        <time>2016-06-05T13:29:42.911Z</time>
      </trkpt>
      <trkpt lat="14.40004" lon="-60.87576">
        <ele>8</ele>
        <time>2016-06-05T13:29:43.910Z</time>
      </trkpt>
      <trkpt lat="14.40008" lon="-60.87578">
        <ele>8</ele>
        <time>2016-06-05T13:29:44.910Z</time>
      </trkpt>
      <trkpt lat="14.40011" lon="-60.87579">
        <ele>9</ele>
        <time>2016-06-05T13:29:45.912Z</time>
      </trkpt>
      <trkpt lat="14.40015" lon="-60.87581">
        <ele>10</ele>
        <time>2016-06-05T13:29:46.910Z</time>
      </trkpt>
      <trkpt lat="14.40019" lon="-60.87583">
        <ele>11</ele>
        <time>2016-06-05T13:29:47.910Z</time>
      </trkpt>
      <trkpt lat="14.40023" lon="-60.87584">
        <ele>11</ele>
        <time>2016-06-05T13:29:48.910Z</time>
      </trkpt>
      <trkpt lat="14.40028" lon="-60.87584">
        <ele>11</ele>
        <time>2016-06-05T13:29:49.910Z</time>
      </trkpt>
      <trkpt lat="14.40032" lon="-60.87585">
        <ele>10</ele>
        <time>2016-06-05T13:29:50.911Z</time>
      </trkpt>
      <trkpt lat="14.40036" lon="-60.87587">
        <ele>10</ele>
        <time>2016-06-05T13:29:51.912Z</time>
      </trkpt>
      <trkpt lat="14.40038" lon="-60.87589">
        <ele>10</ele>
        <time>2016-06-05T13:29:52.912Z</time>
      </trkpt>
      <trkpt lat="14.40041" lon="-60.87592">
        <ele>10</ele>
        <time>2016-06-05T13:29:53.910Z</time>
      </trkpt>
      <trkpt lat="14.40045" lon="-60.87594">
        <ele>10</ele>
        <time>2016-06-05T13:29:54.910Z</time>
      </trkpt>
      <trkpt lat="14.40048" lon="-60.87595">
        <ele>11</ele>
        <time>2016-06-05T13:29:55.911Z</time>
      </trkpt>
      <trkpt lat="14.40052" lon="-60.87596">
        <ele>12</ele>
        <time>2016-06-05T13:29:56.914Z</time>
      </trkpt>
      <trkpt lat="14.40055" lon="-60.87599">
        <ele>11</ele>
        <time>2016-06-05T13:29:57.909Z</time>
      </trkpt>
      <trkpt lat="14.40058" lon="-60.876">
        <ele>10</ele>
        <time>2016-06-05T13:29:58.912Z</time>
      </trkpt>
      <trkpt lat="14.40062" lon="-60.87601">
        <ele>9</ele>
        <time>2016-06-05T13:29:59.916Z</time>
      </trkpt>
      <trkpt lat="14.40065" lon="-60.87602">
        <ele>9</ele>
        <time>2016-06-05T13:30:00.915Z</time>
      </trkpt>
      <trkpt lat="14.40068" lon="-60.87604">
        <ele>8</ele>
        <time>2016-06-05T13:30:01.916Z</time>
      </trkpt>
      <trkpt lat="14.40071" lon="-60.87606">
        <ele>8</ele>
        <time>2016-06-05T13:30:02.916Z</time>
      </trkpt>
      <trkpt lat="14.40075" lon="-60.87606">
        <ele>8</ele>
        <time>2016-06-05T13:30:03.910Z</time>
      </trkpt>
      <trkpt lat="14.40078" lon="-60.87606">
        <ele>8</ele>
        <time>2016-06-05T13:30:04.909Z</time>
      </trkpt>
      <trkpt lat="14.40082" lon="-60.87607">
        <ele>8</ele>
        <time>2016-06-05T13:30:05.910Z</time>
      </trkpt>
      <trkpt lat="14.40085" lon="-60.87609">
        <ele>8</ele>
        <time>2016-06-05T13:30:06.912Z</time>
      </trkpt>
      <trkpt lat="14.40089" lon="-60.87609">
        <ele>8</ele>
        <time>2016-06-05T13:30:07.911Z</time>
      </trkpt>
      <trkpt lat="14.40092" lon="-60.87611">
        <ele>8</ele>
        <time>2016-06-05T13:30:08.914Z</time>
      </trkpt>
      <trkpt lat="14.40095" lon="-60.87613">
        <ele>8</ele>
        <time>2016-06-05T13:30:09.912Z</time>
      </trkpt>
      <trkpt lat="14.40098" lon="-60.87615">
        <ele>8</ele>
        <time>2016-06-05T13:30:10.910Z</time>
      </trkpt>
      <trkpt lat="14.40101" lon="-60.87617">
        <ele>8</ele>
        <time>2016-06-05T13:30:11.911Z</time>
      </trkpt>
      <trkpt lat="14.40104" lon="-60.87618">
        <ele>9</ele>
        <time>2016-06-05T13:30:12.910Z</time>
      </trkpt>
      <trkpt lat="14.40108" lon="-60.87619">
        <ele>9</ele>
        <time>2016-06-05T13:30:13.910Z</time>
      </trkpt>
      <trkpt lat="14.40113" lon="-60.8762">
        <ele>7</ele>
        <time>2016-06-05T13:30:14.911Z</time>
      </trkpt>
      <trkpt lat="14.40116" lon="-60.87622">
        <ele>6</ele>
        <time>2016-06-05T13:30:15.910Z</time>
      </trkpt>
      <trkpt lat="14.40118" lon="-60.87624">
        <ele>8</ele>
        <time>2016-06-05T13:30:16.912Z</time>
      </trkpt>
      <trkpt lat="14.40122" lon="-60.87626">
        <ele>8</ele>
        <time>2016-06-05T13:30:17.909Z</time>
      </trkpt>
      <trkpt lat="14.40125" lon="-60.87627">
        <ele>9</ele>
        <time>2016-06-05T13:30:18.910Z</time>
      </trkpt>
      <trkpt lat="14.40128" lon="-60.87629">
        <ele>9</ele>
        <time>2016-06-05T13:30:19.910Z</time>
      </trkpt>
      <trkpt lat="14.40131" lon="-60.87631">
        <ele>9</ele>
        <time>2016-06-05T13:30:20.911Z</time>
      </trkpt>
      <trkpt lat="14.40133" lon="-60.87633">
        <ele>10</ele>
        <time>2016-06-05T13:30:21.913Z</time>
      </trkpt>
      <trkpt lat="14.40136" lon="-60.87635">
        <ele>10</ele>
        <time>2016-06-05T13:30:22.911Z</time>
      </trkpt>
      <trkpt lat="14.40139" lon="-60.87637">
        <ele>10</ele>
        <time>2016-06-05T13:30:23.910Z</time>
      </trkpt>
      <trkpt lat="14.40142" lon="-60.8764">
        <ele>10</ele>
        <time>2016-06-05T13:30:24.910Z</time>
      </trkpt>
      <trkpt lat="14.40144" lon="-60.87642">
        <ele>10</ele>
        <time>2016-06-05T13:30:25.910Z</time>
      </trkpt>
      <trkpt lat="14.40147" lon="-60.87644">
        <ele>10</ele>
        <time>2016-06-05T13:30:26.910Z</time>
      </trkpt>
      <trkpt lat="14.4015" lon="-60.87646">
        <ele>10</ele>
        <time>2016-06-05T13:30:27.910Z</time>
      </trkpt>
      <trkpt lat="14.40153" lon="-60.87648">
        <ele>10</ele>
        <time>2016-06-05T13:30:28.910Z</time>
      </trkpt>
      <trkpt lat="14.40156" lon="-60.8765">
        <ele>9</ele>
        <time>2016-06-05T13:30:29.909Z</time>
      </trkpt>
      <trkpt lat="14.40158" lon="-60.87652">
        <ele>9</ele>
        <time>2016-06-05T13:30:30.907Z</time>
      </trkpt>
      <trkpt lat="14.40161" lon="-60.87654">
        <ele>9</ele>
        <time>2016-06-05T13:30:31.908Z</time>
      </trkpt>
      <trkpt lat="14.40164" lon="-60.87656">
        <ele>10</ele>
        <time>2016-06-05T13:30:32.905Z</time>
      </trkpt>
      <trkpt lat="14.40166" lon="-60.87658">
        <ele>10</ele>
        <time>2016-06-05T13:30:33.907Z</time>
      </trkpt>
      <trkpt lat="14.40169" lon="-60.8766">
        <ele>10</ele>
        <time>2016-06-05T13:30:34.910Z</time>
      </trkpt>
      <trkpt lat="14.40172" lon="-60.87662">
        <ele>10</ele>
        <time>2016-06-05T13:30:35.909Z</time>
      </trkpt>
      <trkpt lat="14.40174" lon="-60.87664">
        <ele>10</ele>
        <time>2016-06-05T13:30:36.907Z</time>
      </trkpt>
      <trkpt lat="14.40177" lon="-60.87666">
        <ele>11</ele>
        <time>2016-06-05T13:30:37.904Z</time>
      </trkpt>
      <trkpt lat="14.40179" lon="-60.87668">
        <ele>11</ele>
        <time>2016-06-05T13:30:38.903Z</time>
      </trkpt>
      <trkpt lat="14.40182" lon="-60.8767">
        <ele>9</ele>
        <time>2016-06-05T13:30:39.908Z</time>
      </trkpt>
      <trkpt lat="14.40185" lon="-60.87672">
        <ele>9</ele>
        <time>2016-06-05T13:30:40.909Z</time>
      </trkpt>
      <trkpt lat="14.40187" lon="-60.87674">
        <ele>9</ele>
        <time>2016-06-05T13:30:41.906Z</time>
      </trkpt>
      <trkpt lat="14.40189" lon="-60.87676">
        <ele>10</ele>
        <time>2016-06-05T13:30:42.905Z</time>
      </trkpt>
      <trkpt lat="14.40191" lon="-60.87677">
        <ele>9</ele>
        <time>2016-06-05T13:30:43.908Z</time>
      </trkpt>
      <trkpt lat="14.40194" lon="-60.87679">
        <ele>9</ele>
        <time>2016-06-05T13:30:44.910Z</time>
      </trkpt>
      <trkpt lat="14.40196" lon="-60.87682">
        <ele>9</ele>
        <time>2016-06-05T13:30:45.908Z</time>
      </trkpt>
      <trkpt lat="14.40199" lon="-60.87685">
        <ele>9</ele>
        <time>2016-06-05T13:30:46.904Z</time>
      </trkpt>
      <trkpt lat="14.40201" lon="-60.87687">
        <ele>9</ele>
        <time>2016-06-05T13:30:47.904Z</time>
      </trkpt>
      <trkpt lat="14.40203" lon="-60.8769">
        <ele>10</ele>
        <time>2016-06-05T13:30:48.907Z</time>
      </trkpt>
      <trkpt lat="14.40205" lon="-60.87692">
        <ele>10</ele>
        <time>2016-06-05T13:30:49.905Z</time>
      </trkpt>
      <trkpt lat="14.40208" lon="-60.87694">
        <ele>11</ele>
        <time>2016-06-05T13:30:50.903Z</time>
      </trkpt>
      <trkpt lat="14.40212" lon="-60.87696">
        <ele>10</ele>
        <time>2016-06-05T13:30:51.905Z</time>
      </trkpt>
      <trkpt lat="14.40215" lon="-60.87698">
        <ele>10</ele>
        <time>2016-06-05T13:30:52.905Z</time>
      </trkpt>
      <trkpt lat="14.40219" lon="-60.877">
        <ele>10</ele>
        <time>2016-06-05T13:30:53.906Z</time>
      </trkpt>
      <trkpt lat="14.40222" lon="-60.87702">
        <ele>10</ele>
        <time>2016-06-05T13:30:54.905Z</time>
      </trkpt>
      <trkpt lat="14.40226" lon="-60.87704">
        <ele>9</ele>
        <time>2016-06-05T13:30:55.904Z</time>
      </trkpt>
      <trkpt lat="14.40229" lon="-60.87706">
        <ele>8</ele>
        <time>2016-06-05T13:30:56.902Z</time>
      </trkpt>
      <trkpt lat="14.40231" lon="-60.87708">
        <ele>8</ele>
        <time>2016-06-05T13:30:57.907Z</time>
      </trkpt>
      <trkpt lat="14.40234" lon="-60.8771">
        <ele>8</ele>
        <time>2016-06-05T13:30:58.905Z</time>
      </trkpt>
      <trkpt lat="14.40237" lon="-60.87712">
        <ele>9</ele>
        <time>2016-06-05T13:30:59.908Z</time>
      </trkpt>
      <trkpt lat="14.4024" lon="-60.87713">
        <ele>9</ele>
        <time>2016-06-05T13:31:00.909Z</time>
      </trkpt>
      <trkpt lat="14.40244" lon="-60.87715">
        <ele>8</ele>
        <time>2016-06-05T13:31:01.905Z</time>
      </trkpt>
      <trkpt lat="14.40248" lon="-60.87716">
        <ele>8</ele>
        <time>2016-06-05T13:31:02.903Z</time>
      </trkpt>
      <trkpt lat="14.40251" lon="-60.87717">
        <ele>8</ele>
        <time>2016-06-05T13:31:03.902Z</time>
      </trkpt>
      <trkpt lat="14.40255" lon="-60.87718">
        <ele>7</ele>
        <time>2016-06-05T13:31:04.902Z</time>
      </trkpt>
      <trkpt lat="14.40258" lon="-60.87719">
        <ele>7</ele>
        <time>2016-06-05T13:31:05.905Z</time>
      </trkpt>
      <trkpt lat="14.40262" lon="-60.8772">
        <ele>6</ele>
        <time>2016-06-05T13:31:06.909Z</time>
      </trkpt>
      <trkpt lat="14.40265" lon="-60.8772">
        <ele>8</ele>
        <time>2016-06-05T13:31:07.909Z</time>
      </trkpt>
      <trkpt lat="14.40268" lon="-60.8772">
        <ele>5</ele>
        <time>2016-06-05T13:31:08.917Z</time>
      </trkpt>
      <trkpt lat="14.40273" lon="-60.87719">
        <ele>4</ele>
        <time>2016-06-05T13:31:09.911Z</time>
      </trkpt>
      <trkpt lat="14.40276" lon="-60.8772">
        <ele>4</ele>
        <time>2016-06-05T13:31:10.912Z</time>
      </trkpt>
      <trkpt lat="14.4028" lon="-60.87721">
        <ele>3</ele>
        <time>2016-06-05T13:31:11.910Z</time>
      </trkpt>
      <trkpt lat="14.40282" lon="-60.87722">
        <ele>3</ele>
        <time>2016-06-05T13:31:12.910Z</time>
      </trkpt>
      <trkpt lat="14.40284" lon="-60.87725">
        <ele>4</ele>
        <time>2016-06-05T13:31:13.910Z</time>
      </trkpt>
      <trkpt lat="14.40284" lon="-60.87728">
        <ele>5</ele>
        <time>2016-06-05T13:31:14.911Z</time>
      </trkpt>
      <trkpt lat="14.40283" lon="-60.8773">
        <ele>5</ele>
        <time>2016-06-05T13:31:15.911Z</time>
      </trkpt>
      <trkpt lat="14.40282" lon="-60.87733">
        <ele>5</ele>
        <time>2016-06-05T13:31:16.908Z</time>
      </trkpt>
      <trkpt lat="14.40281" lon="-60.87735">
        <ele>5</ele>
        <time>2016-06-05T13:31:17.905Z</time>
      </trkpt>
      <trkpt lat="14.4028" lon="-60.87737">
        <ele>6</ele>
        <time>2016-06-05T13:31:18.907Z</time>
      </trkpt>
      <trkpt lat="14.4028" lon="-60.87741">
        <ele>8</ele>
        <time>2016-06-05T13:31:19.904Z</time>
      </trkpt>
      <trkpt lat="14.4028" lon="-60.87744">
        <ele>8</ele>
        <time>2016-06-05T13:31:20.906Z</time>
      </trkpt>
      <trkpt lat="14.4028" lon="-60.87747">
        <ele>8</ele>
        <time>2016-06-05T13:31:21.905Z</time>
      </trkpt>
      <trkpt lat="14.40282" lon="-60.8775">
        <ele>8</ele>
        <time>2016-06-05T13:31:22.903Z</time>
      </trkpt>
      <trkpt lat="14.40282" lon="-60.87754">
        <ele>8</ele>
        <time>2016-06-05T13:31:23.907Z</time>
      </trkpt>
      <trkpt lat="14.40284" lon="-60.87756">
        <ele>9</ele>
        <time>2016-06-05T13:31:24.905Z</time>
      </trkpt>
      <trkpt lat="14.40286" lon="-60.87758">
        <ele>8</ele>
        <time>2016-06-05T13:31:25.905Z</time>
      </trkpt>
      <trkpt lat="14.40286" lon="-60.8776">
        <ele>9</ele>
        <time>2016-06-05T13:31:26.905Z</time>
      </trkpt>
      <trkpt lat="14.40288" lon="-60.87762">
        <ele>8</ele>
        <time>2016-06-05T13:31:27.905Z</time>
      </trkpt>
      <trkpt lat="14.40291" lon="-60.87765">
        <ele>7</ele>
        <time>2016-06-05T13:31:28.906Z</time>
      </trkpt>
      <trkpt lat="14.40293" lon="-60.87768">
        <ele>7</ele>
        <time>2016-06-05T13:31:29.905Z</time>
      </trkpt>
      <trkpt lat="14.40293" lon="-60.87772">
        <ele>7</ele>
        <time>2016-06-05T13:31:30.909Z</time>
      </trkpt>
      <trkpt lat="14.40296" lon="-60.87774">
        <ele>7</ele>
        <time>2016-06-05T13:31:31.912Z</time>
      </trkpt>
      <trkpt lat="14.40301" lon="-60.87777">
        <ele>7</ele>
        <time>2016-06-05T13:31:32.915Z</time>
      </trkpt>
      <trkpt lat="14.40305" lon="-60.8778">
        <ele>7</ele>
        <time>2016-06-05T13:31:33.911Z</time>
      </trkpt>
      <trkpt lat="14.40305" lon="-60.87785">
        <ele>7</ele>
        <time>2016-06-05T13:31:34.905Z</time>
      </trkpt>
      <trkpt lat="14.40308" lon="-60.87788">
        <ele>8</ele>
        <time>2016-06-05T13:31:35.903Z</time>
      </trkpt>
      <trkpt lat="14.40309" lon="-60.87791">
        <ele>7</ele>
        <time>2016-06-05T13:31:36.904Z</time>
      </trkpt>
      <trkpt lat="14.4031" lon="-60.87793">
        <ele>8</ele>
        <time>2016-06-05T13:31:37.903Z</time>
      </trkpt>
      <trkpt lat="14.40311" lon="-60.87796">
        <ele>8</ele>
        <time>2016-06-05T13:31:38.908Z</time>
      </trkpt>
      <trkpt lat="14.40315" lon="-60.878">
        <ele>7</ele>
        <time>2016-06-05T13:31:39.910Z</time>
      </trkpt>
      <trkpt lat="14.40316" lon="-60.87802">
        <ele>7</ele>
        <time>2016-06-05T13:31:40.910Z</time>
      </trkpt>
      <trkpt lat="14.40318" lon="-60.87805">
        <ele>8</ele>
        <time>2016-06-05T13:31:41.910Z</time>
      </trkpt>
      <trkpt lat="14.40321" lon="-60.87809">
        <ele>9</ele>
        <time>2016-06-05T13:31:42.910Z</time>
      </trkpt>
      <trkpt lat="14.40323" lon="-60.87812">
        <ele>9</ele>
        <time>2016-06-05T13:31:43.910Z</time>
      </trkpt>
      <trkpt lat="14.40324" lon="-60.87815">
        <ele>10</ele>
        <time>2016-06-05T13:31:44.909Z</time>
      </trkpt>
      <trkpt lat="14.40325" lon="-60.87819">
        <ele>10</ele>
        <time>2016-06-05T13:31:45.911Z</time>
      </trkpt>
      <trkpt lat="14.40327" lon="-60.87821">
        <ele>10</ele>
        <time>2016-06-05T13:31:46.911Z</time>
      </trkpt>
      <trkpt lat="14.40328" lon="-60.87823">
        <ele>10</ele>
        <time>2016-06-05T13:31:47.910Z</time>
      </trkpt>
      <trkpt lat="14.4033" lon="-60.87826">
        <ele>12</ele>
        <time>2016-06-05T13:31:48.912Z</time>
      </trkpt>
      <trkpt lat="14.40333" lon="-60.87829">
        <ele>10</ele>
        <time>2016-06-05T13:31:49.912Z</time>
      </trkpt>
      <trkpt lat="14.40335" lon="-60.87832">
        <ele>10</ele>
        <time>2016-06-05T13:31:50.908Z</time>
      </trkpt>
      <trkpt lat="14.40337" lon="-60.87836">
        <ele>9</ele>
        <time>2016-06-05T13:31:51.906Z</time>
      </trkpt>
      <trkpt lat="14.40338" lon="-60.87839">
        <ele>10</ele>
        <time>2016-06-05T13:31:52.904Z</time>
      </trkpt>
      <trkpt lat="14.40339" lon="-60.87842">
        <ele>11</ele>
        <time>2016-06-05T13:31:53.904Z</time>
      </trkpt>
      <trkpt lat="14.4034" lon="-60.87844">
        <ele>12</ele>
        <time>2016-06-05T13:31:54.908Z</time>
      </trkpt>
      <trkpt lat="14.40343" lon="-60.87847">
        <ele>12</ele>
        <time>2016-06-05T13:31:55.910Z</time>
      </trkpt>
      <trkpt lat="14.40346" lon="-60.8785">
        <ele>12</ele>
        <time>2016-06-05T13:31:56.911Z</time>
      </trkpt>
      <trkpt lat="14.40349" lon="-60.87853">
        <ele>13</ele>
        <time>2016-06-05T13:31:57.911Z</time>
      </trkpt>
      <trkpt lat="14.40352" lon="-60.87856">
        <ele>11</ele>
        <time>2016-06-05T13:31:58.911Z</time>
      </trkpt>
      <trkpt lat="14.40354" lon="-60.87859">
        <ele>13</ele>
        <time>2016-06-05T13:31:59.911Z</time>
      </trkpt>
      <trkpt lat="14.40356" lon="-60.87861">
        <ele>13</ele>
        <time>2016-06-05T13:32:00.912Z</time>
      </trkpt>
      <trkpt lat="14.40358" lon="-60.87863">
        <ele>13</ele>
        <time>2016-06-05T13:32:01.907Z</time>
      </trkpt>
      <trkpt lat="14.4036" lon="-60.87865">
        <ele>13</ele>
        <time>2016-06-05T13:32:02.906Z</time>
      </trkpt>
      <trkpt lat="14.40362" lon="-60.87869">
        <ele>14</ele>
        <time>2016-06-05T13:32:03.908Z</time>
      </trkpt>
      <trkpt lat="14.40364" lon="-60.87872">
        <ele>15</ele>
        <time>2016-06-05T13:32:04.911Z</time>
      </trkpt>
      <trkpt lat="14.40366" lon="-60.87876">
        <ele>17</ele>
        <time>2016-06-05T13:32:05.910Z</time>
      </trkpt>
      <trkpt lat="14.40367" lon="-60.8788">
        <ele>18</ele>
        <time>2016-06-05T13:32:06.909Z</time>
      </trkpt>
      <trkpt lat="14.40369" lon="-60.87884">
        <ele>18</ele>
        <time>2016-06-05T13:32:07.910Z</time>
      </trkpt>
      <trkpt lat="14.40372" lon="-60.87887">
        <ele>16</ele>
        <time>2016-06-05T13:32:08.911Z</time>
      </trkpt>
      <trkpt lat="14.40373" lon="-60.8789">
        <ele>17</ele>
        <time>2016-06-05T13:32:09.911Z</time>
      </trkpt>
      <trkpt lat="14.40377" lon="-60.87893">
        <ele>16</ele>
        <time>2016-06-05T13:32:10.912Z</time>
      </trkpt>
      <trkpt lat="14.4038" lon="-60.87897">
        <ele>15</ele>
        <time>2016-06-05T13:32:11.913Z</time>
      </trkpt>
      <trkpt lat="14.40382" lon="-60.879">
        <ele>16</ele>
        <time>2016-06-05T13:32:12.911Z</time>
      </trkpt>
      <trkpt lat="14.40385" lon="-60.87902">
        <ele>18</ele>
        <time>2016-06-05T13:32:13.910Z</time>
      </trkpt>
      <trkpt lat="14.40386" lon="-60.87906">
        <ele>18</ele>
        <time>2016-06-05T13:32:14.910Z</time>
      </trkpt>
      <trkpt lat="14.40388" lon="-60.8791">
        <ele>15</ele>
        <time>2016-06-05T13:32:15.911Z</time>
      </trkpt>
      <trkpt lat="14.40391" lon="-60.87912">
        <ele>14</ele>
        <time>2016-06-05T13:32:16.912Z</time>
      </trkpt>
      <trkpt lat="14.40393" lon="-60.87916">
        <ele>13</ele>
        <time>2016-06-05T13:32:17.912Z</time>
      </trkpt>
      <trkpt lat="14.40396" lon="-60.87919">
        <ele>13</ele>
        <time>2016-06-05T13:32:18.913Z</time>
      </trkpt>
      <trkpt lat="14.40398" lon="-60.87921">
        <ele>13</ele>
        <time>2016-06-05T13:32:19.912Z</time>
      </trkpt>
      <trkpt lat="14.404" lon="-60.87923">
        <ele>13</ele>
        <time>2016-06-05T13:32:20.910Z</time>
      </trkpt>
      <trkpt lat="14.40401" lon="-60.87926">
        <ele>13</ele>
        <time>2016-06-05T13:32:21.912Z</time>
      </trkpt>
      <trkpt lat="14.40404" lon="-60.8793">
        <ele>13</ele>
        <time>2016-06-05T13:32:22.912Z</time>
      </trkpt>
      <trkpt lat="14.40405" lon="-60.87933">
        <ele>14</ele>
        <time>2016-06-05T13:32:23.911Z</time>
      </trkpt>
      <trkpt lat="14.40407" lon="-60.87934">
        <ele>13</ele>
        <time>2016-06-05T13:32:24.910Z</time>
      </trkpt>
      <trkpt lat="14.40409" lon="-60.87937">
        <ele>14</ele>
        <time>2016-06-05T13:32:25.911Z</time>
      </trkpt>
      <trkpt lat="14.4041" lon="-60.8794">
        <ele>15</ele>
        <time>2016-06-05T13:32:26.913Z</time>
      </trkpt>
      <trkpt lat="14.40411" lon="-60.87942">
        <ele>15</ele>
        <time>2016-06-05T13:32:27.912Z</time>
      </trkpt>
      <trkpt lat="14.40411" lon="-60.87946">
        <ele>16</ele>
        <time>2016-06-05T13:32:28.912Z</time>
      </trkpt>
      <trkpt lat="14.40415" lon="-60.87949">
        <ele>11</ele>
        <time>2016-06-05T13:32:29.911Z</time>
      </trkpt>
      <trkpt lat="14.40417" lon="-60.87951">
        <ele>12</ele>
        <time>2016-06-05T13:32:30.913Z</time>
      </trkpt>
      <trkpt lat="14.40419" lon="-60.87954">
        <ele>10</ele>
        <time>2016-06-05T13:32:31.912Z</time>
      </trkpt>
      <trkpt lat="14.40421" lon="-60.87957">
        <ele>10</ele>
        <time>2016-06-05T13:32:32.911Z</time>
      </trkpt>
      <trkpt lat="14.40422" lon="-60.87958">
        <ele>10</ele>
        <time>2016-06-05T13:32:33.911Z</time>
      </trkpt>
      <trkpt lat="14.40422" lon="-60.87962">
        <ele>12</ele>
        <time>2016-06-05T13:32:34.913Z</time>
      </trkpt>
      <trkpt lat="14.40424" lon="-60.87965">
        <ele>13</ele>
        <time>2016-06-05T13:32:35.912Z</time>
      </trkpt>
      <trkpt lat="14.40425" lon="-60.87968">
        <ele>14</ele>
        <time>2016-06-05T13:32:36.911Z</time>
      </trkpt>
      <trkpt lat="14.40427" lon="-60.8797">
        <ele>14</ele>
        <time>2016-06-05T13:32:37.911Z</time>
      </trkpt>
      <trkpt lat="14.40427" lon="-60.87972">
        <ele>15</ele>
        <time>2016-06-05T13:32:38.911Z</time>
      </trkpt>
      <trkpt lat="14.40427" lon="-60.87974">
        <ele>14</ele>
        <time>2016-06-05T13:32:39.912Z</time>
      </trkpt>
      <trkpt lat="14.4043" lon="-60.87976">
        <ele>14</ele>
        <time>2016-06-05T13:32:40.912Z</time>
      </trkpt>
      <trkpt lat="14.40431" lon="-60.87975">
        <ele>15</ele>
        <time>2016-06-05T13:32:41.914Z</time>
      </trkpt>
      <trkpt lat="14.40434" lon="-60.87977">
        <ele>15</ele>
        <time>2016-06-05T13:32:42.913Z</time>
      </trkpt>
      <trkpt lat="14.40436" lon="-60.8798">
        <ele>15</ele>
        <time>2016-06-05T13:32:43.913Z</time>
      </trkpt>
      <trkpt lat="14.40437" lon="-60.87982">
        <ele>15</ele>
        <time>2016-06-05T13:32:44.913Z</time>
      </trkpt>
      <trkpt lat="14.4044" lon="-60.87985">
        <ele>15</ele>
        <time>2016-06-05T13:32:45.916Z</time>
      </trkpt>
      <trkpt lat="14.40441" lon="-60.87989">
        <ele>15</ele>
        <time>2016-06-05T13:32:47.910Z</time>
      </trkpt>
      <trkpt lat="14.40442" lon="-60.87991">
        <ele>16</ele>
        <time>2016-06-05T13:32:48.908Z</time>
      </trkpt>
      <trkpt lat="14.40444" lon="-60.87994">
        <ele>17</ele>
        <time>2016-06-05T13:32:49.909Z</time>
      </trkpt>
      <trkpt lat="14.40446" lon="-60.87997">
        <ele>17</ele>
        <time>2016-06-05T13:32:50.911Z</time>
      </trkpt>
      <trkpt lat="14.40447" lon="-60.87999">
        <ele>16</ele>
        <time>2016-06-05T13:32:51.910Z</time>
      </trkpt>
      <trkpt lat="14.40448" lon="-60.88003">
        <ele>17</ele>
        <time>2016-06-05T13:32:52.910Z</time>
      </trkpt>
      <trkpt lat="14.40449" lon="-60.88006">
        <ele>18</ele>
        <time>2016-06-05T13:32:53.911Z</time>
      </trkpt>
      <trkpt lat="14.40451" lon="-60.88008">
        <ele>19</ele>
        <time>2016-06-05T13:32:54.911Z</time>
      </trkpt>
      <trkpt lat="14.40452" lon="-60.88011">
        <ele>19</ele>
        <time>2016-06-05T13:32:55.910Z</time>
      </trkpt>
      <trkpt lat="14.40455" lon="-60.88014">
        <ele>18</ele>
        <time>2016-06-05T13:32:56.910Z</time>
      </trkpt>
      <trkpt lat="14.40455" lon="-60.88017">
        <ele>19</ele>
        <time>2016-06-05T13:32:57.910Z</time>
      </trkpt>
      <trkpt lat="14.40455" lon="-60.8802">
        <ele>19</ele>
        <time>2016-06-05T13:32:58.911Z</time>
      </trkpt>
      <trkpt lat="14.40457" lon="-60.88023">
        <ele>18</ele>
        <time>2016-06-05T13:32:59.910Z</time>
      </trkpt>
      <trkpt lat="14.40459" lon="-60.88025">
        <ele>17</ele>
        <time>2016-06-05T13:33:00.910Z</time>
      </trkpt>
      <trkpt lat="14.4046" lon="-60.88027">
        <ele>16</ele>
        <time>2016-06-05T13:33:01.914Z</time>
      </trkpt>
      <trkpt lat="14.40461" lon="-60.88029">
        <ele>17</ele>
        <time>2016-06-05T13:33:02.911Z</time>
      </trkpt>
      <trkpt lat="14.40464" lon="-60.88031">
        <ele>14</ele>
        <time>2016-06-05T13:33:03.913Z</time>
      </trkpt>
      <trkpt lat="14.40466" lon="-60.88034">
        <ele>12</ele>
        <time>2016-06-05T13:33:04.915Z</time>
      </trkpt>
      <trkpt lat="14.40467" lon="-60.88037">
        <ele>11</ele>
        <time>2016-06-05T13:33:05.915Z</time>
      </trkpt>
      <trkpt lat="14.40468" lon="-60.88039">
        <ele>12</ele>
        <time>2016-06-05T13:33:06.908Z</time>
      </trkpt>
      <trkpt lat="14.40469" lon="-60.88042">
        <ele>11</ele>
        <time>2016-06-05T13:33:07.907Z</time>
      </trkpt>
      <trkpt lat="14.40471" lon="-60.88044">
        <ele>12</ele>
        <time>2016-06-05T13:33:08.910Z</time>
      </trkpt>
      <trkpt lat="14.40472" lon="-60.88048">
        <ele>12</ele>
        <time>2016-06-05T13:33:09.912Z</time>
      </trkpt>
      <trkpt lat="14.40474" lon="-60.88051">
        <ele>10</ele>
        <time>2016-06-05T13:33:10.913Z</time>
      </trkpt>
      <trkpt lat="14.40475" lon="-60.88054">
        <ele>10</ele>
        <time>2016-06-05T13:33:11.911Z</time>
      </trkpt>
      <trkpt lat="14.40477" lon="-60.88056">
        <ele>11</ele>
        <time>2016-06-05T13:33:12.911Z</time>
      </trkpt>
      <trkpt lat="14.40478" lon="-60.8806">
        <ele>10</ele>
        <time>2016-06-05T13:33:13.910Z</time>
      </trkpt>
      <trkpt lat="14.4048" lon="-60.88062">
        <ele>9</ele>
        <time>2016-06-05T13:33:14.911Z</time>
      </trkpt>
      <trkpt lat="14.40481" lon="-60.88064">
        <ele>9</ele>
        <time>2016-06-05T13:33:15.910Z</time>
      </trkpt>
      <trkpt lat="14.40483" lon="-60.88067">
        <ele>10</ele>
        <time>2016-06-05T13:33:16.910Z</time>
      </trkpt>
      <trkpt lat="14.40484" lon="-60.8807">
        <ele>10</ele>
        <time>2016-06-05T13:33:17.912Z</time>
      </trkpt>
      <trkpt lat="14.40485" lon="-60.88072">
        <ele>10</ele>
        <time>2016-06-05T13:33:18.913Z</time>
      </trkpt>
      <trkpt lat="14.40487" lon="-60.88075">
        <ele>9</ele>
        <time>2016-06-05T13:33:19.911Z</time>
      </trkpt>
      <trkpt lat="14.40488" lon="-60.88078">
        <ele>8</ele>
        <time>2016-06-05T13:33:20.915Z</time>
      </trkpt>
      <trkpt lat="14.4049" lon="-60.8808">
        <ele>8</ele>
        <time>2016-06-05T13:33:21.913Z</time>
      </trkpt>
      <trkpt lat="14.40491" lon="-60.88082">
        <ele>9</ele>
        <time>2016-06-05T13:33:22.912Z</time>
      </trkpt>
      <trkpt lat="14.40493" lon="-60.88084">
        <ele>9</ele>
        <time>2016-06-05T13:33:23.911Z</time>
      </trkpt>
      <trkpt lat="14.40495" lon="-60.88086">
        <ele>8</ele>
        <time>2016-06-05T13:33:24.911Z</time>
      </trkpt>
      <trkpt lat="14.40495" lon="-60.8809">
        <ele>9</ele>
        <time>2016-06-05T13:33:25.911Z</time>
      </trkpt>
      <trkpt lat="14.40495" lon="-60.88093">
        <ele>9</ele>
        <time>2016-06-05T13:33:26.909Z</time>
      </trkpt>
      <trkpt lat="14.40496" lon="-60.88096">
        <ele>9</ele>
        <time>2016-06-05T13:33:27.911Z</time>
      </trkpt>
      <trkpt lat="14.40498" lon="-60.881">
        <ele>9</ele>
        <time>2016-06-05T13:33:28.910Z</time>
      </trkpt>
      <trkpt lat="14.405" lon="-60.88104">
        <ele>8</ele>
        <time>2016-06-05T13:33:29.910Z</time>
      </trkpt>
      <trkpt lat="14.40503" lon="-60.88106">
        <ele>6</ele>
        <time>2016-06-05T13:33:30.911Z</time>
      </trkpt>
      <trkpt lat="14.40505" lon="-60.88109">
        <ele>5</ele>
        <time>2016-06-05T13:33:31.912Z</time>
      </trkpt>
      <trkpt lat="14.40508" lon="-60.88112">
        <ele>5</ele>
        <time>2016-06-05T13:33:32.916Z</time>
      </trkpt>
      <trkpt lat="14.40509" lon="-60.88114">
        <ele>4</ele>
        <time>2016-06-05T13:33:33.913Z</time>
      </trkpt>
      <trkpt lat="14.40512" lon="-60.88116">
        <ele>5</ele>
        <time>2016-06-05T13:33:34.914Z</time>
      </trkpt>
      <trkpt lat="14.40514" lon="-60.88119">
        <ele>6</ele>
        <time>2016-06-05T13:33:35.911Z</time>
      </trkpt>
      <trkpt lat="14.40515" lon="-60.88122">
        <ele>7</ele>
        <time>2016-06-05T13:33:36.910Z</time>
      </trkpt>
      <trkpt lat="14.40516" lon="-60.88126">
        <ele>7</ele>
        <time>2016-06-05T13:33:37.910Z</time>
      </trkpt>
      <trkpt lat="14.40517" lon="-60.88128">
        <ele>7</ele>
        <time>2016-06-05T13:33:38.908Z</time>
      </trkpt>
      <trkpt lat="14.40517" lon="-60.88131">
        <ele>7</ele>
        <time>2016-06-05T13:33:39.909Z</time>
      </trkpt>
      <trkpt lat="14.40517" lon="-60.88133">
        <ele>8</ele>
        <time>2016-06-05T13:33:40.909Z</time>
      </trkpt>
      <trkpt lat="14.40517" lon="-60.88135">
        <ele>8</ele>
        <time>2016-06-05T13:33:41.910Z</time>
      </trkpt>
      <trkpt lat="14.40519" lon="-60.88138">
        <ele>8</ele>
        <time>2016-06-05T13:33:42.911Z</time>
      </trkpt>
      <trkpt lat="14.40519" lon="-60.8814">
        <ele>8</ele>
        <time>2016-06-05T13:33:43.910Z</time>
      </trkpt>
      <trkpt lat="14.4052" lon="-60.88143">
        <ele>8</ele>
        <time>2016-06-05T13:33:44.911Z</time>
      </trkpt>
      <trkpt lat="14.4052" lon="-60.88146">
        <ele>7</ele>
        <time>2016-06-05T13:33:45.910Z</time>
      </trkpt>
      <trkpt lat="14.40521" lon="-60.88148">
        <ele>7</ele>
        <time>2016-06-05T13:33:46.910Z</time>
      </trkpt>
      <trkpt lat="14.40521" lon="-60.88152">
        <ele>7</ele>
        <time>2016-06-05T13:33:47.910Z</time>
      </trkpt>
      <trkpt lat="14.40522" lon="-60.88155">
        <ele>8</ele>
        <time>2016-06-05T13:33:48.909Z</time>
      </trkpt>
      <trkpt lat="14.40522" lon="-60.88157">
        <ele>8</ele>
        <time>2016-06-05T13:33:49.909Z</time>
      </trkpt>
      <trkpt lat="14.40523" lon="-60.8816">
        <ele>10</ele>
        <time>2016-06-05T13:33:50.909Z</time>
      </trkpt>
      <trkpt lat="14.40524" lon="-60.88162">
        <ele>9</ele>
        <time>2016-06-05T13:33:51.910Z</time>
      </trkpt>
      <trkpt lat="14.40526" lon="-60.88164">
        <ele>10</ele>
        <time>2016-06-05T13:33:52.909Z</time>
      </trkpt>
      <trkpt lat="14.40526" lon="-60.88168">
        <ele>12</ele>
        <time>2016-06-05T13:33:53.910Z</time>
      </trkpt>
      <trkpt lat="14.40527" lon="-60.88171">
        <ele>12</ele>
        <time>2016-06-05T13:33:54.911Z</time>
      </trkpt>
      <trkpt lat="14.40527" lon="-60.88174">
        <ele>11</ele>
        <time>2016-06-05T13:33:55.910Z</time>
      </trkpt>
      <trkpt lat="14.40527" lon="-60.88176">
        <ele>12</ele>
        <time>2016-06-05T13:33:56.910Z</time>
      </trkpt>
      <trkpt lat="14.40528" lon="-60.88178">
        <ele>14</ele>
        <time>2016-06-05T13:33:57.910Z</time>
      </trkpt>
      <trkpt lat="14.4053" lon="-60.88181">
        <ele>14</ele>
        <time>2016-06-05T13:33:58.911Z</time>
      </trkpt>
      <trkpt lat="14.40531" lon="-60.88183">
        <ele>14</ele>
        <time>2016-06-05T13:33:59.910Z</time>
      </trkpt>
      <trkpt lat="14.40531" lon="-60.88186">
        <ele>13</ele>
        <time>2016-06-05T13:34:00.910Z</time>
      </trkpt>
      <trkpt lat="14.40532" lon="-60.8819">
        <ele>13</ele>
        <time>2016-06-05T13:34:01.910Z</time>
      </trkpt>
      <trkpt lat="14.40535" lon="-60.88192">
        <ele>13</ele>
        <time>2016-06-05T13:34:02.910Z</time>
      </trkpt>
      <trkpt lat="14.40535" lon="-60.88196">
        <ele>14</ele>
        <time>2016-06-05T13:34:03.910Z</time>
      </trkpt>
      <trkpt lat="14.40537" lon="-60.882">
        <ele>14</ele>
        <time>2016-06-05T13:34:04.910Z</time>
      </trkpt>
      <trkpt lat="14.40537" lon="-60.88203">
        <ele>15</ele>
        <time>2016-06-05T13:34:05.910Z</time>
      </trkpt>
      <trkpt lat="14.40538" lon="-60.88206">
        <ele>15</ele>
        <time>2016-06-05T13:34:06.910Z</time>
      </trkpt>
      <trkpt lat="14.40538" lon="-60.8821">
        <ele>15</ele>
        <time>2016-06-05T13:34:07.910Z</time>
      </trkpt>
      <trkpt lat="14.40539" lon="-60.88213">
        <ele>16</ele>
        <time>2016-06-05T13:34:08.909Z</time>
      </trkpt>
      <trkpt lat="14.40542" lon="-60.88215">
        <ele>13</ele>
        <time>2016-06-05T13:34:09.909Z</time>
      </trkpt>
      <trkpt lat="14.40542" lon="-60.88218">
        <ele>12</ele>
        <time>2016-06-05T13:34:10.910Z</time>
      </trkpt>
      <trkpt lat="14.40543" lon="-60.8822">
        <ele>12</ele>
        <time>2016-06-05T13:34:11.909Z</time>
      </trkpt>
      <trkpt lat="14.40546" lon="-60.88222">
        <ele>10</ele>
        <time>2016-06-05T13:34:12.909Z</time>
      </trkpt>
      <trkpt lat="14.40545" lon="-60.88225">
        <ele>8</ele>
        <time>2016-06-05T13:34:13.910Z</time>
      </trkpt>
      <trkpt lat="14.40546" lon="-60.88227">
        <ele>8</ele>
        <time>2016-06-05T13:34:14.912Z</time>
      </trkpt>
      <trkpt lat="14.40547" lon="-60.88229">
        <ele>8</ele>
        <time>2016-06-05T13:34:15.910Z</time>
      </trkpt>
      <trkpt lat="14.40548" lon="-60.88231">
        <ele>8</ele>
        <time>2016-06-05T13:34:16.910Z</time>
      </trkpt>
      <trkpt lat="14.4055" lon="-60.88233">
        <ele>6</ele>
        <time>2016-06-05T13:34:17.912Z</time>
      </trkpt>
      <trkpt lat="14.40552" lon="-60.88236">
        <ele>6</ele>
        <time>2016-06-05T13:34:18.911Z</time>
      </trkpt>
      <trkpt lat="14.40555" lon="-60.88239">
        <ele>7</ele>
        <time>2016-06-05T13:34:19.910Z</time>
      </trkpt>
      <trkpt lat="14.40555" lon="-60.88242">
        <ele>7</ele>
        <time>2016-06-05T13:34:20.911Z</time>
      </trkpt>
      <trkpt lat="14.40554" lon="-60.88245">
        <ele>7</ele>
        <time>2016-06-05T13:34:21.910Z</time>
      </trkpt>
      <trkpt lat="14.40555" lon="-60.88247">
        <ele>6</ele>
        <time>2016-06-05T13:34:22.908Z</time>
      </trkpt>
      <trkpt lat="14.40556" lon="-60.8825">
        <ele>5</ele>
        <time>2016-06-05T13:34:23.910Z</time>
      </trkpt>
      <trkpt lat="14.40557" lon="-60.88253">
        <ele>5</ele>
        <time>2016-06-05T13:34:24.913Z</time>
      </trkpt>
      <trkpt lat="14.40559" lon="-60.88255">
        <ele>5</ele>
        <time>2016-06-05T13:34:25.913Z</time>
      </trkpt>
      <trkpt lat="14.4056" lon="-60.88257">
        <ele>6</ele>
        <time>2016-06-05T13:34:26.911Z</time>
      </trkpt>
      <trkpt lat="14.4056" lon="-60.8826">
        <ele>6</ele>
        <time>2016-06-05T13:34:27.909Z</time>
      </trkpt>
      <trkpt lat="14.40561" lon="-60.88263">
        <ele>6</ele>
        <time>2016-06-05T13:34:28.912Z</time>
      </trkpt>
      <trkpt lat="14.40562" lon="-60.88266">
        <ele>4</ele>
        <time>2016-06-05T13:34:29.912Z</time>
      </trkpt>
      <trkpt lat="14.40564" lon="-60.88269">
        <ele>4</ele>
        <time>2016-06-05T13:34:30.912Z</time>
      </trkpt>
      <trkpt lat="14.40565" lon="-60.88272">
        <ele>5</ele>
        <time>2016-06-05T13:34:31.912Z</time>
      </trkpt>
      <trkpt lat="14.40566" lon="-60.88276">
        <ele>5</ele>
        <time>2016-06-05T13:34:32.910Z</time>
      </trkpt>
      <trkpt lat="14.40567" lon="-60.8828">
        <ele>5</ele>
        <time>2016-06-05T13:34:33.911Z</time>
      </trkpt>
      <trkpt lat="14.40567" lon="-60.88283">
        <ele>5</ele>
        <time>2016-06-05T13:34:34.910Z</time>
      </trkpt>
      <trkpt lat="14.40568" lon="-60.88286">
        <ele>5</ele>
        <time>2016-06-05T13:34:35.909Z</time>
      </trkpt>
      <trkpt lat="14.40568" lon="-60.88288">
        <ele>6</ele>
        <time>2016-06-05T13:34:36.912Z</time>
      </trkpt>
      <trkpt lat="14.40567" lon="-60.88291">
        <ele>6</ele>
        <time>2016-06-05T13:34:37.911Z</time>
      </trkpt>
      <trkpt lat="14.40566" lon="-60.88295">
        <ele>6</ele>
        <time>2016-06-05T13:34:38.910Z</time>
      </trkpt>
      <trkpt lat="14.40566" lon="-60.88297">
        <ele>6</ele>
        <time>2016-06-05T13:34:39.909Z</time>
      </trkpt>
      <trkpt lat="14.40566" lon="-60.883">
        <ele>6</ele>
        <time>2016-06-05T13:34:40.911Z</time>
      </trkpt>
      <trkpt lat="14.40566" lon="-60.88303">
        <ele>6</ele>
        <time>2016-06-05T13:34:41.910Z</time>
      </trkpt>
      <trkpt lat="14.40566" lon="-60.88305">
        <ele>5</ele>
        <time>2016-06-05T13:34:42.905Z</time>
      </trkpt>
      <trkpt lat="14.40565" lon="-60.88309">
        <ele>6</ele>
        <time>2016-06-05T13:34:43.905Z</time>
      </trkpt>
      <trkpt lat="14.40564" lon="-60.88312">
        <ele>5</ele>
        <time>2016-06-05T13:34:44.905Z</time>
      </trkpt>
      <trkpt lat="14.40564" lon="-60.88315">
        <ele>5</ele>
        <time>2016-06-05T13:34:45.902Z</time>
      </trkpt>
      <trkpt lat="14.40563" lon="-60.88318">
        <ele>6</ele>
        <time>2016-06-05T13:34:46.902Z</time>
      </trkpt>
      <trkpt lat="14.40562" lon="-60.88321">
        <ele>6</ele>
        <time>2016-06-05T13:34:47.902Z</time>
      </trkpt>
      <trkpt lat="14.40561" lon="-60.88324">
        <ele>7</ele>
        <time>2016-06-05T13:34:48.905Z</time>
      </trkpt>
      <trkpt lat="14.4056" lon="-60.88327">
        <ele>7</ele>
        <time>2016-06-05T13:34:49.903Z</time>
      </trkpt>
      <trkpt lat="14.4056" lon="-60.88329">
        <ele>7</ele>
        <time>2016-06-05T13:34:50.902Z</time>
      </trkpt>
      <trkpt lat="14.4056" lon="-60.88331">
        <ele>7</ele>
        <time>2016-06-05T13:34:51.902Z</time>
      </trkpt>
      <trkpt lat="14.40559" lon="-60.88334">
        <ele>7</ele>
        <time>2016-06-05T13:34:52.902Z</time>
      </trkpt>
      <trkpt lat="14.40557" lon="-60.88336">
        <ele>7</ele>
        <time>2016-06-05T13:34:53.905Z</time>
      </trkpt>
      <trkpt lat="14.40557" lon="-60.88339">
        <ele>7</ele>
        <time>2016-06-05T13:34:54.906Z</time>
      </trkpt>
      <trkpt lat="14.40557" lon="-60.88341">
        <ele>7</ele>
        <time>2016-06-05T13:34:55.910Z</time>
      </trkpt>
      <trkpt lat="14.40556" lon="-60.88344">
        <ele>8</ele>
        <time>2016-06-05T13:34:56.911Z</time>
      </trkpt>
      <trkpt lat="14.40556" lon="-60.88347">
        <ele>7</ele>
        <time>2016-06-05T13:34:57.912Z</time>
      </trkpt>
      <trkpt lat="14.40556" lon="-60.88349">
        <ele>7</ele>
        <time>2016-06-05T13:34:58.905Z</time>
      </trkpt>
      <trkpt lat="14.40555" lon="-60.88352">
        <ele>7</ele>
        <time>2016-06-05T13:34:59.903Z</time>
      </trkpt>
      <trkpt lat="14.40554" lon="-60.88354">
        <ele>7</ele>
        <time>2016-06-05T13:35:00.903Z</time>
      </trkpt>
      <trkpt lat="14.40553" lon="-60.88356">
        <ele>8</ele>
        <time>2016-06-05T13:35:01.902Z</time>
      </trkpt>
      <trkpt lat="14.40555" lon="-60.88357">
        <ele>6</ele>
        <time>2016-06-05T13:35:02.904Z</time>
      </trkpt>
      <trkpt lat="14.40555" lon="-60.88359">
        <ele>6</ele>
        <time>2016-06-05T13:35:03.908Z</time>
      </trkpt>
      <trkpt lat="14.40554" lon="-60.88362">
        <ele>6</ele>
        <time>2016-06-05T13:35:04.909Z</time>
      </trkpt>
      <trkpt lat="14.40555" lon="-60.88364">
        <ele>6</ele>
        <time>2016-06-05T13:35:05.909Z</time>
      </trkpt>
      <trkpt lat="14.40556" lon="-60.88366">
        <ele>5</ele>
        <time>2016-06-05T13:35:06.909Z</time>
      </trkpt>
      <trkpt lat="14.40554" lon="-60.88368">
        <ele>7</ele>
        <time>2016-06-05T13:35:07.908Z</time>
      </trkpt>
      <trkpt lat="14.40553" lon="-60.88371">
        <ele>8</ele>
        <time>2016-06-05T13:35:08.907Z</time>
      </trkpt>
      <trkpt lat="14.40553" lon="-60.88373">
        <ele>8</ele>
        <time>2016-06-05T13:35:09.912Z</time>
      </trkpt>
      <trkpt lat="14.40554" lon="-60.88376">
        <ele>8</ele>
        <time>2016-06-05T13:35:10.915Z</time>
      </trkpt>
      <trkpt lat="14.40554" lon="-60.8838">
        <ele>10</ele>
        <time>2016-06-05T13:35:11.910Z</time>
      </trkpt>
      <trkpt lat="14.40555" lon="-60.88382">
        <ele>11</ele>
        <time>2016-06-05T13:35:12.908Z</time>
      </trkpt>
      <trkpt lat="14.40555" lon="-60.88385">
        <ele>11</ele>
        <time>2016-06-05T13:35:13.910Z</time>
      </trkpt>
      <trkpt lat="14.40556" lon="-60.88387">
        <ele>11</ele>
        <time>2016-06-05T13:35:14.904Z</time>
      </trkpt>
      <trkpt lat="14.40557" lon="-60.88389">
        <ele>10</ele>
        <time>2016-06-05T13:35:15.902Z</time>
      </trkpt>
      <trkpt lat="14.40559" lon="-60.88391">
        <ele>10</ele>
        <time>2016-06-05T13:35:17.907Z</time>
      </trkpt>
      <trkpt lat="14.40558" lon="-60.88394">
        <ele>10</ele>
        <time>2016-06-05T13:35:18.908Z</time>
      </trkpt>
      <trkpt lat="14.40559" lon="-60.88396">
        <ele>10</ele>
        <time>2016-06-05T13:35:19.911Z</time>
      </trkpt>
      <trkpt lat="14.40557" lon="-60.884">
        <ele>12</ele>
        <time>2016-06-05T13:35:20.915Z</time>
      </trkpt>
      <trkpt lat="14.40556" lon="-60.88402">
        <ele>12</ele>
        <time>2016-06-05T13:35:21.919Z</time>
      </trkpt>
      <trkpt lat="14.40559" lon="-60.88404">
        <ele>11</ele>
        <time>2016-06-05T13:35:22.918Z</time>
      </trkpt>
      <trkpt lat="14.4056" lon="-60.88406">
        <ele>11</ele>
        <time>2016-06-05T13:35:23.915Z</time>
      </trkpt>
      <trkpt lat="14.40561" lon="-60.88409">
        <ele>9</ele>
        <time>2016-06-05T13:35:25.910Z</time>
      </trkpt>
      <trkpt lat="14.40562" lon="-60.8841">
        <ele>9</ele>
        <time>2016-06-05T13:35:26.908Z</time>
      </trkpt>
      <trkpt lat="14.40562" lon="-60.88413">
        <ele>8</ele>
        <time>2016-06-05T13:35:28.903Z</time>
      </trkpt>
      <trkpt lat="14.40564" lon="-60.88415">
        <ele>6</ele>
        <time>2016-06-05T13:35:29.904Z</time>
      </trkpt>
      <trkpt lat="14.40566" lon="-60.88417">
        <ele>5</ele>
        <time>2016-06-05T13:35:31.906Z</time>
      </trkpt>
      <trkpt lat="14.40567" lon="-60.88419">
        <ele>6</ele>
        <time>2016-06-05T13:35:32.907Z</time>
      </trkpt>
      <trkpt lat="14.40567" lon="-60.88422">
        <ele>7</ele>
        <time>2016-06-05T13:35:33.908Z</time>
      </trkpt>
      <trkpt lat="14.40567" lon="-60.88424">
        <ele>9</ele>
        <time>2016-06-05T13:35:34.907Z</time>
      </trkpt>
      <trkpt lat="14.40568" lon="-60.88427">
        <ele>8</ele>
        <time>2016-06-05T13:35:35.906Z</time>
      </trkpt>
      <trkpt lat="14.40569" lon="-60.88428">
        <ele>8</ele>
        <time>2016-06-05T13:35:36.903Z</time>
      </trkpt>
      <trkpt lat="14.4057" lon="-60.8843">
        <ele>7</ele>
        <time>2016-06-05T13:35:37.903Z</time>
      </trkpt>
      <trkpt lat="14.40571" lon="-60.88431">
        <ele>7</ele>
        <time>2016-06-05T13:35:38.906Z</time>
      </trkpt>
      <trkpt lat="14.40573" lon="-60.88432">
        <ele>5</ele>
        <time>2016-06-05T13:35:39.908Z</time>
      </trkpt>
      <trkpt lat="14.40573" lon="-60.88435">
        <ele>5</ele>
        <time>2016-06-05T13:35:40.909Z</time>
      </trkpt>
      <trkpt lat="14.40574" lon="-60.88436">
        <ele>5</ele>
        <time>2016-06-05T13:35:41.912Z</time>
      </trkpt>
      <trkpt lat="14.40575" lon="-60.88439">
        <ele>7</ele>
        <time>2016-06-05T13:35:43.909Z</time>
      </trkpt>
      <trkpt lat="14.40576" lon="-60.88442">
        <ele>8</ele>
        <time>2016-06-05T13:35:45.910Z</time>
      </trkpt>
      <trkpt lat="14.40576" lon="-60.88444">
        <ele>7</ele>
        <time>2016-06-05T13:35:46.909Z</time>
      </trkpt>
      <trkpt lat="14.40577" lon="-60.88446">
        <ele>8</ele>
        <time>2016-06-05T13:35:47.909Z</time>
      </trkpt>
      <trkpt lat="14.40578" lon="-60.88448">
        <ele>7</ele>
        <time>2016-06-05T13:35:48.908Z</time>
      </trkpt>
      <trkpt lat="14.40578" lon="-60.8845">
        <ele>7</ele>
        <time>2016-06-05T13:35:49.909Z</time>
      </trkpt>
      <trkpt lat="14.40579" lon="-60.88451">
        <ele>6</ele>
        <time>2016-06-05T13:35:50.910Z</time>
      </trkpt>
      <trkpt lat="14.4058" lon="-60.88453">
        <ele>6</ele>
        <time>2016-06-05T13:35:51.909Z</time>
      </trkpt>
      <trkpt lat="14.40587" lon="-60.88456">
        <ele>8</ele>
        <time>2016-06-05T13:36:01.909Z</time>
      </trkpt>
      <trkpt lat="14.40589" lon="-60.88456">
        <ele>8</ele>
        <time>2016-06-05T13:36:03.909Z</time>
      </trkpt>
      <trkpt lat="14.40592" lon="-60.88457">
        <ele>9</ele>
        <time>2016-06-05T13:36:05.910Z</time>
      </trkpt>
      <trkpt lat="14.40594" lon="-60.88457">
        <ele>10</ele>
        <time>2016-06-05T13:36:07.907Z</time>
      </trkpt>
      <trkpt lat="14.40596" lon="-60.88457">
        <ele>10</ele>
        <time>2016-06-05T13:36:08.903Z</time>
      </trkpt>
      <trkpt lat="14.40597" lon="-60.88458">
        <ele>12</ele>
        <time>2016-06-05T13:36:10.905Z</time>
      </trkpt>
      <trkpt lat="14.40599" lon="-60.88458">
        <ele>13</ele>
        <time>2016-06-05T13:36:12.908Z</time>
      </trkpt>
      <trkpt lat="14.406" lon="-60.88458">
        <ele>13</ele>
        <time>2016-06-05T13:36:13.905Z</time>
      </trkpt>
      <trkpt lat="14.40602" lon="-60.88459">
        <ele>14</ele>
        <time>2016-06-05T13:36:14.906Z</time>
      </trkpt>
      <trkpt lat="14.40604" lon="-60.88458">
        <ele>15</ele>
        <time>2016-06-05T13:36:15.909Z</time>
      </trkpt>
      <trkpt lat="14.40606" lon="-60.88459">
        <ele>16</ele>
        <time>2016-06-05T13:36:16.909Z</time>
      </trkpt>
      <trkpt lat="14.40609" lon="-60.88459">
        <ele>16</ele>
        <time>2016-06-05T13:36:17.905Z</time>
      </trkpt>
      <trkpt lat="14.40611" lon="-60.8846">
        <ele>15</ele>
        <time>2016-06-05T13:36:18.906Z</time>
      </trkpt>
      <trkpt lat="14.40614" lon="-60.88461">
        <ele>16</ele>
        <time>2016-06-05T13:36:19.904Z</time>
      </trkpt>
      <trkpt lat="14.40617" lon="-60.8846">
        <ele>15</ele>
        <time>2016-06-05T13:36:20.903Z</time>
      </trkpt>
      <trkpt lat="14.4062" lon="-60.8846">
        <ele>15</ele>
        <time>2016-06-05T13:36:21.903Z</time>
      </trkpt>
      <trkpt lat="14.40623" lon="-60.88459">
        <ele>15</ele>
        <time>2016-06-05T13:36:22.905Z</time>
      </trkpt>
      <trkpt lat="14.40625" lon="-60.88459">
        <ele>15</ele>
        <time>2016-06-05T13:36:23.906Z</time>
      </trkpt>
      <trkpt lat="14.40628" lon="-60.88458">
        <ele>15</ele>
        <time>2016-06-05T13:36:24.907Z</time>
      </trkpt>
      <trkpt lat="14.40631" lon="-60.88457">
        <ele>15</ele>
        <time>2016-06-05T13:36:25.909Z</time>
      </trkpt>
      <trkpt lat="14.40635" lon="-60.88456">
        <ele>13</ele>
        <time>2016-06-05T13:36:26.905Z</time>
      </trkpt>
      <trkpt lat="14.40639" lon="-60.88453">
        <ele>13</ele>
        <time>2016-06-05T13:36:27.904Z</time>
      </trkpt>
      <trkpt lat="14.40643" lon="-60.88451">
        <ele>13</ele>
        <time>2016-06-05T13:36:28.905Z</time>
      </trkpt>
      <trkpt lat="14.40646" lon="-60.88449">
        <ele>13</ele>
        <time>2016-06-05T13:36:29.902Z</time>
      </trkpt>
      <trkpt lat="14.40649" lon="-60.88446">
        <ele>13</ele>
        <time>2016-06-05T13:36:30.907Z</time>
      </trkpt>
      <trkpt lat="14.40653" lon="-60.88445">
        <ele>13</ele>
        <time>2016-06-05T13:36:31.907Z</time>
      </trkpt>
      <trkpt lat="14.40657" lon="-60.88443">
        <ele>12</ele>
        <time>2016-06-05T13:36:32.909Z</time>
      </trkpt>
      <trkpt lat="14.40661" lon="-60.88441">
        <ele>13</ele>
        <time>2016-06-05T13:36:33.911Z</time>
      </trkpt>
      <trkpt lat="14.40664" lon="-60.88441">
        <ele>13</ele>
        <time>2016-06-05T13:36:34.911Z</time>
      </trkpt>
      <trkpt lat="14.40668" lon="-60.8844">
        <ele>13</ele>
        <time>2016-06-05T13:36:35.911Z</time>
      </trkpt>
      <trkpt lat="14.40673" lon="-60.88439">
        <ele>12</ele>
        <time>2016-06-05T13:36:36.909Z</time>
      </trkpt>
      <trkpt lat="14.40677" lon="-60.88439">
        <ele>11</ele>
        <time>2016-06-05T13:36:37.909Z</time>
      </trkpt>
      <trkpt lat="14.4068" lon="-60.88439">
        <ele>11</ele>
        <time>2016-06-05T13:36:38.910Z</time>
      </trkpt>
      <trkpt lat="14.40684" lon="-60.88439">
        <ele>11</ele>
        <time>2016-06-05T13:36:39.909Z</time>
      </trkpt>
      <trkpt lat="14.40686" lon="-60.88438">
        <ele>12</ele>
        <time>2016-06-05T13:36:40.909Z</time>
      </trkpt>
      <trkpt lat="14.40689" lon="-60.88438">
        <ele>11</ele>
        <time>2016-06-05T13:36:41.908Z</time>
      </trkpt>
      <trkpt lat="14.40691" lon="-60.88437">
        <ele>9</ele>
        <time>2016-06-05T13:36:42.904Z</time>
      </trkpt>
      <trkpt lat="14.40693" lon="-60.88436">
        <ele>9</ele>
        <time>2016-06-05T13:36:43.908Z</time>
      </trkpt>
      <trkpt lat="14.40696" lon="-60.88435">
        <ele>7</ele>
        <time>2016-06-05T13:36:45.907Z</time>
      </trkpt>
      <trkpt lat="14.40702" lon="-60.8843">
        <ele>8</ele>
        <time>2016-06-05T13:36:57.908Z</time>
      </trkpt>
      <trkpt lat="14.40704" lon="-60.88429">
        <ele>8</ele>
        <time>2016-06-05T13:36:58.909Z</time>
      </trkpt>
      <trkpt lat="14.40706" lon="-60.88428">
        <ele>7</ele>
        <time>2016-06-05T13:36:59.908Z</time>
      </trkpt>
      <trkpt lat="14.40709" lon="-60.88428">
        <ele>7</ele>
        <time>2016-06-05T13:37:00.907Z</time>
      </trkpt>
      <trkpt lat="14.40711" lon="-60.88427">
        <ele>7</ele>
        <time>2016-06-05T13:37:01.907Z</time>
      </trkpt>
      <trkpt lat="14.40716" lon="-60.88426">
        <ele>7</ele>
        <time>2016-06-05T13:37:02.909Z</time>
      </trkpt>
      <trkpt lat="14.40719" lon="-60.88426">
        <ele>6</ele>
        <time>2016-06-05T13:37:03.907Z</time>
      </trkpt>
      <trkpt lat="14.40723" lon="-60.88426">
        <ele>7</ele>
        <time>2016-06-05T13:37:04.909Z</time>
      </trkpt>
      <trkpt lat="14.40726" lon="-60.88426">
        <ele>8</ele>
        <time>2016-06-05T13:37:05.908Z</time>
      </trkpt>
      <trkpt lat="14.40729" lon="-60.88426">
        <ele>7</ele>
        <time>2016-06-05T13:37:06.910Z</time>
      </trkpt>
      <trkpt lat="14.40732" lon="-60.88427">
        <ele>6</ele>
        <time>2016-06-05T13:37:07.908Z</time>
      </trkpt>
      <trkpt lat="14.40734" lon="-60.88428">
        <ele>6</ele>
        <time>2016-06-05T13:37:08.909Z</time>
      </trkpt>
      <trkpt lat="14.40737" lon="-60.8843">
        <ele>6</ele>
        <time>2016-06-05T13:37:09.908Z</time>
      </trkpt>
      <trkpt lat="14.4074" lon="-60.8843">
        <ele>7</ele>
        <time>2016-06-05T13:37:10.910Z</time>
      </trkpt>
      <trkpt lat="14.40743" lon="-60.88431">
        <ele>7</ele>
        <time>2016-06-05T13:37:11.907Z</time>
      </trkpt>
      <trkpt lat="14.40746" lon="-60.88432">
        <ele>7</ele>
        <time>2016-06-05T13:37:12.908Z</time>
      </trkpt>
      <trkpt lat="14.4075" lon="-60.88433">
        <ele>7</ele>
        <time>2016-06-05T13:37:13.908Z</time>
      </trkpt>
      <trkpt lat="14.40753" lon="-60.88434">
        <ele>7</ele>
        <time>2016-06-05T13:37:14.907Z</time>
      </trkpt>
      <trkpt lat="14.40757" lon="-60.88435">
        <ele>7</ele>
        <time>2016-06-05T13:37:15.905Z</time>
      </trkpt>
      <trkpt lat="14.4076" lon="-60.88436">
        <ele>7</ele>
        <time>2016-06-05T13:37:16.902Z</time>
      </trkpt>
      <trkpt lat="14.40763" lon="-60.88437">
        <ele>7</ele>
        <time>2016-06-05T13:37:17.901Z</time>
      </trkpt>
      <trkpt lat="14.40767" lon="-60.88438">
        <ele>7</ele>
        <time>2016-06-05T13:37:18.902Z</time>
      </trkpt>
      <trkpt lat="14.4077" lon="-60.88439">
        <ele>8</ele>
        <time>2016-06-05T13:37:19.903Z</time>
      </trkpt>
      <trkpt lat="14.40774" lon="-60.88439">
        <ele>9</ele>
        <time>2016-06-05T13:37:20.902Z</time>
      </trkpt>
      <trkpt lat="14.40777" lon="-60.88441">
        <ele>9</ele>
        <time>2016-06-05T13:37:21.902Z</time>
      </trkpt>
      <trkpt lat="14.4078" lon="-60.88442">
        <ele>9</ele>
        <time>2016-06-05T13:37:22.903Z</time>
      </trkpt>
      <trkpt lat="14.40783" lon="-60.88444">
        <ele>9</ele>
        <time>2016-06-05T13:37:23.907Z</time>
      </trkpt>
      <trkpt lat="14.40787" lon="-60.88445">
        <ele>9</ele>
        <time>2016-06-05T13:37:24.905Z</time>
      </trkpt>
      <trkpt lat="14.4079" lon="-60.88446">
        <ele>9</ele>
        <time>2016-06-05T13:37:25.906Z</time>
      </trkpt>
      <trkpt lat="14.40794" lon="-60.88448">
        <ele>10</ele>
        <time>2016-06-05T13:37:26.906Z</time>
      </trkpt>
      <trkpt lat="14.40797" lon="-60.8845">
        <ele>10</ele>
        <time>2016-06-05T13:37:27.907Z</time>
      </trkpt>
      <trkpt lat="14.408" lon="-60.88451">
        <ele>11</ele>
        <time>2016-06-05T13:37:28.908Z</time>
      </trkpt>
      <trkpt lat="14.40804" lon="-60.88453">
        <ele>11</ele>
        <time>2016-06-05T13:37:29.907Z</time>
      </trkpt>
      <trkpt lat="14.40807" lon="-60.88455">
        <ele>11</ele>
        <time>2016-06-05T13:37:30.904Z</time>
      </trkpt>
      <trkpt lat="14.40811" lon="-60.88456">
        <ele>11</ele>
        <time>2016-06-05T13:37:31.902Z</time>
      </trkpt>
      <trkpt lat="14.40814" lon="-60.88458">
        <ele>11</ele>
        <time>2016-06-05T13:37:32.902Z</time>
      </trkpt>
      <trkpt lat="14.40817" lon="-60.8846">
        <ele>11</ele>
        <time>2016-06-05T13:37:33.904Z</time>
      </trkpt>
      <trkpt lat="14.40821" lon="-60.88462">
        <ele>11</ele>
        <time>2016-06-05T13:37:34.907Z</time>
      </trkpt>
      <trkpt lat="14.40825" lon="-60.88464">
        <ele>11</ele>
        <time>2016-06-05T13:37:35.909Z</time>
      </trkpt>
      <trkpt lat="14.40828" lon="-60.88466">
        <ele>11</ele>
        <time>2016-06-05T13:37:36.912Z</time>
      </trkpt>
      <trkpt lat="14.40832" lon="-60.88469">
        <ele>11</ele>
        <time>2016-06-05T13:37:37.910Z</time>
      </trkpt>
      <trkpt lat="14.40836" lon="-60.88471">
        <ele>11</ele>
        <time>2016-06-05T13:37:38.909Z</time>
      </trkpt>
      <trkpt lat="14.40839" lon="-60.88474">
        <ele>12</ele>
        <time>2016-06-05T13:37:39.910Z</time>
      </trkpt>
      <trkpt lat="14.40842" lon="-60.88477">
        <ele>12</ele>
        <time>2016-06-05T13:37:40.909Z</time>
      </trkpt>
      <trkpt lat="14.40845" lon="-60.8848">
        <ele>11</ele>
        <time>2016-06-05T13:37:41.909Z</time>
      </trkpt>
      <trkpt lat="14.40848" lon="-60.88483">
        <ele>11</ele>
        <time>2016-06-05T13:37:42.908Z</time>
      </trkpt>
      <trkpt lat="14.40852" lon="-60.88487">
        <ele>11</ele>
        <time>2016-06-05T13:37:43.908Z</time>
      </trkpt>
      <trkpt lat="14.40855" lon="-60.88489">
        <ele>11</ele>
        <time>2016-06-05T13:37:44.909Z</time>
      </trkpt>
      <trkpt lat="14.40858" lon="-60.88492">
        <ele>11</ele>
        <time>2016-06-05T13:37:45.904Z</time>
      </trkpt>
      <trkpt lat="14.40861" lon="-60.88495">
        <ele>11</ele>
        <time>2016-06-05T13:37:46.901Z</time>
      </trkpt>
      <trkpt lat="14.40864" lon="-60.88497">
        <ele>10</ele>
        <time>2016-06-05T13:37:47.902Z</time>
      </trkpt>
      <trkpt lat="14.40867" lon="-60.88499">
        <ele>10</ele>
        <time>2016-06-05T13:37:48.903Z</time>
      </trkpt>
      <trkpt lat="14.40869" lon="-60.88502">
        <ele>10</ele>
        <time>2016-06-05T13:37:49.905Z</time>
      </trkpt>
      <trkpt lat="14.40871" lon="-60.88505">
        <ele>10</ele>
        <time>2016-06-05T13:37:50.906Z</time>
      </trkpt>
      <trkpt lat="14.40874" lon="-60.88507">
        <ele>10</ele>
        <time>2016-06-05T13:37:51.908Z</time>
      </trkpt>
      <trkpt lat="14.40877" lon="-60.88509">
        <ele>9</ele>
        <time>2016-06-05T13:37:52.911Z</time>
      </trkpt>
      <trkpt lat="14.40879" lon="-60.88512">
        <ele>9</ele>
        <time>2016-06-05T13:37:53.910Z</time>
      </trkpt>
      <trkpt lat="14.40881" lon="-60.88514">
        <ele>9</ele>
        <time>2016-06-05T13:37:54.910Z</time>
      </trkpt>
      <trkpt lat="14.40883" lon="-60.88516">
        <ele>9</ele>
        <time>2016-06-05T13:37:55.913Z</time>
      </trkpt>
      <trkpt lat="14.40885" lon="-60.88518">
        <ele>9</ele>
        <time>2016-06-05T13:37:56.908Z</time>
      </trkpt>
      <trkpt lat="14.40887" lon="-60.88521">
        <ele>8</ele>
        <time>2016-06-05T13:37:57.908Z</time>
      </trkpt>
      <trkpt lat="14.40889" lon="-60.88524">
        <ele>9</ele>
        <time>2016-06-05T13:37:58.909Z</time>
      </trkpt>
      <trkpt lat="14.40891" lon="-60.88526">
        <ele>9</ele>
        <time>2016-06-05T13:37:59.908Z</time>
      </trkpt>
      <trkpt lat="14.40893" lon="-60.88529">
        <ele>9</ele>
        <time>2016-06-05T13:38:00.910Z</time>
      </trkpt>
      <trkpt lat="14.40895" lon="-60.88531">
        <ele>9</ele>
        <time>2016-06-05T13:38:01.910Z</time>
      </trkpt>
      <trkpt lat="14.40898" lon="-60.88534">
        <ele>9</ele>
        <time>2016-06-05T13:38:02.910Z</time>
      </trkpt>
      <trkpt lat="14.409" lon="-60.88536">
        <ele>9</ele>
        <time>2016-06-05T13:38:03.910Z</time>
      </trkpt>
      <trkpt lat="14.40902" lon="-60.88539">
        <ele>9</ele>
        <time>2016-06-05T13:38:04.909Z</time>
      </trkpt>
      <trkpt lat="14.40904" lon="-60.88542">
        <ele>9</ele>
        <time>2016-06-05T13:38:05.908Z</time>
      </trkpt>
      <trkpt lat="14.40906" lon="-60.88545">
        <ele>9</ele>
        <time>2016-06-05T13:38:06.915Z</time>
      </trkpt>
      <trkpt lat="14.40908" lon="-60.88547">
        <ele>10</ele>
        <time>2016-06-05T13:38:07.909Z</time>
      </trkpt>
      <trkpt lat="14.4091" lon="-60.8855">
        <ele>9</ele>
        <time>2016-06-05T13:38:08.909Z</time>
      </trkpt>
      <trkpt lat="14.40912" lon="-60.88552">
        <ele>9</ele>
        <time>2016-06-05T13:38:09.909Z</time>
      </trkpt>
      <trkpt lat="14.40913" lon="-60.88555">
        <ele>9</ele>
        <time>2016-06-05T13:38:10.910Z</time>
      </trkpt>
      <trkpt lat="14.40916" lon="-60.88557">
        <ele>9</ele>
        <time>2016-06-05T13:38:11.907Z</time>
      </trkpt>
      <trkpt lat="14.40917" lon="-60.88559">
        <ele>10</ele>
        <time>2016-06-05T13:38:12.909Z</time>
      </trkpt>
      <trkpt lat="14.4092" lon="-60.8856">
        <ele>10</ele>
        <time>2016-06-05T13:38:13.908Z</time>
      </trkpt>
      <trkpt lat="14.40922" lon="-60.88561">
        <ele>10</ele>
        <time>2016-06-05T13:38:14.912Z</time>
      </trkpt>
      <trkpt lat="14.40924" lon="-60.8856">
        <ele>10</ele>
        <time>2016-06-05T13:38:15.907Z</time>
      </trkpt>
      <trkpt lat="14.40927" lon="-60.88561">
        <ele>11</ele>
        <time>2016-06-05T13:38:19.905Z</time>
      </trkpt>
      <trkpt lat="14.40928" lon="-60.8856">
        <ele>11</ele>
        <time>2016-06-05T13:38:20.905Z</time>
      </trkpt>
      <trkpt lat="14.4093" lon="-60.8856">
        <ele>11</ele>
        <time>2016-06-05T13:38:22.908Z</time>
      </trkpt>
      <trkpt lat="14.40934" lon="-60.88562">
        <ele>13</ele>
        <time>2016-06-05T13:38:30.910Z</time>
      </trkpt>
      <trkpt lat="14.40935" lon="-60.88564">
        <ele>14</ele>
        <time>2016-06-05T13:38:33.911Z</time>
      </trkpt>
      <trkpt lat="14.40936" lon="-60.88565">
        <ele>15</ele>
        <time>2016-06-05T13:38:35.910Z</time>
      </trkpt>
      <trkpt lat="14.40937" lon="-60.88568">
        <ele>15</ele>
        <time>2016-06-05T13:38:37.909Z</time>
      </trkpt>
      <trkpt lat="14.40941" lon="-60.88569">
        <ele>13</ele>
        <time>2016-06-05T13:38:41.908Z</time>
      </trkpt>
      <trkpt lat="14.40943" lon="-60.88569">
        <ele>11</ele>
        <time>2016-06-05T13:38:42.910Z</time>
      </trkpt>
      <trkpt lat="14.40945" lon="-60.88569">
        <ele>11</ele>
        <time>2016-06-05T13:38:43.912Z</time>
      </trkpt>
      <trkpt lat="14.40947" lon="-60.88571">
        <ele>10</ele>
        <time>2016-06-05T13:38:44.912Z</time>
      </trkpt>
      <trkpt lat="14.40948" lon="-60.88573">
        <ele>10</ele>
        <time>2016-06-05T13:38:45.914Z</time>
      </trkpt>
      <trkpt lat="14.4095" lon="-60.88573">
        <ele>10</ele>
        <time>2016-06-05T13:38:46.913Z</time>
      </trkpt>
      <trkpt lat="14.40951" lon="-60.88574">
        <ele>10</ele>
        <time>2016-06-05T13:38:47.912Z</time>
      </trkpt>
      <trkpt lat="14.40953" lon="-60.88575">
        <ele>10</ele>
        <time>2016-06-05T13:38:48.910Z</time>
      </trkpt>
      <trkpt lat="14.40954" lon="-60.88576">
        <ele>11</ele>
        <time>2016-06-05T13:38:49.908Z</time>
      </trkpt>
      <trkpt lat="14.40957" lon="-60.88578">
        <ele>10</ele>
        <time>2016-06-05T13:38:50.910Z</time>
      </trkpt>
      <trkpt lat="14.40958" lon="-60.8858">
        <ele>10</ele>
        <time>2016-06-05T13:38:51.911Z</time>
      </trkpt>
      <trkpt lat="14.4096" lon="-60.88582">
        <ele>10</ele>
        <time>2016-06-05T13:38:52.912Z</time>
      </trkpt>
      <trkpt lat="14.40963" lon="-60.88583">
        <ele>10</ele>
        <time>2016-06-05T13:38:53.906Z</time>
      </trkpt>
      <trkpt lat="14.40965" lon="-60.88584">
        <ele>9</ele>
        <time>2016-06-05T13:38:54.905Z</time>
      </trkpt>
      <trkpt lat="14.40968" lon="-60.88586">
        <ele>9</ele>
        <time>2016-06-05T13:38:55.902Z</time>
      </trkpt>
      <trkpt lat="14.4097" lon="-60.88587">
        <ele>9</ele>
        <time>2016-06-05T13:38:56.901Z</time>
      </trkpt>
      <trkpt lat="14.40973" lon="-60.88588">
        <ele>9</ele>
        <time>2016-06-05T13:38:57.901Z</time>
      </trkpt>
      <trkpt lat="14.40975" lon="-60.88589">
        <ele>11</ele>
        <time>2016-06-05T13:38:58.906Z</time>
      </trkpt>
      <trkpt lat="14.40978" lon="-60.8859">
        <ele>12</ele>
        <time>2016-06-05T13:38:59.905Z</time>
      </trkpt>
      <trkpt lat="14.4098" lon="-60.88591">
        <ele>12</ele>
        <time>2016-06-05T13:39:00.906Z</time>
      </trkpt>
      <trkpt lat="14.40983" lon="-60.88593">
        <ele>12</ele>
        <time>2016-06-05T13:39:01.908Z</time>
      </trkpt>
      <trkpt lat="14.40986" lon="-60.88594">
        <ele>13</ele>
        <time>2016-06-05T13:39:02.910Z</time>
      </trkpt>
      <trkpt lat="14.40989" lon="-60.88597">
        <ele>13</ele>
        <time>2016-06-05T13:39:03.910Z</time>
      </trkpt>
      <trkpt lat="14.40992" lon="-60.88599">
        <ele>13</ele>
        <time>2016-06-05T13:39:04.908Z</time>
      </trkpt>
      <trkpt lat="14.40994" lon="-60.88599">
        <ele>13</ele>
        <time>2016-06-05T13:39:05.910Z</time>
      </trkpt>
      <trkpt lat="14.40997" lon="-60.886">
        <ele>13</ele>
        <time>2016-06-05T13:39:06.909Z</time>
      </trkpt>
      <trkpt lat="14.40999" lon="-60.886">
        <ele>13</ele>
        <time>2016-06-05T13:39:07.908Z</time>
      </trkpt>
      <trkpt lat="14.41002" lon="-60.886">
        <ele>12</ele>
        <time>2016-06-05T13:39:08.907Z</time>
      </trkpt>
      <trkpt lat="14.41005" lon="-60.886">
        <ele>11</ele>
        <time>2016-06-05T13:39:09.907Z</time>
      </trkpt>
      <trkpt lat="14.41009" lon="-60.88599">
        <ele>8</ele>
        <time>2016-06-05T13:39:10.907Z</time>
      </trkpt>
      <trkpt lat="14.41012" lon="-60.88598">
        <ele>7</ele>
        <time>2016-06-05T13:39:11.907Z</time>
      </trkpt>
      <trkpt lat="14.41015" lon="-60.88596">
        <ele>5</ele>
        <time>2016-06-05T13:39:12.907Z</time>
      </trkpt>
      <trkpt lat="14.41019" lon="-60.88595">
        <ele>5</ele>
        <time>2016-06-05T13:39:13.908Z</time>
      </trkpt>
      <trkpt lat="14.41023" lon="-60.88593">
        <ele>5</ele>
        <time>2016-06-05T13:39:14.908Z</time>
      </trkpt>
      <trkpt lat="14.41028" lon="-60.88592">
        <ele>2</ele>
        <time>2016-06-05T13:39:15.908Z</time>
      </trkpt>
      <trkpt lat="14.41033" lon="-60.88591">
        <ele>1</ele>
        <time>2016-06-05T13:39:16.907Z</time>
      </trkpt>
      <trkpt lat="14.41036" lon="-60.88589">
        <ele>1</ele>
        <time>2016-06-05T13:39:17.913Z</time>
      </trkpt>
      <trkpt lat="14.4104" lon="-60.88586">
        <time>2016-06-05T13:39:18.909Z</time>
      </trkpt>
      <trkpt lat="14.41043" lon="-60.88583">
        <time>2016-06-05T13:39:19.910Z</time>
      </trkpt>
      <trkpt lat="14.41045" lon="-60.88579">
        <ele>1</ele>
        <time>2016-06-05T13:39:20.907Z</time>
      </trkpt>
      <trkpt lat="14.41047" lon="-60.88576">
        <ele>1</ele>
        <time>2016-06-05T13:39:21.905Z</time>
      </trkpt>
      <trkpt lat="14.41049" lon="-60.88572">
        <ele>3</ele>
        <time>2016-06-05T13:39:22.902Z</time>
      </trkpt>
      <trkpt lat="14.41051" lon="-60.8857">
        <ele>3</ele>
        <time>2016-06-05T13:39:23.903Z</time>
      </trkpt>
      <trkpt lat="14.41055" lon="-60.88568">
        <ele>4</ele>
        <time>2016-06-05T13:39:24.902Z</time>
      </trkpt>
      <trkpt lat="14.41057" lon="-60.88567">
        <ele>5</ele>
        <time>2016-06-05T13:39:25.902Z</time>
      </trkpt>
      <trkpt lat="14.41058" lon="-60.88565">
        <ele>6</ele>
        <time>2016-06-05T13:39:26.911Z</time>
      </trkpt>
      <trkpt lat="14.4106" lon="-60.88564">
        <ele>6</ele>
        <time>2016-06-05T13:39:27.908Z</time>
      </trkpt>
      <trkpt lat="14.41061" lon="-60.88562">
        <ele>6</ele>
        <time>2016-06-05T13:39:28.907Z</time>
      </trkpt>
      <trkpt lat="14.41063" lon="-60.88561">
        <ele>7</ele>
        <time>2016-06-05T13:39:29.908Z</time>
      </trkpt>
      <trkpt lat="14.41064" lon="-60.88559">
        <ele>7</ele>
        <time>2016-06-05T13:39:30.908Z</time>
      </trkpt>
      <trkpt lat="14.41064" lon="-60.88557">
        <ele>7</ele>
        <time>2016-06-05T13:39:31.910Z</time>
      </trkpt>
      <trkpt lat="14.41065" lon="-60.88555">
        <ele>7</ele>
        <time>2016-06-05T13:39:32.907Z</time>
      </trkpt>
      <trkpt lat="14.41065" lon="-60.88552">
        <ele>6</ele>
        <time>2016-06-05T13:39:33.904Z</time>
      </trkpt>
      <trkpt lat="14.41068" lon="-60.88549">
        <ele>5</ele>
        <time>2016-06-05T13:39:34.904Z</time>
      </trkpt>
      <trkpt lat="14.4107" lon="-60.88547">
        <ele>5</ele>
        <time>2016-06-05T13:39:35.902Z</time>
      </trkpt>
      <trkpt lat="14.41073" lon="-60.88545">
        <ele>5</ele>
        <time>2016-06-05T13:39:36.902Z</time>
      </trkpt>
      <trkpt lat="14.41077" lon="-60.88542">
        <ele>4</ele>
        <time>2016-06-05T13:39:37.903Z</time>
      </trkpt>
      <trkpt lat="14.41081" lon="-60.8854">
        <ele>3</ele>
        <time>2016-06-05T13:39:38.903Z</time>
      </trkpt>
      <trkpt lat="14.41082" lon="-60.88537">
        <ele>3</ele>
        <time>2016-06-05T13:39:39.905Z</time>
      </trkpt>
      <trkpt lat="14.41085" lon="-60.88534">
        <ele>4</ele>
        <time>2016-06-05T13:39:40.906Z</time>
      </trkpt>
      <trkpt lat="14.41087" lon="-60.88531">
        <ele>3</ele>
        <time>2016-06-05T13:39:41.909Z</time>
      </trkpt>
      <trkpt lat="14.4109" lon="-60.88529">
        <ele>3</ele>
        <time>2016-06-05T13:39:42.907Z</time>
      </trkpt>
      <trkpt lat="14.41093" lon="-60.88526">
        <ele>3</ele>
        <time>2016-06-05T13:39:43.906Z</time>
      </trkpt>
      <trkpt lat="14.41096" lon="-60.88523">
        <ele>3</ele>
        <time>2016-06-05T13:39:44.907Z</time>
      </trkpt>
      <trkpt lat="14.41099" lon="-60.88522">
        <ele>3</ele>
        <time>2016-06-05T13:39:45.907Z</time>
      </trkpt>
      <trkpt lat="14.41103" lon="-60.8852">
        <ele>4</ele>
        <time>2016-06-05T13:39:46.907Z</time>
      </trkpt>
      <trkpt lat="14.41107" lon="-60.88518">
        <ele>5</ele>
        <time>2016-06-05T13:39:47.907Z</time>
      </trkpt>
      <trkpt lat="14.4111" lon="-60.88518">
        <ele>5</ele>
        <time>2016-06-05T13:39:48.907Z</time>
      </trkpt>
      <trkpt lat="14.41114" lon="-60.88517">
        <ele>4</ele>
        <time>2016-06-05T13:39:49.908Z</time>
      </trkpt>
      <trkpt lat="14.41117" lon="-60.88515">
        <ele>4</ele>
        <time>2016-06-05T13:39:50.909Z</time>
      </trkpt>
      <trkpt lat="14.4112" lon="-60.88514">
        <ele>4</ele>
        <time>2016-06-05T13:39:51.905Z</time>
      </trkpt>
      <trkpt lat="14.41123" lon="-60.88512">
        <ele>5</ele>
        <time>2016-06-05T13:39:52.905Z</time>
      </trkpt>
      <trkpt lat="14.41126" lon="-60.88511">
        <ele>5</ele>
        <time>2016-06-05T13:39:53.908Z</time>
      </trkpt>
      <trkpt lat="14.41129" lon="-60.88509">
        <ele>5</ele>
        <time>2016-06-05T13:39:54.908Z</time>
      </trkpt>
      <trkpt lat="14.41133" lon="-60.88507">
        <ele>5</ele>
        <time>2016-06-05T13:39:55.908Z</time>
      </trkpt>
      <trkpt lat="14.41136" lon="-60.88505">
        <ele>5</ele>
        <time>2016-06-05T13:39:56.908Z</time>
      </trkpt>
      <trkpt lat="14.4114" lon="-60.88503">
        <ele>5</ele>
        <time>2016-06-05T13:39:57.909Z</time>
      </trkpt>
      <trkpt lat="14.41144" lon="-60.88503">
        <ele>5</ele>
        <time>2016-06-05T13:39:58.908Z</time>
      </trkpt>
      <trkpt lat="14.41148" lon="-60.88503">
        <ele>5</ele>
        <time>2016-06-05T13:39:59.908Z</time>
      </trkpt>
      <trkpt lat="14.41151" lon="-60.88503">
        <ele>5</ele>
        <time>2016-06-05T13:40:00.905Z</time>
      </trkpt>
      <trkpt lat="14.41154" lon="-60.88502">
        <ele>5</ele>
        <time>2016-06-05T13:40:01.905Z</time>
      </trkpt>
      <trkpt lat="14.41158" lon="-60.885">
        <ele>6</ele>
        <time>2016-06-05T13:40:02.901Z</time>
      </trkpt>
      <trkpt lat="14.41161" lon="-60.88499">
        <ele>7</ele>
        <time>2016-06-05T13:40:03.904Z</time>
      </trkpt>
      <trkpt lat="14.41165" lon="-60.88499">
        <ele>8</ele>
        <time>2016-06-05T13:40:04.902Z</time>
      </trkpt>
      <trkpt lat="14.41168" lon="-60.88497">
        <ele>6</ele>
        <time>2016-06-05T13:40:05.900Z</time>
      </trkpt>
      <trkpt lat="14.41172" lon="-60.88495">
        <ele>5</ele>
        <time>2016-06-05T13:40:06.901Z</time>
      </trkpt>
      <trkpt lat="14.41176" lon="-60.88494">
        <ele>5</ele>
        <time>2016-06-05T13:40:07.903Z</time>
      </trkpt>
      <trkpt lat="14.41179" lon="-60.88492">
        <ele>6</ele>
        <time>2016-06-05T13:40:08.904Z</time>
      </trkpt>
      <trkpt lat="14.41182" lon="-60.88491">
        <ele>6</ele>
        <time>2016-06-05T13:40:09.902Z</time>
      </trkpt>
      <trkpt lat="14.41185" lon="-60.88488">
        <ele>5</ele>
        <time>2016-06-05T13:40:10.901Z</time>
      </trkpt>
      <trkpt lat="14.4119" lon="-60.88488">
        <ele>5</ele>
        <time>2016-06-05T13:40:11.906Z</time>
      </trkpt>
      <trkpt lat="14.41194" lon="-60.88487">
        <ele>5</ele>
        <time>2016-06-05T13:40:12.910Z</time>
      </trkpt>
      <trkpt lat="14.41197" lon="-60.88486">
        <ele>5</ele>
        <time>2016-06-05T13:40:13.906Z</time>
      </trkpt>
      <trkpt lat="14.412" lon="-60.88485">
        <ele>4</ele>
        <time>2016-06-05T13:40:14.914Z</time>
      </trkpt>
      <trkpt lat="14.41204" lon="-60.88482">
        <ele>4</ele>
        <time>2016-06-05T13:40:15.907Z</time>
      </trkpt>
      <trkpt lat="14.41207" lon="-60.88482">
        <ele>4</ele>
        <time>2016-06-05T13:40:16.903Z</time>
      </trkpt>
      <trkpt lat="14.41211" lon="-60.88482">
        <ele>3</ele>
        <time>2016-06-05T13:40:17.904Z</time>
      </trkpt>
      <trkpt lat="14.41215" lon="-60.88482">
        <ele>4</ele>
        <time>2016-06-05T13:40:18.901Z</time>
      </trkpt>
      <trkpt lat="14.41219" lon="-60.88484">
        <ele>3</ele>
        <time>2016-06-05T13:40:19.902Z</time>
      </trkpt>
      <trkpt lat="14.41222" lon="-60.88485">
        <ele>3</ele>
        <time>2016-06-05T13:40:20.903Z</time>
      </trkpt>
      <trkpt lat="14.41225" lon="-60.88486">
        <ele>3</ele>
        <time>2016-06-05T13:40:21.907Z</time>
      </trkpt>
      <trkpt lat="14.41228" lon="-60.88486">
        <ele>3</ele>
        <time>2016-06-05T13:40:22.908Z</time>
      </trkpt>
      <trkpt lat="14.41231" lon="-60.88485">
        <ele>4</ele>
        <time>2016-06-05T13:40:23.906Z</time>
      </trkpt>
      <trkpt lat="14.41235" lon="-60.88485">
        <ele>4</ele>
        <time>2016-06-05T13:40:24.907Z</time>
      </trkpt>
      <trkpt lat="14.41238" lon="-60.88486">
        <ele>5</ele>
        <time>2016-06-05T13:40:25.908Z</time>
      </trkpt>
      <trkpt lat="14.41241" lon="-60.88488">
        <ele>6</ele>
        <time>2016-06-05T13:40:26.908Z</time>
      </trkpt>
      <trkpt lat="14.41244" lon="-60.88488">
        <ele>6</ele>
        <time>2016-06-05T13:40:27.909Z</time>
      </trkpt>
      <trkpt lat="14.41247" lon="-60.88488">
        <ele>7</ele>
        <time>2016-06-05T13:40:28.908Z</time>
      </trkpt>
      <trkpt lat="14.41251" lon="-60.88487">
        <ele>6</ele>
        <time>2016-06-05T13:40:29.909Z</time>
      </trkpt>
      <trkpt lat="14.41255" lon="-60.88486">
        <ele>4</ele>
        <time>2016-06-05T13:40:30.903Z</time>
      </trkpt>
      <trkpt lat="14.41258" lon="-60.88485">
        <ele>5</ele>
        <time>2016-06-05T13:40:31.901Z</time>
      </trkpt>
      <trkpt lat="14.41262" lon="-60.88485">
        <ele>5</ele>
        <time>2016-06-05T13:40:32.901Z</time>
      </trkpt>
      <trkpt lat="14.41265" lon="-60.88485">
        <ele>5</ele>
        <time>2016-06-05T13:40:33.901Z</time>
      </trkpt>
      <trkpt lat="14.41267" lon="-60.88489">
        <ele>4</ele>
        <time>2016-06-05T13:40:34.904Z</time>
      </trkpt>
      <trkpt lat="14.41268" lon="-60.88492">
        <ele>2</ele>
        <time>2016-06-05T13:40:35.903Z</time>
      </trkpt>
      <trkpt lat="14.4127" lon="-60.88494">
        <ele>4</ele>
        <time>2016-06-05T13:40:36.905Z</time>
      </trkpt>
      <trkpt lat="14.41271" lon="-60.88494">
        <ele>6</ele>
        <time>2016-06-05T13:40:37.907Z</time>
      </trkpt>
      <trkpt lat="14.41273" lon="-60.88494">
        <ele>7</ele>
        <time>2016-06-05T13:40:39.909Z</time>
      </trkpt>
      <trkpt lat="14.41275" lon="-60.88495">
        <ele>8</ele>
        <time>2016-06-05T13:40:42.903Z</time>
      </trkpt>
      <trkpt lat="14.4128" lon="-60.88497">
        <ele>7</ele>
        <time>2016-06-05T13:40:52.909Z</time>
      </trkpt>
      <trkpt lat="14.41281" lon="-60.88497">
        <ele>7</ele>
        <time>2016-06-05T13:40:54.907Z</time>
      </trkpt>
      <trkpt lat="14.41283" lon="-60.88497">
        <ele>6</ele>
        <time>2016-06-05T13:40:55.903Z</time>
      </trkpt>
      <trkpt lat="14.41285" lon="-60.88496">
        <ele>7</ele>
        <time>2016-06-05T13:40:57.904Z</time>
      </trkpt>
      <trkpt lat="14.41286" lon="-60.88495">
        <ele>7</ele>
        <time>2016-06-05T13:40:59.903Z</time>
      </trkpt>
      <trkpt lat="14.4129" lon="-60.88493">
        <ele>7</ele>
        <time>2016-06-05T13:41:01.906Z</time>
      </trkpt>
      <trkpt lat="14.41293" lon="-60.88493">
        <ele>8</ele>
        <time>2016-06-05T13:41:02.905Z</time>
      </trkpt>
      <trkpt lat="14.41295" lon="-60.88492">
        <ele>7</ele>
        <time>2016-06-05T13:41:03.903Z</time>
      </trkpt>
      <trkpt lat="14.41299" lon="-60.88492">
        <ele>7</ele>
        <time>2016-06-05T13:41:04.902Z</time>
      </trkpt>
      <trkpt lat="14.41302" lon="-60.88492">
        <ele>7</ele>
        <time>2016-06-05T13:41:05.903Z</time>
      </trkpt>
      <trkpt lat="14.41305" lon="-60.88493">
        <ele>7</ele>
        <time>2016-06-05T13:41:06.904Z</time>
      </trkpt>
      <trkpt lat="14.41308" lon="-60.88493">
        <ele>5</ele>
        <time>2016-06-05T13:41:07.904Z</time>
      </trkpt>
      <trkpt lat="14.41311" lon="-60.88493">
        <ele>5</ele>
        <time>2016-06-05T13:41:08.907Z</time>
      </trkpt>
      <trkpt lat="14.41315" lon="-60.88494">
        <ele>4</ele>
        <time>2016-06-05T13:41:09.909Z</time>
      </trkpt>
      <trkpt lat="14.41319" lon="-60.88495">
        <ele>5</ele>
        <time>2016-06-05T13:41:10.908Z</time>
      </trkpt>
      <trkpt lat="14.41322" lon="-60.88497">
        <ele>4</ele>
        <time>2016-06-05T13:41:11.909Z</time>
      </trkpt>
      <trkpt lat="14.41325" lon="-60.88498">
        <ele>5</ele>
        <time>2016-06-05T13:41:12.908Z</time>
      </trkpt>
      <trkpt lat="14.41328" lon="-60.88498">
        <ele>5</ele>
        <time>2016-06-05T13:41:13.908Z</time>
      </trkpt>
      <trkpt lat="14.41332" lon="-60.88497">
        <ele>3</ele>
        <time>2016-06-05T13:41:14.907Z</time>
      </trkpt>
      <trkpt lat="14.41336" lon="-60.88496">
        <ele>2</ele>
        <time>2016-06-05T13:41:15.908Z</time>
      </trkpt>
      <trkpt lat="14.41339" lon="-60.88496">
        <ele>1</ele>
        <time>2016-06-05T13:41:16.908Z</time>
      </trkpt>
      <trkpt lat="14.41341" lon="-60.88497">
        <time>2016-06-05T13:41:17.910Z</time>
      </trkpt>
      <trkpt lat="14.41344" lon="-60.885">
        <ele>1</ele>
        <time>2016-06-05T13:41:18.908Z</time>
      </trkpt>
      <trkpt lat="14.41347" lon="-60.88502">
        <ele>1</ele>
        <time>2016-06-05T13:41:19.908Z</time>
      </trkpt>
      <trkpt lat="14.4135" lon="-60.88503">
        <ele>2</ele>
        <time>2016-06-05T13:41:20.907Z</time>
      </trkpt>
      <trkpt lat="14.41353" lon="-60.88504">
        <ele>2</ele>
        <time>2016-06-05T13:41:21.906Z</time>
      </trkpt>
      <trkpt lat="14.41355" lon="-60.88505">
        <ele>2</ele>
        <time>2016-06-05T13:41:22.907Z</time>
      </trkpt>
      <trkpt lat="14.41358" lon="-60.88506">
        <ele>2</ele>
        <time>2016-06-05T13:41:23.907Z</time>
      </trkpt>
      <trkpt lat="14.41361" lon="-60.88506">
        <ele>2</ele>
        <time>2016-06-05T13:41:24.907Z</time>
      </trkpt>
      <trkpt lat="14.41365" lon="-60.88507">
        <ele>3</ele>
        <time>2016-06-05T13:41:25.909Z</time>
      </trkpt>
      <trkpt lat="14.41369" lon="-60.88509">
        <ele>2</ele>
        <time>2016-06-05T13:41:26.909Z</time>
      </trkpt>
      <trkpt lat="14.41373" lon="-60.88512">
        <ele>3</ele>
        <time>2016-06-05T13:41:27.907Z</time>
      </trkpt>
      <trkpt lat="14.41376" lon="-60.88514">
        <ele>3</ele>
        <time>2016-06-05T13:41:28.908Z</time>
      </trkpt>
      <trkpt lat="14.41379" lon="-60.88515">
        <ele>5</ele>
        <time>2016-06-05T13:41:29.908Z</time>
      </trkpt>
      <trkpt lat="14.41382" lon="-60.88516">
        <ele>6</ele>
        <time>2016-06-05T13:41:30.910Z</time>
      </trkpt>
      <trkpt lat="14.41385" lon="-60.88517">
        <ele>6</ele>
        <time>2016-06-05T13:41:31.907Z</time>
      </trkpt>
      <trkpt lat="14.41389" lon="-60.88518">
        <ele>7</ele>
        <time>2016-06-05T13:41:32.908Z</time>
      </trkpt>
      <trkpt lat="14.41393" lon="-60.88519">
        <ele>8</ele>
        <time>2016-06-05T13:41:33.907Z</time>
      </trkpt>
      <trkpt lat="14.41394" lon="-60.88522">
        <ele>7</ele>
        <time>2016-06-05T13:41:34.908Z</time>
      </trkpt>
      <trkpt lat="14.41395" lon="-60.88526">
        <ele>7</ele>
        <time>2016-06-05T13:41:35.907Z</time>
      </trkpt>
      <trkpt lat="14.41396" lon="-60.88529">
        <ele>6</ele>
        <time>2016-06-05T13:41:36.908Z</time>
      </trkpt>
      <trkpt lat="14.41396" lon="-60.88531">
        <ele>7</ele>
        <time>2016-06-05T13:41:37.909Z</time>
      </trkpt>
      <trkpt lat="14.41397" lon="-60.88533">
        <ele>7</ele>
        <time>2016-06-05T13:41:38.908Z</time>
      </trkpt>
      <trkpt lat="14.41399" lon="-60.88533">
        <ele>8</ele>
        <time>2016-06-05T13:41:39.909Z</time>
      </trkpt>
      <trkpt lat="14.41401" lon="-60.88534">
        <ele>8</ele>
        <time>2016-06-05T13:41:40.910Z</time>
      </trkpt>
      <trkpt lat="14.41404" lon="-60.88532">
        <ele>8</ele>
        <time>2016-06-05T13:41:41.909Z</time>
      </trkpt>
      <trkpt lat="14.41407" lon="-60.88531">
        <ele>6</ele>
        <time>2016-06-05T13:41:42.907Z</time>
      </trkpt>
      <trkpt lat="14.4141" lon="-60.88532">
        <ele>5</ele>
        <time>2016-06-05T13:41:43.907Z</time>
      </trkpt>
      <trkpt lat="14.41412" lon="-60.88534">
        <ele>6</ele>
        <time>2016-06-05T13:41:44.910Z</time>
      </trkpt>
      <trkpt lat="14.41415" lon="-60.88535">
        <ele>6</ele>
        <time>2016-06-05T13:41:45.911Z</time>
      </trkpt>
      <trkpt lat="14.41418" lon="-60.88536">
        <ele>7</ele>
        <time>2016-06-05T13:41:46.908Z</time>
      </trkpt>
      <trkpt lat="14.41421" lon="-60.88536">
        <ele>5</ele>
        <time>2016-06-05T13:41:47.909Z</time>
      </trkpt>
      <trkpt lat="14.41423" lon="-60.88537">
        <ele>5</ele>
        <time>2016-06-05T13:41:48.907Z</time>
      </trkpt>
      <trkpt lat="14.41426" lon="-60.88538">
        <ele>5</ele>
        <time>2016-06-05T13:41:49.908Z</time>
      </trkpt>
      <trkpt lat="14.41428" lon="-60.88539">
        <ele>6</ele>
        <time>2016-06-05T13:41:50.907Z</time>
      </trkpt>
      <trkpt lat="14.41431" lon="-60.88541">
        <ele>6</ele>
        <time>2016-06-05T13:41:51.908Z</time>
      </trkpt>
      <trkpt lat="14.41434" lon="-60.88543">
        <ele>7</ele>
        <time>2016-06-05T13:41:52.907Z</time>
      </trkpt>
      <trkpt lat="14.41436" lon="-60.88545">
        <ele>7</ele>
        <time>2016-06-05T13:41:53.908Z</time>
      </trkpt>
      <trkpt lat="14.41438" lon="-60.88548">
        <ele>7</ele>
        <time>2016-06-05T13:41:54.907Z</time>
      </trkpt>
      <trkpt lat="14.4144" lon="-60.8855">
        <ele>8</ele>
        <time>2016-06-05T13:41:55.909Z</time>
      </trkpt>
      <trkpt lat="14.41441" lon="-60.88552">
        <ele>8</ele>
        <time>2016-06-05T13:41:56.909Z</time>
      </trkpt>
      <trkpt lat="14.41442" lon="-60.88554">
        <ele>8</ele>
        <time>2016-06-05T13:41:57.911Z</time>
      </trkpt>
      <trkpt lat="14.41443" lon="-60.88556">
        <ele>9</ele>
        <time>2016-06-05T13:41:58.910Z</time>
      </trkpt>
      <trkpt lat="14.41443" lon="-60.88557">
        <ele>9</ele>
        <time>2016-06-05T13:41:59.910Z</time>
      </trkpt>
      <trkpt lat="14.41443" lon="-60.88559">
        <ele>9</ele>
        <time>2016-06-05T13:42:00.911Z</time>
      </trkpt>
      <trkpt lat="14.41443" lon="-60.88561">
        <ele>9</ele>
        <time>2016-06-05T13:42:01.913Z</time>
      </trkpt>
      <trkpt lat="14.41446" lon="-60.88564">
        <ele>12</ele>
        <time>2016-06-05T13:42:12.915Z</time>
      </trkpt>
      <trkpt lat="14.41446" lon="-60.88567">
        <ele>12</ele>
        <time>2016-06-05T13:42:15.911Z</time>
      </trkpt>
      <trkpt lat="14.41446" lon="-60.88567">
        <ele>12</ele>
        <time>2016-06-05T13:44:42.384Z</time>
      </trkpt>
      <trkpt lat="14.41446" lon="-60.8857">
        <ele>13</ele>
        <time>2016-06-05T13:44:57.907Z</time>
      </trkpt>
      <trkpt lat="14.41447" lon="-60.88572">
        <ele>13</ele>
        <time>2016-06-05T13:44:59.907Z</time>
      </trkpt>
      <trkpt lat="14.41449" lon="-60.88574">
        <ele>13</ele>
        <time>2016-06-05T13:45:00.908Z</time>
      </trkpt>
      <trkpt lat="14.41452" lon="-60.88575">
        <ele>13</ele>
        <time>2016-06-05T13:45:02.908Z</time>
      </trkpt>
      <trkpt lat="14.41453" lon="-60.88577">
        <ele>13</ele>
        <time>2016-06-05T13:45:03.907Z</time>
      </trkpt>
      <trkpt lat="14.41454" lon="-60.88578">
        <ele>14</ele>
        <time>2016-06-05T13:45:04.906Z</time>
      </trkpt>
      <trkpt lat="14.41455" lon="-60.8858">
        <ele>13</ele>
        <time>2016-06-05T13:45:05.906Z</time>
      </trkpt>
      <trkpt lat="14.41457" lon="-60.88581">
        <ele>13</ele>
        <time>2016-06-05T13:45:06.907Z</time>
      </trkpt>
      <trkpt lat="14.4146" lon="-60.88583">
        <ele>12</ele>
        <time>2016-06-05T13:45:08.908Z</time>
      </trkpt>
      <trkpt lat="14.41461" lon="-60.88584">
        <ele>11</ele>
        <time>2016-06-05T13:45:09.908Z</time>
      </trkpt>
      <trkpt lat="14.41463" lon="-60.88587">
        <ele>11</ele>
        <time>2016-06-05T13:45:10.909Z</time>
      </trkpt>
      <trkpt lat="14.41464" lon="-60.88588">
        <ele>10</ele>
        <time>2016-06-05T13:45:11.906Z</time>
      </trkpt>
      <trkpt lat="14.41466" lon="-60.88589">
        <ele>10</ele>
        <time>2016-06-05T13:45:12.908Z</time>
      </trkpt>
      <trkpt lat="14.41467" lon="-60.88591">
        <ele>11</ele>
        <time>2016-06-05T13:45:13.906Z</time>
      </trkpt>
      <trkpt lat="14.41469" lon="-60.88593">
        <ele>10</ele>
        <time>2016-06-05T13:45:14.906Z</time>
      </trkpt>
      <trkpt lat="14.41471" lon="-60.88594">
        <ele>9</ele>
        <time>2016-06-05T13:45:15.908Z</time>
      </trkpt>
      <trkpt lat="14.41472" lon="-60.88595">
        <ele>9</ele>
        <time>2016-06-05T13:45:16.906Z</time>
      </trkpt>
      <trkpt lat="14.41474" lon="-60.88596">
        <ele>8</ele>
        <time>2016-06-05T13:45:17.906Z</time>
      </trkpt>
      <trkpt lat="14.41476" lon="-60.88598">
        <ele>8</ele>
        <time>2016-06-05T13:45:18.907Z</time>
      </trkpt>
      <trkpt lat="14.41478" lon="-60.88598">
        <ele>9</ele>
        <time>2016-06-05T13:45:19.907Z</time>
      </trkpt>
      <trkpt lat="14.41479" lon="-60.88599">
        <ele>10</ele>
        <time>2016-06-05T13:45:20.907Z</time>
      </trkpt>
      <trkpt lat="14.4148" lon="-60.88601">
        <ele>10</ele>
        <time>2016-06-05T13:45:21.907Z</time>
      </trkpt>
      <trkpt lat="14.4148" lon="-60.88604">
        <ele>10</ele>
        <time>2016-06-05T13:45:22.908Z</time>
      </trkpt>
      <trkpt lat="14.41481" lon="-60.88605">
        <ele>9</ele>
        <time>2016-06-05T13:45:23.907Z</time>
      </trkpt>
      <trkpt lat="14.41482" lon="-60.88607">
        <ele>9</ele>
        <time>2016-06-05T13:45:24.906Z</time>
      </trkpt>
      <trkpt lat="14.41484" lon="-60.88609">
        <ele>8</ele>
        <time>2016-06-05T13:45:25.908Z</time>
      </trkpt>
      <trkpt lat="14.41485" lon="-60.8861">
        <ele>8</ele>
        <time>2016-06-05T13:45:26.908Z</time>
      </trkpt>
      <trkpt lat="14.41486" lon="-60.88612">
        <ele>9</ele>
        <time>2016-06-05T13:45:27.907Z</time>
      </trkpt>
      <trkpt lat="14.41489" lon="-60.88614">
        <ele>8</ele>
        <time>2016-06-05T13:45:28.908Z</time>
      </trkpt>
      <trkpt lat="14.4149" lon="-60.88616">
        <ele>8</ele>
        <time>2016-06-05T13:45:29.908Z</time>
      </trkpt>
      <trkpt lat="14.41491" lon="-60.88618">
        <ele>8</ele>
        <time>2016-06-05T13:45:30.906Z</time>
      </trkpt>
      <trkpt lat="14.41492" lon="-60.8862">
        <ele>10</ele>
        <time>2016-06-05T13:45:31.909Z</time>
      </trkpt>
      <trkpt lat="14.41493" lon="-60.88622">
        <ele>10</ele>
        <time>2016-06-05T13:45:32.907Z</time>
      </trkpt>
      <trkpt lat="14.41495" lon="-60.88623">
        <ele>10</ele>
        <time>2016-06-05T13:45:33.907Z</time>
      </trkpt>
      <trkpt lat="14.41496" lon="-60.88625">
        <ele>11</ele>
        <time>2016-06-05T13:45:34.907Z</time>
      </trkpt>
      <trkpt lat="14.41498" lon="-60.88626">
        <ele>11</ele>
        <time>2016-06-05T13:45:35.910Z</time>
      </trkpt>
      <trkpt lat="14.41501" lon="-60.88627">
        <ele>11</ele>
        <time>2016-06-05T13:45:36.909Z</time>
      </trkpt>
      <trkpt lat="14.41502" lon="-60.88628">
        <ele>9</ele>
        <time>2016-06-05T13:45:37.907Z</time>
      </trkpt>
      <trkpt lat="14.41505" lon="-60.88628">
        <ele>9</ele>
        <time>2016-06-05T13:45:38.911Z</time>
      </trkpt>
      <trkpt lat="14.41506" lon="-60.88629">
        <ele>10</ele>
        <time>2016-06-05T13:45:39.907Z</time>
      </trkpt>
      <trkpt lat="14.41507" lon="-60.88631">
        <ele>10</ele>
        <time>2016-06-05T13:45:40.904Z</time>
      </trkpt>
      <trkpt lat="14.41509" lon="-60.88633">
        <ele>11</ele>
        <time>2016-06-05T13:45:41.900Z</time>
      </trkpt>
      <trkpt lat="14.4151" lon="-60.88635">
        <ele>12</ele>
        <time>2016-06-05T13:45:43.900Z</time>
      </trkpt>
      <trkpt lat="14.41511" lon="-60.88637">
        <ele>12</ele>
        <time>2016-06-05T13:45:44.903Z</time>
      </trkpt>
      <trkpt lat="14.41515" lon="-60.88643">
        <ele>10</ele>
        <time>2016-06-05T13:45:55.908Z</time>
      </trkpt>
      <trkpt lat="14.41517" lon="-60.88644">
        <ele>9</ele>
        <time>2016-06-05T13:45:57.900Z</time>
      </trkpt>
      <trkpt lat="14.41519" lon="-60.88645">
        <ele>10</ele>
        <time>2016-06-05T13:45:59.904Z</time>
      </trkpt>
      <trkpt lat="14.41522" lon="-60.88645">
        <ele>10</ele>
        <time>2016-06-05T13:46:01.907Z</time>
      </trkpt>
      <trkpt lat="14.41524" lon="-60.88645">
        <ele>9</ele>
        <time>2016-06-05T13:46:03.910Z</time>
      </trkpt>
      <trkpt lat="14.41526" lon="-60.88644">
        <ele>9</ele>
        <time>2016-06-05T13:46:05.906Z</time>
      </trkpt>
      <trkpt lat="14.41531" lon="-60.88642">
        <ele>6</ele>
        <time>2016-06-05T13:46:12.902Z</time>
      </trkpt>
      <trkpt lat="14.41533" lon="-60.88641">
        <ele>6</ele>
        <time>2016-06-05T13:46:13.902Z</time>
      </trkpt>
      <trkpt lat="14.41534" lon="-60.8864">
        <ele>6</ele>
        <time>2016-06-05T13:46:14.902Z</time>
      </trkpt>
      <trkpt lat="14.41535" lon="-60.88639">
        <ele>7</ele>
        <time>2016-06-05T13:46:16.903Z</time>
      </trkpt>
      <trkpt lat="14.41536" lon="-60.88638">
        <ele>7</ele>
        <time>2016-06-05T13:46:17.907Z</time>
      </trkpt>
      <trkpt lat="14.4154" lon="-60.88635">
        <ele>7</ele>
        <time>2016-06-05T13:46:21.908Z</time>
      </trkpt>
      <trkpt lat="14.41539" lon="-60.88634">
        <ele>8</ele>
        <time>2016-06-05T13:46:22.908Z</time>
      </trkpt>
      <trkpt lat="14.4154" lon="-60.88633">
        <ele>7</ele>
        <time>2016-06-05T13:46:23.907Z</time>
      </trkpt>
      <trkpt lat="14.41542" lon="-60.88633">
        <ele>7</ele>
        <time>2016-06-05T13:46:24.906Z</time>
      </trkpt>
      <trkpt lat="14.41545" lon="-60.88635">
        <ele>9</ele>
        <time>2016-06-05T13:46:30.905Z</time>
      </trkpt>
      <trkpt lat="14.41547" lon="-60.88636">
        <ele>9</ele>
        <time>2016-06-05T13:46:31.906Z</time>
      </trkpt>
      <trkpt lat="14.41548" lon="-60.88636">
        <ele>9</ele>
        <time>2016-06-05T13:46:32.906Z</time>
      </trkpt>
      <trkpt lat="14.41549" lon="-60.88636">
        <ele>9</ele>
        <time>2016-06-05T13:46:33.908Z</time>
      </trkpt>
      <trkpt lat="14.41551" lon="-60.88636">
        <ele>9</ele>
        <time>2016-06-05T13:46:35.907Z</time>
      </trkpt>
      <trkpt lat="14.41554" lon="-60.88637">
        <ele>9</ele>
        <time>2016-06-05T13:46:36.910Z</time>
      </trkpt>
      <trkpt lat="14.41555" lon="-60.88638">
        <ele>9</ele>
        <time>2016-06-05T13:46:37.908Z</time>
      </trkpt>
      <trkpt lat="14.41558" lon="-60.8864">
        <ele>10</ele>
        <time>2016-06-05T13:46:38.907Z</time>
      </trkpt>
      <trkpt lat="14.4156" lon="-60.88642">
        <ele>10</ele>
        <time>2016-06-05T13:46:39.908Z</time>
      </trkpt>
      <trkpt lat="14.41562" lon="-60.88644">
        <ele>9</ele>
        <time>2016-06-05T13:46:40.907Z</time>
      </trkpt>
      <trkpt lat="14.41564" lon="-60.88646">
        <ele>8</ele>
        <time>2016-06-05T13:46:41.908Z</time>
      </trkpt>
      <trkpt lat="14.41565" lon="-60.88648">
        <ele>8</ele>
        <time>2016-06-05T13:46:42.907Z</time>
      </trkpt>
      <trkpt lat="14.41567" lon="-60.8865">
        <ele>9</ele>
        <time>2016-06-05T13:46:43.906Z</time>
      </trkpt>
      <trkpt lat="14.41569" lon="-60.88653">
        <ele>8</ele>
        <time>2016-06-05T13:46:44.906Z</time>
      </trkpt>
      <trkpt lat="14.41571" lon="-60.88655">
        <ele>9</ele>
        <time>2016-06-05T13:46:45.909Z</time>
      </trkpt>
      <trkpt lat="14.41573" lon="-60.88657">
        <ele>8</ele>
        <time>2016-06-05T13:46:46.905Z</time>
      </trkpt>
      <trkpt lat="14.41574" lon="-60.88659">
        <ele>9</ele>
        <time>2016-06-05T13:46:47.907Z</time>
      </trkpt>
      <trkpt lat="14.41575" lon="-60.88662">
        <ele>9</ele>
        <time>2016-06-05T13:46:48.908Z</time>
      </trkpt>
      <trkpt lat="14.41577" lon="-60.88664">
        <ele>9</ele>
        <time>2016-06-05T13:46:49.906Z</time>
      </trkpt>
      <trkpt lat="14.41579" lon="-60.88665">
        <ele>8</ele>
        <time>2016-06-05T13:46:50.902Z</time>
      </trkpt>
      <trkpt lat="14.4158" lon="-60.88667">
        <ele>8</ele>
        <time>2016-06-05T13:46:51.901Z</time>
      </trkpt>
      <trkpt lat="14.41582" lon="-60.88669">
        <ele>8</ele>
        <time>2016-06-05T13:46:52.902Z</time>
      </trkpt>
      <trkpt lat="14.41583" lon="-60.88671">
        <ele>8</ele>
        <time>2016-06-05T13:46:53.902Z</time>
      </trkpt>
      <trkpt lat="14.41584" lon="-60.88674">
        <ele>8</ele>
        <time>2016-06-05T13:46:54.901Z</time>
      </trkpt>
      <trkpt lat="14.41585" lon="-60.88676">
        <ele>8</ele>
        <time>2016-06-05T13:46:55.901Z</time>
      </trkpt>
      <trkpt lat="14.41586" lon="-60.88677">
        <ele>8</ele>
        <time>2016-06-05T13:46:56.906Z</time>
      </trkpt>
      <trkpt lat="14.41587" lon="-60.88679">
        <ele>9</ele>
        <time>2016-06-05T13:46:57.906Z</time>
      </trkpt>
      <trkpt lat="14.41588" lon="-60.88681">
        <ele>9</ele>
        <time>2016-06-05T13:46:58.908Z</time>
      </trkpt>
      <trkpt lat="14.41589" lon="-60.88683">
        <ele>8</ele>
        <time>2016-06-05T13:46:59.906Z</time>
      </trkpt>
      <trkpt lat="14.41591" lon="-60.88685">
        <ele>8</ele>
        <time>2016-06-05T13:47:00.909Z</time>
      </trkpt>
      <trkpt lat="14.41592" lon="-60.88687">
        <ele>8</ele>
        <time>2016-06-05T13:47:01.906Z</time>
      </trkpt>
      <trkpt lat="14.41593" lon="-60.88689">
        <ele>9</ele>
        <time>2016-06-05T13:47:02.908Z</time>
      </trkpt>
      <trkpt lat="14.41594" lon="-60.88692">
        <ele>9</ele>
        <time>2016-06-05T13:47:03.907Z</time>
      </trkpt>
      <trkpt lat="14.41595" lon="-60.88694">
        <ele>9</ele>
        <time>2016-06-05T13:47:04.907Z</time>
      </trkpt>
      <trkpt lat="14.41596" lon="-60.88696">
        <ele>10</ele>
        <time>2016-06-05T13:47:05.906Z</time>
      </trkpt>
      <trkpt lat="14.41598" lon="-60.88697">
        <ele>10</ele>
        <time>2016-06-05T13:47:06.908Z</time>
      </trkpt>
      <trkpt lat="14.41598" lon="-60.887">
        <ele>11</ele>
        <time>2016-06-05T13:47:07.906Z</time>
      </trkpt>
      <trkpt lat="14.41599" lon="-60.88702">
        <ele>10</ele>
        <time>2016-06-05T13:47:08.905Z</time>
      </trkpt>
      <trkpt lat="14.416" lon="-60.88704">
        <ele>10</ele>
        <time>2016-06-05T13:47:09.907Z</time>
      </trkpt>
      <trkpt lat="14.41601" lon="-60.88707">
        <ele>10</ele>
        <time>2016-06-05T13:47:10.908Z</time>
      </trkpt>
      <trkpt lat="14.41602" lon="-60.88709">
        <ele>10</ele>
        <time>2016-06-05T13:47:11.907Z</time>
      </trkpt>
      <trkpt lat="14.41603" lon="-60.88711">
        <ele>10</ele>
        <time>2016-06-05T13:47:12.907Z</time>
      </trkpt>
      <trkpt lat="14.41605" lon="-60.88713">
        <ele>10</ele>
        <time>2016-06-05T13:47:13.907Z</time>
      </trkpt>
      <trkpt lat="14.41605" lon="-60.88715">
        <ele>10</ele>
        <time>2016-06-05T13:47:14.907Z</time>
      </trkpt>
      <trkpt lat="14.41606" lon="-60.88718">
        <ele>10</ele>
        <time>2016-06-05T13:47:15.907Z</time>
      </trkpt>
      <trkpt lat="14.41607" lon="-60.8872">
        <ele>10</ele>
        <time>2016-06-05T13:47:16.906Z</time>
      </trkpt>
      <trkpt lat="14.41609" lon="-60.88722">
        <ele>10</ele>
        <time>2016-06-05T13:47:17.908Z</time>
      </trkpt>
      <trkpt lat="14.41609" lon="-60.88725">
        <ele>11</ele>
        <time>2016-06-05T13:47:18.907Z</time>
      </trkpt>
      <trkpt lat="14.4161" lon="-60.88726">
        <ele>11</ele>
        <time>2016-06-05T13:47:19.906Z</time>
      </trkpt>
      <trkpt lat="14.41611" lon="-60.88728">
        <ele>11</ele>
        <time>2016-06-05T13:47:20.906Z</time>
      </trkpt>
      <trkpt lat="14.41612" lon="-60.8873">
        <ele>11</ele>
        <time>2016-06-05T13:47:21.908Z</time>
      </trkpt>
      <trkpt lat="14.41613" lon="-60.88732">
        <ele>11</ele>
        <time>2016-06-05T13:47:22.907Z</time>
      </trkpt>
      <trkpt lat="14.41613" lon="-60.88733">
        <ele>11</ele>
        <time>2016-06-05T13:47:23.907Z</time>
      </trkpt>
      <trkpt lat="14.41615" lon="-60.88735">
        <ele>10</ele>
        <time>2016-06-05T13:47:24.907Z</time>
      </trkpt>
      <trkpt lat="14.41616" lon="-60.88736">
        <ele>10</ele>
        <time>2016-06-05T13:47:25.913Z</time>
      </trkpt>
      <trkpt lat="14.41617" lon="-60.88738">
        <ele>10</ele>
        <time>2016-06-05T13:47:26.907Z</time>
      </trkpt>
      <trkpt lat="14.41617" lon="-60.88739">
        <ele>10</ele>
        <time>2016-06-05T13:47:27.907Z</time>
      </trkpt>
      <trkpt lat="14.41618" lon="-60.88741">
        <ele>11</ele>
        <time>2016-06-05T13:47:28.907Z</time>
      </trkpt>
      <trkpt lat="14.41619" lon="-60.88743">
        <ele>11</ele>
        <time>2016-06-05T13:47:29.908Z</time>
      </trkpt>
      <trkpt lat="14.41621" lon="-60.88746">
        <ele>11</ele>
        <time>2016-06-05T13:47:30.907Z</time>
      </trkpt>
      <trkpt lat="14.41622" lon="-60.88748">
        <ele>10</ele>
        <time>2016-06-05T13:47:31.907Z</time>
      </trkpt>
      <trkpt lat="14.41623" lon="-60.88749">
        <ele>11</ele>
        <time>2016-06-05T13:47:32.909Z</time>
      </trkpt>
      <trkpt lat="14.41625" lon="-60.88751">
        <ele>10</ele>
        <time>2016-06-05T13:47:33.907Z</time>
      </trkpt>
      <trkpt lat="14.41626" lon="-60.88753">
        <ele>11</ele>
        <time>2016-06-05T13:47:34.907Z</time>
      </trkpt>
      <trkpt lat="14.41628" lon="-60.88755">
        <ele>11</ele>
        <time>2016-06-05T13:47:35.908Z</time>
      </trkpt>
      <trkpt lat="14.41629" lon="-60.88756">
        <ele>11</ele>
        <time>2016-06-05T13:47:36.913Z</time>
      </trkpt>
      <trkpt lat="14.41631" lon="-60.88758">
        <ele>10</ele>
        <time>2016-06-05T13:47:37.908Z</time>
      </trkpt>
      <trkpt lat="14.41632" lon="-60.88761">
        <ele>9</ele>
        <time>2016-06-05T13:47:38.908Z</time>
      </trkpt>
      <trkpt lat="14.41633" lon="-60.88763">
        <ele>9</ele>
        <time>2016-06-05T13:47:39.908Z</time>
      </trkpt>
      <trkpt lat="14.41635" lon="-60.88765">
        <ele>7</ele>
        <time>2016-06-05T13:47:40.907Z</time>
      </trkpt>
      <trkpt lat="14.41636" lon="-60.88767">
        <ele>7</ele>
        <time>2016-06-05T13:47:41.907Z</time>
      </trkpt>
      <trkpt lat="14.41638" lon="-60.88768">
        <ele>7</ele>
        <time>2016-06-05T13:47:42.908Z</time>
      </trkpt>
      <trkpt lat="14.4164" lon="-60.88771">
        <ele>9</ele>
        <time>2016-06-05T13:47:43.908Z</time>
      </trkpt>
      <trkpt lat="14.41641" lon="-60.88772">
        <ele>10</ele>
        <time>2016-06-05T13:47:44.906Z</time>
      </trkpt>
      <trkpt lat="14.41643" lon="-60.88774">
        <ele>10</ele>
        <time>2016-06-05T13:47:45.906Z</time>
      </trkpt>
      <trkpt lat="14.41644" lon="-60.88777">
        <ele>11</ele>
        <time>2016-06-05T13:47:46.908Z</time>
      </trkpt>
      <trkpt lat="14.41645" lon="-60.88779">
        <ele>11</ele>
        <time>2016-06-05T13:47:47.909Z</time>
      </trkpt>
      <trkpt lat="14.41647" lon="-60.88781">
        <ele>13</ele>
        <time>2016-06-05T13:47:48.909Z</time>
      </trkpt>
      <trkpt lat="14.41648" lon="-60.88782">
        <ele>14</ele>
        <time>2016-06-05T13:47:49.908Z</time>
      </trkpt>
      <trkpt lat="14.41649" lon="-60.88783">
        <ele>14</ele>
        <time>2016-06-05T13:47:50.908Z</time>
      </trkpt>
      <trkpt lat="14.4165" lon="-60.88785">
        <ele>15</ele>
        <time>2016-06-05T13:47:51.907Z</time>
      </trkpt>
      <trkpt lat="14.41652" lon="-60.88787">
        <ele>15</ele>
        <time>2016-06-05T13:47:52.907Z</time>
      </trkpt>
      <trkpt lat="14.41653" lon="-60.88789">
        <ele>16</ele>
        <time>2016-06-05T13:47:53.908Z</time>
      </trkpt>
      <trkpt lat="14.41655" lon="-60.88791">
        <ele>15</ele>
        <time>2016-06-05T13:47:54.907Z</time>
      </trkpt>
      <trkpt lat="14.41656" lon="-60.88792">
        <ele>15</ele>
        <time>2016-06-05T13:47:55.906Z</time>
      </trkpt>
      <trkpt lat="14.41657" lon="-60.88794">
        <ele>14</ele>
        <time>2016-06-05T13:47:56.909Z</time>
      </trkpt>
      <trkpt lat="14.41659" lon="-60.88796">
        <ele>14</ele>
        <time>2016-06-05T13:47:57.905Z</time>
      </trkpt>
      <trkpt lat="14.4166" lon="-60.88798">
        <ele>14</ele>
        <time>2016-06-05T13:47:58.908Z</time>
      </trkpt>
      <trkpt lat="14.41663" lon="-60.888">
        <ele>15</ele>
        <time>2016-06-05T13:47:59.906Z</time>
      </trkpt>
      <trkpt lat="14.41665" lon="-60.88801">
        <ele>15</ele>
        <time>2016-06-05T13:48:00.906Z</time>
      </trkpt>
      <trkpt lat="14.41667" lon="-60.88803">
        <ele>15</ele>
        <time>2016-06-05T13:48:01.907Z</time>
      </trkpt>
      <trkpt lat="14.41669" lon="-60.88805">
        <ele>16</ele>
        <time>2016-06-05T13:48:02.906Z</time>
      </trkpt>
      <trkpt lat="14.41671" lon="-60.88806">
        <ele>17</ele>
        <time>2016-06-05T13:48:03.906Z</time>
      </trkpt>
      <trkpt lat="14.41673" lon="-60.88808">
        <ele>16</ele>
        <time>2016-06-05T13:48:04.905Z</time>
      </trkpt>
      <trkpt lat="14.41676" lon="-60.8881">
        <ele>15</ele>
        <time>2016-06-05T13:48:05.907Z</time>
      </trkpt>
      <trkpt lat="14.41678" lon="-60.88812">
        <ele>15</ele>
        <time>2016-06-05T13:48:06.907Z</time>
      </trkpt>
      <trkpt lat="14.41681" lon="-60.88814">
        <ele>15</ele>
        <time>2016-06-05T13:48:07.907Z</time>
      </trkpt>
      <trkpt lat="14.41683" lon="-60.88817">
        <ele>16</ele>
        <time>2016-06-05T13:48:08.905Z</time>
      </trkpt>
      <trkpt lat="14.41686" lon="-60.8882">
        <ele>16</ele>
        <time>2016-06-05T13:48:09.909Z</time>
      </trkpt>
      <trkpt lat="14.41688" lon="-60.88823">
        <ele>16</ele>
        <time>2016-06-05T13:48:10.906Z</time>
      </trkpt>
      <trkpt lat="14.41691" lon="-60.88826">
        <ele>16</ele>
        <time>2016-06-05T13:48:11.906Z</time>
      </trkpt>
      <trkpt lat="14.41694" lon="-60.88829">
        <ele>16</ele>
        <time>2016-06-05T13:48:12.907Z</time>
      </trkpt>
      <trkpt lat="14.41695" lon="-60.88833">
        <ele>16</ele>
        <time>2016-06-05T13:48:13.908Z</time>
      </trkpt>
      <trkpt lat="14.41696" lon="-60.88837">
        <ele>15</ele>
        <time>2016-06-05T13:48:14.907Z</time>
      </trkpt>
      <trkpt lat="14.41699" lon="-60.8884">
        <ele>15</ele>
        <time>2016-06-05T13:48:15.906Z</time>
      </trkpt>
      <trkpt lat="14.41701" lon="-60.88844">
        <ele>15</ele>
        <time>2016-06-05T13:48:16.907Z</time>
      </trkpt>
      <trkpt lat="14.41703" lon="-60.88849">
        <ele>15</ele>
        <time>2016-06-05T13:48:17.906Z</time>
      </trkpt>
      <trkpt lat="14.41704" lon="-60.88853">
        <ele>15</ele>
        <time>2016-06-05T13:48:18.906Z</time>
      </trkpt>
      <trkpt lat="14.41705" lon="-60.88855">
        <ele>14</ele>
        <time>2016-06-05T13:48:19.905Z</time>
      </trkpt>
      <trkpt lat="14.41706" lon="-60.88858">
        <ele>14</ele>
        <time>2016-06-05T13:48:20.905Z</time>
      </trkpt>
      <trkpt lat="14.41706" lon="-60.88861">
        <ele>13</ele>
        <time>2016-06-05T13:48:21.905Z</time>
      </trkpt>
      <trkpt lat="14.41706" lon="-60.88863">
        <ele>12</ele>
        <time>2016-06-05T13:48:22.906Z</time>
      </trkpt>
      <trkpt lat="14.41706" lon="-60.88864">
        <ele>12</ele>
        <time>2016-06-05T13:48:23.907Z</time>
      </trkpt>
      <trkpt lat="14.41706" lon="-60.88866">
        <ele>12</ele>
        <time>2016-06-05T13:48:24.908Z</time>
      </trkpt>
      <trkpt lat="14.41705" lon="-60.88868">
        <ele>13</ele>
        <time>2016-06-05T13:48:25.907Z</time>
      </trkpt>
      <trkpt lat="14.41705" lon="-60.88869">
        <ele>13</ele>
        <time>2016-06-05T13:48:26.907Z</time>
      </trkpt>
      <trkpt lat="14.41704" lon="-60.88871">
        <ele>14</ele>
        <time>2016-06-05T13:48:28.905Z</time>
      </trkpt>
      <trkpt lat="14.41701" lon="-60.8887">
        <ele>15</ele>
        <time>2016-06-05T13:48:30.915Z</time>
      </trkpt>
      <trkpt lat="14.41698" lon="-60.88872">
        <ele>14</ele>
        <time>2016-06-05T13:48:31.924Z</time>
      </trkpt>
      <trkpt lat="14.41695" lon="-60.88872">
        <ele>14</ele>
        <time>2016-06-05T13:48:32.912Z</time>
      </trkpt>
      <trkpt lat="14.41692" lon="-60.88874">
        <ele>15</ele>
        <time>2016-06-05T13:48:33.907Z</time>
      </trkpt>
      <trkpt lat="14.41689" lon="-60.88874">
        <ele>14</ele>
        <time>2016-06-05T13:48:34.903Z</time>
      </trkpt>
      <trkpt lat="14.41686" lon="-60.88875">
        <ele>13</ele>
        <time>2016-06-05T13:48:35.903Z</time>
      </trkpt>
      <trkpt lat="14.41685" lon="-60.88877">
        <ele>13</ele>
        <time>2016-06-05T13:48:36.902Z</time>
      </trkpt>
      <trkpt lat="14.41682" lon="-60.88877">
        <ele>13</ele>
        <time>2016-06-05T13:48:37.903Z</time>
      </trkpt>
      <trkpt lat="14.41681" lon="-60.88877">
        <ele>11</ele>
        <time>2016-06-05T13:48:38.904Z</time>
      </trkpt>
      <trkpt lat="14.4168" lon="-60.88879">
        <ele>12</ele>
        <time>2016-06-05T13:48:40.904Z</time>
      </trkpt>
      <trkpt lat="14.41679" lon="-60.88881">
        <ele>11</ele>
        <time>2016-06-05T13:48:41.902Z</time>
      </trkpt>
      <trkpt lat="14.41678" lon="-60.88883">
        <ele>11</ele>
        <time>2016-06-05T13:48:43.904Z</time>
      </trkpt>
      <trkpt lat="14.41679" lon="-60.88885">
        <ele>11</ele>
        <time>2016-06-05T13:48:44.904Z</time>
      </trkpt>
      <trkpt lat="14.4168" lon="-60.88888">
        <ele>12</ele>
        <time>2016-06-05T13:48:45.904Z</time>
      </trkpt>
      <trkpt lat="14.41681" lon="-60.88889">
        <ele>12</ele>
        <time>2016-06-05T13:48:46.902Z</time>
      </trkpt>
      <trkpt lat="14.41683" lon="-60.88891">
        <ele>13</ele>
        <time>2016-06-05T13:48:47.906Z</time>
      </trkpt>
      <trkpt lat="14.41685" lon="-60.88893">
        <ele>13</ele>
        <time>2016-06-05T13:48:48.902Z</time>
      </trkpt>
      <trkpt lat="14.41686" lon="-60.88896">
        <ele>13</ele>
        <time>2016-06-05T13:48:49.904Z</time>
      </trkpt>
      <trkpt lat="14.41687" lon="-60.889">
        <ele>13</ele>
        <time>2016-06-05T13:48:50.903Z</time>
      </trkpt>
      <trkpt lat="14.41688" lon="-60.88902">
        <ele>11</ele>
        <time>2016-06-05T13:48:51.902Z</time>
      </trkpt>
      <trkpt lat="14.4169" lon="-60.88906">
        <ele>12</ele>
        <time>2016-06-05T13:48:52.902Z</time>
      </trkpt>
      <trkpt lat="14.4169" lon="-60.88908">
        <ele>10</ele>
        <time>2016-06-05T13:48:53.904Z</time>
      </trkpt>
      <trkpt lat="14.41692" lon="-60.88909">
        <ele>9</ele>
        <time>2016-06-05T13:48:54.906Z</time>
      </trkpt>
      <trkpt lat="14.41692" lon="-60.88911">
        <ele>10</ele>
        <time>2016-06-05T13:48:55.904Z</time>
      </trkpt>
      <trkpt lat="14.41693" lon="-60.88913">
        <ele>9</ele>
        <time>2016-06-05T13:48:56.905Z</time>
      </trkpt>
      <trkpt lat="14.41693" lon="-60.88918">
        <ele>9</ele>
        <time>2016-06-05T13:48:57.909Z</time>
      </trkpt>
      <trkpt lat="14.41693" lon="-60.88921">
        <ele>9</ele>
        <time>2016-06-05T13:48:58.909Z</time>
      </trkpt>
      <trkpt lat="14.41693" lon="-60.88924">
        <ele>10</ele>
        <time>2016-06-05T13:48:59.908Z</time>
      </trkpt>
      <trkpt lat="14.41694" lon="-60.88926">
        <ele>10</ele>
        <time>2016-06-05T13:49:00.908Z</time>
      </trkpt>
      <trkpt lat="14.41694" lon="-60.88929">
        <ele>11</ele>
        <time>2016-06-05T13:49:01.908Z</time>
      </trkpt>
      <trkpt lat="14.41696" lon="-60.8893">
        <ele>11</ele>
        <time>2016-06-05T13:49:02.903Z</time>
      </trkpt>
      <trkpt lat="14.41697" lon="-60.88932">
        <ele>11</ele>
        <time>2016-06-05T13:49:03.907Z</time>
      </trkpt>
      <trkpt lat="14.41697" lon="-60.88934">
        <ele>11</ele>
        <time>2016-06-05T13:49:04.909Z</time>
      </trkpt>
      <trkpt lat="14.41698" lon="-60.88936">
        <ele>10</ele>
        <time>2016-06-05T13:49:05.906Z</time>
      </trkpt>
      <trkpt lat="14.417" lon="-60.88939">
        <ele>11</ele>
        <time>2016-06-05T13:49:06.901Z</time>
      </trkpt>
      <trkpt lat="14.41701" lon="-60.88943">
        <ele>10</ele>
        <time>2016-06-05T13:49:07.902Z</time>
      </trkpt>
      <trkpt lat="14.417" lon="-60.88945">
        <ele>12</ele>
        <time>2016-06-05T13:49:08.905Z</time>
      </trkpt>
      <trkpt lat="14.41701" lon="-60.88947">
        <ele>12</ele>
        <time>2016-06-05T13:49:09.904Z</time>
      </trkpt>
      <trkpt lat="14.41701" lon="-60.88951">
        <ele>11</ele>
        <time>2016-06-05T13:49:10.905Z</time>
      </trkpt>
      <trkpt lat="14.41702" lon="-60.88953">
        <ele>9</ele>
        <time>2016-06-05T13:49:11.906Z</time>
      </trkpt>
      <trkpt lat="14.41701" lon="-60.88955">
        <ele>9</ele>
        <time>2016-06-05T13:49:12.907Z</time>
      </trkpt>
      <trkpt lat="14.41702" lon="-60.88958">
        <ele>9</ele>
        <time>2016-06-05T13:49:13.905Z</time>
      </trkpt>
      <trkpt lat="14.41702" lon="-60.88961">
        <ele>9</ele>
        <time>2016-06-05T13:49:14.905Z</time>
      </trkpt>
      <trkpt lat="14.41702" lon="-60.88963">
        <ele>7</ele>
        <time>2016-06-05T13:49:15.904Z</time>
      </trkpt>
      <trkpt lat="14.41705" lon="-60.88965">
        <ele>5</ele>
        <time>2016-06-05T13:49:16.904Z</time>
      </trkpt>
      <trkpt lat="14.41706" lon="-60.88967">
        <ele>6</ele>
        <time>2016-06-05T13:49:17.907Z</time>
      </trkpt>
      <trkpt lat="14.41707" lon="-60.88969">
        <ele>7</ele>
        <time>2016-06-05T13:49:18.907Z</time>
      </trkpt>
      <trkpt lat="14.41707" lon="-60.88972">
        <ele>7</ele>
        <time>2016-06-05T13:49:20.909Z</time>
      </trkpt>
      <trkpt lat="14.41708" lon="-60.88974">
        <ele>7</ele>
        <time>2016-06-05T13:49:21.909Z</time>
      </trkpt>
      <trkpt lat="14.41708" lon="-60.88977">
        <ele>7</ele>
        <time>2016-06-05T13:49:22.910Z</time>
      </trkpt>
      <trkpt lat="14.41709" lon="-60.8898">
        <ele>8</ele>
        <time>2016-06-05T13:49:24.911Z</time>
      </trkpt>
      <trkpt lat="14.41709" lon="-60.88982">
        <ele>10</ele>
        <time>2016-06-05T13:49:25.910Z</time>
      </trkpt>
      <trkpt lat="14.4171" lon="-60.88983">
        <ele>10</ele>
        <time>2016-06-05T13:49:26.908Z</time>
      </trkpt>
      <trkpt lat="14.41711" lon="-60.88985">
        <ele>10</ele>
        <time>2016-06-05T13:49:27.914Z</time>
      </trkpt>
      <trkpt lat="14.41713" lon="-60.88986">
        <ele>9</ele>
        <time>2016-06-05T13:49:28.915Z</time>
      </trkpt>
      <trkpt lat="14.41715" lon="-60.88987">
        <ele>9</ele>
        <time>2016-06-05T13:49:29.904Z</time>
      </trkpt>
      <trkpt lat="14.41717" lon="-60.88989">
        <ele>11</ele>
        <time>2016-06-05T13:49:30.905Z</time>
      </trkpt>
      <trkpt lat="14.41718" lon="-60.8899">
        <ele>11</ele>
        <time>2016-06-05T13:49:31.906Z</time>
      </trkpt>
      <trkpt lat="14.41719" lon="-60.88991">
        <ele>11</ele>
        <time>2016-06-05T13:49:32.907Z</time>
      </trkpt>
      <trkpt lat="14.4172" lon="-60.88993">
        <ele>13</ele>
        <time>2016-06-05T13:49:33.911Z</time>
      </trkpt>
      <trkpt lat="14.41721" lon="-60.88994">
        <ele>13</ele>
        <time>2016-06-05T13:49:34.911Z</time>
      </trkpt>
      <trkpt lat="14.41722" lon="-60.88996">
        <ele>13</ele>
        <time>2016-06-05T13:49:35.913Z</time>
      </trkpt>
      <trkpt lat="14.41723" lon="-60.88998">
        <ele>13</ele>
        <time>2016-06-05T13:49:36.918Z</time>
      </trkpt>
      <trkpt lat="14.41725" lon="-60.89001">
        <ele>13</ele>
        <time>2016-06-05T13:49:37.911Z</time>
      </trkpt>
      <trkpt lat="14.41726" lon="-60.89004">
        <ele>13</ele>
        <time>2016-06-05T13:49:38.905Z</time>
      </trkpt>
      <trkpt lat="14.41728" lon="-60.89006">
        <ele>13</ele>
        <time>2016-06-05T13:49:39.906Z</time>
      </trkpt>
      <trkpt lat="14.4173" lon="-60.89008">
        <ele>13</ele>
        <time>2016-06-05T13:49:40.909Z</time>
      </trkpt>
      <trkpt lat="14.41731" lon="-60.89011">
        <ele>12</ele>
        <time>2016-06-05T13:49:41.908Z</time>
      </trkpt>
      <trkpt lat="14.41733" lon="-60.89013">
        <ele>11</ele>
        <time>2016-06-05T13:49:42.907Z</time>
      </trkpt>
      <trkpt lat="14.41735" lon="-60.89015">
        <ele>12</ele>
        <time>2016-06-05T13:49:43.906Z</time>
      </trkpt>
      <trkpt lat="14.41738" lon="-60.89015">
        <ele>12</ele>
        <time>2016-06-05T13:49:44.906Z</time>
      </trkpt>
      <trkpt lat="14.41741" lon="-60.89016">
        <ele>12</ele>
        <time>2016-06-05T13:49:45.905Z</time>
      </trkpt>
      <trkpt lat="14.41743" lon="-60.89018">
        <ele>12</ele>
        <time>2016-06-05T13:49:46.906Z</time>
      </trkpt>
      <trkpt lat="14.41746" lon="-60.89019">
        <ele>12</ele>
        <time>2016-06-05T13:49:47.906Z</time>
      </trkpt>
      <trkpt lat="14.41748" lon="-60.89021">
        <ele>11</ele>
        <time>2016-06-05T13:49:48.912Z</time>
      </trkpt>
      <trkpt lat="14.4175" lon="-60.89023">
        <ele>11</ele>
        <time>2016-06-05T13:49:49.909Z</time>
      </trkpt>
      <trkpt lat="14.41749" lon="-60.89027">
        <ele>13</ele>
        <time>2016-06-05T13:49:50.907Z</time>
      </trkpt>
      <trkpt lat="14.41749" lon="-60.89029">
        <ele>13</ele>
        <time>2016-06-05T13:49:51.907Z</time>
      </trkpt>
      <trkpt lat="14.41751" lon="-60.89031">
        <ele>14</ele>
        <time>2016-06-05T13:49:52.907Z</time>
      </trkpt>
      <trkpt lat="14.41752" lon="-60.89034">
        <ele>15</ele>
        <time>2016-06-05T13:49:53.908Z</time>
      </trkpt>
      <trkpt lat="14.41754" lon="-60.89037">
        <ele>14</ele>
        <time>2016-06-05T13:49:54.908Z</time>
      </trkpt>
      <trkpt lat="14.41755" lon="-60.89039">
        <ele>14</ele>
        <time>2016-06-05T13:49:55.910Z</time>
      </trkpt>
      <trkpt lat="14.41756" lon="-60.89042">
        <ele>13</ele>
        <time>2016-06-05T13:49:56.909Z</time>
      </trkpt>
      <trkpt lat="14.41757" lon="-60.89044">
        <ele>14</ele>
        <time>2016-06-05T13:49:57.907Z</time>
      </trkpt>
      <trkpt lat="14.41758" lon="-60.89047">
        <ele>14</ele>
        <time>2016-06-05T13:49:58.908Z</time>
      </trkpt>
      <trkpt lat="14.41758" lon="-60.89049">
        <ele>13</ele>
        <time>2016-06-05T13:49:59.907Z</time>
      </trkpt>
      <trkpt lat="14.41759" lon="-60.89052">
        <ele>13</ele>
        <time>2016-06-05T13:50:00.908Z</time>
      </trkpt>
      <trkpt lat="14.4176" lon="-60.89054">
        <ele>13</ele>
        <time>2016-06-05T13:50:01.906Z</time>
      </trkpt>
      <trkpt lat="14.41762" lon="-60.89057">
        <ele>13</ele>
        <time>2016-06-05T13:50:02.906Z</time>
      </trkpt>
      <trkpt lat="14.41763" lon="-60.89059">
        <ele>16</ele>
        <time>2016-06-05T13:50:03.906Z</time>
      </trkpt>
      <trkpt lat="14.41764" lon="-60.89061">
        <ele>15</ele>
        <time>2016-06-05T13:50:04.905Z</time>
      </trkpt>
      <trkpt lat="14.41765" lon="-60.89063">
        <ele>16</ele>
        <time>2016-06-05T13:50:05.909Z</time>
      </trkpt>
      <trkpt lat="14.41767" lon="-60.89066">
        <ele>16</ele>
        <time>2016-06-05T13:50:06.908Z</time>
      </trkpt>
      <trkpt lat="14.41769" lon="-60.89067">
        <ele>17</ele>
        <time>2016-06-05T13:50:07.907Z</time>
      </trkpt>
      <trkpt lat="14.41771" lon="-60.89069">
        <ele>17</ele>
        <time>2016-06-05T13:50:08.907Z</time>
      </trkpt>
      <trkpt lat="14.41773" lon="-60.89069">
        <ele>16</ele>
        <time>2016-06-05T13:50:09.906Z</time>
      </trkpt>
      <trkpt lat="14.41775" lon="-60.8907">
        <ele>16</ele>
        <time>2016-06-05T13:50:10.906Z</time>
      </trkpt>
      <trkpt lat="14.41776" lon="-60.89072">
        <ele>17</ele>
        <time>2016-06-05T13:50:11.908Z</time>
      </trkpt>
      <trkpt lat="14.41776" lon="-60.89075">
        <ele>18</ele>
        <time>2016-06-05T13:50:12.909Z</time>
      </trkpt>
      <trkpt lat="14.41778" lon="-60.89076">
        <ele>18</ele>
        <time>2016-06-05T13:50:13.907Z</time>
      </trkpt>
      <trkpt lat="14.41778" lon="-60.89077">
        <ele>18</ele>
        <time>2016-06-05T13:50:14.907Z</time>
      </trkpt>
      <trkpt lat="14.41778" lon="-60.8908">
        <ele>19</ele>
        <time>2016-06-05T13:50:15.907Z</time>
      </trkpt>
      <trkpt lat="14.41778" lon="-60.89082">
        <ele>19</ele>
        <time>2016-06-05T13:50:16.909Z</time>
      </trkpt>
      <trkpt lat="14.41778" lon="-60.89084">
        <ele>17</ele>
        <time>2016-06-05T13:50:17.908Z</time>
      </trkpt>
      <trkpt lat="14.41778" lon="-60.89087">
        <ele>17</ele>
        <time>2016-06-05T13:50:19.906Z</time>
      </trkpt>
      <trkpt lat="14.41779" lon="-60.89089">
        <ele>15</ele>
        <time>2016-06-05T13:50:20.908Z</time>
      </trkpt>
      <trkpt lat="14.4178" lon="-60.89092">
        <ele>14</ele>
        <time>2016-06-05T13:50:21.908Z</time>
      </trkpt>
      <trkpt lat="14.4178" lon="-60.89095">
        <ele>15</ele>
        <time>2016-06-05T13:50:22.909Z</time>
      </trkpt>
      <trkpt lat="14.41782" lon="-60.89098">
        <ele>16</ele>
        <time>2016-06-05T13:50:23.908Z</time>
      </trkpt>
      <trkpt lat="14.41783" lon="-60.891">
        <ele>15</ele>
        <time>2016-06-05T13:50:24.909Z</time>
      </trkpt>
      <trkpt lat="14.41786" lon="-60.89102">
        <ele>14</ele>
        <time>2016-06-05T13:50:25.908Z</time>
      </trkpt>
      <trkpt lat="14.41788" lon="-60.89105">
        <ele>13</ele>
        <time>2016-06-05T13:50:26.910Z</time>
      </trkpt>
      <trkpt lat="14.4179" lon="-60.89107">
        <ele>13</ele>
        <time>2016-06-05T13:50:27.909Z</time>
      </trkpt>
      <trkpt lat="14.41793" lon="-60.8911">
        <ele>12</ele>
        <time>2016-06-05T13:50:28.904Z</time>
      </trkpt>
      <trkpt lat="14.41795" lon="-60.89113">
        <ele>13</ele>
        <time>2016-06-05T13:50:29.901Z</time>
      </trkpt>
      <trkpt lat="14.41797" lon="-60.89116">
        <ele>14</ele>
        <time>2016-06-05T13:50:30.906Z</time>
      </trkpt>
      <trkpt lat="14.41798" lon="-60.89118">
        <ele>14</ele>
        <time>2016-06-05T13:50:31.906Z</time>
      </trkpt>
      <trkpt lat="14.41801" lon="-60.8912">
        <ele>15</ele>
        <time>2016-06-05T13:50:32.908Z</time>
      </trkpt>
      <trkpt lat="14.41803" lon="-60.89122">
        <ele>16</ele>
        <time>2016-06-05T13:50:33.906Z</time>
      </trkpt>
      <trkpt lat="14.41805" lon="-60.89123">
        <ele>14</ele>
        <time>2016-06-05T13:50:34.906Z</time>
      </trkpt>
      <trkpt lat="14.41807" lon="-60.89125">
        <ele>15</ele>
        <time>2016-06-05T13:50:35.905Z</time>
      </trkpt>
      <trkpt lat="14.41808" lon="-60.89128">
        <ele>15</ele>
        <time>2016-06-05T13:50:36.904Z</time>
      </trkpt>
      <trkpt lat="14.41811" lon="-60.89129">
        <ele>14</ele>
        <time>2016-06-05T13:50:37.904Z</time>
      </trkpt>
      <trkpt lat="14.41813" lon="-60.89132">
        <ele>13</ele>
        <time>2016-06-05T13:50:38.909Z</time>
      </trkpt>
      <trkpt lat="14.41815" lon="-60.89134">
        <ele>14</ele>
        <time>2016-06-05T13:50:39.907Z</time>
      </trkpt>
      <trkpt lat="14.41816" lon="-60.89136">
        <ele>14</ele>
        <time>2016-06-05T13:50:40.902Z</time>
      </trkpt>
      <trkpt lat="14.41818" lon="-60.89138">
        <ele>15</ele>
        <time>2016-06-05T13:50:41.903Z</time>
      </trkpt>
      <trkpt lat="14.4182" lon="-60.8914">
        <ele>15</ele>
        <time>2016-06-05T13:50:42.905Z</time>
      </trkpt>
      <trkpt lat="14.41823" lon="-60.89141">
        <ele>15</ele>
        <time>2016-06-05T13:50:43.906Z</time>
      </trkpt>
      <trkpt lat="14.41825" lon="-60.89143">
        <ele>13</ele>
        <time>2016-06-05T13:50:44.906Z</time>
      </trkpt>
      <trkpt lat="14.41828" lon="-60.89146">
        <ele>13</ele>
        <time>2016-06-05T13:50:45.906Z</time>
      </trkpt>
      <trkpt lat="14.41829" lon="-60.89148">
        <ele>13</ele>
        <time>2016-06-05T13:50:46.905Z</time>
      </trkpt>
      <trkpt lat="14.4183" lon="-60.8915">
        <ele>13</ele>
        <time>2016-06-05T13:50:47.906Z</time>
      </trkpt>
      <trkpt lat="14.41834" lon="-60.89153">
        <ele>13</ele>
        <time>2016-06-05T13:50:48.903Z</time>
      </trkpt>
      <trkpt lat="14.41837" lon="-60.89154">
        <ele>12</ele>
        <time>2016-06-05T13:50:49.904Z</time>
      </trkpt>
      <trkpt lat="14.41838" lon="-60.89156">
        <ele>12</ele>
        <time>2016-06-05T13:50:50.905Z</time>
      </trkpt>
      <trkpt lat="14.41841" lon="-60.89158">
        <ele>13</ele>
        <time>2016-06-05T13:50:51.907Z</time>
      </trkpt>
      <trkpt lat="14.41844" lon="-60.89159">
        <ele>14</ele>
        <time>2016-06-05T13:50:52.905Z</time>
      </trkpt>
      <trkpt lat="14.41847" lon="-60.89163">
        <ele>15</ele>
        <time>2016-06-05T13:50:53.905Z</time>
      </trkpt>
      <trkpt lat="14.41849" lon="-60.89165">
        <ele>14</ele>
        <time>2016-06-05T13:50:54.903Z</time>
      </trkpt>
      <trkpt lat="14.41851" lon="-60.89167">
        <ele>14</ele>
        <time>2016-06-05T13:50:55.903Z</time>
      </trkpt>
      <trkpt lat="14.41853" lon="-60.89168">
        <ele>13</ele>
        <time>2016-06-05T13:50:56.901Z</time>
      </trkpt>
      <trkpt lat="14.41856" lon="-60.8917">
        <ele>12</ele>
        <time>2016-06-05T13:50:57.902Z</time>
      </trkpt>
      <trkpt lat="14.41858" lon="-60.89172">
        <ele>12</ele>
        <time>2016-06-05T13:50:58.904Z</time>
      </trkpt>
      <trkpt lat="14.41861" lon="-60.89172">
        <ele>12</ele>
        <time>2016-06-05T13:50:59.903Z</time>
      </trkpt>
      <trkpt lat="14.41863" lon="-60.89174">
        <ele>12</ele>
        <time>2016-06-05T13:51:00.905Z</time>
      </trkpt>
      <trkpt lat="14.41864" lon="-60.89177">
        <ele>13</ele>
        <time>2016-06-05T13:51:01.906Z</time>
      </trkpt>
      <trkpt lat="14.41865" lon="-60.8918">
        <ele>12</ele>
        <time>2016-06-05T13:51:02.906Z</time>
      </trkpt>
      <trkpt lat="14.41867" lon="-60.89182">
        <ele>13</ele>
        <time>2016-06-05T13:51:03.904Z</time>
      </trkpt>
      <trkpt lat="14.41868" lon="-60.89184">
        <ele>12</ele>
        <time>2016-06-05T13:51:04.903Z</time>
      </trkpt>
      <trkpt lat="14.41868" lon="-60.89187">
        <ele>13</ele>
        <time>2016-06-05T13:51:05.903Z</time>
      </trkpt>
      <trkpt lat="14.41869" lon="-60.89188">
        <ele>14</ele>
        <time>2016-06-05T13:51:06.902Z</time>
      </trkpt>
      <trkpt lat="14.4187" lon="-60.8919">
        <ele>13</ele>
        <time>2016-06-05T13:51:07.904Z</time>
      </trkpt>
      <trkpt lat="14.41872" lon="-60.8919">
        <ele>13</ele>
        <time>2016-06-05T13:51:08.905Z</time>
      </trkpt>
      <trkpt lat="14.41874" lon="-60.8919">
        <ele>12</ele>
        <time>2016-06-05T13:51:09.903Z</time>
      </trkpt>
      <trkpt lat="14.41875" lon="-60.89191">
        <ele>12</ele>
        <time>2016-06-05T13:51:10.904Z</time>
      </trkpt>
      <trkpt lat="14.41877" lon="-60.89191">
        <ele>10</ele>
        <time>2016-06-05T13:51:11.905Z</time>
      </trkpt>
      <trkpt lat="14.41879" lon="-60.89191">
        <ele>9</ele>
        <time>2016-06-05T13:51:12.902Z</time>
      </trkpt>
      <trkpt lat="14.41881" lon="-60.89192">
        <ele>11</ele>
        <time>2016-06-05T13:51:14.908Z</time>
      </trkpt>
      <trkpt lat="14.41882" lon="-60.89193">
        <ele>12</ele>
        <time>2016-06-05T13:51:15.907Z</time>
      </trkpt>
      <trkpt lat="14.41885" lon="-60.89193">
        <ele>10</ele>
        <time>2016-06-05T13:51:16.904Z</time>
      </trkpt>
      <trkpt lat="14.41887" lon="-60.89193">
        <ele>11</ele>
        <time>2016-06-05T13:51:17.906Z</time>
      </trkpt>
      <trkpt lat="14.41888" lon="-60.89194">
        <ele>12</ele>
        <time>2016-06-05T13:51:18.905Z</time>
      </trkpt>
      <trkpt lat="14.41891" lon="-60.89194">
        <ele>12</ele>
        <time>2016-06-05T13:51:20.903Z</time>
      </trkpt>
      <trkpt lat="14.41895" lon="-60.89199">
        <ele>14</ele>
        <time>2016-06-05T13:51:39.904Z</time>
      </trkpt>
      <trkpt lat="14.41898" lon="-60.892">
        <ele>14</ele>
        <time>2016-06-05T13:51:41.903Z</time>
      </trkpt>
      <trkpt lat="14.41899" lon="-60.89201">
        <ele>12</ele>
        <time>2016-06-05T13:51:42.903Z</time>
      </trkpt>
      <trkpt lat="14.41901" lon="-60.89202">
        <ele>13</ele>
        <time>2016-06-05T13:51:44.901Z</time>
      </trkpt>
      <trkpt lat="14.41906" lon="-60.89206">
        <ele>17</ele>
        <time>2016-06-05T13:51:50.907Z</time>
      </trkpt>
      <trkpt lat="14.41908" lon="-60.89206">
        <ele>17</ele>
        <time>2016-06-05T13:51:51.903Z</time>
      </trkpt>
      <trkpt lat="14.41909" lon="-60.89207">
        <ele>18</ele>
        <time>2016-06-05T13:51:53.905Z</time>
      </trkpt>
      <trkpt lat="14.41911" lon="-60.89212">
        <ele>19</ele>
        <time>2016-06-05T13:51:56.904Z</time>
      </trkpt>
      <trkpt lat="14.41915" lon="-60.89214">
        <ele>21</ele>
        <time>2016-06-05T13:52:00.907Z</time>
      </trkpt>
      <trkpt lat="14.41917" lon="-60.89214">
        <ele>21</ele>
        <time>2016-06-05T13:52:01.906Z</time>
      </trkpt>
      <trkpt lat="14.41921" lon="-60.89217">
        <ele>28</ele>
        <time>2016-06-05T13:52:07.904Z</time>
      </trkpt>
      <trkpt lat="14.41929" lon="-60.89225">
        <ele>26</ele>
        <time>2016-06-05T13:52:20.905Z</time>
      </trkpt>
      <trkpt lat="14.41933" lon="-60.89229">
        <ele>29</ele>
        <time>2016-06-05T13:52:31.904Z</time>
      </trkpt>
      <trkpt lat="14.41935" lon="-60.89233">
        <ele>29</ele>
        <time>2016-06-05T13:52:36.905Z</time>
      </trkpt>
      <trkpt lat="14.41941" lon="-60.89241">
        <ele>33</ele>
        <time>2016-06-05T13:52:46.904Z</time>
      </trkpt>
      <trkpt lat="14.41943" lon="-60.89242">
        <ele>33</ele>
        <time>2016-06-05T13:52:49.907Z</time>
      </trkpt>
      <trkpt lat="14.41948" lon="-60.89249">
        <ele>31</ele>
        <time>2016-06-05T13:53:00.906Z</time>
      </trkpt>
      <trkpt lat="14.41955" lon="-60.89254">
        <ele>32</ele>
        <time>2016-06-05T13:53:19.905Z</time>
      </trkpt>
      <trkpt lat="14.41956" lon="-60.89256">
        <ele>33</ele>
        <time>2016-06-05T13:53:20.905Z</time>
      </trkpt>
      <trkpt lat="14.41958" lon="-60.89258">
        <ele>33</ele>
        <time>2016-06-05T13:53:22.905Z</time>
      </trkpt>
      <trkpt lat="14.41959" lon="-60.89259">
        <ele>32</ele>
        <time>2016-06-05T13:53:24.904Z</time>
      </trkpt>
      <trkpt lat="14.41961" lon="-60.89261">
        <ele>32</ele>
        <time>2016-06-05T13:53:26.904Z</time>
      </trkpt>
      <trkpt lat="14.41965" lon="-60.89262">
        <ele>30</ele>
        <time>2016-06-05T13:53:29.906Z</time>
      </trkpt>
      <trkpt lat="14.41968" lon="-60.8926">
        <ele>29</ele>
        <time>2016-06-05T13:53:31.906Z</time>
      </trkpt>
      <trkpt lat="14.4197" lon="-60.8926">
        <ele>29</ele>
        <time>2016-06-05T13:53:32.907Z</time>
      </trkpt>
      <trkpt lat="14.41972" lon="-60.89261">
        <ele>30</ele>
        <time>2016-06-05T13:53:33.907Z</time>
      </trkpt>
      <trkpt lat="14.41975" lon="-60.89261">
        <ele>31</ele>
        <time>2016-06-05T13:53:34.906Z</time>
      </trkpt>
      <trkpt lat="14.41977" lon="-60.89261">
        <ele>31</ele>
        <time>2016-06-05T13:53:35.910Z</time>
      </trkpt>
      <trkpt lat="14.4198" lon="-60.8926">
        <ele>29</ele>
        <time>2016-06-05T13:53:36.908Z</time>
      </trkpt>
      <trkpt lat="14.41982" lon="-60.8926">
        <ele>31</ele>
        <time>2016-06-05T13:53:37.904Z</time>
      </trkpt>
      <trkpt lat="14.41983" lon="-60.89261">
        <ele>32</ele>
        <time>2016-06-05T13:53:38.909Z</time>
      </trkpt>
      <trkpt lat="14.41987" lon="-60.89262">
        <ele>32</ele>
        <time>2016-06-05T13:53:40.902Z</time>
      </trkpt>
      <trkpt lat="14.4199" lon="-60.89263">
        <ele>30</ele>
        <time>2016-06-05T13:53:42.905Z</time>
      </trkpt>
      <trkpt lat="14.41992" lon="-60.89265">
        <ele>29</ele>
        <time>2016-06-05T13:53:43.907Z</time>
      </trkpt>
      <trkpt lat="14.41994" lon="-60.89264">
        <ele>29</ele>
        <time>2016-06-05T13:53:44.907Z</time>
      </trkpt>
      <trkpt lat="14.41996" lon="-60.89264">
        <ele>29</ele>
        <time>2016-06-05T13:53:45.904Z</time>
      </trkpt>
      <trkpt lat="14.41997" lon="-60.89264">
        <ele>29</ele>
        <time>2016-06-05T13:53:46.906Z</time>
      </trkpt>
      <trkpt lat="14.42" lon="-60.89264">
        <ele>31</ele>
        <time>2016-06-05T13:53:48.903Z</time>
      </trkpt>
      <trkpt lat="14.42001" lon="-60.89264">
        <ele>29</ele>
        <time>2016-06-05T13:53:49.906Z</time>
      </trkpt>
      <trkpt lat="14.42003" lon="-60.89264">
        <ele>29</ele>
        <time>2016-06-05T13:53:50.901Z</time>
      </trkpt>
      <trkpt lat="14.42006" lon="-60.89265">
        <ele>30</ele>
        <time>2016-06-05T13:53:52.909Z</time>
      </trkpt>
      <trkpt lat="14.42007" lon="-60.89266">
        <ele>30</ele>
        <time>2016-06-05T13:53:53.909Z</time>
      </trkpt>
      <trkpt lat="14.42009" lon="-60.89266">
        <ele>30</ele>
        <time>2016-06-05T13:53:54.904Z</time>
      </trkpt>
      <trkpt lat="14.42012" lon="-60.89265">
        <ele>30</ele>
        <time>2016-06-05T13:53:56.906Z</time>
      </trkpt>
      <trkpt lat="14.42015" lon="-60.89266">
        <ele>30</ele>
        <time>2016-06-05T13:53:58.911Z</time>
      </trkpt>
      <trkpt lat="14.42018" lon="-60.89266">
        <ele>29</ele>
        <time>2016-06-05T13:53:59.908Z</time>
      </trkpt>
      <trkpt lat="14.42023" lon="-60.89265">
        <ele>29</ele>
        <time>2016-06-05T13:54:01.905Z</time>
      </trkpt>
      <trkpt lat="14.42024" lon="-60.89267">
        <ele>30</ele>
        <time>2016-06-05T13:54:02.909Z</time>
      </trkpt>
      <trkpt lat="14.42026" lon="-60.89267">
        <ele>31</ele>
        <time>2016-06-05T13:54:03.905Z</time>
      </trkpt>
      <trkpt lat="14.42028" lon="-60.89267">
        <ele>31</ele>
        <time>2016-06-05T13:54:04.904Z</time>
      </trkpt>
      <trkpt lat="14.42032" lon="-60.89267">
        <ele>30</ele>
        <time>2016-06-05T13:54:05.901Z</time>
      </trkpt>
      <trkpt lat="14.42034" lon="-60.89265">
        <ele>29</ele>
        <time>2016-06-05T13:54:06.900Z</time>
      </trkpt>
      <trkpt lat="14.42035" lon="-60.89263">
        <ele>28</ele>
        <time>2016-06-05T13:54:07.903Z</time>
      </trkpt>
      <trkpt lat="14.42038" lon="-60.89264">
        <ele>27</ele>
        <time>2016-06-05T13:54:08.902Z</time>
      </trkpt>
      <trkpt lat="14.42042" lon="-60.89263">
        <ele>26</ele>
        <time>2016-06-05T13:54:09.903Z</time>
      </trkpt>
      <trkpt lat="14.42045" lon="-60.89262">
        <ele>26</ele>
        <time>2016-06-05T13:54:10.903Z</time>
      </trkpt>
      <trkpt lat="14.42046" lon="-60.8926">
        <ele>24</ele>
        <time>2016-06-05T13:54:11.904Z</time>
      </trkpt>
      <trkpt lat="14.42047" lon="-60.89259">
        <ele>24</ele>
        <time>2016-06-05T13:54:12.902Z</time>
      </trkpt>
      <trkpt lat="14.42053" lon="-60.89256">
        <ele>22</ele>
        <time>2016-06-05T13:54:16.907Z</time>
      </trkpt>
      <trkpt lat="14.42056" lon="-60.89254">
        <ele>22</ele>
        <time>2016-06-05T13:54:17.906Z</time>
      </trkpt>
      <trkpt lat="14.42057" lon="-60.89252">
        <ele>24</ele>
        <time>2016-06-05T13:54:18.908Z</time>
      </trkpt>
      <trkpt lat="14.4206" lon="-60.89252">
        <ele>23</ele>
        <time>2016-06-05T13:54:19.906Z</time>
      </trkpt>
      <trkpt lat="14.42064" lon="-60.89253">
        <ele>23</ele>
        <time>2016-06-05T13:54:20.905Z</time>
      </trkpt>
      <trkpt lat="14.42068" lon="-60.89251">
        <ele>22</ele>
        <time>2016-06-05T13:54:21.905Z</time>
      </trkpt>
      <trkpt lat="14.4207" lon="-60.89249">
        <ele>23</ele>
        <time>2016-06-05T13:54:22.907Z</time>
      </trkpt>
      <trkpt lat="14.42071" lon="-60.89246">
        <ele>23</ele>
        <time>2016-06-05T13:54:23.904Z</time>
      </trkpt>
      <trkpt lat="14.42072" lon="-60.89243">
        <ele>24</ele>
        <time>2016-06-05T13:54:24.907Z</time>
      </trkpt>
      <trkpt lat="14.42072" lon="-60.89241">
        <ele>23</ele>
        <time>2016-06-05T13:54:25.905Z</time>
      </trkpt>
      <trkpt lat="14.42072" lon="-60.89239">
        <ele>24</ele>
        <time>2016-06-05T13:54:26.906Z</time>
      </trkpt>
      <trkpt lat="14.42073" lon="-60.89237">
        <ele>24</ele>
        <time>2016-06-05T13:54:27.907Z</time>
      </trkpt>
      <trkpt lat="14.42073" lon="-60.89235">
        <ele>23</ele>
        <time>2016-06-05T13:54:28.906Z</time>
      </trkpt>
      <trkpt lat="14.42074" lon="-60.89234">
        <ele>24</ele>
        <time>2016-06-05T13:54:29.906Z</time>
      </trkpt>
      <trkpt lat="14.42075" lon="-60.89233">
        <ele>23</ele>
        <time>2016-06-05T13:54:30.909Z</time>
      </trkpt>
      <trkpt lat="14.42076" lon="-60.89231">
        <ele>23</ele>
        <time>2016-06-05T13:54:31.906Z</time>
      </trkpt>
      <trkpt lat="14.42077" lon="-60.89229">
        <ele>23</ele>
        <time>2016-06-05T13:54:32.909Z</time>
      </trkpt>
      <trkpt lat="14.42077" lon="-60.89227">
        <ele>23</ele>
        <time>2016-06-05T13:54:33.905Z</time>
      </trkpt>
      <trkpt lat="14.42078" lon="-60.89226">
        <ele>23</ele>
        <time>2016-06-05T13:54:34.904Z</time>
      </trkpt>
      <trkpt lat="14.42078" lon="-60.89224">
        <ele>23</ele>
        <time>2016-06-05T13:54:35.909Z</time>
      </trkpt>
      <trkpt lat="14.42078" lon="-60.89222">
        <ele>23</ele>
        <time>2016-06-05T13:54:36.905Z</time>
      </trkpt>
      <trkpt lat="14.42078" lon="-60.89217">
        <ele>26</ele>
        <time>2016-06-05T13:54:38.904Z</time>
      </trkpt>
      <trkpt lat="14.42077" lon="-60.89216">
        <ele>27</ele>
        <time>2016-06-05T13:54:39.906Z</time>
      </trkpt>
      <trkpt lat="14.42077" lon="-60.89214">
        <ele>27</ele>
        <time>2016-06-05T13:54:40.906Z</time>
      </trkpt>
      <trkpt lat="14.42078" lon="-60.89211">
        <ele>29</ele>
        <time>2016-06-05T13:54:41.911Z</time>
      </trkpt>
      <trkpt lat="14.42078" lon="-60.8921">
        <ele>29</ele>
        <time>2016-06-05T13:54:42.910Z</time>
      </trkpt>
      <trkpt lat="14.42076" lon="-60.89208">
        <ele>29</ele>
        <time>2016-06-05T13:54:43.906Z</time>
      </trkpt>
      <trkpt lat="14.42076" lon="-60.89205">
        <ele>29</ele>
        <time>2016-06-05T13:54:44.906Z</time>
      </trkpt>
      <trkpt lat="14.42076" lon="-60.89203">
        <ele>28</ele>
        <time>2016-06-05T13:54:45.907Z</time>
      </trkpt>
      <trkpt lat="14.42077" lon="-60.89201">
        <ele>25</ele>
        <time>2016-06-05T13:54:46.904Z</time>
      </trkpt>
      <trkpt lat="14.42077" lon="-60.892">
        <ele>25</ele>
        <time>2016-06-05T13:54:47.904Z</time>
      </trkpt>
      <trkpt lat="14.42077" lon="-60.89196">
        <ele>22</ele>
        <time>2016-06-05T13:54:49.907Z</time>
      </trkpt>
      <trkpt lat="14.42076" lon="-60.89193">
        <ele>22</ele>
        <time>2016-06-05T13:54:50.914Z</time>
      </trkpt>
      <trkpt lat="14.42076" lon="-60.89191">
        <ele>21</ele>
        <time>2016-06-05T13:54:51.908Z</time>
      </trkpt>
      <trkpt lat="14.42076" lon="-60.89188">
        <ele>20</ele>
        <time>2016-06-05T13:54:52.907Z</time>
      </trkpt>
      <trkpt lat="14.42076" lon="-60.89185">
        <ele>20</ele>
        <time>2016-06-05T13:54:53.907Z</time>
      </trkpt>
      <trkpt lat="14.42077" lon="-60.89182">
        <ele>19</ele>
        <time>2016-06-05T13:54:54.904Z</time>
      </trkpt>
      <trkpt lat="14.42078" lon="-60.89178">
        <ele>20</ele>
        <time>2016-06-05T13:54:55.904Z</time>
      </trkpt>
      <trkpt lat="14.42078" lon="-60.89175">
        <ele>22</ele>
        <time>2016-06-05T13:54:56.906Z</time>
      </trkpt>
      <trkpt lat="14.42076" lon="-60.89171">
        <ele>22</ele>
        <time>2016-06-05T13:54:57.909Z</time>
      </trkpt>
      <trkpt lat="14.42076" lon="-60.89167">
        <ele>23</ele>
        <time>2016-06-05T13:54:58.908Z</time>
      </trkpt>
      <trkpt lat="14.42077" lon="-60.89164">
        <ele>24</ele>
        <time>2016-06-05T13:54:59.907Z</time>
      </trkpt>
      <trkpt lat="14.42075" lon="-60.8916">
        <ele>24</ele>
        <time>2016-06-05T13:55:00.909Z</time>
      </trkpt>
      <trkpt lat="14.42075" lon="-60.89157">
        <ele>24</ele>
        <time>2016-06-05T13:55:01.906Z</time>
      </trkpt>
      <trkpt lat="14.42076" lon="-60.89155">
        <ele>23</ele>
        <time>2016-06-05T13:55:02.906Z</time>
      </trkpt>
      <trkpt lat="14.42077" lon="-60.89154">
        <ele>22</ele>
        <time>2016-06-05T13:55:03.909Z</time>
      </trkpt>
      <trkpt lat="14.4208" lon="-60.89152">
        <ele>22</ele>
        <time>2016-06-05T13:55:04.912Z</time>
      </trkpt>
      <trkpt lat="14.42081" lon="-60.8915">
        <ele>21</ele>
        <time>2016-06-05T13:55:05.913Z</time>
      </trkpt>
      <trkpt lat="14.42084" lon="-60.89149">
        <ele>21</ele>
        <time>2016-06-05T13:55:06.914Z</time>
      </trkpt>
      <trkpt lat="14.42086" lon="-60.89148">
        <ele>21</ele>
        <time>2016-06-05T13:55:07.909Z</time>
      </trkpt>
      <trkpt lat="14.42089" lon="-60.89144">
        <ele>21</ele>
        <time>2016-06-05T13:55:08.909Z</time>
      </trkpt>
      <trkpt lat="14.42089" lon="-60.89141">
        <ele>21</ele>
        <time>2016-06-05T13:55:09.910Z</time>
      </trkpt>
      <trkpt lat="14.4209" lon="-60.89139">
        <ele>21</ele>
        <time>2016-06-05T13:55:10.907Z</time>
      </trkpt>
      <trkpt lat="14.42093" lon="-60.89138">
        <ele>22</ele>
        <time>2016-06-05T13:55:11.902Z</time>
      </trkpt>
      <trkpt lat="14.42097" lon="-60.89134">
        <ele>19</ele>
        <time>2016-06-05T13:55:12.906Z</time>
      </trkpt>
      <trkpt lat="14.42099" lon="-60.89131">
        <ele>17</ele>
        <time>2016-06-05T13:55:13.907Z</time>
      </trkpt>
      <trkpt lat="14.421" lon="-60.89129">
        <ele>17</ele>
        <time>2016-06-05T13:55:14.907Z</time>
      </trkpt>
      <trkpt lat="14.42101" lon="-60.89127">
        <ele>18</ele>
        <time>2016-06-05T13:55:15.907Z</time>
      </trkpt>
      <trkpt lat="14.42102" lon="-60.89125">
        <ele>16</ele>
        <time>2016-06-05T13:55:16.906Z</time>
      </trkpt>
      <trkpt lat="14.42105" lon="-60.89122">
        <ele>15</ele>
        <time>2016-06-05T13:55:18.915Z</time>
      </trkpt>
      <trkpt lat="14.42106" lon="-60.8912">
        <ele>15</ele>
        <time>2016-06-05T13:55:19.914Z</time>
      </trkpt>
      <trkpt lat="14.42109" lon="-60.89117">
        <ele>14</ele>
        <time>2016-06-05T13:55:20.914Z</time>
      </trkpt>
      <trkpt lat="14.4211" lon="-60.89115">
        <ele>14</ele>
        <time>2016-06-05T13:55:21.911Z</time>
      </trkpt>
      <trkpt lat="14.42112" lon="-60.89111">
        <ele>16</ele>
        <time>2016-06-05T13:55:22.904Z</time>
      </trkpt>
      <trkpt lat="14.42111" lon="-60.89108">
        <ele>15</ele>
        <time>2016-06-05T13:55:23.904Z</time>
      </trkpt>
      <trkpt lat="14.42113" lon="-60.89105">
        <ele>15</ele>
        <time>2016-06-05T13:55:24.904Z</time>
      </trkpt>
      <trkpt lat="14.42114" lon="-60.89103">
        <ele>16</ele>
        <time>2016-06-05T13:55:25.906Z</time>
      </trkpt>
      <trkpt lat="14.42115" lon="-60.89101">
        <ele>15</ele>
        <time>2016-06-05T13:55:26.907Z</time>
      </trkpt>
      <trkpt lat="14.42117" lon="-60.891">
        <ele>15</ele>
        <time>2016-06-05T13:55:27.909Z</time>
      </trkpt>
      <trkpt lat="14.42119" lon="-60.89097">
        <ele>14</ele>
        <time>2016-06-05T13:55:28.907Z</time>
      </trkpt>
      <trkpt lat="14.42121" lon="-60.89095">
        <ele>13</ele>
        <time>2016-06-05T13:55:29.907Z</time>
      </trkpt>
      <trkpt lat="14.42123" lon="-60.89093">
        <ele>13</ele>
        <time>2016-06-05T13:55:30.908Z</time>
      </trkpt>
      <trkpt lat="14.42125" lon="-60.89091">
        <ele>13</ele>
        <time>2016-06-05T13:55:31.906Z</time>
      </trkpt>
      <trkpt lat="14.42127" lon="-60.89089">
        <ele>14</ele>
        <time>2016-06-05T13:55:32.905Z</time>
      </trkpt>
      <trkpt lat="14.42128" lon="-60.89087">
        <ele>12</ele>
        <time>2016-06-05T13:55:33.904Z</time>
      </trkpt>
      <trkpt lat="14.42129" lon="-60.89084">
        <ele>12</ele>
        <time>2016-06-05T13:55:34.906Z</time>
      </trkpt>
      <trkpt lat="14.4213" lon="-60.89082">
        <ele>13</ele>
        <time>2016-06-05T13:55:35.908Z</time>
      </trkpt>
      <trkpt lat="14.42132" lon="-60.8908">
        <ele>13</ele>
        <time>2016-06-05T13:55:36.911Z</time>
      </trkpt>
      <trkpt lat="14.42134" lon="-60.89077">
        <ele>12</ele>
        <time>2016-06-05T13:55:37.904Z</time>
      </trkpt>
      <trkpt lat="14.42137" lon="-60.89076">
        <ele>12</ele>
        <time>2016-06-05T13:55:38.905Z</time>
      </trkpt>
      <trkpt lat="14.42141" lon="-60.89075">
        <ele>9</ele>
        <time>2016-06-05T13:55:39.904Z</time>
      </trkpt>
      <trkpt lat="14.42144" lon="-60.89074">
        <ele>10</ele>
        <time>2016-06-05T13:55:40.900Z</time>
      </trkpt>
      <trkpt lat="14.42148" lon="-60.89073">
        <ele>8</ele>
        <time>2016-06-05T13:55:41.899Z</time>
      </trkpt>
      <trkpt lat="14.4215" lon="-60.89069">
        <ele>9</ele>
        <time>2016-06-05T13:55:42.899Z</time>
      </trkpt>
      <trkpt lat="14.42151" lon="-60.89067">
        <ele>9</ele>
        <time>2016-06-05T13:55:43.902Z</time>
      </trkpt>
      <trkpt lat="14.42154" lon="-60.89065">
        <ele>7</ele>
        <time>2016-06-05T13:55:44.900Z</time>
      </trkpt>
      <trkpt lat="14.42157" lon="-60.89062">
        <ele>7</ele>
        <time>2016-06-05T13:55:45.901Z</time>
      </trkpt>
      <trkpt lat="14.42159" lon="-60.89059">
        <ele>8</ele>
        <time>2016-06-05T13:55:46.900Z</time>
      </trkpt>
      <trkpt lat="14.42161" lon="-60.89057">
        <ele>7</ele>
        <time>2016-06-05T13:55:47.902Z</time>
      </trkpt>
      <trkpt lat="14.42161" lon="-60.89055">
        <ele>8</ele>
        <time>2016-06-05T13:55:48.900Z</time>
      </trkpt>
      <trkpt lat="14.42163" lon="-60.89054">
        <ele>7</ele>
        <time>2016-06-05T13:55:49.900Z</time>
      </trkpt>
      <trkpt lat="14.42166" lon="-60.89052">
        <ele>6</ele>
        <time>2016-06-05T13:55:50.901Z</time>
      </trkpt>
      <trkpt lat="14.42168" lon="-60.8905">
        <ele>6</ele>
        <time>2016-06-05T13:55:51.902Z</time>
      </trkpt>
      <trkpt lat="14.42169" lon="-60.89048">
        <ele>6</ele>
        <time>2016-06-05T13:55:52.901Z</time>
      </trkpt>
      <trkpt lat="14.42171" lon="-60.89044">
        <ele>7</ele>
        <time>2016-06-05T13:55:53.903Z</time>
      </trkpt>
      <trkpt lat="14.42175" lon="-60.89041">
        <ele>7</ele>
        <time>2016-06-05T13:55:54.906Z</time>
      </trkpt>
      <trkpt lat="14.42179" lon="-60.89038">
        <ele>8</ele>
        <time>2016-06-05T13:55:55.907Z</time>
      </trkpt>
      <trkpt lat="14.42181" lon="-60.89036">
        <ele>8</ele>
        <time>2016-06-05T13:55:56.906Z</time>
      </trkpt>
      <trkpt lat="14.42184" lon="-60.89034">
        <ele>8</ele>
        <time>2016-06-05T13:55:57.900Z</time>
      </trkpt>
      <trkpt lat="14.42187" lon="-60.89033">
        <ele>8</ele>
        <time>2016-06-05T13:55:58.899Z</time>
      </trkpt>
      <trkpt lat="14.42189" lon="-60.89032">
        <ele>8</ele>
        <time>2016-06-05T13:55:59.900Z</time>
      </trkpt>
      <trkpt lat="14.4219" lon="-60.8903">
        <ele>8</ele>
        <time>2016-06-05T13:56:00.901Z</time>
      </trkpt>
      <trkpt lat="14.42192" lon="-60.89029">
        <ele>9</ele>
        <time>2016-06-05T13:56:01.902Z</time>
      </trkpt>
      <trkpt lat="14.42194" lon="-60.89028">
        <ele>10</ele>
        <time>2016-06-05T13:56:02.905Z</time>
      </trkpt>
      <trkpt lat="14.42196" lon="-60.89026">
        <ele>10</ele>
        <time>2016-06-05T13:56:03.907Z</time>
      </trkpt>
      <trkpt lat="14.42199" lon="-60.89023">
        <ele>9</ele>
        <time>2016-06-05T13:56:04.906Z</time>
      </trkpt>
      <trkpt lat="14.42202" lon="-60.89019">
        <ele>8</ele>
        <time>2016-06-05T13:56:05.906Z</time>
      </trkpt>
      <trkpt lat="14.42203" lon="-60.89016">
        <ele>9</ele>
        <time>2016-06-05T13:56:06.905Z</time>
      </trkpt>
      <trkpt lat="14.42204" lon="-60.89014">
        <ele>10</ele>
        <time>2016-06-05T13:56:07.903Z</time>
      </trkpt>
      <trkpt lat="14.42205" lon="-60.89013">
        <ele>9</ele>
        <time>2016-06-05T13:56:08.900Z</time>
      </trkpt>
      <trkpt lat="14.42205" lon="-60.89009">
        <ele>9</ele>
        <time>2016-06-05T13:56:09.904Z</time>
      </trkpt>
      <trkpt lat="14.42207" lon="-60.89009">
        <ele>9</ele>
        <time>2016-06-05T13:56:10.906Z</time>
      </trkpt>
      <trkpt lat="14.42209" lon="-60.89008">
        <ele>8</ele>
        <time>2016-06-05T13:56:11.904Z</time>
      </trkpt>
      <trkpt lat="14.42212" lon="-60.89007">
        <ele>8</ele>
        <time>2016-06-05T13:56:12.906Z</time>
      </trkpt>
      <trkpt lat="14.42215" lon="-60.89005">
        <ele>7</ele>
        <time>2016-06-05T13:56:13.904Z</time>
      </trkpt>
      <trkpt lat="14.42218" lon="-60.89003">
        <ele>7</ele>
        <time>2016-06-05T13:56:14.907Z</time>
      </trkpt>
      <trkpt lat="14.42221" lon="-60.89001">
        <ele>6</ele>
        <time>2016-06-05T13:56:15.906Z</time>
      </trkpt>
      <trkpt lat="14.42224" lon="-60.88999">
        <ele>6</ele>
        <time>2016-06-05T13:56:16.906Z</time>
      </trkpt>
      <trkpt lat="14.42228" lon="-60.88998">
        <ele>6</ele>
        <time>2016-06-05T13:56:17.905Z</time>
      </trkpt>
      <trkpt lat="14.4223" lon="-60.88996">
        <ele>7</ele>
        <time>2016-06-05T13:56:18.908Z</time>
      </trkpt>
      <trkpt lat="14.42235" lon="-60.88994">
        <ele>6</ele>
        <time>2016-06-05T13:56:19.905Z</time>
      </trkpt>
      <trkpt lat="14.42238" lon="-60.88992">
        <ele>6</ele>
        <time>2016-06-05T13:56:20.905Z</time>
      </trkpt>
      <trkpt lat="14.42242" lon="-60.8899">
        <ele>6</ele>
        <time>2016-06-05T13:56:21.905Z</time>
      </trkpt>
      <trkpt lat="14.42244" lon="-60.88987">
        <ele>7</ele>
        <time>2016-06-05T13:56:22.905Z</time>
      </trkpt>
      <trkpt lat="14.42243" lon="-60.88982">
        <ele>6</ele>
        <time>2016-06-05T13:56:23.902Z</time>
      </trkpt>
      <trkpt lat="14.42245" lon="-60.88981">
        <ele>7</ele>
        <time>2016-06-05T13:56:24.904Z</time>
      </trkpt>
      <trkpt lat="14.42249" lon="-60.88981">
        <ele>7</ele>
        <time>2016-06-05T13:56:26.906Z</time>
      </trkpt>
      <trkpt lat="14.42251" lon="-60.88979">
        <ele>7</ele>
        <time>2016-06-05T13:56:27.907Z</time>
      </trkpt>
      <trkpt lat="14.42254" lon="-60.88978">
        <ele>7</ele>
        <time>2016-06-05T13:56:28.906Z</time>
      </trkpt>
      <trkpt lat="14.42257" lon="-60.88977">
        <ele>5</ele>
        <time>2016-06-05T13:56:29.906Z</time>
      </trkpt>
      <trkpt lat="14.42259" lon="-60.88976">
        <ele>3</ele>
        <time>2016-06-05T13:56:30.906Z</time>
      </trkpt>
      <trkpt lat="14.42261" lon="-60.88975">
        <ele>4</ele>
        <time>2016-06-05T13:56:31.909Z</time>
      </trkpt>
      <trkpt lat="14.42263" lon="-60.88974">
        <ele>3</ele>
        <time>2016-06-05T13:56:32.907Z</time>
      </trkpt>
      <trkpt lat="14.42267" lon="-60.88971">
        <ele>3</ele>
        <time>2016-06-05T13:56:33.906Z</time>
      </trkpt>
      <trkpt lat="14.42269" lon="-60.88969">
        <ele>4</ele>
        <time>2016-06-05T13:56:34.905Z</time>
      </trkpt>
      <trkpt lat="14.42271" lon="-60.88966">
        <ele>4</ele>
        <time>2016-06-05T13:56:35.905Z</time>
      </trkpt>
      <trkpt lat="14.42275" lon="-60.88965">
        <ele>5</ele>
        <time>2016-06-05T13:56:36.905Z</time>
      </trkpt>
      <trkpt lat="14.42278" lon="-60.88962">
        <ele>5</ele>
        <time>2016-06-05T13:56:37.905Z</time>
      </trkpt>
      <trkpt lat="14.4228" lon="-60.88962">
        <ele>5</ele>
        <time>2016-06-05T13:56:38.905Z</time>
      </trkpt>
      <trkpt lat="14.42284" lon="-60.88962">
        <ele>6</ele>
        <time>2016-06-05T13:56:40.904Z</time>
      </trkpt>
      <trkpt lat="14.42287" lon="-60.8896">
        <ele>6</ele>
        <time>2016-06-05T13:56:41.906Z</time>
      </trkpt>
      <trkpt lat="14.42289" lon="-60.88959">
        <ele>6</ele>
        <time>2016-06-05T13:56:42.905Z</time>
      </trkpt>
      <trkpt lat="14.42291" lon="-60.8896">
        <ele>7</ele>
        <time>2016-06-05T13:56:43.905Z</time>
      </trkpt>
      <trkpt lat="14.42296" lon="-60.88961">
        <ele>6</ele>
        <time>2016-06-05T13:56:44.909Z</time>
      </trkpt>
      <trkpt lat="14.42299" lon="-60.88959">
        <ele>5</ele>
        <time>2016-06-05T13:56:45.905Z</time>
      </trkpt>
      <trkpt lat="14.42302" lon="-60.88956">
        <ele>5</ele>
        <time>2016-06-05T13:56:46.905Z</time>
      </trkpt>
      <trkpt lat="14.42305" lon="-60.88953">
        <ele>5</ele>
        <time>2016-06-05T13:56:47.906Z</time>
      </trkpt>
      <trkpt lat="14.42307" lon="-60.88951">
        <ele>4</ele>
        <time>2016-06-05T13:56:48.905Z</time>
      </trkpt>
      <trkpt lat="14.42309" lon="-60.88949">
        <ele>1</ele>
        <time>2016-06-05T13:56:49.905Z</time>
      </trkpt>
      <trkpt lat="14.42313" lon="-60.88946">
        <ele>2</ele>
        <time>2016-06-05T13:56:50.906Z</time>
      </trkpt>
      <trkpt lat="14.42317" lon="-60.88944">
        <ele>1</ele>
        <time>2016-06-05T13:56:51.906Z</time>
      </trkpt>
      <trkpt lat="14.4232" lon="-60.88942">
        <ele>2</ele>
        <time>2016-06-05T13:56:52.905Z</time>
      </trkpt>
      <trkpt lat="14.42322" lon="-60.88941">
        <ele>3</ele>
        <time>2016-06-05T13:56:53.904Z</time>
      </trkpt>
      <trkpt lat="14.42325" lon="-60.88939">
        <ele>3</ele>
        <time>2016-06-05T13:56:54.905Z</time>
      </trkpt>
      <trkpt lat="14.42327" lon="-60.88938">
        <ele>3</ele>
        <time>2016-06-05T13:56:55.905Z</time>
      </trkpt>
      <trkpt lat="14.42329" lon="-60.88937">
        <ele>3</ele>
        <time>2016-06-05T13:56:56.905Z</time>
      </trkpt>
      <trkpt lat="14.4233" lon="-60.88936">
        <ele>4</ele>
        <time>2016-06-05T13:56:57.905Z</time>
      </trkpt>
      <trkpt lat="14.42332" lon="-60.88935">
        <ele>3</ele>
        <time>2016-06-05T13:56:58.908Z</time>
      </trkpt>
      <trkpt lat="14.42335" lon="-60.88935">
        <ele>3</ele>
        <time>2016-06-05T13:56:59.907Z</time>
      </trkpt>
      <trkpt lat="14.42336" lon="-60.88933">
        <ele>4</ele>
        <time>2016-06-05T13:57:00.906Z</time>
      </trkpt>
      <trkpt lat="14.42336" lon="-60.88931">
        <ele>3</ele>
        <time>2016-06-05T13:57:01.906Z</time>
      </trkpt>
      <trkpt lat="14.42336" lon="-60.88929">
        <ele>3</ele>
        <time>2016-06-05T13:57:02.906Z</time>
      </trkpt>
      <trkpt lat="14.42337" lon="-60.88927">
        <ele>2</ele>
        <time>2016-06-05T13:57:03.905Z</time>
      </trkpt>
      <trkpt lat="14.42338" lon="-60.88917">
        <ele>-1</ele>
        <time>2016-06-05T13:57:18.907Z</time>
      </trkpt>
      <trkpt lat="14.42339" lon="-60.88916">
        <time>2016-06-05T13:57:20.904Z</time>
      </trkpt>
      <trkpt lat="14.4234" lon="-60.88914">
        <ele>1</ele>
        <time>2016-06-05T13:57:23.905Z</time>
      </trkpt>
      <trkpt lat="14.4234" lon="-60.88911">
        <ele>1</ele>
        <time>2016-06-05T13:57:25.905Z</time>
      </trkpt>
      <trkpt lat="14.42336" lon="-60.88903">
        <ele>10</ele>
        <time>2016-06-05T13:57:37.906Z</time>
      </trkpt>
      <trkpt lat="14.42336" lon="-60.88901">
        <ele>11</ele>
        <time>2016-06-05T13:57:40.906Z</time>
      </trkpt>
      <trkpt lat="14.42337" lon="-60.88899">
        <ele>10</ele>
        <time>2016-06-05T13:57:41.906Z</time>
      </trkpt>
      <trkpt lat="14.42336" lon="-60.88891">
        <ele>12</ele>
        <time>2016-06-05T13:57:58.904Z</time>
      </trkpt>
      <trkpt lat="14.42337" lon="-60.88888">
        <ele>11</ele>
        <time>2016-06-05T13:57:59.907Z</time>
      </trkpt>
      <trkpt lat="14.42337" lon="-60.88885">
        <ele>11</ele>
        <time>2016-06-05T13:58:00.907Z</time>
      </trkpt>
      <trkpt lat="14.42338" lon="-60.88883">
        <ele>10</ele>
        <time>2016-06-05T13:58:01.905Z</time>
      </trkpt>
      <trkpt lat="14.42338" lon="-60.88881">
        <ele>10</ele>
        <time>2016-06-05T13:58:02.905Z</time>
      </trkpt>
      <trkpt lat="14.4234" lon="-60.88877">
        <ele>12</ele>
        <time>2016-06-05T13:58:09.906Z</time>
      </trkpt>
      <trkpt lat="14.42341" lon="-60.88876">
        <ele>10</ele>
        <time>2016-06-05T13:58:10.907Z</time>
      </trkpt>
      <trkpt lat="14.42343" lon="-60.88874">
        <ele>10</ele>
        <time>2016-06-05T13:58:11.906Z</time>
      </trkpt>
      <trkpt lat="14.42351" lon="-60.88871">
        <ele>13</ele>
        <time>2016-06-05T13:58:21.911Z</time>
      </trkpt>
      <trkpt lat="14.42351" lon="-60.8887">
        <ele>14</ele>
        <time>2016-06-05T13:58:22.905Z</time>
      </trkpt>
      <trkpt lat="14.42353" lon="-60.88871">
        <ele>14</ele>
        <time>2016-06-05T13:58:23.907Z</time>
      </trkpt>
      <trkpt lat="14.42356" lon="-60.88868">
        <ele>16</ele>
        <time>2016-06-05T13:58:27.905Z</time>
      </trkpt>
      <trkpt lat="14.42357" lon="-60.88866">
        <ele>14</ele>
        <time>2016-06-05T13:58:28.918Z</time>
      </trkpt>
      <trkpt lat="14.42359" lon="-60.88865">
        <ele>14</ele>
        <time>2016-06-05T13:58:30.908Z</time>
      </trkpt>
      <trkpt lat="14.4236" lon="-60.88864">
        <ele>14</ele>
        <time>2016-06-05T13:58:31.915Z</time>
      </trkpt>
      <trkpt lat="14.42363" lon="-60.8886">
        <ele>12</ele>
        <time>2016-06-05T13:58:36.908Z</time>
      </trkpt>
      <trkpt lat="14.42364" lon="-60.88858">
        <ele>12</ele>
        <time>2016-06-05T13:58:38.909Z</time>
      </trkpt>
      <trkpt lat="14.42363" lon="-60.88855">
        <ele>15</ele>
        <time>2016-06-05T13:58:42.905Z</time>
      </trkpt>
      <trkpt lat="14.42365" lon="-60.88853">
        <ele>11</ele>
        <time>2016-06-05T13:58:44.906Z</time>
      </trkpt>
      <trkpt lat="14.42366" lon="-60.88852">
        <ele>11</ele>
        <time>2016-06-05T13:58:45.908Z</time>
      </trkpt>
      <trkpt lat="14.42369" lon="-60.8885">
        <ele>10</ele>
        <time>2016-06-05T13:58:46.913Z</time>
      </trkpt>
      <trkpt lat="14.42372" lon="-60.88848">
        <ele>12</ele>
        <time>2016-06-05T13:58:47.912Z</time>
      </trkpt>
      <trkpt lat="14.42375" lon="-60.88845">
        <ele>12</ele>
        <time>2016-06-05T13:58:48.911Z</time>
      </trkpt>
      <trkpt lat="14.42379" lon="-60.88845">
        <ele>9</ele>
        <time>2016-06-05T13:58:49.914Z</time>
      </trkpt>
      <trkpt lat="14.42381" lon="-60.88845">
        <ele>9</ele>
        <time>2016-06-05T13:58:50.906Z</time>
      </trkpt>
      <trkpt lat="14.42384" lon="-60.88845">
        <ele>9</ele>
        <time>2016-06-05T13:58:51.906Z</time>
      </trkpt>
      <trkpt lat="14.42386" lon="-60.88845">
        <ele>7</ele>
        <time>2016-06-05T13:58:52.903Z</time>
      </trkpt>
      <trkpt lat="14.42388" lon="-60.88845">
        <ele>7</ele>
        <time>2016-06-05T13:58:53.901Z</time>
      </trkpt>
      <trkpt lat="14.4239" lon="-60.88845">
        <ele>7</ele>
        <time>2016-06-05T13:58:54.900Z</time>
      </trkpt>
      <trkpt lat="14.42391" lon="-60.88845">
        <ele>6</ele>
        <time>2016-06-05T13:58:55.903Z</time>
      </trkpt>
      <trkpt lat="14.42393" lon="-60.88844">
        <ele>7</ele>
        <time>2016-06-05T13:58:56.904Z</time>
      </trkpt>
      <trkpt lat="14.42396" lon="-60.88844">
        <ele>6</ele>
        <time>2016-06-05T13:58:57.904Z</time>
      </trkpt>
      <trkpt lat="14.42398" lon="-60.88843">
        <ele>7</ele>
        <time>2016-06-05T13:58:58.904Z</time>
      </trkpt>
      <trkpt lat="14.42399" lon="-60.88842">
        <ele>7</ele>
        <time>2016-06-05T13:58:59.905Z</time>
      </trkpt>
      <trkpt lat="14.42401" lon="-60.88842">
        <ele>8</ele>
        <time>2016-06-05T13:59:00.903Z</time>
      </trkpt>
      <trkpt lat="14.42403" lon="-60.88842">
        <ele>7</ele>
        <time>2016-06-05T13:59:01.903Z</time>
      </trkpt>
      <trkpt lat="14.42405" lon="-60.8884">
        <ele>8</ele>
        <time>2016-06-05T13:59:03.908Z</time>
      </trkpt>
      <trkpt lat="14.42407" lon="-60.88838">
        <ele>8</ele>
        <time>2016-06-05T13:59:04.907Z</time>
      </trkpt>
      <trkpt lat="14.42411" lon="-60.88837">
        <ele>7</ele>
        <time>2016-06-05T13:59:05.903Z</time>
      </trkpt>
      <trkpt lat="14.42416" lon="-60.88834">
        <ele>7</ele>
        <time>2016-06-05T13:59:06.904Z</time>
      </trkpt>
      <trkpt lat="14.42419" lon="-60.88834">
        <ele>8</ele>
        <time>2016-06-05T13:59:07.904Z</time>
      </trkpt>
      <trkpt lat="14.42423" lon="-60.88833">
        <ele>8</ele>
        <time>2016-06-05T13:59:08.906Z</time>
      </trkpt>
      <trkpt lat="14.42426" lon="-60.88832">
        <ele>11</ele>
        <time>2016-06-05T13:59:09.904Z</time>
      </trkpt>
      <trkpt lat="14.42429" lon="-60.88831">
        <ele>11</ele>
        <time>2016-06-05T13:59:10.904Z</time>
      </trkpt>
      <trkpt lat="14.42432" lon="-60.88829">
        <ele>12</ele>
        <time>2016-06-05T13:59:11.905Z</time>
      </trkpt>
      <trkpt lat="14.42435" lon="-60.88827">
        <ele>11</ele>
        <time>2016-06-05T13:59:12.904Z</time>
      </trkpt>
      <trkpt lat="14.42437" lon="-60.88825">
        <ele>11</ele>
        <time>2016-06-05T13:59:13.905Z</time>
      </trkpt>
      <trkpt lat="14.42439" lon="-60.88823">
        <ele>11</ele>
        <time>2016-06-05T13:59:14.904Z</time>
      </trkpt>
      <trkpt lat="14.42441" lon="-60.88822">
        <ele>13</ele>
        <time>2016-06-05T13:59:15.904Z</time>
      </trkpt>
      <trkpt lat="14.42443" lon="-60.8882">
        <ele>13</ele>
        <time>2016-06-05T13:59:16.905Z</time>
      </trkpt>
      <trkpt lat="14.42444" lon="-60.88816">
        <ele>15</ele>
        <time>2016-06-05T13:59:17.905Z</time>
      </trkpt>
      <trkpt lat="14.42445" lon="-60.88814">
        <ele>15</ele>
        <time>2016-06-05T13:59:18.904Z</time>
      </trkpt>
      <trkpt lat="14.42447" lon="-60.88812">
        <ele>14</ele>
        <time>2016-06-05T13:59:19.908Z</time>
      </trkpt>
      <trkpt lat="14.42449" lon="-60.88809">
        <ele>13</ele>
        <time>2016-06-05T13:59:20.914Z</time>
      </trkpt>
      <trkpt lat="14.4245" lon="-60.88807">
        <ele>13</ele>
        <time>2016-06-05T13:59:21.905Z</time>
      </trkpt>
      <trkpt lat="14.4245" lon="-60.88804">
        <ele>13</ele>
        <time>2016-06-05T13:59:22.905Z</time>
      </trkpt>
      <trkpt lat="14.42451" lon="-60.88802">
        <ele>13</ele>
        <time>2016-06-05T13:59:23.906Z</time>
      </trkpt>
      <trkpt lat="14.42452" lon="-60.88799">
        <ele>12</ele>
        <time>2016-06-05T13:59:24.905Z</time>
      </trkpt>
      <trkpt lat="14.42453" lon="-60.88797">
        <ele>13</ele>
        <time>2016-06-05T13:59:25.897Z</time>
      </trkpt>
      <trkpt lat="14.42455" lon="-60.88795">
        <ele>14</ele>
        <time>2016-06-05T13:59:26.896Z</time>
      </trkpt>
      <trkpt lat="14.42455" lon="-60.88792">
        <ele>12</ele>
        <time>2016-06-05T13:59:27.897Z</time>
      </trkpt>
      <trkpt lat="14.42456" lon="-60.88791">
        <ele>13</ele>
        <time>2016-06-05T13:59:28.897Z</time>
      </trkpt>
      <trkpt lat="14.42455" lon="-60.88789">
        <ele>14</ele>
        <time>2016-06-05T13:59:29.900Z</time>
      </trkpt>
      <trkpt lat="14.42455" lon="-60.88786">
        <ele>14</ele>
        <time>2016-06-05T13:59:31.902Z</time>
      </trkpt>
      <trkpt lat="14.42455" lon="-60.88785">
        <ele>14</ele>
        <time>2016-06-05T13:59:32.898Z</time>
      </trkpt>
      <trkpt lat="14.42456" lon="-60.88781">
        <ele>13</ele>
        <time>2016-06-05T13:59:34.898Z</time>
      </trkpt>
      <trkpt lat="14.42456" lon="-60.8878">
        <ele>14</ele>
        <time>2016-06-05T13:59:35.900Z</time>
      </trkpt>
      <trkpt lat="14.42455" lon="-60.88778">
        <ele>15</ele>
        <time>2016-06-05T13:59:36.898Z</time>
      </trkpt>
      <trkpt lat="14.42456" lon="-60.88776">
        <ele>14</ele>
        <time>2016-06-05T13:59:37.904Z</time>
      </trkpt>
      <trkpt lat="14.42455" lon="-60.88774">
        <ele>15</ele>
        <time>2016-06-05T13:59:38.905Z</time>
      </trkpt>
      <trkpt lat="14.42456" lon="-60.88773">
        <ele>16</ele>
        <time>2016-06-05T13:59:39.908Z</time>
      </trkpt>
      <trkpt lat="14.42457" lon="-60.88771">
        <ele>15</ele>
        <time>2016-06-05T13:59:40.909Z</time>
      </trkpt>
      <trkpt lat="14.42458" lon="-60.8877">
        <ele>17</ele>
        <time>2016-06-05T13:59:41.905Z</time>
      </trkpt>
      <trkpt lat="14.42459" lon="-60.88768">
        <ele>17</ele>
        <time>2016-06-05T13:59:42.901Z</time>
      </trkpt>
      <trkpt lat="14.42459" lon="-60.88767">
        <ele>18</ele>
        <time>2016-06-05T13:59:43.899Z</time>
      </trkpt>
      <trkpt lat="14.42459" lon="-60.88765">
        <ele>18</ele>
        <time>2016-06-05T13:59:44.904Z</time>
      </trkpt>
      <trkpt lat="14.4246" lon="-60.88764">
        <ele>18</ele>
        <time>2016-06-05T13:59:45.900Z</time>
      </trkpt>
      <trkpt lat="14.42459" lon="-60.88761">
        <ele>18</ele>
        <time>2016-06-05T13:59:46.900Z</time>
      </trkpt>
      <trkpt lat="14.42458" lon="-60.8876">
        <ele>18</ele>
        <time>2016-06-05T13:59:47.898Z</time>
      </trkpt>
      <trkpt lat="14.42458" lon="-60.88758">
        <ele>18</ele>
        <time>2016-06-05T13:59:48.898Z</time>
      </trkpt>
      <trkpt lat="14.42458" lon="-60.88756">
        <ele>18</ele>
        <time>2016-06-05T13:59:49.899Z</time>
      </trkpt>
      <trkpt lat="14.42457" lon="-60.88754">
        <ele>16</ele>
        <time>2016-06-05T13:59:51.902Z</time>
      </trkpt>
      <trkpt lat="14.42457" lon="-60.88752">
        <ele>16</ele>
        <time>2016-06-05T13:59:52.904Z</time>
      </trkpt>
      <trkpt lat="14.42458" lon="-60.88751">
        <ele>16</ele>
        <time>2016-06-05T13:59:53.904Z</time>
      </trkpt>
      <trkpt lat="14.4246" lon="-60.88749">
        <ele>16</ele>
        <time>2016-06-05T13:59:54.904Z</time>
      </trkpt>
      <trkpt lat="14.42461" lon="-60.88746">
        <ele>15</ele>
        <time>2016-06-05T13:59:56.906Z</time>
      </trkpt>
      <trkpt lat="14.42464" lon="-60.88744">
        <ele>16</ele>
        <time>2016-06-05T13:59:57.905Z</time>
      </trkpt>
      <trkpt lat="14.42467" lon="-60.88742">
        <ele>17</ele>
        <time>2016-06-05T13:59:58.905Z</time>
      </trkpt>
      <trkpt lat="14.4247" lon="-60.88739">
        <ele>18</ele>
        <time>2016-06-05T13:59:59.907Z</time>
      </trkpt>
      <trkpt lat="14.42473" lon="-60.88735">
        <ele>18</ele>
        <time>2016-06-05T14:00:00.905Z</time>
      </trkpt>
      <trkpt lat="14.42477" lon="-60.8873">
        <ele>18</ele>
        <time>2016-06-05T14:00:01.901Z</time>
      </trkpt>
      <trkpt lat="14.42481" lon="-60.88726">
        <ele>17</ele>
        <time>2016-06-05T14:00:02.900Z</time>
      </trkpt>
      <trkpt lat="14.42486" lon="-60.88721">
        <ele>17</ele>
        <time>2016-06-05T14:00:03.899Z</time>
      </trkpt>
      <trkpt lat="14.42491" lon="-60.88716">
        <ele>16</ele>
        <time>2016-06-05T14:00:04.901Z</time>
      </trkpt>
      <trkpt lat="14.42495" lon="-60.88711">
        <ele>16</ele>
        <time>2016-06-05T14:00:05.903Z</time>
      </trkpt>
      <trkpt lat="14.425" lon="-60.88706">
        <ele>16</ele>
        <time>2016-06-05T14:00:06.914Z</time>
      </trkpt>
      <trkpt lat="14.42506" lon="-60.88701">
        <ele>16</ele>
        <time>2016-06-05T14:00:07.911Z</time>
      </trkpt>
      <trkpt lat="14.4251" lon="-60.88695">
        <ele>16</ele>
        <time>2016-06-05T14:00:08.903Z</time>
      </trkpt>
      <trkpt lat="14.42514" lon="-60.88691">
        <ele>15</ele>
        <time>2016-06-05T14:00:09.905Z</time>
      </trkpt>
      <trkpt lat="14.42519" lon="-60.88686">
        <ele>14</ele>
        <time>2016-06-05T14:00:10.905Z</time>
      </trkpt>
      <trkpt lat="14.42523" lon="-60.88681">
        <ele>14</ele>
        <time>2016-06-05T14:00:11.904Z</time>
      </trkpt>
      <trkpt lat="14.42528" lon="-60.88677">
        <ele>13</ele>
        <time>2016-06-05T14:00:12.904Z</time>
      </trkpt>
      <trkpt lat="14.42532" lon="-60.88672">
        <ele>13</ele>
        <time>2016-06-05T14:00:13.906Z</time>
      </trkpt>
      <trkpt lat="14.42537" lon="-60.88668">
        <ele>12</ele>
        <time>2016-06-05T14:00:14.904Z</time>
      </trkpt>
      <trkpt lat="14.42543" lon="-60.88663">
        <ele>12</ele>
        <time>2016-06-05T14:00:15.903Z</time>
      </trkpt>
      <trkpt lat="14.42548" lon="-60.88659">
        <ele>12</ele>
        <time>2016-06-05T14:00:16.904Z</time>
      </trkpt>
      <trkpt lat="14.42552" lon="-60.88655">
        <ele>12</ele>
        <time>2016-06-05T14:00:17.903Z</time>
      </trkpt>
      <trkpt lat="14.42556" lon="-60.88651">
        <ele>11</ele>
        <time>2016-06-05T14:00:18.906Z</time>
      </trkpt>
      <trkpt lat="14.42562" lon="-60.88649">
        <ele>11</ele>
        <time>2016-06-05T14:00:19.904Z</time>
      </trkpt>
      <trkpt lat="14.42568" lon="-60.88647">
        <ele>10</ele>
        <time>2016-06-05T14:00:20.904Z</time>
      </trkpt>
      <trkpt lat="14.42573" lon="-60.88646">
        <ele>10</ele>
        <time>2016-06-05T14:00:21.903Z</time>
      </trkpt>
      <trkpt lat="14.42578" lon="-60.88644">
        <ele>10</ele>
        <time>2016-06-05T14:00:22.906Z</time>
      </trkpt>
      <trkpt lat="14.42583" lon="-60.88643">
        <ele>11</ele>
        <time>2016-06-05T14:00:23.909Z</time>
      </trkpt>
      <trkpt lat="14.42585" lon="-60.88641">
        <ele>11</ele>
        <time>2016-06-05T14:00:24.907Z</time>
      </trkpt>
      <trkpt lat="14.42589" lon="-60.8864">
        <ele>13</ele>
        <time>2016-06-05T14:00:25.906Z</time>
      </trkpt>
      <trkpt lat="14.42592" lon="-60.88639">
        <ele>13</ele>
        <time>2016-06-05T14:00:26.906Z</time>
      </trkpt>
      <trkpt lat="14.42596" lon="-60.88637">
        <ele>12</ele>
        <time>2016-06-05T14:00:27.908Z</time>
      </trkpt>
      <trkpt lat="14.426" lon="-60.88635">
        <ele>13</ele>
        <time>2016-06-05T14:00:28.908Z</time>
      </trkpt>
      <trkpt lat="14.42603" lon="-60.88634">
        <ele>11</ele>
        <time>2016-06-05T14:00:29.907Z</time>
      </trkpt>
      <trkpt lat="14.42606" lon="-60.88632">
        <ele>11</ele>
        <time>2016-06-05T14:00:30.906Z</time>
      </trkpt>
      <trkpt lat="14.42609" lon="-60.88631">
        <ele>10</ele>
        <time>2016-06-05T14:00:31.906Z</time>
      </trkpt>
      <trkpt lat="14.42612" lon="-60.8863">
        <ele>10</ele>
        <time>2016-06-05T14:00:32.905Z</time>
      </trkpt>
      <trkpt lat="14.42615" lon="-60.8863">
        <ele>10</ele>
        <time>2016-06-05T14:00:33.904Z</time>
      </trkpt>
      <trkpt lat="14.42618" lon="-60.88629">
        <ele>9</ele>
        <time>2016-06-05T14:00:34.898Z</time>
      </trkpt>
      <trkpt lat="14.42619" lon="-60.88628">
        <ele>10</ele>
        <time>2016-06-05T14:00:35.901Z</time>
      </trkpt>
      <trkpt lat="14.42622" lon="-60.88626">
        <ele>10</ele>
        <time>2016-06-05T14:00:36.900Z</time>
      </trkpt>
      <trkpt lat="14.42624" lon="-60.88624">
        <ele>9</ele>
        <time>2016-06-05T14:00:37.899Z</time>
      </trkpt>
      <trkpt lat="14.42626" lon="-60.88623">
        <ele>10</ele>
        <time>2016-06-05T14:00:38.902Z</time>
      </trkpt>
      <trkpt lat="14.42629" lon="-60.88622">
        <ele>10</ele>
        <time>2016-06-05T14:00:39.900Z</time>
      </trkpt>
      <trkpt lat="14.42631" lon="-60.88621">
        <ele>10</ele>
        <time>2016-06-05T14:00:40.899Z</time>
      </trkpt>
      <trkpt lat="14.42634" lon="-60.88619">
        <ele>9</ele>
        <time>2016-06-05T14:00:41.900Z</time>
      </trkpt>
      <trkpt lat="14.42636" lon="-60.88617">
        <ele>10</ele>
        <time>2016-06-05T14:00:42.899Z</time>
      </trkpt>
      <trkpt lat="14.42639" lon="-60.88615">
        <ele>9</ele>
        <time>2016-06-05T14:00:43.900Z</time>
      </trkpt>
      <trkpt lat="14.42641" lon="-60.88614">
        <ele>9</ele>
        <time>2016-06-05T14:00:44.901Z</time>
      </trkpt>
      <trkpt lat="14.42644" lon="-60.88613">
        <ele>9</ele>
        <time>2016-06-05T14:00:45.901Z</time>
      </trkpt>
      <trkpt lat="14.42646" lon="-60.88611">
        <ele>9</ele>
        <time>2016-06-05T14:00:46.901Z</time>
      </trkpt>
      <trkpt lat="14.42649" lon="-60.88609">
        <ele>9</ele>
        <time>2016-06-05T14:00:47.900Z</time>
      </trkpt>
      <trkpt lat="14.42651" lon="-60.88607">
        <ele>9</ele>
        <time>2016-06-05T14:00:48.898Z</time>
      </trkpt>
      <trkpt lat="14.42654" lon="-60.88605">
        <ele>9</ele>
        <time>2016-06-05T14:00:49.898Z</time>
      </trkpt>
      <trkpt lat="14.42657" lon="-60.88603">
        <ele>9</ele>
        <time>2016-06-05T14:00:50.899Z</time>
      </trkpt>
      <trkpt lat="14.42658" lon="-60.88602">
        <ele>10</ele>
        <time>2016-06-05T14:00:51.900Z</time>
      </trkpt>
      <trkpt lat="14.42661" lon="-60.886">
        <ele>10</ele>
        <time>2016-06-05T14:00:52.900Z</time>
      </trkpt>
      <trkpt lat="14.42665" lon="-60.88599">
        <ele>9</ele>
        <time>2016-06-05T14:00:53.900Z</time>
      </trkpt>
      <trkpt lat="14.42668" lon="-60.88597">
        <ele>9</ele>
        <time>2016-06-05T14:00:54.898Z</time>
      </trkpt>
      <trkpt lat="14.42672" lon="-60.88596">
        <ele>9</ele>
        <time>2016-06-05T14:00:55.898Z</time>
      </trkpt>
      <trkpt lat="14.42677" lon="-60.88594">
        <ele>7</ele>
        <time>2016-06-05T14:00:56.900Z</time>
      </trkpt>
      <trkpt lat="14.42681" lon="-60.88593">
        <ele>7</ele>
        <time>2016-06-05T14:00:57.901Z</time>
      </trkpt>
      <trkpt lat="14.42685" lon="-60.88591">
        <ele>8</ele>
        <time>2016-06-05T14:00:58.901Z</time>
      </trkpt>
      <trkpt lat="14.42689" lon="-60.88589">
        <ele>9</ele>
        <time>2016-06-05T14:00:59.903Z</time>
      </trkpt>
      <trkpt lat="14.42693" lon="-60.88587">
        <ele>9</ele>
        <time>2016-06-05T14:01:00.901Z</time>
      </trkpt>
      <trkpt lat="14.42696" lon="-60.88584">
        <ele>9</ele>
        <time>2016-06-05T14:01:01.903Z</time>
      </trkpt>
      <trkpt lat="14.42699" lon="-60.8858">
        <ele>9</ele>
        <time>2016-06-05T14:01:02.906Z</time>
      </trkpt>
      <trkpt lat="14.42701" lon="-60.88576">
        <ele>10</ele>
        <time>2016-06-05T14:01:03.903Z</time>
      </trkpt>
      <trkpt lat="14.42703" lon="-60.88573">
        <ele>10</ele>
        <time>2016-06-05T14:01:04.902Z</time>
      </trkpt>
      <trkpt lat="14.42705" lon="-60.88569">
        <ele>10</ele>
        <time>2016-06-05T14:01:05.901Z</time>
      </trkpt>
      <trkpt lat="14.42708" lon="-60.88565">
        <ele>11</ele>
        <time>2016-06-05T14:01:06.905Z</time>
      </trkpt>
      <trkpt lat="14.4271" lon="-60.88562">
        <ele>11</ele>
        <time>2016-06-05T14:01:07.907Z</time>
      </trkpt>
      <trkpt lat="14.42712" lon="-60.88558">
        <ele>12</ele>
        <time>2016-06-05T14:01:08.904Z</time>
      </trkpt>
      <trkpt lat="14.42714" lon="-60.88554">
        <ele>13</ele>
        <time>2016-06-05T14:01:09.903Z</time>
      </trkpt>
      <trkpt lat="14.42716" lon="-60.8855">
        <ele>13</ele>
        <time>2016-06-05T14:01:10.904Z</time>
      </trkpt>
      <trkpt lat="14.42716" lon="-60.88546">
        <ele>12</ele>
        <time>2016-06-05T14:01:11.902Z</time>
      </trkpt>
      <trkpt lat="14.42717" lon="-60.88542">
        <ele>12</ele>
        <time>2016-06-05T14:01:12.907Z</time>
      </trkpt>
      <trkpt lat="14.42718" lon="-60.88538">
        <ele>13</ele>
        <time>2016-06-05T14:01:13.910Z</time>
      </trkpt>
      <trkpt lat="14.42719" lon="-60.88534">
        <ele>12</ele>
        <time>2016-06-05T14:01:14.909Z</time>
      </trkpt>
      <trkpt lat="14.42718" lon="-60.8853">
        <ele>13</ele>
        <time>2016-06-05T14:01:15.906Z</time>
      </trkpt>
      <trkpt lat="14.42718" lon="-60.88527">
        <ele>13</ele>
        <time>2016-06-05T14:01:16.908Z</time>
      </trkpt>
      <trkpt lat="14.42718" lon="-60.88524">
        <ele>13</ele>
        <time>2016-06-05T14:01:17.911Z</time>
      </trkpt>
      <trkpt lat="14.42717" lon="-60.88521">
        <ele>13</ele>
        <time>2016-06-05T14:01:18.910Z</time>
      </trkpt>
      <trkpt lat="14.42719" lon="-60.8852">
        <ele>13</ele>
        <time>2016-06-05T14:01:19.910Z</time>
      </trkpt>
      <trkpt lat="14.4272" lon="-60.88518">
        <ele>13</ele>
        <time>2016-06-05T14:01:21.913Z</time>
      </trkpt>
      <trkpt lat="14.4272" lon="-60.88517">
        <ele>13</ele>
        <time>2016-06-05T14:01:22.903Z</time>
      </trkpt>
      <trkpt lat="14.42721" lon="-60.88516">
        <ele>13</ele>
        <time>2016-06-05T14:01:23.907Z</time>
      </trkpt>
      <trkpt lat="14.42722" lon="-60.88514">
        <ele>14</ele>
        <time>2016-06-05T14:01:25.909Z</time>
      </trkpt>
      <trkpt lat="14.42719" lon="-60.88512">
        <ele>14</ele>
        <time>2016-06-05T14:01:27.913Z</time>
      </trkpt>
      <trkpt lat="14.42719" lon="-60.88511">
        <ele>15</ele>
        <time>2016-06-05T14:01:29.910Z</time>
      </trkpt>
      <trkpt lat="14.42719" lon="-60.88509">
        <ele>16</ele>
        <time>2016-06-05T14:01:31.904Z</time>
      </trkpt>
      <trkpt lat="14.42718" lon="-60.88507">
        <ele>16</ele>
        <time>2016-06-05T14:01:33.905Z</time>
      </trkpt>
      <trkpt lat="14.42717" lon="-60.88505">
        <ele>18</ele>
        <time>2016-06-05T14:01:35.906Z</time>
      </trkpt>
      <trkpt lat="14.42717" lon="-60.88503">
        <ele>18</ele>
        <time>2016-06-05T14:01:37.903Z</time>
      </trkpt>
      <trkpt lat="14.42718" lon="-60.88501">
        <ele>19</ele>
        <time>2016-06-05T14:01:39.904Z</time>
      </trkpt>
      <trkpt lat="14.42718" lon="-60.88499">
        <ele>19</ele>
        <time>2016-06-05T14:01:41.898Z</time>
      </trkpt>
      <trkpt lat="14.42717" lon="-60.88497">
        <ele>19</ele>
        <time>2016-06-05T14:01:42.898Z</time>
      </trkpt>
      <trkpt lat="14.42716" lon="-60.88495">
        <ele>20</ele>
        <time>2016-06-05T14:01:44.897Z</time>
      </trkpt>
      <trkpt lat="14.42717" lon="-60.88493">
        <ele>20</ele>
        <time>2016-06-05T14:01:46.901Z</time>
      </trkpt>
      <trkpt lat="14.42717" lon="-60.88491">
        <ele>19</ele>
        <time>2016-06-05T14:01:48.901Z</time>
      </trkpt>
      <trkpt lat="14.42717" lon="-60.88489">
        <ele>20</ele>
        <time>2016-06-05T14:01:50.899Z</time>
      </trkpt>
      <trkpt lat="14.42718" lon="-60.88487">
        <ele>20</ele>
        <time>2016-06-05T14:01:52.897Z</time>
      </trkpt>
      <trkpt lat="14.42718" lon="-60.88485">
        <ele>21</ele>
        <time>2016-06-05T14:01:54.897Z</time>
      </trkpt>
      <trkpt lat="14.42717" lon="-60.88481">
        <ele>19</ele>
        <time>2016-06-05T14:01:58.905Z</time>
      </trkpt>
      <trkpt lat="14.42718" lon="-60.88478">
        <ele>20</ele>
        <time>2016-06-05T14:02:00.906Z</time>
      </trkpt>
      <trkpt lat="14.42717" lon="-60.88475">
        <ele>21</ele>
        <time>2016-06-05T14:02:04.914Z</time>
      </trkpt>
      <trkpt lat="14.42718" lon="-60.88474">
        <ele>21</ele>
        <time>2016-06-05T14:02:06.902Z</time>
      </trkpt>
      <trkpt lat="14.42717" lon="-60.88472">
        <ele>22</ele>
        <time>2016-06-05T14:02:08.903Z</time>
      </trkpt>
      <trkpt lat="14.42717" lon="-60.88471">
        <ele>22</ele>
        <time>2016-06-05T14:02:10.904Z</time>
      </trkpt>
      <trkpt lat="14.42716" lon="-60.88465">
        <ele>23</ele>
        <time>2016-06-05T14:02:18.907Z</time>
      </trkpt>
      <trkpt lat="14.42716" lon="-60.88455">
        <ele>27</ele>
        <time>2016-06-05T14:02:35.902Z</time>
      </trkpt>
      <trkpt lat="14.42716" lon="-60.88453">
        <ele>27</ele>
        <time>2016-06-05T14:02:38.897Z</time>
      </trkpt>
      <trkpt lat="14.42717" lon="-60.88449">
        <ele>28</ele>
        <time>2016-06-05T14:02:42.900Z</time>
      </trkpt>
      <trkpt lat="14.42723" lon="-60.88444">
        <ele>29</ele>
        <time>2016-06-05T14:03:03.900Z</time>
      </trkpt>
      <trkpt lat="14.42731" lon="-60.8844">
        <ele>32</ele>
        <time>2016-06-05T14:03:23.903Z</time>
      </trkpt>
      <trkpt lat="14.42736" lon="-60.88438">
        <ele>33</ele>
        <time>2016-06-05T14:03:29.903Z</time>
      </trkpt>
      <trkpt lat="14.42738" lon="-60.88437">
        <ele>34</ele>
        <time>2016-06-05T14:03:32.903Z</time>
      </trkpt>
      <trkpt lat="14.4274" lon="-60.88437">
        <ele>34</ele>
        <time>2016-06-05T14:03:34.902Z</time>
      </trkpt>
      <trkpt lat="14.42742" lon="-60.88437">
        <ele>35</ele>
        <time>2016-06-05T14:03:36.899Z</time>
      </trkpt>
      <trkpt lat="14.42745" lon="-60.88436">
        <ele>35</ele>
        <time>2016-06-05T14:03:39.901Z</time>
      </trkpt>
      <trkpt lat="14.42746" lon="-60.88435">
        <ele>36</ele>
        <time>2016-06-05T14:03:41.904Z</time>
      </trkpt>
      <trkpt lat="14.42749" lon="-60.88434">
        <ele>35</ele>
        <time>2016-06-05T14:03:46.906Z</time>
      </trkpt>
      <trkpt lat="14.42751" lon="-60.88434">
        <ele>36</ele>
        <time>2016-06-05T14:03:47.902Z</time>
      </trkpt>
      <trkpt lat="14.42754" lon="-60.88434">
        <ele>36</ele>
        <time>2016-06-05T14:03:48.902Z</time>
      </trkpt>
      <trkpt lat="14.42757" lon="-60.88433">
        <ele>35</ele>
        <time>2016-06-05T14:03:49.901Z</time>
      </trkpt>
      <trkpt lat="14.42759" lon="-60.88433">
        <ele>38</ele>
        <time>2016-06-05T14:03:50.903Z</time>
      </trkpt>
      <trkpt lat="14.42761" lon="-60.88431">
        <ele>37</ele>
        <time>2016-06-05T14:03:51.902Z</time>
      </trkpt>
      <trkpt lat="14.42763" lon="-60.88428">
        <ele>37</ele>
        <time>2016-06-05T14:03:52.901Z</time>
      </trkpt>
      <trkpt lat="14.42765" lon="-60.88426">
        <ele>36</ele>
        <time>2016-06-05T14:03:53.903Z</time>
      </trkpt>
      <trkpt lat="14.42766" lon="-60.88425">
        <ele>36</ele>
        <time>2016-06-05T14:03:54.903Z</time>
      </trkpt>
      <trkpt lat="14.42769" lon="-60.88424">
        <ele>35</ele>
        <time>2016-06-05T14:03:55.902Z</time>
      </trkpt>
      <trkpt lat="14.42771" lon="-60.88422">
        <ele>36</ele>
        <time>2016-06-05T14:03:56.902Z</time>
      </trkpt>
      <trkpt lat="14.42774" lon="-60.88421">
        <ele>37</ele>
        <time>2016-06-05T14:03:58.902Z</time>
      </trkpt>
      <trkpt lat="14.42775" lon="-60.88418">
        <ele>36</ele>
        <time>2016-06-05T14:03:59.901Z</time>
      </trkpt>
      <trkpt lat="14.42777" lon="-60.88417">
        <ele>36</ele>
        <time>2016-06-05T14:04:00.901Z</time>
      </trkpt>
      <trkpt lat="14.42778" lon="-60.88416">
        <ele>36</ele>
        <time>2016-06-05T14:04:01.901Z</time>
      </trkpt>
      <trkpt lat="14.4278" lon="-60.88415">
        <ele>36</ele>
        <time>2016-06-05T14:04:02.902Z</time>
      </trkpt>
      <trkpt lat="14.42781" lon="-60.88415">
        <ele>36</ele>
        <time>2016-06-05T14:04:03.901Z</time>
      </trkpt>
      <trkpt lat="14.42783" lon="-60.88413">
        <ele>37</ele>
        <time>2016-06-05T14:04:04.902Z</time>
      </trkpt>
      <trkpt lat="14.42784" lon="-60.88411">
        <ele>36</ele>
        <time>2016-06-05T14:04:05.901Z</time>
      </trkpt>
      <trkpt lat="14.42786" lon="-60.8841">
        <ele>36</ele>
        <time>2016-06-05T14:04:06.901Z</time>
      </trkpt>
      <trkpt lat="14.42788" lon="-60.88408">
        <ele>36</ele>
        <time>2016-06-05T14:04:07.899Z</time>
      </trkpt>
      <trkpt lat="14.4279" lon="-60.88408">
        <ele>35</ele>
        <time>2016-06-05T14:04:08.900Z</time>
      </trkpt>
      <trkpt lat="14.42792" lon="-60.88406">
        <ele>34</ele>
        <time>2016-06-05T14:04:09.904Z</time>
      </trkpt>
      <trkpt lat="14.42794" lon="-60.88405">
        <ele>34</ele>
        <time>2016-06-05T14:04:10.903Z</time>
      </trkpt>
      <trkpt lat="14.42795" lon="-60.88402">
        <ele>33</ele>
        <time>2016-06-05T14:04:12.904Z</time>
      </trkpt>
      <trkpt lat="14.42797" lon="-60.884">
        <ele>32</ele>
        <time>2016-06-05T14:04:13.903Z</time>
      </trkpt>
      <trkpt lat="14.42799" lon="-60.884">
        <ele>33</ele>
        <time>2016-06-05T14:04:14.903Z</time>
      </trkpt>
      <trkpt lat="14.428" lon="-60.88399">
        <ele>33</ele>
        <time>2016-06-05T14:04:15.905Z</time>
      </trkpt>
      <trkpt lat="14.42802" lon="-60.88399">
        <ele>33</ele>
        <time>2016-06-05T14:04:17.896Z</time>
      </trkpt>
      <trkpt lat="14.42803" lon="-60.88397">
        <ele>32</ele>
        <time>2016-06-05T14:04:18.895Z</time>
      </trkpt>
      <trkpt lat="14.42805" lon="-60.88396">
        <ele>33</ele>
        <time>2016-06-05T14:04:20.900Z</time>
      </trkpt>
      <trkpt lat="14.42808" lon="-60.88394">
        <ele>33</ele>
        <time>2016-06-05T14:04:21.897Z</time>
      </trkpt>
      <trkpt lat="14.4281" lon="-60.88394">
        <ele>32</ele>
        <time>2016-06-05T14:04:22.898Z</time>
      </trkpt>
      <trkpt lat="14.42812" lon="-60.88393">
        <ele>32</ele>
        <time>2016-06-05T14:04:23.898Z</time>
      </trkpt>
      <trkpt lat="14.42815" lon="-60.88391">
        <ele>32</ele>
        <time>2016-06-05T14:04:24.897Z</time>
      </trkpt>
      <trkpt lat="14.42818" lon="-60.88389">
        <ele>32</ele>
        <time>2016-06-05T14:04:26.897Z</time>
      </trkpt>
      <trkpt lat="14.4282" lon="-60.88388">
        <ele>32</ele>
        <time>2016-06-05T14:04:27.899Z</time>
      </trkpt>
      <trkpt lat="14.4282" lon="-60.88386">
        <ele>32</ele>
        <time>2016-06-05T14:04:28.898Z</time>
      </trkpt>
      <trkpt lat="14.42823" lon="-60.88386">
        <ele>33</ele>
        <time>2016-06-05T14:04:29.900Z</time>
      </trkpt>
      <trkpt lat="14.42823" lon="-60.88384">
        <ele>33</ele>
        <time>2016-06-05T14:04:30.901Z</time>
      </trkpt>
      <trkpt lat="14.42824" lon="-60.88382">
        <ele>34</ele>
        <time>2016-06-05T14:04:31.903Z</time>
      </trkpt>
      <trkpt lat="14.42825" lon="-60.88381">
        <ele>34</ele>
        <time>2016-06-05T14:04:32.904Z</time>
      </trkpt>
      <trkpt lat="14.42826" lon="-60.88379">
        <ele>33</ele>
        <time>2016-06-05T14:04:33.898Z</time>
      </trkpt>
      <trkpt lat="14.42828" lon="-60.88378">
        <ele>33</ele>
        <time>2016-06-05T14:04:34.897Z</time>
      </trkpt>
      <trkpt lat="14.4283" lon="-60.88376">
        <ele>32</ele>
        <time>2016-06-05T14:04:35.898Z</time>
      </trkpt>
      <trkpt lat="14.42831" lon="-60.88375">
        <ele>31</ele>
        <time>2016-06-05T14:04:36.899Z</time>
      </trkpt>
      <trkpt lat="14.42833" lon="-60.88373">
        <ele>30</ele>
        <time>2016-06-05T14:04:37.899Z</time>
      </trkpt>
      <trkpt lat="14.42834" lon="-60.88371">
        <ele>30</ele>
        <time>2016-06-05T14:04:38.901Z</time>
      </trkpt>
      <trkpt lat="14.42835" lon="-60.88371">
        <ele>30</ele>
        <time>2016-06-05T14:04:39.905Z</time>
      </trkpt>
      <trkpt lat="14.42837" lon="-60.88369">
        <ele>30</ele>
        <time>2016-06-05T14:04:40.904Z</time>
      </trkpt>
      <trkpt lat="14.42838" lon="-60.88367">
        <ele>29</ele>
        <time>2016-06-05T14:04:41.903Z</time>
      </trkpt>
      <trkpt lat="14.42839" lon="-60.88365">
        <ele>29</ele>
        <time>2016-06-05T14:04:42.904Z</time>
      </trkpt>
      <trkpt lat="14.42841" lon="-60.88364">
        <ele>29</ele>
        <time>2016-06-05T14:04:43.903Z</time>
      </trkpt>
      <trkpt lat="14.42843" lon="-60.88362">
        <ele>29</ele>
        <time>2016-06-05T14:04:44.901Z</time>
      </trkpt>
      <trkpt lat="14.42845" lon="-60.8836">
        <ele>30</ele>
        <time>2016-06-05T14:04:45.902Z</time>
      </trkpt>
      <trkpt lat="14.42846" lon="-60.88358">
        <ele>30</ele>
        <time>2016-06-05T14:04:46.904Z</time>
      </trkpt>
      <trkpt lat="14.42848" lon="-60.88357">
        <ele>30</ele>
        <time>2016-06-05T14:04:47.904Z</time>
      </trkpt>
      <trkpt lat="14.4285" lon="-60.88355">
        <ele>30</ele>
        <time>2016-06-05T14:04:48.900Z</time>
      </trkpt>
      <trkpt lat="14.42852" lon="-60.88353">
        <ele>30</ele>
        <time>2016-06-05T14:04:49.899Z</time>
      </trkpt>
      <trkpt lat="14.42854" lon="-60.88352">
        <ele>30</ele>
        <time>2016-06-05T14:04:50.897Z</time>
      </trkpt>
      <trkpt lat="14.42857" lon="-60.8835">
        <ele>30</ele>
        <time>2016-06-05T14:04:51.897Z</time>
      </trkpt>
      <trkpt lat="14.4286" lon="-60.88349">
        <ele>31</ele>
        <time>2016-06-05T14:04:52.897Z</time>
      </trkpt>
      <trkpt lat="14.42863" lon="-60.88348">
        <ele>31</ele>
        <time>2016-06-05T14:04:53.898Z</time>
      </trkpt>
      <trkpt lat="14.42867" lon="-60.88347">
        <ele>31</ele>
        <time>2016-06-05T14:04:54.900Z</time>
      </trkpt>
      <trkpt lat="14.42871" lon="-60.88348">
        <ele>32</ele>
        <time>2016-06-05T14:04:55.907Z</time>
      </trkpt>
      <trkpt lat="14.42874" lon="-60.88348">
        <ele>31</ele>
        <time>2016-06-05T14:04:56.906Z</time>
      </trkpt>
      <trkpt lat="14.42877" lon="-60.8835">
        <ele>31</ele>
        <time>2016-06-05T14:04:57.902Z</time>
      </trkpt>
      <trkpt lat="14.42882" lon="-60.88352">
        <ele>31</ele>
        <time>2016-06-05T14:04:58.901Z</time>
      </trkpt>
      <trkpt lat="14.42885" lon="-60.88355">
        <ele>31</ele>
        <time>2016-06-05T14:04:59.903Z</time>
      </trkpt>
      <trkpt lat="14.42888" lon="-60.88358">
        <ele>32</ele>
        <time>2016-06-05T14:05:00.902Z</time>
      </trkpt>
      <trkpt lat="14.4289" lon="-60.88361">
        <ele>31</ele>
        <time>2016-06-05T14:05:01.901Z</time>
      </trkpt>
      <trkpt lat="14.42893" lon="-60.88363">
        <ele>30</ele>
        <time>2016-06-05T14:05:02.902Z</time>
      </trkpt>
      <trkpt lat="14.42893" lon="-60.88367">
        <ele>31</ele>
        <time>2016-06-05T14:05:03.903Z</time>
      </trkpt>
      <trkpt lat="14.42895" lon="-60.8837">
        <ele>31</ele>
        <time>2016-06-05T14:05:04.903Z</time>
      </trkpt>
      <trkpt lat="14.42896" lon="-60.88373">
        <ele>31</ele>
        <time>2016-06-05T14:05:05.905Z</time>
      </trkpt>
      <trkpt lat="14.42897" lon="-60.88375">
        <ele>31</ele>
        <time>2016-06-05T14:05:06.903Z</time>
      </trkpt>
      <trkpt lat="14.42899" lon="-60.88377">
        <ele>31</ele>
        <time>2016-06-05T14:05:07.906Z</time>
      </trkpt>
      <trkpt lat="14.42899" lon="-60.88381">
        <ele>32</ele>
        <time>2016-06-05T14:05:08.904Z</time>
      </trkpt>
      <trkpt lat="14.429" lon="-60.88384">
        <ele>31</ele>
        <time>2016-06-05T14:05:09.902Z</time>
      </trkpt>
      <trkpt lat="14.42901" lon="-60.88388">
        <ele>32</ele>
        <time>2016-06-05T14:05:10.903Z</time>
      </trkpt>
      <trkpt lat="14.42903" lon="-60.8839">
        <ele>33</ele>
        <time>2016-06-05T14:05:11.906Z</time>
      </trkpt>
      <trkpt lat="14.42905" lon="-60.88391">
        <ele>32</ele>
        <time>2016-06-05T14:05:12.906Z</time>
      </trkpt>
      <trkpt lat="14.42907" lon="-60.88393">
        <ele>33</ele>
        <time>2016-06-05T14:05:13.901Z</time>
      </trkpt>
      <trkpt lat="14.42908" lon="-60.88395">
        <ele>32</ele>
        <time>2016-06-05T14:05:14.902Z</time>
      </trkpt>
      <trkpt lat="14.42909" lon="-60.884">
        <ele>34</ele>
        <time>2016-06-05T14:05:15.904Z</time>
      </trkpt>
      <trkpt lat="14.4291" lon="-60.88402">
        <ele>34</ele>
        <time>2016-06-05T14:05:16.903Z</time>
      </trkpt>
      <trkpt lat="14.42912" lon="-60.88403">
        <ele>35</ele>
        <time>2016-06-05T14:05:17.903Z</time>
      </trkpt>
      <trkpt lat="14.42914" lon="-60.88404">
        <ele>36</ele>
        <time>2016-06-05T14:05:18.903Z</time>
      </trkpt>
      <trkpt lat="14.42917" lon="-60.88405">
        <ele>35</ele>
        <time>2016-06-05T14:05:19.905Z</time>
      </trkpt>
      <trkpt lat="14.4292" lon="-60.88405">
        <ele>35</ele>
        <time>2016-06-05T14:05:20.900Z</time>
      </trkpt>
      <trkpt lat="14.42922" lon="-60.88407">
        <ele>35</ele>
        <time>2016-06-05T14:05:21.902Z</time>
      </trkpt>
      <trkpt lat="14.42926" lon="-60.88406">
        <ele>35</ele>
        <time>2016-06-05T14:05:22.903Z</time>
      </trkpt>
      <trkpt lat="14.42931" lon="-60.88405">
        <ele>34</ele>
        <time>2016-06-05T14:05:23.904Z</time>
      </trkpt>
      <trkpt lat="14.42936" lon="-60.88404">
        <ele>33</ele>
        <time>2016-06-05T14:05:24.904Z</time>
      </trkpt>
      <trkpt lat="14.42941" lon="-60.88402">
        <ele>33</ele>
        <time>2016-06-05T14:05:25.903Z</time>
      </trkpt>
      <trkpt lat="14.42947" lon="-60.88401">
        <ele>32</ele>
        <time>2016-06-05T14:05:26.903Z</time>
      </trkpt>
      <trkpt lat="14.42954" lon="-60.88398">
        <ele>31</ele>
        <time>2016-06-05T14:05:27.900Z</time>
      </trkpt>
      <trkpt lat="14.4296" lon="-60.88395">
        <ele>30</ele>
        <time>2016-06-05T14:05:28.900Z</time>
      </trkpt>
      <trkpt lat="14.42968" lon="-60.88393">
        <ele>29</ele>
        <time>2016-06-05T14:05:29.903Z</time>
      </trkpt>
      <trkpt lat="14.42976" lon="-60.8839">
        <ele>27</ele>
        <time>2016-06-05T14:05:30.903Z</time>
      </trkpt>
      <trkpt lat="14.42985" lon="-60.88388">
        <ele>25</ele>
        <time>2016-06-05T14:05:31.902Z</time>
      </trkpt>
      <trkpt lat="14.42993" lon="-60.88385">
        <ele>24</ele>
        <time>2016-06-05T14:05:32.902Z</time>
      </trkpt>
      <trkpt lat="14.43001" lon="-60.88384">
        <ele>23</ele>
        <time>2016-06-05T14:05:33.904Z</time>
      </trkpt>
      <trkpt lat="14.43007" lon="-60.88384">
        <ele>21</ele>
        <time>2016-06-05T14:05:34.904Z</time>
      </trkpt>
      <trkpt lat="14.43013" lon="-60.88386">
        <ele>20</ele>
        <time>2016-06-05T14:05:35.907Z</time>
      </trkpt>
      <trkpt lat="14.43018" lon="-60.8839">
        <ele>20</ele>
        <time>2016-06-05T14:05:36.902Z</time>
      </trkpt>
      <trkpt lat="14.43023" lon="-60.88393">
        <ele>18</ele>
        <time>2016-06-05T14:05:37.903Z</time>
      </trkpt>
      <trkpt lat="14.43028" lon="-60.88399">
        <ele>17</ele>
        <time>2016-06-05T14:05:38.907Z</time>
      </trkpt>
      <trkpt lat="14.43032" lon="-60.88406">
        <ele>16</ele>
        <time>2016-06-05T14:05:39.904Z</time>
      </trkpt>
      <trkpt lat="14.43036" lon="-60.88414">
        <ele>15</ele>
        <time>2016-06-05T14:05:40.899Z</time>
      </trkpt>
      <trkpt lat="14.4304" lon="-60.88422">
        <ele>15</ele>
        <time>2016-06-05T14:05:41.897Z</time>
      </trkpt>
      <trkpt lat="14.43044" lon="-60.88431">
        <ele>13</ele>
        <time>2016-06-05T14:05:42.898Z</time>
      </trkpt>
      <trkpt lat="14.43048" lon="-60.88438">
        <ele>13</ele>
        <time>2016-06-05T14:05:43.898Z</time>
      </trkpt>
      <trkpt lat="14.43053" lon="-60.88444">
        <ele>13</ele>
        <time>2016-06-05T14:05:44.901Z</time>
      </trkpt>
      <trkpt lat="14.43057" lon="-60.88449">
        <ele>13</ele>
        <time>2016-06-05T14:05:45.898Z</time>
      </trkpt>
      <trkpt lat="14.43064" lon="-60.88452">
        <ele>13</ele>
        <time>2016-06-05T14:05:46.895Z</time>
      </trkpt>
      <trkpt lat="14.43071" lon="-60.88454">
        <ele>14</ele>
        <time>2016-06-05T14:05:47.899Z</time>
      </trkpt>
      <trkpt lat="14.43078" lon="-60.88455">
        <ele>15</ele>
        <time>2016-06-05T14:05:48.898Z</time>
      </trkpt>
      <trkpt lat="14.43085" lon="-60.88456">
        <ele>16</ele>
        <time>2016-06-05T14:05:49.899Z</time>
      </trkpt>
      <trkpt lat="14.43091" lon="-60.88457">
        <ele>15</ele>
        <time>2016-06-05T14:05:50.898Z</time>
      </trkpt>
      <trkpt lat="14.43098" lon="-60.88458">
        <ele>15</ele>
        <time>2016-06-05T14:05:51.899Z</time>
      </trkpt>
      <trkpt lat="14.43104" lon="-60.88457">
        <ele>17</ele>
        <time>2016-06-05T14:05:52.901Z</time>
      </trkpt>
      <trkpt lat="14.43109" lon="-60.88456">
        <ele>16</ele>
        <time>2016-06-05T14:05:53.901Z</time>
      </trkpt>
      <trkpt lat="14.43115" lon="-60.88455">
        <ele>17</ele>
        <time>2016-06-05T14:05:54.903Z</time>
      </trkpt>
      <trkpt lat="14.4312" lon="-60.88455">
        <ele>18</ele>
        <time>2016-06-05T14:05:55.903Z</time>
      </trkpt>
      <trkpt lat="14.43126" lon="-60.88455">
        <ele>18</ele>
        <time>2016-06-05T14:05:56.897Z</time>
      </trkpt>
      <trkpt lat="14.4313" lon="-60.88453">
        <ele>18</ele>
        <time>2016-06-05T14:05:57.896Z</time>
      </trkpt>
      <trkpt lat="14.43136" lon="-60.88451">
        <ele>17</ele>
        <time>2016-06-05T14:05:58.898Z</time>
      </trkpt>
      <trkpt lat="14.4314" lon="-60.88449">
        <ele>18</ele>
        <time>2016-06-05T14:05:59.897Z</time>
      </trkpt>
      <trkpt lat="14.43144" lon="-60.88447">
        <ele>18</ele>
        <time>2016-06-05T14:06:00.900Z</time>
      </trkpt>
      <trkpt lat="14.43148" lon="-60.88445">
        <ele>20</ele>
        <time>2016-06-05T14:06:01.902Z</time>
      </trkpt>
      <trkpt lat="14.43151" lon="-60.88444">
        <ele>20</ele>
        <time>2016-06-05T14:06:02.905Z</time>
      </trkpt>
      <trkpt lat="14.43155" lon="-60.88442">
        <ele>21</ele>
        <time>2016-06-05T14:06:03.906Z</time>
      </trkpt>
      <trkpt lat="14.43158" lon="-60.88441">
        <ele>21</ele>
        <time>2016-06-05T14:06:04.907Z</time>
      </trkpt>
      <trkpt lat="14.43161" lon="-60.88439">
        <ele>22</ele>
        <time>2016-06-05T14:06:05.906Z</time>
      </trkpt>
      <trkpt lat="14.43164" lon="-60.88437">
        <ele>21</ele>
        <time>2016-06-05T14:06:06.903Z</time>
      </trkpt>
      <trkpt lat="14.43166" lon="-60.88434">
        <ele>21</ele>
        <time>2016-06-05T14:06:07.903Z</time>
      </trkpt>
      <trkpt lat="14.43169" lon="-60.88432">
        <ele>20</ele>
        <time>2016-06-05T14:06:08.903Z</time>
      </trkpt>
      <trkpt lat="14.43171" lon="-60.8843">
        <ele>20</ele>
        <time>2016-06-05T14:06:09.905Z</time>
      </trkpt>
      <trkpt lat="14.43174" lon="-60.88426">
        <ele>19</ele>
        <time>2016-06-05T14:06:10.903Z</time>
      </trkpt>
      <trkpt lat="14.43178" lon="-60.88423">
        <ele>19</ele>
        <time>2016-06-05T14:06:11.906Z</time>
      </trkpt>
      <trkpt lat="14.43181" lon="-60.88419">
        <ele>18</ele>
        <time>2016-06-05T14:06:12.906Z</time>
      </trkpt>
      <trkpt lat="14.43184" lon="-60.88414">
        <ele>17</ele>
        <time>2016-06-05T14:06:13.904Z</time>
      </trkpt>
      <trkpt lat="14.43186" lon="-60.88408">
        <ele>16</ele>
        <time>2016-06-05T14:06:14.905Z</time>
      </trkpt>
      <trkpt lat="14.43189" lon="-60.88401">
        <ele>15</ele>
        <time>2016-06-05T14:06:15.908Z</time>
      </trkpt>
      <trkpt lat="14.43191" lon="-60.88393">
        <ele>15</ele>
        <time>2016-06-05T14:06:16.908Z</time>
      </trkpt>
      <trkpt lat="14.43193" lon="-60.88384">
        <ele>12</ele>
        <time>2016-06-05T14:06:17.904Z</time>
      </trkpt>
      <trkpt lat="14.43195" lon="-60.88374">
        <ele>12</ele>
        <time>2016-06-05T14:06:18.904Z</time>
      </trkpt>
      <trkpt lat="14.43197" lon="-60.88366">
        <ele>12</ele>
        <time>2016-06-05T14:06:19.899Z</time>
      </trkpt>
      <trkpt lat="14.432" lon="-60.88358">
        <ele>11</ele>
        <time>2016-06-05T14:06:20.902Z</time>
      </trkpt>
      <trkpt lat="14.43206" lon="-60.88352">
        <ele>10</ele>
        <time>2016-06-05T14:06:21.904Z</time>
      </trkpt>
      <trkpt lat="14.4321" lon="-60.88346">
        <ele>11</ele>
        <time>2016-06-05T14:06:22.903Z</time>
      </trkpt>
      <trkpt lat="14.43215" lon="-60.8834">
        <ele>11</ele>
        <time>2016-06-05T14:06:23.901Z</time>
      </trkpt>
      <trkpt lat="14.4322" lon="-60.88334">
        <ele>10</ele>
        <time>2016-06-05T14:06:24.899Z</time>
      </trkpt>
      <trkpt lat="14.43225" lon="-60.88329">
        <ele>11</ele>
        <time>2016-06-05T14:06:25.897Z</time>
      </trkpt>
      <trkpt lat="14.43229" lon="-60.88325">
        <ele>11</ele>
        <time>2016-06-05T14:06:26.897Z</time>
      </trkpt>
      <trkpt lat="14.43235" lon="-60.88321">
        <ele>11</ele>
        <time>2016-06-05T14:06:27.896Z</time>
      </trkpt>
      <trkpt lat="14.4324" lon="-60.88318">
        <ele>11</ele>
        <time>2016-06-05T14:06:28.900Z</time>
      </trkpt>
      <trkpt lat="14.43246" lon="-60.88315">
        <ele>10</ele>
        <time>2016-06-05T14:06:29.903Z</time>
      </trkpt>
      <trkpt lat="14.43253" lon="-60.88313">
        <ele>11</ele>
        <time>2016-06-05T14:06:30.904Z</time>
      </trkpt>
      <trkpt lat="14.43259" lon="-60.88312">
        <ele>13</ele>
        <time>2016-06-05T14:06:31.903Z</time>
      </trkpt>
      <trkpt lat="14.43264" lon="-60.8831">
        <ele>14</ele>
        <time>2016-06-05T14:06:32.903Z</time>
      </trkpt>
      <trkpt lat="14.43269" lon="-60.88308">
        <ele>15</ele>
        <time>2016-06-05T14:06:33.905Z</time>
      </trkpt>
      <trkpt lat="14.43273" lon="-60.88307">
        <ele>16</ele>
        <time>2016-06-05T14:06:34.904Z</time>
      </trkpt>
      <trkpt lat="14.43276" lon="-60.88305">
        <ele>17</ele>
        <time>2016-06-05T14:06:35.902Z</time>
      </trkpt>
      <trkpt lat="14.43279" lon="-60.88304">
        <ele>17</ele>
        <time>2016-06-05T14:06:36.905Z</time>
      </trkpt>
      <trkpt lat="14.43282" lon="-60.88303">
        <ele>18</ele>
        <time>2016-06-05T14:06:37.904Z</time>
      </trkpt>
      <trkpt lat="14.43284" lon="-60.88302">
        <ele>17</ele>
        <time>2016-06-05T14:06:38.905Z</time>
      </trkpt>
      <trkpt lat="14.43288" lon="-60.88301">
        <ele>17</ele>
        <time>2016-06-05T14:06:39.906Z</time>
      </trkpt>
      <trkpt lat="14.4329" lon="-60.883">
        <ele>17</ele>
        <time>2016-06-05T14:06:40.906Z</time>
      </trkpt>
      <trkpt lat="14.43291" lon="-60.88298">
        <ele>17</ele>
        <time>2016-06-05T14:06:41.905Z</time>
      </trkpt>
      <trkpt lat="14.43294" lon="-60.88298">
        <ele>17</ele>
        <time>2016-06-05T14:06:42.904Z</time>
      </trkpt>
      <trkpt lat="14.43296" lon="-60.88297">
        <ele>17</ele>
        <time>2016-06-05T14:06:43.903Z</time>
      </trkpt>
      <trkpt lat="14.43298" lon="-60.88295">
        <ele>17</ele>
        <time>2016-06-05T14:06:44.904Z</time>
      </trkpt>
      <trkpt lat="14.433" lon="-60.88293">
        <ele>17</ele>
        <time>2016-06-05T14:06:45.904Z</time>
      </trkpt>
      <trkpt lat="14.43302" lon="-60.88289">
        <ele>16</ele>
        <time>2016-06-05T14:06:46.904Z</time>
      </trkpt>
      <trkpt lat="14.43304" lon="-60.88284">
        <ele>15</ele>
        <time>2016-06-05T14:06:47.903Z</time>
      </trkpt>
      <trkpt lat="14.43306" lon="-60.88277">
        <ele>15</ele>
        <time>2016-06-05T14:06:48.905Z</time>
      </trkpt>
      <trkpt lat="14.43305" lon="-60.8827">
        <ele>14</ele>
        <time>2016-06-05T14:06:49.904Z</time>
      </trkpt>
      <trkpt lat="14.43302" lon="-60.88263">
        <ele>13</ele>
        <time>2016-06-05T14:06:50.904Z</time>
      </trkpt>
      <trkpt lat="14.43299" lon="-60.88257">
        <ele>11</ele>
        <time>2016-06-05T14:06:51.906Z</time>
      </trkpt>
      <trkpt lat="14.43296" lon="-60.88251">
        <ele>10</ele>
        <time>2016-06-05T14:06:52.902Z</time>
      </trkpt>
      <trkpt lat="14.43293" lon="-60.88247">
        <ele>10</ele>
        <time>2016-06-05T14:06:53.902Z</time>
      </trkpt>
      <trkpt lat="14.43291" lon="-60.88243">
        <ele>9</ele>
        <time>2016-06-05T14:06:54.902Z</time>
      </trkpt>
      <trkpt lat="14.4329" lon="-60.88241">
        <ele>9</ele>
        <time>2016-06-05T14:06:55.904Z</time>
      </trkpt>
      <trkpt lat="14.43288" lon="-60.8824">
        <ele>9</ele>
        <time>2016-06-05T14:06:56.904Z</time>
      </trkpt>
      <trkpt lat="14.43287" lon="-60.88238">
        <ele>9</ele>
        <time>2016-06-05T14:06:57.907Z</time>
      </trkpt>
      <trkpt lat="14.43286" lon="-60.88235">
        <ele>10</ele>
        <time>2016-06-05T14:06:58.905Z</time>
      </trkpt>
      <trkpt lat="14.43285" lon="-60.88232">
        <ele>10</ele>
        <time>2016-06-05T14:06:59.910Z</time>
      </trkpt>
      <trkpt lat="14.43283" lon="-60.88228">
        <ele>9</ele>
        <time>2016-06-05T14:07:00.905Z</time>
      </trkpt>
      <trkpt lat="14.43282" lon="-60.88225">
        <ele>9</ele>
        <time>2016-06-05T14:07:01.907Z</time>
      </trkpt>
      <trkpt lat="14.43281" lon="-60.88221">
        <ele>9</ele>
        <time>2016-06-05T14:07:02.906Z</time>
      </trkpt>
      <trkpt lat="14.4328" lon="-60.88217">
        <ele>8</ele>
        <time>2016-06-05T14:07:03.903Z</time>
      </trkpt>
      <trkpt lat="14.43278" lon="-60.88214">
        <ele>8</ele>
        <time>2016-06-05T14:07:04.905Z</time>
      </trkpt>
      <trkpt lat="14.43276" lon="-60.88211">
        <ele>7</ele>
        <time>2016-06-05T14:07:05.906Z</time>
      </trkpt>
      <trkpt lat="14.43274" lon="-60.88209">
        <ele>8</ele>
        <time>2016-06-05T14:07:06.905Z</time>
      </trkpt>
      <trkpt lat="14.43273" lon="-60.88206">
        <ele>9</ele>
        <time>2016-06-05T14:07:07.905Z</time>
      </trkpt>
      <trkpt lat="14.43272" lon="-60.88203">
        <ele>9</ele>
        <time>2016-06-05T14:07:08.904Z</time>
      </trkpt>
      <trkpt lat="14.43271" lon="-60.882">
        <ele>9</ele>
        <time>2016-06-05T14:07:09.906Z</time>
      </trkpt>
      <trkpt lat="14.4327" lon="-60.88196">
        <ele>9</ele>
        <time>2016-06-05T14:07:10.902Z</time>
      </trkpt>
      <trkpt lat="14.43269" lon="-60.88193">
        <ele>9</ele>
        <time>2016-06-05T14:07:11.904Z</time>
      </trkpt>
      <trkpt lat="14.43267" lon="-60.88191">
        <ele>9</ele>
        <time>2016-06-05T14:07:12.902Z</time>
      </trkpt>
      <trkpt lat="14.43266" lon="-60.88187">
        <ele>9</ele>
        <time>2016-06-05T14:07:13.903Z</time>
      </trkpt>
      <trkpt lat="14.43264" lon="-60.88185">
        <ele>9</ele>
        <time>2016-06-05T14:07:14.902Z</time>
      </trkpt>
      <trkpt lat="14.43263" lon="-60.88182">
        <ele>8</ele>
        <time>2016-06-05T14:07:15.902Z</time>
      </trkpt>
      <trkpt lat="14.43262" lon="-60.8818">
        <ele>9</ele>
        <time>2016-06-05T14:07:16.904Z</time>
      </trkpt>
      <trkpt lat="14.43261" lon="-60.88177">
        <ele>8</ele>
        <time>2016-06-05T14:07:17.906Z</time>
      </trkpt>
      <trkpt lat="14.43259" lon="-60.88175">
        <ele>8</ele>
        <time>2016-06-05T14:07:18.903Z</time>
      </trkpt>
      <trkpt lat="14.43259" lon="-60.88173">
        <ele>7</ele>
        <time>2016-06-05T14:07:19.903Z</time>
      </trkpt>
      <trkpt lat="14.43258" lon="-60.8817">
        <ele>6</ele>
        <time>2016-06-05T14:07:20.903Z</time>
      </trkpt>
      <trkpt lat="14.43258" lon="-60.88168">
        <ele>6</ele>
        <time>2016-06-05T14:07:21.903Z</time>
      </trkpt>
      <trkpt lat="14.43259" lon="-60.88166">
        <ele>6</ele>
        <time>2016-06-05T14:07:22.903Z</time>
      </trkpt>
      <trkpt lat="14.43262" lon="-60.88163">
        <ele>7</ele>
        <time>2016-06-05T14:07:23.902Z</time>
      </trkpt>
      <trkpt lat="14.43266" lon="-60.88162">
        <ele>7</ele>
        <time>2016-06-05T14:07:24.902Z</time>
      </trkpt>
      <trkpt lat="14.43269" lon="-60.88161">
        <ele>8</ele>
        <time>2016-06-05T14:07:25.905Z</time>
      </trkpt>
      <trkpt lat="14.43273" lon="-60.88159">
        <ele>8</ele>
        <time>2016-06-05T14:07:26.905Z</time>
      </trkpt>
      <trkpt lat="14.43278" lon="-60.88158">
        <ele>8</ele>
        <time>2016-06-05T14:07:27.903Z</time>
      </trkpt>
      <trkpt lat="14.43282" lon="-60.88156">
        <ele>7</ele>
        <time>2016-06-05T14:07:28.903Z</time>
      </trkpt>
      <trkpt lat="14.43288" lon="-60.88156">
        <ele>7</ele>
        <time>2016-06-05T14:07:29.903Z</time>
      </trkpt>
      <trkpt lat="14.43293" lon="-60.88156">
        <ele>7</ele>
        <time>2016-06-05T14:07:30.904Z</time>
      </trkpt>
      <trkpt lat="14.43298" lon="-60.88158">
        <ele>7</ele>
        <time>2016-06-05T14:07:31.902Z</time>
      </trkpt>
      <trkpt lat="14.43302" lon="-60.88159">
        <ele>7</ele>
        <time>2016-06-05T14:07:32.904Z</time>
      </trkpt>
      <trkpt lat="14.43307" lon="-60.88161">
        <ele>7</ele>
        <time>2016-06-05T14:07:33.903Z</time>
      </trkpt>
      <trkpt lat="14.43313" lon="-60.88161">
        <ele>7</ele>
        <time>2016-06-05T14:07:34.903Z</time>
      </trkpt>
      <trkpt lat="14.43318" lon="-60.88161">
        <ele>7</ele>
        <time>2016-06-05T14:07:35.902Z</time>
      </trkpt>
      <trkpt lat="14.43322" lon="-60.8816">
        <ele>8</ele>
        <time>2016-06-05T14:07:36.904Z</time>
      </trkpt>
      <trkpt lat="14.43327" lon="-60.88159">
        <ele>8</ele>
        <time>2016-06-05T14:07:37.900Z</time>
      </trkpt>
      <trkpt lat="14.43332" lon="-60.88158">
        <ele>8</ele>
        <time>2016-06-05T14:07:38.901Z</time>
      </trkpt>
      <trkpt lat="14.43337" lon="-60.88156">
        <ele>8</ele>
        <time>2016-06-05T14:07:39.901Z</time>
      </trkpt>
      <trkpt lat="14.43341" lon="-60.88155">
        <ele>8</ele>
        <time>2016-06-05T14:07:40.896Z</time>
      </trkpt>
      <trkpt lat="14.43345" lon="-60.88154">
        <ele>9</ele>
        <time>2016-06-05T14:07:41.898Z</time>
      </trkpt>
      <trkpt lat="14.4335" lon="-60.88152">
        <ele>9</ele>
        <time>2016-06-05T14:07:42.897Z</time>
      </trkpt>
      <trkpt lat="14.43353" lon="-60.8815">
        <ele>9</ele>
        <time>2016-06-05T14:07:43.898Z</time>
      </trkpt>
      <trkpt lat="14.43356" lon="-60.88148">
        <ele>9</ele>
        <time>2016-06-05T14:07:44.900Z</time>
      </trkpt>
      <trkpt lat="14.43358" lon="-60.88148">
        <ele>11</ele>
        <time>2016-06-05T14:07:49.905Z</time>
      </trkpt>
      <trkpt lat="14.4336" lon="-60.88148">
        <ele>12</ele>
        <time>2016-06-05T14:07:51.902Z</time>
      </trkpt>
      <trkpt lat="14.43362" lon="-60.88148">
        <ele>12</ele>
        <time>2016-06-05T14:07:52.903Z</time>
      </trkpt>
      <trkpt lat="14.43365" lon="-60.88147">
        <ele>12</ele>
        <time>2016-06-05T14:07:53.904Z</time>
      </trkpt>
      <trkpt lat="14.43367" lon="-60.88146">
        <ele>12</ele>
        <time>2016-06-05T14:07:54.902Z</time>
      </trkpt>
      <trkpt lat="14.4337" lon="-60.88145">
        <ele>12</ele>
        <time>2016-06-05T14:07:55.904Z</time>
      </trkpt>
      <trkpt lat="14.43373" lon="-60.88144">
        <ele>12</ele>
        <time>2016-06-05T14:07:56.904Z</time>
      </trkpt>
      <trkpt lat="14.43376" lon="-60.88144">
        <ele>12</ele>
        <time>2016-06-05T14:07:57.902Z</time>
      </trkpt>
      <trkpt lat="14.43379" lon="-60.88143">
        <ele>12</ele>
        <time>2016-06-05T14:07:58.903Z</time>
      </trkpt>
      <trkpt lat="14.43381" lon="-60.88141">
        <ele>12</ele>
        <time>2016-06-05T14:07:59.903Z</time>
      </trkpt>
      <trkpt lat="14.43385" lon="-60.8814">
        <ele>12</ele>
        <time>2016-06-05T14:08:00.901Z</time>
      </trkpt>
      <trkpt lat="14.43388" lon="-60.88139">
        <ele>13</ele>
        <time>2016-06-05T14:08:01.902Z</time>
      </trkpt>
      <trkpt lat="14.43391" lon="-60.88138">
        <ele>12</ele>
        <time>2016-06-05T14:08:02.902Z</time>
      </trkpt>
      <trkpt lat="14.43394" lon="-60.88138">
        <ele>13</ele>
        <time>2016-06-05T14:08:03.904Z</time>
      </trkpt>
      <trkpt lat="14.43397" lon="-60.88137">
        <ele>13</ele>
        <time>2016-06-05T14:08:04.903Z</time>
      </trkpt>
      <trkpt lat="14.43401" lon="-60.88136">
        <ele>13</ele>
        <time>2016-06-05T14:08:05.903Z</time>
      </trkpt>
      <trkpt lat="14.43404" lon="-60.88135">
        <ele>13</ele>
        <time>2016-06-05T14:08:06.903Z</time>
      </trkpt>
      <trkpt lat="14.43408" lon="-60.88133">
        <ele>13</ele>
        <time>2016-06-05T14:08:07.904Z</time>
      </trkpt>
      <trkpt lat="14.43411" lon="-60.88132">
        <ele>12</ele>
        <time>2016-06-05T14:08:08.903Z</time>
      </trkpt>
      <trkpt lat="14.43415" lon="-60.88131">
        <ele>13</ele>
        <time>2016-06-05T14:08:09.902Z</time>
      </trkpt>
      <trkpt lat="14.43419" lon="-60.88129">
        <ele>12</ele>
        <time>2016-06-05T14:08:10.904Z</time>
      </trkpt>
      <trkpt lat="14.43423" lon="-60.88129">
        <ele>13</ele>
        <time>2016-06-05T14:08:11.902Z</time>
      </trkpt>
      <trkpt lat="14.43427" lon="-60.88128">
        <ele>13</ele>
        <time>2016-06-05T14:08:12.902Z</time>
      </trkpt>
      <trkpt lat="14.43432" lon="-60.88127">
        <ele>12</ele>
        <time>2016-06-05T14:08:13.904Z</time>
      </trkpt>
      <trkpt lat="14.43436" lon="-60.88125">
        <ele>12</ele>
        <time>2016-06-05T14:08:14.905Z</time>
      </trkpt>
      <trkpt lat="14.4344" lon="-60.88124">
        <ele>13</ele>
        <time>2016-06-05T14:08:15.902Z</time>
      </trkpt>
      <trkpt lat="14.43445" lon="-60.88123">
        <ele>11</ele>
        <time>2016-06-05T14:08:16.899Z</time>
      </trkpt>
      <trkpt lat="14.43449" lon="-60.88122">
        <ele>12</ele>
        <time>2016-06-05T14:08:17.896Z</time>
      </trkpt>
      <trkpt lat="14.43453" lon="-60.8812">
        <ele>12</ele>
        <time>2016-06-05T14:08:18.896Z</time>
      </trkpt>
      <trkpt lat="14.43457" lon="-60.8812">
        <ele>12</ele>
        <time>2016-06-05T14:08:19.898Z</time>
      </trkpt>
      <trkpt lat="14.43461" lon="-60.88119">
        <ele>12</ele>
        <time>2016-06-05T14:08:20.897Z</time>
      </trkpt>
      <trkpt lat="14.43465" lon="-60.88117">
        <ele>14</ele>
        <time>2016-06-05T14:08:21.898Z</time>
      </trkpt>
      <trkpt lat="14.43469" lon="-60.88115">
        <ele>14</ele>
        <time>2016-06-05T14:08:22.900Z</time>
      </trkpt>
      <trkpt lat="14.43474" lon="-60.88114">
        <ele>14</ele>
        <time>2016-06-05T14:08:23.901Z</time>
      </trkpt>
      <trkpt lat="14.43479" lon="-60.88113">
        <ele>12</ele>
        <time>2016-06-05T14:08:24.900Z</time>
      </trkpt>
      <trkpt lat="14.43484" lon="-60.88111">
        <ele>12</ele>
        <time>2016-06-05T14:08:25.897Z</time>
      </trkpt>
      <trkpt lat="14.43488" lon="-60.88109">
        <ele>12</ele>
        <time>2016-06-05T14:08:26.896Z</time>
      </trkpt>
      <trkpt lat="14.43493" lon="-60.88108">
        <ele>12</ele>
        <time>2016-06-05T14:08:27.895Z</time>
      </trkpt>
      <trkpt lat="14.43498" lon="-60.88106">
        <ele>12</ele>
        <time>2016-06-05T14:08:28.894Z</time>
      </trkpt>
      <trkpt lat="14.43502" lon="-60.88105">
        <ele>11</ele>
        <time>2016-06-05T14:08:29.897Z</time>
      </trkpt>
      <trkpt lat="14.43505" lon="-60.88104">
        <ele>12</ele>
        <time>2016-06-05T14:08:30.896Z</time>
      </trkpt>
      <trkpt lat="14.43508" lon="-60.88103">
        <ele>10</ele>
        <time>2016-06-05T14:08:31.896Z</time>
      </trkpt>
      <trkpt lat="14.43512" lon="-60.88102">
        <ele>10</ele>
        <time>2016-06-05T14:08:32.897Z</time>
      </trkpt>
      <trkpt lat="14.43515" lon="-60.88102">
        <ele>11</ele>
        <time>2016-06-05T14:08:33.895Z</time>
      </trkpt>
      <trkpt lat="14.43519" lon="-60.88101">
        <ele>10</ele>
        <time>2016-06-05T14:08:34.899Z</time>
      </trkpt>
      <trkpt lat="14.43523" lon="-60.88098">
        <ele>9</ele>
        <time>2016-06-05T14:08:35.897Z</time>
      </trkpt>
      <trkpt lat="14.43529" lon="-60.88096">
        <ele>8</ele>
        <time>2016-06-05T14:08:36.896Z</time>
      </trkpt>
      <trkpt lat="14.43534" lon="-60.88094">
        <ele>8</ele>
        <time>2016-06-05T14:08:37.901Z</time>
      </trkpt>
      <trkpt lat="14.43539" lon="-60.88092">
        <ele>7</ele>
        <time>2016-06-05T14:08:38.900Z</time>
      </trkpt>
      <trkpt lat="14.43545" lon="-60.8809">
        <ele>6</ele>
        <time>2016-06-05T14:08:39.902Z</time>
      </trkpt>
      <trkpt lat="14.4355" lon="-60.88088">
        <ele>6</ele>
        <time>2016-06-05T14:08:40.895Z</time>
      </trkpt>
      <trkpt lat="14.43554" lon="-60.88086">
        <ele>6</ele>
        <time>2016-06-05T14:08:41.895Z</time>
      </trkpt>
      <trkpt lat="14.4356" lon="-60.88085">
        <ele>6</ele>
        <time>2016-06-05T14:08:42.894Z</time>
      </trkpt>
      <trkpt lat="14.43565" lon="-60.88083">
        <ele>7</ele>
        <time>2016-06-05T14:08:43.898Z</time>
      </trkpt>
      <trkpt lat="14.43569" lon="-60.88082">
        <ele>8</ele>
        <time>2016-06-05T14:08:44.901Z</time>
      </trkpt>
      <trkpt lat="14.43574" lon="-60.88081">
        <ele>8</ele>
        <time>2016-06-05T14:08:45.902Z</time>
      </trkpt>
      <trkpt lat="14.43577" lon="-60.8808">
        <ele>9</ele>
        <time>2016-06-05T14:08:46.904Z</time>
      </trkpt>
      <trkpt lat="14.4358" lon="-60.88081">
        <ele>11</ele>
        <time>2016-06-05T14:08:47.904Z</time>
      </trkpt>
      <trkpt lat="14.43582" lon="-60.88083">
        <ele>12</ele>
        <time>2016-06-05T14:08:48.905Z</time>
      </trkpt>
      <trkpt lat="14.43585" lon="-60.88084">
        <ele>13</ele>
        <time>2016-06-05T14:08:49.904Z</time>
      </trkpt>
      <trkpt lat="14.43586" lon="-60.88085">
        <ele>13</ele>
        <time>2016-06-05T14:08:50.902Z</time>
      </trkpt>
      <trkpt lat="14.43588" lon="-60.88086">
        <ele>13</ele>
        <time>2016-06-05T14:08:51.906Z</time>
      </trkpt>
      <trkpt lat="14.43589" lon="-60.88088">
        <ele>13</ele>
        <time>2016-06-05T14:08:56.899Z</time>
      </trkpt>
      <trkpt lat="14.43591" lon="-60.88089">
        <ele>12</ele>
        <time>2016-06-05T14:08:58.897Z</time>
      </trkpt>
      <trkpt lat="14.43592" lon="-60.8809">
        <ele>12</ele>
        <time>2016-06-05T14:08:59.899Z</time>
      </trkpt>
      <trkpt lat="14.43594" lon="-60.88093">
        <ele>11</ele>
        <time>2016-06-05T14:09:01.900Z</time>
      </trkpt>
      <trkpt lat="14.43595" lon="-60.88094">
        <ele>12</ele>
        <time>2016-06-05T14:09:02.901Z</time>
      </trkpt>
      <trkpt lat="14.43596" lon="-60.88095">
        <ele>12</ele>
        <time>2016-06-05T14:09:03.902Z</time>
      </trkpt>
      <trkpt lat="14.43599" lon="-60.88096">
        <ele>12</ele>
        <time>2016-06-05T14:09:05.901Z</time>
      </trkpt>
      <trkpt lat="14.43601" lon="-60.88098">
        <ele>13</ele>
        <time>2016-06-05T14:09:07.900Z</time>
      </trkpt>
      <trkpt lat="14.43602" lon="-60.88099">
        <ele>13</ele>
        <time>2016-06-05T14:09:08.900Z</time>
      </trkpt>
      <trkpt lat="14.43603" lon="-60.881">
        <ele>13</ele>
        <time>2016-06-05T14:09:09.900Z</time>
      </trkpt>
      <trkpt lat="14.43606" lon="-60.88102">
        <ele>13</ele>
        <time>2016-06-05T14:09:11.902Z</time>
      </trkpt>
      <trkpt lat="14.43607" lon="-60.88103">
        <ele>13</ele>
        <time>2016-06-05T14:09:12.902Z</time>
      </trkpt>
      <trkpt lat="14.43609" lon="-60.88105">
        <ele>13</ele>
        <time>2016-06-05T14:09:14.904Z</time>
      </trkpt>
      <trkpt lat="14.43611" lon="-60.88106">
        <ele>13</ele>
        <time>2016-06-05T14:09:15.902Z</time>
      </trkpt>
      <trkpt lat="14.43613" lon="-60.88106">
        <ele>13</ele>
        <time>2016-06-05T14:09:17.900Z</time>
      </trkpt>
      <trkpt lat="14.43614" lon="-60.88106">
        <ele>14</ele>
        <time>2016-06-05T14:09:18.901Z</time>
      </trkpt>
      <trkpt lat="14.43616" lon="-60.88107">
        <ele>15</ele>
        <time>2016-06-05T14:09:20.903Z</time>
      </trkpt>
      <trkpt lat="14.43618" lon="-60.88107">
        <ele>14</ele>
        <time>2016-06-05T14:09:21.903Z</time>
      </trkpt>
      <trkpt lat="14.4362" lon="-60.88107">
        <ele>15</ele>
        <time>2016-06-05T14:09:23.902Z</time>
      </trkpt>
      <trkpt lat="14.43621" lon="-60.88107">
        <ele>14</ele>
        <time>2016-06-05T14:09:24.902Z</time>
      </trkpt>
      <trkpt lat="14.43623" lon="-60.88107">
        <ele>15</ele>
        <time>2016-06-05T14:09:26.902Z</time>
      </trkpt>
      <trkpt lat="14.43625" lon="-60.88107">
        <ele>17</ele>
        <time>2016-06-05T14:09:28.905Z</time>
      </trkpt>
      <trkpt lat="14.43627" lon="-60.88108">
        <ele>18</ele>
        <time>2016-06-05T14:09:30.904Z</time>
      </trkpt>
      <trkpt lat="14.43628" lon="-60.88107">
        <ele>18</ele>
        <time>2016-06-05T14:09:31.903Z</time>
      </trkpt>
      <trkpt lat="14.43631" lon="-60.88107">
        <ele>19</ele>
        <time>2016-06-05T14:09:33.904Z</time>
      </trkpt>
      <trkpt lat="14.43635" lon="-60.88106">
        <ele>20</ele>
        <time>2016-06-05T14:09:37.905Z</time>
      </trkpt>
      <trkpt lat="14.43639" lon="-60.88104">
        <ele>20</ele>
        <time>2016-06-05T14:09:41.902Z</time>
      </trkpt>
      <trkpt lat="14.43641" lon="-60.88103">
        <ele>21</ele>
        <time>2016-06-05T14:09:43.903Z</time>
      </trkpt>
      <trkpt lat="14.43643" lon="-60.88103">
        <ele>20</ele>
        <time>2016-06-05T14:09:44.904Z</time>
      </trkpt>
      <trkpt lat="14.43644" lon="-60.88102">
        <ele>21</ele>
        <time>2016-06-05T14:09:45.904Z</time>
      </trkpt>
      <trkpt lat="14.43646" lon="-60.88101">
        <ele>21</ele>
        <time>2016-06-05T14:09:47.906Z</time>
      </trkpt>
      <trkpt lat="14.43648" lon="-60.881">
        <ele>23</ele>
        <time>2016-06-05T14:09:49.902Z</time>
      </trkpt>
      <trkpt lat="14.4365" lon="-60.881">
        <ele>23</ele>
        <time>2016-06-05T14:09:51.902Z</time>
      </trkpt>
      <trkpt lat="14.43651" lon="-60.88099">
        <ele>22</ele>
        <time>2016-06-05T14:09:52.903Z</time>
      </trkpt>
      <trkpt lat="14.43653" lon="-60.88098">
        <ele>21</ele>
        <time>2016-06-05T14:09:54.903Z</time>
      </trkpt>
      <trkpt lat="14.43656" lon="-60.88097">
        <ele>21</ele>
        <time>2016-06-05T14:09:56.902Z</time>
      </trkpt>
      <trkpt lat="14.43658" lon="-60.88096">
        <ele>21</ele>
        <time>2016-06-05T14:09:58.903Z</time>
      </trkpt>
      <trkpt lat="14.4366" lon="-60.88096">
        <ele>21</ele>
        <time>2016-06-05T14:09:59.902Z</time>
      </trkpt>
      <trkpt lat="14.43662" lon="-60.88094">
        <ele>21</ele>
        <time>2016-06-05T14:10:01.903Z</time>
      </trkpt>
      <trkpt lat="14.43663" lon="-60.88093">
        <ele>22</ele>
        <time>2016-06-05T14:10:03.903Z</time>
      </trkpt>
      <trkpt lat="14.43665" lon="-60.88093">
        <ele>21</ele>
        <time>2016-06-05T14:10:04.899Z</time>
      </trkpt>
      <trkpt lat="14.43667" lon="-60.88092">
        <ele>21</ele>
        <time>2016-06-05T14:10:05.899Z</time>
      </trkpt>
      <trkpt lat="14.43669" lon="-60.88091">
        <ele>21</ele>
        <time>2016-06-05T14:10:07.903Z</time>
      </trkpt>
      <trkpt lat="14.43673" lon="-60.88089">
        <ele>21</ele>
        <time>2016-06-05T14:10:11.904Z</time>
      </trkpt>
      <trkpt lat="14.43675" lon="-60.88087">
        <ele>20</ele>
        <time>2016-06-05T14:10:12.904Z</time>
      </trkpt>
      <trkpt lat="14.43677" lon="-60.88086">
        <ele>20</ele>
        <time>2016-06-05T14:10:13.903Z</time>
      </trkpt>
      <trkpt lat="14.43681" lon="-60.88085">
        <ele>20</ele>
        <time>2016-06-05T14:10:14.904Z</time>
      </trkpt>
      <trkpt lat="14.43684" lon="-60.88083">
        <ele>20</ele>
        <time>2016-06-05T14:10:15.903Z</time>
      </trkpt>
      <trkpt lat="14.43687" lon="-60.88081">
        <ele>21</ele>
        <time>2016-06-05T14:10:16.903Z</time>
      </trkpt>
      <trkpt lat="14.4369" lon="-60.8808">
        <ele>20</ele>
        <time>2016-06-05T14:10:17.913Z</time>
      </trkpt>
      <trkpt lat="14.43694" lon="-60.88078">
        <ele>20</ele>
        <time>2016-06-05T14:10:18.904Z</time>
      </trkpt>
      <trkpt lat="14.43697" lon="-60.88076">
        <ele>20</ele>
        <time>2016-06-05T14:10:19.903Z</time>
      </trkpt>
      <trkpt lat="14.437" lon="-60.88074">
        <ele>20</ele>
        <time>2016-06-05T14:10:20.902Z</time>
      </trkpt>
      <trkpt lat="14.43703" lon="-60.88073">
        <ele>20</ele>
        <time>2016-06-05T14:10:21.902Z</time>
      </trkpt>
      <trkpt lat="14.43706" lon="-60.88072">
        <ele>20</ele>
        <time>2016-06-05T14:10:22.904Z</time>
      </trkpt>
      <trkpt lat="14.43708" lon="-60.88071">
        <ele>20</ele>
        <time>2016-06-05T14:10:23.910Z</time>
      </trkpt>
      <trkpt lat="14.43712" lon="-60.8807">
        <ele>20</ele>
        <time>2016-06-05T14:10:24.903Z</time>
      </trkpt>
      <trkpt lat="14.43714" lon="-60.88068">
        <ele>20</ele>
        <time>2016-06-05T14:10:25.904Z</time>
      </trkpt>
      <trkpt lat="14.43717" lon="-60.88067">
        <ele>20</ele>
        <time>2016-06-05T14:10:26.903Z</time>
      </trkpt>
      <trkpt lat="14.4372" lon="-60.88065">
        <ele>21</ele>
        <time>2016-06-05T14:10:27.902Z</time>
      </trkpt>
      <trkpt lat="14.43723" lon="-60.88064">
        <ele>21</ele>
        <time>2016-06-05T14:10:28.901Z</time>
      </trkpt>
      <trkpt lat="14.43725" lon="-60.88062">
        <ele>21</ele>
        <time>2016-06-05T14:10:29.901Z</time>
      </trkpt>
      <trkpt lat="14.43728" lon="-60.88061">
        <ele>21</ele>
        <time>2016-06-05T14:10:30.902Z</time>
      </trkpt>
      <trkpt lat="14.43731" lon="-60.8806">
        <ele>21</ele>
        <time>2016-06-05T14:10:31.904Z</time>
      </trkpt>
      <trkpt lat="14.43734" lon="-60.88058">
        <ele>21</ele>
        <time>2016-06-05T14:10:32.903Z</time>
      </trkpt>
      <trkpt lat="14.43736" lon="-60.88057">
        <ele>21</ele>
        <time>2016-06-05T14:10:33.903Z</time>
      </trkpt>
      <trkpt lat="14.43739" lon="-60.88056">
        <ele>21</ele>
        <time>2016-06-05T14:10:34.902Z</time>
      </trkpt>
      <trkpt lat="14.43742" lon="-60.88054">
        <ele>21</ele>
        <time>2016-06-05T14:10:35.905Z</time>
      </trkpt>
      <trkpt lat="14.43745" lon="-60.88052">
        <ele>21</ele>
        <time>2016-06-05T14:10:36.901Z</time>
      </trkpt>
      <trkpt lat="14.43748" lon="-60.8805">
        <ele>21</ele>
        <time>2016-06-05T14:10:37.902Z</time>
      </trkpt>
      <trkpt lat="14.43751" lon="-60.88048">
        <ele>21</ele>
        <time>2016-06-05T14:10:38.902Z</time>
      </trkpt>
      <trkpt lat="14.43754" lon="-60.88047">
        <ele>21</ele>
        <time>2016-06-05T14:10:39.905Z</time>
      </trkpt>
      <trkpt lat="14.43758" lon="-60.88045">
        <ele>21</ele>
        <time>2016-06-05T14:10:40.899Z</time>
      </trkpt>
      <trkpt lat="14.43761" lon="-60.88042">
        <ele>21</ele>
        <time>2016-06-05T14:10:41.899Z</time>
      </trkpt>
      <trkpt lat="14.43765" lon="-60.8804">
        <ele>21</ele>
        <time>2016-06-05T14:10:42.895Z</time>
      </trkpt>
      <trkpt lat="14.43768" lon="-60.88037">
        <ele>20</ele>
        <time>2016-06-05T14:10:43.896Z</time>
      </trkpt>
      <trkpt lat="14.43771" lon="-60.88034">
        <ele>21</ele>
        <time>2016-06-05T14:10:44.897Z</time>
      </trkpt>
      <trkpt lat="14.43774" lon="-60.88031">
        <ele>21</ele>
        <time>2016-06-05T14:10:45.896Z</time>
      </trkpt>
      <trkpt lat="14.43778" lon="-60.88028">
        <ele>21</ele>
        <time>2016-06-05T14:10:46.895Z</time>
      </trkpt>
      <trkpt lat="14.43781" lon="-60.88024">
        <ele>21</ele>
        <time>2016-06-05T14:10:47.895Z</time>
      </trkpt>
      <trkpt lat="14.43784" lon="-60.88021">
        <ele>20</ele>
        <time>2016-06-05T14:10:48.896Z</time>
      </trkpt>
      <trkpt lat="14.43787" lon="-60.88017">
        <ele>20</ele>
        <time>2016-06-05T14:10:49.898Z</time>
      </trkpt>
      <trkpt lat="14.4379" lon="-60.88013">
        <ele>19</ele>
        <time>2016-06-05T14:10:50.896Z</time>
      </trkpt>
      <trkpt lat="14.43794" lon="-60.88009">
        <ele>18</ele>
        <time>2016-06-05T14:10:51.893Z</time>
      </trkpt>
      <trkpt lat="14.43798" lon="-60.88004">
        <ele>18</ele>
        <time>2016-06-05T14:10:52.897Z</time>
      </trkpt>
      <trkpt lat="14.43802" lon="-60.88">
        <ele>17</ele>
        <time>2016-06-05T14:10:53.900Z</time>
      </trkpt>
      <trkpt lat="14.43807" lon="-60.87995">
        <ele>17</ele>
        <time>2016-06-05T14:10:54.901Z</time>
      </trkpt>
      <trkpt lat="14.43812" lon="-60.8799">
        <ele>16</ele>
        <time>2016-06-05T14:10:55.905Z</time>
      </trkpt>
      <trkpt lat="14.43818" lon="-60.87984">
        <ele>15</ele>
        <time>2016-06-05T14:10:56.896Z</time>
      </trkpt>
      <trkpt lat="14.43823" lon="-60.87978">
        <ele>15</ele>
        <time>2016-06-05T14:10:57.896Z</time>
      </trkpt>
      <trkpt lat="14.43829" lon="-60.87972">
        <ele>14</ele>
        <time>2016-06-05T14:10:58.896Z</time>
      </trkpt>
      <trkpt lat="14.43835" lon="-60.87966">
        <ele>13</ele>
        <time>2016-06-05T14:10:59.896Z</time>
      </trkpt>
      <trkpt lat="14.43841" lon="-60.87959">
        <ele>12</ele>
        <time>2016-06-05T14:11:00.897Z</time>
      </trkpt>
      <trkpt lat="14.43848" lon="-60.87952">
        <ele>12</ele>
        <time>2016-06-05T14:11:01.900Z</time>
      </trkpt>
      <trkpt lat="14.43854" lon="-60.87945">
        <ele>11</ele>
        <time>2016-06-05T14:11:02.901Z</time>
      </trkpt>
      <trkpt lat="14.43861" lon="-60.87938">
        <ele>11</ele>
        <time>2016-06-05T14:11:03.899Z</time>
      </trkpt>
      <trkpt lat="14.43867" lon="-60.87932">
        <ele>10</ele>
        <time>2016-06-05T14:11:04.900Z</time>
      </trkpt>
      <trkpt lat="14.43873" lon="-60.87925">
        <ele>10</ele>
        <time>2016-06-05T14:11:05.902Z</time>
      </trkpt>
      <trkpt lat="14.4388" lon="-60.87918">
        <ele>10</ele>
        <time>2016-06-05T14:11:06.903Z</time>
      </trkpt>
      <trkpt lat="14.43887" lon="-60.87912">
        <ele>9</ele>
        <time>2016-06-05T14:11:07.901Z</time>
      </trkpt>
      <trkpt lat="14.43893" lon="-60.87906">
        <ele>9</ele>
        <time>2016-06-05T14:11:08.901Z</time>
      </trkpt>
      <trkpt lat="14.43897" lon="-60.87899">
        <ele>8</ele>
        <time>2016-06-05T14:11:09.900Z</time>
      </trkpt>
      <trkpt lat="14.43901" lon="-60.87893">
        <ele>8</ele>
        <time>2016-06-05T14:11:10.902Z</time>
      </trkpt>
      <trkpt lat="14.43903" lon="-60.87887">
        <ele>8</ele>
        <time>2016-06-05T14:11:11.901Z</time>
      </trkpt>
      <trkpt lat="14.43904" lon="-60.87882">
        <ele>8</ele>
        <time>2016-06-05T14:11:12.901Z</time>
      </trkpt>
      <trkpt lat="14.43907" lon="-60.87879">
        <ele>9</ele>
        <time>2016-06-05T14:11:13.901Z</time>
      </trkpt>
      <trkpt lat="14.43911" lon="-60.87877">
        <ele>8</ele>
        <time>2016-06-05T14:11:14.903Z</time>
      </trkpt>
      <trkpt lat="14.43914" lon="-60.87875">
        <ele>9</ele>
        <time>2016-06-05T14:11:15.903Z</time>
      </trkpt>
      <trkpt lat="14.43917" lon="-60.87876">
        <ele>9</ele>
        <time>2016-06-05T14:11:16.903Z</time>
      </trkpt>
      <trkpt lat="14.43919" lon="-60.87879">
        <ele>8</ele>
        <time>2016-06-05T14:11:17.905Z</time>
      </trkpt>
      <trkpt lat="14.43921" lon="-60.87882">
        <ele>8</ele>
        <time>2016-06-05T14:11:18.906Z</time>
      </trkpt>
      <trkpt lat="14.43923" lon="-60.87882">
        <ele>8</ele>
        <time>2016-06-05T14:11:19.903Z</time>
      </trkpt>
      <trkpt lat="14.43925" lon="-60.8788">
        <ele>7</ele>
        <time>2016-06-05T14:11:20.903Z</time>
      </trkpt>
      <trkpt lat="14.43926" lon="-60.87878">
        <ele>9</ele>
        <time>2016-06-05T14:11:32.901Z</time>
      </trkpt>
      <trkpt lat="14.43927" lon="-60.87875">
        <ele>6</ele>
        <time>2016-06-05T14:11:37.902Z</time>
      </trkpt>
    </trkseg>
  </trk>
</gpx>